<?xml version='1.0' encoding='UTF-8'?><gpx version="1.1" creator="JPX - https://github.com/jenetics/jpx" xmlns="http://www.topografix.com/GPX/1/1"><trk><trkseg><trkpt lat="42.3537448" lon="13.4021499"><ele>734.0</ele><time>2026-05-03T07:17:09.001Z</time></trkpt><trkpt lat="42.3537371" lon="13.4020506"><ele>734.0</ele><time>2026-05-03T07:17:16.001Z</time></trkpt><trkpt lat="42.3537285" lon="13.4019252"><ele>734.0</ele><time>2026-05-03T07:17:19Z</time></trkpt><trkpt lat="42.3537385" lon="13.4018289"><ele>734.0</ele><time>2026-05-03T07:17:20.999Z</time></trkpt><trkpt lat="42.3537723" lon="13.4017455"><ele>734.0</ele><time>2026-05-03T07:17:23Z</time></trkpt><trkpt lat="42.3538211" lon="13.4016842"><ele>734.0</ele><time>2026-05-03T07:17:25.001Z</time></trkpt><trkpt lat="42.3538823" lon="13.4016541"><ele>734.0</ele><time>2026-05-03T07:17:27.002Z</time></trkpt><trkpt lat="42.3539475" lon="13.4016573"><ele>732.8000000000001</ele><time>2026-05-03T07:17:41.002Z</time></trkpt><trkpt lat="42.3540119" lon="13.4016967"><ele>731.6</ele><time>2026-05-03T07:17:43.002Z</time></trkpt><trkpt lat="42.354096" lon="13.4018038"><ele>730.4</ele><time>2026-05-03T07:17:44.999Z</time></trkpt><trkpt lat="42.3541524" lon="13.4018831"><ele>729.2</ele><time>2026-05-03T07:17:46.001Z</time></trkpt><trkpt lat="42.3542224" lon="13.4019681"><ele>728.0</ele><time>2026-05-03T07:17:47.002Z</time></trkpt><trkpt lat="42.3543009" lon="13.4020596"><ele>728.0</ele><time>2026-05-03T07:17:47.999Z</time></trkpt><trkpt lat="42.3543829" lon="13.4021572"><ele>728.0</ele><time>2026-05-03T07:17:49Z</time></trkpt><trkpt lat="42.3544712" lon="13.402263"><ele>728.0</ele><time>2026-05-03T07:17:49.998Z</time></trkpt><trkpt lat="42.3545644" lon="13.402367"><ele>728.0</ele><time>2026-05-03T07:17:51.001Z</time></trkpt><trkpt lat="42.3546592" lon="13.402474"><ele>725.0</ele><time>2026-05-03T07:17:51.998Z</time></trkpt><trkpt lat="42.3547537" lon="13.4025876"><ele>722.0</ele><time>2026-05-03T07:17:53.002Z</time></trkpt><trkpt lat="42.3548542" lon="13.4027049"><ele>719.0</ele><time>2026-05-03T07:17:53.999Z</time></trkpt><trkpt lat="42.3549468" lon="13.4028169"><ele>716.0</ele><time>2026-05-03T07:17:55.001Z</time></trkpt><trkpt lat="42.3550306" lon="13.4029363"><ele>717.75</ele><time>2026-05-03T07:17:55.999Z</time></trkpt><trkpt lat="42.3551054" lon="13.4030628"><ele>719.5</ele><time>2026-05-03T07:17:56.999Z</time></trkpt><trkpt lat="42.3551688" lon="13.4031918"><ele>721.25</ele><time>2026-05-03T07:17:57.999Z</time></trkpt><trkpt lat="42.3552195" lon="13.4033333"><ele>723.0</ele><time>2026-05-03T07:17:58.997Z</time></trkpt><trkpt lat="42.3552697" lon="13.4034855"><ele>723.0</ele><time>2026-05-03T07:17:59.999Z</time></trkpt><trkpt lat="42.3553092" lon="13.4036468"><ele>723.0</ele><time>2026-05-03T07:18:01.002Z</time></trkpt><trkpt lat="42.3553457" lon="13.4038107"><ele>723.0</ele><time>2026-05-03T07:18:02.002Z</time></trkpt><trkpt lat="42.3553822" lon="13.4039772"><ele>723.0</ele><time>2026-05-03T07:18:03.001Z</time></trkpt><trkpt lat="42.355417" lon="13.4041415"><ele>724.75</ele><time>2026-05-03T07:18:03.998Z</time></trkpt><trkpt lat="42.3554527" lon="13.4043015"><ele>726.5</ele><time>2026-05-03T07:18:05Z</time></trkpt><trkpt lat="42.3554913" lon="13.4044536"><ele>728.25</ele><time>2026-05-03T07:18:05.999Z</time></trkpt><trkpt lat="42.355527" lon="13.4046013"><ele>730.0</ele><time>2026-05-03T07:18:07.002Z</time></trkpt><trkpt lat="42.3555586" lon="13.4047292"><ele>727.2857142857143</ele><time>2026-05-03T07:18:08.002Z</time></trkpt><trkpt lat="42.3555835" lon="13.4048297"><ele>724.5714285714286</ele><time>2026-05-03T07:18:09.001Z</time></trkpt><trkpt lat="42.3556036" lon="13.4049194"><ele>721.8571428571429</ele><time>2026-05-03T07:18:10.002Z</time></trkpt><trkpt lat="42.3556219" lon="13.4050048"><ele>719.1428571428571</ele><time>2026-05-03T07:18:11.001Z</time></trkpt><trkpt lat="42.3556352" lon="13.4050887"><ele>716.4285714285714</ele><time>2026-05-03T07:18:12Z</time></trkpt><trkpt lat="42.3556493" lon="13.4051728"><ele>713.7142857142858</ele><time>2026-05-03T07:18:12.999Z</time></trkpt><trkpt lat="42.3556687" lon="13.4052562"><ele>711.0</ele><time>2026-05-03T07:18:14.002Z</time></trkpt><trkpt lat="42.3556855" lon="13.4053426"><ele>711.0</ele><time>2026-05-03T07:18:15.002Z</time></trkpt><trkpt lat="42.3557039" lon="13.4054305"><ele>711.0</ele><time>2026-05-03T07:18:16Z</time></trkpt><trkpt lat="42.3557208" lon="13.4055204"><ele>711.0</ele><time>2026-05-03T07:18:16.998Z</time></trkpt><trkpt lat="42.3557277" lon="13.4056363"><ele>711.0</ele><time>2026-05-03T07:18:18.999Z</time></trkpt><trkpt lat="42.3557255" lon="13.4057489"><ele>711.0</ele><time>2026-05-03T07:18:22Z</time></trkpt><trkpt lat="42.355733" lon="13.4058731"><ele>711.0</ele><time>2026-05-03T07:18:24.002Z</time></trkpt><trkpt lat="42.3557573" lon="13.4060329"><ele>711.1666666666666</ele><time>2026-05-03T07:18:26.002Z</time></trkpt><trkpt lat="42.3557721" lon="13.4061197"><ele>711.3333333333334</ele><time>2026-05-03T07:18:27.002Z</time></trkpt><trkpt lat="42.3557831" lon="13.4062128"><ele>711.5</ele><time>2026-05-03T07:18:27.999Z</time></trkpt><trkpt lat="42.3557784" lon="13.4063147"><ele>711.6666666666667</ele><time>2026-05-03T07:18:29.002Z</time></trkpt><trkpt lat="42.3557591" lon="13.4064216"><ele>711.8333333333334</ele><time>2026-05-03T07:18:30.002Z</time></trkpt><trkpt lat="42.3557216" lon="13.4065277"><ele>712.0</ele><time>2026-05-03T07:18:31.001Z</time></trkpt><trkpt lat="42.3556731" lon="13.4066244"><ele>712.0</ele><time>2026-05-03T07:18:32.001Z</time></trkpt><trkpt lat="42.3556232" lon="13.406707"><ele>712.0</ele><time>2026-05-03T07:18:33.001Z</time></trkpt><trkpt lat="42.3555671" lon="13.4067808"><ele>712.0</ele><time>2026-05-03T07:18:34.002Z</time></trkpt><trkpt lat="42.3555055" lon="13.4068392"><ele>712.0</ele><time>2026-05-03T07:18:35.001Z</time></trkpt><trkpt lat="42.3554348" lon="13.4068859"><ele>712.0</ele><time>2026-05-03T07:18:36Z</time></trkpt><trkpt lat="42.3553656" lon="13.4069432"><ele>712.0</ele><time>2026-05-03T07:18:37.001Z</time></trkpt><trkpt lat="42.3553054" lon="13.4070179"><ele>712.0</ele><time>2026-05-03T07:18:38.001Z</time></trkpt><trkpt lat="42.3552513" lon="13.4071092"><ele>712.0</ele><time>2026-05-03T07:18:39Z</time></trkpt><trkpt lat="42.3551955" lon="13.4072154"><ele>712.0</ele><time>2026-05-03T07:18:40Z</time></trkpt><trkpt lat="42.3551283" lon="13.407335"><ele>712.0</ele><time>2026-05-03T07:18:41.001Z</time></trkpt><trkpt lat="42.3550634" lon="13.4074495"><ele>712.0</ele><time>2026-05-03T07:18:42.002Z</time></trkpt><trkpt lat="42.3549955" lon="13.4075804"><ele>712.0</ele><time>2026-05-03T07:18:42.999Z</time></trkpt><trkpt lat="42.3549266" lon="13.407716"><ele>712.0</ele><time>2026-05-03T07:18:44Z</time></trkpt><trkpt lat="42.3548489" lon="13.4078561"><ele>712.0</ele><time>2026-05-03T07:18:44.999Z</time></trkpt><trkpt lat="42.3547752" lon="13.4080049"><ele>712.0</ele><time>2026-05-03T07:18:46.001Z</time></trkpt><trkpt lat="42.3547032" lon="13.408161"><ele>710.75</ele><time>2026-05-03T07:18:47Z</time></trkpt><trkpt lat="42.3546261" lon="13.4083147"><ele>709.5</ele><time>2026-05-03T07:18:48.002Z</time></trkpt><trkpt lat="42.3545504" lon="13.408457"><ele>708.25</ele><time>2026-05-03T07:18:49.001Z</time></trkpt><trkpt lat="42.3544809" lon="13.4085878"><ele>707.0</ele><time>2026-05-03T07:18:50Z</time></trkpt><trkpt lat="42.3544167" lon="13.4087081"><ele>707.0</ele><time>2026-05-03T07:18:51.002Z</time></trkpt><trkpt lat="42.3543523" lon="13.408817"><ele>707.0</ele><time>2026-05-03T07:18:52.001Z</time></trkpt><trkpt lat="42.3542925" lon="13.4089209"><ele>707.0</ele><time>2026-05-03T07:18:53.002Z</time></trkpt><trkpt lat="42.3542373" lon="13.4090181"><ele>707.0</ele><time>2026-05-03T07:18:54.002Z</time></trkpt><trkpt lat="42.3541791" lon="13.409122"><ele>707.0</ele><time>2026-05-03T07:18:55.001Z</time></trkpt><trkpt lat="42.3541128" lon="13.4092252"><ele>708.5</ele><time>2026-05-03T07:18:56.002Z</time></trkpt><trkpt lat="42.3540393" lon="13.4093386"><ele>710.0</ele><time>2026-05-03T07:18:57.002Z</time></trkpt><trkpt lat="42.3539645" lon="13.4094601"><ele>711.5</ele><time>2026-05-03T07:18:58.002Z</time></trkpt><trkpt lat="42.3538878" lon="13.4095784"><ele>713.0</ele><time>2026-05-03T07:18:59Z</time></trkpt><trkpt lat="42.3538099" lon="13.4096946"><ele>713.0</ele><time>2026-05-03T07:19:00.002Z</time></trkpt><trkpt lat="42.3537315" lon="13.409805"><ele>713.0</ele><time>2026-05-03T07:19:01.002Z</time></trkpt><trkpt lat="42.3536571" lon="13.4099153"><ele>713.0</ele><time>2026-05-03T07:19:02.001Z</time></trkpt><trkpt lat="42.3535837" lon="13.4100251"><ele>713.0</ele><time>2026-05-03T07:19:03.001Z</time></trkpt><trkpt lat="42.3535119" lon="13.4101324"><ele>713.0</ele><time>2026-05-03T07:19:04.001Z</time></trkpt><trkpt lat="42.3534383" lon="13.4102388"><ele>713.0</ele><time>2026-05-03T07:19:05.001Z</time></trkpt><trkpt lat="42.3533655" lon="13.4103434"><ele>713.0</ele><time>2026-05-03T07:19:05.999Z</time></trkpt><trkpt lat="42.3532916" lon="13.4104516"><ele>713.0</ele><time>2026-05-03T07:19:06.999Z</time></trkpt><trkpt lat="42.3532203" lon="13.4105602"><ele>713.0</ele><time>2026-05-03T07:19:08.002Z</time></trkpt><trkpt lat="42.3531489" lon="13.4106697"><ele>713.0</ele><time>2026-05-03T07:19:09.001Z</time></trkpt><trkpt lat="42.3530777" lon="13.4107747"><ele>713.2</ele><time>2026-05-03T07:19:10.001Z</time></trkpt><trkpt lat="42.3530078" lon="13.4108809"><ele>713.4</ele><time>2026-05-03T07:19:11.001Z</time></trkpt><trkpt lat="42.3529371" lon="13.410987"><ele>713.6</ele><time>2026-05-03T07:19:12.001Z</time></trkpt><trkpt lat="42.3528647" lon="13.4111019"><ele>713.8000000000001</ele><time>2026-05-03T07:19:13.001Z</time></trkpt><trkpt lat="42.3527866" lon="13.4112158"><ele>714.0</ele><time>2026-05-03T07:19:14.001Z</time></trkpt><trkpt lat="42.3527058" lon="13.4113402"><ele>714.4000000000001</ele><time>2026-05-03T07:19:15.002Z</time></trkpt><trkpt lat="42.3526211" lon="13.411458"><ele>714.8</ele><time>2026-05-03T07:19:16.002Z</time></trkpt><trkpt lat="42.3525409" lon="13.4115727"><ele>715.2</ele><time>2026-05-03T07:19:17.001Z</time></trkpt><trkpt lat="42.3524685" lon="13.4116717"><ele>715.5999999999999</ele><time>2026-05-03T07:19:18.002Z</time></trkpt><trkpt lat="42.3523971" lon="13.4117698"><ele>716.0</ele><time>2026-05-03T07:19:18.998Z</time></trkpt><trkpt lat="42.3523443" lon="13.4118452"><ele>716.0</ele><time>2026-05-03T07:19:20Z</time></trkpt><trkpt lat="42.352283" lon="13.4119286"><ele>716.0</ele><time>2026-05-03T07:19:20.999Z</time></trkpt><trkpt lat="42.3522271" lon="13.4120217"><ele>716.0</ele><time>2026-05-03T07:19:22.002Z</time></trkpt><trkpt lat="42.3521629" lon="13.4121249"><ele>716.0</ele><time>2026-05-03T07:19:23.001Z</time></trkpt><trkpt lat="42.3520985" lon="13.4122344"><ele>716.0</ele><time>2026-05-03T07:19:24.002Z</time></trkpt><trkpt lat="42.3520429" lon="13.4123527"><ele>715.8</ele><time>2026-05-03T07:19:25.002Z</time></trkpt><trkpt lat="42.3520057" lon="13.412475"><ele>715.5999999999999</ele><time>2026-05-03T07:19:26.002Z</time></trkpt><trkpt lat="42.3519852" lon="13.4126021"><ele>715.4</ele><time>2026-05-03T07:19:27.001Z</time></trkpt><trkpt lat="42.351987" lon="13.4127355"><ele>715.2</ele><time>2026-05-03T07:19:28.001Z</time></trkpt><trkpt lat="42.3520104" lon="13.4128787"><ele>715.0</ele><time>2026-05-03T07:19:29.002Z</time></trkpt><trkpt lat="42.3520583" lon="13.4130321"><ele>715.5</ele><time>2026-05-03T07:19:30.002Z</time></trkpt><trkpt lat="42.3521223" lon="13.4131979"><ele>716.0</ele><time>2026-05-03T07:19:31.002Z</time></trkpt><trkpt lat="42.3521906" lon="13.4133726"><ele>716.5</ele><time>2026-05-03T07:19:32.002Z</time></trkpt><trkpt lat="42.3522605" lon="13.4135519"><ele>717.0</ele><time>2026-05-03T07:19:33Z</time></trkpt><trkpt lat="42.3523333" lon="13.4137357"><ele>718.0</ele><time>2026-05-03T07:19:34.001Z</time></trkpt><trkpt lat="42.3523931" lon="13.4139258"><ele>719.0</ele><time>2026-05-03T07:19:35.002Z</time></trkpt><trkpt lat="42.3524292" lon="13.4141309"><ele>720.0</ele><time>2026-05-03T07:19:36.001Z</time></trkpt><trkpt lat="42.3524444" lon="13.4143409"><ele>720.0</ele><time>2026-05-03T07:19:37Z</time></trkpt><trkpt lat="42.3524372" lon="13.4145541"><ele>720.0</ele><time>2026-05-03T07:19:38.002Z</time></trkpt><trkpt lat="42.3524092" lon="13.4147604"><ele>720.0</ele><time>2026-05-03T07:19:39.001Z</time></trkpt><trkpt lat="42.3523603" lon="13.4149613"><ele>720.3333333333334</ele><time>2026-05-03T07:19:40.002Z</time></trkpt><trkpt lat="42.3522894" lon="13.4151491"><ele>720.6666666666667</ele><time>2026-05-03T07:19:41.001Z</time></trkpt><trkpt lat="42.3522054" lon="13.4153312"><ele>721.0</ele><time>2026-05-03T07:19:42.001Z</time></trkpt><trkpt lat="42.3521165" lon="13.4155107"><ele>722.0</ele><time>2026-05-03T07:19:43.002Z</time></trkpt><trkpt lat="42.3520233" lon="13.415688"><ele>723.0</ele><time>2026-05-03T07:19:43.999Z</time></trkpt><trkpt lat="42.3519303" lon="13.4158626"><ele>724.0</ele><time>2026-05-03T07:19:45.002Z</time></trkpt><trkpt lat="42.3518482" lon="13.4160475"><ele>724.0</ele><time>2026-05-03T07:19:46.002Z</time></trkpt><trkpt lat="42.3517825" lon="13.4162462"><ele>724.0</ele><time>2026-05-03T07:19:47.001Z</time></trkpt><trkpt lat="42.3517348" lon="13.4164556"><ele>724.0</ele><time>2026-05-03T07:19:48.001Z</time></trkpt><trkpt lat="42.3517" lon="13.4166734"><ele>725.0</ele><time>2026-05-03T07:19:49.001Z</time></trkpt><trkpt lat="42.3516767" lon="13.4168969"><ele>726.0</ele><time>2026-05-03T07:19:50.001Z</time></trkpt><trkpt lat="42.3516631" lon="13.4171216"><ele>727.0</ele><time>2026-05-03T07:19:51.002Z</time></trkpt><trkpt lat="42.3516556" lon="13.4173462"><ele>728.0</ele><time>2026-05-03T07:19:52.001Z</time></trkpt><trkpt lat="42.3516477" lon="13.4175676"><ele>729.0</ele><time>2026-05-03T07:19:53.002Z</time></trkpt><trkpt lat="42.3516447" lon="13.417783"><ele>730.0</ele><time>2026-05-03T07:19:54.002Z</time></trkpt><trkpt lat="42.3516531" lon="13.41799"><ele>730.0</ele><time>2026-05-03T07:19:55.002Z</time></trkpt><trkpt lat="42.3516836" lon="13.4181858"><ele>730.0</ele><time>2026-05-03T07:19:56.001Z</time></trkpt><trkpt lat="42.3517362" lon="13.4183619"><ele>730.0</ele><time>2026-05-03T07:19:57.002Z</time></trkpt><trkpt lat="42.3518087" lon="13.4185012"><ele>730.0</ele><time>2026-05-03T07:19:58.002Z</time></trkpt><trkpt lat="42.3518821" lon="13.4186217"><ele>730.0</ele><time>2026-05-03T07:19:59.001Z</time></trkpt><trkpt lat="42.3519364" lon="13.4187445"><ele>730.0</ele><time>2026-05-03T07:20:00.001Z</time></trkpt><trkpt lat="42.3519802" lon="13.4188789"><ele>730.0</ele><time>2026-05-03T07:20:01.001Z</time></trkpt><trkpt lat="42.3520324" lon="13.4190118"><ele>730.0</ele><time>2026-05-03T07:20:02.001Z</time></trkpt><trkpt lat="42.3520998" lon="13.4191328"><ele>730.0</ele><time>2026-05-03T07:20:03.001Z</time></trkpt><trkpt lat="42.3521719" lon="13.4192486"><ele>732.0</ele><time>2026-05-03T07:20:04.002Z</time></trkpt><trkpt lat="42.3522311" lon="13.4193743"><ele>734.0</ele><time>2026-05-03T07:20:05.002Z</time></trkpt><trkpt lat="42.3522764" lon="13.4194959"><ele>736.0</ele><time>2026-05-03T07:20:06.002Z</time></trkpt><trkpt lat="42.3523164" lon="13.4196038"><ele>738.0</ele><time>2026-05-03T07:20:07.001Z</time></trkpt><trkpt lat="42.3523406" lon="13.4197666"><ele>740.0</ele><time>2026-05-03T07:20:09.002Z</time></trkpt><trkpt lat="42.352391" lon="13.4199193"><ele>740.0</ele><time>2026-05-03T07:20:11.001Z</time></trkpt><trkpt lat="42.3524291" lon="13.4200045"><ele>740.0</ele><time>2026-05-03T07:20:12.002Z</time></trkpt><trkpt lat="42.3524566" lon="13.4201069"><ele>740.0</ele><time>2026-05-03T07:20:13.001Z</time></trkpt><trkpt lat="42.3524743" lon="13.4202202"><ele>740.0</ele><time>2026-05-03T07:20:14.002Z</time></trkpt><trkpt lat="42.3524831" lon="13.4203418"><ele>740.0</ele><time>2026-05-03T07:20:15.002Z</time></trkpt><trkpt lat="42.3524758" lon="13.4204681"><ele>740.0</ele><time>2026-05-03T07:20:16.002Z</time></trkpt><trkpt lat="42.352454" lon="13.4205944"><ele>740.2</ele><time>2026-05-03T07:20:17.002Z</time></trkpt><trkpt lat="42.3524332" lon="13.4207243"><ele>740.4</ele><time>2026-05-03T07:20:18.001Z</time></trkpt><trkpt lat="42.3524196" lon="13.4208597"><ele>740.5999999999999</ele><time>2026-05-03T07:20:19.002Z</time></trkpt><trkpt lat="42.3524125" lon="13.4209973"><ele>740.8</ele><time>2026-05-03T07:20:19.999Z</time></trkpt><trkpt lat="42.3524218" lon="13.4211332"><ele>741.0</ele><time>2026-05-03T07:20:21.001Z</time></trkpt><trkpt lat="42.3524368" lon="13.4212676"><ele>741.5999999999999</ele><time>2026-05-03T07:20:22.002Z</time></trkpt><trkpt lat="42.3524637" lon="13.4214191"><ele>742.2</ele><time>2026-05-03T07:20:22.999Z</time></trkpt><trkpt lat="42.3524964" lon="13.4215654"><ele>742.8</ele><time>2026-05-03T07:20:24.002Z</time></trkpt><trkpt lat="42.3525449" lon="13.4216967"><ele>743.4000000000001</ele><time>2026-05-03T07:20:25.001Z</time></trkpt><trkpt lat="42.3526035" lon="13.4218214"><ele>744.0</ele><time>2026-05-03T07:20:26.001Z</time></trkpt><trkpt lat="42.3526588" lon="13.4219509"><ele>744.0</ele><time>2026-05-03T07:20:27.001Z</time></trkpt><trkpt lat="42.3527545" lon="13.4220503"><ele>744.0</ele><time>2026-05-03T07:20:28.001Z</time></trkpt><trkpt lat="42.3528242" lon="13.4221756"><ele>744.0</ele><time>2026-05-03T07:20:29.001Z</time></trkpt><trkpt lat="42.3528784" lon="13.4222957"><ele>744.0</ele><time>2026-05-03T07:20:30.002Z</time></trkpt><trkpt lat="42.3530284" lon="13.4225251"><ele>745.0</ele><time>2026-05-03T07:20:31.002Z</time></trkpt><trkpt lat="42.3531461" lon="13.4226851"><ele>746.0</ele><time>2026-05-03T07:20:31.998Z</time></trkpt><trkpt lat="42.3532303" lon="13.4228387"><ele>747.0</ele><time>2026-05-03T07:20:33.001Z</time></trkpt><trkpt lat="42.3533082" lon="13.4229747"><ele>748.0</ele><time>2026-05-03T07:20:34.002Z</time></trkpt><trkpt lat="42.35338" lon="13.423117"><ele>748.0</ele><time>2026-05-03T07:20:35.002Z</time></trkpt><trkpt lat="42.3534559" lon="13.423244"><ele>748.0</ele><time>2026-05-03T07:20:36.002Z</time></trkpt><trkpt lat="42.3535292" lon="13.4233667"><ele>748.0</ele><time>2026-05-03T07:20:37.002Z</time></trkpt><trkpt lat="42.3535963" lon="13.4234779"><ele>748.0</ele><time>2026-05-03T07:20:38.001Z</time></trkpt><trkpt lat="42.353659" lon="13.4235762"><ele>748.0</ele><time>2026-05-03T07:20:39.001Z</time></trkpt><trkpt lat="42.3537116" lon="13.4236539"><ele>748.0</ele><time>2026-05-03T07:20:40Z</time></trkpt><trkpt lat="42.3537895" lon="13.4236934"><ele>748.0</ele><time>2026-05-03T07:20:42.998Z</time></trkpt><trkpt lat="42.3537862" lon="13.4235731"><ele>748.0</ele><time>2026-05-03T07:20:45.998Z</time></trkpt><trkpt lat="42.3537479" lon="13.4235045"><ele>748.0</ele><time>2026-05-03T07:20:47.002Z</time></trkpt><trkpt lat="42.3536979" lon="13.4234119"><ele>748.0</ele><time>2026-05-03T07:20:48.002Z</time></trkpt><trkpt lat="42.3536419" lon="13.4232952"><ele>748.0</ele><time>2026-05-03T07:20:49.001Z</time></trkpt><trkpt lat="42.353567" lon="13.4231449"><ele>748.0</ele><time>2026-05-03T07:20:50.002Z</time></trkpt><trkpt lat="42.353484" lon="13.4229813"><ele>748.0</ele><time>2026-05-03T07:20:51.001Z</time></trkpt><trkpt lat="42.3533961" lon="13.4228123"><ele>748.0</ele><time>2026-05-03T07:20:51.999Z</time></trkpt><trkpt lat="42.3533083" lon="13.4226451"><ele>747.0</ele><time>2026-05-03T07:20:53.002Z</time></trkpt><trkpt lat="42.3532224" lon="13.4224837"><ele>746.0</ele><time>2026-05-03T07:20:53.999Z</time></trkpt><trkpt lat="42.353128" lon="13.4223264"><ele>745.0</ele><time>2026-05-03T07:20:54.999Z</time></trkpt><trkpt lat="42.3530277" lon="13.4221838"><ele>744.0</ele><time>2026-05-03T07:20:56Z</time></trkpt><trkpt lat="42.3529318" lon="13.4220555"><ele>744.0</ele><time>2026-05-03T07:20:56.999Z</time></trkpt><trkpt lat="42.3528477" lon="13.4219248"><ele>744.0</ele><time>2026-05-03T07:20:58.002Z</time></trkpt><trkpt lat="42.3527711" lon="13.4217819"><ele>744.0</ele><time>2026-05-03T07:20:59.002Z</time></trkpt><trkpt lat="42.3527074" lon="13.4216146"><ele>744.0</ele><time>2026-05-03T07:21:00.001Z</time></trkpt><trkpt lat="42.3526593" lon="13.4214299"><ele>743.25</ele><time>2026-05-03T07:21:01.001Z</time></trkpt><trkpt lat="42.3526196" lon="13.4212335"><ele>742.5</ele><time>2026-05-03T07:21:01.998Z</time></trkpt><trkpt lat="42.3525974" lon="13.4210419"><ele>741.75</ele><time>2026-05-03T07:21:03.002Z</time></trkpt><trkpt lat="42.352596" lon="13.4208636"><ele>741.0</ele><time>2026-05-03T07:21:04.002Z</time></trkpt><trkpt lat="42.3526047" lon="13.420682"><ele>741.0</ele><time>2026-05-03T07:21:05.002Z</time></trkpt><trkpt lat="42.352614" lon="13.4204943"><ele>741.0</ele><time>2026-05-03T07:21:06.002Z</time></trkpt><trkpt lat="42.3526096" lon="13.4203057"><ele>741.0</ele><time>2026-05-03T07:21:07.002Z</time></trkpt><trkpt lat="42.3525873" lon="13.4201291"><ele>741.0</ele><time>2026-05-03T07:21:08.002Z</time></trkpt><trkpt lat="42.3525447" lon="13.4199688"><ele>741.0</ele><time>2026-05-03T07:21:09Z</time></trkpt><trkpt lat="42.3524882" lon="13.4198253"><ele>741.0</ele><time>2026-05-03T07:21:09.999Z</time></trkpt><trkpt lat="42.3524279" lon="13.4196924"><ele>741.0</ele><time>2026-05-03T07:21:11.001Z</time></trkpt><trkpt lat="42.3523685" lon="13.4195655"><ele>741.0</ele><time>2026-05-03T07:21:11.997Z</time></trkpt><trkpt lat="42.3523267" lon="13.4194359"><ele>741.0</ele><time>2026-05-03T07:21:12.999Z</time></trkpt><trkpt lat="42.3523073" lon="13.4193031"><ele>741.0</ele><time>2026-05-03T07:21:13.999Z</time></trkpt><trkpt lat="42.3523022" lon="13.4191784"><ele>741.0</ele><time>2026-05-03T07:21:15.001Z</time></trkpt><trkpt lat="42.3522956" lon="13.4190576"><ele>741.0</ele><time>2026-05-03T07:21:16.002Z</time></trkpt><trkpt lat="42.3522766" lon="13.4189477"><ele>741.0</ele><time>2026-05-03T07:21:17.002Z</time></trkpt><trkpt lat="42.3522411" lon="13.4188655"><ele>741.0</ele><time>2026-05-03T07:21:18Z</time></trkpt><trkpt lat="42.3521513" lon="13.418794"><ele>739.3333333333334</ele><time>2026-05-03T07:21:20.001Z</time></trkpt><trkpt lat="42.3520704" lon="13.4188149"><ele>737.6666666666666</ele><time>2026-05-03T07:21:22.002Z</time></trkpt><trkpt lat="42.3520282" lon="13.4188913"><ele>736.0</ele><time>2026-05-03T07:21:24Z</time></trkpt><trkpt lat="42.3520512" lon="13.4190277"><ele>734.3333333333333</ele><time>2026-05-03T07:21:25.999Z</time></trkpt><trkpt lat="42.3520873" lon="13.4190988"><ele>732.6666666666666</ele><time>2026-05-03T07:21:26.998Z</time></trkpt><trkpt lat="42.3521342" lon="13.4191727"><ele>731.0</ele><time>2026-05-03T07:21:27.999Z</time></trkpt><trkpt lat="42.3521808" lon="13.4192535"><ele>732.5</ele><time>2026-05-03T07:21:28.999Z</time></trkpt><trkpt lat="42.3522439" lon="13.4193411"><ele>734.0</ele><time>2026-05-03T07:21:31.002Z</time></trkpt><trkpt lat="42.3522787" lon="13.4194504"><ele>735.5</ele><time>2026-05-03T07:21:37.001Z</time></trkpt><trkpt lat="42.3522995" lon="13.419603"><ele>737.0</ele><time>2026-05-03T07:21:39Z</time></trkpt><trkpt lat="42.3523113" lon="13.4196958"><ele>738.5</ele><time>2026-05-03T07:21:40Z</time></trkpt><trkpt lat="42.3523243" lon="13.4197807"><ele>740.0</ele><time>2026-05-03T07:21:41.001Z</time></trkpt><trkpt lat="42.3523786" lon="13.4199212"><ele>740.0</ele><time>2026-05-03T07:21:43.002Z</time></trkpt><trkpt lat="42.3524391" lon="13.420073"><ele>740.0</ele><time>2026-05-03T07:21:45.001Z</time></trkpt><trkpt lat="42.3524596" lon="13.4201644"><ele>740.0</ele><time>2026-05-03T07:21:46.002Z</time></trkpt><trkpt lat="42.3524716" lon="13.4202629"><ele>740.0</ele><time>2026-05-03T07:21:47.001Z</time></trkpt><trkpt lat="42.3524755" lon="13.4203688"><ele>740.0</ele><time>2026-05-03T07:21:48.002Z</time></trkpt><trkpt lat="42.3524668" lon="13.4204792"><ele>740.0</ele><time>2026-05-03T07:21:49.001Z</time></trkpt><trkpt lat="42.3524477" lon="13.4206231"><ele>740.25</ele><time>2026-05-03T07:21:49.998Z</time></trkpt><trkpt lat="42.3524271" lon="13.4207922"><ele>740.5</ele><time>2026-05-03T07:21:50.999Z</time></trkpt><trkpt lat="42.3524166" lon="13.4209593"><ele>740.75</ele><time>2026-05-03T07:21:52.001Z</time></trkpt><trkpt lat="42.3524227" lon="13.4211272"><ele>741.0</ele><time>2026-05-03T07:21:53Z</time></trkpt><trkpt lat="42.352444" lon="13.4213048"><ele>742.0</ele><time>2026-05-03T07:21:54.001Z</time></trkpt><trkpt lat="42.3524707" lon="13.4214906"><ele>743.0</ele><time>2026-05-03T07:21:54.999Z</time></trkpt><trkpt lat="42.3525176" lon="13.4217316"><ele>744.0</ele><time>2026-05-03T07:21:55.997Z</time></trkpt><trkpt lat="42.3525581" lon="13.4219533"><ele>741.6666666666666</ele><time>2026-05-03T07:21:57Z</time></trkpt><trkpt lat="42.3526604" lon="13.4221495"><ele>739.3333333333333</ele><time>2026-05-03T07:21:58.001Z</time></trkpt><trkpt lat="42.3527529" lon="13.4223515"><ele>737.0</ele><time>2026-05-03T07:21:59Z</time></trkpt><trkpt lat="42.353074" lon="13.4226451"><ele>740.6666666666666</ele><time>2026-05-03T07:22:00.001Z</time></trkpt><trkpt lat="42.3532369" lon="13.4228786"><ele>744.3333333333334</ele><time>2026-05-03T07:22:01.001Z</time></trkpt><trkpt lat="42.3533627" lon="13.4230815"><ele>748.0</ele><time>2026-05-03T07:22:02Z</time></trkpt><trkpt lat="42.3534708" lon="13.4232679"><ele>748.0</ele><time>2026-05-03T07:22:03.002Z</time></trkpt><trkpt lat="42.3535658" lon="13.4234339"><ele>748.0</ele><time>2026-05-03T07:22:04.002Z</time></trkpt><trkpt lat="42.3536413" lon="13.4235505"><ele>748.0</ele><time>2026-05-03T07:22:05Z</time></trkpt><trkpt lat="42.3536976" lon="13.4236319"><ele>748.0</ele><time>2026-05-03T07:22:05.999Z</time></trkpt><trkpt lat="42.3537453" lon="13.4236953"><ele>748.0</ele><time>2026-05-03T07:22:07.001Z</time></trkpt><trkpt lat="42.3538156" lon="13.4237241"><ele>748.0</ele><time>2026-05-03T07:22:09.998Z</time></trkpt><trkpt lat="42.3538114" lon="13.423611"><ele>748.0</ele><time>2026-05-03T07:22:14.002Z</time></trkpt><trkpt lat="42.3537746" lon="13.4235337"><ele>748.0</ele><time>2026-05-03T07:22:15.002Z</time></trkpt><trkpt lat="42.3537233" lon="13.4234346"><ele>748.0</ele><time>2026-05-03T07:22:16.001Z</time></trkpt><trkpt lat="42.3536511" lon="13.4232994"><ele>748.0</ele><time>2026-05-03T07:22:17.001Z</time></trkpt><trkpt lat="42.3535693" lon="13.4231378"><ele>750.0</ele><time>2026-05-03T07:22:18.002Z</time></trkpt><trkpt lat="42.3534724" lon="13.4229538"><ele>752.0</ele><time>2026-05-03T07:22:18.999Z</time></trkpt><trkpt lat="42.3533637" lon="13.4227524"><ele>754.0</ele><time>2026-05-03T07:22:20.001Z</time></trkpt><trkpt lat="42.3532602" lon="13.4225617"><ele>754.0</ele><time>2026-05-03T07:22:21.001Z</time></trkpt><trkpt lat="42.3531631" lon="13.4223941"><ele>754.0</ele><time>2026-05-03T07:22:22.001Z</time></trkpt><trkpt lat="42.3530643" lon="13.4222428"><ele>754.0</ele><time>2026-05-03T07:22:23.002Z</time></trkpt><trkpt lat="42.352964" lon="13.4221066"><ele>754.0</ele><time>2026-05-03T07:22:24.002Z</time></trkpt><trkpt lat="42.3528725" lon="13.4219684"><ele>751.5</ele><time>2026-05-03T07:22:25.002Z</time></trkpt><trkpt lat="42.3527967" lon="13.4218312"><ele>749.0</ele><time>2026-05-03T07:22:26.001Z</time></trkpt><trkpt lat="42.3527289" lon="13.4216822"><ele>746.5</ele><time>2026-05-03T07:22:27.001Z</time></trkpt><trkpt lat="42.352671" lon="13.4214927"><ele>744.0</ele><time>2026-05-03T07:22:28Z</time></trkpt><trkpt lat="42.3526271" lon="13.4212913"><ele>743.25</ele><time>2026-05-03T07:22:29.001Z</time></trkpt><trkpt lat="42.3526011" lon="13.4210905"><ele>742.5</ele><time>2026-05-03T07:22:29.999Z</time></trkpt><trkpt lat="42.3525921" lon="13.4208931"><ele>741.75</ele><time>2026-05-03T07:22:30.998Z</time></trkpt><trkpt lat="42.3526022" lon="13.4206952"><ele>741.0</ele><time>2026-05-03T07:22:31.998Z</time></trkpt><trkpt lat="42.3526161" lon="13.4204865"><ele>740.75</ele><time>2026-05-03T07:22:33.001Z</time></trkpt><trkpt lat="42.3526098" lon="13.4202818"><ele>740.5</ele><time>2026-05-03T07:22:33.999Z</time></trkpt><trkpt lat="42.3525782" lon="13.4200942"><ele>740.25</ele><time>2026-05-03T07:22:35.001Z</time></trkpt><trkpt lat="42.3525262" lon="13.4199238"><ele>740.0</ele><time>2026-05-03T07:22:36Z</time></trkpt><trkpt lat="42.3524632" lon="13.4197709"><ele>740.25</ele><time>2026-05-03T07:22:37.002Z</time></trkpt><trkpt lat="42.3523994" lon="13.419632"><ele>740.5</ele><time>2026-05-03T07:22:38.001Z</time></trkpt><trkpt lat="42.3523435" lon="13.4194953"><ele>740.75</ele><time>2026-05-03T07:22:39Z</time></trkpt><trkpt lat="42.3523098" lon="13.4193522"><ele>741.0</ele><time>2026-05-03T07:22:40.001Z</time></trkpt><trkpt lat="42.3522995" lon="13.4192072"><ele>741.0</ele><time>2026-05-03T07:22:41Z</time></trkpt><trkpt lat="42.3522937" lon="13.4190675"><ele>741.0</ele><time>2026-05-03T07:22:42.002Z</time></trkpt><trkpt lat="42.3522703" lon="13.4189405"><ele>741.0</ele><time>2026-05-03T07:22:43.002Z</time></trkpt><trkpt lat="42.3522327" lon="13.4188638"><ele>741.0</ele><time>2026-05-03T07:22:43.998Z</time></trkpt><trkpt lat="42.3521247" lon="13.41881"><ele>741.0</ele><time>2026-05-03T07:22:45.999Z</time></trkpt><trkpt lat="42.3520114" lon="13.4188942"><ele>739.3333333333334</ele><time>2026-05-03T07:22:48.002Z</time></trkpt><trkpt lat="42.3519584" lon="13.418977"><ele>737.6666666666666</ele><time>2026-05-03T07:22:49.001Z</time></trkpt><trkpt lat="42.3519146" lon="13.4190767"><ele>736.0</ele><time>2026-05-03T07:22:49.999Z</time></trkpt><trkpt lat="42.3518903" lon="13.4191785"><ele>734.3333333333333</ele><time>2026-05-03T07:22:51.001Z</time></trkpt><trkpt lat="42.3518921" lon="13.4192835"><ele>732.6666666666666</ele><time>2026-05-03T07:22:52.002Z</time></trkpt><trkpt lat="42.3519219" lon="13.4193779"><ele>731.0</ele><time>2026-05-03T07:22:53.002Z</time></trkpt><trkpt lat="42.3519791" lon="13.4194746"><ele>731.0</ele><time>2026-05-03T07:22:54.002Z</time></trkpt><trkpt lat="42.35205" lon="13.4195971"><ele>731.0</ele><time>2026-05-03T07:22:55.002Z</time></trkpt><trkpt lat="42.3521177" lon="13.4197332"><ele>731.0</ele><time>2026-05-03T07:22:56.002Z</time></trkpt><trkpt lat="42.3521612" lon="13.4198731"><ele>731.0</ele><time>2026-05-03T07:22:57.002Z</time></trkpt><trkpt lat="42.3521812" lon="13.4200169"><ele>731.5</ele><time>2026-05-03T07:22:58.002Z</time></trkpt><trkpt lat="42.3521837" lon="13.4201769"><ele>732.0</ele><time>2026-05-03T07:22:59.001Z</time></trkpt><trkpt lat="42.3521774" lon="13.4203473"><ele>732.5</ele><time>2026-05-03T07:23:00.002Z</time></trkpt><trkpt lat="42.3521884" lon="13.4205215"><ele>733.0</ele><time>2026-05-03T07:23:01Z</time></trkpt><trkpt lat="42.3522203" lon="13.4206852"><ele>735.0</ele><time>2026-05-03T07:23:02.002Z</time></trkpt><trkpt lat="42.3522592" lon="13.4208468"><ele>737.0</ele><time>2026-05-03T07:23:03.002Z</time></trkpt><trkpt lat="42.3523018" lon="13.4210067"><ele>739.0</ele><time>2026-05-03T07:23:04.001Z</time></trkpt><trkpt lat="42.3523419" lon="13.4211679"><ele>741.0</ele><time>2026-05-03T07:23:04.997Z</time></trkpt><trkpt lat="42.3523786" lon="13.4213281"><ele>741.75</ele><time>2026-05-03T07:23:06.001Z</time></trkpt><trkpt lat="42.3524019" lon="13.4214876"><ele>742.5</ele><time>2026-05-03T07:23:07Z</time></trkpt><trkpt lat="42.3524036" lon="13.4216485"><ele>743.25</ele><time>2026-05-03T07:23:08.002Z</time></trkpt><trkpt lat="42.3523847" lon="13.421806"><ele>744.0</ele><time>2026-05-03T07:23:08.999Z</time></trkpt><trkpt lat="42.3523623" lon="13.4219575"><ele>744.0</ele><time>2026-05-03T07:23:10.001Z</time></trkpt><trkpt lat="42.3523525" lon="13.4221175"><ele>744.0</ele><time>2026-05-03T07:23:11.002Z</time></trkpt><trkpt lat="42.3523569" lon="13.4222883"><ele>744.0</ele><time>2026-05-03T07:23:12Z</time></trkpt><trkpt lat="42.3523692" lon="13.4224655"><ele>744.0</ele><time>2026-05-03T07:23:12.999Z</time></trkpt><trkpt lat="42.3523827" lon="13.4226442"><ele>742.25</ele><time>2026-05-03T07:23:14Z</time></trkpt><trkpt lat="42.3523946" lon="13.4228261"><ele>740.5</ele><time>2026-05-03T07:23:15.001Z</time></trkpt><trkpt lat="42.3524106" lon="13.4230089"><ele>738.75</ele><time>2026-05-03T07:23:16.001Z</time></trkpt><trkpt lat="42.3524298" lon="13.4231919"><ele>737.0</ele><time>2026-05-03T07:23:17.002Z</time></trkpt><trkpt lat="42.3524432" lon="13.4233769"><ele>734.5</ele><time>2026-05-03T07:23:18.002Z</time></trkpt><trkpt lat="42.3524375" lon="13.423559"><ele>732.0</ele><time>2026-05-03T07:23:19.002Z</time></trkpt><trkpt lat="42.3524173" lon="13.4237355"><ele>729.5</ele><time>2026-05-03T07:23:20.002Z</time></trkpt><trkpt lat="42.3523856" lon="13.4239149"><ele>727.0</ele><time>2026-05-03T07:23:21.002Z</time></trkpt><trkpt lat="42.3523482" lon="13.4241035"><ele>725.5</ele><time>2026-05-03T07:23:22.001Z</time></trkpt><trkpt lat="42.3523125" lon="13.4242841"><ele>724.0</ele><time>2026-05-03T07:23:23Z</time></trkpt><trkpt lat="42.3522737" lon="13.4244629"><ele>722.5</ele><time>2026-05-03T07:23:24.002Z</time></trkpt><trkpt lat="42.3522372" lon="13.4246369"><ele>721.0</ele><time>2026-05-03T07:23:25.001Z</time></trkpt><trkpt lat="42.3522048" lon="13.4247984"><ele>719.25</ele><time>2026-05-03T07:23:25.999Z</time></trkpt><trkpt lat="42.3521654" lon="13.4249472"><ele>717.5</ele><time>2026-05-03T07:23:26.998Z</time></trkpt><trkpt lat="42.3521133" lon="13.4250798"><ele>715.75</ele><time>2026-05-03T07:23:28Z</time></trkpt><trkpt lat="42.352047" lon="13.4252066"><ele>714.0</ele><time>2026-05-03T07:23:29.002Z</time></trkpt><trkpt lat="42.3519831" lon="13.4253348"><ele>714.0</ele><time>2026-05-03T07:23:30.001Z</time></trkpt><trkpt lat="42.3519189" lon="13.4254656"><ele>714.0</ele><time>2026-05-03T07:23:31.001Z</time></trkpt><trkpt lat="42.3518531" lon="13.4255969"><ele>714.0</ele><time>2026-05-03T07:23:32.001Z</time></trkpt><trkpt lat="42.351787" lon="13.4257282"><ele>714.0</ele><time>2026-05-03T07:23:33.001Z</time></trkpt><trkpt lat="42.3517232" lon="13.4258609"><ele>715.0</ele><time>2026-05-03T07:23:34Z</time></trkpt><trkpt lat="42.351663" lon="13.4259966"><ele>716.0</ele><time>2026-05-03T07:23:35.002Z</time></trkpt><trkpt lat="42.3516036" lon="13.4261307"><ele>717.0</ele><time>2026-05-03T07:23:36.002Z</time></trkpt><trkpt lat="42.3515489" lon="13.4262627"><ele>718.0</ele><time>2026-05-03T07:23:37.001Z</time></trkpt><trkpt lat="42.3515049" lon="13.4263975"><ele>720.2</ele><time>2026-05-03T07:23:38.002Z</time></trkpt><trkpt lat="42.3514693" lon="13.4265329"><ele>722.4</ele><time>2026-05-03T07:23:39.001Z</time></trkpt><trkpt lat="42.3514397" lon="13.4266695"><ele>724.6</ele><time>2026-05-03T07:23:40.001Z</time></trkpt><trkpt lat="42.3514094" lon="13.4268067"><ele>726.8000000000001</ele><time>2026-05-03T07:23:41.002Z</time></trkpt><trkpt lat="42.3513813" lon="13.4269421"><ele>729.0</ele><time>2026-05-03T07:23:42.001Z</time></trkpt><trkpt lat="42.3513645" lon="13.4270782"><ele>730.0</ele><time>2026-05-03T07:23:42.998Z</time></trkpt><trkpt lat="42.3513534" lon="13.4272104"><ele>731.0</ele><time>2026-05-03T07:23:44.002Z</time></trkpt><trkpt lat="42.3513399" lon="13.4273333"><ele>732.0</ele><time>2026-05-03T07:23:45.002Z</time></trkpt><trkpt lat="42.351315" lon="13.4274458"><ele>733.0</ele><time>2026-05-03T07:23:46.002Z</time></trkpt><trkpt lat="42.3512789" lon="13.4275488"><ele>734.0</ele><time>2026-05-03T07:23:47.001Z</time></trkpt><trkpt lat="42.351237" lon="13.4276483"><ele>735.0</ele><time>2026-05-03T07:23:48.001Z</time></trkpt><trkpt lat="42.3511949" lon="13.4277415"><ele>735.0</ele><time>2026-05-03T07:23:49.002Z</time></trkpt><trkpt lat="42.3511258" lon="13.4278309"><ele>735.0</ele><time>2026-05-03T07:23:51.001Z</time></trkpt><trkpt lat="42.3510527" lon="13.4279399"><ele>735.0</ele><time>2026-05-03T07:23:53Z</time></trkpt><trkpt lat="42.3510329" lon="13.4280308"><ele>735.0</ele><time>2026-05-03T07:23:54.001Z</time></trkpt><trkpt lat="42.351026" lon="13.4281891"><ele>735.0</ele><time>2026-05-03T07:23:56.001Z</time></trkpt><trkpt lat="42.3510242" lon="13.4282757"><ele>734.3333333333334</ele><time>2026-05-03T07:23:57.001Z</time></trkpt><trkpt lat="42.3510259" lon="13.4283634"><ele>733.6666666666666</ele><time>2026-05-03T07:23:58.001Z</time></trkpt><trkpt lat="42.3510199" lon="13.4284596"><ele>733.0</ele><time>2026-05-03T07:24:00.002Z</time></trkpt><trkpt lat="42.3510774" lon="13.4285094"><ele>732.3333333333333</ele><time>2026-05-03T07:24:06.001Z</time></trkpt><trkpt lat="42.3511313" lon="13.4284343"><ele>731.6666666666666</ele><time>2026-05-03T07:24:08.002Z</time></trkpt><trkpt lat="42.35122" lon="13.4283653"><ele>731.0</ele><time>2026-05-03T07:24:10Z</time></trkpt><trkpt lat="42.3513179" lon="13.4283577"><ele>732.6666666666666</ele><time>2026-05-03T07:24:12.002Z</time></trkpt><trkpt lat="42.3513842" lon="13.4283723"><ele>734.3333333333333</ele><time>2026-05-03T07:24:13.002Z</time></trkpt><trkpt lat="42.3514612" lon="13.4283954"><ele>736.0</ele><time>2026-05-03T07:24:14.002Z</time></trkpt><trkpt lat="42.3515321" lon="13.4284239"><ele>737.6666666666666</ele><time>2026-05-03T07:24:15.002Z</time></trkpt><trkpt lat="42.3515982" lon="13.4284731"><ele>739.3333333333334</ele><time>2026-05-03T07:24:16.002Z</time></trkpt><trkpt lat="42.3516514" lon="13.4285462"><ele>741.0</ele><time>2026-05-03T07:24:17.002Z</time></trkpt><trkpt lat="42.3516984" lon="13.4286328"><ele>741.0</ele><time>2026-05-03T07:24:17.998Z</time></trkpt><trkpt lat="42.3517514" lon="13.428716"><ele>741.0</ele><time>2026-05-03T07:24:18.999Z</time></trkpt><trkpt lat="42.3518024" lon="13.4287962"><ele>741.0</ele><time>2026-05-03T07:24:19.999Z</time></trkpt><trkpt lat="42.3518403" lon="13.4288644"><ele>741.0</ele><time>2026-05-03T07:24:21.001Z</time></trkpt><trkpt lat="42.3518813" lon="13.4289611"><ele>741.0</ele><time>2026-05-03T07:24:23.002Z</time></trkpt><trkpt lat="42.3518889" lon="13.4290716"><ele>741.0</ele><time>2026-05-03T07:24:26.001Z</time></trkpt><trkpt lat="42.3518514" lon="13.4291961"><ele>741.1999999999999</ele><time>2026-05-03T07:24:28.001Z</time></trkpt><trkpt lat="42.3518153" lon="13.4292952"><ele>741.4</ele><time>2026-05-03T07:24:29.002Z</time></trkpt><trkpt lat="42.3517735" lon="13.4294112"><ele>741.6</ele><time>2026-05-03T07:24:29.998Z</time></trkpt><trkpt lat="42.3517233" lon="13.4295363"><ele>741.8</ele><time>2026-05-03T07:24:30.999Z</time></trkpt><trkpt lat="42.3516655" lon="13.4296685"><ele>742.0</ele><time>2026-05-03T07:24:31.999Z</time></trkpt><trkpt lat="42.3516024" lon="13.4297951"><ele>742.3333333333334</ele><time>2026-05-03T07:24:33Z</time></trkpt><trkpt lat="42.3515358" lon="13.4299174"><ele>742.6666666666667</ele><time>2026-05-03T07:24:33.999Z</time></trkpt><trkpt lat="42.351483" lon="13.429998"><ele>743.0</ele><time>2026-05-03T07:24:34.999Z</time></trkpt><trkpt lat="42.3514285" lon="13.4300547"><ele>743.3333333333334</ele><time>2026-05-03T07:24:35.999Z</time></trkpt><trkpt lat="42.3513579" lon="13.4300812"><ele>743.6666666666666</ele><time>2026-05-03T07:24:37.001Z</time></trkpt><trkpt lat="42.3512815" lon="13.430067"><ele>744.0</ele><time>2026-05-03T07:24:38.002Z</time></trkpt><trkpt lat="42.3511988" lon="13.4300336"><ele>741.6</ele><time>2026-05-03T07:24:39.002Z</time></trkpt><trkpt lat="42.3511113" lon="13.4300066"><ele>739.2</ele><time>2026-05-03T07:24:40.001Z</time></trkpt><trkpt lat="42.3510193" lon="13.4299858"><ele>736.8000000000001</ele><time>2026-05-03T07:24:41.002Z</time></trkpt><trkpt lat="42.3509253" lon="13.4299646"><ele>734.4000000000001</ele><time>2026-05-03T07:24:42.001Z</time></trkpt><trkpt lat="42.3508268" lon="13.42996"><ele>732.0</ele><time>2026-05-03T07:24:43.002Z</time></trkpt><trkpt lat="42.3507287" lon="13.4299858"><ele>732.0</ele><time>2026-05-03T07:24:44.002Z</time></trkpt><trkpt lat="42.3506383" lon="13.4300419"><ele>732.0</ele><time>2026-05-03T07:24:45.001Z</time></trkpt><trkpt lat="42.3505543" lon="13.4301209"><ele>732.0</ele><time>2026-05-03T07:24:46.002Z</time></trkpt><trkpt lat="42.3504829" lon="13.4302205"><ele>732.0</ele><time>2026-05-03T07:24:47.001Z</time></trkpt><trkpt lat="42.3504122" lon="13.4303354"><ele>732.0</ele><time>2026-05-03T07:24:48.002Z</time></trkpt><trkpt lat="42.35034" lon="13.430456"><ele>731.0</ele><time>2026-05-03T07:24:49.002Z</time></trkpt><trkpt lat="42.3502633" lon="13.4305779"><ele>730.0</ele><time>2026-05-03T07:24:50.001Z</time></trkpt><trkpt lat="42.3501853" lon="13.4306967"><ele>729.0</ele><time>2026-05-03T07:24:51.002Z</time></trkpt><trkpt lat="42.350111" lon="13.4308108"><ele>728.0</ele><time>2026-05-03T07:24:52.001Z</time></trkpt><trkpt lat="42.3500294" lon="13.4309024"><ele>728.0</ele><time>2026-05-03T07:24:53.002Z</time></trkpt><trkpt lat="42.3499383" lon="13.4309752"><ele>728.0</ele><time>2026-05-03T07:24:54.002Z</time></trkpt><trkpt lat="42.349836" lon="13.4310277"><ele>728.0</ele><time>2026-05-03T07:24:54.999Z</time></trkpt><trkpt lat="42.3497275" lon="13.4310526"><ele>728.0</ele><time>2026-05-03T07:24:56Z</time></trkpt><trkpt lat="42.3496201" lon="13.4310577"><ele>728.0</ele><time>2026-05-03T07:24:57Z</time></trkpt><trkpt lat="42.3495147" lon="13.4310432"><ele>726.5999999999999</ele><time>2026-05-03T07:24:58.002Z</time></trkpt><trkpt lat="42.3494168" lon="13.4310135"><ele>725.1999999999999</ele><time>2026-05-03T07:24:59.001Z</time></trkpt><trkpt lat="42.3493195" lon="13.4310095"><ele>723.8</ele><time>2026-05-03T07:25:00.001Z</time></trkpt><trkpt lat="42.3492211" lon="13.431033"><ele>722.4</ele><time>2026-05-03T07:25:01Z</time></trkpt><trkpt lat="42.3491234" lon="13.4310743"><ele>721.0</ele><time>2026-05-03T07:25:01.999Z</time></trkpt><trkpt lat="42.3490187" lon="13.4311215"><ele>721.0</ele><time>2026-05-03T07:25:03Z</time></trkpt><trkpt lat="42.3489126" lon="13.4311732"><ele>721.0</ele><time>2026-05-03T07:25:04.001Z</time></trkpt><trkpt lat="42.3488108" lon="13.4312399"><ele>721.0</ele><time>2026-05-03T07:25:05Z</time></trkpt><trkpt lat="42.3487163" lon="13.4313151"><ele>721.0</ele><time>2026-05-03T07:25:06.001Z</time></trkpt><trkpt lat="42.3486212" lon="13.4313884"><ele>721.0</ele><time>2026-05-03T07:25:07Z</time></trkpt><trkpt lat="42.3485208" lon="13.4314556"><ele>721.0</ele><time>2026-05-03T07:25:08.001Z</time></trkpt><trkpt lat="42.3484071" lon="13.4315183"><ele>721.0</ele><time>2026-05-03T07:25:09.001Z</time></trkpt><trkpt lat="42.3482833" lon="13.4315749"><ele>721.0</ele><time>2026-05-03T07:25:10.001Z</time></trkpt><trkpt lat="42.3481533" lon="13.4316193"><ele>721.0</ele><time>2026-05-03T07:25:10.999Z</time></trkpt><trkpt lat="42.3480221" lon="13.43167"><ele>719.0</ele><time>2026-05-03T07:25:11.999Z</time></trkpt><trkpt lat="42.3478983" lon="13.4317351"><ele>717.0</ele><time>2026-05-03T07:25:13.001Z</time></trkpt><trkpt lat="42.3478083" lon="13.4317913"><ele>715.0</ele><time>2026-05-03T07:25:14.002Z</time></trkpt><trkpt lat="42.3477283" lon="13.4318411"><ele>713.0</ele><time>2026-05-03T07:25:15.001Z</time></trkpt><trkpt lat="42.3476372" lon="13.4318964"><ele>711.0</ele><time>2026-05-03T07:25:16.001Z</time></trkpt><trkpt lat="42.3475346" lon="13.4319537"><ele>711.0</ele><time>2026-05-03T07:25:17Z</time></trkpt><trkpt lat="42.347421" lon="13.4320115"><ele>711.0</ele><time>2026-05-03T07:25:18.001Z</time></trkpt><trkpt lat="42.3473027" lon="13.432081"><ele>711.0</ele><time>2026-05-03T07:25:19.001Z</time></trkpt><trkpt lat="42.3471768" lon="13.4321501"><ele>711.0</ele><time>2026-05-03T07:25:20.001Z</time></trkpt><trkpt lat="42.347048" lon="13.4322204"><ele>711.5</ele><time>2026-05-03T07:25:20.999Z</time></trkpt><trkpt lat="42.3469272" lon="13.4322933"><ele>712.0</ele><time>2026-05-03T07:25:22Z</time></trkpt><trkpt lat="42.346817" lon="13.432376"><ele>712.5</ele><time>2026-05-03T07:25:23.001Z</time></trkpt><trkpt lat="42.3467153" lon="13.4324706"><ele>713.0</ele><time>2026-05-03T07:25:24Z</time></trkpt><trkpt lat="42.3466128" lon="13.4325737"><ele>713.0</ele><time>2026-05-03T07:25:25.001Z</time></trkpt><trkpt lat="42.3465097" lon="13.4326741"><ele>713.0</ele><time>2026-05-03T07:25:26.001Z</time></trkpt><trkpt lat="42.3464046" lon="13.4327732"><ele>713.0</ele><time>2026-05-03T07:25:26.999Z</time></trkpt><trkpt lat="42.3462992" lon="13.4328644"><ele>713.0</ele><time>2026-05-03T07:25:28.002Z</time></trkpt><trkpt lat="42.3461913" lon="13.4329424"><ele>713.2</ele><time>2026-05-03T07:25:29.001Z</time></trkpt><trkpt lat="42.3460864" lon="13.4330103"><ele>713.4</ele><time>2026-05-03T07:25:30Z</time></trkpt><trkpt lat="42.3459852" lon="13.43308"><ele>713.6</ele><time>2026-05-03T07:25:31.001Z</time></trkpt><trkpt lat="42.3458858" lon="13.4331426"><ele>713.8000000000001</ele><time>2026-05-03T07:25:32.002Z</time></trkpt><trkpt lat="42.3457916" lon="13.4331872"><ele>714.0</ele><time>2026-05-03T07:25:33.001Z</time></trkpt><trkpt lat="42.3457304" lon="13.4332157"><ele>714.0</ele><time>2026-05-03T07:25:35.002Z</time></trkpt><trkpt lat="42.3456886" lon="13.4333109"><ele>714.0</ele><time>2026-05-03T07:25:45.001Z</time></trkpt><trkpt lat="42.3456111" lon="13.4333761"><ele>714.0</ele><time>2026-05-03T07:25:47.001Z</time></trkpt><trkpt lat="42.3455076" lon="13.4334409"><ele>714.0</ele><time>2026-05-03T07:25:49.001Z</time></trkpt><trkpt lat="42.3454498" lon="13.4334792"><ele>714.0</ele><time>2026-05-03T07:25:49.999Z</time></trkpt><trkpt lat="42.3453957" lon="13.4335305"><ele>714.0</ele><time>2026-05-03T07:25:50.999Z</time></trkpt><trkpt lat="42.3453413" lon="13.433596"><ele>713.0</ele><time>2026-05-03T07:25:52Z</time></trkpt><trkpt lat="42.3452876" lon="13.433667"><ele>712.0</ele><time>2026-05-03T07:25:53.001Z</time></trkpt><trkpt lat="42.3452356" lon="13.4337385"><ele>711.0</ele><time>2026-05-03T07:25:54.001Z</time></trkpt><trkpt lat="42.3451878" lon="13.4338141"><ele>710.0</ele><time>2026-05-03T07:25:55Z</time></trkpt><trkpt lat="42.345143" lon="13.4338954"><ele>709.0</ele><time>2026-05-03T07:25:56.001Z</time></trkpt><trkpt lat="42.3450998" lon="13.4339732"><ele>708.0</ele><time>2026-05-03T07:25:57.001Z</time></trkpt><trkpt lat="42.3450529" lon="13.4340599"><ele>707.0</ele><time>2026-05-03T07:25:57.999Z</time></trkpt><trkpt lat="42.3450071" lon="13.4341488"><ele>707.0</ele><time>2026-05-03T07:25:59.002Z</time></trkpt><trkpt lat="42.3449634" lon="13.4342459"><ele>707.0</ele><time>2026-05-03T07:26:00.002Z</time></trkpt><trkpt lat="42.3449196" lon="13.4343479"><ele>707.0</ele><time>2026-05-03T07:26:01.002Z</time></trkpt><trkpt lat="42.3448728" lon="13.4344485"><ele>707.0</ele><time>2026-05-03T07:26:01.999Z</time></trkpt><trkpt lat="42.344829" lon="13.4345512"><ele>707.0</ele><time>2026-05-03T07:26:03.002Z</time></trkpt><trkpt lat="42.3447864" lon="13.4346561"><ele>707.0</ele><time>2026-05-03T07:26:04.001Z</time></trkpt><trkpt lat="42.3447423" lon="13.4347591"><ele>704.8333333333333</ele><time>2026-05-03T07:26:05.002Z</time></trkpt><trkpt lat="42.3446992" lon="13.4348649"><ele>702.6666666666666</ele><time>2026-05-03T07:26:06.002Z</time></trkpt><trkpt lat="42.3446574" lon="13.434971"><ele>700.5</ele><time>2026-05-03T07:26:07.001Z</time></trkpt><trkpt lat="42.3446168" lon="13.4350739"><ele>698.3333333333334</ele><time>2026-05-03T07:26:08Z</time></trkpt><trkpt lat="42.3445762" lon="13.4351764"><ele>696.1666666666667</ele><time>2026-05-03T07:26:09.001Z</time></trkpt><trkpt lat="42.3445366" lon="13.4352873"><ele>694.0</ele><time>2026-05-03T07:26:09.999Z</time></trkpt><trkpt lat="42.3444986" lon="13.4353944"><ele>694.5</ele><time>2026-05-03T07:26:11.002Z</time></trkpt><trkpt lat="42.3444623" lon="13.4354946"><ele>695.0</ele><time>2026-05-03T07:26:12.001Z</time></trkpt><trkpt lat="42.3444197" lon="13.4355864"><ele>695.5</ele><time>2026-05-03T07:26:13.001Z</time></trkpt><trkpt lat="42.3443738" lon="13.4356699"><ele>696.0</ele><time>2026-05-03T07:26:14.001Z</time></trkpt><trkpt lat="42.3443309" lon="13.4357563"><ele>696.5</ele><time>2026-05-03T07:26:15.002Z</time></trkpt><trkpt lat="42.3442969" lon="13.4358434"><ele>697.0</ele><time>2026-05-03T07:26:16.002Z</time></trkpt><trkpt lat="42.3442844" lon="13.4359312"><ele>697.0</ele><time>2026-05-03T07:26:17.001Z</time></trkpt><trkpt lat="42.3442788" lon="13.4360319"><ele>697.0</ele><time>2026-05-03T07:26:18.001Z</time></trkpt><trkpt lat="42.3442712" lon="13.4361374"><ele>697.0</ele><time>2026-05-03T07:26:19Z</time></trkpt><trkpt lat="42.344255" lon="13.4362477"><ele>697.0</ele><time>2026-05-03T07:26:19.999Z</time></trkpt><trkpt lat="42.3442471" lon="13.4363646"><ele>697.0</ele><time>2026-05-03T07:26:20.999Z</time></trkpt><trkpt lat="42.34424" lon="13.4364733"><ele>697.0</ele><time>2026-05-03T07:26:21.999Z</time></trkpt><trkpt lat="42.3442325" lon="13.4365787"><ele>696.8571428571429</ele><time>2026-05-03T07:26:23.001Z</time></trkpt><trkpt lat="42.3442273" lon="13.4366805"><ele>696.7142857142857</ele><time>2026-05-03T07:26:24.001Z</time></trkpt><trkpt lat="42.3442214" lon="13.4367807"><ele>696.5714285714286</ele><time>2026-05-03T07:26:24.999Z</time></trkpt><trkpt lat="42.3442063" lon="13.4368779"><ele>696.4285714285714</ele><time>2026-05-03T07:26:26.002Z</time></trkpt><trkpt lat="42.3441847" lon="13.4369704"><ele>696.2857142857143</ele><time>2026-05-03T07:26:27.002Z</time></trkpt><trkpt lat="42.3441505" lon="13.4370621"><ele>696.1428571428571</ele><time>2026-05-03T07:26:28.001Z</time></trkpt><trkpt lat="42.3441165" lon="13.4371548"><ele>696.0</ele><time>2026-05-03T07:26:29.002Z</time></trkpt><trkpt lat="42.3440898" lon="13.4372517"><ele>697.1666666666666</ele><time>2026-05-03T07:26:29.999Z</time></trkpt><trkpt lat="42.3440763" lon="13.4373444"><ele>698.3333333333334</ele><time>2026-05-03T07:26:30.998Z</time></trkpt><trkpt lat="42.344073" lon="13.4374372"><ele>699.5</ele><time>2026-05-03T07:26:31.999Z</time></trkpt><trkpt lat="42.3440664" lon="13.4375329"><ele>700.6666666666667</ele><time>2026-05-03T07:26:32.999Z</time></trkpt><trkpt lat="42.3440491" lon="13.4376374"><ele>701.8333333333334</ele><time>2026-05-03T07:26:33.999Z</time></trkpt><trkpt lat="42.3440248" lon="13.4377555"><ele>703.0</ele><time>2026-05-03T07:26:35.002Z</time></trkpt><trkpt lat="42.344006" lon="13.4378727"><ele>704.5999999999999</ele><time>2026-05-03T07:26:36Z</time></trkpt><trkpt lat="42.3439917" lon="13.4380054"><ele>706.1999999999999</ele><time>2026-05-03T07:26:37.001Z</time></trkpt><trkpt lat="42.3439712" lon="13.4381417"><ele>707.8</ele><time>2026-05-03T07:26:38.002Z</time></trkpt><trkpt lat="42.3439487" lon="13.4382671"><ele>709.4</ele><time>2026-05-03T07:26:39.001Z</time></trkpt><trkpt lat="42.3439342" lon="13.438381"><ele>711.0</ele><time>2026-05-03T07:26:40.002Z</time></trkpt><trkpt lat="42.3439172" lon="13.438485"><ele>711.0</ele><time>2026-05-03T07:26:41.001Z</time></trkpt><trkpt lat="42.3438972" lon="13.4385798"><ele>711.0</ele><time>2026-05-03T07:26:42.001Z</time></trkpt><trkpt lat="42.3438678" lon="13.4386775"><ele>711.0</ele><time>2026-05-03T07:26:43.001Z</time></trkpt><trkpt lat="42.3438281" lon="13.4387771"><ele>711.0</ele><time>2026-05-03T07:26:43.999Z</time></trkpt><trkpt lat="42.343785" lon="13.4388645"><ele>711.0</ele><time>2026-05-03T07:26:45Z</time></trkpt><trkpt lat="42.3437414" lon="13.4389275"><ele>711.0</ele><time>2026-05-03T07:26:46.002Z</time></trkpt><trkpt lat="42.3436274" lon="13.4390197"><ele>708.5</ele><time>2026-05-03T07:26:47.999Z</time></trkpt><trkpt lat="42.3435661" lon="13.4390705"><ele>706.0</ele><time>2026-05-03T07:26:48.999Z</time></trkpt><trkpt lat="42.3435078" lon="13.4391328"><ele>703.5</ele><time>2026-05-03T07:26:50.001Z</time></trkpt><trkpt lat="42.3434465" lon="13.4392146"><ele>701.0</ele><time>2026-05-03T07:26:50.998Z</time></trkpt><trkpt lat="42.343384" lon="13.4392962"><ele>698.5</ele><time>2026-05-03T07:26:52.001Z</time></trkpt><trkpt lat="42.3433268" lon="13.4393682"><ele>696.0</ele><time>2026-05-03T07:26:53.002Z</time></trkpt><trkpt lat="42.3432687" lon="13.4394402"><ele>696.0</ele><time>2026-05-03T07:26:54.002Z</time></trkpt><trkpt lat="42.3432153" lon="13.4395075"><ele>696.0</ele><time>2026-05-03T07:26:55.001Z</time></trkpt><trkpt lat="42.3431661" lon="13.4395852"><ele>696.0</ele><time>2026-05-03T07:26:56.002Z</time></trkpt><trkpt lat="42.3431145" lon="13.4396581"><ele>696.0</ele><time>2026-05-03T07:26:57.002Z</time></trkpt><trkpt lat="42.3430599" lon="13.4397227"><ele>696.0</ele><time>2026-05-03T07:26:58.002Z</time></trkpt><trkpt lat="42.3430049" lon="13.4397822"><ele>696.0</ele><time>2026-05-03T07:26:59.002Z</time></trkpt><trkpt lat="42.3429498" lon="13.4398259"><ele>696.0</ele><time>2026-05-03T07:26:59.999Z</time></trkpt><trkpt lat="42.3428326" lon="13.4398817"><ele>695.6666666666666</ele><time>2026-05-03T07:27:01.999Z</time></trkpt><trkpt lat="42.3427155" lon="13.4398962"><ele>695.3333333333334</ele><time>2026-05-03T07:27:03.999Z</time></trkpt><trkpt lat="42.342646" lon="13.4398898"><ele>695.0</ele><time>2026-05-03T07:27:05.001Z</time></trkpt><trkpt lat="42.3425698" lon="13.4398796"><ele>694.6666666666667</ele><time>2026-05-03T07:27:06.002Z</time></trkpt><trkpt lat="42.3424986" lon="13.4398747"><ele>694.3333333333334</ele><time>2026-05-03T07:27:07.001Z</time></trkpt><trkpt lat="42.3424287" lon="13.4398775"><ele>694.0</ele><time>2026-05-03T07:27:08.002Z</time></trkpt><trkpt lat="42.3423625" lon="13.439895"><ele>694.0</ele><time>2026-05-03T07:27:09.002Z</time></trkpt><trkpt lat="42.3423033" lon="13.4399317"><ele>694.0</ele><time>2026-05-03T07:27:10.001Z</time></trkpt><trkpt lat="42.3422438" lon="13.4399698"><ele>694.0</ele><time>2026-05-03T07:27:10.997Z</time></trkpt><trkpt lat="42.3421834" lon="13.4400114"><ele>694.0</ele><time>2026-05-03T07:27:11.999Z</time></trkpt><trkpt lat="42.342057" lon="13.4400624"><ele>694.0</ele><time>2026-05-03T07:27:14.002Z</time></trkpt><trkpt lat="42.3419877" lon="13.4400826"><ele>694.0</ele><time>2026-05-03T07:27:15.001Z</time></trkpt><trkpt lat="42.3419211" lon="13.4401054"><ele>692.5714285714286</ele><time>2026-05-03T07:27:16.001Z</time></trkpt><trkpt lat="42.3418611" lon="13.4401336"><ele>691.1428571428571</ele><time>2026-05-03T07:27:17.002Z</time></trkpt><trkpt lat="42.3417937" lon="13.4401575"><ele>689.7142857142857</ele><time>2026-05-03T07:27:18.002Z</time></trkpt><trkpt lat="42.341725" lon="13.4401753"><ele>688.2857142857142</ele><time>2026-05-03T07:27:19Z</time></trkpt><trkpt lat="42.3416539" lon="13.4401949"><ele>686.8571428571429</ele><time>2026-05-03T07:27:20.001Z</time></trkpt><trkpt lat="42.3415791" lon="13.4402071"><ele>685.4285714285713</ele><time>2026-05-03T07:27:21.001Z</time></trkpt><trkpt lat="42.3415092" lon="13.4402121"><ele>684.0</ele><time>2026-05-03T07:27:22.002Z</time></trkpt><trkpt lat="42.34144" lon="13.4402114"><ele>681.8000000000001</ele><time>2026-05-03T07:27:23.001Z</time></trkpt><trkpt lat="42.3413778" lon="13.4401982"><ele>679.6</ele><time>2026-05-03T07:27:23.999Z</time></trkpt><trkpt lat="42.3413137" lon="13.4401826"><ele>677.4</ele><time>2026-05-03T07:27:25Z</time></trkpt><trkpt lat="42.3411972" lon="13.4401906"><ele>675.2</ele><time>2026-05-03T07:27:27.002Z</time></trkpt><trkpt lat="42.3411003" lon="13.4402189"><ele>673.0</ele><time>2026-05-03T07:27:29.002Z</time></trkpt><trkpt lat="42.3409934" lon="13.4402709"><ele>673.0</ele><time>2026-05-03T07:27:30.998Z</time></trkpt><trkpt lat="42.3408814" lon="13.4403242"><ele>673.0</ele><time>2026-05-03T07:27:32.999Z</time></trkpt><trkpt lat="42.3408229" lon="13.4403583"><ele>673.0</ele><time>2026-05-03T07:27:34.001Z</time></trkpt><trkpt lat="42.3407119" lon="13.4404179"><ele>673.0</ele><time>2026-05-03T07:27:35.998Z</time></trkpt><trkpt lat="42.3406001" lon="13.4404621"><ele>673.0</ele><time>2026-05-03T07:27:38Z</time></trkpt><trkpt lat="42.3404913" lon="13.4405183"><ele>670.5999999999999</ele><time>2026-05-03T07:27:40Z</time></trkpt><trkpt lat="42.3404036" lon="13.4406056"><ele>668.1999999999999</ele><time>2026-05-03T07:27:42.001Z</time></trkpt><trkpt lat="42.3403551" lon="13.4407256"><ele>665.8</ele><time>2026-05-03T07:27:44.002Z</time></trkpt><trkpt lat="42.3403094" lon="13.4408868"><ele>663.4</ele><time>2026-05-03T07:27:46Z</time></trkpt><trkpt lat="42.3402842" lon="13.4409799"><ele>661.0</ele><time>2026-05-03T07:27:47.002Z</time></trkpt><trkpt lat="42.3402675" lon="13.4410806"><ele>661.0</ele><time>2026-05-03T07:27:48.002Z</time></trkpt><trkpt lat="42.3402608" lon="13.441189"><ele>661.0</ele><time>2026-05-03T07:27:49Z</time></trkpt><trkpt lat="42.3402496" lon="13.4413002"><ele>661.0</ele><time>2026-05-03T07:27:50.002Z</time></trkpt><trkpt lat="42.3402289" lon="13.4414059"><ele>661.0</ele><time>2026-05-03T07:27:51.002Z</time></trkpt><trkpt lat="42.340204" lon="13.4415118"><ele>661.0</ele><time>2026-05-03T07:27:52.001Z</time></trkpt><trkpt lat="42.340174" lon="13.4416182"><ele>661.0</ele><time>2026-05-03T07:27:53.001Z</time></trkpt><trkpt lat="42.3401451" lon="13.4417258"><ele>660.1666666666667</ele><time>2026-05-03T07:27:53.998Z</time></trkpt><trkpt lat="42.3401163" lon="13.4418356"><ele>659.3333333333334</ele><time>2026-05-03T07:27:54.999Z</time></trkpt><trkpt lat="42.3400859" lon="13.4419496"><ele>658.5</ele><time>2026-05-03T07:27:56Z</time></trkpt><trkpt lat="42.340054" lon="13.4420634"><ele>657.6666666666666</ele><time>2026-05-03T07:27:57.002Z</time></trkpt><trkpt lat="42.34002" lon="13.4421769"><ele>656.8333333333333</ele><time>2026-05-03T07:27:58.001Z</time></trkpt><trkpt lat="42.3399887" lon="13.4422922"><ele>656.0</ele><time>2026-05-03T07:27:59.001Z</time></trkpt><trkpt lat="42.339959" lon="13.4424137"><ele>655.5</ele><time>2026-05-03T07:28:00.002Z</time></trkpt><trkpt lat="42.3399302" lon="13.4425372"><ele>655.0</ele><time>2026-05-03T07:28:01.001Z</time></trkpt><trkpt lat="42.3399052" lon="13.4426586"><ele>654.5</ele><time>2026-05-03T07:28:02.001Z</time></trkpt><trkpt lat="42.339882" lon="13.4427696"><ele>654.0</ele><time>2026-05-03T07:28:02.999Z</time></trkpt><trkpt lat="42.3398637" lon="13.4428744"><ele>653.5</ele><time>2026-05-03T07:28:03.998Z</time></trkpt><trkpt lat="42.3398439" lon="13.4429684"><ele>653.0</ele><time>2026-05-03T07:28:04.998Z</time></trkpt><trkpt lat="42.3398151" lon="13.4430571"><ele>653.0</ele><time>2026-05-03T07:28:06Z</time></trkpt><trkpt lat="42.3397803" lon="13.4431458"><ele>653.0</ele><time>2026-05-03T07:28:07Z</time></trkpt><trkpt lat="42.3397409" lon="13.4432358"><ele>653.0</ele><time>2026-05-03T07:28:08Z</time></trkpt><trkpt lat="42.3396958" lon="13.4433194"><ele>653.0</ele><time>2026-05-03T07:28:09Z</time></trkpt><trkpt lat="42.339637" lon="13.4434001"><ele>653.0</ele><time>2026-05-03T07:28:10.002Z</time></trkpt><trkpt lat="42.3395611" lon="13.4434896"><ele>653.0</ele><time>2026-05-03T07:28:11.001Z</time></trkpt><trkpt lat="42.3394794" lon="13.4435767"><ele>653.0</ele><time>2026-05-03T07:28:12Z</time></trkpt><trkpt lat="42.3393945" lon="13.4436676"><ele>653.0</ele><time>2026-05-03T07:28:12.998Z</time></trkpt><trkpt lat="42.3393096" lon="13.4437689"><ele>653.0</ele><time>2026-05-03T07:28:14Z</time></trkpt><trkpt lat="42.339229" lon="13.4438606"><ele>653.0</ele><time>2026-05-03T07:28:15Z</time></trkpt><trkpt lat="42.3391585" lon="13.4439463"><ele>653.0</ele><time>2026-05-03T07:28:16Z</time></trkpt><trkpt lat="42.3390992" lon="13.4440362"><ele>653.0</ele><time>2026-05-03T07:28:17.001Z</time></trkpt><trkpt lat="42.3390542" lon="13.4441319"><ele>653.0</ele><time>2026-05-03T07:28:18.001Z</time></trkpt><trkpt lat="42.3390253" lon="13.4442307"><ele>653.0</ele><time>2026-05-03T07:28:18.997Z</time></trkpt><trkpt lat="42.3390066" lon="13.4443265"><ele>653.0</ele><time>2026-05-03T07:28:19.999Z</time></trkpt><trkpt lat="42.3389986" lon="13.4444285"><ele>653.0</ele><time>2026-05-03T07:28:20.999Z</time></trkpt><trkpt lat="42.3390051" lon="13.4445481"><ele>653.0</ele><time>2026-05-03T07:28:22.002Z</time></trkpt><trkpt lat="42.339014" lon="13.4446637"><ele>652.8</ele><time>2026-05-03T07:28:23.001Z</time></trkpt><trkpt lat="42.3390125" lon="13.4447803"><ele>652.5999999999999</ele><time>2026-05-03T07:28:24.001Z</time></trkpt><trkpt lat="42.3389988" lon="13.4449104"><ele>652.4000000000001</ele><time>2026-05-03T07:28:25.002Z</time></trkpt><trkpt lat="42.3389784" lon="13.445052"><ele>652.2</ele><time>2026-05-03T07:28:26.002Z</time></trkpt><trkpt lat="42.3389529" lon="13.4452058"><ele>652.0</ele><time>2026-05-03T07:28:27.001Z</time></trkpt><trkpt lat="42.3389289" lon="13.445367"><ele>653.25</ele><time>2026-05-03T07:28:27.999Z</time></trkpt><trkpt lat="42.3389031" lon="13.4455294"><ele>654.5</ele><time>2026-05-03T07:28:28.999Z</time></trkpt><trkpt lat="42.3388738" lon="13.4456839"><ele>655.75</ele><time>2026-05-03T07:28:29.999Z</time></trkpt><trkpt lat="42.3388352" lon="13.4458261"><ele>657.0</ele><time>2026-05-03T07:28:30.998Z</time></trkpt><trkpt lat="42.3387858" lon="13.4459572"><ele>652.75</ele><time>2026-05-03T07:28:31.999Z</time></trkpt><trkpt lat="42.3387316" lon="13.4460895"><ele>648.5</ele><time>2026-05-03T07:28:32.998Z</time></trkpt><trkpt lat="42.3386716" lon="13.4462273"><ele>644.25</ele><time>2026-05-03T07:28:34.001Z</time></trkpt><trkpt lat="42.3386141" lon="13.4463756"><ele>640.0</ele><time>2026-05-03T07:28:34.999Z</time></trkpt><trkpt lat="42.3385595" lon="13.4465318"><ele>640.0</ele><time>2026-05-03T07:28:35.998Z</time></trkpt><trkpt lat="42.3385069" lon="13.4466963"><ele>640.0</ele><time>2026-05-03T07:28:37Z</time></trkpt><trkpt lat="42.3384563" lon="13.4468656"><ele>640.0</ele><time>2026-05-03T07:28:37.999Z</time></trkpt><trkpt lat="42.3384055" lon="13.4470383"><ele>640.0</ele><time>2026-05-03T07:28:38.999Z</time></trkpt><trkpt lat="42.3383537" lon="13.4472132"><ele>640.25</ele><time>2026-05-03T07:28:39.998Z</time></trkpt><trkpt lat="42.3383021" lon="13.4473893"><ele>640.5</ele><time>2026-05-03T07:28:41.001Z</time></trkpt><trkpt lat="42.3382536" lon="13.4475576"><ele>640.75</ele><time>2026-05-03T07:28:42.002Z</time></trkpt><trkpt lat="42.3382071" lon="13.4477339"><ele>641.0</ele><time>2026-05-03T07:28:43.002Z</time></trkpt><trkpt lat="42.3381585" lon="13.4479121"><ele>641.0</ele><time>2026-05-03T07:28:44.002Z</time></trkpt><trkpt lat="42.3381063" lon="13.4480837"><ele>641.0</ele><time>2026-05-03T07:28:45Z</time></trkpt><trkpt lat="42.3380534" lon="13.4482585"><ele>641.0</ele><time>2026-05-03T07:28:46Z</time></trkpt><trkpt lat="42.3380034" lon="13.448434"><ele>641.0</ele><time>2026-05-03T07:28:46.997Z</time></trkpt><trkpt lat="42.337953" lon="13.4486094"><ele>637.0</ele><time>2026-05-03T07:28:47.999Z</time></trkpt><trkpt lat="42.3379029" lon="13.4487844"><ele>633.0</ele><time>2026-05-03T07:28:49Z</time></trkpt><trkpt lat="42.3378579" lon="13.4489584"><ele>629.0</ele><time>2026-05-03T07:28:50.002Z</time></trkpt><trkpt lat="42.3378134" lon="13.4491305"><ele>625.0</ele><time>2026-05-03T07:28:51.001Z</time></trkpt><trkpt lat="42.3377841" lon="13.4492891"><ele>625.0</ele><time>2026-05-03T07:28:52.002Z</time></trkpt><trkpt lat="42.3377621" lon="13.4494349"><ele>625.0</ele><time>2026-05-03T07:28:53.002Z</time></trkpt><trkpt lat="42.3377565" lon="13.4495856"><ele>625.0</ele><time>2026-05-03T07:28:54.002Z</time></trkpt><trkpt lat="42.3377648" lon="13.4497464"><ele>625.0</ele><time>2026-05-03T07:28:55.002Z</time></trkpt><trkpt lat="42.337781" lon="13.4499153"><ele>624.75</ele><time>2026-05-03T07:28:56.002Z</time></trkpt><trkpt lat="42.3378008" lon="13.4500928"><ele>624.5</ele><time>2026-05-03T07:28:57.002Z</time></trkpt><trkpt lat="42.3378196" lon="13.4502766"><ele>624.25</ele><time>2026-05-03T07:28:58.001Z</time></trkpt><trkpt lat="42.3378353" lon="13.4504562"><ele>624.0</ele><time>2026-05-03T07:28:59.002Z</time></trkpt><trkpt lat="42.3378476" lon="13.4506304"><ele>623.5</ele><time>2026-05-03T07:29:00.002Z</time></trkpt><trkpt lat="42.3378561" lon="13.450807"><ele>623.0</ele><time>2026-05-03T07:29:00.999Z</time></trkpt><trkpt lat="42.3378636" lon="13.4509827"><ele>622.5</ele><time>2026-05-03T07:29:02.001Z</time></trkpt><trkpt lat="42.3378706" lon="13.451154"><ele>622.0</ele><time>2026-05-03T07:29:02.999Z</time></trkpt><trkpt lat="42.337878" lon="13.4513228"><ele>621.5</ele><time>2026-05-03T07:29:03.998Z</time></trkpt><trkpt lat="42.3378881" lon="13.4514893"><ele>621.0</ele><time>2026-05-03T07:29:05.001Z</time></trkpt><trkpt lat="42.3378988" lon="13.4516521"><ele>620.5</ele><time>2026-05-03T07:29:06.002Z</time></trkpt><trkpt lat="42.3379071" lon="13.4518104"><ele>620.0</ele><time>2026-05-03T07:29:07.002Z</time></trkpt><trkpt lat="42.337915" lon="13.4519671"><ele>620.0</ele><time>2026-05-03T07:29:08.002Z</time></trkpt><trkpt lat="42.33792" lon="13.4521209"><ele>620.0</ele><time>2026-05-03T07:29:09.001Z</time></trkpt><trkpt lat="42.3379276" lon="13.4522747"><ele>620.0</ele><time>2026-05-03T07:29:10.001Z</time></trkpt><trkpt lat="42.3379365" lon="13.4524236"><ele>620.0</ele><time>2026-05-03T07:29:11.002Z</time></trkpt><trkpt lat="42.3379474" lon="13.4525532"><ele>620.0</ele><time>2026-05-03T07:29:12.001Z</time></trkpt><trkpt lat="42.3379554" lon="13.4526517"><ele>619.2</ele><time>2026-05-03T07:29:13.002Z</time></trkpt><trkpt lat="42.3379671" lon="13.4527849"><ele>618.4</ele><time>2026-05-03T07:29:15.001Z</time></trkpt><trkpt lat="42.3379984" lon="13.4528801"><ele>617.6</ele><time>2026-05-03T07:29:17.001Z</time></trkpt><trkpt lat="42.3380645" lon="13.4529874"><ele>616.8</ele><time>2026-05-03T07:29:19.001Z</time></trkpt><trkpt lat="42.3381024" lon="13.4531011"><ele>616.0</ele><time>2026-05-03T07:29:21.001Z</time></trkpt><trkpt lat="42.3381211" lon="13.4532177"><ele>618.2</ele><time>2026-05-03T07:29:22.996Z</time></trkpt><trkpt lat="42.3381343" lon="13.4533409"><ele>620.4000000000001</ele><time>2026-05-03T07:29:25.001Z</time></trkpt><trkpt lat="42.3381533" lon="13.453468"><ele>622.6</ele><time>2026-05-03T07:29:26.999Z</time></trkpt><trkpt lat="42.3381751" lon="13.4535957"><ele>624.8000000000001</ele><time>2026-05-03T07:29:29Z</time></trkpt><trkpt lat="42.3381957" lon="13.4537342"><ele>627.0</ele><time>2026-05-03T07:29:31.002Z</time></trkpt><trkpt lat="42.3381958" lon="13.4538924"><ele>627.0</ele><time>2026-05-03T07:29:33.002Z</time></trkpt><trkpt lat="42.3381804" lon="13.4539826"><ele>627.0</ele><time>2026-05-03T07:29:34.002Z</time></trkpt><trkpt lat="42.3381624" lon="13.4540791"><ele>627.0</ele><time>2026-05-03T07:29:35.001Z</time></trkpt><trkpt lat="42.3381502" lon="13.4541821"><ele>627.0</ele><time>2026-05-03T07:29:35.999Z</time></trkpt><trkpt lat="42.3381339" lon="13.4542907"><ele>627.0</ele><time>2026-05-03T07:29:37.001Z</time></trkpt><trkpt lat="42.3381171" lon="13.4544033"><ele>627.0</ele><time>2026-05-03T07:29:38.001Z</time></trkpt><trkpt lat="42.3381063" lon="13.4545137"><ele>627.0</ele><time>2026-05-03T07:29:39.002Z</time></trkpt><trkpt lat="42.3381024" lon="13.4546187"><ele>627.0</ele><time>2026-05-03T07:29:40.002Z</time></trkpt><trkpt lat="42.3381064" lon="13.4547248"><ele>627.0</ele><time>2026-05-03T07:29:40.999Z</time></trkpt><trkpt lat="42.3381164" lon="13.4548373"><ele>627.0</ele><time>2026-05-03T07:29:42Z</time></trkpt><trkpt lat="42.3381359" lon="13.4549528"><ele>627.0</ele><time>2026-05-03T07:29:43Z</time></trkpt><trkpt lat="42.3381612" lon="13.4550692"><ele>627.0</ele><time>2026-05-03T07:29:44.001Z</time></trkpt><trkpt lat="42.3381857" lon="13.455173"><ele>626.0</ele><time>2026-05-03T07:29:45.001Z</time></trkpt><trkpt lat="42.3382114" lon="13.4552685"><ele>625.0</ele><time>2026-05-03T07:29:46.002Z</time></trkpt><trkpt lat="42.3382329" lon="13.4553891"><ele>624.0</ele><time>2026-05-03T07:29:48.002Z</time></trkpt><trkpt lat="42.3381991" lon="13.4554747"><ele>623.0</ele><time>2026-05-03T07:29:49.999Z</time></trkpt><trkpt lat="42.3381223" lon="13.4554822"><ele>622.0</ele><time>2026-05-03T07:29:52.001Z</time></trkpt><trkpt lat="42.3380518" lon="13.4555088"><ele>621.0</ele><time>2026-05-03T07:29:55.001Z</time></trkpt><trkpt lat="42.3381186" lon="13.4555781"><ele>617.8</ele><time>2026-05-03T07:29:58Z</time></trkpt><trkpt lat="42.3382091" lon="13.4556061"><ele>614.6</ele><time>2026-05-03T07:29:58.999Z</time></trkpt><trkpt lat="42.3383127" lon="13.4556486"><ele>611.4</ele><time>2026-05-03T07:30:00.001Z</time></trkpt><trkpt lat="42.338428" lon="13.4556906"><ele>608.2</ele><time>2026-05-03T07:30:01.001Z</time></trkpt><trkpt lat="42.3385272" lon="13.4557264"><ele>605.0</ele><time>2026-05-03T07:30:02.002Z</time></trkpt><trkpt lat="42.3386214" lon="13.4557613"><ele>605.0</ele><time>2026-05-03T07:30:03.002Z</time></trkpt><trkpt lat="42.3387103" lon="13.4557917"><ele>605.0</ele><time>2026-05-03T07:30:04.002Z</time></trkpt><trkpt lat="42.3388245" lon="13.45584"><ele>605.0</ele><time>2026-05-03T07:30:05Z</time></trkpt><trkpt lat="42.3389419" lon="13.455886"><ele>605.0</ele><time>2026-05-03T07:30:06.002Z</time></trkpt><trkpt lat="42.3390599" lon="13.4559276"><ele>606.25</ele><time>2026-05-03T07:30:07.001Z</time></trkpt><trkpt lat="42.3391831" lon="13.455955"><ele>607.5</ele><time>2026-05-03T07:30:08.002Z</time></trkpt><trkpt lat="42.3392972" lon="13.455966"><ele>608.75</ele><time>2026-05-03T07:30:09.001Z</time></trkpt><trkpt lat="42.3394085" lon="13.4559674"><ele>610.0</ele><time>2026-05-03T07:30:10.001Z</time></trkpt><trkpt lat="42.3395109" lon="13.4559891"><ele>610.0</ele><time>2026-05-03T07:30:11.002Z</time></trkpt><trkpt lat="42.3395894" lon="13.4560314"><ele>610.0</ele><time>2026-05-03T07:30:12.001Z</time></trkpt><trkpt lat="42.3396519" lon="13.4560953"><ele>610.0</ele><time>2026-05-03T07:30:13.002Z</time></trkpt><trkpt lat="42.3396971" lon="13.4561852"><ele>610.0</ele><time>2026-05-03T07:30:13.997Z</time></trkpt><trkpt lat="42.3397212" lon="13.4562931"><ele>610.0</ele><time>2026-05-03T07:30:14.998Z</time></trkpt><trkpt lat="42.339729" lon="13.4563946"><ele>610.0</ele><time>2026-05-03T07:30:16Z</time></trkpt><trkpt lat="42.3397425" lon="13.4564876"><ele>608.2</ele><time>2026-05-03T07:30:17.002Z</time></trkpt><trkpt lat="42.3397596" lon="13.4565731"><ele>606.4</ele><time>2026-05-03T07:30:19.001Z</time></trkpt><trkpt lat="42.3398165" lon="13.4566589"><ele>604.6</ele><time>2026-05-03T07:30:21.002Z</time></trkpt><trkpt lat="42.3399064" lon="13.4566992"><ele>602.8</ele><time>2026-05-03T07:30:21.999Z</time></trkpt><trkpt lat="42.3400068" lon="13.4567327"><ele>601.0</ele><time>2026-05-03T07:30:23.001Z</time></trkpt><trkpt lat="42.3401424" lon="13.4567767"><ele>601.0</ele><time>2026-05-03T07:30:24.001Z</time></trkpt><trkpt lat="42.3402942" lon="13.4568286"><ele>601.0</ele><time>2026-05-03T07:30:25.002Z</time></trkpt><trkpt lat="42.3404539" lon="13.4568853"><ele>601.0</ele><time>2026-05-03T07:30:25.999Z</time></trkpt><trkpt lat="42.3406175" lon="13.4569404"><ele>600.6666666666667</ele><time>2026-05-03T07:30:27Z</time></trkpt><trkpt lat="42.3407764" lon="13.4569974"><ele>600.3333333333334</ele><time>2026-05-03T07:30:28.001Z</time></trkpt><trkpt lat="42.3409335" lon="13.4570662"><ele>600.0</ele><time>2026-05-03T07:30:28.999Z</time></trkpt><trkpt lat="42.3410834" lon="13.4571498"><ele>600.3333333333334</ele><time>2026-05-03T07:30:30.002Z</time></trkpt><trkpt lat="42.341221" lon="13.4572477"><ele>600.6666666666667</ele><time>2026-05-03T07:30:31.002Z</time></trkpt><trkpt lat="42.3413492" lon="13.4573617"><ele>601.0</ele><time>2026-05-03T07:30:31.998Z</time></trkpt><trkpt lat="42.3414663" lon="13.4574989"><ele>601.0</ele><time>2026-05-03T07:30:32.997Z</time></trkpt><trkpt lat="42.3415825" lon="13.457646"><ele>601.0</ele><time>2026-05-03T07:30:34Z</time></trkpt><trkpt lat="42.3416939" lon="13.4577885"><ele>601.0</ele><time>2026-05-03T07:30:35.002Z</time></trkpt><trkpt lat="42.3418009" lon="13.4579236"><ele>601.0</ele><time>2026-05-03T07:30:35.998Z</time></trkpt><trkpt lat="42.3419094" lon="13.4580645"><ele>601.0</ele><time>2026-05-03T07:30:36.998Z</time></trkpt><trkpt lat="42.3420181" lon="13.4582068"><ele>601.0</ele><time>2026-05-03T07:30:37.998Z</time></trkpt><trkpt lat="42.3421267" lon="13.4583521"><ele>601.0</ele><time>2026-05-03T07:30:39.002Z</time></trkpt><trkpt lat="42.3422361" lon="13.4584972"><ele>601.0</ele><time>2026-05-03T07:30:40.001Z</time></trkpt><trkpt lat="42.3423468" lon="13.4586462"><ele>601.0</ele><time>2026-05-03T07:30:41.002Z</time></trkpt><trkpt lat="42.3424584" lon="13.4587947"><ele>601.0</ele><time>2026-05-03T07:30:42.001Z</time></trkpt><trkpt lat="42.3425707" lon="13.4589423"><ele>601.0</ele><time>2026-05-03T07:30:43.002Z</time></trkpt><trkpt lat="42.3426796" lon="13.4590852"><ele>601.0</ele><time>2026-05-03T07:30:44.001Z</time></trkpt><trkpt lat="42.3427868" lon="13.4592264"><ele>601.0</ele><time>2026-05-03T07:30:45.001Z</time></trkpt><trkpt lat="42.3428921" lon="13.459369"><ele>601.0</ele><time>2026-05-03T07:30:46.001Z</time></trkpt><trkpt lat="42.3429988" lon="13.4595113"><ele>601.0</ele><time>2026-05-03T07:30:47.002Z</time></trkpt><trkpt lat="42.3431064" lon="13.4596561"><ele>602.6666666666667</ele><time>2026-05-03T07:30:47.996Z</time></trkpt><trkpt lat="42.3432142" lon="13.4598033"><ele>604.3333333333334</ele><time>2026-05-03T07:30:49Z</time></trkpt><trkpt lat="42.3433229" lon="13.459947"><ele>606.0</ele><time>2026-05-03T07:30:49.999Z</time></trkpt><trkpt lat="42.3434338" lon="13.460089"><ele>606.0</ele><time>2026-05-03T07:30:51Z</time></trkpt><trkpt lat="42.3435439" lon="13.4602343"><ele>606.0</ele><time>2026-05-03T07:30:51.997Z</time></trkpt><trkpt lat="42.3436574" lon="13.4603857"><ele>606.0</ele><time>2026-05-03T07:30:52.999Z</time></trkpt><trkpt lat="42.3437748" lon="13.4605399"><ele>607.3333333333334</ele><time>2026-05-03T07:30:53.999Z</time></trkpt><trkpt lat="42.3438954" lon="13.4606964"><ele>608.6666666666667</ele><time>2026-05-03T07:30:55.002Z</time></trkpt><trkpt lat="42.3440205" lon="13.4608569"><ele>610.0</ele><time>2026-05-03T07:30:56.001Z</time></trkpt><trkpt lat="42.34415" lon="13.4610175"><ele>610.0</ele><time>2026-05-03T07:30:57.002Z</time></trkpt><trkpt lat="42.3442843" lon="13.461179"><ele>610.0</ele><time>2026-05-03T07:30:58.002Z</time></trkpt><trkpt lat="42.3444225" lon="13.4613404"><ele>610.0</ele><time>2026-05-03T07:30:59.001Z</time></trkpt><trkpt lat="42.3445567" lon="13.4614978"><ele>609.6666666666667</ele><time>2026-05-03T07:31:00.001Z</time></trkpt><trkpt lat="42.3446872" lon="13.4616512"><ele>609.3333333333334</ele><time>2026-05-03T07:31:01.002Z</time></trkpt><trkpt lat="42.3448119" lon="13.4617929"><ele>609.0</ele><time>2026-05-03T07:31:02Z</time></trkpt><trkpt lat="42.3449324" lon="13.4619221"><ele>609.75</ele><time>2026-05-03T07:31:03.002Z</time></trkpt><trkpt lat="42.3450512" lon="13.4620406"><ele>610.5</ele><time>2026-05-03T07:31:04Z</time></trkpt><trkpt lat="42.345166" lon="13.462151"><ele>611.25</ele><time>2026-05-03T07:31:05.002Z</time></trkpt><trkpt lat="42.3452757" lon="13.4622518"><ele>612.0</ele><time>2026-05-03T07:31:06Z</time></trkpt><trkpt lat="42.3453664" lon="13.4623363"><ele>612.0</ele><time>2026-05-03T07:31:07.001Z</time></trkpt><trkpt lat="42.3454406" lon="13.4624026"><ele>612.0</ele><time>2026-05-03T07:31:08.002Z</time></trkpt><trkpt lat="42.3454965" lon="13.4624471"><ele>612.0</ele><time>2026-05-03T07:31:09.002Z</time></trkpt><trkpt lat="42.3455711" lon="13.4625029"><ele>612.0</ele><time>2026-05-03T07:31:10.998Z</time></trkpt><trkpt lat="42.3456113" lon="13.4626034"><ele>612.0</ele><time>2026-05-03T07:31:14.002Z</time></trkpt><trkpt lat="42.345575" lon="13.4626935"><ele>612.0</ele><time>2026-05-03T07:31:16.001Z</time></trkpt><trkpt lat="42.3454776" lon="13.4628203"><ele>612.0</ele><time>2026-05-03T07:31:18Z</time></trkpt><trkpt lat="42.3454168" lon="13.4628984"><ele>612.0</ele><time>2026-05-03T07:31:19.001Z</time></trkpt><trkpt lat="42.3453663" lon="13.4629711"><ele>612.0</ele><time>2026-05-03T07:31:20Z</time></trkpt><trkpt lat="42.3453189" lon="13.4630418"><ele>612.0</ele><time>2026-05-03T07:31:21.001Z</time></trkpt><trkpt lat="42.3452751" lon="13.4631173"><ele>612.0</ele><time>2026-05-03T07:31:22.001Z</time></trkpt><trkpt lat="42.345228" lon="13.4632007"><ele>612.0</ele><time>2026-05-03T07:31:23.002Z</time></trkpt><trkpt lat="42.3451717" lon="13.4632933"><ele>612.3333333333334</ele><time>2026-05-03T07:31:24.001Z</time></trkpt><trkpt lat="42.3451171" lon="13.463386"><ele>612.6666666666666</ele><time>2026-05-03T07:31:24.997Z</time></trkpt><trkpt lat="42.3450669" lon="13.4634784"><ele>613.0</ele><time>2026-05-03T07:31:25.999Z</time></trkpt><trkpt lat="42.3450257" lon="13.4635806"><ele>613.3333333333333</ele><time>2026-05-03T07:31:26.999Z</time></trkpt><trkpt lat="42.3449889" lon="13.4636897"><ele>613.6666666666666</ele><time>2026-05-03T07:31:28Z</time></trkpt><trkpt lat="42.344954" lon="13.4638164"><ele>614.0</ele><time>2026-05-03T07:31:28.996Z</time></trkpt><trkpt lat="42.3449229" lon="13.4639676"><ele>614.25</ele><time>2026-05-03T07:31:30.001Z</time></trkpt><trkpt lat="42.3448953" lon="13.4641251"><ele>614.5</ele><time>2026-05-03T07:31:31Z</time></trkpt><trkpt lat="42.344862" lon="13.4642858"><ele>614.75</ele><time>2026-05-03T07:31:31.999Z</time></trkpt><trkpt lat="42.3448213" lon="13.4644416"><ele>615.0</ele><time>2026-05-03T07:31:33.002Z</time></trkpt><trkpt lat="42.3447846" lon="13.4646036"><ele>615.0</ele><time>2026-05-03T07:31:34.002Z</time></trkpt><trkpt lat="42.3447508" lon="13.4647697"><ele>615.0</ele><time>2026-05-03T07:31:35Z</time></trkpt><trkpt lat="42.3447138" lon="13.4649342"><ele>615.0</ele><time>2026-05-03T07:31:36.002Z</time></trkpt><trkpt lat="42.3446695" lon="13.4650999"><ele>615.0</ele><time>2026-05-03T07:31:36.996Z</time></trkpt><trkpt lat="42.3446379" lon="13.4652513"><ele>614.75</ele><time>2026-05-03T07:31:38Z</time></trkpt><trkpt lat="42.3445926" lon="13.4654037"><ele>614.5</ele><time>2026-05-03T07:31:38.999Z</time></trkpt><trkpt lat="42.344531" lon="13.4655594"><ele>614.25</ele><time>2026-05-03T07:31:39.998Z</time></trkpt><trkpt lat="42.3444772" lon="13.4657099"><ele>614.0</ele><time>2026-05-03T07:31:41.001Z</time></trkpt><trkpt lat="42.3444333" lon="13.4658339"><ele>614.0</ele><time>2026-05-03T07:31:41.998Z</time></trkpt><trkpt lat="42.3444035" lon="13.465919"><ele>614.0</ele><time>2026-05-03T07:31:43.002Z</time></trkpt><trkpt lat="42.3444016" lon="13.4660247"><ele>614.0</ele><time>2026-05-03T07:31:45.001Z</time></trkpt><trkpt lat="42.3444783" lon="13.4661273"><ele>614.0</ele><time>2026-05-03T07:31:47.002Z</time></trkpt><trkpt lat="42.3445648" lon="13.4661758"><ele>614.0</ele><time>2026-05-03T07:31:48Z</time></trkpt><trkpt lat="42.3446931" lon="13.4662199"><ele>614.25</ele><time>2026-05-03T07:31:49.001Z</time></trkpt><trkpt lat="42.3448234" lon="13.4662548"><ele>614.5</ele><time>2026-05-03T07:31:50.002Z</time></trkpt><trkpt lat="42.3449575" lon="13.4662806"><ele>614.75</ele><time>2026-05-03T07:31:51.001Z</time></trkpt><trkpt lat="42.3451018" lon="13.4662888"><ele>615.0</ele><time>2026-05-03T07:31:52.002Z</time></trkpt><trkpt lat="42.3452359" lon="13.4662789"><ele>615.0</ele><time>2026-05-03T07:31:53.001Z</time></trkpt><trkpt lat="42.3453564" lon="13.4662759"><ele>615.0</ele><time>2026-05-03T07:31:53.999Z</time></trkpt><trkpt lat="42.3454785" lon="13.4663008"><ele>615.0</ele><time>2026-05-03T07:31:55Z</time></trkpt><trkpt lat="42.3456294" lon="13.4663645"><ele>615.0</ele><time>2026-05-03T07:31:55.998Z</time></trkpt><trkpt lat="42.3457796" lon="13.4664513"><ele>616.0</ele><time>2026-05-03T07:31:57.001Z</time></trkpt><trkpt lat="42.3459129" lon="13.4665355"><ele>617.0</ele><time>2026-05-03T07:31:58.002Z</time></trkpt><trkpt lat="42.3460484" lon="13.466619"><ele>618.0</ele><time>2026-05-03T07:31:58.999Z</time></trkpt><trkpt lat="42.346167" lon="13.466701"><ele>619.0</ele><time>2026-05-03T07:32:00.002Z</time></trkpt><trkpt lat="42.3462724" lon="13.4667756"><ele>619.0</ele><time>2026-05-03T07:32:01.001Z</time></trkpt><trkpt lat="42.3463623" lon="13.4668707"><ele>619.0</ele><time>2026-05-03T07:32:02.001Z</time></trkpt><trkpt lat="42.3464546" lon="13.4669961"><ele>619.0</ele><time>2026-05-03T07:32:03.001Z</time></trkpt><trkpt lat="42.3465407" lon="13.4671363"><ele>619.0</ele><time>2026-05-03T07:32:04.001Z</time></trkpt><trkpt lat="42.3466181" lon="13.4672622"><ele>619.4</ele><time>2026-05-03T07:32:04.996Z</time></trkpt><trkpt lat="42.3466871" lon="13.4673723"><ele>619.8</ele><time>2026-05-03T07:32:06Z</time></trkpt><trkpt lat="42.3467542" lon="13.4674821"><ele>620.2</ele><time>2026-05-03T07:32:06.999Z</time></trkpt><trkpt lat="42.346817" lon="13.4675888"><ele>620.6</ele><time>2026-05-03T07:32:08.001Z</time></trkpt><trkpt lat="42.3468773" lon="13.4676872"><ele>621.0</ele><time>2026-05-03T07:32:09.002Z</time></trkpt><trkpt lat="42.3469396" lon="13.467773"><ele>621.0</ele><time>2026-05-03T07:32:10Z</time></trkpt><trkpt lat="42.3470057" lon="13.4678369"><ele>621.0</ele><time>2026-05-03T07:32:10.999Z</time></trkpt><trkpt lat="42.3470854" lon="13.4678653"><ele>621.0</ele><time>2026-05-03T07:32:11.998Z</time></trkpt><trkpt lat="42.3471689" lon="13.4678586"><ele>621.0</ele><time>2026-05-03T07:32:13.002Z</time></trkpt><trkpt lat="42.3472566" lon="13.4678389"><ele>621.0</ele><time>2026-05-03T07:32:14.001Z</time></trkpt><trkpt lat="42.3473618" lon="13.4678304"><ele>621.0</ele><time>2026-05-03T07:32:15.002Z</time></trkpt><trkpt lat="42.347481" lon="13.4678364"><ele>621.4</ele><time>2026-05-03T07:32:16.001Z</time></trkpt><trkpt lat="42.3475851" lon="13.4678639"><ele>621.8</ele><time>2026-05-03T07:32:17.002Z</time></trkpt><trkpt lat="42.3476819" lon="13.4679055"><ele>622.1999999999999</ele><time>2026-05-03T07:32:18.001Z</time></trkpt><trkpt lat="42.3477852" lon="13.46795"><ele>622.6</ele><time>2026-05-03T07:32:19.001Z</time></trkpt><trkpt lat="42.3478949" lon="13.4679885"><ele>623.0</ele><time>2026-05-03T07:32:20.001Z</time></trkpt><trkpt lat="42.3480063" lon="13.4680251"><ele>623.5</ele><time>2026-05-03T07:32:21.002Z</time></trkpt><trkpt lat="42.348123" lon="13.4680609"><ele>624.0</ele><time>2026-05-03T07:32:22.001Z</time></trkpt><trkpt lat="42.3482418" lon="13.4680994"><ele>624.5</ele><time>2026-05-03T07:32:23.001Z</time></trkpt><trkpt lat="42.3483623" lon="13.468149"><ele>625.0</ele><time>2026-05-03T07:32:24.002Z</time></trkpt><trkpt lat="42.3484818" lon="13.4682019"><ele>625.0</ele><time>2026-05-03T07:32:25.002Z</time></trkpt><trkpt lat="42.348594" lon="13.4682542"><ele>625.0</ele><time>2026-05-03T07:32:26.002Z</time></trkpt><trkpt lat="42.3487057" lon="13.4683014"><ele>625.0</ele><time>2026-05-03T07:32:27.001Z</time></trkpt><trkpt lat="42.3488147" lon="13.4683449"><ele>625.0</ele><time>2026-05-03T07:32:28.002Z</time></trkpt><trkpt lat="42.3489238" lon="13.4683836"><ele>625.6</ele><time>2026-05-03T07:32:29.001Z</time></trkpt><trkpt lat="42.3490293" lon="13.468414"><ele>626.2</ele><time>2026-05-03T07:32:30.002Z</time></trkpt><trkpt lat="42.3491326" lon="13.468441"><ele>626.8</ele><time>2026-05-03T07:32:31.002Z</time></trkpt><trkpt lat="42.3492293" lon="13.4684578"><ele>627.4</ele><time>2026-05-03T07:32:32Z</time></trkpt><trkpt lat="42.3493019" lon="13.4684672"><ele>628.0</ele><time>2026-05-03T07:32:33.001Z</time></trkpt><trkpt lat="42.3493782" lon="13.4684822"><ele>628.0</ele><time>2026-05-03T07:32:34.001Z</time></trkpt><trkpt lat="42.3494662" lon="13.4684895"><ele>628.0</ele><time>2026-05-03T07:32:35.002Z</time></trkpt><trkpt lat="42.3495586" lon="13.4684884"><ele>628.0</ele><time>2026-05-03T07:32:36.002Z</time></trkpt><trkpt lat="42.34965" lon="13.468486"><ele>628.0</ele><time>2026-05-03T07:32:37Z</time></trkpt><trkpt lat="42.3497425" lon="13.4684854"><ele>628.0</ele><time>2026-05-03T07:32:38.001Z</time></trkpt><trkpt lat="42.3498321" lon="13.468487"><ele>628.1666666666667</ele><time>2026-05-03T07:32:38.999Z</time></trkpt><trkpt lat="42.3499147" lon="13.4684922"><ele>628.3333333333334</ele><time>2026-05-03T07:32:40.002Z</time></trkpt><trkpt lat="42.3499952" lon="13.4685052"><ele>628.5</ele><time>2026-05-03T07:32:40.999Z</time></trkpt><trkpt lat="42.3500744" lon="13.4685423"><ele>628.6666666666666</ele><time>2026-05-03T07:32:41.998Z</time></trkpt><trkpt lat="42.3501603" lon="13.4685952"><ele>628.8333333333333</ele><time>2026-05-03T07:32:43Z</time></trkpt><trkpt lat="42.3502367" lon="13.4686677"><ele>629.0</ele><time>2026-05-03T07:32:43.998Z</time></trkpt><trkpt lat="42.3503122" lon="13.4687403"><ele>629.0</ele><time>2026-05-03T07:32:45.001Z</time></trkpt><trkpt lat="42.3503839" lon="13.4688062"><ele>629.0</ele><time>2026-05-03T07:32:46Z</time></trkpt><trkpt lat="42.3504534" lon="13.4688656"><ele>629.0</ele><time>2026-05-03T07:32:47Z</time></trkpt><trkpt lat="42.3505252" lon="13.4689186"><ele>629.0</ele><time>2026-05-03T07:32:48.002Z</time></trkpt><trkpt lat="42.3506071" lon="13.4689707"><ele>629.0</ele><time>2026-05-03T07:32:49.002Z</time></trkpt><trkpt lat="42.3507032" lon="13.4690111"><ele>629.0</ele><time>2026-05-03T07:32:50.002Z</time></trkpt><trkpt lat="42.350803" lon="13.469031"><ele>629.3333333333333</ele><time>2026-05-03T07:32:51.001Z</time></trkpt><trkpt lat="42.3508932" lon="13.4690402"><ele>629.6666666666666</ele><time>2026-05-03T07:32:52.002Z</time></trkpt><trkpt lat="42.3509694" lon="13.4690444"><ele>630.0</ele><time>2026-05-03T07:32:52.999Z</time></trkpt><trkpt lat="42.3510455" lon="13.4690376"><ele>630.3333333333334</ele><time>2026-05-03T07:32:56.002Z</time></trkpt><trkpt lat="42.3511112" lon="13.4690213"><ele>630.6666666666667</ele><time>2026-05-03T07:33:00.002Z</time></trkpt><trkpt lat="42.3511865" lon="13.4689834"><ele>631.0</ele><time>2026-05-03T07:33:03.001Z</time></trkpt><trkpt lat="42.3512601" lon="13.4689549"><ele>631.0</ele><time>2026-05-03T07:33:05Z</time></trkpt><trkpt lat="42.3513443" lon="13.4688983"><ele>631.0</ele><time>2026-05-03T07:33:07.001Z</time></trkpt><trkpt lat="42.3514243" lon="13.4688246"><ele>631.0</ele><time>2026-05-03T07:33:09.002Z</time></trkpt><trkpt lat="42.3514955" lon="13.468714"><ele>631.0</ele><time>2026-05-03T07:33:11.001Z</time></trkpt><trkpt lat="42.351584" lon="13.4686574"><ele>631.0</ele><time>2026-05-03T07:33:13.002Z</time></trkpt><trkpt lat="42.3516962" lon="13.4687123"><ele>631.8333333333334</ele><time>2026-05-03T07:33:15.002Z</time></trkpt><trkpt lat="42.3517488" lon="13.4687685"><ele>632.6666666666667</ele><time>2026-05-03T07:33:16.001Z</time></trkpt><trkpt lat="42.3518274" lon="13.4688601"><ele>633.5</ele><time>2026-05-03T07:33:18Z</time></trkpt><trkpt lat="42.3518846" lon="13.4689403"><ele>634.3333333333334</ele><time>2026-05-03T07:33:20.002Z</time></trkpt><trkpt lat="42.3519656" lon="13.4690367"><ele>635.1666666666666</ele><time>2026-05-03T07:33:21.999Z</time></trkpt><trkpt lat="42.3520144" lon="13.4691097"><ele>636.0</ele><time>2026-05-03T07:33:23.002Z</time></trkpt><trkpt lat="42.3520763" lon="13.469182"><ele>636.0</ele><time>2026-05-03T07:33:24.001Z</time></trkpt><trkpt lat="42.3521421" lon="13.4692601"><ele>636.0</ele><time>2026-05-03T07:33:25.001Z</time></trkpt><trkpt lat="42.3522124" lon="13.4693392"><ele>636.0</ele><time>2026-05-03T07:33:26.002Z</time></trkpt><trkpt lat="42.3522836" lon="13.4694161"><ele>636.0</ele><time>2026-05-03T07:33:27.002Z</time></trkpt><trkpt lat="42.3523504" lon="13.469492"><ele>636.0</ele><time>2026-05-03T07:33:28.001Z</time></trkpt><trkpt lat="42.3524149" lon="13.4695681"><ele>636.0</ele><time>2026-05-03T07:33:29.001Z</time></trkpt><trkpt lat="42.3524794" lon="13.469644"><ele>636.5</ele><time>2026-05-03T07:33:30.002Z</time></trkpt><trkpt lat="42.3525472" lon="13.4697185"><ele>637.0</ele><time>2026-05-03T07:33:31.002Z</time></trkpt><trkpt lat="42.3526114" lon="13.4697964"><ele>637.5</ele><time>2026-05-03T07:33:32.001Z</time></trkpt><trkpt lat="42.352678" lon="13.4698691"><ele>638.0</ele><time>2026-05-03T07:33:33.002Z</time></trkpt><trkpt lat="42.3527422" lon="13.4699377"><ele>638.5</ele><time>2026-05-03T07:33:34.001Z</time></trkpt><trkpt lat="42.3528067" lon="13.4700113"><ele>639.0</ele><time>2026-05-03T07:33:35.001Z</time></trkpt><trkpt lat="42.3528695" lon="13.4700931"><ele>639.0</ele><time>2026-05-03T07:33:36.001Z</time></trkpt><trkpt lat="42.3529281" lon="13.4701805"><ele>639.0</ele><time>2026-05-03T07:33:37.001Z</time></trkpt><trkpt lat="42.3529882" lon="13.470268"><ele>639.0</ele><time>2026-05-03T07:33:38.001Z</time></trkpt><trkpt lat="42.3530459" lon="13.4703547"><ele>639.0</ele><time>2026-05-03T07:33:39.002Z</time></trkpt><trkpt lat="42.3531023" lon="13.4704416"><ele>639.0</ele><time>2026-05-03T07:33:40.001Z</time></trkpt><trkpt lat="42.3531567" lon="13.4705314"><ele>639.0</ele><time>2026-05-03T07:33:41.002Z</time></trkpt><trkpt lat="42.3532091" lon="13.4706224"><ele>639.5</ele><time>2026-05-03T07:33:42Z</time></trkpt><trkpt lat="42.3532583" lon="13.4707152"><ele>640.0</ele><time>2026-05-03T07:33:42.999Z</time></trkpt><trkpt lat="42.3533042" lon="13.4708032"><ele>640.5</ele><time>2026-05-03T07:33:44.002Z</time></trkpt><trkpt lat="42.3533426" lon="13.4708955"><ele>641.0</ele><time>2026-05-03T07:33:45.001Z</time></trkpt><trkpt lat="42.3533774" lon="13.4709911"><ele>641.5</ele><time>2026-05-03T07:33:46.002Z</time></trkpt><trkpt lat="42.3534179" lon="13.4710896"><ele>642.0</ele><time>2026-05-03T07:33:47.002Z</time></trkpt><trkpt lat="42.3534651" lon="13.4711808"><ele>642.0</ele><time>2026-05-03T07:33:48.001Z</time></trkpt><trkpt lat="42.3535193" lon="13.4712557"><ele>642.0</ele><time>2026-05-03T07:33:49.002Z</time></trkpt><trkpt lat="42.3535704" lon="13.4713239"><ele>642.0</ele><time>2026-05-03T07:33:50.001Z</time></trkpt><trkpt lat="42.3536184" lon="13.4713874"><ele>642.0</ele><time>2026-05-03T07:33:50.998Z</time></trkpt><trkpt lat="42.353682" lon="13.4714693"><ele>642.0</ele><time>2026-05-03T07:33:52.998Z</time></trkpt><trkpt lat="42.3537497" lon="13.4715336"><ele>642.0</ele><time>2026-05-03T07:33:56.001Z</time></trkpt><trkpt lat="42.3538742" lon="13.4715357"><ele>642.4000000000001</ele><time>2026-05-03T07:33:58Z</time></trkpt><trkpt lat="42.3539593" lon="13.4715125"><ele>642.8000000000001</ele><time>2026-05-03T07:33:59.001Z</time></trkpt><trkpt lat="42.3540781" lon="13.4714774"><ele>643.2</ele><time>2026-05-03T07:34:00Z</time></trkpt><trkpt lat="42.3541949" lon="13.4714487"><ele>643.6</ele><time>2026-05-03T07:34:01.002Z</time></trkpt><trkpt lat="42.3542987" lon="13.4714151"><ele>644.0</ele><time>2026-05-03T07:34:01.999Z</time></trkpt><trkpt lat="42.3543908" lon="13.4714103"><ele>644.0</ele><time>2026-05-03T07:34:02.998Z</time></trkpt><trkpt lat="42.3544745" lon="13.4714333"><ele>644.0</ele><time>2026-05-03T07:34:04.002Z</time></trkpt><trkpt lat="42.3545551" lon="13.4714827"><ele>644.0</ele><time>2026-05-03T07:34:05.001Z</time></trkpt><trkpt lat="42.3546303" lon="13.4715621"><ele>644.0</ele><time>2026-05-03T07:34:06.002Z</time></trkpt><trkpt lat="42.3547021" lon="13.4716498"><ele>644.0</ele><time>2026-05-03T07:34:07.001Z</time></trkpt><trkpt lat="42.354779" lon="13.4717374"><ele>644.6</ele><time>2026-05-03T07:34:08.001Z</time></trkpt><trkpt lat="42.3548568" lon="13.4718315"><ele>645.2</ele><time>2026-05-03T07:34:09.002Z</time></trkpt><trkpt lat="42.3549373" lon="13.4719363"><ele>645.8000000000001</ele><time>2026-05-03T07:34:10.001Z</time></trkpt><trkpt lat="42.3550238" lon="13.4720391"><ele>646.4000000000001</ele><time>2026-05-03T07:34:10.998Z</time></trkpt><trkpt lat="42.3551067" lon="13.472141"><ele>647.0</ele><time>2026-05-03T07:34:11.997Z</time></trkpt><trkpt lat="42.3551876" lon="13.4722424"><ele>647.0</ele><time>2026-05-03T07:34:12.998Z</time></trkpt><trkpt lat="42.3552644" lon="13.472337"><ele>647.0</ele><time>2026-05-03T07:34:14Z</time></trkpt><trkpt lat="42.3553362" lon="13.4724272"><ele>647.0</ele><time>2026-05-03T07:34:14.996Z</time></trkpt><trkpt lat="42.3554023" lon="13.472514"><ele>647.0</ele><time>2026-05-03T07:34:16.001Z</time></trkpt><trkpt lat="42.3554721" lon="13.4726014"><ele>647.0</ele><time>2026-05-03T07:34:16.997Z</time></trkpt><trkpt lat="42.355544" lon="13.4726852"><ele>647.4000000000001</ele><time>2026-05-03T07:34:17.998Z</time></trkpt><trkpt lat="42.3556196" lon="13.4727705"><ele>647.8000000000001</ele><time>2026-05-03T07:34:18.997Z</time></trkpt><trkpt lat="42.3556993" lon="13.4728564"><ele>648.2</ele><time>2026-05-03T07:34:19.998Z</time></trkpt><trkpt lat="42.3557832" lon="13.4729441"><ele>648.6</ele><time>2026-05-03T07:34:20.998Z</time></trkpt><trkpt lat="42.35587" lon="13.4730342"><ele>649.0</ele><time>2026-05-03T07:34:22.001Z</time></trkpt><trkpt lat="42.3559586" lon="13.4731285"><ele>649.2</ele><time>2026-05-03T07:34:23Z</time></trkpt><trkpt lat="42.3560471" lon="13.4732222"><ele>649.4000000000001</ele><time>2026-05-03T07:34:24.002Z</time></trkpt><trkpt lat="42.3561342" lon="13.4733111"><ele>649.6</ele><time>2026-05-03T07:34:25.001Z</time></trkpt><trkpt lat="42.3562141" lon="13.473394"><ele>649.8</ele><time>2026-05-03T07:34:26.001Z</time></trkpt><trkpt lat="42.3562989" lon="13.4734621"><ele>650.0</ele><time>2026-05-03T07:34:27.002Z</time></trkpt><trkpt lat="42.3563872" lon="13.4734968"><ele>650.5</ele><time>2026-05-03T07:34:28.001Z</time></trkpt><trkpt lat="42.356466" lon="13.4735293"><ele>651.0</ele><time>2026-05-03T07:34:28.998Z</time></trkpt><trkpt lat="42.3565273" lon="13.4735835"><ele>651.5</ele><time>2026-05-03T07:34:30.002Z</time></trkpt><trkpt lat="42.3565788" lon="13.473655"><ele>652.0</ele><time>2026-05-03T07:34:30.998Z</time></trkpt><trkpt lat="42.3566235" lon="13.4737541"><ele>652.5</ele><time>2026-05-03T07:34:32Z</time></trkpt><trkpt lat="42.3566634" lon="13.4738798"><ele>653.0</ele><time>2026-05-03T07:34:33Z</time></trkpt><trkpt lat="42.3567091" lon="13.4740218"><ele>653.75</ele><time>2026-05-03T07:34:34Z</time></trkpt><trkpt lat="42.356763" lon="13.4741749"><ele>654.5</ele><time>2026-05-03T07:34:35.001Z</time></trkpt><trkpt lat="42.3568171" lon="13.4743307"><ele>655.25</ele><time>2026-05-03T07:34:36Z</time></trkpt><trkpt lat="42.3568733" lon="13.4744853"><ele>656.0</ele><time>2026-05-03T07:34:36.997Z</time></trkpt><trkpt lat="42.3569287" lon="13.4746303"><ele>658.25</ele><time>2026-05-03T07:34:37.997Z</time></trkpt><trkpt lat="42.3569833" lon="13.4747729"><ele>660.5</ele><time>2026-05-03T07:34:38.999Z</time></trkpt><trkpt lat="42.3570298" lon="13.4749087"><ele>662.75</ele><time>2026-05-03T07:34:40Z</time></trkpt><trkpt lat="42.3570718" lon="13.4750485"><ele>665.0</ele><time>2026-05-03T07:34:41.001Z</time></trkpt><trkpt lat="42.3571046" lon="13.4751917"><ele>665.0</ele><time>2026-05-03T07:34:42.002Z</time></trkpt><trkpt lat="42.3571343" lon="13.4753335"><ele>665.0</ele><time>2026-05-03T07:34:43.002Z</time></trkpt><trkpt lat="42.3571696" lon="13.4754756"><ele>665.0</ele><time>2026-05-03T07:34:43.999Z</time></trkpt><trkpt lat="42.3571945" lon="13.475619"><ele>665.0</ele><time>2026-05-03T07:34:45.002Z</time></trkpt><trkpt lat="42.3572213" lon="13.4757591"><ele>665.0</ele><time>2026-05-03T07:34:46.001Z</time></trkpt><trkpt lat="42.3572382" lon="13.4759008"><ele>667.2</ele><time>2026-05-03T07:34:47.002Z</time></trkpt><trkpt lat="42.3572402" lon="13.4760465"><ele>669.4</ele><time>2026-05-03T07:34:48.001Z</time></trkpt><trkpt lat="42.3572337" lon="13.4761911"><ele>671.5999999999999</ele><time>2026-05-03T07:34:49.001Z</time></trkpt><trkpt lat="42.3572278" lon="13.4763328"><ele>673.8</ele><time>2026-05-03T07:34:50.001Z</time></trkpt><trkpt lat="42.3572279" lon="13.4764778"><ele>676.0</ele><time>2026-05-03T07:34:51.002Z</time></trkpt><trkpt lat="42.3572322" lon="13.4766185"><ele>677.1666666666667</ele><time>2026-05-03T07:34:52Z</time></trkpt><trkpt lat="42.3572397" lon="13.4767478"><ele>678.3333333333334</ele><time>2026-05-03T07:34:53Z</time></trkpt><trkpt lat="42.3572499" lon="13.4768686"><ele>679.5</ele><time>2026-05-03T07:34:54.001Z</time></trkpt><trkpt lat="42.3572593" lon="13.4769715"><ele>680.6666666666666</ele><time>2026-05-03T07:34:55.002Z</time></trkpt><trkpt lat="42.3572663" lon="13.4770612"><ele>681.8333333333333</ele><time>2026-05-03T07:34:56.002Z</time></trkpt><trkpt lat="42.3572761" lon="13.4771538"><ele>683.0</ele><time>2026-05-03T07:34:57.002Z</time></trkpt><trkpt lat="42.357291" lon="13.4772452"><ele>684.0</ele><time>2026-05-03T07:34:57.999Z</time></trkpt><trkpt lat="42.3573113" lon="13.4773381"><ele>685.0</ele><time>2026-05-03T07:34:59.001Z</time></trkpt><trkpt lat="42.3573258" lon="13.4774326"><ele>686.0</ele><time>2026-05-03T07:35:00.002Z</time></trkpt><trkpt lat="42.3573344" lon="13.4775295"><ele>687.0</ele><time>2026-05-03T07:35:01.002Z</time></trkpt><trkpt lat="42.3573428" lon="13.47763"><ele>688.0</ele><time>2026-05-03T07:35:02.001Z</time></trkpt><trkpt lat="42.3573503" lon="13.4777365"><ele>689.0</ele><time>2026-05-03T07:35:03.001Z</time></trkpt><trkpt lat="42.3573595" lon="13.4778468"><ele>690.6</ele><time>2026-05-03T07:35:04.002Z</time></trkpt><trkpt lat="42.3573754" lon="13.4779614"><ele>692.2</ele><time>2026-05-03T07:35:05Z</time></trkpt><trkpt lat="42.3573987" lon="13.4780774"><ele>693.8000000000001</ele><time>2026-05-03T07:35:06.001Z</time></trkpt><trkpt lat="42.3574279" lon="13.4782"><ele>695.4000000000001</ele><time>2026-05-03T07:35:07.002Z</time></trkpt><trkpt lat="42.3574632" lon="13.4783188"><ele>697.0</ele><time>2026-05-03T07:35:08Z</time></trkpt><trkpt lat="42.3575" lon="13.4784314"><ele>697.0</ele><time>2026-05-03T07:35:09.002Z</time></trkpt><trkpt lat="42.3575266" lon="13.4785428"><ele>697.0</ele><time>2026-05-03T07:35:10.002Z</time></trkpt><trkpt lat="42.3575444" lon="13.4786558"><ele>697.0</ele><time>2026-05-03T07:35:11.002Z</time></trkpt><trkpt lat="42.3575622" lon="13.4787766"><ele>697.0</ele><time>2026-05-03T07:35:12.001Z</time></trkpt><trkpt lat="42.3575805" lon="13.4789009"><ele>697.0</ele><time>2026-05-03T07:35:13.002Z</time></trkpt><trkpt lat="42.3575975" lon="13.4790252"><ele>698.8</ele><time>2026-05-03T07:35:14.001Z</time></trkpt><trkpt lat="42.3576155" lon="13.4791512"><ele>700.6</ele><time>2026-05-03T07:35:15.001Z</time></trkpt><trkpt lat="42.357631" lon="13.4792795"><ele>702.4</ele><time>2026-05-03T07:35:16.002Z</time></trkpt><trkpt lat="42.3576452" lon="13.4794086"><ele>704.1999999999999</ele><time>2026-05-03T07:35:16.996Z</time></trkpt><trkpt lat="42.357663" lon="13.4795367"><ele>706.0</ele><time>2026-05-03T07:35:18.002Z</time></trkpt><trkpt lat="42.3576815" lon="13.4796603"><ele>707.8</ele><time>2026-05-03T07:35:19Z</time></trkpt><trkpt lat="42.3577002" lon="13.4797845"><ele>709.5999999999999</ele><time>2026-05-03T07:35:20.001Z</time></trkpt><trkpt lat="42.3577194" lon="13.4799145"><ele>711.4</ele><time>2026-05-03T07:35:21.001Z</time></trkpt><trkpt lat="42.3577348" lon="13.4800416"><ele>713.2</ele><time>2026-05-03T07:35:22Z</time></trkpt><trkpt lat="42.3577458" lon="13.4801919"><ele>715.0</ele><time>2026-05-03T07:35:22.999Z</time></trkpt><trkpt lat="42.357739" lon="13.4803321"><ele>716.6</ele><time>2026-05-03T07:35:24.001Z</time></trkpt><trkpt lat="42.3577125" lon="13.4804701"><ele>718.2</ele><time>2026-05-03T07:35:25.001Z</time></trkpt><trkpt lat="42.3576869" lon="13.4806024"><ele>719.8</ele><time>2026-05-03T07:35:25.999Z</time></trkpt><trkpt lat="42.3576811" lon="13.4807309"><ele>721.4</ele><time>2026-05-03T07:35:27.001Z</time></trkpt><trkpt lat="42.3576918" lon="13.480848"><ele>723.0</ele><time>2026-05-03T07:35:28.002Z</time></trkpt><trkpt lat="42.3577128" lon="13.4809337"><ele>723.0</ele><time>2026-05-03T07:35:29.001Z</time></trkpt><trkpt lat="42.3577281" lon="13.4810223"><ele>723.0</ele><time>2026-05-03T07:35:29.995Z</time></trkpt><trkpt lat="42.3577372" lon="13.4811909"><ele>723.0</ele><time>2026-05-03T07:35:31.999Z</time></trkpt><trkpt lat="42.357731" lon="13.4812796"><ele>723.0</ele><time>2026-05-03T07:35:33Z</time></trkpt><trkpt lat="42.3577232" lon="13.4813702"><ele>723.0</ele><time>2026-05-03T07:35:34.002Z</time></trkpt><trkpt lat="42.3577162" lon="13.4814602"><ele>723.0</ele><time>2026-05-03T07:35:35.001Z</time></trkpt><trkpt lat="42.3577072" lon="13.481552"><ele>724.6666666666666</ele><time>2026-05-03T07:35:36.001Z</time></trkpt><trkpt lat="42.3576929" lon="13.4816592"><ele>726.3333333333334</ele><time>2026-05-03T07:35:37.002Z</time></trkpt><trkpt lat="42.3576764" lon="13.4817726"><ele>728.0</ele><time>2026-05-03T07:35:38.002Z</time></trkpt><trkpt lat="42.3576578" lon="13.4818832"><ele>729.6666666666667</ele><time>2026-05-03T07:35:39.001Z</time></trkpt><trkpt lat="42.357633" lon="13.4819903"><ele>731.3333333333334</ele><time>2026-05-03T07:35:40Z</time></trkpt><trkpt lat="42.3576131" lon="13.4820921"><ele>733.0</ele><time>2026-05-03T07:35:40.999Z</time></trkpt><trkpt lat="42.3575926" lon="13.4821932"><ele>735.0</ele><time>2026-05-03T07:35:42.001Z</time></trkpt><trkpt lat="42.3575787" lon="13.4822838"><ele>737.0</ele><time>2026-05-03T07:35:43.001Z</time></trkpt><trkpt lat="42.3575674" lon="13.4823748"><ele>739.0</ele><time>2026-05-03T07:35:44Z</time></trkpt><trkpt lat="42.3575562" lon="13.4825155"><ele>741.0</ele><time>2026-05-03T07:35:46.002Z</time></trkpt><trkpt lat="42.3575678" lon="13.4827052"><ele>743.0</ele><time>2026-05-03T07:35:48.001Z</time></trkpt><trkpt lat="42.3575784" lon="13.482819"><ele>744.4</ele><time>2026-05-03T07:35:49.002Z</time></trkpt><trkpt lat="42.3575887" lon="13.4829335"><ele>745.8</ele><time>2026-05-03T07:35:50.002Z</time></trkpt><trkpt lat="42.3575984" lon="13.4830516"><ele>747.2</ele><time>2026-05-03T07:35:51.002Z</time></trkpt><trkpt lat="42.3576079" lon="13.4831779"><ele>748.6</ele><time>2026-05-03T07:35:52Z</time></trkpt><trkpt lat="42.3576167" lon="13.4833086"><ele>750.0</ele><time>2026-05-03T07:35:52.998Z</time></trkpt><trkpt lat="42.3576276" lon="13.4834279"><ele>750.0</ele><time>2026-05-03T07:35:53.998Z</time></trkpt><trkpt lat="42.35764" lon="13.4835287"><ele>750.0</ele><time>2026-05-03T07:35:54.999Z</time></trkpt><trkpt lat="42.3576523" lon="13.4836285"><ele>750.0</ele><time>2026-05-03T07:35:56.001Z</time></trkpt><trkpt lat="42.3576659" lon="13.4837319"><ele>750.0</ele><time>2026-05-03T07:35:57.002Z</time></trkpt><trkpt lat="42.357682" lon="13.483834"><ele>750.0</ele><time>2026-05-03T07:35:58Z</time></trkpt><trkpt lat="42.3577017" lon="13.4839377"><ele>750.0</ele><time>2026-05-03T07:35:59Z</time></trkpt><trkpt lat="42.3577238" lon="13.4840405"><ele>750.6666666666666</ele><time>2026-05-03T07:36:00.002Z</time></trkpt><trkpt lat="42.3577449" lon="13.4841454"><ele>751.3333333333334</ele><time>2026-05-03T07:36:01.001Z</time></trkpt><trkpt lat="42.3577643" lon="13.484262"><ele>752.0</ele><time>2026-05-03T07:36:02.001Z</time></trkpt><trkpt lat="42.3577769" lon="13.4843896"><ele>752.6666666666667</ele><time>2026-05-03T07:36:03.002Z</time></trkpt><trkpt lat="42.3577788" lon="13.4845176"><ele>753.3333333333334</ele><time>2026-05-03T07:36:04.002Z</time></trkpt><trkpt lat="42.3577772" lon="13.4846358"><ele>754.0</ele><time>2026-05-03T07:36:04.999Z</time></trkpt><trkpt lat="42.3577703" lon="13.4847443"><ele>755.2</ele><time>2026-05-03T07:36:06.002Z</time></trkpt><trkpt lat="42.3577541" lon="13.4848616"><ele>756.4000000000001</ele><time>2026-05-03T07:36:07Z</time></trkpt><trkpt lat="42.357735" lon="13.4849925"><ele>757.6</ele><time>2026-05-03T07:36:07.997Z</time></trkpt><trkpt lat="42.3577176" lon="13.4851276"><ele>758.8</ele><time>2026-05-03T07:36:08.998Z</time></trkpt><trkpt lat="42.3577048" lon="13.4852688"><ele>760.0</ele><time>2026-05-03T07:36:09.998Z</time></trkpt><trkpt lat="42.3576941" lon="13.4854015"><ele>759.5</ele><time>2026-05-03T07:36:10.997Z</time></trkpt><trkpt lat="42.3576866" lon="13.4855152"><ele>759.0</ele><time>2026-05-03T07:36:11.998Z</time></trkpt><trkpt lat="42.3576821" lon="13.4856266"><ele>758.5</ele><time>2026-05-03T07:36:12.997Z</time></trkpt><trkpt lat="42.3576825" lon="13.4857292"><ele>758.0</ele><time>2026-05-03T07:36:13.997Z</time></trkpt><trkpt lat="42.3576868" lon="13.4858195"><ele>757.5</ele><time>2026-05-03T07:36:14.999Z</time></trkpt><trkpt lat="42.3577035" lon="13.4859113"><ele>757.0</ele><time>2026-05-03T07:36:15.997Z</time></trkpt><trkpt lat="42.3577339" lon="13.4860151"><ele>757.0</ele><time>2026-05-03T07:36:16.997Z</time></trkpt><trkpt lat="42.3577696" lon="13.4861271"><ele>757.0</ele><time>2026-05-03T07:36:17.998Z</time></trkpt><trkpt lat="42.3578091" lon="13.4862363"><ele>757.0</ele><time>2026-05-03T07:36:19.002Z</time></trkpt><trkpt lat="42.3578489" lon="13.486341"><ele>757.0</ele><time>2026-05-03T07:36:20.001Z</time></trkpt><trkpt lat="42.3578959" lon="13.4864299"><ele>757.0</ele><time>2026-05-03T07:36:20.999Z</time></trkpt><trkpt lat="42.3579487" lon="13.4865122"><ele>757.0</ele><time>2026-05-03T07:36:22Z</time></trkpt><trkpt lat="42.3580093" lon="13.4865974"><ele>758.6</ele><time>2026-05-03T07:36:22.998Z</time></trkpt><trkpt lat="42.3580808" lon="13.4866789"><ele>760.2</ele><time>2026-05-03T07:36:23.998Z</time></trkpt><trkpt lat="42.3581536" lon="13.4867659"><ele>761.8</ele><time>2026-05-03T07:36:25.002Z</time></trkpt><trkpt lat="42.3582272" lon="13.4868588"><ele>763.4</ele><time>2026-05-03T07:36:26.001Z</time></trkpt><trkpt lat="42.3582971" lon="13.4869503"><ele>765.0</ele><time>2026-05-03T07:36:27Z</time></trkpt><trkpt lat="42.3583587" lon="13.4870375"><ele>764.6666666666666</ele><time>2026-05-03T07:36:27.999Z</time></trkpt><trkpt lat="42.3584182" lon="13.4871199"><ele>764.3333333333334</ele><time>2026-05-03T07:36:29.001Z</time></trkpt><trkpt lat="42.3584796" lon="13.4871916"><ele>764.0</ele><time>2026-05-03T07:36:29.999Z</time></trkpt><trkpt lat="42.3585408" lon="13.4872616"><ele>763.6666666666667</ele><time>2026-05-03T07:36:30.998Z</time></trkpt><trkpt lat="42.3586163" lon="13.4873743"><ele>763.3333333333334</ele><time>2026-05-03T07:36:32.679Z</time></trkpt><trkpt lat="42.3586628" lon="13.4874361"><ele>763.0</ele><time>2026-05-03T07:36:33.981Z</time></trkpt><trkpt lat="42.3587279" lon="13.4875496"><ele>763.0</ele><time>2026-05-03T07:36:35.982Z</time></trkpt><trkpt lat="42.3587647" lon="13.4876264"><ele>763.0</ele><time>2026-05-03T07:36:36.981Z</time></trkpt><trkpt lat="42.3588059" lon="13.4877167"><ele>763.0</ele><time>2026-05-03T07:36:37.982Z</time></trkpt><trkpt lat="42.3588474" lon="13.4878074"><ele>763.0</ele><time>2026-05-03T07:36:38.981Z</time></trkpt><trkpt lat="42.3588897" lon="13.4878972"><ele>763.0</ele><time>2026-05-03T07:36:39.982Z</time></trkpt><trkpt lat="42.3589363" lon="13.4879707"><ele>763.0</ele><time>2026-05-03T07:36:40.982Z</time></trkpt><trkpt lat="42.3590195" lon="13.4880767"><ele>765.8333333333334</ele><time>2026-05-03T07:36:42.981Z</time></trkpt><trkpt lat="42.3591131" lon="13.4881848"><ele>768.6666666666667</ele><time>2026-05-03T07:36:44.982Z</time></trkpt><trkpt lat="42.3591599" lon="13.4882495"><ele>771.5</ele><time>2026-05-03T07:36:45.982Z</time></trkpt><trkpt lat="42.359206" lon="13.488311"><ele>774.3333333333334</ele><time>2026-05-03T07:36:46.981Z</time></trkpt><trkpt lat="42.3592521" lon="13.4883751"><ele>777.1666666666666</ele><time>2026-05-03T07:36:47.981Z</time></trkpt><trkpt lat="42.3592982" lon="13.4884384"><ele>780.0</ele><time>2026-05-03T07:36:48.982Z</time></trkpt><trkpt lat="42.3593674" lon="13.4885306"><ele>780.0</ele><time>2026-05-03T07:36:50.982Z</time></trkpt><trkpt lat="42.3594129" lon="13.4885996"><ele>780.0</ele><time>2026-05-03T07:36:51.982Z</time></trkpt><trkpt lat="42.3594581" lon="13.4886777"><ele>780.0</ele><time>2026-05-03T07:36:52.982Z</time></trkpt><trkpt lat="42.3595018" lon="13.4887625"><ele>780.0</ele><time>2026-05-03T07:36:53.982Z</time></trkpt><trkpt lat="42.3595455" lon="13.4888523"><ele>780.0</ele><time>2026-05-03T07:36:54.982Z</time></trkpt><trkpt lat="42.3595863" lon="13.4889356"><ele>780.0</ele><time>2026-05-03T07:36:55.981Z</time></trkpt><trkpt lat="42.3596311" lon="13.4890054"><ele>780.0</ele><time>2026-05-03T07:36:56.982Z</time></trkpt><trkpt lat="42.3596787" lon="13.4890701"><ele>781.7142857142857</ele><time>2026-05-03T07:36:57.981Z</time></trkpt><trkpt lat="42.3597336" lon="13.4891434"><ele>783.4285714285713</ele><time>2026-05-03T07:36:58.982Z</time></trkpt><trkpt lat="42.3597949" lon="13.4892163"><ele>785.1428571428571</ele><time>2026-05-03T07:36:59.982Z</time></trkpt><trkpt lat="42.3598491" lon="13.4892629"><ele>786.8571428571429</ele><time>2026-05-03T07:37:00.982Z</time></trkpt><trkpt lat="42.3599127" lon="13.4893047"><ele>788.5714285714286</ele><time>2026-05-03T07:37:01.981Z</time></trkpt><trkpt lat="42.359981" lon="13.4893539"><ele>790.2857142857143</ele><time>2026-05-03T07:37:02.982Z</time></trkpt><trkpt lat="42.3600488" lon="13.4893984"><ele>792.0</ele><time>2026-05-03T07:37:03.981Z</time></trkpt><trkpt lat="42.3601146" lon="13.4894425"><ele>792.0</ele><time>2026-05-03T07:37:04.981Z</time></trkpt><trkpt lat="42.3601824" lon="13.4894843"><ele>792.0</ele><time>2026-05-03T07:37:05.982Z</time></trkpt><trkpt lat="42.3602429" lon="13.4895542"><ele>792.0</ele><time>2026-05-03T07:37:06.981Z</time></trkpt><trkpt lat="42.3602962" lon="13.4896239"><ele>792.0</ele><time>2026-05-03T07:37:07.981Z</time></trkpt><trkpt lat="42.3603526" lon="13.4896886"><ele>792.0</ele><time>2026-05-03T07:37:08.982Z</time></trkpt><trkpt lat="42.3604126" lon="13.4897441"><ele>792.0</ele><time>2026-05-03T07:37:09.982Z</time></trkpt><trkpt lat="42.3604714" lon="13.4897953"><ele>792.0</ele><time>2026-05-03T07:37:10.982Z</time></trkpt><trkpt lat="42.3605387" lon="13.4898491"><ele>793.1428571428572</ele><time>2026-05-03T07:37:11.982Z</time></trkpt><trkpt lat="42.3606001" lon="13.4898926"><ele>794.2857142857142</ele><time>2026-05-03T07:37:12.982Z</time></trkpt><trkpt lat="42.3606623" lon="13.489945"><ele>795.4285714285714</ele><time>2026-05-03T07:37:13.981Z</time></trkpt><trkpt lat="42.3607283" lon="13.4899963"><ele>796.5714285714287</ele><time>2026-05-03T07:37:14.982Z</time></trkpt><trkpt lat="42.3607814" lon="13.4900554"><ele>797.7142857142858</ele><time>2026-05-03T07:37:15.981Z</time></trkpt><trkpt lat="42.360836" lon="13.4901161"><ele>798.8571428571429</ele><time>2026-05-03T07:37:16.981Z</time></trkpt><trkpt lat="42.3608901" lon="13.4901613"><ele>800.0</ele><time>2026-05-03T07:37:17.982Z</time></trkpt><trkpt lat="42.3609505" lon="13.4901942"><ele>800.0000000000001</ele><time>2026-05-03T07:37:18.981Z</time></trkpt><trkpt lat="42.3610176" lon="13.490227"><ele>800.0</ele><time>2026-05-03T07:37:19.982Z</time></trkpt><trkpt lat="42.3610881" lon="13.4902707"><ele>800.0</ele><time>2026-05-03T07:37:20.982Z</time></trkpt><trkpt lat="42.361157" lon="13.4903243"><ele>800.0</ele><time>2026-05-03T07:37:21.981Z</time></trkpt><trkpt lat="42.3612258" lon="13.4903764"><ele>800.0000000000001</ele><time>2026-05-03T07:37:22.981Z</time></trkpt><trkpt lat="42.3612979" lon="13.4904309"><ele>800.0</ele><time>2026-05-03T07:37:23.982Z</time></trkpt><trkpt lat="42.3613638" lon="13.4905132"><ele>802.0000000000001</ele><time>2026-05-03T07:37:24.982Z</time></trkpt><trkpt lat="42.3614258" lon="13.4905873"><ele>804.0</ele><time>2026-05-03T07:37:25.981Z</time></trkpt><trkpt lat="42.3614895" lon="13.4906485"><ele>806.0</ele><time>2026-05-03T07:37:26.981Z</time></trkpt><trkpt lat="42.3615567" lon="13.4906987"><ele>808.0</ele><time>2026-05-03T07:37:27.982Z</time></trkpt><trkpt lat="42.361624" lon="13.490749"><ele>810.0000000000001</ele><time>2026-05-03T07:37:28.982Z</time></trkpt><trkpt lat="42.3616876" lon="13.4907991"><ele>812.0</ele><time>2026-05-03T07:37:29.981Z</time></trkpt><trkpt lat="42.3617468" lon="13.4908469"><ele>812.0</ele><time>2026-05-03T07:37:30.982Z</time></trkpt><trkpt lat="42.3618096" lon="13.4908834"><ele>812.0</ele><time>2026-05-03T07:37:31.981Z</time></trkpt><trkpt lat="42.3618746" lon="13.4909179"><ele>812.0</ele><time>2026-05-03T07:37:32.981Z</time></trkpt><trkpt lat="42.361928" lon="13.4909751"><ele>812.0</ele><time>2026-05-03T07:37:33.982Z</time></trkpt><trkpt lat="42.3619754" lon="13.4910507"><ele>812.0</ele><time>2026-05-03T07:37:34.982Z</time></trkpt><trkpt lat="42.362017" lon="13.4911296"><ele>812.0</ele><time>2026-05-03T07:37:35.982Z</time></trkpt><trkpt lat="42.3620613" lon="13.4912089"><ele>812.0</ele><time>2026-05-03T07:37:36.981Z</time></trkpt><trkpt lat="42.3621356" lon="13.4913147"><ele>813.1666666666667</ele><time>2026-05-03T07:37:38.564Z</time></trkpt><trkpt lat="42.3622151" lon="13.4914075"><ele>814.3333333333334</ele><time>2026-05-03T07:37:39.989Z</time></trkpt><trkpt lat="42.3622748" lon="13.49148"><ele>815.5</ele><time>2026-05-03T07:37:40.988Z</time></trkpt><trkpt lat="42.3623361" lon="13.4915601"><ele>816.6666666666667</ele><time>2026-05-03T07:37:41.989Z</time></trkpt><trkpt lat="42.3623981" lon="13.4916431"><ele>817.8333333333334</ele><time>2026-05-03T07:37:42.989Z</time></trkpt><trkpt lat="42.3624559" lon="13.4917305"><ele>819.0</ele><time>2026-05-03T07:37:43.988Z</time></trkpt><trkpt lat="42.3625059" lon="13.4918224"><ele>819.0</ele><time>2026-05-03T07:37:44.988Z</time></trkpt><trkpt lat="42.3625428" lon="13.4919175"><ele>819.0</ele><time>2026-05-03T07:37:45.989Z</time></trkpt><trkpt lat="42.3625805" lon="13.4920279"><ele>819.0</ele><time>2026-05-03T07:37:46.988Z</time></trkpt><trkpt lat="42.3626222" lon="13.4921466"><ele>819.0</ele><time>2026-05-03T07:37:47.988Z</time></trkpt><trkpt lat="42.3626555" lon="13.4922581"><ele>819.0</ele><time>2026-05-03T07:37:48.989Z</time></trkpt><trkpt lat="42.3626826" lon="13.4923642"><ele>819.0</ele><time>2026-05-03T07:37:49.989Z</time></trkpt><trkpt lat="42.3627061" lon="13.4924662"><ele>820.5</ele><time>2026-05-03T07:37:50.988Z</time></trkpt><trkpt lat="42.3627296" lon="13.4925643"><ele>822.0</ele><time>2026-05-03T07:37:51.989Z</time></trkpt><trkpt lat="42.3627559" lon="13.4926637"><ele>823.5</ele><time>2026-05-03T07:37:52.988Z</time></trkpt><trkpt lat="42.3627837" lon="13.4927553"><ele>825.0</ele><time>2026-05-03T07:37:53.989Z</time></trkpt><trkpt lat="42.3628038" lon="13.4928432"><ele>826.5</ele><time>2026-05-03T07:37:54.989Z</time></trkpt><trkpt lat="42.3628089" lon="13.4930015"><ele>828.0</ele><time>2026-05-03T07:37:56.989Z</time></trkpt><trkpt lat="42.3627915" lon="13.4931463"><ele>832.0</ele><time>2026-05-03T07:37:58.988Z</time></trkpt><trkpt lat="42.3627958" lon="13.4933093"><ele>836.0</ele><time>2026-05-03T07:38:00.989Z</time></trkpt><trkpt lat="42.3628184" lon="13.4934661"><ele>840.0</ele><time>2026-05-03T07:38:02.988Z</time></trkpt><trkpt lat="42.3628792" lon="13.4936105"><ele>844.0</ele><time>2026-05-03T07:38:04.988Z</time></trkpt><trkpt lat="42.3629286" lon="13.493733"><ele>846.1666666666666</ele><time>2026-05-03T07:38:06.989Z</time></trkpt><trkpt lat="42.362944" lon="13.4938903"><ele>848.3333333333333</ele><time>2026-05-03T07:38:08.989Z</time></trkpt><trkpt lat="42.3629453" lon="13.4939873"><ele>850.5</ele><time>2026-05-03T07:38:09.989Z</time></trkpt><trkpt lat="42.362949" lon="13.4940923"><ele>852.6666666666667</ele><time>2026-05-03T07:38:10.988Z</time></trkpt><trkpt lat="42.3629529" lon="13.4941987"><ele>854.8333333333334</ele><time>2026-05-03T07:38:11.988Z</time></trkpt><trkpt lat="42.3629554" lon="13.4942946"><ele>857.0</ele><time>2026-05-03T07:38:12.989Z</time></trkpt><trkpt lat="42.3629614" lon="13.4943817"><ele>857.0</ele><time>2026-05-03T07:38:13.989Z</time></trkpt><trkpt lat="42.3629662" lon="13.494541"><ele>857.0</ele><time>2026-05-03T07:38:15.988Z</time></trkpt><trkpt lat="42.3629566" lon="13.4946932"><ele>857.0</ele><time>2026-05-03T07:38:17.989Z</time></trkpt><trkpt lat="42.362938" lon="13.4948704"><ele>857.0</ele><time>2026-05-03T07:38:19.988Z</time></trkpt><trkpt lat="42.3629308" lon="13.4949717"><ele>857.0</ele><time>2026-05-03T07:38:20.989Z</time></trkpt><trkpt lat="42.3629236" lon="13.4950688"><ele>857.8571428571429</ele><time>2026-05-03T07:38:21.988Z</time></trkpt><trkpt lat="42.3629136" lon="13.4951672"><ele>858.7142857142857</ele><time>2026-05-03T07:38:22.989Z</time></trkpt><trkpt lat="42.362905" lon="13.4952677"><ele>859.5714285714287</ele><time>2026-05-03T07:38:23.989Z</time></trkpt><trkpt lat="42.3628971" lon="13.4953692"><ele>860.4285714285714</ele><time>2026-05-03T07:38:24.989Z</time></trkpt><trkpt lat="42.3628922" lon="13.4954706"><ele>861.2857142857143</ele><time>2026-05-03T07:38:25.988Z</time></trkpt><trkpt lat="42.3628845" lon="13.4955695"><ele>862.1428571428572</ele><time>2026-05-03T07:38:26.989Z</time></trkpt><trkpt lat="42.3628759" lon="13.495672"><ele>863.0</ele><time>2026-05-03T07:38:27.989Z</time></trkpt><trkpt lat="42.3628685" lon="13.4957768"><ele>863.3333333333334</ele><time>2026-05-03T07:38:28.989Z</time></trkpt><trkpt lat="42.3628626" lon="13.4958799"><ele>863.6666666666667</ele><time>2026-05-03T07:38:29.989Z</time></trkpt><trkpt lat="42.3628602" lon="13.4959834"><ele>864.0</ele><time>2026-05-03T07:38:30.988Z</time></trkpt><trkpt lat="42.3628527" lon="13.4960916"><ele>864.3333333333333</ele><time>2026-05-03T07:38:31.989Z</time></trkpt><trkpt lat="42.3628436" lon="13.4961975"><ele>864.6666666666666</ele><time>2026-05-03T07:38:32.989Z</time></trkpt><trkpt lat="42.3628353" lon="13.4962957"><ele>865.0</ele><time>2026-05-03T07:38:33.988Z</time></trkpt><trkpt lat="42.3628285" lon="13.4963846"><ele>865.8571428571429</ele><time>2026-05-03T07:38:34.989Z</time></trkpt><trkpt lat="42.3628221" lon="13.4964744"><ele>866.7142857142858</ele><time>2026-05-03T07:38:35.988Z</time></trkpt><trkpt lat="42.3628231" lon="13.4965634"><ele>867.5714285714286</ele><time>2026-05-03T07:38:36.988Z</time></trkpt><trkpt lat="42.3628308" lon="13.4966511"><ele>868.4285714285714</ele><time>2026-05-03T07:38:37.988Z</time></trkpt><trkpt lat="42.3628424" lon="13.4967375"><ele>869.2857142857142</ele><time>2026-05-03T07:38:38.988Z</time></trkpt><trkpt lat="42.3628558" lon="13.4968243"><ele>870.1428571428571</ele><time>2026-05-03T07:38:39.988Z</time></trkpt><trkpt lat="42.3628744" lon="13.4969099"><ele>871.0</ele><time>2026-05-03T07:38:40.988Z</time></trkpt><trkpt lat="42.3628961" lon="13.496992"><ele>871.8</ele><time>2026-05-03T07:38:41.988Z</time></trkpt><trkpt lat="42.3629009" lon="13.49715"><ele>872.5999999999999</ele><time>2026-05-03T07:38:43.989Z</time></trkpt><trkpt lat="42.3628933" lon="13.4973169"><ele>873.4</ele><time>2026-05-03T07:38:45.988Z</time></trkpt><trkpt lat="42.3628954" lon="13.497476"><ele>874.2</ele><time>2026-05-03T07:38:47.989Z</time></trkpt><trkpt lat="42.3629033" lon="13.4975932"><ele>875.0</ele><time>2026-05-03T07:38:49.988Z</time></trkpt><trkpt lat="42.3629431" lon="13.4977102"><ele>875.0</ele><time>2026-05-03T07:38:52.989Z</time></trkpt><trkpt lat="42.3629765" lon="13.4977941"><ele>875.0</ele><time>2026-05-03T07:38:55.989Z</time></trkpt><trkpt lat="42.3630223" lon="13.4978765"><ele>875.0</ele><time>2026-05-03T07:39:13.988Z</time></trkpt><trkpt lat="42.3630775" lon="13.4979672"><ele>875.0</ele><time>2026-05-03T07:39:16.988Z</time></trkpt><trkpt lat="42.363122" lon="13.4980288"><ele>875.0</ele><time>2026-05-03T07:39:18.989Z</time></trkpt><trkpt lat="42.3631738" lon="13.4980792"><ele>875.0</ele><time>2026-05-03T07:39:26.988Z</time></trkpt><trkpt lat="42.3632479" lon="13.4981412"><ele>875.0</ele><time>2026-05-03T07:39:29.988Z</time></trkpt><trkpt lat="42.3633031" lon="13.4981827"><ele>878.0000000000001</ele><time>2026-05-03T07:39:31.989Z</time></trkpt><trkpt lat="42.3633662" lon="13.4982488"><ele>881.0</ele><time>2026-05-03T07:39:33.989Z</time></trkpt><trkpt lat="42.3634498" lon="13.4983113"><ele>884.0</ele><time>2026-05-03T07:39:35.988Z</time></trkpt><trkpt lat="42.3635165" lon="13.4983813"><ele>887.0</ele><time>2026-05-03T07:39:37.989Z</time></trkpt><trkpt lat="42.3635814" lon="13.4984533"><ele>890.0000000000001</ele><time>2026-05-03T07:39:39.988Z</time></trkpt><trkpt lat="42.3636239" lon="13.4985379"><ele>893.0</ele><time>2026-05-03T07:39:41.988Z</time></trkpt><trkpt lat="42.3636517" lon="13.4986561"><ele>893.5000000000001</ele><time>2026-05-03T07:39:44.988Z</time></trkpt><trkpt lat="42.3636901" lon="13.4987868"><ele>894.0</ele><time>2026-05-03T07:39:46.988Z</time></trkpt><trkpt lat="42.3637202" lon="13.4988951"><ele>894.5</ele><time>2026-05-03T07:39:48.989Z</time></trkpt><trkpt lat="42.3637595" lon="13.498997"><ele>895.0</ele><time>2026-05-03T07:39:50.988Z</time></trkpt><trkpt lat="42.3638161" lon="13.4990521"><ele>895.5000000000001</ele><time>2026-05-03T07:39:52.989Z</time></trkpt><trkpt lat="42.3638895" lon="13.4991225"><ele>896.0</ele><time>2026-05-03T07:39:54.989Z</time></trkpt><trkpt lat="42.3639442" lon="13.4992273"><ele>898.0</ele><time>2026-05-03T07:39:56.989Z</time></trkpt><trkpt lat="42.3639868" lon="13.4993349"><ele>899.9999999999999</ele><time>2026-05-03T07:39:58.988Z</time></trkpt><trkpt lat="42.3640566" lon="13.4994292"><ele>901.9999999999999</ele><time>2026-05-03T07:40:00.988Z</time></trkpt><trkpt lat="42.3641339" lon="13.4995333"><ele>904.0</ele><time>2026-05-03T07:40:02.988Z</time></trkpt><trkpt lat="42.3642157" lon="13.4996629"><ele>906.0</ele><time>2026-05-03T07:40:04.989Z</time></trkpt><trkpt lat="42.3642811" lon="13.4997874"><ele>906.5</ele><time>2026-05-03T07:40:06.989Z</time></trkpt><trkpt lat="42.3643504" lon="13.4999203"><ele>907.0</ele><time>2026-05-03T07:40:08.989Z</time></trkpt><trkpt lat="42.3644119" lon="13.5000555"><ele>907.5</ele><time>2026-05-03T07:40:10.988Z</time></trkpt><trkpt lat="42.3644771" lon="13.5001952"><ele>908.0</ele><time>2026-05-03T07:40:12.989Z</time></trkpt><trkpt lat="42.3645427" lon="13.500333"><ele>909.0</ele><time>2026-05-03T07:40:14.988Z</time></trkpt><trkpt lat="42.3645976" lon="13.5004734"><ele>910.0</ele><time>2026-05-03T07:40:16.989Z</time></trkpt><trkpt lat="42.3646499" lon="13.500602"><ele>911.0</ele><time>2026-05-03T07:40:18.988Z</time></trkpt><trkpt lat="42.3646964" lon="13.5007233"><ele>912.0</ele><time>2026-05-03T07:40:20.989Z</time></trkpt><trkpt lat="42.3647412" lon="13.5008479"><ele>913.0</ele><time>2026-05-03T07:40:22.989Z</time></trkpt><trkpt lat="42.3648065" lon="13.5010089"><ele>914.4</ele><time>2026-05-03T07:40:25.989Z</time></trkpt><trkpt lat="42.3648462" lon="13.5011435"><ele>915.8</ele><time>2026-05-03T07:40:28.272Z</time></trkpt><trkpt lat="42.3648734" lon="13.5012314"><ele>917.2</ele><time>2026-05-03T07:40:29.988Z</time></trkpt><trkpt lat="42.3648968" lon="13.5013448"><ele>918.6</ele><time>2026-05-03T07:40:31.987Z</time></trkpt><trkpt lat="42.3649236" lon="13.5014746"><ele>920.0</ele><time>2026-05-03T07:40:33.988Z</time></trkpt><trkpt lat="42.3649519" lon="13.5016158"><ele>921.4</ele><time>2026-05-03T07:40:35.987Z</time></trkpt><trkpt lat="42.3649905" lon="13.5017678"><ele>922.8</ele><time>2026-05-03T07:40:37.987Z</time></trkpt><trkpt lat="42.3650315" lon="13.5019192"><ele>924.2</ele><time>2026-05-03T07:40:39.988Z</time></trkpt><trkpt lat="42.3650814" lon="13.5020614"><ele>925.6</ele><time>2026-05-03T07:40:41.987Z</time></trkpt><trkpt lat="42.3651036" lon="13.5021432"><ele>927.0</ele><time>2026-05-03T07:40:42.988Z</time></trkpt><trkpt lat="42.3651351" lon="13.5022853"><ele>928.2</ele><time>2026-05-03T07:40:44.988Z</time></trkpt><trkpt lat="42.3651587" lon="13.5024251"><ele>929.4000000000001</ele><time>2026-05-03T07:40:46.988Z</time></trkpt><trkpt lat="42.3651756" lon="13.5025524"><ele>930.5999999999999</ele><time>2026-05-03T07:40:48.987Z</time></trkpt><trkpt lat="42.3652077" lon="13.5026805"><ele>931.8</ele><time>2026-05-03T07:40:50.988Z</time></trkpt><trkpt lat="42.3652514" lon="13.5028055"><ele>933.0</ele><time>2026-05-03T07:40:52.988Z</time></trkpt><trkpt lat="42.3652937" lon="13.5029449"><ele>934.3333333333334</ele><time>2026-05-03T07:40:54.988Z</time></trkpt><trkpt lat="42.3653558" lon="13.5030775"><ele>935.6666666666667</ele><time>2026-05-03T07:40:56.987Z</time></trkpt><trkpt lat="42.365396" lon="13.5031549"><ele>937.0</ele><time>2026-05-03T07:40:57.988Z</time></trkpt><trkpt lat="42.365441" lon="13.5032376"><ele>938.3333333333334</ele><time>2026-05-03T07:40:58.988Z</time></trkpt><trkpt lat="42.3654833" lon="13.5033254"><ele>939.6666666666667</ele><time>2026-05-03T07:40:59.987Z</time></trkpt><trkpt lat="42.3655263" lon="13.5034086"><ele>941.0</ele><time>2026-05-03T07:41:00.988Z</time></trkpt><trkpt lat="42.3655686" lon="13.5034871"><ele>940.9999999999999</ele><time>2026-05-03T07:41:01.988Z</time></trkpt><trkpt lat="42.3656082" lon="13.5035639"><ele>941.0</ele><time>2026-05-03T07:41:02.987Z</time></trkpt><trkpt lat="42.3656444" lon="13.5036364"><ele>940.9999999999999</ele><time>2026-05-03T07:41:03.988Z</time></trkpt><trkpt lat="42.3656791" lon="13.5037104"><ele>940.9999999999999</ele><time>2026-05-03T07:41:04.988Z</time></trkpt><trkpt lat="42.3657075" lon="13.5037916"><ele>941.0</ele><time>2026-05-03T07:41:05.987Z</time></trkpt><trkpt lat="42.3657303" lon="13.5038743"><ele>940.9999999999999</ele><time>2026-05-03T07:41:06.987Z</time></trkpt><trkpt lat="42.3657524" lon="13.5039557"><ele>940.9999999999999</ele><time>2026-05-03T07:41:07.988Z</time></trkpt><trkpt lat="42.3657797" lon="13.5040381"><ele>941.6666666666667</ele><time>2026-05-03T07:41:08.988Z</time></trkpt><trkpt lat="42.3658026" lon="13.5041269"><ele>942.3333333333334</ele><time>2026-05-03T07:41:09.988Z</time></trkpt><trkpt lat="42.3658172" lon="13.5042131"><ele>943.0</ele><time>2026-05-03T07:41:10.988Z</time></trkpt><trkpt lat="42.3658341" lon="13.5043799"><ele>943.6666666666667</ele><time>2026-05-03T07:41:12.987Z</time></trkpt><trkpt lat="42.3658307" lon="13.5044691"><ele>944.3333333333334</ele><time>2026-05-03T07:41:13.987Z</time></trkpt><trkpt lat="42.3658229" lon="13.5045575"><ele>945.0</ele><time>2026-05-03T07:41:14.988Z</time></trkpt><trkpt lat="42.3658142" lon="13.5046445"><ele>945.1428571428571</ele><time>2026-05-03T07:41:15.988Z</time></trkpt><trkpt lat="42.3658055" lon="13.5047398"><ele>945.2857142857142</ele><time>2026-05-03T07:41:16.988Z</time></trkpt><trkpt lat="42.3658052" lon="13.5048343"><ele>945.4285714285714</ele><time>2026-05-03T07:41:17.988Z</time></trkpt><trkpt lat="42.3658165" lon="13.5049239"><ele>945.5714285714286</ele><time>2026-05-03T07:41:18.988Z</time></trkpt><trkpt lat="42.3658325" lon="13.5050194"><ele>945.7142857142857</ele><time>2026-05-03T07:41:19.988Z</time></trkpt><trkpt lat="42.3658523" lon="13.5051189"><ele>945.8571428571429</ele><time>2026-05-03T07:41:20.988Z</time></trkpt><trkpt lat="42.3658738" lon="13.5052148"><ele>946.0</ele><time>2026-05-03T07:41:21.988Z</time></trkpt><trkpt lat="42.3658952" lon="13.5053121"><ele>946.1428571428571</ele><time>2026-05-03T07:41:22.988Z</time></trkpt><trkpt lat="42.3659153" lon="13.5054131"><ele>946.2857142857142</ele><time>2026-05-03T07:41:23.988Z</time></trkpt><trkpt lat="42.3659351" lon="13.5055128"><ele>946.4285714285713</ele><time>2026-05-03T07:41:24.988Z</time></trkpt><trkpt lat="42.3659488" lon="13.5056168"><ele>946.5714285714286</ele><time>2026-05-03T07:41:25.987Z</time></trkpt><trkpt lat="42.3659602" lon="13.5057217"><ele>946.7142857142856</ele><time>2026-05-03T07:41:26.988Z</time></trkpt><trkpt lat="42.365975" lon="13.5058181"><ele>946.8571428571428</ele><time>2026-05-03T07:41:27.987Z</time></trkpt><trkpt lat="42.3659892" lon="13.505906"><ele>947.0</ele><time>2026-05-03T07:41:28.988Z</time></trkpt><trkpt lat="42.3660081" lon="13.5060745"><ele>947.0000000000001</ele><time>2026-05-03T07:41:30.988Z</time></trkpt><trkpt lat="42.3660155" lon="13.5061657"><ele>947.0</ele><time>2026-05-03T07:41:31.988Z</time></trkpt><trkpt lat="42.3660224" lon="13.506262"><ele>947.0</ele><time>2026-05-03T07:41:32.988Z</time></trkpt><trkpt lat="42.3660339" lon="13.506352"><ele>947.0</ele><time>2026-05-03T07:41:33.988Z</time></trkpt><trkpt lat="42.3660736" lon="13.5064937"><ele>947.0000000000001</ele><time>2026-05-03T07:41:35.988Z</time></trkpt><trkpt lat="42.3661344" lon="13.5065861"><ele>947.0</ele><time>2026-05-03T07:41:37.988Z</time></trkpt><trkpt lat="42.3661728" lon="13.5066743"><ele>947.4000000000001</ele><time>2026-05-03T07:41:40.988Z</time></trkpt><trkpt lat="42.3662285" lon="13.5068002"><ele>947.8000000000001</ele><time>2026-05-03T07:41:43.988Z</time></trkpt><trkpt lat="42.3663203" lon="13.5069338"><ele>948.2</ele><time>2026-05-03T07:41:45.988Z</time></trkpt><trkpt lat="42.366378" lon="13.5070008"><ele>948.6</ele><time>2026-05-03T07:41:46.987Z</time></trkpt><trkpt lat="42.3664616" lon="13.5071185"><ele>949.0</ele><time>2026-05-03T07:41:48.988Z</time></trkpt><trkpt lat="42.3665071" lon="13.5071912"><ele>950.5714285714287</ele><time>2026-05-03T07:41:49.988Z</time></trkpt><trkpt lat="42.366553" lon="13.5072515"><ele>952.1428571428571</ele><time>2026-05-03T07:41:50.988Z</time></trkpt><trkpt lat="42.3665957" lon="13.5073202"><ele>953.7142857142858</ele><time>2026-05-03T07:41:51.988Z</time></trkpt><trkpt lat="42.3666525" lon="13.5074327"><ele>955.2857142857143</ele><time>2026-05-03T07:41:53.988Z</time></trkpt><trkpt lat="42.3667056" lon="13.5074992"><ele>956.8571428571429</ele><time>2026-05-03T07:42:12.987Z</time></trkpt><trkpt lat="42.3667461" lon="13.507571"><ele>958.4285714285714</ele><time>2026-05-03T07:42:16.988Z</time></trkpt><trkpt lat="42.3667057" lon="13.5076408"><ele>960.0</ele><time>2026-05-03T07:42:20.988Z</time></trkpt><trkpt lat="42.3666036" lon="13.5077102"><ele>960.0</ele><time>2026-05-03T07:42:22.988Z</time></trkpt><trkpt lat="42.3665394" lon="13.5077548"><ele>960.0</ele><time>2026-05-03T07:42:23.988Z</time></trkpt><trkpt lat="42.3664712" lon="13.5077958"><ele>960.0</ele><time>2026-05-03T07:42:24.988Z</time></trkpt><trkpt lat="42.3664089" lon="13.507836"><ele>960.0</ele><time>2026-05-03T07:42:25.987Z</time></trkpt><trkpt lat="42.3663547" lon="13.5078829"><ele>960.0</ele><time>2026-05-03T07:42:26.987Z</time></trkpt><trkpt lat="42.3662999" lon="13.507934"><ele>960.0</ele><time>2026-05-03T07:42:27.987Z</time></trkpt><trkpt lat="42.3662406" lon="13.5079683"><ele>960.0</ele><time>2026-05-03T07:42:28.988Z</time></trkpt><trkpt lat="42.3661329" lon="13.5080549"><ele>959.0</ele><time>2026-05-03T07:42:30.988Z</time></trkpt><trkpt lat="42.3660823" lon="13.5081143"><ele>958.0</ele><time>2026-05-03T07:42:31.988Z</time></trkpt><trkpt lat="42.3660368" lon="13.5081824"><ele>957.0</ele><time>2026-05-03T07:42:32.988Z</time></trkpt><trkpt lat="42.3659961" lon="13.5082592"><ele>956.0</ele><time>2026-05-03T07:42:33.988Z</time></trkpt><trkpt lat="42.3659565" lon="13.5083438"><ele>955.0</ele><time>2026-05-03T07:42:34.988Z</time></trkpt><trkpt lat="42.3659199" lon="13.508424"><ele>954.0</ele><time>2026-05-03T07:42:35.987Z</time></trkpt><trkpt lat="42.3658796" lon="13.508494"><ele>953.0</ele><time>2026-05-03T07:42:36.988Z</time></trkpt><trkpt lat="42.3658035" lon="13.508586"><ele>953.0</ele><time>2026-05-03T07:42:38.988Z</time></trkpt><trkpt lat="42.365773" lon="13.5086857"><ele>953.0</ele><time>2026-05-03T07:42:40.988Z</time></trkpt><trkpt lat="42.3657528" lon="13.5088451"><ele>953.0</ele><time>2026-05-03T07:42:42.988Z</time></trkpt><trkpt lat="42.365727" lon="13.508942"><ele>953.0</ele><time>2026-05-03T07:42:43.987Z</time></trkpt><trkpt lat="42.3656942" lon="13.5090193"><ele>953.0</ele><time>2026-05-03T07:42:44.987Z</time></trkpt><trkpt lat="42.3656293" lon="13.509154"><ele>953.8</ele><time>2026-05-03T07:42:46.987Z</time></trkpt><trkpt lat="42.3655967" lon="13.5093051"><ele>954.5999999999999</ele><time>2026-05-03T07:42:48.987Z</time></trkpt><trkpt lat="42.3655963" lon="13.5094542"><ele>955.4000000000001</ele><time>2026-05-03T07:42:50.988Z</time></trkpt><trkpt lat="42.3656129" lon="13.5095773"><ele>956.2</ele><time>2026-05-03T07:42:52.988Z</time></trkpt><trkpt lat="42.3656674" lon="13.5096889"><ele>957.0</ele><time>2026-05-03T07:42:54.987Z</time></trkpt><trkpt lat="42.3657585" lon="13.5097785"><ele>957.0</ele><time>2026-05-03T07:42:56.988Z</time></trkpt><trkpt lat="42.3658339" lon="13.5098484"><ele>957.0</ele><time>2026-05-03T07:42:58.988Z</time></trkpt><trkpt lat="42.3659304" lon="13.5099047"><ele>957.0</ele><time>2026-05-03T07:43:00.987Z</time></trkpt><trkpt lat="42.3660233" lon="13.5099245"><ele>957.0</ele><time>2026-05-03T07:43:02.988Z</time></trkpt><trkpt lat="42.3660824" lon="13.5100096"><ele>957.0</ele><time>2026-05-03T07:43:04.988Z</time></trkpt><trkpt lat="42.3660589" lon="13.5101469"><ele>957.0</ele><time>2026-05-03T07:43:06.988Z</time></trkpt><trkpt lat="42.3660258" lon="13.5102446"><ele>957.0</ele><time>2026-05-03T07:43:07.987Z</time></trkpt><trkpt lat="42.365998" lon="13.5103575"><ele>957.0</ele><time>2026-05-03T07:43:08.988Z</time></trkpt><trkpt lat="42.3659659" lon="13.5104559"><ele>957.0</ele><time>2026-05-03T07:43:09.988Z</time></trkpt><trkpt lat="42.3659176" lon="13.5105427"><ele>957.0</ele><time>2026-05-03T07:43:10.987Z</time></trkpt><trkpt lat="42.3658515" lon="13.510609"><ele>957.0</ele><time>2026-05-03T07:43:11.988Z</time></trkpt><trkpt lat="42.3657911" lon="13.510651"><ele>956.8333333333334</ele><time>2026-05-03T07:43:12.988Z</time></trkpt><trkpt lat="42.3657091" lon="13.5107596"><ele>956.6666666666667</ele><time>2026-05-03T07:43:14.987Z</time></trkpt><trkpt lat="42.3656666" lon="13.5108384"><ele>956.5</ele><time>2026-05-03T07:43:15.988Z</time></trkpt><trkpt lat="42.3656266" lon="13.5109318"><ele>956.3333333333334</ele><time>2026-05-03T07:43:16.987Z</time></trkpt><trkpt lat="42.3655904" lon="13.511024"><ele>956.1666666666667</ele><time>2026-05-03T07:43:17.988Z</time></trkpt><trkpt lat="42.3655716" lon="13.5111175"><ele>956.0</ele><time>2026-05-03T07:43:18.988Z</time></trkpt><trkpt lat="42.3655669" lon="13.5112097"><ele>955.7142857142858</ele><time>2026-05-03T07:43:19.988Z</time></trkpt><trkpt lat="42.3655598" lon="13.5112953"><ele>955.4285714285714</ele><time>2026-05-03T07:43:20.988Z</time></trkpt><trkpt lat="42.3655448" lon="13.5113799"><ele>955.1428571428571</ele><time>2026-05-03T07:43:21.987Z</time></trkpt><trkpt lat="42.3655198" lon="13.5114663"><ele>954.8571428571429</ele><time>2026-05-03T07:43:22.988Z</time></trkpt><trkpt lat="42.36549" lon="13.5115509"><ele>954.5714285714284</ele><time>2026-05-03T07:43:23.987Z</time></trkpt><trkpt lat="42.3654616" lon="13.5116341"><ele>954.2857142857142</ele><time>2026-05-03T07:43:24.987Z</time></trkpt><trkpt lat="42.3654382" lon="13.5117159"><ele>954.0</ele><time>2026-05-03T07:43:25.988Z</time></trkpt><trkpt lat="42.3654135" lon="13.5117986"><ele>954.0</ele><time>2026-05-03T07:43:26.987Z</time></trkpt><trkpt lat="42.3653909" lon="13.5118833"><ele>954.0</ele><time>2026-05-03T07:43:27.987Z</time></trkpt><trkpt lat="42.3653757" lon="13.5119682"><ele>954.0</ele><time>2026-05-03T07:43:28.987Z</time></trkpt><trkpt lat="42.3653637" lon="13.5121086"><ele>954.0</ele><time>2026-05-03T07:43:30.988Z</time></trkpt><trkpt lat="42.3653624" lon="13.5122248"><ele>954.0</ele><time>2026-05-03T07:43:32.988Z</time></trkpt><trkpt lat="42.3653697" lon="13.5123344"><ele>954.0</ele><time>2026-05-03T07:43:34.987Z</time></trkpt><trkpt lat="42.3654111" lon="13.5124779"><ele>954.5</ele><time>2026-05-03T07:43:36.987Z</time></trkpt><trkpt lat="42.3654427" lon="13.5125679"><ele>955.0</ele><time>2026-05-03T07:43:37.987Z</time></trkpt><trkpt lat="42.3654714" lon="13.5126618"><ele>955.5</ele><time>2026-05-03T07:43:38.987Z</time></trkpt><trkpt lat="42.3654888" lon="13.5127619"><ele>956.0</ele><time>2026-05-03T07:43:39.988Z</time></trkpt><trkpt lat="42.3655019" lon="13.5128704"><ele>956.5</ele><time>2026-05-03T07:43:40.987Z</time></trkpt><trkpt lat="42.3655148" lon="13.5129748"><ele>957.0</ele><time>2026-05-03T07:43:41.988Z</time></trkpt><trkpt lat="42.3655248" lon="13.5130627"><ele>957.0</ele><time>2026-05-03T07:43:42.988Z</time></trkpt><trkpt lat="42.3655319" lon="13.5131794"><ele>957.0</ele><time>2026-05-03T07:43:44.987Z</time></trkpt><trkpt lat="42.3654545" lon="13.5132167"><ele>957.0</ele><time>2026-05-03T07:43:47.988Z</time></trkpt><trkpt lat="42.365377" lon="13.5131582"><ele>957.0</ele><time>2026-05-03T07:43:49.988Z</time></trkpt><trkpt lat="42.3653024" lon="13.5130361"><ele>957.0</ele><time>2026-05-03T07:43:51.988Z</time></trkpt><trkpt lat="42.3652656" lon="13.5129668"><ele>957.0</ele><time>2026-05-03T07:43:52.988Z</time></trkpt><trkpt lat="42.3652266" lon="13.5128946"><ele>957.0</ele><time>2026-05-03T07:43:53.988Z</time></trkpt><trkpt lat="42.3651826" lon="13.5128215"><ele>957.0</ele><time>2026-05-03T07:43:54.988Z</time></trkpt><trkpt lat="42.3651337" lon="13.5127501"><ele>957.0</ele><time>2026-05-03T07:43:55.987Z</time></trkpt><trkpt lat="42.3650808" lon="13.5126792"><ele>957.0</ele><time>2026-05-03T07:43:56.987Z</time></trkpt><trkpt lat="42.3650286" lon="13.5126037"><ele>957.0</ele><time>2026-05-03T07:43:57.987Z</time></trkpt><trkpt lat="42.3649795" lon="13.5125196"><ele>957.0</ele><time>2026-05-03T07:43:58.988Z</time></trkpt><trkpt lat="42.3649314" lon="13.5124325"><ele>957.0</ele><time>2026-05-03T07:43:59.987Z</time></trkpt><trkpt lat="42.3648827" lon="13.5123481"><ele>957.0</ele><time>2026-05-03T07:44:00.987Z</time></trkpt><trkpt lat="42.3648287" lon="13.5122656"><ele>957.0</ele><time>2026-05-03T07:44:01.987Z</time></trkpt><trkpt lat="42.364774" lon="13.5121817"><ele>957.0</ele><time>2026-05-03T07:44:02.988Z</time></trkpt><trkpt lat="42.3647186" lon="13.5121041"><ele>957.0</ele><time>2026-05-03T07:44:03.988Z</time></trkpt><trkpt lat="42.364655" lon="13.5120407"><ele>957.0</ele><time>2026-05-03T07:44:04.987Z</time></trkpt><trkpt lat="42.3645871" lon="13.511983"><ele>955.1666666666666</ele><time>2026-05-03T07:44:05.988Z</time></trkpt><trkpt lat="42.3645229" lon="13.5119206"><ele>953.3333333333333</ele><time>2026-05-03T07:44:06.988Z</time></trkpt><trkpt lat="42.3644626" lon="13.5118541"><ele>951.5</ele><time>2026-05-03T07:44:07.987Z</time></trkpt><trkpt lat="42.3644157" lon="13.5117958"><ele>949.6666666666666</ele><time>2026-05-03T07:44:08.987Z</time></trkpt><trkpt lat="42.3643443" lon="13.511711"><ele>947.8333333333333</ele><time>2026-05-03T07:44:10.987Z</time></trkpt><trkpt lat="42.3642583" lon="13.5116099"><ele>946.0</ele><time>2026-05-03T07:44:12.987Z</time></trkpt><trkpt lat="42.3641806" lon="13.5115072"><ele>946.0</ele><time>2026-05-03T07:44:14.988Z</time></trkpt><trkpt lat="42.3640649" lon="13.5114475"><ele>945.9999999999999</ele><time>2026-05-03T07:44:16.988Z</time></trkpt><trkpt lat="42.3639567" lon="13.5113986"><ele>945.9999999999999</ele><time>2026-05-03T07:44:18.987Z</time></trkpt><trkpt lat="42.363844" lon="13.511362"><ele>946.0</ele><time>2026-05-03T07:44:20.988Z</time></trkpt><trkpt lat="42.3637824" lon="13.5113441"><ele>946.0</ele><time>2026-05-03T07:44:21.988Z</time></trkpt><trkpt lat="42.3637194" lon="13.5113268"><ele>946.1999999999999</ele><time>2026-05-03T07:44:22.987Z</time></trkpt><trkpt lat="42.3636073" lon="13.5112906"><ele>946.3999999999999</ele><time>2026-05-03T07:44:24.988Z</time></trkpt><trkpt lat="42.3635124" lon="13.5112605"><ele>946.6</ele><time>2026-05-03T07:44:26.988Z</time></trkpt><trkpt lat="42.3634136" lon="13.5112401"><ele>946.8</ele><time>2026-05-03T07:44:28.988Z</time></trkpt><trkpt lat="42.3633041" lon="13.5112193"><ele>947.0</ele><time>2026-05-03T07:44:30.988Z</time></trkpt><trkpt lat="42.3632103" lon="13.51118"><ele>945.8</ele><time>2026-05-03T07:44:32.988Z</time></trkpt><trkpt lat="42.3631323" lon="13.5110772"><ele>944.6</ele><time>2026-05-03T07:44:34.988Z</time></trkpt><trkpt lat="42.3630499" lon="13.5109648"><ele>943.3999999999999</ele><time>2026-05-03T07:44:36.988Z</time></trkpt><trkpt lat="42.3629481" lon="13.510875"><ele>942.1999999999999</ele><time>2026-05-03T07:44:38.987Z</time></trkpt><trkpt lat="42.3629021" lon="13.510813"><ele>941.0</ele><time>2026-05-03T07:44:39.988Z</time></trkpt><trkpt lat="42.3628594" lon="13.5107433"><ele>939.5000000000001</ele><time>2026-05-03T07:44:40.988Z</time></trkpt><trkpt lat="42.362811" lon="13.510676"><ele>938.0</ele><time>2026-05-03T07:44:41.988Z</time></trkpt><trkpt lat="42.3627591" lon="13.5106137"><ele>936.5</ele><time>2026-05-03T07:44:42.988Z</time></trkpt><trkpt lat="42.3627051" lon="13.510559"><ele>935.0</ele><time>2026-05-03T07:44:43.987Z</time></trkpt><trkpt lat="42.362601" lon="13.5104915"><ele>933.5000000000001</ele><time>2026-05-03T07:44:45.988Z</time></trkpt><trkpt lat="42.3624766" lon="13.5104994"><ele>932.0</ele><time>2026-05-03T07:44:47.987Z</time></trkpt><trkpt lat="42.36241" lon="13.5105084"><ele>932.0000000000001</ele><time>2026-05-03T07:44:48.987Z</time></trkpt><trkpt lat="42.3623453" lon="13.5105146"><ele>932.0</ele><time>2026-05-03T07:44:49.988Z</time></trkpt><trkpt lat="42.3622242" lon="13.510552"><ele>932.0</ele><time>2026-05-03T07:44:51.987Z</time></trkpt><trkpt lat="42.3621584" lon="13.5105832"><ele>932.0</ele><time>2026-05-03T07:44:52.987Z</time></trkpt><trkpt lat="42.362096" lon="13.5106096"><ele>932.0000000000001</ele><time>2026-05-03T07:44:53.988Z</time></trkpt><trkpt lat="42.3619931" lon="13.5106091"><ele>932.0</ele><time>2026-05-03T07:44:55.988Z</time></trkpt><trkpt lat="42.3618701" lon="13.5106174"><ele>930.6666666666667</ele><time>2026-05-03T07:44:57.987Z</time></trkpt><trkpt lat="42.3617515" lon="13.5106768"><ele>929.3333333333334</ele><time>2026-05-03T07:44:59.988Z</time></trkpt><trkpt lat="42.3616868" lon="13.5106997"><ele>928.0</ele><time>2026-05-03T07:45:00.988Z</time></trkpt><trkpt lat="42.3616221" lon="13.5107066"><ele>926.6666666666667</ele><time>2026-05-03T07:45:01.987Z</time></trkpt><trkpt lat="42.3615525" lon="13.5107018"><ele>925.3333333333334</ele><time>2026-05-03T07:45:02.987Z</time></trkpt><trkpt lat="42.3614836" lon="13.5106943"><ele>924.0</ele><time>2026-05-03T07:45:03.987Z</time></trkpt><trkpt lat="42.3613823" lon="13.5106907"><ele>923.1666666666666</ele><time>2026-05-03T07:45:05.988Z</time></trkpt><trkpt lat="42.3612839" lon="13.5106518"><ele>922.3333333333333</ele><time>2026-05-03T07:45:07.988Z</time></trkpt><trkpt lat="42.3612216" lon="13.5106188"><ele>921.5</ele><time>2026-05-03T07:45:08.987Z</time></trkpt><trkpt lat="42.3611546" lon="13.5105859"><ele>920.6666666666666</ele><time>2026-05-03T07:45:09.988Z</time></trkpt><trkpt lat="42.3610868" lon="13.5105624"><ele>919.8333333333333</ele><time>2026-05-03T07:45:10.987Z</time></trkpt><trkpt lat="42.3610157" lon="13.5105524"><ele>919.0</ele><time>2026-05-03T07:45:11.987Z</time></trkpt><trkpt lat="42.3609447" lon="13.5105428"><ele>918.9999999999999</ele><time>2026-05-03T07:45:12.987Z</time></trkpt><trkpt lat="42.3608813" lon="13.5105214"><ele>919.0</ele><time>2026-05-03T07:45:13.987Z</time></trkpt><trkpt lat="42.3607828" lon="13.5104703"><ele>919.0</ele><time>2026-05-03T07:45:15.987Z</time></trkpt><trkpt lat="42.3607181" lon="13.5104385"><ele>919.0</ele><time>2026-05-03T07:45:17.988Z</time></trkpt><trkpt lat="42.3606592" lon="13.5103821"><ele>918.9999999999999</ele><time>2026-05-03T07:45:19.988Z</time></trkpt><trkpt lat="42.360587" lon="13.5103165"><ele>919.0</ele><time>2026-05-03T07:45:21.987Z</time></trkpt><trkpt lat="42.3605289" lon="13.5102706"><ele>916.8333333333333</ele><time>2026-05-03T07:45:23.987Z</time></trkpt><trkpt lat="42.3604724" lon="13.51023"><ele>914.6666666666666</ele><time>2026-05-03T07:45:25.988Z</time></trkpt><trkpt lat="42.3604035" lon="13.5101667"><ele>912.5</ele><time>2026-05-03T07:45:28.988Z</time></trkpt><trkpt lat="42.3603487" lon="13.5101068"><ele>910.3333333333333</ele><time>2026-05-03T07:45:31.988Z</time></trkpt><trkpt lat="42.3602939" lon="13.5100402"><ele>908.1666666666666</ele><time>2026-05-03T07:45:34.988Z</time></trkpt><trkpt lat="42.3602374" lon="13.5099694"><ele>906.0</ele><time>2026-05-03T07:45:36.988Z</time></trkpt><trkpt lat="42.3601755" lon="13.5098952"><ele>906.0</ele><time>2026-05-03T07:45:38.988Z</time></trkpt><trkpt lat="42.3601246" lon="13.5098312"><ele>906.0</ele><time>2026-05-03T07:45:40.988Z</time></trkpt><trkpt lat="42.3600717" lon="13.5097738"><ele>906.0</ele><time>2026-05-03T07:45:42.988Z</time></trkpt><trkpt lat="42.3600082" lon="13.5097096"><ele>906.0</ele><time>2026-05-03T07:45:44.988Z</time></trkpt><trkpt lat="42.3599597" lon="13.5096232"><ele>906.0</ele><time>2026-05-03T07:45:46.988Z</time></trkpt><trkpt lat="42.3599325" lon="13.5095165"><ele>906.0</ele><time>2026-05-03T07:45:48.988Z</time></trkpt><trkpt lat="42.3599099" lon="13.5093882"><ele>905.8</ele><time>2026-05-03T07:45:50.987Z</time></trkpt><trkpt lat="42.3598733" lon="13.5092406"><ele>905.5999999999999</ele><time>2026-05-03T07:45:52.988Z</time></trkpt><trkpt lat="42.3598384" lon="13.5091534"><ele>905.4</ele><time>2026-05-03T07:45:53.988Z</time></trkpt><trkpt lat="42.3598121" lon="13.5090487"><ele>905.2</ele><time>2026-05-03T07:45:54.987Z</time></trkpt><trkpt lat="42.3597965" lon="13.508926"><ele>905.0</ele><time>2026-05-03T07:45:55.988Z</time></trkpt><trkpt lat="42.359777" lon="13.5087963"><ele>905.2</ele><time>2026-05-03T07:45:56.988Z</time></trkpt><trkpt lat="42.3597438" lon="13.5086667"><ele>905.4</ele><time>2026-05-03T07:45:57.987Z</time></trkpt><trkpt lat="42.3597165" lon="13.5085391"><ele>905.5999999999999</ele><time>2026-05-03T07:45:58.988Z</time></trkpt><trkpt lat="42.3596985" lon="13.5084204"><ele>905.8</ele><time>2026-05-03T07:45:59.988Z</time></trkpt><trkpt lat="42.3596788" lon="13.5083037"><ele>906.0</ele><time>2026-05-03T07:46:00.987Z</time></trkpt><trkpt lat="42.359659" lon="13.508175"><ele>903.5999999999999</ele><time>2026-05-03T07:46:01.988Z</time></trkpt><trkpt lat="42.3596408" lon="13.5080373"><ele>901.1999999999999</ele><time>2026-05-03T07:46:02.988Z</time></trkpt><trkpt lat="42.3596153" lon="13.5079107"><ele>898.8000000000001</ele><time>2026-05-03T07:46:03.987Z</time></trkpt><trkpt lat="42.3595933" lon="13.5077909"><ele>896.4000000000001</ele><time>2026-05-03T07:46:04.988Z</time></trkpt><trkpt lat="42.3595752" lon="13.507674"><ele>894.0</ele><time>2026-05-03T07:46:05.987Z</time></trkpt><trkpt lat="42.3595745" lon="13.5075615"><ele>892.8333333333334</ele><time>2026-05-03T07:46:06.988Z</time></trkpt><trkpt lat="42.3595806" lon="13.5074473"><ele>891.6666666666667</ele><time>2026-05-03T07:46:07.988Z</time></trkpt><trkpt lat="42.3595792" lon="13.5073372"><ele>890.5</ele><time>2026-05-03T07:46:08.987Z</time></trkpt><trkpt lat="42.3595591" lon="13.5072357"><ele>889.3333333333334</ele><time>2026-05-03T07:46:09.988Z</time></trkpt><trkpt lat="42.3595284" lon="13.5071479"><ele>888.1666666666667</ele><time>2026-05-03T07:46:10.987Z</time></trkpt><trkpt lat="42.3594918" lon="13.5070309"><ele>887.0</ele><time>2026-05-03T07:46:12.987Z</time></trkpt><trkpt lat="42.3595004" lon="13.5068789"><ele>886.0000000000001</ele><time>2026-05-03T07:46:14.988Z</time></trkpt><trkpt lat="42.3594935" lon="13.5067273"><ele>885.0</ele><time>2026-05-03T07:46:16.987Z</time></trkpt><trkpt lat="42.3594498" lon="13.5065997"><ele>884.0</ele><time>2026-05-03T07:46:18.987Z</time></trkpt><trkpt lat="42.3594262" lon="13.5065167"><ele>883.0</ele><time>2026-05-03T07:46:19.987Z</time></trkpt><trkpt lat="42.3594023" lon="13.5064356"><ele>882.0000000000001</ele><time>2026-05-03T07:46:20.987Z</time></trkpt><trkpt lat="42.3593826" lon="13.5063241"><ele>881.0</ele><time>2026-05-03T07:46:22.988Z</time></trkpt><trkpt lat="42.3593058" lon="13.5062851"><ele>881.0</ele><time>2026-05-03T07:46:26.988Z</time></trkpt><trkpt lat="42.3591963" lon="13.5063361"><ele>880.9999999999999</ele><time>2026-05-03T07:46:28.987Z</time></trkpt><trkpt lat="42.3591227" lon="13.5063453"><ele>880.9999999999999</ele><time>2026-05-03T07:46:29.987Z</time></trkpt><trkpt lat="42.359043" lon="13.5063093"><ele>881.0</ele><time>2026-05-03T07:46:30.988Z</time></trkpt><trkpt lat="42.3589581" lon="13.5062394"><ele>881.0</ele><time>2026-05-03T07:46:31.988Z</time></trkpt><trkpt lat="42.3588824" lon="13.5061554"><ele>882.6666666666667</ele><time>2026-05-03T07:46:32.987Z</time></trkpt><trkpt lat="42.3588155" lon="13.506067"><ele>884.3333333333334</ele><time>2026-05-03T07:46:33.987Z</time></trkpt><trkpt lat="42.3587657" lon="13.5059754"><ele>886.0</ele><time>2026-05-03T07:46:34.987Z</time></trkpt><trkpt lat="42.3587239" lon="13.5058858"><ele>887.6666666666667</ele><time>2026-05-03T07:46:35.987Z</time></trkpt><trkpt lat="42.3586734" lon="13.5057996"><ele>889.3333333333334</ele><time>2026-05-03T07:46:36.987Z</time></trkpt><trkpt lat="42.358621" lon="13.5057039"><ele>891.0</ele><time>2026-05-03T07:46:37.988Z</time></trkpt><trkpt lat="42.3585723" lon="13.505589"><ele>891.0</ele><time>2026-05-03T07:46:38.987Z</time></trkpt><trkpt lat="42.3585152" lon="13.5054716"><ele>890.9999999999999</ele><time>2026-05-03T07:46:39.987Z</time></trkpt><trkpt lat="42.3584487" lon="13.5053553"><ele>890.9999999999999</ele><time>2026-05-03T07:46:40.988Z</time></trkpt><trkpt lat="42.3583822" lon="13.5052406"><ele>891.0</ele><time>2026-05-03T07:46:41.987Z</time></trkpt><trkpt lat="42.3583142" lon="13.5051284"><ele>891.0</ele><time>2026-05-03T07:46:42.988Z</time></trkpt><trkpt lat="42.3582344" lon="13.5050243"><ele>892.5999999999999</ele><time>2026-05-03T07:46:43.988Z</time></trkpt><trkpt lat="42.3581449" lon="13.504932"><ele>894.1999999999999</ele><time>2026-05-03T07:46:44.987Z</time></trkpt><trkpt lat="42.3580505" lon="13.5048461"><ele>895.8000000000001</ele><time>2026-05-03T07:46:45.988Z</time></trkpt><trkpt lat="42.3579552" lon="13.5047673"><ele>897.4000000000001</ele><time>2026-05-03T07:46:46.988Z</time></trkpt><trkpt lat="42.3578621" lon="13.5046969"><ele>899.0</ele><time>2026-05-03T07:46:47.987Z</time></trkpt><trkpt lat="42.3577646" lon="13.5046314"><ele>893.25</ele><time>2026-05-03T07:46:48.988Z</time></trkpt><trkpt lat="42.3576627" lon="13.5045705"><ele>887.5</ele><time>2026-05-03T07:46:49.987Z</time></trkpt><trkpt lat="42.3575538" lon="13.5045205"><ele>881.75</ele><time>2026-05-03T07:46:50.987Z</time></trkpt><trkpt lat="42.3574352" lon="13.5044866"><ele>876.0</ele><time>2026-05-03T07:46:51.988Z</time></trkpt><trkpt lat="42.3573099" lon="13.5044707"><ele>877.0</ele><time>2026-05-03T07:46:52.987Z</time></trkpt><trkpt lat="42.357179" lon="13.504471"><ele>878.0</ele><time>2026-05-03T07:46:53.988Z</time></trkpt><trkpt lat="42.3570472" lon="13.5044974"><ele>879.0</ele><time>2026-05-03T07:46:54.988Z</time></trkpt><trkpt lat="42.3569211" lon="13.5045503"><ele>880.0</ele><time>2026-05-03T07:46:55.988Z</time></trkpt><trkpt lat="42.3568085" lon="13.5046206"><ele>883.6</ele><time>2026-05-03T07:46:56.988Z</time></trkpt><trkpt lat="42.3567165" lon="13.5047037"><ele>887.2</ele><time>2026-05-03T07:46:57.988Z</time></trkpt><trkpt lat="42.356643" lon="13.5048022"><ele>890.8</ele><time>2026-05-03T07:46:58.987Z</time></trkpt><trkpt lat="42.3565821" lon="13.5049149"><ele>894.4</ele><time>2026-05-03T07:46:59.988Z</time></trkpt><trkpt lat="42.3565316" lon="13.5050407"><ele>898.0</ele><time>2026-05-03T07:47:00.987Z</time></trkpt><trkpt lat="42.3564956" lon="13.5051596"><ele>897.9999999999999</ele><time>2026-05-03T07:47:01.987Z</time></trkpt><trkpt lat="42.3564569" lon="13.5052864"><ele>898.0</ele><time>2026-05-03T07:47:03.988Z</time></trkpt><trkpt lat="42.356423" lon="13.5053762"><ele>898.0</ele><time>2026-05-03T07:47:35.987Z</time></trkpt><trkpt lat="42.3563982" lon="13.5054572"><ele>898.0</ele><time>2026-05-03T07:47:39.987Z</time></trkpt><trkpt lat="42.3564507" lon="13.505532"><ele>897.9999999999999</ele><time>2026-05-03T07:47:42.988Z</time></trkpt><trkpt lat="42.3565069" lon="13.5056316"><ele>898.0</ele><time>2026-05-03T07:47:44.988Z</time></trkpt><trkpt lat="42.3565897" lon="13.5057333"><ele>900.4</ele><time>2026-05-03T07:47:46.987Z</time></trkpt><trkpt lat="42.3566735" lon="13.5058259"><ele>902.8</ele><time>2026-05-03T07:47:48.988Z</time></trkpt><trkpt lat="42.3567481" lon="13.5059068"><ele>905.2</ele><time>2026-05-03T07:47:50.988Z</time></trkpt><trkpt lat="42.3568206" lon="13.505965"><ele>907.6</ele><time>2026-05-03T07:47:52.987Z</time></trkpt><trkpt lat="42.3568958" lon="13.5060393"><ele>910.0</ele><time>2026-05-03T07:47:54.988Z</time></trkpt><trkpt lat="42.3569584" lon="13.5061438"><ele>912.0</ele><time>2026-05-03T07:47:56.988Z</time></trkpt><trkpt lat="42.3570043" lon="13.5062593"><ele>914.0</ele><time>2026-05-03T07:47:58.987Z</time></trkpt><trkpt lat="42.3570114" lon="13.5063893"><ele>916.0</ele><time>2026-05-03T07:48:00.988Z</time></trkpt><trkpt lat="42.3570151" lon="13.5065497"><ele>918.0</ele><time>2026-05-03T07:48:02.988Z</time></trkpt><trkpt lat="42.356999" lon="13.5066882"><ele>920.0</ele><time>2026-05-03T07:48:04.987Z</time></trkpt><trkpt lat="42.3570177" lon="13.506775"><ele>920.0000000000001</ele><time>2026-05-03T07:48:07.988Z</time></trkpt><trkpt lat="42.3571192" lon="13.5068005"><ele>920.0</ele><time>2026-05-03T07:48:10.987Z</time></trkpt><trkpt lat="42.3571798" lon="13.5067695"><ele>920.0</ele><time>2026-05-03T07:48:11.988Z</time></trkpt><trkpt lat="42.3572536" lon="13.5067162"><ele>920.0</ele><time>2026-05-03T07:48:12.987Z</time></trkpt><trkpt lat="42.357318" lon="13.5066629"><ele>920.0000000000001</ele><time>2026-05-03T07:48:13.987Z</time></trkpt><trkpt lat="42.3574014" lon="13.5066193"><ele>920.0</ele><time>2026-05-03T07:48:15.988Z</time></trkpt><trkpt lat="42.3574628" lon="13.5066669"><ele>920.8333333333334</ele><time>2026-05-03T07:48:18.987Z</time></trkpt><trkpt lat="42.3574947" lon="13.5067605"><ele>921.6666666666667</ele><time>2026-05-03T07:48:20.987Z</time></trkpt><trkpt lat="42.3575177" lon="13.5068449"><ele>922.5</ele><time>2026-05-03T07:48:21.988Z</time></trkpt><trkpt lat="42.3575356" lon="13.5069513"><ele>923.3333333333333</ele><time>2026-05-03T07:48:22.988Z</time></trkpt><trkpt lat="42.3575418" lon="13.5070639"><ele>924.1666666666666</ele><time>2026-05-03T07:48:23.987Z</time></trkpt><trkpt lat="42.3575456" lon="13.5071829"><ele>925.0</ele><time>2026-05-03T07:48:24.988Z</time></trkpt><trkpt lat="42.3575547" lon="13.507304"><ele>925.8333333333333</ele><time>2026-05-03T07:48:25.987Z</time></trkpt><trkpt lat="42.3575614" lon="13.5074146"><ele>926.6666666666666</ele><time>2026-05-03T07:48:26.988Z</time></trkpt><trkpt lat="42.3575571" lon="13.5075175"><ele>927.5</ele><time>2026-05-03T07:48:27.987Z</time></trkpt><trkpt lat="42.3575383" lon="13.5076136"><ele>928.3333333333333</ele><time>2026-05-03T07:48:28.987Z</time></trkpt><trkpt lat="42.3575143" lon="13.5076991"><ele>929.1666666666666</ele><time>2026-05-03T07:48:29.987Z</time></trkpt><trkpt lat="42.3575085" lon="13.5078487"><ele>930.0</ele><time>2026-05-03T07:48:31.988Z</time></trkpt><trkpt lat="42.3575287" lon="13.5080181"><ele>931.3333333333334</ele><time>2026-05-03T07:48:33.988Z</time></trkpt><trkpt lat="42.3575393" lon="13.5081058"><ele>932.6666666666667</ele><time>2026-05-03T07:48:34.988Z</time></trkpt><trkpt lat="42.3575512" lon="13.508194"><ele>934.0</ele><time>2026-05-03T07:48:35.988Z</time></trkpt><trkpt lat="42.3575552" lon="13.5082807"><ele>935.3333333333334</ele><time>2026-05-03T07:48:36.988Z</time></trkpt><trkpt lat="42.3575489" lon="13.5084245"><ele>936.6666666666667</ele><time>2026-05-03T07:48:38.988Z</time></trkpt><trkpt lat="42.357533" lon="13.5085206"><ele>938.0</ele><time>2026-05-03T07:48:40.988Z</time></trkpt><trkpt lat="42.3575153" lon="13.5086372"><ele>941.0</ele><time>2026-05-03T07:48:42.988Z</time></trkpt><trkpt lat="42.3575002" lon="13.5087715"><ele>944.0</ele><time>2026-05-03T07:48:44.987Z</time></trkpt><trkpt lat="42.3574793" lon="13.5089213"><ele>947.0</ele><time>2026-05-03T07:48:46.988Z</time></trkpt><trkpt lat="42.3575035" lon="13.509038"><ele>950.0</ele><time>2026-05-03T07:48:55.988Z</time></trkpt><trkpt lat="42.3575787" lon="13.5091126"><ele>953.0</ele><time>2026-05-03T07:48:57.987Z</time></trkpt><trkpt lat="42.3576621" lon="13.5092293"><ele>953.0</ele><time>2026-05-03T07:48:59.987Z</time></trkpt><trkpt lat="42.3577063" lon="13.5093002"><ele>953.0</ele><time>2026-05-03T07:49:00.988Z</time></trkpt><trkpt lat="42.3577495" lon="13.5093763"><ele>953.0</ele><time>2026-05-03T07:49:01.987Z</time></trkpt><trkpt lat="42.3578044" lon="13.5094769"><ele>953.0</ele><time>2026-05-03T07:49:02.988Z</time></trkpt><trkpt lat="42.357861" lon="13.5096048"><ele>953.0</ele><time>2026-05-03T07:49:03.987Z</time></trkpt><trkpt lat="42.3579107" lon="13.5097493"><ele>955.2</ele><time>2026-05-03T07:49:04.987Z</time></trkpt><trkpt lat="42.3579451" lon="13.5099049"><ele>957.4</ele><time>2026-05-03T07:49:05.988Z</time></trkpt><trkpt lat="42.3579626" lon="13.5100562"><ele>959.6000000000001</ele><time>2026-05-03T07:49:06.988Z</time></trkpt><trkpt lat="42.3579646" lon="13.5102013"><ele>961.8000000000001</ele><time>2026-05-03T07:49:07.987Z</time></trkpt><trkpt lat="42.357956" lon="13.5103204"><ele>964.0</ele><time>2026-05-03T07:49:08.987Z</time></trkpt><trkpt lat="42.3579358" lon="13.5104275"><ele>964.4000000000001</ele><time>2026-05-03T07:49:09.988Z</time></trkpt><trkpt lat="42.3578933" lon="13.5105101"><ele>964.8000000000001</ele><time>2026-05-03T07:49:10.987Z</time></trkpt><trkpt lat="42.3577634" lon="13.510558"><ele>965.1999999999999</ele><time>2026-05-03T07:49:12.988Z</time></trkpt><trkpt lat="42.3576881" lon="13.5105651"><ele>965.5999999999999</ele><time>2026-05-03T07:49:13.988Z</time></trkpt><trkpt lat="42.3575764" lon="13.5105842"><ele>966.0</ele><time>2026-05-03T07:49:15.987Z</time></trkpt><trkpt lat="42.3575208" lon="13.5106664"><ele>966.0</ele><time>2026-05-03T07:49:18.987Z</time></trkpt><trkpt lat="42.3575729" lon="13.5107888"><ele>966.0</ele><time>2026-05-03T07:49:20.988Z</time></trkpt><trkpt lat="42.3576287" lon="13.5108835"><ele>966.0</ele><time>2026-05-03T07:49:21.988Z</time></trkpt><trkpt lat="42.3577071" lon="13.5110278"><ele>966.0</ele><time>2026-05-03T07:49:22.987Z</time></trkpt><trkpt lat="42.3577892" lon="13.5112102"><ele>966.0</ele><time>2026-05-03T07:49:23.988Z</time></trkpt><trkpt lat="42.3578672" lon="13.5114487"><ele>966.0</ele><time>2026-05-03T07:49:24.988Z</time></trkpt><trkpt lat="42.3579585" lon="13.5117285"><ele>966.0</ele><time>2026-05-03T07:49:25.988Z</time></trkpt><trkpt lat="42.3580489" lon="13.5119869"><ele>967.0</ele><time>2026-05-03T07:49:26.988Z</time></trkpt><trkpt lat="42.3581388" lon="13.5122245"><ele>968.0</ele><time>2026-05-03T07:49:27.987Z</time></trkpt><trkpt lat="42.3582242" lon="13.5124384"><ele>969.0</ele><time>2026-05-03T07:49:28.987Z</time></trkpt><trkpt lat="42.3582989" lon="13.5126291"><ele>969.0</ele><time>2026-05-03T07:49:29.988Z</time></trkpt><trkpt lat="42.3583699" lon="13.5128121"><ele>969.0</ele><time>2026-05-03T07:49:30.988Z</time></trkpt><trkpt lat="42.3584379" lon="13.5129897"><ele>969.0</ele><time>2026-05-03T07:49:31.988Z</time></trkpt><trkpt lat="42.3585084" lon="13.5131602"><ele>969.0</ele><time>2026-05-03T07:49:32.987Z</time></trkpt><trkpt lat="42.3585685" lon="13.5133122"><ele>969.3333333333334</ele><time>2026-05-03T07:49:33.987Z</time></trkpt><trkpt lat="42.3586107" lon="13.5134266"><ele>969.6666666666667</ele><time>2026-05-03T07:49:34.987Z</time></trkpt><trkpt lat="42.3586441" lon="13.5135198"><ele>970.0</ele><time>2026-05-03T07:49:35.987Z</time></trkpt><trkpt lat="42.358671" lon="13.5136103"><ele>970.3333333333334</ele><time>2026-05-03T07:49:36.988Z</time></trkpt><trkpt lat="42.3586703" lon="13.5137509"><ele>970.6666666666667</ele><time>2026-05-03T07:49:38.987Z</time></trkpt><trkpt lat="42.3586724" lon="13.5138807"><ele>971.0</ele><time>2026-05-03T07:49:40.988Z</time></trkpt><trkpt lat="42.3587097" lon="13.5139888"><ele>971.1666666666667</ele><time>2026-05-03T07:49:42.988Z</time></trkpt><trkpt lat="42.3587649" lon="13.5141196"><ele>971.3333333333334</ele><time>2026-05-03T07:49:44.987Z</time></trkpt><trkpt lat="42.3588013" lon="13.5141942"><ele>971.5</ele><time>2026-05-03T07:49:45.987Z</time></trkpt><trkpt lat="42.3588387" lon="13.5142823"><ele>971.6666666666667</ele><time>2026-05-03T07:49:46.987Z</time></trkpt><trkpt lat="42.3588808" lon="13.5143804"><ele>971.8333333333334</ele><time>2026-05-03T07:49:47.988Z</time></trkpt><trkpt lat="42.3589289" lon="13.5144886"><ele>972.0</ele><time>2026-05-03T07:49:48.988Z</time></trkpt><trkpt lat="42.3589842" lon="13.5146009"><ele>974.1666666666666</ele><time>2026-05-03T07:49:49.988Z</time></trkpt><trkpt lat="42.3590338" lon="13.5147125"><ele>976.3333333333333</ele><time>2026-05-03T07:49:50.988Z</time></trkpt><trkpt lat="42.3590807" lon="13.5148199"><ele>978.5</ele><time>2026-05-03T07:49:51.988Z</time></trkpt><trkpt lat="42.3591244" lon="13.5149276"><ele>980.6666666666666</ele><time>2026-05-03T07:49:52.988Z</time></trkpt><trkpt lat="42.3591622" lon="13.5150249"><ele>982.8333333333333</ele><time>2026-05-03T07:49:53.988Z</time></trkpt><trkpt lat="42.359195" lon="13.515123"><ele>985.0</ele><time>2026-05-03T07:49:54.988Z</time></trkpt><trkpt lat="42.3592192" lon="13.5152174"><ele>984.9999999999999</ele><time>2026-05-03T07:49:55.988Z</time></trkpt><trkpt lat="42.3592314" lon="13.5153019"><ele>985.0</ele><time>2026-05-03T07:49:56.988Z</time></trkpt><trkpt lat="42.3592293" lon="13.515456"><ele>985.0</ele><time>2026-05-03T07:49:58.987Z</time></trkpt><trkpt lat="42.3591897" lon="13.5156055"><ele>985.0</ele><time>2026-05-03T07:50:00.988Z</time></trkpt><trkpt lat="42.3591603" lon="13.5156846"><ele>984.9999999999999</ele><time>2026-05-03T07:50:01.987Z</time></trkpt><trkpt lat="42.3591328" lon="13.5157699"><ele>985.0</ele><time>2026-05-03T07:50:02.988Z</time></trkpt><trkpt lat="42.3591048" lon="13.5158563"><ele>985.7142857142858</ele><time>2026-05-03T07:50:03.987Z</time></trkpt><trkpt lat="42.3590796" lon="13.5159433"><ele>986.4285714285716</ele><time>2026-05-03T07:50:04.988Z</time></trkpt><trkpt lat="42.3590599" lon="13.5160311"><ele>987.1428571428571</ele><time>2026-05-03T07:50:05.988Z</time></trkpt><trkpt lat="42.3590472" lon="13.5161222"><ele>987.8571428571429</ele><time>2026-05-03T07:50:06.988Z</time></trkpt><trkpt lat="42.3590421" lon="13.5162179"><ele>988.5714285714286</ele><time>2026-05-03T07:50:07.988Z</time></trkpt><trkpt lat="42.3590382" lon="13.5163198"><ele>989.2857142857142</ele><time>2026-05-03T07:50:08.988Z</time></trkpt><trkpt lat="42.3590414" lon="13.5164193"><ele>989.9999999999999</ele><time>2026-05-03T07:50:09.988Z</time></trkpt><trkpt lat="42.3590415" lon="13.5165174"><ele>989.8333333333334</ele><time>2026-05-03T07:50:10.987Z</time></trkpt><trkpt lat="42.3590229" lon="13.5166201"><ele>989.6666666666667</ele><time>2026-05-03T07:50:11.987Z</time></trkpt><trkpt lat="42.358998" lon="13.5167262"><ele>989.5</ele><time>2026-05-03T07:50:12.987Z</time></trkpt><trkpt lat="42.358961" lon="13.5168325"><ele>989.3333333333334</ele><time>2026-05-03T07:50:13.988Z</time></trkpt><trkpt lat="42.3589165" lon="13.516939"><ele>989.1666666666667</ele><time>2026-05-03T07:50:14.988Z</time></trkpt><trkpt lat="42.3588634" lon="13.5170519"><ele>989.0</ele><time>2026-05-03T07:50:15.988Z</time></trkpt><trkpt lat="42.3588094" lon="13.5171648"><ele>990.6666666666667</ele><time>2026-05-03T07:50:16.988Z</time></trkpt><trkpt lat="42.3587609" lon="13.5172747"><ele>992.3333333333334</ele><time>2026-05-03T07:50:17.987Z</time></trkpt><trkpt lat="42.3587163" lon="13.5173743"><ele>994.0</ele><time>2026-05-03T07:50:18.988Z</time></trkpt><trkpt lat="42.3586754" lon="13.5174545"><ele>995.6666666666667</ele><time>2026-05-03T07:50:19.988Z</time></trkpt><trkpt lat="42.3586314" lon="13.5175276"><ele>997.3333333333334</ele><time>2026-05-03T07:50:20.988Z</time></trkpt><trkpt lat="42.3585734" lon="13.5176471"><ele>999.0</ele><time>2026-05-03T07:50:22.987Z</time></trkpt><trkpt lat="42.3585938" lon="13.5177526"><ele>999.0</ele><time>2026-05-03T07:50:25.988Z</time></trkpt><trkpt lat="42.3586463" lon="13.5178025"><ele>999.0</ele><time>2026-05-03T07:50:38.988Z</time></trkpt><trkpt lat="42.3587333" lon="13.5177389"><ele>999.0</ele><time>2026-05-03T07:50:41.988Z</time></trkpt><trkpt lat="42.3587817" lon="13.5176523"><ele>999.0</ele><time>2026-05-03T07:50:43.988Z</time></trkpt><trkpt lat="42.3588523" lon="13.5175523"><ele>999.0</ele><time>2026-05-03T07:50:45.988Z</time></trkpt><trkpt lat="42.3589004" lon="13.5174747"><ele>999.0</ele><time>2026-05-03T07:50:47.988Z</time></trkpt><trkpt lat="42.3589353" lon="13.5173973"><ele>1000.2</ele><time>2026-05-03T07:50:49.988Z</time></trkpt><trkpt lat="42.3589941" lon="13.5173097"><ele>1001.4000000000001</ele><time>2026-05-03T07:50:51.987Z</time></trkpt><trkpt lat="42.359066" lon="13.5172045"><ele>1002.6</ele><time>2026-05-03T07:50:53.987Z</time></trkpt><trkpt lat="42.3591429" lon="13.517088"><ele>1003.8</ele><time>2026-05-03T07:50:55.988Z</time></trkpt><trkpt lat="42.3592233" lon="13.5169714"><ele>1005.0</ele><time>2026-05-03T07:50:57.988Z</time></trkpt><trkpt lat="42.3592947" lon="13.5168593"><ele>1005.0</ele><time>2026-05-03T07:50:59.988Z</time></trkpt><trkpt lat="42.3593773" lon="13.5167611"><ele>1005.0</ele><time>2026-05-03T07:51:01.988Z</time></trkpt><trkpt lat="42.3594785" lon="13.5166859"><ele>1005.0</ele><time>2026-05-03T07:51:03.987Z</time></trkpt><trkpt lat="42.3595371" lon="13.5166531"><ele>1005.0</ele><time>2026-05-03T07:51:04.988Z</time></trkpt><trkpt lat="42.3596629" lon="13.5165935"><ele>1005.0</ele><time>2026-05-03T07:51:06.988Z</time></trkpt><trkpt lat="42.359783" lon="13.5165597"><ele>1007.8333333333334</ele><time>2026-05-03T07:51:08.988Z</time></trkpt><trkpt lat="42.3598459" lon="13.516546"><ele>1010.6666666666667</ele><time>2026-05-03T07:51:09.988Z</time></trkpt><trkpt lat="42.3599146" lon="13.5165279"><ele>1013.5</ele><time>2026-05-03T07:51:10.987Z</time></trkpt><trkpt lat="42.3599807" lon="13.516513"><ele>1016.3333333333334</ele><time>2026-05-03T07:51:11.988Z</time></trkpt><trkpt lat="42.3600481" lon="13.5164965"><ele>1019.1666666666667</ele><time>2026-05-03T07:51:12.988Z</time></trkpt><trkpt lat="42.3601148" lon="13.5164805"><ele>1022.0</ele><time>2026-05-03T07:51:13.987Z</time></trkpt><trkpt lat="42.3602408" lon="13.5164567"><ele>1022.0000000000001</ele><time>2026-05-03T07:51:15.987Z</time></trkpt><trkpt lat="42.3603124" lon="13.5164539"><ele>1022.0</ele><time>2026-05-03T07:51:16.988Z</time></trkpt><trkpt lat="42.3603873" lon="13.5164537"><ele>1022.0</ele><time>2026-05-03T07:51:17.988Z</time></trkpt><trkpt lat="42.3604653" lon="13.5164625"><ele>1022.0</ele><time>2026-05-03T07:51:18.988Z</time></trkpt><trkpt lat="42.3605474" lon="13.5164713"><ele>1022.0000000000001</ele><time>2026-05-03T07:51:19.987Z</time></trkpt><trkpt lat="42.3606249" lon="13.5164923"><ele>1022.0</ele><time>2026-05-03T07:51:20.988Z</time></trkpt><trkpt lat="42.3606992" lon="13.5165201"><ele>1023.5000000000001</ele><time>2026-05-03T07:51:21.988Z</time></trkpt><trkpt lat="42.3607759" lon="13.5165544"><ele>1025.0</ele><time>2026-05-03T07:51:22.988Z</time></trkpt><trkpt lat="42.3608511" lon="13.5165785"><ele>1026.5</ele><time>2026-05-03T07:51:23.987Z</time></trkpt><trkpt lat="42.3609317" lon="13.5165935"><ele>1028.0</ele><time>2026-05-03T07:51:24.987Z</time></trkpt><trkpt lat="42.3610097" lon="13.5166011"><ele>1029.5</ele><time>2026-05-03T07:51:25.987Z</time></trkpt><trkpt lat="42.3610908" lon="13.5166064"><ele>1031.0</ele><time>2026-05-03T07:51:26.987Z</time></trkpt><trkpt lat="42.3611726" lon="13.516605"><ele>1031.0</ele><time>2026-05-03T07:51:27.988Z</time></trkpt><trkpt lat="42.3612568" lon="13.5166083"><ele>1031.0</ele><time>2026-05-03T07:51:28.987Z</time></trkpt><trkpt lat="42.3613417" lon="13.516608"><ele>1031.0</ele><time>2026-05-03T07:51:29.987Z</time></trkpt><trkpt lat="42.3614257" lon="13.5165983"><ele>1031.0</ele><time>2026-05-03T07:51:30.988Z</time></trkpt><trkpt lat="42.3614954" lon="13.5165892"><ele>1031.0</ele><time>2026-05-03T07:51:31.987Z</time></trkpt><trkpt lat="42.3615621" lon="13.5165789"><ele>1031.0</ele><time>2026-05-03T07:51:32.987Z</time></trkpt><trkpt lat="42.3616431" lon="13.5165724"><ele>1032.0</ele><time>2026-05-03T07:51:33.988Z</time></trkpt><trkpt lat="42.3617156" lon="13.5165755"><ele>1033.0</ele><time>2026-05-03T07:51:34.987Z</time></trkpt><trkpt lat="42.3617934" lon="13.5165727"><ele>1034.0</ele><time>2026-05-03T07:51:35.988Z</time></trkpt><trkpt lat="42.3618693" lon="13.5165824"><ele>1035.0</ele><time>2026-05-03T07:51:36.987Z</time></trkpt><trkpt lat="42.3619414" lon="13.5165942"><ele>1036.0</ele><time>2026-05-03T07:51:37.987Z</time></trkpt><trkpt lat="42.3620234" lon="13.5165957"><ele>1037.0</ele><time>2026-05-03T07:51:38.988Z</time></trkpt><trkpt lat="42.3620995" lon="13.5165862"><ele>1037.0</ele><time>2026-05-03T07:51:39.987Z</time></trkpt><trkpt lat="42.3621713" lon="13.5165765"><ele>1037.0</ele><time>2026-05-03T07:51:40.988Z</time></trkpt><trkpt lat="42.3622533" lon="13.5165811"><ele>1037.0</ele><time>2026-05-03T07:51:41.988Z</time></trkpt><trkpt lat="42.3623317" lon="13.5165873"><ele>1037.0</ele><time>2026-05-03T07:51:42.988Z</time></trkpt><trkpt lat="42.3624077" lon="13.5165931"><ele>1037.0</ele><time>2026-05-03T07:51:43.988Z</time></trkpt><trkpt lat="42.3624906" lon="13.5166028"><ele>1037.0</ele><time>2026-05-03T07:51:44.987Z</time></trkpt><trkpt lat="42.3625775" lon="13.5166214"><ele>1037.8333333333335</ele><time>2026-05-03T07:51:45.987Z</time></trkpt><trkpt lat="42.3626582" lon="13.5166375"><ele>1038.6666666666667</ele><time>2026-05-03T07:51:46.988Z</time></trkpt><trkpt lat="42.3627437" lon="13.5166449"><ele>1039.5</ele><time>2026-05-03T07:51:47.987Z</time></trkpt><trkpt lat="42.3628226" lon="13.5166657"><ele>1040.3333333333333</ele><time>2026-05-03T07:51:48.987Z</time></trkpt><trkpt lat="42.362909" lon="13.5167059"><ele>1041.1666666666665</ele><time>2026-05-03T07:51:49.988Z</time></trkpt><trkpt lat="42.3629826" lon="13.5167365"><ele>1042.0</ele><time>2026-05-03T07:51:50.987Z</time></trkpt><trkpt lat="42.3630542" lon="13.5167745"><ele>1042.0</ele><time>2026-05-03T07:51:51.987Z</time></trkpt><trkpt lat="42.363113" lon="13.5168237"><ele>1042.0</ele><time>2026-05-03T07:51:52.988Z</time></trkpt><trkpt lat="42.3631864" lon="13.5168803"><ele>1042.0</ele><time>2026-05-03T07:51:53.988Z</time></trkpt><trkpt lat="42.3632531" lon="13.5169383"><ele>1042.0</ele><time>2026-05-03T07:51:54.987Z</time></trkpt><trkpt lat="42.3633182" lon="13.516997"><ele>1042.0</ele><time>2026-05-03T07:51:55.988Z</time></trkpt><trkpt lat="42.3633826" lon="13.5170533"><ele>1042.0</ele><time>2026-05-03T07:51:56.988Z</time></trkpt><trkpt lat="42.3634442" lon="13.5170923"><ele>1045.5</ele><time>2026-05-03T07:51:57.988Z</time></trkpt><trkpt lat="42.3635468" lon="13.5171608"><ele>1049.0</ele><time>2026-05-03T07:51:59.987Z</time></trkpt><trkpt lat="42.3636555" lon="13.5172329"><ele>1052.5</ele><time>2026-05-03T07:52:01.988Z</time></trkpt><trkpt lat="42.3637763" lon="13.5172832"><ele>1056.0</ele><time>2026-05-03T07:52:03.987Z</time></trkpt><trkpt lat="42.3639008" lon="13.5173164"><ele>1056.0</ele><time>2026-05-03T07:52:05.988Z</time></trkpt><trkpt lat="42.3640048" lon="13.5173298"><ele>1056.0</ele><time>2026-05-03T07:52:07.988Z</time></trkpt><trkpt lat="42.3640711" lon="13.5173374"><ele>1056.0</ele><time>2026-05-03T07:52:09.988Z</time></trkpt><trkpt lat="42.3641377" lon="13.5173431"><ele>1056.0</ele><time>2026-05-03T07:52:11.988Z</time></trkpt><trkpt lat="42.3642183" lon="13.5173578"><ele>1056.0</ele><time>2026-05-03T07:52:13.988Z</time></trkpt><trkpt lat="42.3643055" lon="13.5173744"><ele>1056.0</ele><time>2026-05-03T07:52:15.987Z</time></trkpt><trkpt lat="42.3644012" lon="13.5173795"><ele>1056.0</ele><time>2026-05-03T07:52:17.988Z</time></trkpt><trkpt lat="42.3644876" lon="13.5174044"><ele>1056.0</ele><time>2026-05-03T07:52:19.988Z</time></trkpt><trkpt lat="42.3645895" lon="13.5174433"><ele>1056.0</ele><time>2026-05-03T07:52:21.987Z</time></trkpt><trkpt lat="42.3646973" lon="13.5174852"><ele>1056.0</ele><time>2026-05-03T07:52:23.987Z</time></trkpt><trkpt lat="42.3647601" lon="13.5175029"><ele>1056.0</ele><time>2026-05-03T07:52:24.988Z</time></trkpt><trkpt lat="42.364823" lon="13.5175283"><ele>1056.0</ele><time>2026-05-03T07:52:25.988Z</time></trkpt><trkpt lat="42.3649451" lon="13.5175801"><ele>1056.6666666666667</ele><time>2026-05-03T07:52:27.988Z</time></trkpt><trkpt lat="42.3650085" lon="13.5176053"><ele>1057.3333333333333</ele><time>2026-05-03T07:52:28.987Z</time></trkpt><trkpt lat="42.3650717" lon="13.5176279"><ele>1058.0</ele><time>2026-05-03T07:52:29.987Z</time></trkpt><trkpt lat="42.3651871" lon="13.5176857"><ele>1058.6666666666665</ele><time>2026-05-03T07:52:31.987Z</time></trkpt><trkpt lat="42.3652966" lon="13.5177471"><ele>1059.3333333333333</ele><time>2026-05-03T07:52:33.987Z</time></trkpt><trkpt lat="42.3653534" lon="13.5177861"><ele>1060.0</ele><time>2026-05-03T07:52:34.987Z</time></trkpt><trkpt lat="42.3654592" lon="13.5178546"><ele>1059.9999999999998</ele><time>2026-05-03T07:52:36.988Z</time></trkpt><trkpt lat="42.3655253" lon="13.5178759"><ele>1060.0</ele><time>2026-05-03T07:52:37.988Z</time></trkpt><trkpt lat="42.3655843" lon="13.5179087"><ele>1060.0</ele><time>2026-05-03T07:52:38.988Z</time></trkpt><trkpt lat="42.3656521" lon="13.517951"><ele>1060.0</ele><time>2026-05-03T07:52:39.988Z</time></trkpt><trkpt lat="42.3657202" lon="13.5179951"><ele>1060.0</ele><time>2026-05-03T07:52:40.988Z</time></trkpt><trkpt lat="42.3657873" lon="13.5180832"><ele>1059.9999999999998</ele><time>2026-05-03T07:52:42.988Z</time></trkpt><trkpt lat="42.3657899" lon="13.5181769"><ele>1060.0</ele><time>2026-05-03T07:52:44.987Z</time></trkpt><trkpt lat="42.3657203" lon="13.5182381"><ele>1061.8</ele><time>2026-05-03T07:52:46.987Z</time></trkpt><trkpt lat="42.365628" lon="13.5182271"><ele>1063.6</ele><time>2026-05-03T07:52:48.987Z</time></trkpt><trkpt lat="42.3655117" lon="13.5181832"><ele>1065.4</ele><time>2026-05-03T07:52:50.988Z</time></trkpt><trkpt lat="42.3653915" lon="13.5181399"><ele>1067.2</ele><time>2026-05-03T07:52:52.987Z</time></trkpt><trkpt lat="42.3653291" lon="13.5181278"><ele>1069.0</ele><time>2026-05-03T07:52:53.987Z</time></trkpt><trkpt lat="42.3652639" lon="13.5181251"><ele>1070.142857142857</ele><time>2026-05-03T07:52:54.987Z</time></trkpt><trkpt lat="42.3651949" lon="13.5181376"><ele>1071.2857142857144</ele><time>2026-05-03T07:52:55.987Z</time></trkpt><trkpt lat="42.3651241" lon="13.5181528"><ele>1072.4285714285716</ele><time>2026-05-03T07:52:56.987Z</time></trkpt><trkpt lat="42.3650567" lon="13.5181662"><ele>1073.5714285714287</ele><time>2026-05-03T07:52:57.988Z</time></trkpt><trkpt lat="42.3649814" lon="13.5181799"><ele>1074.7142857142858</ele><time>2026-05-03T07:52:58.988Z</time></trkpt><trkpt lat="42.3649085" lon="13.5181888"><ele>1075.857142857143</ele><time>2026-05-03T07:52:59.987Z</time></trkpt><trkpt lat="42.3648383" lon="13.5181947"><ele>1077.0</ele><time>2026-05-03T07:53:00.988Z</time></trkpt><trkpt lat="42.3647338" lon="13.5182199"><ele>1077.0</ele><time>2026-05-03T07:53:02.988Z</time></trkpt><trkpt lat="42.364669" lon="13.5182999"><ele>1077.0</ele><time>2026-05-03T07:53:04.987Z</time></trkpt><trkpt lat="42.3646682" lon="13.5184017"><ele>1077.0</ele><time>2026-05-03T07:53:06.987Z</time></trkpt><trkpt lat="42.3647326" lon="13.5184663"><ele>1077.0</ele><time>2026-05-03T07:53:08.988Z</time></trkpt><trkpt lat="42.364846" lon="13.5184583"><ele>1077.0</ele><time>2026-05-03T07:53:10.988Z</time></trkpt><trkpt lat="42.3649719" lon="13.518471"><ele>1077.0</ele><time>2026-05-03T07:53:12.987Z</time></trkpt><trkpt lat="42.3650439" lon="13.5184859"><ele>1077.0</ele><time>2026-05-03T07:53:13.988Z</time></trkpt><trkpt lat="42.3651689" lon="13.5185384"><ele>1077.0</ele><time>2026-05-03T07:53:15.987Z</time></trkpt><trkpt lat="42.365236" lon="13.5185742"><ele>1077.0</ele><time>2026-05-03T07:53:16.988Z</time></trkpt><trkpt lat="42.3652907" lon="13.5186204"><ele>1077.0</ele><time>2026-05-03T07:53:17.988Z</time></trkpt><trkpt lat="42.3653422" lon="13.5186803"><ele>1077.0</ele><time>2026-05-03T07:53:18.988Z</time></trkpt><trkpt lat="42.3653913" lon="13.5187459"><ele>1078.3333333333333</ele><time>2026-05-03T07:53:19.988Z</time></trkpt><trkpt lat="42.3654417" lon="13.5188035"><ele>1079.6666666666667</ele><time>2026-05-03T07:53:20.987Z</time></trkpt><trkpt lat="42.3654979" lon="13.5188685"><ele>1081.0</ele><time>2026-05-03T07:53:21.987Z</time></trkpt><trkpt lat="42.3655598" lon="13.5189233"><ele>1082.3333333333335</ele><time>2026-05-03T07:53:22.988Z</time></trkpt><trkpt lat="42.3656125" lon="13.5189757"><ele>1083.6666666666667</ele><time>2026-05-03T07:53:23.987Z</time></trkpt><trkpt lat="42.3657021" lon="13.5190882"><ele>1085.0</ele><time>2026-05-03T07:53:25.988Z</time></trkpt><trkpt lat="42.3657695" lon="13.5192158"><ele>1085.0</ele><time>2026-05-03T07:53:27.987Z</time></trkpt><trkpt lat="42.3657893" lon="13.5193062"><ele>1085.0</ele><time>2026-05-03T07:53:28.988Z</time></trkpt><trkpt lat="42.3658015" lon="13.5193939"><ele>1085.0</ele><time>2026-05-03T07:53:29.987Z</time></trkpt><trkpt lat="42.3658075" lon="13.519482"><ele>1085.0</ele><time>2026-05-03T07:53:30.988Z</time></trkpt><trkpt lat="42.3658042" lon="13.5195692"><ele>1085.0</ele><time>2026-05-03T07:53:31.988Z</time></trkpt><trkpt lat="42.3658168" lon="13.5196545"><ele>1085.0</ele><time>2026-05-03T07:53:32.988Z</time></trkpt><trkpt lat="42.3658181" lon="13.5198235"><ele>1086.8333333333335</ele><time>2026-05-03T07:53:34.987Z</time></trkpt><trkpt lat="42.3658192" lon="13.5199168"><ele>1088.6666666666667</ele><time>2026-05-03T07:53:35.988Z</time></trkpt><trkpt lat="42.3658182" lon="13.5200096"><ele>1090.5</ele><time>2026-05-03T07:53:36.987Z</time></trkpt><trkpt lat="42.3658181" lon="13.5201056"><ele>1092.3333333333333</ele><time>2026-05-03T07:53:37.988Z</time></trkpt><trkpt lat="42.3658209" lon="13.5202749"><ele>1094.1666666666665</ele><time>2026-05-03T07:53:39.988Z</time></trkpt><trkpt lat="42.3658238" lon="13.5203667"><ele>1096.0</ele><time>2026-05-03T07:53:40.987Z</time></trkpt><trkpt lat="42.365833" lon="13.520452"><ele>1096.4285714285716</ele><time>2026-05-03T07:53:41.987Z</time></trkpt><trkpt lat="42.3658493" lon="13.5205359"><ele>1096.857142857143</ele><time>2026-05-03T07:53:42.987Z</time></trkpt><trkpt lat="42.3658652" lon="13.5206248"><ele>1097.2857142857142</ele><time>2026-05-03T07:53:43.987Z</time></trkpt><trkpt lat="42.3658835" lon="13.5207144"><ele>1097.7142857142858</ele><time>2026-05-03T07:53:44.988Z</time></trkpt><trkpt lat="42.365897" lon="13.5208105"><ele>1098.142857142857</ele><time>2026-05-03T07:53:45.987Z</time></trkpt><trkpt lat="42.3658978" lon="13.5209093"><ele>1098.5714285714287</ele><time>2026-05-03T07:53:46.988Z</time></trkpt><trkpt lat="42.3658944" lon="13.5210099"><ele>1099.0</ele><time>2026-05-03T07:53:47.987Z</time></trkpt><trkpt lat="42.3658908" lon="13.5211123"><ele>1099.0</ele><time>2026-05-03T07:53:48.987Z</time></trkpt><trkpt lat="42.3658828" lon="13.5212223"><ele>1099.0</ele><time>2026-05-03T07:53:49.987Z</time></trkpt><trkpt lat="42.3658749" lon="13.5213335"><ele>1099.0</ele><time>2026-05-03T07:53:50.988Z</time></trkpt><trkpt lat="42.3658617" lon="13.5214441"><ele>1099.0</ele><time>2026-05-03T07:53:51.987Z</time></trkpt><trkpt lat="42.3658465" lon="13.5215494"><ele>1099.0</ele><time>2026-05-03T07:53:52.988Z</time></trkpt><trkpt lat="42.3658274" lon="13.5216485"><ele>1099.0</ele><time>2026-05-03T07:53:53.987Z</time></trkpt><trkpt lat="42.3658014" lon="13.5217364"><ele>1099.3333333333333</ele><time>2026-05-03T07:53:54.987Z</time></trkpt><trkpt lat="42.3657706" lon="13.5218145"><ele>1099.6666666666665</ele><time>2026-05-03T07:53:55.987Z</time></trkpt><trkpt lat="42.3657546" lon="13.5219051"><ele>1100.0</ele><time>2026-05-03T07:53:56.988Z</time></trkpt><trkpt lat="42.3657583" lon="13.5220012"><ele>1100.3333333333333</ele><time>2026-05-03T07:53:57.988Z</time></trkpt><trkpt lat="42.3657723" lon="13.5220981"><ele>1100.6666666666667</ele><time>2026-05-03T07:53:58.987Z</time></trkpt><trkpt lat="42.3657824" lon="13.5221892"><ele>1101.0</ele><time>2026-05-03T07:53:59.988Z</time></trkpt><trkpt lat="42.3657557" lon="13.5223564"><ele>1102.75</ele><time>2026-05-03T07:54:01.987Z</time></trkpt><trkpt lat="42.3656902" lon="13.5224977"><ele>1104.5</ele><time>2026-05-03T07:54:03.988Z</time></trkpt><trkpt lat="42.3656015" lon="13.5226047"><ele>1106.25</ele><time>2026-05-03T07:54:05.988Z</time></trkpt><trkpt lat="42.3655267" lon="13.5227342"><ele>1108.0</ele><time>2026-05-03T07:54:07.988Z</time></trkpt><trkpt lat="42.3654522" lon="13.5228639"><ele>1109.0</ele><time>2026-05-03T07:54:09.987Z</time></trkpt><trkpt lat="42.365409" lon="13.5229276"><ele>1110.0</ele><time>2026-05-03T07:54:10.987Z</time></trkpt><trkpt lat="42.3653288" lon="13.5230544"><ele>1111.0</ele><time>2026-05-03T07:54:12.987Z</time></trkpt><trkpt lat="42.3652446" lon="13.5231746"><ele>1112.0</ele><time>2026-05-03T07:54:14.988Z</time></trkpt><trkpt lat="42.3651985" lon="13.5232363"><ele>1113.0</ele><time>2026-05-03T07:54:15.988Z</time></trkpt><trkpt lat="42.3651531" lon="13.5232996"><ele>1114.0</ele><time>2026-05-03T07:54:16.987Z</time></trkpt><trkpt lat="42.36511" lon="13.5233707"><ele>1114.0</ele><time>2026-05-03T07:54:17.988Z</time></trkpt><trkpt lat="42.3650584" lon="13.5234386"><ele>1114.0</ele><time>2026-05-03T07:54:18.988Z</time></trkpt><trkpt lat="42.3650123" lon="13.5235071"><ele>1114.0</ele><time>2026-05-03T07:54:19.988Z</time></trkpt><trkpt lat="42.3649176" lon="13.5236374"><ele>1114.0</ele><time>2026-05-03T07:54:21.987Z</time></trkpt><trkpt lat="42.3648668" lon="13.5237031"><ele>1114.0</ele><time>2026-05-03T07:54:22.987Z</time></trkpt><trkpt lat="42.3648176" lon="13.5237704"><ele>1114.0</ele><time>2026-05-03T07:54:23.988Z</time></trkpt><trkpt lat="42.3647738" lon="13.5238481"><ele>1115.142857142857</ele><time>2026-05-03T07:54:24.987Z</time></trkpt><trkpt lat="42.3647356" lon="13.5239275"><ele>1116.2857142857142</ele><time>2026-05-03T07:54:25.987Z</time></trkpt><trkpt lat="42.3647017" lon="13.5240142"><ele>1117.4285714285713</ele><time>2026-05-03T07:54:26.988Z</time></trkpt><trkpt lat="42.3646679" lon="13.5241017"><ele>1118.5714285714284</ele><time>2026-05-03T07:54:27.987Z</time></trkpt><trkpt lat="42.3646356" lon="13.5241926"><ele>1119.7142857142856</ele><time>2026-05-03T07:54:28.988Z</time></trkpt><trkpt lat="42.3646059" lon="13.5242869"><ele>1120.857142857143</ele><time>2026-05-03T07:54:29.987Z</time></trkpt><trkpt lat="42.3645809" lon="13.5243818"><ele>1122.0</ele><time>2026-05-03T07:54:30.987Z</time></trkpt><trkpt lat="42.364557" lon="13.5244815"><ele>1122.142857142857</ele><time>2026-05-03T07:54:31.988Z</time></trkpt><trkpt lat="42.3645299" lon="13.5245792"><ele>1122.2857142857142</ele><time>2026-05-03T07:54:32.987Z</time></trkpt><trkpt lat="42.36451" lon="13.5246805"><ele>1122.4285714285713</ele><time>2026-05-03T07:54:33.988Z</time></trkpt><trkpt lat="42.3644918" lon="13.5247752"><ele>1122.5714285714284</ele><time>2026-05-03T07:54:34.988Z</time></trkpt><trkpt lat="42.3644841" lon="13.5248672"><ele>1122.7142857142858</ele><time>2026-05-03T07:54:35.988Z</time></trkpt><trkpt lat="42.3644803" lon="13.5249622"><ele>1122.8571428571427</ele><time>2026-05-03T07:54:36.987Z</time></trkpt><trkpt lat="42.3644881" lon="13.5250669"><ele>1123.0</ele><time>2026-05-03T07:54:37.988Z</time></trkpt><trkpt lat="42.3645086" lon="13.525176"><ele>1123.0</ele><time>2026-05-03T07:54:38.988Z</time></trkpt><trkpt lat="42.3645324" lon="13.5252906"><ele>1123.0</ele><time>2026-05-03T07:54:39.987Z</time></trkpt><trkpt lat="42.3645552" lon="13.5254099"><ele>1123.0</ele><time>2026-05-03T07:54:40.987Z</time></trkpt><trkpt lat="42.3645741" lon="13.5255255"><ele>1123.0</ele><time>2026-05-03T07:54:41.988Z</time></trkpt><trkpt lat="42.3645854" lon="13.5256445"><ele>1123.0</ele><time>2026-05-03T07:54:42.988Z</time></trkpt><trkpt lat="42.3645909" lon="13.5257707"><ele>1123.0</ele><time>2026-05-03T07:54:43.987Z</time></trkpt><trkpt lat="42.3645895" lon="13.5258976"><ele>1123.1666666666665</ele><time>2026-05-03T07:54:44.988Z</time></trkpt><trkpt lat="42.3645847" lon="13.5260112"><ele>1123.3333333333333</ele><time>2026-05-03T07:54:45.988Z</time></trkpt><trkpt lat="42.3645786" lon="13.5261146"><ele>1123.5</ele><time>2026-05-03T07:54:46.988Z</time></trkpt><trkpt lat="42.3645674" lon="13.5262202"><ele>1123.6666666666667</ele><time>2026-05-03T07:54:47.988Z</time></trkpt><trkpt lat="42.3645505" lon="13.5263238"><ele>1123.8333333333335</ele><time>2026-05-03T07:54:48.987Z</time></trkpt><trkpt lat="42.3645367" lon="13.526429"><ele>1124.0</ele><time>2026-05-03T07:54:49.988Z</time></trkpt><trkpt lat="42.3645264" lon="13.5265299"><ele>1124.3333333333335</ele><time>2026-05-03T07:54:50.987Z</time></trkpt><trkpt lat="42.3645215" lon="13.5266296"><ele>1124.6666666666667</ele><time>2026-05-03T07:54:51.987Z</time></trkpt><trkpt lat="42.3645214" lon="13.5267257"><ele>1125.0</ele><time>2026-05-03T07:54:52.987Z</time></trkpt><trkpt lat="42.3645265" lon="13.5268165"><ele>1125.3333333333333</ele><time>2026-05-03T07:54:53.988Z</time></trkpt><trkpt lat="42.3645328" lon="13.5269076"><ele>1125.6666666666665</ele><time>2026-05-03T07:54:54.987Z</time></trkpt><trkpt lat="42.3645414" lon="13.5269955"><ele>1126.0</ele><time>2026-05-03T07:54:55.988Z</time></trkpt><trkpt lat="42.3645647" lon="13.5271657"><ele>1127.0</ele><time>2026-05-03T07:54:57.988Z</time></trkpt><trkpt lat="42.3645811" lon="13.5272498"><ele>1128.0</ele><time>2026-05-03T07:54:58.988Z</time></trkpt><trkpt lat="42.3646054" lon="13.5274073"><ele>1129.0</ele><time>2026-05-03T07:55:00.988Z</time></trkpt><trkpt lat="42.3646167" lon="13.527494"><ele>1130.0</ele><time>2026-05-03T07:55:01.988Z</time></trkpt><trkpt lat="42.3646243" lon="13.52758"><ele>1131.0</ele><time>2026-05-03T07:55:02.987Z</time></trkpt><trkpt lat="42.364628" lon="13.5277475"><ele>1132.0</ele><time>2026-05-03T07:55:04.988Z</time></trkpt><trkpt lat="42.3646187" lon="13.5279135"><ele>1132.857142857143</ele><time>2026-05-03T07:55:06.988Z</time></trkpt><trkpt lat="42.3646125" lon="13.5279989"><ele>1133.7142857142858</ele><time>2026-05-03T07:55:07.987Z</time></trkpt><trkpt lat="42.3646007" lon="13.5280857"><ele>1134.5714285714287</ele><time>2026-05-03T07:55:08.988Z</time></trkpt><trkpt lat="42.3645856" lon="13.5281769"><ele>1135.4285714285716</ele><time>2026-05-03T07:55:09.988Z</time></trkpt><trkpt lat="42.3645719" lon="13.5282618"><ele>1136.2857142857142</ele><time>2026-05-03T07:55:10.987Z</time></trkpt><trkpt lat="42.3645579" lon="13.5283498"><ele>1137.1428571428573</ele><time>2026-05-03T07:55:11.987Z</time></trkpt><trkpt lat="42.3645446" lon="13.5284363"><ele>1138.0</ele><time>2026-05-03T07:55:12.987Z</time></trkpt><trkpt lat="42.3645154" lon="13.5285934"><ele>1138.0</ele><time>2026-05-03T07:55:14.988Z</time></trkpt><trkpt lat="42.3645169" lon="13.5286825"><ele>1138.0</ele><time>2026-05-03T07:55:15.988Z</time></trkpt><trkpt lat="42.3645264" lon="13.5287788"><ele>1138.0</ele><time>2026-05-03T07:55:16.988Z</time></trkpt><trkpt lat="42.3645403" lon="13.5288751"><ele>1138.0</ele><time>2026-05-03T07:55:17.988Z</time></trkpt><trkpt lat="42.3645505" lon="13.5289684"><ele>1138.0</ele><time>2026-05-03T07:55:18.988Z</time></trkpt><trkpt lat="42.3645539" lon="13.5290546"><ele>1138.0</ele><time>2026-05-03T07:55:19.987Z</time></trkpt><trkpt lat="42.3645498" lon="13.5292022"><ele>1140.0</ele><time>2026-05-03T07:55:21.988Z</time></trkpt><trkpt lat="42.3645598" lon="13.5293511"><ele>1142.0</ele><time>2026-05-03T07:55:23.987Z</time></trkpt><trkpt lat="42.3646262" lon="13.5294572"><ele>1144.0</ele><time>2026-05-03T07:55:25.988Z</time></trkpt><trkpt lat="42.3647281" lon="13.529442"><ele>1146.0</ele><time>2026-05-03T07:55:27.987Z</time></trkpt><trkpt lat="42.3648022" lon="13.5293037"><ele>1148.0</ele><time>2026-05-03T07:55:29.987Z</time></trkpt><trkpt lat="42.3648315" lon="13.5292167"><ele>1149.142857142857</ele><time>2026-05-03T07:55:30.987Z</time></trkpt><trkpt lat="42.3648636" lon="13.5291308"><ele>1150.2857142857142</ele><time>2026-05-03T07:55:31.988Z</time></trkpt><trkpt lat="42.3649036" lon="13.5290564"><ele>1151.4285714285716</ele><time>2026-05-03T07:55:32.987Z</time></trkpt><trkpt lat="42.3649541" lon="13.5289907"><ele>1152.5714285714284</ele><time>2026-05-03T07:55:33.987Z</time></trkpt><trkpt lat="42.365013" lon="13.5289351"><ele>1153.7142857142858</ele><time>2026-05-03T07:55:34.988Z</time></trkpt><trkpt lat="42.3650732" lon="13.5288859"><ele>1154.857142857143</ele><time>2026-05-03T07:55:35.988Z</time></trkpt><trkpt lat="42.3651287" lon="13.5288443"><ele>1156.0</ele><time>2026-05-03T07:55:36.987Z</time></trkpt><trkpt lat="42.36523" lon="13.5287902"><ele>1156.0</ele><time>2026-05-03T07:55:38.988Z</time></trkpt><trkpt lat="42.3652892" lon="13.5287557"><ele>1156.0</ele><time>2026-05-03T07:55:39.987Z</time></trkpt><trkpt lat="42.3653499" lon="13.5287141"><ele>1156.0</ele><time>2026-05-03T07:55:40.987Z</time></trkpt><trkpt lat="42.3654401" lon="13.528648"><ele>1156.0</ele><time>2026-05-03T07:55:42.988Z</time></trkpt><trkpt lat="42.3655159" lon="13.5286533"><ele>1156.0</ele><time>2026-05-03T07:55:45.988Z</time></trkpt><trkpt lat="42.3655522" lon="13.5287546"><ele>1156.0</ele><time>2026-05-03T07:55:49.988Z</time></trkpt><trkpt lat="42.3654926" lon="13.5288108"><ele>1156.0</ele><time>2026-05-03T07:55:53.987Z</time></trkpt><trkpt lat="42.3654377" lon="13.5288553"><ele>1156.0</ele><time>2026-05-03T07:55:56.022Z</time></trkpt><trkpt lat="42.3653678" lon="13.5288985"><ele>1156.0</ele><time>2026-05-03T07:55:57.989Z</time></trkpt><trkpt lat="42.3652846" lon="13.5289369"><ele>1156.0</ele><time>2026-05-03T07:55:59.988Z</time></trkpt><trkpt lat="42.365244" lon="13.5290045"><ele>1156.0</ele><time>2026-05-03T07:56:00.987Z</time></trkpt><trkpt lat="42.3652015" lon="13.5290748"><ele>1156.0</ele><time>2026-05-03T07:56:01.987Z</time></trkpt><trkpt lat="42.3651346" lon="13.5292175"><ele>1156.0</ele><time>2026-05-03T07:56:03.988Z</time></trkpt><trkpt lat="42.3651077" lon="13.5292989"><ele>1156.0</ele><time>2026-05-03T07:56:04.988Z</time></trkpt><trkpt lat="42.3650868" lon="13.529439"><ele>1156.0</ele><time>2026-05-03T07:56:06.988Z</time></trkpt><trkpt lat="42.3650849" lon="13.5295821"><ele>1156.0</ele><time>2026-05-03T07:56:08.988Z</time></trkpt><trkpt lat="42.3651065" lon="13.5297223"><ele>1156.0</ele><time>2026-05-03T07:56:10.987Z</time></trkpt><trkpt lat="42.3651612" lon="13.5298418"><ele>1157.25</ele><time>2026-05-03T07:56:12.988Z</time></trkpt><trkpt lat="42.3652407" lon="13.5299535"><ele>1158.5</ele><time>2026-05-03T07:56:14.988Z</time></trkpt><trkpt lat="42.365327" lon="13.5300556"><ele>1159.75</ele><time>2026-05-03T07:56:16.988Z</time></trkpt><trkpt lat="42.3654173" lon="13.5301498"><ele>1161.0</ele><time>2026-05-03T07:56:18.988Z</time></trkpt><trkpt lat="42.3655073" lon="13.5302591"><ele>1162.142857142857</ele><time>2026-05-03T07:56:20.988Z</time></trkpt><trkpt lat="42.3655463" lon="13.5303262"><ele>1163.2857142857142</ele><time>2026-05-03T07:56:21.988Z</time></trkpt><trkpt lat="42.3655786" lon="13.5304051"><ele>1164.4285714285716</ele><time>2026-05-03T07:56:22.988Z</time></trkpt><trkpt lat="42.3656063" lon="13.5304917"><ele>1165.5714285714284</ele><time>2026-05-03T07:56:23.987Z</time></trkpt><trkpt lat="42.3656241" lon="13.5305852"><ele>1166.7142857142858</ele><time>2026-05-03T07:56:24.987Z</time></trkpt><trkpt lat="42.3656334" lon="13.530682"><ele>1167.857142857143</ele><time>2026-05-03T07:56:25.988Z</time></trkpt><trkpt lat="42.365641" lon="13.5307761"><ele>1169.0</ele><time>2026-05-03T07:56:26.987Z</time></trkpt><trkpt lat="42.3656493" lon="13.5308621"><ele>1169.8</ele><time>2026-05-03T07:56:27.987Z</time></trkpt><trkpt lat="42.3656783" lon="13.5310263"><ele>1170.6000000000001</ele><time>2026-05-03T07:56:29.987Z</time></trkpt><trkpt lat="42.3656984" lon="13.5311072"><ele>1171.4</ele><time>2026-05-03T07:56:30.987Z</time></trkpt><trkpt lat="42.3657463" lon="13.5312545"><ele>1172.2</ele><time>2026-05-03T07:56:32.988Z</time></trkpt><trkpt lat="42.3658158" lon="13.5313948"><ele>1173.0</ele><time>2026-05-03T07:56:34.987Z</time></trkpt><trkpt lat="42.3658521" lon="13.5314668"><ele>1173.7142857142858</ele><time>2026-05-03T07:56:35.988Z</time></trkpt><trkpt lat="42.3658834" lon="13.5315426"><ele>1174.4285714285716</ele><time>2026-05-03T07:56:36.987Z</time></trkpt><trkpt lat="42.3659135" lon="13.5316223"><ele>1175.142857142857</ele><time>2026-05-03T07:56:37.988Z</time></trkpt><trkpt lat="42.3659398" lon="13.5317021"><ele>1175.857142857143</ele><time>2026-05-03T07:56:38.988Z</time></trkpt><trkpt lat="42.365965" lon="13.53179"><ele>1176.5714285714284</ele><time>2026-05-03T07:56:39.987Z</time></trkpt><trkpt lat="42.3659923" lon="13.5318832"><ele>1177.2857142857142</ele><time>2026-05-03T07:56:40.988Z</time></trkpt><trkpt lat="42.3660139" lon="13.5319744"><ele>1178.0</ele><time>2026-05-03T07:56:41.988Z</time></trkpt><trkpt lat="42.3660236" lon="13.5320589"><ele>1178.142857142857</ele><time>2026-05-03T07:56:42.987Z</time></trkpt><trkpt lat="42.3660244" lon="13.5321493"><ele>1178.2857142857142</ele><time>2026-05-03T07:56:43.988Z</time></trkpt><trkpt lat="42.3660194" lon="13.5322432"><ele>1178.4285714285713</ele><time>2026-05-03T07:56:44.988Z</time></trkpt><trkpt lat="42.3660118" lon="13.5323344"><ele>1178.5714285714284</ele><time>2026-05-03T07:56:45.988Z</time></trkpt><trkpt lat="42.3659937" lon="13.53242"><ele>1178.7142857142858</ele><time>2026-05-03T07:56:46.988Z</time></trkpt><trkpt lat="42.3659626" lon="13.5324993"><ele>1178.8571428571427</ele><time>2026-05-03T07:56:47.988Z</time></trkpt><trkpt lat="42.3659226" lon="13.5325755"><ele>1179.0</ele><time>2026-05-03T07:56:48.988Z</time></trkpt><trkpt lat="42.3658737" lon="13.5326534"><ele>1179.0</ele><time>2026-05-03T07:56:49.987Z</time></trkpt><trkpt lat="42.3658186" lon="13.5327306"><ele>1179.0</ele><time>2026-05-03T07:56:50.987Z</time></trkpt><trkpt lat="42.3657593" lon="13.5328024"><ele>1179.0</ele><time>2026-05-03T07:56:51.988Z</time></trkpt><trkpt lat="42.3656993" lon="13.5328659"><ele>1179.0</ele><time>2026-05-03T07:56:52.988Z</time></trkpt><trkpt lat="42.3656351" lon="13.5329153"><ele>1179.0</ele><time>2026-05-03T07:56:53.987Z</time></trkpt><trkpt lat="42.3655611" lon="13.5329634"><ele>1179.0</ele><time>2026-05-03T07:56:54.987Z</time></trkpt><trkpt lat="42.3654863" lon="13.5330135"><ele>1183.0</ele><time>2026-05-03T07:56:55.987Z</time></trkpt><trkpt lat="42.3654109" lon="13.533075"><ele>1187.0</ele><time>2026-05-03T07:56:56.988Z</time></trkpt><trkpt lat="42.3653383" lon="13.533143"><ele>1191.0</ele><time>2026-05-03T07:56:57.987Z</time></trkpt><trkpt lat="42.3652734" lon="13.5332191"><ele>1195.0</ele><time>2026-05-03T07:56:58.987Z</time></trkpt><trkpt lat="42.3652145" lon="13.5333108"><ele>1199.0</ele><time>2026-05-03T07:56:59.987Z</time></trkpt><trkpt lat="42.3651646" lon="13.53341"><ele>1203.0</ele><time>2026-05-03T07:57:00.988Z</time></trkpt><trkpt lat="42.365121" lon="13.5335063"><ele>1203.0</ele><time>2026-05-03T07:57:01.987Z</time></trkpt><trkpt lat="42.3650841" lon="13.5336087"><ele>1203.0</ele><time>2026-05-03T07:57:02.987Z</time></trkpt><trkpt lat="42.3650598" lon="13.5337182"><ele>1203.0</ele><time>2026-05-03T07:57:03.988Z</time></trkpt><trkpt lat="42.3650476" lon="13.5338312"><ele>1203.0</ele><time>2026-05-03T07:57:04.987Z</time></trkpt><trkpt lat="42.3650403" lon="13.5339439"><ele>1203.0</ele><time>2026-05-03T07:57:05.988Z</time></trkpt><trkpt lat="42.3650284" lon="13.5340592"><ele>1203.0</ele><time>2026-05-03T07:57:06.987Z</time></trkpt><trkpt lat="42.3650134" lon="13.5341835"><ele>1204.0</ele><time>2026-05-03T07:57:07.988Z</time></trkpt><trkpt lat="42.3650017" lon="13.5343156"><ele>1205.0</ele><time>2026-05-03T07:57:08.987Z</time></trkpt><trkpt lat="42.3649923" lon="13.5344476"><ele>1206.0</ele><time>2026-05-03T07:57:09.987Z</time></trkpt><trkpt lat="42.3649891" lon="13.5345815"><ele>1207.0</ele><time>2026-05-03T07:57:10.987Z</time></trkpt><trkpt lat="42.3649897" lon="13.5347165"><ele>1208.0</ele><time>2026-05-03T07:57:11.988Z</time></trkpt><trkpt lat="42.3649889" lon="13.5348462"><ele>1208.8333333333335</ele><time>2026-05-03T07:57:12.987Z</time></trkpt><trkpt lat="42.3649904" lon="13.5349625"><ele>1209.6666666666667</ele><time>2026-05-03T07:57:13.987Z</time></trkpt><trkpt lat="42.3649884" lon="13.5350769"><ele>1210.5</ele><time>2026-05-03T07:57:14.987Z</time></trkpt><trkpt lat="42.3649806" lon="13.5351976"><ele>1211.3333333333333</ele><time>2026-05-03T07:57:15.987Z</time></trkpt><trkpt lat="42.3649643" lon="13.5353187"><ele>1212.1666666666665</ele><time>2026-05-03T07:57:16.988Z</time></trkpt><trkpt lat="42.3649403" lon="13.5354365"><ele>1213.0</ele><time>2026-05-03T07:57:17.988Z</time></trkpt><trkpt lat="42.3649158" lon="13.5355527"><ele>1213.2</ele><time>2026-05-03T07:57:18.988Z</time></trkpt><trkpt lat="42.3648893" lon="13.5356761"><ele>1213.4</ele><time>2026-05-03T07:57:19.988Z</time></trkpt><trkpt lat="42.36486" lon="13.5357981"><ele>1213.6000000000001</ele><time>2026-05-03T07:57:20.987Z</time></trkpt><trkpt lat="42.36483" lon="13.5359212"><ele>1213.8</ele><time>2026-05-03T07:57:21.987Z</time></trkpt><trkpt lat="42.3647998" lon="13.536051"><ele>1214.0</ele><time>2026-05-03T07:57:22.988Z</time></trkpt><trkpt lat="42.3647678" lon="13.5361805"><ele>1214.4</ele><time>2026-05-03T07:57:23.988Z</time></trkpt><trkpt lat="42.3647367" lon="13.5363134"><ele>1214.8000000000002</ele><time>2026-05-03T07:57:24.988Z</time></trkpt><trkpt lat="42.3647126" lon="13.5364379"><ele>1215.1999999999998</ele><time>2026-05-03T07:57:25.987Z</time></trkpt><trkpt lat="42.3646994" lon="13.536559"><ele>1215.6</ele><time>2026-05-03T07:57:26.987Z</time></trkpt><trkpt lat="42.3646845" lon="13.5366841"><ele>1216.0</ele><time>2026-05-03T07:57:27.987Z</time></trkpt><trkpt lat="42.3646558" lon="13.5367964"><ele>1216.0</ele><time>2026-05-03T07:57:28.988Z</time></trkpt><trkpt lat="42.3646185" lon="13.5369007"><ele>1216.0</ele><time>2026-05-03T07:57:29.988Z</time></trkpt><trkpt lat="42.3645743" lon="13.5370073"><ele>1216.0</ele><time>2026-05-03T07:57:30.988Z</time></trkpt><trkpt lat="42.3645232" lon="13.5371155"><ele>1216.0</ele><time>2026-05-03T07:57:31.987Z</time></trkpt><trkpt lat="42.3644717" lon="13.5372209"><ele>1216.0</ele><time>2026-05-03T07:57:32.987Z</time></trkpt><trkpt lat="42.3644222" lon="13.5373237"><ele>1216.6</ele><time>2026-05-03T07:57:33.988Z</time></trkpt><trkpt lat="42.3643687" lon="13.5374228"><ele>1217.1999999999998</ele><time>2026-05-03T07:57:34.987Z</time></trkpt><trkpt lat="42.3643125" lon="13.5375129"><ele>1217.8000000000002</ele><time>2026-05-03T07:57:35.988Z</time></trkpt><trkpt lat="42.3642554" lon="13.5376076"><ele>1218.4</ele><time>2026-05-03T07:57:36.988Z</time></trkpt><trkpt lat="42.3641959" lon="13.5377143"><ele>1219.0</ele><time>2026-05-03T07:57:37.987Z</time></trkpt><trkpt lat="42.3641381" lon="13.5378314"><ele>1220.0</ele><time>2026-05-03T07:57:38.987Z</time></trkpt><trkpt lat="42.3640804" lon="13.537952"><ele>1221.0</ele><time>2026-05-03T07:57:39.987Z</time></trkpt><trkpt lat="42.3640218" lon="13.5380636"><ele>1222.0</ele><time>2026-05-03T07:57:40.988Z</time></trkpt><trkpt lat="42.3639588" lon="13.5381657"><ele>1223.0</ele><time>2026-05-03T07:57:41.987Z</time></trkpt><trkpt lat="42.3638865" lon="13.5382591"><ele>1224.0</ele><time>2026-05-03T07:57:42.988Z</time></trkpt><trkpt lat="42.363809" lon="13.5383471"><ele>1224.0</ele><time>2026-05-03T07:57:43.988Z</time></trkpt><trkpt lat="42.3637331" lon="13.5384366"><ele>1224.0</ele><time>2026-05-03T07:57:44.988Z</time></trkpt><trkpt lat="42.3636592" lon="13.5385327"><ele>1224.0</ele><time>2026-05-03T07:57:45.988Z</time></trkpt><trkpt lat="42.3635832" lon="13.538626"><ele>1224.0</ele><time>2026-05-03T07:57:46.988Z</time></trkpt><trkpt lat="42.3635074" lon="13.5387189"><ele>1224.0</ele><time>2026-05-03T07:57:47.988Z</time></trkpt><trkpt lat="42.3634324" lon="13.538816"><ele>1225.0</ele><time>2026-05-03T07:57:48.988Z</time></trkpt><trkpt lat="42.3633523" lon="13.5389193"><ele>1226.0</ele><time>2026-05-03T07:57:49.988Z</time></trkpt><trkpt lat="42.3632686" lon="13.5390365"><ele>1227.0</ele><time>2026-05-03T07:57:50.988Z</time></trkpt><trkpt lat="42.3631796" lon="13.5391641"><ele>1228.0</ele><time>2026-05-03T07:57:51.988Z</time></trkpt><trkpt lat="42.3630899" lon="13.5392942"><ele>1228.25</ele><time>2026-05-03T07:57:52.987Z</time></trkpt><trkpt lat="42.3629971" lon="13.5394252"><ele>1228.5</ele><time>2026-05-03T07:57:53.987Z</time></trkpt><trkpt lat="42.3628996" lon="13.5395575"><ele>1228.75</ele><time>2026-05-03T07:57:54.988Z</time></trkpt><trkpt lat="42.3628063" lon="13.5396854"><ele>1229.0</ele><time>2026-05-03T07:57:55.987Z</time></trkpt><trkpt lat="42.3627199" lon="13.5398092"><ele>1228.25</ele><time>2026-05-03T07:57:56.987Z</time></trkpt><trkpt lat="42.3626378" lon="13.5399339"><ele>1227.5</ele><time>2026-05-03T07:57:57.987Z</time></trkpt><trkpt lat="42.3625652" lon="13.5400688"><ele>1226.75</ele><time>2026-05-03T07:57:58.987Z</time></trkpt><trkpt lat="42.3625008" lon="13.5402135"><ele>1226.0</ele><time>2026-05-03T07:57:59.988Z</time></trkpt><trkpt lat="42.3624464" lon="13.5403734"><ele>1227.0</ele><time>2026-05-03T07:58:00.987Z</time></trkpt><trkpt lat="42.3623989" lon="13.5405381"><ele>1228.0</ele><time>2026-05-03T07:58:01.987Z</time></trkpt><trkpt lat="42.3623563" lon="13.5407017"><ele>1229.0</ele><time>2026-05-03T07:58:02.988Z</time></trkpt><trkpt lat="42.362312" lon="13.5408694"><ele>1230.0</ele><time>2026-05-03T07:58:03.988Z</time></trkpt><trkpt lat="42.3622672" lon="13.5410383"><ele>1230.0</ele><time>2026-05-03T07:58:04.987Z</time></trkpt><trkpt lat="42.3622207" lon="13.5412083"><ele>1230.0</ele><time>2026-05-03T07:58:05.988Z</time></trkpt><trkpt lat="42.3621712" lon="13.5413812"><ele>1230.0</ele><time>2026-05-03T07:58:06.987Z</time></trkpt><trkpt lat="42.3621203" lon="13.5415604"><ele>1230.0</ele><time>2026-05-03T07:58:07.988Z</time></trkpt><trkpt lat="42.3620687" lon="13.5417394"><ele>1230.0</ele><time>2026-05-03T07:58:08.987Z</time></trkpt><trkpt lat="42.3620171" lon="13.5419185"><ele>1230.0</ele><time>2026-05-03T07:58:09.988Z</time></trkpt><trkpt lat="42.3619696" lon="13.5420945"><ele>1230.0</ele><time>2026-05-03T07:58:10.988Z</time></trkpt><trkpt lat="42.361925" lon="13.5422645"><ele>1230.0</ele><time>2026-05-03T07:58:11.987Z</time></trkpt><trkpt lat="42.3618783" lon="13.5424227"><ele>1230.0</ele><time>2026-05-03T07:58:12.988Z</time></trkpt><trkpt lat="42.3618326" lon="13.5425646"><ele>1230.0</ele><time>2026-05-03T07:58:13.988Z</time></trkpt><trkpt lat="42.3617979" lon="13.5427027"><ele>1230.0</ele><time>2026-05-03T07:58:14.987Z</time></trkpt><trkpt lat="42.361779" lon="13.5428571"><ele>1230.0</ele><time>2026-05-03T07:58:15.988Z</time></trkpt><trkpt lat="42.3617768" lon="13.5430282"><ele>1230.0</ele><time>2026-05-03T07:58:16.987Z</time></trkpt><trkpt lat="42.3617812" lon="13.543198"><ele>1230.0</ele><time>2026-05-03T07:58:17.988Z</time></trkpt><trkpt lat="42.3617773" lon="13.5433591"><ele>1230.0</ele><time>2026-05-03T07:58:18.987Z</time></trkpt><trkpt lat="42.361764" lon="13.5435147"><ele>1230.0</ele><time>2026-05-03T07:58:19.988Z</time></trkpt><trkpt lat="42.3617313" lon="13.5436682"><ele>1230.75</ele><time>2026-05-03T07:58:20.988Z</time></trkpt><trkpt lat="42.3616915" lon="13.5438177"><ele>1231.5</ele><time>2026-05-03T07:58:21.988Z</time></trkpt><trkpt lat="42.3616501" lon="13.5439636"><ele>1232.25</ele><time>2026-05-03T07:58:22.988Z</time></trkpt><trkpt lat="42.3616203" lon="13.544107"><ele>1233.0</ele><time>2026-05-03T07:58:23.987Z</time></trkpt><trkpt lat="42.3616013" lon="13.5442539"><ele>1233.0</ele><time>2026-05-03T07:58:24.988Z</time></trkpt><trkpt lat="42.3615798" lon="13.5443977"><ele>1233.0</ele><time>2026-05-03T07:58:25.988Z</time></trkpt><trkpt lat="42.3615551" lon="13.5445338"><ele>1233.0</ele><time>2026-05-03T07:58:26.988Z</time></trkpt><trkpt lat="42.3615387" lon="13.5446579"><ele>1233.0</ele><time>2026-05-03T07:58:27.988Z</time></trkpt><trkpt lat="42.3615242" lon="13.5447849"><ele>1233.0</ele><time>2026-05-03T07:58:28.987Z</time></trkpt><trkpt lat="42.3615185" lon="13.5449098"><ele>1233.4</ele><time>2026-05-03T07:58:29.987Z</time></trkpt><trkpt lat="42.361522" lon="13.5450368"><ele>1233.8</ele><time>2026-05-03T07:58:30.988Z</time></trkpt><trkpt lat="42.3615349" lon="13.5451673"><ele>1234.2</ele><time>2026-05-03T07:58:31.987Z</time></trkpt><trkpt lat="42.3615463" lon="13.5452983"><ele>1234.6</ele><time>2026-05-03T07:58:32.988Z</time></trkpt><trkpt lat="42.3615462" lon="13.5454206"><ele>1235.0</ele><time>2026-05-03T07:58:33.988Z</time></trkpt><trkpt lat="42.3615361" lon="13.5455437"><ele>1235.0</ele><time>2026-05-03T07:58:34.987Z</time></trkpt><trkpt lat="42.3615235" lon="13.5456637"><ele>1235.0</ele><time>2026-05-03T07:58:35.988Z</time></trkpt><trkpt lat="42.3615127" lon="13.5457823"><ele>1235.0</ele><time>2026-05-03T07:58:36.988Z</time></trkpt><trkpt lat="42.3615125" lon="13.5459014"><ele>1235.0</ele><time>2026-05-03T07:58:37.987Z</time></trkpt><trkpt lat="42.3615277" lon="13.5460185"><ele>1235.0</ele><time>2026-05-03T07:58:38.987Z</time></trkpt><trkpt lat="42.3615447" lon="13.5461254"><ele>1235.0</ele><time>2026-05-03T07:58:39.988Z</time></trkpt><trkpt lat="42.3615627" lon="13.5462164"><ele>1234.7142857142856</ele><time>2026-05-03T07:58:40.988Z</time></trkpt><trkpt lat="42.3615692" lon="13.5463149"><ele>1234.4285714285713</ele><time>2026-05-03T07:58:41.988Z</time></trkpt><trkpt lat="42.3615646" lon="13.5464131"><ele>1234.142857142857</ele><time>2026-05-03T07:58:42.987Z</time></trkpt><trkpt lat="42.3615496" lon="13.5465132"><ele>1233.8571428571427</ele><time>2026-05-03T07:58:43.988Z</time></trkpt><trkpt lat="42.3615283" lon="13.5466081"><ele>1233.5714285714284</ele><time>2026-05-03T07:58:44.987Z</time></trkpt><trkpt lat="42.3614925" lon="13.5466979"><ele>1233.2857142857142</ele><time>2026-05-03T07:58:45.987Z</time></trkpt><trkpt lat="42.3614484" lon="13.546784"><ele>1233.0</ele><time>2026-05-03T07:58:46.987Z</time></trkpt><trkpt lat="42.3613955" lon="13.5468599"><ele>1233.1666666666667</ele><time>2026-05-03T07:58:47.987Z</time></trkpt><trkpt lat="42.3613498" lon="13.5469411"><ele>1233.3333333333333</ele><time>2026-05-03T07:58:48.988Z</time></trkpt><trkpt lat="42.3613108" lon="13.5470355"><ele>1233.5</ele><time>2026-05-03T07:58:49.988Z</time></trkpt><trkpt lat="42.3612777" lon="13.5471307"><ele>1233.6666666666665</ele><time>2026-05-03T07:58:50.988Z</time></trkpt><trkpt lat="42.3612505" lon="13.5472379"><ele>1233.8333333333333</ele><time>2026-05-03T07:58:51.988Z</time></trkpt><trkpt lat="42.3612109" lon="13.5473543"><ele>1234.0</ele><time>2026-05-03T07:58:52.988Z</time></trkpt><trkpt lat="42.3611587" lon="13.5474653"><ele>1232.5</ele><time>2026-05-03T07:58:53.988Z</time></trkpt><trkpt lat="42.3611112" lon="13.547573"><ele>1231.0</ele><time>2026-05-03T07:58:54.988Z</time></trkpt><trkpt lat="42.3610656" lon="13.5476758"><ele>1229.5</ele><time>2026-05-03T07:58:55.987Z</time></trkpt><trkpt lat="42.3610245" lon="13.5477788"><ele>1228.0</ele><time>2026-05-03T07:58:56.987Z</time></trkpt><trkpt lat="42.3609822" lon="13.5478756"><ele>1226.5</ele><time>2026-05-03T07:58:57.987Z</time></trkpt><trkpt lat="42.360929" lon="13.5479494"><ele>1225.0</ele><time>2026-05-03T07:58:58.988Z</time></trkpt><trkpt lat="42.3608727" lon="13.548021"><ele>1225.0</ele><time>2026-05-03T07:58:59.988Z</time></trkpt><trkpt lat="42.3608124" lon="13.5481002"><ele>1225.0</ele><time>2026-05-03T07:59:00.988Z</time></trkpt><trkpt lat="42.3607593" lon="13.5481933"><ele>1225.0</ele><time>2026-05-03T07:59:01.988Z</time></trkpt><trkpt lat="42.3607102" lon="13.5483053"><ele>1225.0</ele><time>2026-05-03T07:59:02.988Z</time></trkpt><trkpt lat="42.3606641" lon="13.5484308"><ele>1225.0</ele><time>2026-05-03T07:59:03.988Z</time></trkpt><trkpt lat="42.360625" lon="13.5485616"><ele>1225.0</ele><time>2026-05-03T07:59:04.987Z</time></trkpt><trkpt lat="42.3605916" lon="13.5487035"><ele>1225.0</ele><time>2026-05-03T07:59:05.988Z</time></trkpt><trkpt lat="42.3605663" lon="13.5488439"><ele>1225.0</ele><time>2026-05-03T07:59:06.988Z</time></trkpt><trkpt lat="42.3605465" lon="13.5489821"><ele>1225.0</ele><time>2026-05-03T07:59:07.988Z</time></trkpt><trkpt lat="42.360528" lon="13.5491202"><ele>1225.0</ele><time>2026-05-03T07:59:08.988Z</time></trkpt><trkpt lat="42.3605077" lon="13.5492528"><ele>1223.6</ele><time>2026-05-03T07:59:09.987Z</time></trkpt><trkpt lat="42.3604803" lon="13.5493802"><ele>1222.2</ele><time>2026-05-03T07:59:10.988Z</time></trkpt><trkpt lat="42.3604473" lon="13.5495028"><ele>1220.8</ele><time>2026-05-03T07:59:11.987Z</time></trkpt><trkpt lat="42.3604209" lon="13.5496265"><ele>1219.4</ele><time>2026-05-03T07:59:12.987Z</time></trkpt><trkpt lat="42.3604001" lon="13.5497522"><ele>1218.0</ele><time>2026-05-03T07:59:13.987Z</time></trkpt><trkpt lat="42.3603771" lon="13.5498826"><ele>1217.4</ele><time>2026-05-03T07:59:14.987Z</time></trkpt><trkpt lat="42.360357" lon="13.550013"><ele>1216.8</ele><time>2026-05-03T07:59:15.987Z</time></trkpt><trkpt lat="42.3603353" lon="13.5501462"><ele>1216.2</ele><time>2026-05-03T07:59:16.987Z</time></trkpt><trkpt lat="42.3603113" lon="13.5502803"><ele>1215.6</ele><time>2026-05-03T07:59:17.988Z</time></trkpt><trkpt lat="42.3602893" lon="13.5504063"><ele>1215.0</ele><time>2026-05-03T07:59:18.987Z</time></trkpt><trkpt lat="42.360268" lon="13.5505274"><ele>1214.6666666666667</ele><time>2026-05-03T07:59:19.988Z</time></trkpt><trkpt lat="42.3602469" lon="13.5506438"><ele>1214.3333333333333</ele><time>2026-05-03T07:59:20.987Z</time></trkpt><trkpt lat="42.3602242" lon="13.5507522"><ele>1214.0</ele><time>2026-05-03T07:59:21.987Z</time></trkpt><trkpt lat="42.360197" lon="13.5508616"><ele>1213.6666666666665</ele><time>2026-05-03T07:59:22.988Z</time></trkpt><trkpt lat="42.360173" lon="13.5509625"><ele>1213.3333333333333</ele><time>2026-05-03T07:59:23.988Z</time></trkpt><trkpt lat="42.3601549" lon="13.5510507"><ele>1213.0</ele><time>2026-05-03T07:59:24.987Z</time></trkpt><trkpt lat="42.3601357" lon="13.5511366"><ele>1212.8</ele><time>2026-05-03T07:59:25.988Z</time></trkpt><trkpt lat="42.36011" lon="13.5512423"><ele>1212.6</ele><time>2026-05-03T07:59:26.987Z</time></trkpt><trkpt lat="42.3600842" lon="13.5513661"><ele>1212.4</ele><time>2026-05-03T07:59:27.988Z</time></trkpt><trkpt lat="42.3600587" lon="13.551501"><ele>1212.2</ele><time>2026-05-03T07:59:28.987Z</time></trkpt><trkpt lat="42.3600284" lon="13.5516466"><ele>1212.0</ele><time>2026-05-03T07:59:29.987Z</time></trkpt><trkpt lat="42.3599878" lon="13.5517953"><ele>1212.0</ele><time>2026-05-03T07:59:30.988Z</time></trkpt><trkpt lat="42.3599405" lon="13.5519351"><ele>1212.0</ele><time>2026-05-03T07:59:31.987Z</time></trkpt><trkpt lat="42.3598991" lon="13.5520714"><ele>1212.0</ele><time>2026-05-03T07:59:32.987Z</time></trkpt><trkpt lat="42.3598584" lon="13.5522016"><ele>1212.0</ele><time>2026-05-03T07:59:33.988Z</time></trkpt><trkpt lat="42.3598043" lon="13.5523243"><ele>1212.0</ele><time>2026-05-03T07:59:34.987Z</time></trkpt><trkpt lat="42.3597411" lon="13.5524425"><ele>1211.75</ele><time>2026-05-03T07:59:35.988Z</time></trkpt><trkpt lat="42.3596784" lon="13.5525624"><ele>1211.5</ele><time>2026-05-03T07:59:36.988Z</time></trkpt><trkpt lat="42.3596138" lon="13.5526886"><ele>1211.25</ele><time>2026-05-03T07:59:37.987Z</time></trkpt><trkpt lat="42.3595487" lon="13.5528257"><ele>1211.0</ele><time>2026-05-03T07:59:38.988Z</time></trkpt><trkpt lat="42.3594833" lon="13.5529675"><ele>1211.0</ele><time>2026-05-03T07:59:39.988Z</time></trkpt><trkpt lat="42.3594213" lon="13.5531152"><ele>1211.0</ele><time>2026-05-03T07:59:40.987Z</time></trkpt><trkpt lat="42.3593642" lon="13.5532768"><ele>1211.0</ele><time>2026-05-03T07:59:41.987Z</time></trkpt><trkpt lat="42.3593124" lon="13.5534491"><ele>1211.0</ele><time>2026-05-03T07:59:42.988Z</time></trkpt><trkpt lat="42.3592675" lon="13.5536193"><ele>1211.25</ele><time>2026-05-03T07:59:43.988Z</time></trkpt><trkpt lat="42.3592221" lon="13.5537758"><ele>1211.5</ele><time>2026-05-03T07:59:44.988Z</time></trkpt><trkpt lat="42.3591676" lon="13.5539299"><ele>1211.75</ele><time>2026-05-03T07:59:45.988Z</time></trkpt><trkpt lat="42.3590969" lon="13.5540931"><ele>1212.0</ele><time>2026-05-03T07:59:46.987Z</time></trkpt><trkpt lat="42.3590223" lon="13.5542551"><ele>1212.0</ele><time>2026-05-03T07:59:47.987Z</time></trkpt><trkpt lat="42.3589559" lon="13.5544096"><ele>1212.0</ele><time>2026-05-03T07:59:48.988Z</time></trkpt><trkpt lat="42.3588982" lon="13.5545497"><ele>1212.0</ele><time>2026-05-03T07:59:49.987Z</time></trkpt><trkpt lat="42.3588458" lon="13.5546807"><ele>1212.0</ele><time>2026-05-03T07:59:50.987Z</time></trkpt><trkpt lat="42.3587937" lon="13.5548169"><ele>1213.25</ele><time>2026-05-03T07:59:51.988Z</time></trkpt><trkpt lat="42.35874" lon="13.5549684"><ele>1214.5</ele><time>2026-05-03T07:59:52.988Z</time></trkpt><trkpt lat="42.3586893" lon="13.5551298"><ele>1215.75</ele><time>2026-05-03T07:59:53.988Z</time></trkpt><trkpt lat="42.3586414" lon="13.5552793"><ele>1217.0</ele><time>2026-05-03T07:59:54.988Z</time></trkpt><trkpt lat="42.3585932" lon="13.5554215"><ele>1217.0</ele><time>2026-05-03T07:59:55.987Z</time></trkpt><trkpt lat="42.3585511" lon="13.555566"><ele>1217.0</ele><time>2026-05-03T07:59:56.987Z</time></trkpt><trkpt lat="42.3585098" lon="13.5557041"><ele>1217.0</ele><time>2026-05-03T07:59:57.988Z</time></trkpt><trkpt lat="42.3584722" lon="13.5558391"><ele>1217.0</ele><time>2026-05-03T07:59:58.987Z</time></trkpt><trkpt lat="42.3584485" lon="13.5559577"><ele>1217.0</ele><time>2026-05-03T07:59:59.987Z</time></trkpt><trkpt lat="42.3584384" lon="13.5560811"><ele>1215.8</ele><time>2026-05-03T08:00:00.987Z</time></trkpt><trkpt lat="42.3584376" lon="13.5562066"><ele>1214.6</ele><time>2026-05-03T08:00:01.987Z</time></trkpt><trkpt lat="42.3584409" lon="13.5563414"><ele>1213.3999999999999</ele><time>2026-05-03T08:00:02.987Z</time></trkpt><trkpt lat="42.3584498" lon="13.5564661"><ele>1212.2</ele><time>2026-05-03T08:00:03.987Z</time></trkpt><trkpt lat="42.3584647" lon="13.5565886"><ele>1211.0</ele><time>2026-05-03T08:00:04.988Z</time></trkpt><trkpt lat="42.3584774" lon="13.5567081"><ele>1211.0</ele><time>2026-05-03T08:00:05.987Z</time></trkpt><trkpt lat="42.3584865" lon="13.5568222"><ele>1211.0</ele><time>2026-05-03T08:00:06.988Z</time></trkpt><trkpt lat="42.358505" lon="13.5569316"><ele>1211.0</ele><time>2026-05-03T08:00:07.987Z</time></trkpt><trkpt lat="42.3585356" lon="13.5570391"><ele>1211.0</ele><time>2026-05-03T08:00:08.988Z</time></trkpt><trkpt lat="42.3585801" lon="13.5571458"><ele>1211.0</ele><time>2026-05-03T08:00:09.988Z</time></trkpt><trkpt lat="42.3586312" lon="13.5572474"><ele>1211.0</ele><time>2026-05-03T08:00:10.988Z</time></trkpt><trkpt lat="42.3586843" lon="13.5573413"><ele>1211.0</ele><time>2026-05-03T08:00:11.988Z</time></trkpt><trkpt lat="42.358732" lon="13.5574511"><ele>1211.0</ele><time>2026-05-03T08:00:12.988Z</time></trkpt><trkpt lat="42.3587723" lon="13.5575694"><ele>1211.0</ele><time>2026-05-03T08:00:13.987Z</time></trkpt><trkpt lat="42.3587992" lon="13.5576885"><ele>1211.0</ele><time>2026-05-03T08:00:14.988Z</time></trkpt><trkpt lat="42.3588128" lon="13.5578158"><ele>1211.0</ele><time>2026-05-03T08:00:15.988Z</time></trkpt><trkpt lat="42.3588177" lon="13.5579485"><ele>1210.8</ele><time>2026-05-03T08:00:16.988Z</time></trkpt><trkpt lat="42.3588187" lon="13.5580713"><ele>1210.6</ele><time>2026-05-03T08:00:17.987Z</time></trkpt><trkpt lat="42.3588264" lon="13.5581944"><ele>1210.4</ele><time>2026-05-03T08:00:18.988Z</time></trkpt><trkpt lat="42.358842" lon="13.5583157"><ele>1210.2</ele><time>2026-05-03T08:00:19.987Z</time></trkpt><trkpt lat="42.358865" lon="13.5584287"><ele>1210.0</ele><time>2026-05-03T08:00:20.988Z</time></trkpt><trkpt lat="42.3588904" lon="13.5585528"><ele>1209.4</ele><time>2026-05-03T08:00:21.987Z</time></trkpt><trkpt lat="42.3589161" lon="13.5586833"><ele>1208.8</ele><time>2026-05-03T08:00:22.988Z</time></trkpt><trkpt lat="42.3589415" lon="13.5588029"><ele>1208.2</ele><time>2026-05-03T08:00:23.988Z</time></trkpt><trkpt lat="42.3589645" lon="13.5589202"><ele>1207.6</ele><time>2026-05-03T08:00:24.988Z</time></trkpt><trkpt lat="42.3589886" lon="13.5590353"><ele>1207.0</ele><time>2026-05-03T08:00:25.987Z</time></trkpt><trkpt lat="42.3590072" lon="13.5591451"><ele>1206.1666666666665</ele><time>2026-05-03T08:00:26.988Z</time></trkpt><trkpt lat="42.3590234" lon="13.5592544"><ele>1205.3333333333333</ele><time>2026-05-03T08:00:27.987Z</time></trkpt><trkpt lat="42.3590309" lon="13.5593715"><ele>1204.5</ele><time>2026-05-03T08:00:28.988Z</time></trkpt><trkpt lat="42.3590234" lon="13.5594902"><ele>1203.6666666666667</ele><time>2026-05-03T08:00:29.988Z</time></trkpt><trkpt lat="42.3590095" lon="13.5596127"><ele>1202.8333333333335</ele><time>2026-05-03T08:00:30.987Z</time></trkpt><trkpt lat="42.3589942" lon="13.5597347"><ele>1202.0</ele><time>2026-05-03T08:00:31.987Z</time></trkpt><trkpt lat="42.3589777" lon="13.5598581"><ele>1202.0</ele><time>2026-05-03T08:00:32.988Z</time></trkpt><trkpt lat="42.3589614" lon="13.5599838"><ele>1202.0</ele><time>2026-05-03T08:00:33.988Z</time></trkpt><trkpt lat="42.358949" lon="13.560117"><ele>1202.0</ele><time>2026-05-03T08:00:34.988Z</time></trkpt><trkpt lat="42.3589383" lon="13.5602508"><ele>1202.0</ele><time>2026-05-03T08:00:35.987Z</time></trkpt><trkpt lat="42.358932" lon="13.5603817"><ele>1202.0</ele><time>2026-05-03T08:00:36.987Z</time></trkpt><trkpt lat="42.3589291" lon="13.5605207"><ele>1201.8</ele><time>2026-05-03T08:00:37.987Z</time></trkpt><trkpt lat="42.3589282" lon="13.5606576"><ele>1201.6</ele><time>2026-05-03T08:00:38.987Z</time></trkpt><trkpt lat="42.3589286" lon="13.5607905"><ele>1201.3999999999999</ele><time>2026-05-03T08:00:39.987Z</time></trkpt><trkpt lat="42.3589261" lon="13.5609243"><ele>1201.2</ele><time>2026-05-03T08:00:40.987Z</time></trkpt><trkpt lat="42.3589239" lon="13.5610501"><ele>1201.0</ele><time>2026-05-03T08:00:41.988Z</time></trkpt><trkpt lat="42.358923" lon="13.561166"><ele>1200.5</ele><time>2026-05-03T08:00:42.987Z</time></trkpt><trkpt lat="42.3589202" lon="13.5612803"><ele>1200.0</ele><time>2026-05-03T08:00:43.987Z</time></trkpt><trkpt lat="42.3589154" lon="13.5613974"><ele>1199.5</ele><time>2026-05-03T08:00:44.988Z</time></trkpt><trkpt lat="42.3589116" lon="13.5615137"><ele>1199.0</ele><time>2026-05-03T08:00:45.987Z</time></trkpt><trkpt lat="42.3589088" lon="13.561631"><ele>1198.5</ele><time>2026-05-03T08:00:46.988Z</time></trkpt><trkpt lat="42.3589047" lon="13.5617503"><ele>1198.0</ele><time>2026-05-03T08:00:47.987Z</time></trkpt><trkpt lat="42.3588998" lon="13.561871"><ele>1198.0</ele><time>2026-05-03T08:00:48.988Z</time></trkpt><trkpt lat="42.3588956" lon="13.5619953"><ele>1198.0</ele><time>2026-05-03T08:00:49.987Z</time></trkpt><trkpt lat="42.3588918" lon="13.5621205"><ele>1198.0</ele><time>2026-05-03T08:00:50.987Z</time></trkpt><trkpt lat="42.3588875" lon="13.5622422"><ele>1198.0</ele><time>2026-05-03T08:00:51.988Z</time></trkpt><trkpt lat="42.3588844" lon="13.5623617"><ele>1198.0</ele><time>2026-05-03T08:00:52.988Z</time></trkpt><trkpt lat="42.3588855" lon="13.5624833"><ele>1198.0</ele><time>2026-05-03T08:00:53.988Z</time></trkpt><trkpt lat="42.3588888" lon="13.5626076"><ele>1198.0</ele><time>2026-05-03T08:00:54.987Z</time></trkpt><trkpt lat="42.358894" lon="13.5627303"><ele>1198.0</ele><time>2026-05-03T08:00:55.988Z</time></trkpt><trkpt lat="42.3589012" lon="13.5628527"><ele>1198.0</ele><time>2026-05-03T08:00:56.988Z</time></trkpt><trkpt lat="42.3589121" lon="13.562979"><ele>1198.0</ele><time>2026-05-03T08:00:57.988Z</time></trkpt><trkpt lat="42.3589297" lon="13.5631069"><ele>1196.4</ele><time>2026-05-03T08:00:58.987Z</time></trkpt><trkpt lat="42.3589521" lon="13.5632349"><ele>1194.8</ele><time>2026-05-03T08:00:59.987Z</time></trkpt><trkpt lat="42.358975" lon="13.5633636"><ele>1193.2</ele><time>2026-05-03T08:01:00.988Z</time></trkpt><trkpt lat="42.3589923" lon="13.5634834"><ele>1191.6</ele><time>2026-05-03T08:01:01.988Z</time></trkpt><trkpt lat="42.3590053" lon="13.5635987"><ele>1190.0</ele><time>2026-05-03T08:01:02.987Z</time></trkpt><trkpt lat="42.3590095" lon="13.5637221"><ele>1189.3333333333335</ele><time>2026-05-03T08:01:03.988Z</time></trkpt><trkpt lat="42.3590005" lon="13.563849"><ele>1188.6666666666667</ele><time>2026-05-03T08:01:04.988Z</time></trkpt><trkpt lat="42.3589881" lon="13.5639812"><ele>1188.0</ele><time>2026-05-03T08:01:05.988Z</time></trkpt><trkpt lat="42.3589854" lon="13.564106"><ele>1187.3333333333333</ele><time>2026-05-03T08:01:06.987Z</time></trkpt><trkpt lat="42.3589905" lon="13.5642168"><ele>1186.6666666666665</ele><time>2026-05-03T08:01:07.988Z</time></trkpt><trkpt lat="42.3589978" lon="13.56432"><ele>1186.0</ele><time>2026-05-03T08:01:08.988Z</time></trkpt><trkpt lat="42.3590093" lon="13.5644159"><ele>1186.0</ele><time>2026-05-03T08:01:09.988Z</time></trkpt><trkpt lat="42.3590167" lon="13.5645073"><ele>1186.0</ele><time>2026-05-03T08:01:10.987Z</time></trkpt><trkpt lat="42.3590035" lon="13.5646666"><ele>1186.0</ele><time>2026-05-03T08:01:12.988Z</time></trkpt><trkpt lat="42.3589476" lon="13.5648234"><ele>1186.0</ele><time>2026-05-03T08:01:14.988Z</time></trkpt><trkpt lat="42.3589177" lon="13.5649178"><ele>1186.0</ele><time>2026-05-03T08:01:15.988Z</time></trkpt><trkpt lat="42.3588948" lon="13.5650214"><ele>1186.7142857142856</ele><time>2026-05-03T08:01:16.988Z</time></trkpt><trkpt lat="42.3588778" lon="13.5651308"><ele>1187.4285714285713</ele><time>2026-05-03T08:01:17.987Z</time></trkpt><trkpt lat="42.3588625" lon="13.5652339"><ele>1188.142857142857</ele><time>2026-05-03T08:01:18.987Z</time></trkpt><trkpt lat="42.3588484" lon="13.5653301"><ele>1188.8571428571427</ele><time>2026-05-03T08:01:19.988Z</time></trkpt><trkpt lat="42.3588381" lon="13.5654246"><ele>1189.5714285714284</ele><time>2026-05-03T08:01:20.988Z</time></trkpt><trkpt lat="42.3588304" lon="13.5655196"><ele>1190.2857142857142</ele><time>2026-05-03T08:01:21.987Z</time></trkpt><trkpt lat="42.3588221" lon="13.5656191"><ele>1191.0</ele><time>2026-05-03T08:01:22.987Z</time></trkpt><trkpt lat="42.3588117" lon="13.5657251"><ele>1191.0</ele><time>2026-05-03T08:01:23.988Z</time></trkpt><trkpt lat="42.3588038" lon="13.5658349"><ele>1191.0</ele><time>2026-05-03T08:01:24.988Z</time></trkpt><trkpt lat="42.3588012" lon="13.5659494"><ele>1191.0</ele><time>2026-05-03T08:01:25.988Z</time></trkpt><trkpt lat="42.3588017" lon="13.5660755"><ele>1191.0</ele><time>2026-05-03T08:01:26.988Z</time></trkpt><trkpt lat="42.3588016" lon="13.5662115"><ele>1191.0</ele><time>2026-05-03T08:01:27.988Z</time></trkpt><trkpt lat="42.3588056" lon="13.5663468"><ele>1191.0</ele><time>2026-05-03T08:01:28.988Z</time></trkpt><trkpt lat="42.3588122" lon="13.5664768"><ele>1191.0</ele><time>2026-05-03T08:01:29.988Z</time></trkpt><trkpt lat="42.3588157" lon="13.5665989"><ele>1191.0</ele><time>2026-05-03T08:01:30.987Z</time></trkpt><trkpt lat="42.3588192" lon="13.5667127"><ele>1191.0</ele><time>2026-05-03T08:01:31.988Z</time></trkpt><trkpt lat="42.3588176" lon="13.5668197"><ele>1191.0</ele><time>2026-05-03T08:01:32.988Z</time></trkpt><trkpt lat="42.3588135" lon="13.5669129"><ele>1191.0</ele><time>2026-05-03T08:01:33.987Z</time></trkpt><trkpt lat="42.3588167" lon="13.56702"><ele>1191.3333333333333</ele><time>2026-05-03T08:02:50.987Z</time></trkpt><trkpt lat="42.3588177" lon="13.5671409"><ele>1191.6666666666667</ele><time>2026-05-03T08:02:52.987Z</time></trkpt><trkpt lat="42.3588099" lon="13.5672436"><ele>1192.0</ele><time>2026-05-03T08:02:53.988Z</time></trkpt><trkpt lat="42.3588078" lon="13.5673494"><ele>1192.3333333333335</ele><time>2026-05-03T08:02:54.988Z</time></trkpt><trkpt lat="42.3588055" lon="13.5674731"><ele>1192.6666666666667</ele><time>2026-05-03T08:02:55.988Z</time></trkpt><trkpt lat="42.3588023" lon="13.5676113"><ele>1193.0</ele><time>2026-05-03T08:02:56.988Z</time></trkpt><trkpt lat="42.3587975" lon="13.5677615"><ele>1192.6</ele><time>2026-05-03T08:02:57.987Z</time></trkpt><trkpt lat="42.3587884" lon="13.5679173"><ele>1192.1999999999998</ele><time>2026-05-03T08:02:58.987Z</time></trkpt><trkpt lat="42.358774" lon="13.5680664"><ele>1191.8</ele><time>2026-05-03T08:02:59.988Z</time></trkpt><trkpt lat="42.3587555" lon="13.5682025"><ele>1191.3999999999999</ele><time>2026-05-03T08:03:00.988Z</time></trkpt><trkpt lat="42.3587354" lon="13.5683231"><ele>1191.0</ele><time>2026-05-03T08:03:01.987Z</time></trkpt><trkpt lat="42.3587166" lon="13.5684339"><ele>1191.0</ele><time>2026-05-03T08:03:02.987Z</time></trkpt><trkpt lat="42.3587007" lon="13.5685352"><ele>1191.0</ele><time>2026-05-03T08:03:03.987Z</time></trkpt><trkpt lat="42.3586852" lon="13.5686271"><ele>1191.0</ele><time>2026-05-03T08:03:04.987Z</time></trkpt><trkpt lat="42.3586709" lon="13.5687155"><ele>1191.0</ele><time>2026-05-03T08:03:05.987Z</time></trkpt><trkpt lat="42.3586498" lon="13.5688705"><ele>1191.0</ele><time>2026-05-03T08:03:07.988Z</time></trkpt><trkpt lat="42.358619" lon="13.5690039"><ele>1191.0</ele><time>2026-05-03T08:03:09.988Z</time></trkpt><trkpt lat="42.3585688" lon="13.5691157"><ele>1191.6</ele><time>2026-05-03T08:03:11.988Z</time></trkpt><trkpt lat="42.3585164" lon="13.5692226"><ele>1192.1999999999998</ele><time>2026-05-03T08:03:13.988Z</time></trkpt><trkpt lat="42.3584599" lon="13.5693165"><ele>1192.8000000000002</ele><time>2026-05-03T08:03:15.987Z</time></trkpt><trkpt lat="42.3583918" lon="13.5694127"><ele>1193.4</ele><time>2026-05-03T08:03:17.988Z</time></trkpt><trkpt lat="42.3583251" lon="13.5695161"><ele>1194.0</ele><time>2026-05-03T08:03:19.987Z</time></trkpt><trkpt lat="42.3582623" lon="13.5696196"><ele>1194.0</ele><time>2026-05-03T08:03:21.987Z</time></trkpt><trkpt lat="42.3581918" lon="13.5697334"><ele>1194.0</ele><time>2026-05-03T08:03:23.988Z</time></trkpt><trkpt lat="42.358152" lon="13.5698028"><ele>1194.0</ele><time>2026-05-03T08:03:24.987Z</time></trkpt><trkpt lat="42.3581115" lon="13.5698794"><ele>1194.0</ele><time>2026-05-03T08:03:25.987Z</time></trkpt><trkpt lat="42.3580679" lon="13.5699565"><ele>1194.0</ele><time>2026-05-03T08:03:26.987Z</time></trkpt><trkpt lat="42.3580202" lon="13.5700364"><ele>1194.0</ele><time>2026-05-03T08:03:27.988Z</time></trkpt><trkpt lat="42.3579728" lon="13.5701198"><ele>1193.8</ele><time>2026-05-03T08:03:28.988Z</time></trkpt><trkpt lat="42.3579272" lon="13.5702038"><ele>1193.6000000000001</ele><time>2026-05-03T08:03:29.987Z</time></trkpt><trkpt lat="42.3578815" lon="13.5702793"><ele>1193.4</ele><time>2026-05-03T08:03:30.988Z</time></trkpt><trkpt lat="42.3578356" lon="13.5703531"><ele>1193.2</ele><time>2026-05-03T08:03:31.988Z</time></trkpt><trkpt lat="42.3577642" lon="13.5704927"><ele>1193.0</ele><time>2026-05-03T08:03:33.987Z</time></trkpt><trkpt lat="42.3577031" lon="13.5706511"><ele>1192.5</ele><time>2026-05-03T08:03:35.987Z</time></trkpt><trkpt lat="42.3576599" lon="13.5707568"><ele>1192.0</ele><time>2026-05-03T08:03:36.987Z</time></trkpt><trkpt lat="42.3576014" lon="13.5708853"><ele>1191.5</ele><time>2026-05-03T08:03:37.988Z</time></trkpt><trkpt lat="42.357532" lon="13.5710336"><ele>1191.0</ele><time>2026-05-03T08:03:38.988Z</time></trkpt><trkpt lat="42.3574462" lon="13.5711974"><ele>1191.0</ele><time>2026-05-03T08:03:39.988Z</time></trkpt><trkpt lat="42.3573503" lon="13.571365"><ele>1191.0</ele><time>2026-05-03T08:03:40.987Z</time></trkpt><trkpt lat="42.3572466" lon="13.5715313"><ele>1191.0</ele><time>2026-05-03T08:03:41.987Z</time></trkpt><trkpt lat="42.3571469" lon="13.5717034"><ele>1189.3333333333333</ele><time>2026-05-03T08:03:42.987Z</time></trkpt><trkpt lat="42.3570569" lon="13.5718717"><ele>1187.6666666666665</ele><time>2026-05-03T08:03:43.988Z</time></trkpt><trkpt lat="42.3569671" lon="13.5720363"><ele>1186.0</ele><time>2026-05-03T08:03:44.988Z</time></trkpt><trkpt lat="42.356871" lon="13.5721849"><ele>1186.0</ele><time>2026-05-03T08:03:45.988Z</time></trkpt><trkpt lat="42.3567677" lon="13.5723118"><ele>1186.0</ele><time>2026-05-03T08:03:46.987Z</time></trkpt><trkpt lat="42.3566644" lon="13.5724092"><ele>1186.0</ele><time>2026-05-03T08:03:47.988Z</time></trkpt><trkpt lat="42.3565793" lon="13.5724614"><ele>1186.0</ele><time>2026-05-03T08:03:48.987Z</time></trkpt><trkpt lat="42.3564987" lon="13.5724888"><ele>1186.0</ele><time>2026-05-03T08:03:49.987Z</time></trkpt><trkpt lat="42.3564149" lon="13.572477"><ele>1185.2</ele><time>2026-05-03T08:03:50.988Z</time></trkpt><trkpt lat="42.3563316" lon="13.5724524"><ele>1184.3999999999999</ele><time>2026-05-03T08:03:51.987Z</time></trkpt><trkpt lat="42.356244" lon="13.5724204"><ele>1183.6</ele><time>2026-05-03T08:03:52.987Z</time></trkpt><trkpt lat="42.3561536" lon="13.572395"><ele>1182.8</ele><time>2026-05-03T08:03:53.987Z</time></trkpt><trkpt lat="42.3560635" lon="13.5723933"><ele>1182.0</ele><time>2026-05-03T08:03:54.987Z</time></trkpt><trkpt lat="42.3559697" lon="13.5724073"><ele>1182.0</ele><time>2026-05-03T08:03:55.988Z</time></trkpt><trkpt lat="42.3558714" lon="13.5724364"><ele>1182.0</ele><time>2026-05-03T08:03:56.988Z</time></trkpt><trkpt lat="42.3557652" lon="13.5724751"><ele>1182.0</ele><time>2026-05-03T08:03:57.987Z</time></trkpt><trkpt lat="42.3556559" lon="13.5725224"><ele>1182.0</ele><time>2026-05-03T08:03:58.988Z</time></trkpt><trkpt lat="42.3555429" lon="13.5725748"><ele>1182.0</ele><time>2026-05-03T08:03:59.988Z</time></trkpt><trkpt lat="42.3554371" lon="13.5726315"><ele>1180.8</ele><time>2026-05-03T08:04:00.988Z</time></trkpt><trkpt lat="42.3553344" lon="13.5726979"><ele>1179.6</ele><time>2026-05-03T08:04:01.988Z</time></trkpt><trkpt lat="42.355234" lon="13.5727575"><ele>1178.3999999999999</ele><time>2026-05-03T08:04:02.988Z</time></trkpt><trkpt lat="42.3551355" lon="13.5728162"><ele>1177.2</ele><time>2026-05-03T08:04:03.987Z</time></trkpt><trkpt lat="42.355035" lon="13.5728699"><ele>1176.0</ele><time>2026-05-03T08:04:04.988Z</time></trkpt><trkpt lat="42.3549367" lon="13.5729219"><ele>1176.0</ele><time>2026-05-03T08:04:05.988Z</time></trkpt><trkpt lat="42.3548389" lon="13.572978"><ele>1176.0</ele><time>2026-05-03T08:04:06.987Z</time></trkpt><trkpt lat="42.3547425" lon="13.5730289"><ele>1176.0</ele><time>2026-05-03T08:04:07.987Z</time></trkpt><trkpt lat="42.3546384" lon="13.5730844"><ele>1176.0</ele><time>2026-05-03T08:04:08.987Z</time></trkpt><trkpt lat="42.3545385" lon="13.5731444"><ele>1176.0</ele><time>2026-05-03T08:04:09.987Z</time></trkpt><trkpt lat="42.3544375" lon="13.5732009"><ele>1175.8</ele><time>2026-05-03T08:04:10.987Z</time></trkpt><trkpt lat="42.3543346" lon="13.573252"><ele>1175.6</ele><time>2026-05-03T08:04:11.987Z</time></trkpt><trkpt lat="42.3542343" lon="13.5733041"><ele>1175.4</ele><time>2026-05-03T08:04:12.987Z</time></trkpt><trkpt lat="42.3541378" lon="13.5733611"><ele>1175.2</ele><time>2026-05-03T08:04:13.987Z</time></trkpt><trkpt lat="42.3540426" lon="13.57342"><ele>1175.0</ele><time>2026-05-03T08:04:14.988Z</time></trkpt><trkpt lat="42.3539526" lon="13.5734899"><ele>1176.0</ele><time>2026-05-03T08:04:15.987Z</time></trkpt><trkpt lat="42.3538578" lon="13.5735608"><ele>1177.0</ele><time>2026-05-03T08:04:16.988Z</time></trkpt><trkpt lat="42.35376" lon="13.5736326"><ele>1178.0</ele><time>2026-05-03T08:04:17.987Z</time></trkpt><trkpt lat="42.3536592" lon="13.5736969"><ele>1179.0</ele><time>2026-05-03T08:04:18.988Z</time></trkpt><trkpt lat="42.3535624" lon="13.5737576"><ele>1180.0</ele><time>2026-05-03T08:04:19.987Z</time></trkpt><trkpt lat="42.353465" lon="13.5738111"><ele>1176.8</ele><time>2026-05-03T08:04:20.987Z</time></trkpt><trkpt lat="42.3533704" lon="13.5738672"><ele>1173.6</ele><time>2026-05-03T08:04:21.988Z</time></trkpt><trkpt lat="42.3532829" lon="13.5739226"><ele>1170.4</ele><time>2026-05-03T08:04:22.988Z</time></trkpt><trkpt lat="42.3531984" lon="13.5739793"><ele>1167.2</ele><time>2026-05-03T08:04:23.987Z</time></trkpt><trkpt lat="42.353121" lon="13.5740389"><ele>1164.0</ele><time>2026-05-03T08:04:24.988Z</time></trkpt><trkpt lat="42.3530472" lon="13.5740878"><ele>1163.142857142857</ele><time>2026-05-03T08:04:25.987Z</time></trkpt><trkpt lat="42.3529787" lon="13.5741387"><ele>1162.2857142857142</ele><time>2026-05-03T08:04:26.988Z</time></trkpt><trkpt lat="42.3529127" lon="13.5741857"><ele>1161.4285714285713</ele><time>2026-05-03T08:04:27.988Z</time></trkpt><trkpt lat="42.3528471" lon="13.574221"><ele>1160.5714285714284</ele><time>2026-05-03T08:04:28.988Z</time></trkpt><trkpt lat="42.352782" lon="13.5742434"><ele>1159.7142857142858</ele><time>2026-05-03T08:04:29.988Z</time></trkpt><trkpt lat="42.3527155" lon="13.5742505"><ele>1158.8571428571427</ele><time>2026-05-03T08:04:30.987Z</time></trkpt><trkpt lat="42.3526395" lon="13.5742412"><ele>1158.0</ele><time>2026-05-03T08:04:31.988Z</time></trkpt><trkpt lat="42.3525643" lon="13.5742192"><ele>1158.0</ele><time>2026-05-03T08:04:32.987Z</time></trkpt><trkpt lat="42.3524856" lon="13.5741851"><ele>1158.0</ele><time>2026-05-03T08:04:33.988Z</time></trkpt><trkpt lat="42.3524103" lon="13.5741413"><ele>1158.0</ele><time>2026-05-03T08:04:34.988Z</time></trkpt><trkpt lat="42.3523346" lon="13.5740913"><ele>1158.0</ele><time>2026-05-03T08:04:35.987Z</time></trkpt><trkpt lat="42.3522591" lon="13.5740358"><ele>1158.0</ele><time>2026-05-03T08:04:36.988Z</time></trkpt><trkpt lat="42.3521904" lon="13.5739777"><ele>1158.0</ele><time>2026-05-03T08:04:37.988Z</time></trkpt><trkpt lat="42.3521236" lon="13.5739176"><ele>1157.1666666666667</ele><time>2026-05-03T08:04:38.987Z</time></trkpt><trkpt lat="42.3520552" lon="13.573862"><ele>1156.3333333333333</ele><time>2026-05-03T08:04:39.987Z</time></trkpt><trkpt lat="42.3519868" lon="13.5738088"><ele>1155.5</ele><time>2026-05-03T08:04:40.988Z</time></trkpt><trkpt lat="42.3519181" lon="13.5737564"><ele>1154.6666666666665</ele><time>2026-05-03T08:04:41.987Z</time></trkpt><trkpt lat="42.3518475" lon="13.5737056"><ele>1153.8333333333333</ele><time>2026-05-03T08:04:42.987Z</time></trkpt><trkpt lat="42.3517723" lon="13.5736551"><ele>1153.0</ele><time>2026-05-03T08:04:43.988Z</time></trkpt><trkpt lat="42.3516953" lon="13.573603"><ele>1153.0</ele><time>2026-05-03T08:04:44.987Z</time></trkpt><trkpt lat="42.3516191" lon="13.5735457"><ele>1153.0</ele><time>2026-05-03T08:04:45.987Z</time></trkpt><trkpt lat="42.3515408" lon="13.5734814"><ele>1153.0</ele><time>2026-05-03T08:04:46.987Z</time></trkpt><trkpt lat="42.3514628" lon="13.5734097"><ele>1153.0</ele><time>2026-05-03T08:04:47.988Z</time></trkpt><trkpt lat="42.3513869" lon="13.5733322"><ele>1153.0</ele><time>2026-05-03T08:04:48.988Z</time></trkpt><trkpt lat="42.351312" lon="13.5732494"><ele>1152.2</ele><time>2026-05-03T08:04:49.988Z</time></trkpt><trkpt lat="42.3512387" lon="13.573158"><ele>1151.4</ele><time>2026-05-03T08:04:50.988Z</time></trkpt><trkpt lat="42.3511716" lon="13.5730694"><ele>1150.6000000000001</ele><time>2026-05-03T08:04:51.988Z</time></trkpt><trkpt lat="42.351108" lon="13.5729808"><ele>1149.8</ele><time>2026-05-03T08:04:52.988Z</time></trkpt><trkpt lat="42.3510506" lon="13.5728904"><ele>1149.0</ele><time>2026-05-03T08:04:53.988Z</time></trkpt><trkpt lat="42.350997" lon="13.5728011"><ele>1149.0</ele><time>2026-05-03T08:04:54.987Z</time></trkpt><trkpt lat="42.3509421" lon="13.5727167"><ele>1149.0</ele><time>2026-05-03T08:04:55.988Z</time></trkpt><trkpt lat="42.3508835" lon="13.5726351"><ele>1149.0</ele><time>2026-05-03T08:04:56.987Z</time></trkpt><trkpt lat="42.3508223" lon="13.5725624"><ele>1149.0</ele><time>2026-05-03T08:04:57.987Z</time></trkpt><trkpt lat="42.3507577" lon="13.5725035"><ele>1149.0</ele><time>2026-05-03T08:04:58.988Z</time></trkpt><trkpt lat="42.3506849" lon="13.5724514"><ele>1149.0</ele><time>2026-05-03T08:04:59.988Z</time></trkpt><trkpt lat="42.3506068" lon="13.5724002"><ele>1147.3333333333333</ele><time>2026-05-03T08:05:00.987Z</time></trkpt><trkpt lat="42.3505285" lon="13.5723497"><ele>1145.6666666666667</ele><time>2026-05-03T08:05:01.988Z</time></trkpt><trkpt lat="42.350453" lon="13.5722969"><ele>1144.0</ele><time>2026-05-03T08:05:02.987Z</time></trkpt><trkpt lat="42.3503805" lon="13.5722392"><ele>1142.3333333333335</ele><time>2026-05-03T08:05:03.988Z</time></trkpt><trkpt lat="42.3503057" lon="13.5721681"><ele>1140.6666666666667</ele><time>2026-05-03T08:05:04.988Z</time></trkpt><trkpt lat="42.3502286" lon="13.5720923"><ele>1139.0</ele><time>2026-05-03T08:05:05.988Z</time></trkpt><trkpt lat="42.3501518" lon="13.5720245"><ele>1139.8333333333335</ele><time>2026-05-03T08:05:06.988Z</time></trkpt><trkpt lat="42.3500749" lon="13.5719642"><ele>1140.6666666666667</ele><time>2026-05-03T08:05:07.988Z</time></trkpt><trkpt lat="42.3499999" lon="13.5719063"><ele>1141.5</ele><time>2026-05-03T08:05:08.987Z</time></trkpt><trkpt lat="42.3499271" lon="13.5718473"><ele>1142.3333333333333</ele><time>2026-05-03T08:05:09.987Z</time></trkpt><trkpt lat="42.3498555" lon="13.5717823"><ele>1143.1666666666665</ele><time>2026-05-03T08:05:10.988Z</time></trkpt><trkpt lat="42.3497893" lon="13.5717077"><ele>1144.0</ele><time>2026-05-03T08:05:11.988Z</time></trkpt><trkpt lat="42.3497296" lon="13.5716246"><ele>1141.6666666666665</ele><time>2026-05-03T08:05:12.988Z</time></trkpt><trkpt lat="42.3496745" lon="13.5715416"><ele>1139.3333333333333</ele><time>2026-05-03T08:05:13.988Z</time></trkpt><trkpt lat="42.3496179" lon="13.5714664"><ele>1137.0</ele><time>2026-05-03T08:05:14.987Z</time></trkpt><trkpt lat="42.3495554" lon="13.5714049"><ele>1134.6666666666667</ele><time>2026-05-03T08:05:15.988Z</time></trkpt><trkpt lat="42.3494885" lon="13.5713595"><ele>1132.3333333333335</ele><time>2026-05-03T08:05:16.988Z</time></trkpt><trkpt lat="42.3494251" lon="13.5713357"><ele>1130.0</ele><time>2026-05-03T08:05:17.988Z</time></trkpt><trkpt lat="42.3493177" lon="13.5713149"><ele>1130.0</ele><time>2026-05-03T08:05:19.987Z</time></trkpt><trkpt lat="42.3492156" lon="13.5712875"><ele>1130.0</ele><time>2026-05-03T08:05:21.988Z</time></trkpt><trkpt lat="42.3491128" lon="13.5712734"><ele>1130.0</ele><time>2026-05-03T08:05:23.988Z</time></trkpt><trkpt lat="42.3490496" lon="13.5712644"><ele>1130.0</ele><time>2026-05-03T08:05:24.988Z</time></trkpt><trkpt lat="42.3489782" lon="13.5712513"><ele>1130.0</ele><time>2026-05-03T08:05:25.988Z</time></trkpt><trkpt lat="42.3488999" lon="13.5712342"><ele>1130.0</ele><time>2026-05-03T08:05:26.988Z</time></trkpt><trkpt lat="42.3508835" lon="13.5726351"><ele>1131.5</ele><time>2026-05-03T08:04:56.987Z</time></trkpt><trkpt lat="42.3508223" lon="13.5725624"><ele>1133.0</ele><time>2026-05-03T08:04:57.987Z</time></trkpt><trkpt lat="42.3507577" lon="13.5725035"><ele>1134.5</ele><time>2026-05-03T08:04:58.988Z</time></trkpt><trkpt lat="42.3506849" lon="13.5724514"><ele>1136.0</ele><time>2026-05-03T08:04:59.988Z</time></trkpt><trkpt lat="42.3506068" lon="13.5724002"><ele>1137.5</ele><time>2026-05-03T08:05:00.987Z</time></trkpt><trkpt lat="42.3505285" lon="13.5723497"><ele>1139.0</ele><time>2026-05-03T08:05:01.988Z</time></trkpt><trkpt lat="42.350453" lon="13.5722969"><ele>1139.0</ele><time>2026-05-03T08:05:02.987Z</time></trkpt><trkpt lat="42.3503805" lon="13.5722392"><ele>1139.0</ele><time>2026-05-03T08:05:03.988Z</time></trkpt><trkpt lat="42.3503057" lon="13.5721681"><ele>1139.0</ele><time>2026-05-03T08:05:04.988Z</time></trkpt><trkpt lat="42.3502286" lon="13.5720923"><ele>1139.0</ele><time>2026-05-03T08:05:05.988Z</time></trkpt><trkpt lat="42.3501518" lon="13.5720245"><ele>1139.0</ele><time>2026-05-03T08:05:06.988Z</time></trkpt><trkpt lat="42.3500749" lon="13.5719642"><ele>1139.8333333333335</ele><time>2026-05-03T08:05:07.988Z</time></trkpt><trkpt lat="42.3499999" lon="13.5719063"><ele>1140.6666666666667</ele><time>2026-05-03T08:05:08.987Z</time></trkpt><trkpt lat="42.3499271" lon="13.5718473"><ele>1141.5</ele><time>2026-05-03T08:05:09.987Z</time></trkpt><trkpt lat="42.3498555" lon="13.5717823"><ele>1142.3333333333333</ele><time>2026-05-03T08:05:10.988Z</time></trkpt><trkpt lat="42.3497893" lon="13.5717077"><ele>1143.1666666666665</ele><time>2026-05-03T08:05:11.988Z</time></trkpt><trkpt lat="42.3497296" lon="13.5716246"><ele>1144.0</ele><time>2026-05-03T08:05:12.988Z</time></trkpt><trkpt lat="42.3496745" lon="13.5715416"><ele>1141.6666666666665</ele><time>2026-05-03T08:05:13.988Z</time></trkpt><trkpt lat="42.3496179" lon="13.5714664"><ele>1139.3333333333333</ele><time>2026-05-03T08:05:14.987Z</time></trkpt><trkpt lat="42.3495554" lon="13.5714049"><ele>1137.0</ele><time>2026-05-03T08:05:15.988Z</time></trkpt><trkpt lat="42.3494885" lon="13.5713595"><ele>1134.6666666666667</ele><time>2026-05-03T08:05:16.988Z</time></trkpt><trkpt lat="42.3494251" lon="13.5713357"><ele>1132.3333333333335</ele><time>2026-05-03T08:05:17.988Z</time></trkpt><trkpt lat="42.3493177" lon="13.5713149"><ele>1130.0</ele><time>2026-05-03T08:05:19.987Z</time></trkpt><trkpt lat="42.3492156" lon="13.5712875"><ele>1130.0</ele><time>2026-05-03T08:05:21.988Z</time></trkpt><trkpt lat="42.3491128" lon="13.5712734"><ele>1130.0</ele><time>2026-05-03T08:05:23.988Z</time></trkpt><trkpt lat="42.3490496" lon="13.5712644"><ele>1130.0</ele><time>2026-05-03T08:05:24.988Z</time></trkpt><trkpt lat="42.3489782" lon="13.5712513"><ele>1130.0</ele><time>2026-05-03T08:05:25.988Z</time></trkpt><trkpt lat="42.3488999" lon="13.5712342"><ele>1130.0</ele><time>2026-05-03T08:05:26.988Z</time></trkpt><trkpt lat="42.3488175" lon="13.5712111"><ele>1130.0</ele><time>2026-05-03T08:05:27.988Z</time></trkpt><trkpt lat="42.3487342" lon="13.5711732"><ele>1129.8333333333335</ele><time>2026-05-03T08:05:28.988Z</time></trkpt><trkpt lat="42.3486514" lon="13.5711249"><ele>1129.6666666666667</ele><time>2026-05-03T08:05:29.988Z</time></trkpt><trkpt lat="42.3485723" lon="13.5710779"><ele>1129.5</ele><time>2026-05-03T08:05:30.988Z</time></trkpt><trkpt lat="42.3484989" lon="13.5710333"><ele>1129.3333333333333</ele><time>2026-05-03T08:05:31.987Z</time></trkpt><trkpt lat="42.3484293" lon="13.5709871"><ele>1129.1666666666665</ele><time>2026-05-03T08:05:32.988Z</time></trkpt><trkpt lat="42.3483629" lon="13.5709404"><ele>1129.0</ele><time>2026-05-03T08:05:33.988Z</time></trkpt><trkpt lat="42.3482988" lon="13.5708941"><ele>1129.0</ele><time>2026-05-03T08:05:34.988Z</time></trkpt><trkpt lat="42.348239" lon="13.5708467"><ele>1129.0</ele><time>2026-05-03T08:05:35.988Z</time></trkpt><trkpt lat="42.3481894" lon="13.5707919"><ele>1129.0</ele><time>2026-05-03T08:05:36.987Z</time></trkpt><trkpt lat="42.3481157" lon="13.5706818"><ele>1129.0</ele><time>2026-05-03T08:05:38.987Z</time></trkpt><trkpt lat="42.3480702" lon="13.5705863"><ele>1129.0</ele><time>2026-05-03T08:05:40.987Z</time></trkpt><trkpt lat="42.3480303" lon="13.5704872"><ele>1129.0</ele><time>2026-05-03T08:05:42.987Z</time></trkpt><trkpt lat="42.3479856" lon="13.5703804"><ele>1127.4</ele><time>2026-05-03T08:05:44.988Z</time></trkpt><trkpt lat="42.3479138" lon="13.5702316"><ele>1125.8000000000002</ele><time>2026-05-03T08:05:46.987Z</time></trkpt><trkpt lat="42.3478654" lon="13.5701537"><ele>1124.1999999999998</ele><time>2026-05-03T08:05:47.988Z</time></trkpt><trkpt lat="42.3478048" lon="13.5700765"><ele>1122.6</ele><time>2026-05-03T08:05:48.988Z</time></trkpt><trkpt lat="42.3477381" lon="13.5699975"><ele>1121.0</ele><time>2026-05-03T08:05:49.988Z</time></trkpt><trkpt lat="42.3476677" lon="13.5699191"><ele>1121.0</ele><time>2026-05-03T08:05:50.988Z</time></trkpt><trkpt lat="42.3476002" lon="13.5698533"><ele>1121.0</ele><time>2026-05-03T08:05:51.988Z</time></trkpt><trkpt lat="42.3475297" lon="13.5698024"><ele>1121.0</ele><time>2026-05-03T08:05:52.988Z</time></trkpt><trkpt lat="42.3474555" lon="13.569772"><ele>1121.0</ele><time>2026-05-03T08:05:53.987Z</time></trkpt><trkpt lat="42.3473821" lon="13.5697594"><ele>1121.0</ele><time>2026-05-03T08:05:54.987Z</time></trkpt><trkpt lat="42.3473125" lon="13.5697608"><ele>1121.0</ele><time>2026-05-03T08:05:55.988Z</time></trkpt><trkpt lat="42.3472442" lon="13.5697698"><ele>1120.6666666666667</ele><time>2026-05-03T08:05:56.988Z</time></trkpt><trkpt lat="42.3471677" lon="13.569787"><ele>1120.3333333333335</ele><time>2026-05-03T08:05:57.987Z</time></trkpt><trkpt lat="42.3470901" lon="13.5698153"><ele>1120.0</ele><time>2026-05-03T08:05:58.987Z</time></trkpt><trkpt lat="42.347012" lon="13.5698503"><ele>1119.6666666666667</ele><time>2026-05-03T08:05:59.988Z</time></trkpt><trkpt lat="42.3469269" lon="13.5698867"><ele>1119.3333333333333</ele><time>2026-05-03T08:06:00.987Z</time></trkpt><trkpt lat="42.3468454" lon="13.5699049"><ele>1119.0</ele><time>2026-05-03T08:06:01.988Z</time></trkpt><trkpt lat="42.3467666" lon="13.5699095"><ele>1119.0</ele><time>2026-05-03T08:06:02.988Z</time></trkpt><trkpt lat="42.3466781" lon="13.5699082"><ele>1119.0</ele><time>2026-05-03T08:06:03.988Z</time></trkpt><trkpt lat="42.3465862" lon="13.569911"><ele>1119.0</ele><time>2026-05-03T08:06:04.988Z</time></trkpt><trkpt lat="42.3464938" lon="13.5699254"><ele>1119.0</ele><time>2026-05-03T08:06:05.987Z</time></trkpt><trkpt lat="42.3464092" lon="13.5699527"><ele>1119.0</ele><time>2026-05-03T08:06:06.987Z</time></trkpt><trkpt lat="42.3463319" lon="13.5699891"><ele>1119.0</ele><time>2026-05-03T08:06:07.988Z</time></trkpt><trkpt lat="42.3462631" lon="13.5700446"><ele>1118.2</ele><time>2026-05-03T08:06:08.988Z</time></trkpt><trkpt lat="42.3461882" lon="13.5701149"><ele>1117.4</ele><time>2026-05-03T08:06:09.987Z</time></trkpt><trkpt lat="42.3461138" lon="13.5701977"><ele>1116.6</ele><time>2026-05-03T08:06:10.987Z</time></trkpt><trkpt lat="42.3460361" lon="13.5702865"><ele>1115.8</ele><time>2026-05-03T08:06:11.987Z</time></trkpt><trkpt lat="42.3459685" lon="13.5703673"><ele>1115.0</ele><time>2026-05-03T08:06:12.987Z</time></trkpt><trkpt lat="42.345908" lon="13.5704425"><ele>1115.0</ele><time>2026-05-03T08:06:13.988Z</time></trkpt><trkpt lat="42.3458627" lon="13.5705078"><ele>1115.0</ele><time>2026-05-03T08:06:14.987Z</time></trkpt><trkpt lat="42.3457966" lon="13.5706456"><ele>1115.0</ele><time>2026-05-03T08:06:16.987Z</time></trkpt><trkpt lat="42.3457745" lon="13.5707371"><ele>1115.0</ele><time>2026-05-03T08:06:17.987Z</time></trkpt><trkpt lat="42.3457587" lon="13.5708278"><ele>1115.0</ele><time>2026-05-03T08:06:18.987Z</time></trkpt><trkpt lat="42.3457431" lon="13.5709225"><ele>1115.0</ele><time>2026-05-03T08:06:19.987Z</time></trkpt><trkpt lat="42.3457231" lon="13.5710055"><ele>1115.0</ele><time>2026-05-03T08:06:20.987Z</time></trkpt><trkpt lat="42.345682" lon="13.5710955"><ele>1115.0</ele><time>2026-05-03T08:06:21.988Z</time></trkpt><trkpt lat="42.3456293" lon="13.5711671"><ele>1115.0</ele><time>2026-05-03T08:06:22.988Z</time></trkpt><trkpt lat="42.3455656" lon="13.5712383"><ele>1115.0</ele><time>2026-05-03T08:06:23.987Z</time></trkpt><trkpt lat="42.3454987" lon="13.5713101"><ele>1115.0</ele><time>2026-05-03T08:06:24.987Z</time></trkpt><trkpt lat="42.3454365" lon="13.5713763"><ele>1115.0</ele><time>2026-05-03T08:06:25.987Z</time></trkpt><trkpt lat="42.3453646" lon="13.5714501"><ele>1113.8333333333335</ele><time>2026-05-03T08:06:26.988Z</time></trkpt><trkpt lat="42.3452976" lon="13.5715179"><ele>1112.6666666666667</ele><time>2026-05-03T08:06:27.987Z</time></trkpt><trkpt lat="42.3452335" lon="13.5715836"><ele>1111.5</ele><time>2026-05-03T08:06:28.988Z</time></trkpt><trkpt lat="42.3451883" lon="13.57166"><ele>1110.3333333333333</ele><time>2026-05-03T08:06:29.988Z</time></trkpt><trkpt lat="42.3451479" lon="13.5717552"><ele>1109.1666666666665</ele><time>2026-05-03T08:06:30.987Z</time></trkpt><trkpt lat="42.3451121" lon="13.5718646"><ele>1108.0</ele><time>2026-05-03T08:06:31.987Z</time></trkpt><trkpt lat="42.3450781" lon="13.5719825"><ele>1108.0</ele><time>2026-05-03T08:06:32.988Z</time></trkpt><trkpt lat="42.3450371" lon="13.5721048"><ele>1108.0</ele><time>2026-05-03T08:06:33.987Z</time></trkpt><trkpt lat="42.34499" lon="13.5722289"><ele>1108.0</ele><time>2026-05-03T08:06:34.988Z</time></trkpt><trkpt lat="42.3449375" lon="13.5723471"><ele>1108.0</ele><time>2026-05-03T08:06:35.987Z</time></trkpt><trkpt lat="42.3448726" lon="13.5724636"><ele>1108.0</ele><time>2026-05-03T08:06:36.987Z</time></trkpt><trkpt lat="42.3447982" lon="13.5725767"><ele>1108.0</ele><time>2026-05-03T08:06:37.988Z</time></trkpt><trkpt lat="42.3447172" lon="13.5726882"><ele>1108.0</ele><time>2026-05-03T08:06:38.987Z</time></trkpt><trkpt lat="42.3446302" lon="13.572796"><ele>1108.0</ele><time>2026-05-03T08:06:39.987Z</time></trkpt><trkpt lat="42.3445371" lon="13.5729077"><ele>1108.0</ele><time>2026-05-03T08:06:40.988Z</time></trkpt><trkpt lat="42.3444407" lon="13.5730188"><ele>1107.5</ele><time>2026-05-03T08:06:41.988Z</time></trkpt><trkpt lat="42.3443427" lon="13.5731357"><ele>1107.0</ele><time>2026-05-03T08:06:42.988Z</time></trkpt><trkpt lat="42.3442407" lon="13.5732547"><ele>1106.5</ele><time>2026-05-03T08:06:43.987Z</time></trkpt><trkpt lat="42.3441404" lon="13.5733725"><ele>1106.0</ele><time>2026-05-03T08:06:44.988Z</time></trkpt><trkpt lat="42.3440506" lon="13.573484"><ele>1106.0</ele><time>2026-05-03T08:06:45.988Z</time></trkpt><trkpt lat="42.3439656" lon="13.5735931"><ele>1106.0</ele><time>2026-05-03T08:06:46.988Z</time></trkpt><trkpt lat="42.3438773" lon="13.5736986"><ele>1106.0</ele><time>2026-05-03T08:06:47.987Z</time></trkpt><trkpt lat="42.3437917" lon="13.573809"><ele>1106.0</ele><time>2026-05-03T08:06:48.988Z</time></trkpt><trkpt lat="42.3437099" lon="13.5739222"><ele>1105.0</ele><time>2026-05-03T08:06:49.987Z</time></trkpt><trkpt lat="42.3436327" lon="13.5740305"><ele>1104.0</ele><time>2026-05-03T08:06:50.988Z</time></trkpt><trkpt lat="42.3435637" lon="13.5741435"><ele>1103.0</ele><time>2026-05-03T08:06:51.988Z</time></trkpt><trkpt lat="42.3434982" lon="13.5742552"><ele>1102.0</ele><time>2026-05-03T08:06:52.988Z</time></trkpt><trkpt lat="42.3434262" lon="13.5743754"><ele>1101.0</ele><time>2026-05-03T08:06:53.988Z</time></trkpt><trkpt lat="42.3433468" lon="13.5744951"><ele>1101.25</ele><time>2026-05-03T08:06:54.988Z</time></trkpt><trkpt lat="42.3432624" lon="13.5746155"><ele>1101.5</ele><time>2026-05-03T08:06:55.987Z</time></trkpt><trkpt lat="42.3431692" lon="13.5747296"><ele>1101.75</ele><time>2026-05-03T08:06:56.988Z</time></trkpt><trkpt lat="42.3430708" lon="13.5748316"><ele>1102.0</ele><time>2026-05-03T08:06:57.987Z</time></trkpt><trkpt lat="42.3429703" lon="13.5749242"><ele>1102.0</ele><time>2026-05-03T08:06:58.988Z</time></trkpt><trkpt lat="42.3428757" lon="13.5750071"><ele>1102.0</ele><time>2026-05-03T08:06:59.988Z</time></trkpt><trkpt lat="42.3427886" lon="13.5750905"><ele>1102.0</ele><time>2026-05-03T08:07:00.987Z</time></trkpt><trkpt lat="42.3427138" lon="13.575181"><ele>1102.0</ele><time>2026-05-03T08:07:01.988Z</time></trkpt><trkpt lat="42.3426391" lon="13.5752828"><ele>1102.0</ele><time>2026-05-03T08:07:02.988Z</time></trkpt><trkpt lat="42.3425567" lon="13.5754002"><ele>1102.25</ele><time>2026-05-03T08:07:03.988Z</time></trkpt><trkpt lat="42.3424757" lon="13.5755242"><ele>1102.5</ele><time>2026-05-03T08:07:04.988Z</time></trkpt><trkpt lat="42.3423937" lon="13.5756528"><ele>1102.75</ele><time>2026-05-03T08:07:05.987Z</time></trkpt><trkpt lat="42.3423061" lon="13.5757817"><ele>1103.0</ele><time>2026-05-03T08:07:06.988Z</time></trkpt><trkpt lat="42.3422172" lon="13.5759129"><ele>1101.75</ele><time>2026-05-03T08:07:07.988Z</time></trkpt><trkpt lat="42.3421309" lon="13.576047"><ele>1100.5</ele><time>2026-05-03T08:07:08.988Z</time></trkpt><trkpt lat="42.3420453" lon="13.5761805"><ele>1099.25</ele><time>2026-05-03T08:07:09.988Z</time></trkpt><trkpt lat="42.3419545" lon="13.5763165"><ele>1098.0</ele><time>2026-05-03T08:07:10.988Z</time></trkpt><trkpt lat="42.341863" lon="13.5764454"><ele>1098.0</ele><time>2026-05-03T08:07:11.988Z</time></trkpt><trkpt lat="42.3417704" lon="13.5765818"><ele>1098.0</ele><time>2026-05-03T08:07:12.987Z</time></trkpt><trkpt lat="42.3416756" lon="13.5767236"><ele>1098.0</ele><time>2026-05-03T08:07:13.988Z</time></trkpt><trkpt lat="42.3415766" lon="13.5768658"><ele>1098.0</ele><time>2026-05-03T08:07:14.988Z</time></trkpt><trkpt lat="42.3414751" lon="13.5770073"><ele>1097.5</ele><time>2026-05-03T08:07:15.987Z</time></trkpt><trkpt lat="42.341372" lon="13.5771541"><ele>1097.0</ele><time>2026-05-03T08:07:16.988Z</time></trkpt><trkpt lat="42.3412691" lon="13.5772997"><ele>1096.5</ele><time>2026-05-03T08:07:17.988Z</time></trkpt><trkpt lat="42.3411715" lon="13.5774381"><ele>1096.0</ele><time>2026-05-03T08:07:18.988Z</time></trkpt><trkpt lat="42.3410754" lon="13.5775667"><ele>1096.0</ele><time>2026-05-03T08:07:19.988Z</time></trkpt><trkpt lat="42.3409846" lon="13.5777006"><ele>1096.0</ele><time>2026-05-03T08:07:20.988Z</time></trkpt><trkpt lat="42.3408985" lon="13.5778221"><ele>1096.0</ele><time>2026-05-03T08:07:21.987Z</time></trkpt><trkpt lat="42.3408154" lon="13.5779389"><ele>1096.0</ele><time>2026-05-03T08:07:22.987Z</time></trkpt><trkpt lat="42.3407347" lon="13.5780511"><ele>1097.0</ele><time>2026-05-03T08:07:23.987Z</time></trkpt><trkpt lat="42.3406497" lon="13.5781674"><ele>1098.0</ele><time>2026-05-03T08:07:24.988Z</time></trkpt><trkpt lat="42.3405641" lon="13.5782882"><ele>1099.0</ele><time>2026-05-03T08:07:25.988Z</time></trkpt><trkpt lat="42.3404721" lon="13.5784091"><ele>1100.0</ele><time>2026-05-03T08:07:26.987Z</time></trkpt><trkpt lat="42.3403738" lon="13.5785398"><ele>1098.0</ele><time>2026-05-03T08:07:27.988Z</time></trkpt><trkpt lat="42.3402763" lon="13.5786684"><ele>1096.0</ele><time>2026-05-03T08:07:28.988Z</time></trkpt><trkpt lat="42.3401732" lon="13.5788069"><ele>1094.0</ele><time>2026-05-03T08:07:29.988Z</time></trkpt><trkpt lat="42.3400743" lon="13.5789459"><ele>1092.0</ele><time>2026-05-03T08:07:30.988Z</time></trkpt><trkpt lat="42.3399789" lon="13.5790806"><ele>1092.0</ele><time>2026-05-03T08:07:31.988Z</time></trkpt><trkpt lat="42.3398861" lon="13.5792081"><ele>1092.0</ele><time>2026-05-03T08:07:32.987Z</time></trkpt><trkpt lat="42.3398007" lon="13.5793354"><ele>1092.0</ele><time>2026-05-03T08:07:33.987Z</time></trkpt><trkpt lat="42.3397196" lon="13.5794583"><ele>1092.0</ele><time>2026-05-03T08:07:34.987Z</time></trkpt><trkpt lat="42.3396397" lon="13.5795875"><ele>1090.75</ele><time>2026-05-03T08:07:35.988Z</time></trkpt><trkpt lat="42.3395644" lon="13.5797186"><ele>1089.5</ele><time>2026-05-03T08:07:36.987Z</time></trkpt><trkpt lat="42.3394888" lon="13.5798549"><ele>1088.25</ele><time>2026-05-03T08:07:37.987Z</time></trkpt><trkpt lat="42.3394091" lon="13.5799859"><ele>1087.0</ele><time>2026-05-03T08:07:38.988Z</time></trkpt><trkpt lat="42.3393241" lon="13.580107"><ele>1087.0</ele><time>2026-05-03T08:07:39.988Z</time></trkpt><trkpt lat="42.3392316" lon="13.5802234"><ele>1087.0</ele><time>2026-05-03T08:07:40.987Z</time></trkpt><trkpt lat="42.3391369" lon="13.5803287"><ele>1087.0</ele><time>2026-05-03T08:07:41.987Z</time></trkpt><trkpt lat="42.339041" lon="13.580432"><ele>1087.0</ele><time>2026-05-03T08:07:42.988Z</time></trkpt><trkpt lat="42.3389467" lon="13.5805193"><ele>1087.4</ele><time>2026-05-03T08:07:43.988Z</time></trkpt><trkpt lat="42.3388593" lon="13.5806051"><ele>1087.8000000000002</ele><time>2026-05-03T08:07:44.988Z</time></trkpt><trkpt lat="42.3387757" lon="13.5806853"><ele>1088.2</ele><time>2026-05-03T08:07:45.988Z</time></trkpt><trkpt lat="42.3386902" lon="13.5807486"><ele>1088.6000000000001</ele><time>2026-05-03T08:07:46.988Z</time></trkpt><trkpt lat="42.3386217" lon="13.5807854"><ele>1089.0</ele><time>2026-05-03T08:07:47.987Z</time></trkpt><trkpt lat="42.3385509" lon="13.5807991"><ele>1089.0000000000002</ele><time>2026-05-03T08:07:48.987Z</time></trkpt><trkpt lat="42.3384861" lon="13.5807849"><ele>1089.0</ele><time>2026-05-03T08:07:49.988Z</time></trkpt><trkpt lat="42.3384276" lon="13.5807494"><ele>1089.0</ele><time>2026-05-03T08:07:50.988Z</time></trkpt><trkpt lat="42.3383707" lon="13.5806999"><ele>1089.0</ele><time>2026-05-03T08:07:51.987Z</time></trkpt><trkpt lat="42.3383117" lon="13.5806403"><ele>1089.0</ele><time>2026-05-03T08:07:52.988Z</time></trkpt><trkpt lat="42.3382559" lon="13.5805735"><ele>1089.0000000000002</ele><time>2026-05-03T08:07:53.988Z</time></trkpt><trkpt lat="42.3381969" lon="13.5804997"><ele>1089.0</ele><time>2026-05-03T08:07:54.988Z</time></trkpt><trkpt lat="42.3381347" lon="13.580424"><ele>1088.1666666666667</ele><time>2026-05-03T08:07:55.988Z</time></trkpt><trkpt lat="42.338071" lon="13.5803319"><ele>1087.3333333333333</ele><time>2026-05-03T08:07:56.987Z</time></trkpt><trkpt lat="42.3380061" lon="13.5802337"><ele>1086.5</ele><time>2026-05-03T08:07:57.988Z</time></trkpt><trkpt lat="42.3379456" lon="13.58014"><ele>1085.6666666666665</ele><time>2026-05-03T08:07:58.987Z</time></trkpt><trkpt lat="42.3378941" lon="13.5800552"><ele>1084.8333333333333</ele><time>2026-05-03T08:07:59.987Z</time></trkpt><trkpt lat="42.3378455" lon="13.5799787"><ele>1084.0</ele><time>2026-05-03T08:08:00.987Z</time></trkpt><trkpt lat="42.337799" lon="13.5799091"><ele>1084.4</ele><time>2026-05-03T08:08:01.988Z</time></trkpt><trkpt lat="42.3377435" lon="13.5798243"><ele>1084.8000000000002</ele><time>2026-05-03T08:08:02.987Z</time></trkpt><trkpt lat="42.3376877" lon="13.5797216"><ele>1085.1999999999998</ele><time>2026-05-03T08:08:03.988Z</time></trkpt><trkpt lat="42.3376146" lon="13.5796199"><ele>1085.6</ele><time>2026-05-03T08:08:04.987Z</time></trkpt><trkpt lat="42.3375198" lon="13.5795372"><ele>1086.0</ele><time>2026-05-03T08:08:05.988Z</time></trkpt><trkpt lat="42.33741" lon="13.5794664"><ele>1086.0</ele><time>2026-05-03T08:08:06.988Z</time></trkpt><trkpt lat="42.3372812" lon="13.5794197"><ele>1086.0</ele><time>2026-05-03T08:08:07.988Z</time></trkpt><trkpt lat="42.3371391" lon="13.5794153"><ele>1086.0</ele><time>2026-05-03T08:08:08.988Z</time></trkpt><trkpt lat="42.3369929" lon="13.5794473"><ele>1086.0</ele><time>2026-05-03T08:08:09.988Z</time></trkpt><trkpt lat="42.3368374" lon="13.5794879"><ele>1085.3333333333333</ele><time>2026-05-03T08:08:10.988Z</time></trkpt><trkpt lat="42.3366744" lon="13.5795077"><ele>1084.6666666666665</ele><time>2026-05-03T08:08:11.987Z</time></trkpt><trkpt lat="42.3365025" lon="13.5795318"><ele>1084.0</ele><time>2026-05-03T08:08:12.988Z</time></trkpt><trkpt lat="42.3363258" lon="13.5795208"><ele>1086.6666666666665</ele><time>2026-05-03T08:08:13.988Z</time></trkpt><trkpt lat="42.3361439" lon="13.5795217"><ele>1089.3333333333333</ele><time>2026-05-03T08:08:14.988Z</time></trkpt><trkpt lat="42.3359551" lon="13.5795498"><ele>1092.0</ele><time>2026-05-03T08:08:15.988Z</time></trkpt><trkpt lat="42.3357666" lon="13.5795785"><ele>1092.0</ele><time>2026-05-03T08:08:16.988Z</time></trkpt><trkpt lat="42.3355815" lon="13.5796172"><ele>1092.0</ele><time>2026-05-03T08:08:17.987Z</time></trkpt><trkpt lat="42.3354002" lon="13.5796312"><ele>1092.0</ele><time>2026-05-03T08:08:18.988Z</time></trkpt><trkpt lat="42.3352223" lon="13.5796155"><ele>1090.0</ele><time>2026-05-03T08:08:19.988Z</time></trkpt><trkpt lat="42.3350437" lon="13.5795849"><ele>1088.0</ele><time>2026-05-03T08:08:20.987Z</time></trkpt><trkpt lat="42.3348655" lon="13.5795352"><ele>1086.0</ele><time>2026-05-03T08:08:21.987Z</time></trkpt><trkpt lat="42.3346936" lon="13.5794754"><ele>1079.6666666666667</ele><time>2026-05-03T08:08:22.987Z</time></trkpt><trkpt lat="42.3345258" lon="13.5794223"><ele>1073.3333333333335</ele><time>2026-05-03T08:08:23.988Z</time></trkpt><trkpt lat="42.3343568" lon="13.5793821"><ele>1067.0</ele><time>2026-05-03T08:08:24.988Z</time></trkpt><trkpt lat="42.3341884" lon="13.5793537"><ele>1067.0</ele><time>2026-05-03T08:08:25.988Z</time></trkpt><trkpt lat="42.3340196" lon="13.579332"><ele>1067.0</ele><time>2026-05-03T08:08:26.988Z</time></trkpt><trkpt lat="42.3338539" lon="13.5793122"><ele>1067.0</ele><time>2026-05-03T08:08:27.988Z</time></trkpt><trkpt lat="42.3337034" lon="13.5792897"><ele>1067.25</ele><time>2026-05-03T08:08:28.987Z</time></trkpt><trkpt lat="42.3335754" lon="13.5793035"><ele>1067.5</ele><time>2026-05-03T08:08:29.987Z</time></trkpt><trkpt lat="42.3334495" lon="13.5793592"><ele>1067.75</ele><time>2026-05-03T08:08:30.988Z</time></trkpt><trkpt lat="42.33333" lon="13.5794633"><ele>1068.0</ele><time>2026-05-03T08:08:31.988Z</time></trkpt><trkpt lat="42.333224" lon="13.5796039"><ele>1068.0</ele><time>2026-05-03T08:08:32.988Z</time></trkpt><trkpt lat="42.3331135" lon="13.5797505"><ele>1068.0</ele><time>2026-05-03T08:08:33.987Z</time></trkpt><trkpt lat="42.332979" lon="13.5798611"><ele>1068.0</ele><time>2026-05-03T08:08:34.988Z</time></trkpt><trkpt lat="42.332833" lon="13.5799484"><ele>1058.3333333333333</ele><time>2026-05-03T08:08:35.987Z</time></trkpt><trkpt lat="42.3326807" lon="13.5800349"><ele>1048.6666666666665</ele><time>2026-05-03T08:08:36.987Z</time></trkpt><trkpt lat="42.3325267" lon="13.5801154"><ele>1039.0</ele><time>2026-05-03T08:08:37.987Z</time></trkpt><trkpt lat="42.3323763" lon="13.5801908"><ele>1039.0</ele><time>2026-05-03T08:08:38.987Z</time></trkpt><trkpt lat="42.3322506" lon="13.5802567"><ele>1039.0</ele><time>2026-05-03T08:08:39.988Z</time></trkpt><trkpt lat="42.3321449" lon="13.5803249"><ele>1039.0</ele><time>2026-05-03T08:08:40.988Z</time></trkpt><trkpt lat="42.3320531" lon="13.5804282"><ele>1039.0</ele><time>2026-05-03T08:08:41.988Z</time></trkpt><trkpt lat="42.3319934" lon="13.5805802"><ele>1037.0</ele><time>2026-05-03T08:08:42.987Z</time></trkpt><trkpt lat="42.3319685" lon="13.5807455"><ele>1035.0</ele><time>2026-05-03T08:08:43.988Z</time></trkpt><trkpt lat="42.3319832" lon="13.5809491"><ele>1033.0</ele><time>2026-05-03T08:08:44.987Z</time></trkpt><trkpt lat="42.3320194" lon="13.5811657"><ele>1031.0</ele><time>2026-05-03T08:08:45.987Z</time></trkpt><trkpt lat="42.3320579" lon="13.58141"><ele>1031.0</ele><time>2026-05-03T08:08:46.988Z</time></trkpt><trkpt lat="42.332063" lon="13.5816773"><ele>1031.0</ele><time>2026-05-03T08:08:47.987Z</time></trkpt><trkpt lat="42.3320503" lon="13.5819348"><ele>1031.0</ele><time>2026-05-03T08:08:48.988Z</time></trkpt><trkpt lat="42.3320615" lon="13.5821834"><ele>1029.3333333333335</ele><time>2026-05-03T08:08:49.987Z</time></trkpt><trkpt lat="42.3320951" lon="13.58244"><ele>1027.6666666666667</ele><time>2026-05-03T08:08:50.988Z</time></trkpt><trkpt lat="42.3321439" lon="13.5826931"><ele>1026.0</ele><time>2026-05-03T08:08:51.988Z</time></trkpt><trkpt lat="42.3321979" lon="13.5829359"><ele>1029.6666666666667</ele><time>2026-05-03T08:08:52.988Z</time></trkpt><trkpt lat="42.3322468" lon="13.5831677"><ele>1033.3333333333335</ele><time>2026-05-03T08:08:53.988Z</time></trkpt><trkpt lat="42.3322964" lon="13.5833763"><ele>1037.0</ele><time>2026-05-03T08:08:54.988Z</time></trkpt><trkpt lat="42.3323378" lon="13.5835515"><ele>1035.25</ele><time>2026-05-03T08:08:55.987Z</time></trkpt><trkpt lat="42.3323771" lon="13.5837213"><ele>1033.5</ele><time>2026-05-03T08:08:56.987Z</time></trkpt><trkpt lat="42.3324128" lon="13.583882"><ele>1031.75</ele><time>2026-05-03T08:08:57.988Z</time></trkpt><trkpt lat="42.3324454" lon="13.5840502"><ele>1030.0</ele><time>2026-05-03T08:08:58.988Z</time></trkpt><trkpt lat="42.3324643" lon="13.5842233"><ele>1030.0</ele><time>2026-05-03T08:08:59.987Z</time></trkpt><trkpt lat="42.3324677" lon="13.5843928"><ele>1030.0</ele><time>2026-05-03T08:09:00.988Z</time></trkpt><trkpt lat="42.3324683" lon="13.5845382"><ele>1030.0</ele><time>2026-05-03T08:09:01.987Z</time></trkpt><trkpt lat="42.3324705" lon="13.5846847"><ele>1030.0</ele><time>2026-05-03T08:09:02.987Z</time></trkpt><trkpt lat="42.3324713" lon="13.5848232"><ele>1030.0</ele><time>2026-05-03T08:09:03.988Z</time></trkpt><trkpt lat="42.3324701" lon="13.584959"><ele>1029.3333333333333</ele><time>2026-05-03T08:09:04.987Z</time></trkpt><trkpt lat="42.3324704" lon="13.5850936"><ele>1028.6666666666665</ele><time>2026-05-03T08:09:05.987Z</time></trkpt><trkpt lat="42.3324721" lon="13.5852068"><ele>1028.0</ele><time>2026-05-03T08:09:06.987Z</time></trkpt><trkpt lat="42.3324747" lon="13.5853194"><ele>1027.3333333333333</ele><time>2026-05-03T08:09:07.987Z</time></trkpt><trkpt lat="42.3324741" lon="13.5854342"><ele>1026.6666666666667</ele><time>2026-05-03T08:09:08.987Z</time></trkpt><trkpt lat="42.332463" lon="13.5855457"><ele>1026.0</ele><time>2026-05-03T08:09:09.988Z</time></trkpt><trkpt lat="42.3324376" lon="13.585655"><ele>1025.3333333333333</ele><time>2026-05-03T08:09:10.987Z</time></trkpt><trkpt lat="42.3323979" lon="13.5857554"><ele>1024.6666666666667</ele><time>2026-05-03T08:09:11.988Z</time></trkpt><trkpt lat="42.3323571" lon="13.5858575"><ele>1024.0</ele><time>2026-05-03T08:09:12.987Z</time></trkpt><trkpt lat="42.3323174" lon="13.5859541"><ele>1023.3333333333334</ele><time>2026-05-03T08:09:13.988Z</time></trkpt><trkpt lat="42.3322815" lon="13.5860438"><ele>1022.6666666666667</ele><time>2026-05-03T08:09:14.988Z</time></trkpt><trkpt lat="42.332236" lon="13.5861313"><ele>1022.0</ele><time>2026-05-03T08:09:15.987Z</time></trkpt><trkpt lat="42.3321918" lon="13.5862265"><ele>1020.0</ele><time>2026-05-03T08:09:16.987Z</time></trkpt><trkpt lat="42.3321491" lon="13.5863299"><ele>1018.0</ele><time>2026-05-03T08:09:17.988Z</time></trkpt><trkpt lat="42.3321051" lon="13.586444"><ele>1016.0</ele><time>2026-05-03T08:09:18.988Z</time></trkpt><trkpt lat="42.3320547" lon="13.5865606"><ele>1014.0</ele><time>2026-05-03T08:09:19.988Z</time></trkpt><trkpt lat="42.3319937" lon="13.5866906"><ele>1012.0</ele><time>2026-05-03T08:09:20.987Z</time></trkpt><trkpt lat="42.3319239" lon="13.5868537"><ele>1012.0</ele><time>2026-05-03T08:09:21.987Z</time></trkpt><trkpt lat="42.3318503" lon="13.5870304"><ele>1012.0</ele><time>2026-05-03T08:09:22.988Z</time></trkpt><trkpt lat="42.3317581" lon="13.5872401"><ele>1012.0</ele><time>2026-05-03T08:09:23.988Z</time></trkpt><trkpt lat="42.3316543" lon="13.5874392"><ele>1012.0</ele><time>2026-05-03T08:09:24.987Z</time></trkpt><trkpt lat="42.3315531" lon="13.5876401"><ele>1012.0</ele><time>2026-05-03T08:09:25.987Z</time></trkpt><trkpt lat="42.3314583" lon="13.5878436"><ele>1012.0</ele><time>2026-05-03T08:09:26.987Z</time></trkpt><trkpt lat="42.3313705" lon="13.5880452"><ele>1007.6666666666666</ele><time>2026-05-03T08:09:27.987Z</time></trkpt><trkpt lat="42.3312837" lon="13.5882556"><ele>1003.3333333333333</ele><time>2026-05-03T08:09:28.988Z</time></trkpt><trkpt lat="42.331204" lon="13.5884697"><ele>999.0</ele><time>2026-05-03T08:09:29.988Z</time></trkpt><trkpt lat="42.3311394" lon="13.5886905"><ele>999.0</ele><time>2026-05-03T08:09:30.987Z</time></trkpt><trkpt lat="42.3310791" lon="13.5888998"><ele>999.0</ele><time>2026-05-03T08:09:31.988Z</time></trkpt><trkpt lat="42.3310168" lon="13.5891117"><ele>999.0</ele><time>2026-05-03T08:09:32.988Z</time></trkpt><trkpt lat="42.3309575" lon="13.589319"><ele>999.3333333333333</ele><time>2026-05-03T08:09:33.988Z</time></trkpt><trkpt lat="42.3308904" lon="13.5895179"><ele>999.6666666666666</ele><time>2026-05-03T08:09:34.987Z</time></trkpt><trkpt lat="42.3308006" lon="13.5896844"><ele>1000.0</ele><time>2026-05-03T08:09:35.987Z</time></trkpt><trkpt lat="42.3306846" lon="13.5898201"><ele>997.3333333333333</ele><time>2026-05-03T08:09:36.987Z</time></trkpt><trkpt lat="42.3305522" lon="13.5899247"><ele>994.6666666666667</ele><time>2026-05-03T08:09:37.987Z</time></trkpt><trkpt lat="42.3304161" lon="13.5900112"><ele>992.0</ele><time>2026-05-03T08:09:38.988Z</time></trkpt><trkpt lat="42.3302735" lon="13.5900865"><ele>992.0</ele><time>2026-05-03T08:09:39.988Z</time></trkpt><trkpt lat="42.3301385" lon="13.5901331"><ele>992.0</ele><time>2026-05-03T08:09:40.988Z</time></trkpt><trkpt lat="42.3300307" lon="13.5901616"><ele>992.0</ele><time>2026-05-03T08:09:41.987Z</time></trkpt><trkpt lat="42.3299463" lon="13.5902019"><ele>992.0</ele><time>2026-05-03T08:09:42.988Z</time></trkpt><trkpt lat="42.3298695" lon="13.590268"><ele>992.0</ele><time>2026-05-03T08:09:43.987Z</time></trkpt><trkpt lat="42.3298015" lon="13.5903515"><ele>993.0</ele><time>2026-05-03T08:09:44.987Z</time></trkpt><trkpt lat="42.3297364" lon="13.5904466"><ele>994.0</ele><time>2026-05-03T08:09:45.987Z</time></trkpt><trkpt lat="42.3296771" lon="13.5905406"><ele>995.0</ele><time>2026-05-03T08:09:47.988Z</time></trkpt><trkpt lat="42.3296989" lon="13.590658"><ele>996.0</ele><time>2026-05-03T08:09:50.987Z</time></trkpt><trkpt lat="42.3298136" lon="13.5907342"><ele>997.0</ele><time>2026-05-03T08:09:52.987Z</time></trkpt><trkpt lat="42.329881" lon="13.5907799"><ele>997.0</ele><time>2026-05-03T08:09:53.987Z</time></trkpt><trkpt lat="42.3299543" lon="13.590822"><ele>997.0</ele><time>2026-05-03T08:09:54.987Z</time></trkpt><trkpt lat="42.3300395" lon="13.5908769"><ele>997.0</ele><time>2026-05-03T08:09:55.988Z</time></trkpt><trkpt lat="42.3301414" lon="13.5909336"><ele>997.0</ele><time>2026-05-03T08:09:56.988Z</time></trkpt><trkpt lat="42.3302263" lon="13.5909856"><ele>997.0</ele><time>2026-05-03T08:09:57.987Z</time></trkpt><trkpt lat="42.3303005" lon="13.5910561"><ele>997.0</ele><time>2026-05-03T08:09:58.987Z</time></trkpt><trkpt lat="42.3303798" lon="13.5911359"><ele>997.0</ele><time>2026-05-03T08:09:59.987Z</time></trkpt><trkpt lat="42.3304576" lon="13.5912128"><ele>997.0</ele><time>2026-05-03T08:10:00.988Z</time></trkpt><trkpt lat="42.330534" lon="13.5912967"><ele>997.0</ele><time>2026-05-03T08:10:01.988Z</time></trkpt><trkpt lat="42.3306127" lon="13.5913806"><ele>997.0</ele><time>2026-05-03T08:10:02.988Z</time></trkpt><trkpt lat="42.330696" lon="13.5914629"><ele>1000.2</ele><time>2026-05-03T08:10:03.987Z</time></trkpt><trkpt lat="42.3307794" lon="13.5915458"><ele>1003.4000000000001</ele><time>2026-05-03T08:10:04.988Z</time></trkpt><trkpt lat="42.3308603" lon="13.5916298"><ele>1006.5999999999999</ele><time>2026-05-03T08:10:05.987Z</time></trkpt><trkpt lat="42.3309439" lon="13.5917254"><ele>1009.8</ele><time>2026-05-03T08:10:06.987Z</time></trkpt><trkpt lat="42.331024" lon="13.5918324"><ele>1013.0</ele><time>2026-05-03T08:10:07.987Z</time></trkpt><trkpt lat="42.3311128" lon="13.59195"><ele>1015.0</ele><time>2026-05-03T08:10:08.988Z</time></trkpt><trkpt lat="42.3312068" lon="13.5920954"><ele>1017.0</ele><time>2026-05-03T08:10:09.987Z</time></trkpt><trkpt lat="42.3312997" lon="13.5922643"><ele>1019.0</ele><time>2026-05-03T08:10:10.988Z</time></trkpt><trkpt lat="42.3313865" lon="13.5924422"><ele>1020.75</ele><time>2026-05-03T08:10:11.987Z</time></trkpt><trkpt lat="42.3314716" lon="13.5926062"><ele>1022.5</ele><time>2026-05-03T08:10:12.987Z</time></trkpt><trkpt lat="42.3315541" lon="13.592755"><ele>1024.25</ele><time>2026-05-03T08:10:13.987Z</time></trkpt><trkpt lat="42.3316322" lon="13.5929036"><ele>1026.0</ele><time>2026-05-03T08:10:14.988Z</time></trkpt><trkpt lat="42.3317025" lon="13.5930443"><ele>1027.3999999999999</ele><time>2026-05-03T08:10:15.987Z</time></trkpt><trkpt lat="42.3317693" lon="13.5931789"><ele>1028.8</ele><time>2026-05-03T08:10:16.987Z</time></trkpt><trkpt lat="42.3318334" lon="13.593303"><ele>1030.1999999999998</ele><time>2026-05-03T08:10:17.988Z</time></trkpt><trkpt lat="42.3318921" lon="13.5934161"><ele>1031.6</ele><time>2026-05-03T08:10:18.988Z</time></trkpt><trkpt lat="42.3319477" lon="13.593526"><ele>1033.0</ele><time>2026-05-03T08:10:19.987Z</time></trkpt><trkpt lat="42.3320008" lon="13.5936227"><ele>1034.5</ele><time>2026-05-03T08:10:20.987Z</time></trkpt><trkpt lat="42.3320514" lon="13.5937109"><ele>1036.0</ele><time>2026-05-03T08:10:21.988Z</time></trkpt><trkpt lat="42.3320852" lon="13.5937903"><ele>1037.5</ele><time>2026-05-03T08:10:22.988Z</time></trkpt><trkpt lat="42.3320815" lon="13.5939064"><ele>1039.0</ele><time>2026-05-03T08:10:24.987Z</time></trkpt><trkpt lat="42.3320227" lon="13.5939902"><ele>1040.5</ele><time>2026-05-03T08:10:26.987Z</time></trkpt><trkpt lat="42.3319566" lon="13.5941277"><ele>1042.0</ele><time>2026-05-03T08:10:28.988Z</time></trkpt><trkpt lat="42.3319221" lon="13.5942271"><ele>1042.0</ele><time>2026-05-03T08:10:29.988Z</time></trkpt><trkpt lat="42.3318639" lon="13.5943353"><ele>1042.0</ele><time>2026-05-03T08:10:30.987Z</time></trkpt><trkpt lat="42.3317968" lon="13.5944477"><ele>1042.0</ele><time>2026-05-03T08:10:31.987Z</time></trkpt><trkpt lat="42.3317361" lon="13.5945448"><ele>1042.0</ele><time>2026-05-03T08:10:32.987Z</time></trkpt><trkpt lat="42.3316821" lon="13.5946285"><ele>1042.0</ele><time>2026-05-03T08:10:33.988Z</time></trkpt><trkpt lat="42.3316378" lon="13.5947026"><ele>1041.3333333333333</ele><time>2026-05-03T08:10:34.987Z</time></trkpt><trkpt lat="42.3316095" lon="13.5948367"><ele>1040.6666666666665</ele><time>2026-05-03T08:10:36.987Z</time></trkpt><trkpt lat="42.3316521" lon="13.5949177"><ele>1040.0</ele><time>2026-05-03T08:10:38.988Z</time></trkpt><trkpt lat="42.3317372" lon="13.5949483"><ele>1039.3333333333333</ele><time>2026-05-03T08:10:40.987Z</time></trkpt><trkpt lat="42.3318203" lon="13.59501"><ele>1038.6666666666667</ele><time>2026-05-03T08:10:42.987Z</time></trkpt><trkpt lat="42.3318479" lon="13.5950899"><ele>1038.0</ele><time>2026-05-03T08:10:43.988Z</time></trkpt><trkpt lat="42.33187" lon="13.5951842"><ele>1038.0</ele><time>2026-05-03T08:10:44.988Z</time></trkpt><trkpt lat="42.3318835" lon="13.5952791"><ele>1038.0</ele><time>2026-05-03T08:10:45.987Z</time></trkpt><trkpt lat="42.3318819" lon="13.5953786"><ele>1038.0</ele><time>2026-05-03T08:10:46.988Z</time></trkpt><trkpt lat="42.3318869" lon="13.5954783"><ele>1038.0</ele><time>2026-05-03T08:10:47.987Z</time></trkpt><trkpt lat="42.3319054" lon="13.595571"><ele>1038.0</ele><time>2026-05-03T08:10:48.988Z</time></trkpt><trkpt lat="42.3319198" lon="13.5957266"><ele>1038.0</ele><time>2026-05-03T08:10:50.988Z</time></trkpt><trkpt lat="42.3318526" lon="13.5958738"><ele>1037.8333333333333</ele><time>2026-05-03T08:10:52.987Z</time></trkpt><trkpt lat="42.331799" lon="13.595953"><ele>1037.6666666666667</ele><time>2026-05-03T08:10:53.988Z</time></trkpt><trkpt lat="42.3317456" lon="13.5960381"><ele>1037.5</ele><time>2026-05-03T08:10:54.987Z</time></trkpt><trkpt lat="42.3316967" lon="13.5961219"><ele>1037.3333333333335</ele><time>2026-05-03T08:10:55.987Z</time></trkpt><trkpt lat="42.3316516" lon="13.5961927"><ele>1037.1666666666667</ele><time>2026-05-03T08:10:56.987Z</time></trkpt><trkpt lat="42.3315619" lon="13.596243"><ele>1037.0</ele><time>2026-05-03T08:10:58.988Z</time></trkpt><trkpt lat="42.3314494" lon="13.5961826"><ele>1035.6</ele><time>2026-05-03T08:11:00.988Z</time></trkpt><trkpt lat="42.3313237" lon="13.5961543"><ele>1034.2</ele><time>2026-05-03T08:11:02.988Z</time></trkpt><trkpt lat="42.3312462" lon="13.5961687"><ele>1032.8</ele><time>2026-05-03T08:11:03.987Z</time></trkpt><trkpt lat="42.331163" lon="13.5961878"><ele>1031.4</ele><time>2026-05-03T08:11:04.988Z</time></trkpt><trkpt lat="42.3310813" lon="13.5962096"><ele>1030.0</ele><time>2026-05-03T08:11:05.988Z</time></trkpt><trkpt lat="42.3310073" lon="13.5962447"><ele>1029.5</ele><time>2026-05-03T08:11:06.988Z</time></trkpt><trkpt lat="42.3309449" lon="13.5962996"><ele>1029.0</ele><time>2026-05-03T08:11:07.988Z</time></trkpt><trkpt lat="42.3308902" lon="13.5963704"><ele>1028.5</ele><time>2026-05-03T08:11:08.987Z</time></trkpt><trkpt lat="42.3308413" lon="13.5964621"><ele>1028.0</ele><time>2026-05-03T08:11:09.988Z</time></trkpt><trkpt lat="42.3307936" lon="13.5965596"><ele>1027.5</ele><time>2026-05-03T08:11:10.988Z</time></trkpt><trkpt lat="42.3307494" lon="13.5966479"><ele>1027.0</ele><time>2026-05-03T08:11:11.988Z</time></trkpt><trkpt lat="42.3307164" lon="13.596742"><ele>1027.0</ele><time>2026-05-03T08:11:12.988Z</time></trkpt><trkpt lat="42.3306983" lon="13.5968401"><ele>1027.0</ele><time>2026-05-03T08:11:13.988Z</time></trkpt><trkpt lat="42.3306881" lon="13.5969436"><ele>1027.0</ele><time>2026-05-03T08:11:14.988Z</time></trkpt><trkpt lat="42.3306757" lon="13.5970506"><ele>1027.0</ele><time>2026-05-03T08:11:15.987Z</time></trkpt><trkpt lat="42.3306689" lon="13.5971539"><ele>1027.0</ele><time>2026-05-03T08:11:16.988Z</time></trkpt><trkpt lat="42.3306633" lon="13.597256"><ele>1027.0</ele><time>2026-05-03T08:11:17.988Z</time></trkpt><trkpt lat="42.3306468" lon="13.5973561"><ele>1027.1666666666665</ele><time>2026-05-03T08:11:18.987Z</time></trkpt><trkpt lat="42.3306103" lon="13.5974348"><ele>1027.3333333333333</ele><time>2026-05-03T08:11:19.988Z</time></trkpt><trkpt lat="42.3305433" lon="13.5974909"><ele>1027.5</ele><time>2026-05-03T08:11:20.987Z</time></trkpt><trkpt lat="42.3304632" lon="13.5975491"><ele>1027.6666666666667</ele><time>2026-05-03T08:11:21.987Z</time></trkpt><trkpt lat="42.3303942" lon="13.5976142"><ele>1027.8333333333335</ele><time>2026-05-03T08:11:22.987Z</time></trkpt><trkpt lat="42.3303364" lon="13.5976873"><ele>1028.0</ele><time>2026-05-03T08:11:23.987Z</time></trkpt><trkpt lat="42.330279" lon="13.5977687"><ele>1027.3333333333335</ele><time>2026-05-03T08:11:24.987Z</time></trkpt><trkpt lat="42.330224" lon="13.597841"><ele>1026.6666666666667</ele><time>2026-05-03T08:11:25.987Z</time></trkpt><trkpt lat="42.3301728" lon="13.5979038"><ele>1026.0</ele><time>2026-05-03T08:11:26.987Z</time></trkpt><trkpt lat="42.3301152" lon="13.5979536"><ele>1025.3333333333333</ele><time>2026-05-03T08:11:27.988Z</time></trkpt><trkpt lat="42.3300452" lon="13.5979887"><ele>1024.6666666666665</ele><time>2026-05-03T08:11:28.988Z</time></trkpt><trkpt lat="42.3299618" lon="13.5980097"><ele>1024.0</ele><time>2026-05-03T08:11:29.988Z</time></trkpt><trkpt lat="42.3298865" lon="13.5980337"><ele>1024.0</ele><time>2026-05-03T08:11:30.988Z</time></trkpt><trkpt lat="42.3298141" lon="13.5980815"><ele>1024.0</ele><time>2026-05-03T08:11:31.988Z</time></trkpt><trkpt lat="42.3297372" lon="13.5981498"><ele>1024.0</ele><time>2026-05-03T08:11:32.988Z</time></trkpt><trkpt lat="42.329652" lon="13.5982213"><ele>1024.0</ele><time>2026-05-03T08:11:33.988Z</time></trkpt><trkpt lat="42.3295697" lon="13.5982906"><ele>1024.0</ele><time>2026-05-03T08:11:34.988Z</time></trkpt><trkpt lat="42.3294947" lon="13.5983629"><ele>1024.3333333333333</ele><time>2026-05-03T08:11:35.987Z</time></trkpt><trkpt lat="42.3294284" lon="13.598447"><ele>1024.6666666666665</ele><time>2026-05-03T08:11:36.987Z</time></trkpt><trkpt lat="42.3293702" lon="13.5985307"><ele>1025.0</ele><time>2026-05-03T08:11:37.987Z</time></trkpt><trkpt lat="42.3293179" lon="13.5985904"><ele>1025.3333333333333</ele><time>2026-05-03T08:11:38.987Z</time></trkpt><trkpt lat="42.3292014" lon="13.5986375"><ele>1025.6666666666667</ele><time>2026-05-03T08:11:40.988Z</time></trkpt><trkpt lat="42.3291376" lon="13.5986609"><ele>1026.0</ele><time>2026-05-03T08:11:41.987Z</time></trkpt><trkpt lat="42.3290787" lon="13.5987047"><ele>1026.0</ele><time>2026-05-03T08:11:42.987Z</time></trkpt><trkpt lat="42.3290251" lon="13.5987707"><ele>1026.0</ele><time>2026-05-03T08:11:43.987Z</time></trkpt><trkpt lat="42.3289726" lon="13.5988515"><ele>1026.0</ele><time>2026-05-03T08:11:44.988Z</time></trkpt><trkpt lat="42.328912" lon="13.5989425"><ele>1026.0</ele><time>2026-05-03T08:11:45.987Z</time></trkpt><trkpt lat="42.328846" lon="13.5990379"><ele>1026.0</ele><time>2026-05-03T08:11:46.988Z</time></trkpt><trkpt lat="42.3287845" lon="13.5991244"><ele>1026.0</ele><time>2026-05-03T08:11:47.987Z</time></trkpt><trkpt lat="42.3287305" lon="13.5992046"><ele>1025.2857142857144</ele><time>2026-05-03T08:11:48.988Z</time></trkpt><trkpt lat="42.3286852" lon="13.5992856"><ele>1024.5714285714287</ele><time>2026-05-03T08:11:49.987Z</time></trkpt><trkpt lat="42.3286445" lon="13.5993731"><ele>1023.8571428571429</ele><time>2026-05-03T08:11:50.988Z</time></trkpt><trkpt lat="42.328603" lon="13.5994584"><ele>1023.1428571428572</ele><time>2026-05-03T08:11:51.988Z</time></trkpt><trkpt lat="42.3285584" lon="13.5995342"><ele>1022.4285714285716</ele><time>2026-05-03T08:11:52.987Z</time></trkpt><trkpt lat="42.3285062" lon="13.5995973"><ele>1021.7142857142857</ele><time>2026-05-03T08:11:53.988Z</time></trkpt><trkpt lat="42.3284467" lon="13.5996525"><ele>1021.0</ele><time>2026-05-03T08:11:54.988Z</time></trkpt><trkpt lat="42.3283886" lon="13.5997165"><ele>1020.9999999999999</ele><time>2026-05-03T08:11:55.987Z</time></trkpt><trkpt lat="42.3283344" lon="13.5997772"><ele>1021.0</ele><time>2026-05-03T08:11:56.988Z</time></trkpt><trkpt lat="42.3282802" lon="13.5998222"><ele>1021.0</ele><time>2026-05-03T08:11:57.988Z</time></trkpt><trkpt lat="42.3281912" lon="13.5999227"><ele>1021.0</ele><time>2026-05-03T08:11:59.988Z</time></trkpt><trkpt lat="42.3281425" lon="13.59999"><ele>1020.9999999999999</ele><time>2026-05-03T08:12:00.987Z</time></trkpt><trkpt lat="42.3280915" lon="13.6000636"><ele>1021.0</ele><time>2026-05-03T08:12:01.988Z</time></trkpt><trkpt lat="42.3280532" lon="13.6001546"><ele>1020.6666666666666</ele><time>2026-05-03T08:12:02.988Z</time></trkpt><trkpt lat="42.3280187" lon="13.600258"><ele>1020.3333333333333</ele><time>2026-05-03T08:12:03.988Z</time></trkpt><trkpt lat="42.3279783" lon="13.6003411"><ele>1020.0</ele><time>2026-05-03T08:12:04.988Z</time></trkpt><trkpt lat="42.3279291" lon="13.600403"><ele>1019.6666666666667</ele><time>2026-05-03T08:12:05.988Z</time></trkpt><trkpt lat="42.3278658" lon="13.6004631"><ele>1019.3333333333334</ele><time>2026-05-03T08:12:06.987Z</time></trkpt><trkpt lat="42.3277982" lon="13.6005237"><ele>1019.0</ele><time>2026-05-03T08:12:07.988Z</time></trkpt><trkpt lat="42.327735" lon="13.6005871"><ele>1018.8333333333334</ele><time>2026-05-03T08:12:08.987Z</time></trkpt><trkpt lat="42.3276801" lon="13.6006658"><ele>1018.6666666666667</ele><time>2026-05-03T08:12:09.987Z</time></trkpt><trkpt lat="42.3276223" lon="13.6007587"><ele>1018.5</ele><time>2026-05-03T08:12:10.988Z</time></trkpt><trkpt lat="42.3275722" lon="13.6008515"><ele>1018.3333333333333</ele><time>2026-05-03T08:12:11.988Z</time></trkpt><trkpt lat="42.3275274" lon="13.600959"><ele>1018.1666666666666</ele><time>2026-05-03T08:12:12.987Z</time></trkpt><trkpt lat="42.3274808" lon="13.6010726"><ele>1018.0</ele><time>2026-05-03T08:12:13.988Z</time></trkpt><trkpt lat="42.3274332" lon="13.6011664"><ele>1017.8333333333333</ele><time>2026-05-03T08:12:14.988Z</time></trkpt><trkpt lat="42.3273878" lon="13.6012546"><ele>1017.6666666666666</ele><time>2026-05-03T08:12:15.988Z</time></trkpt><trkpt lat="42.3273388" lon="13.6013381"><ele>1017.5</ele><time>2026-05-03T08:12:16.987Z</time></trkpt><trkpt lat="42.3272927" lon="13.6014172"><ele>1017.3333333333333</ele><time>2026-05-03T08:12:17.988Z</time></trkpt><trkpt lat="42.3272532" lon="13.6014949"><ele>1017.1666666666666</ele><time>2026-05-03T08:12:18.987Z</time></trkpt><trkpt lat="42.3272229" lon="13.6015707"><ele>1017.0</ele><time>2026-05-03T08:12:19.988Z</time></trkpt><trkpt lat="42.3271732" lon="13.6017063"><ele>1017.0</ele><time>2026-05-03T08:12:21.987Z</time></trkpt><trkpt lat="42.3271138" lon="13.6018168"><ele>1017.0</ele><time>2026-05-03T08:12:23.988Z</time></trkpt><trkpt lat="42.3270723" lon="13.6019088"><ele>1017.0</ele><time>2026-05-03T08:12:35.987Z</time></trkpt><trkpt lat="42.3270344" lon="13.6019886"><ele>1017.0</ele><time>2026-05-03T08:12:45.987Z</time></trkpt><trkpt lat="42.3270014" lon="13.6020627"><ele>1017.0</ele><time>2026-05-03T08:12:50.987Z</time></trkpt><trkpt lat="42.3269739" lon="13.6021498"><ele>1017.0</ele><time>2026-05-03T08:13:09.987Z</time></trkpt><trkpt lat="42.3269383" lon="13.6022533"><ele>1017.0</ele><time>2026-05-03T08:13:12.987Z</time></trkpt><trkpt lat="42.3269143" lon="13.602342"><ele>1016.9999999999999</ele><time>2026-05-03T08:13:27.988Z</time></trkpt><trkpt lat="42.3268918" lon="13.6024645"><ele>1017.0</ele><time>2026-05-03T08:13:29.988Z</time></trkpt><trkpt lat="42.3268794" lon="13.602552"><ele>1017.0</ele><time>2026-05-03T08:13:30.987Z</time></trkpt><trkpt lat="42.326863" lon="13.6026429"><ele>1016.9999999999999</ele><time>2026-05-03T08:13:31.987Z</time></trkpt><trkpt lat="42.3268343" lon="13.602733"><ele>1017.0</ele><time>2026-05-03T08:13:32.988Z</time></trkpt><trkpt lat="42.3267964" lon="13.6028216"><ele>1017.0</ele><time>2026-05-03T08:13:33.988Z</time></trkpt><trkpt lat="42.3267457" lon="13.6029121"><ele>1017.0</ele><time>2026-05-03T08:13:34.988Z</time></trkpt><trkpt lat="42.3267023" lon="13.6029995"><ele>1017.0</ele><time>2026-05-03T08:13:35.987Z</time></trkpt><trkpt lat="42.3266614" lon="13.6030899"><ele>1017.0</ele><time>2026-05-03T08:13:36.988Z</time></trkpt><trkpt lat="42.326614" lon="13.6031705"><ele>1017.0</ele><time>2026-05-03T08:13:37.987Z</time></trkpt><trkpt lat="42.3265574" lon="13.603252"><ele>1017.0</ele><time>2026-05-03T08:13:38.988Z</time></trkpt><trkpt lat="42.3264966" lon="13.6033292"><ele>1017.0</ele><time>2026-05-03T08:13:39.987Z</time></trkpt><trkpt lat="42.3264373" lon="13.6034078"><ele>1016.1666666666666</ele><time>2026-05-03T08:13:40.988Z</time></trkpt><trkpt lat="42.326375" lon="13.6034771"><ele>1015.3333333333333</ele><time>2026-05-03T08:13:41.987Z</time></trkpt><trkpt lat="42.3263129" lon="13.6035532"><ele>1014.5</ele><time>2026-05-03T08:13:42.988Z</time></trkpt><trkpt lat="42.3262523" lon="13.603622"><ele>1013.6666666666666</ele><time>2026-05-03T08:13:43.987Z</time></trkpt><trkpt lat="42.3262028" lon="13.6036965"><ele>1012.8333333333333</ele><time>2026-05-03T08:13:44.988Z</time></trkpt><trkpt lat="42.3261447" lon="13.6037785"><ele>1012.0</ele><time>2026-05-03T08:13:45.988Z</time></trkpt><trkpt lat="42.3260848" lon="13.603858"><ele>1011.9999999999999</ele><time>2026-05-03T08:13:46.987Z</time></trkpt><trkpt lat="42.3260252" lon="13.6039315"><ele>1012.0</ele><time>2026-05-03T08:13:47.987Z</time></trkpt><trkpt lat="42.3259691" lon="13.604009"><ele>1012.0</ele><time>2026-05-03T08:13:48.988Z</time></trkpt><trkpt lat="42.3259195" lon="13.604085"><ele>1012.0</ele><time>2026-05-03T08:13:49.988Z</time></trkpt><trkpt lat="42.3258763" lon="13.6041662"><ele>1011.9999999999999</ele><time>2026-05-03T08:13:50.988Z</time></trkpt><trkpt lat="42.3258409" lon="13.6042508"><ele>1012.0</ele><time>2026-05-03T08:13:51.987Z</time></trkpt><trkpt lat="42.3258101" lon="13.6043359"><ele>1011.9999999999999</ele><time>2026-05-03T08:13:52.987Z</time></trkpt><trkpt lat="42.3257711" lon="13.604414"><ele>1012.0</ele><time>2026-05-03T08:13:53.988Z</time></trkpt><trkpt lat="42.3257156" lon="13.604468"><ele>1012.0</ele><time>2026-05-03T08:13:54.987Z</time></trkpt><trkpt lat="42.3256554" lon="13.6045352"><ele>1012.0</ele><time>2026-05-03T08:13:55.987Z</time></trkpt><trkpt lat="42.3256006" lon="13.6046213"><ele>1011.9999999999999</ele><time>2026-05-03T08:13:56.987Z</time></trkpt><trkpt lat="42.3255444" lon="13.6047102"><ele>1012.0</ele><time>2026-05-03T08:13:57.988Z</time></trkpt><trkpt lat="42.3254932" lon="13.6048147"><ele>1011.8333333333333</ele><time>2026-05-03T08:13:58.988Z</time></trkpt><trkpt lat="42.3254556" lon="13.604924"><ele>1011.6666666666666</ele><time>2026-05-03T08:13:59.987Z</time></trkpt><trkpt lat="42.3254076" lon="13.6050229"><ele>1011.5</ele><time>2026-05-03T08:14:00.988Z</time></trkpt><trkpt lat="42.3253512" lon="13.6051099"><ele>1011.3333333333333</ele><time>2026-05-03T08:14:01.988Z</time></trkpt><trkpt lat="42.3253018" lon="13.6051892"><ele>1011.1666666666666</ele><time>2026-05-03T08:14:02.988Z</time></trkpt><trkpt lat="42.3252557" lon="13.6052724"><ele>1011.0</ele><time>2026-05-03T08:14:03.987Z</time></trkpt><trkpt lat="42.3252145" lon="13.6053591"><ele>1010.0</ele><time>2026-05-03T08:14:04.987Z</time></trkpt><trkpt lat="42.3251762" lon="13.6054558"><ele>1009.0</ele><time>2026-05-03T08:14:05.988Z</time></trkpt><trkpt lat="42.3251426" lon="13.6055568"><ele>1008.0</ele><time>2026-05-03T08:14:06.988Z</time></trkpt><trkpt lat="42.3251087" lon="13.605663"><ele>1007.0</ele><time>2026-05-03T08:14:07.988Z</time></trkpt><trkpt lat="42.325078" lon="13.6057583"><ele>1006.0</ele><time>2026-05-03T08:14:08.988Z</time></trkpt><trkpt lat="42.3250477" lon="13.6058556"><ele>1005.0</ele><time>2026-05-03T08:14:09.987Z</time></trkpt><trkpt lat="42.3250245" lon="13.6059475"><ele>1005.0</ele><time>2026-05-03T08:14:10.987Z</time></trkpt><trkpt lat="42.3250148" lon="13.6060317"><ele>1005.0</ele><time>2026-05-03T08:14:11.988Z</time></trkpt><trkpt lat="42.3250057" lon="13.6061819"><ele>1005.0</ele><time>2026-05-03T08:14:13.987Z</time></trkpt><trkpt lat="42.3249971" lon="13.6062808"><ele>1005.0</ele><time>2026-05-03T08:14:55.988Z</time></trkpt><trkpt lat="42.3249445" lon="13.6063499"><ele>1005.0</ele><time>2026-05-03T08:14:57.988Z</time></trkpt><trkpt lat="42.3248518" lon="13.6064392"><ele>1005.0</ele><time>2026-05-03T08:14:59.988Z</time></trkpt><trkpt lat="42.3247508" lon="13.6065295"><ele>1004.3333333333334</ele><time>2026-05-03T08:15:01.988Z</time></trkpt><trkpt lat="42.3246722" lon="13.6066441"><ele>1003.6666666666667</ele><time>2026-05-03T08:15:03.987Z</time></trkpt><trkpt lat="42.3246275" lon="13.6067083"><ele>1003.0</ele><time>2026-05-03T08:15:04.987Z</time></trkpt><trkpt lat="42.3245254" lon="13.6067962"><ele>1002.3333333333334</ele><time>2026-05-03T08:15:06.987Z</time></trkpt><trkpt lat="42.3244638" lon="13.6068391"><ele>1001.6666666666667</ele><time>2026-05-03T08:15:07.988Z</time></trkpt><trkpt lat="42.3244103" lon="13.6068842"><ele>1001.0</ele><time>2026-05-03T08:15:08.988Z</time></trkpt><trkpt lat="42.3243543" lon="13.6069373"><ele>1001.0</ele><time>2026-05-03T08:15:09.987Z</time></trkpt><trkpt lat="42.3242602" lon="13.6069931"><ele>1000.9999999999999</ele><time>2026-05-03T08:15:11.987Z</time></trkpt><trkpt lat="42.3241832" lon="13.6071061"><ele>1000.9999999999999</ele><time>2026-05-03T08:15:13.987Z</time></trkpt><trkpt lat="42.3240947" lon="13.6072231"><ele>1001.0</ele><time>2026-05-03T08:15:15.988Z</time></trkpt><trkpt lat="42.3240506" lon="13.6072909"><ele>1001.0</ele><time>2026-05-03T08:15:16.988Z</time></trkpt><trkpt lat="42.3239948" lon="13.6073651"><ele>999.0</ele><time>2026-05-03T08:15:17.988Z</time></trkpt><trkpt lat="42.3239443" lon="13.6074309"><ele>996.9999999999999</ele><time>2026-05-03T08:15:18.988Z</time></trkpt><trkpt lat="42.323875" lon="13.6075442"><ele>994.9999999999999</ele><time>2026-05-03T08:15:20.988Z</time></trkpt><trkpt lat="42.3238625" lon="13.6076777"><ele>993.0</ele><time>2026-05-03T08:15:22.987Z</time></trkpt><trkpt lat="42.3238238" lon="13.6078144"><ele>991.0</ele><time>2026-05-03T08:15:24.988Z</time></trkpt><trkpt lat="42.3237736" lon="13.6079708"><ele>990.6666666666666</ele><time>2026-05-03T08:15:26.987Z</time></trkpt><trkpt lat="42.3237455" lon="13.6080518"><ele>990.3333333333333</ele><time>2026-05-03T08:15:27.987Z</time></trkpt><trkpt lat="42.323705" lon="13.608125"><ele>990.0</ele><time>2026-05-03T08:15:28.988Z</time></trkpt><trkpt lat="42.3236526" lon="13.6082695"><ele>989.6666666666667</ele><time>2026-05-03T08:15:30.988Z</time></trkpt><trkpt lat="42.3236161" lon="13.6083665"><ele>989.3333333333334</ele><time>2026-05-03T08:15:32.987Z</time></trkpt><trkpt lat="42.32358" lon="13.6084443"><ele>989.0</ele><time>2026-05-03T08:15:36.988Z</time></trkpt><trkpt lat="42.3235529" lon="13.6085238"><ele>989.0</ele><time>2026-05-03T08:15:39.988Z</time></trkpt><trkpt lat="42.3235199" lon="13.6086357"><ele>989.0000000000001</ele><time>2026-05-03T08:15:42.987Z</time></trkpt><trkpt lat="42.3234609" lon="13.6087686"><ele>989.0000000000001</ele><time>2026-05-03T08:15:44.988Z</time></trkpt><trkpt lat="42.3234238" lon="13.6088623"><ele>989.0</ele><time>2026-05-03T08:15:45.988Z</time></trkpt><trkpt lat="42.3233713" lon="13.6089544"><ele>989.0</ele><time>2026-05-03T08:15:46.987Z</time></trkpt><trkpt lat="42.3233201" lon="13.6090404"><ele>987.0000000000001</ele><time>2026-05-03T08:15:47.988Z</time></trkpt><trkpt lat="42.3232687" lon="13.60913"><ele>985.0</ele><time>2026-05-03T08:15:48.987Z</time></trkpt><trkpt lat="42.3232197" lon="13.6092326"><ele>983.0</ele><time>2026-05-03T08:15:49.987Z</time></trkpt><trkpt lat="42.3231714" lon="13.6093374"><ele>981.0</ele><time>2026-05-03T08:15:50.988Z</time></trkpt><trkpt lat="42.3231253" lon="13.6094439"><ele>979.0000000000001</ele><time>2026-05-03T08:15:51.988Z</time></trkpt><trkpt lat="42.3230795" lon="13.6095459"><ele>977.0</ele><time>2026-05-03T08:15:52.987Z</time></trkpt><trkpt lat="42.3230279" lon="13.6096359"><ele>976.8333333333334</ele><time>2026-05-03T08:15:53.987Z</time></trkpt><trkpt lat="42.3229755" lon="13.6097352"><ele>976.6666666666667</ele><time>2026-05-03T08:15:54.988Z</time></trkpt><trkpt lat="42.3229215" lon="13.6098324"><ele>976.5</ele><time>2026-05-03T08:15:55.987Z</time></trkpt><trkpt lat="42.3228685" lon="13.6099278"><ele>976.3333333333333</ele><time>2026-05-03T08:15:56.988Z</time></trkpt><trkpt lat="42.3228125" lon="13.6100233"><ele>976.1666666666666</ele><time>2026-05-03T08:15:57.987Z</time></trkpt><trkpt lat="42.3227588" lon="13.6101146"><ele>976.0</ele><time>2026-05-03T08:15:58.988Z</time></trkpt><trkpt lat="42.3227065" lon="13.610205"><ele>975.9999999999999</ele><time>2026-05-03T08:15:59.987Z</time></trkpt><trkpt lat="42.3226678" lon="13.610283"><ele>976.0</ele><time>2026-05-03T08:16:00.988Z</time></trkpt><trkpt lat="42.3226355" lon="13.6103625"><ele>975.9999999999999</ele><time>2026-05-03T08:16:01.987Z</time></trkpt><trkpt lat="42.3226051" lon="13.6104447"><ele>975.9999999999999</ele><time>2026-05-03T08:16:02.988Z</time></trkpt><trkpt lat="42.3225766" lon="13.6105265"><ele>976.0</ele><time>2026-05-03T08:16:03.987Z</time></trkpt><trkpt lat="42.3225398" lon="13.6106075"><ele>975.9999999999999</ele><time>2026-05-03T08:16:04.988Z</time></trkpt><trkpt lat="42.3224987" lon="13.6106881"><ele>975.9999999999999</ele><time>2026-05-03T08:16:05.988Z</time></trkpt><trkpt lat="42.3224555" lon="13.6107629"><ele>974.6666666666666</ele><time>2026-05-03T08:16:06.988Z</time></trkpt><trkpt lat="42.3224007" lon="13.6108345"><ele>973.3333333333333</ele><time>2026-05-03T08:16:07.987Z</time></trkpt><trkpt lat="42.3223449" lon="13.6109023"><ele>972.0</ele><time>2026-05-03T08:16:08.988Z</time></trkpt><trkpt lat="42.3222928" lon="13.6109694"><ele>970.6666666666667</ele><time>2026-05-03T08:16:09.988Z</time></trkpt><trkpt lat="42.322238" lon="13.6110422"><ele>969.3333333333334</ele><time>2026-05-03T08:16:10.988Z</time></trkpt><trkpt lat="42.3221849" lon="13.6111246"><ele>968.0</ele><time>2026-05-03T08:16:11.988Z</time></trkpt><trkpt lat="42.3221328" lon="13.6112017"><ele>966.0000000000001</ele><time>2026-05-03T08:16:12.988Z</time></trkpt><trkpt lat="42.3220792" lon="13.6112575"><ele>964.0</ele><time>2026-05-03T08:16:13.988Z</time></trkpt><trkpt lat="42.3220221" lon="13.6112953"><ele>962.0</ele><time>2026-05-03T08:16:14.988Z</time></trkpt><trkpt lat="42.3219355" lon="13.611353"><ele>960.0</ele><time>2026-05-03T08:16:16.987Z</time></trkpt><trkpt lat="42.3218501" lon="13.6114737"><ele>958.0000000000001</ele><time>2026-05-03T08:16:18.988Z</time></trkpt><trkpt lat="42.3218047" lon="13.6115454"><ele>956.0</ele><time>2026-05-03T08:16:19.988Z</time></trkpt><trkpt lat="42.3217579" lon="13.6116176"><ele>956.0000000000001</ele><time>2026-05-03T08:16:20.988Z</time></trkpt><trkpt lat="42.3217112" lon="13.6116914"><ele>956.0</ele><time>2026-05-03T08:16:21.987Z</time></trkpt><trkpt lat="42.3216476" lon="13.6118283"><ele>956.0</ele><time>2026-05-03T08:16:23.987Z</time></trkpt><trkpt lat="42.3216241" lon="13.6119139"><ele>956.0</ele><time>2026-05-03T08:16:24.987Z</time></trkpt><trkpt lat="42.321607" lon="13.6120098"><ele>956.0000000000001</ele><time>2026-05-03T08:16:25.987Z</time></trkpt><trkpt lat="42.3215842" lon="13.6121083"><ele>956.0</ele><time>2026-05-03T08:16:26.987Z</time></trkpt><trkpt lat="42.3215589" lon="13.6122076"><ele>955.1666666666667</ele><time>2026-05-03T08:16:27.987Z</time></trkpt><trkpt lat="42.3215263" lon="13.6122975"><ele>954.3333333333334</ele><time>2026-05-03T08:16:28.988Z</time></trkpt><trkpt lat="42.3214838" lon="13.6123826"><ele>953.5</ele><time>2026-05-03T08:16:29.988Z</time></trkpt><trkpt lat="42.3214367" lon="13.6124617"><ele>952.6666666666667</ele><time>2026-05-03T08:16:30.988Z</time></trkpt><trkpt lat="42.3213767" lon="13.6125501"><ele>951.8333333333334</ele><time>2026-05-03T08:16:31.987Z</time></trkpt><trkpt lat="42.3213196" lon="13.6126454"><ele>951.0</ele><time>2026-05-03T08:16:32.988Z</time></trkpt><trkpt lat="42.3212647" lon="13.612746"><ele>950.0</ele><time>2026-05-03T08:16:33.988Z</time></trkpt><trkpt lat="42.3212141" lon="13.6128463"><ele>948.9999999999999</ele><time>2026-05-03T08:16:34.988Z</time></trkpt><trkpt lat="42.3211605" lon="13.6129523"><ele>947.9999999999999</ele><time>2026-05-03T08:16:35.987Z</time></trkpt><trkpt lat="42.3210927" lon="13.6130476"><ele>947.0</ele><time>2026-05-03T08:16:36.988Z</time></trkpt><trkpt lat="42.3210204" lon="13.6131464"><ele>946.0</ele><time>2026-05-03T08:16:37.988Z</time></trkpt><trkpt lat="42.3209485" lon="13.6132377"><ele>945.9999999999999</ele><time>2026-05-03T08:16:38.987Z</time></trkpt><trkpt lat="42.3208864" lon="13.6133095"><ele>946.0</ele><time>2026-05-03T08:16:39.987Z</time></trkpt><trkpt lat="42.3208329" lon="13.6133591"><ele>946.0</ele><time>2026-05-03T08:16:40.988Z</time></trkpt><trkpt lat="42.3207431" lon="13.6133818"><ele>946.0</ele><time>2026-05-03T08:16:42.987Z</time></trkpt><trkpt lat="42.3206476" lon="13.6132949"><ele>945.9999999999999</ele><time>2026-05-03T08:16:44.988Z</time></trkpt><trkpt lat="42.3205958" lon="13.6132186"><ele>946.0</ele><time>2026-05-03T08:16:45.988Z</time></trkpt><trkpt lat="42.320531" lon="13.6131348"><ele>947.0</ele><time>2026-05-03T08:16:47.987Z</time></trkpt><trkpt lat="42.3204604" lon="13.6132114"><ele>947.9999999999999</ele><time>2026-05-03T08:16:50.987Z</time></trkpt><trkpt lat="42.3204255" lon="13.613379"><ele>948.9999999999999</ele><time>2026-05-03T08:16:52.988Z</time></trkpt><trkpt lat="42.3203532" lon="13.6134978"><ele>950.0</ele><time>2026-05-03T08:16:54.988Z</time></trkpt><trkpt lat="42.3203066" lon="13.613559"><ele>951.0</ele><time>2026-05-03T08:16:55.988Z</time></trkpt><trkpt lat="42.3202676" lon="13.6136304"><ele>950.6666666666666</ele><time>2026-05-03T08:16:56.988Z</time></trkpt><trkpt lat="42.3202205" lon="13.6137707"><ele>950.3333333333333</ele><time>2026-05-03T08:16:58.987Z</time></trkpt><trkpt lat="42.3201993" lon="13.6138534"><ele>950.0</ele><time>2026-05-03T08:16:59.987Z</time></trkpt><trkpt lat="42.3201791" lon="13.613941"><ele>949.6666666666666</ele><time>2026-05-03T08:17:00.987Z</time></trkpt><trkpt lat="42.3201685" lon="13.6140306"><ele>949.3333333333333</ele><time>2026-05-03T08:17:01.988Z</time></trkpt><trkpt lat="42.3201495" lon="13.6141265"><ele>949.0</ele><time>2026-05-03T08:17:02.988Z</time></trkpt><trkpt lat="42.32012" lon="13.6142197"><ele>948.9999999999999</ele><time>2026-05-03T08:17:03.988Z</time></trkpt><trkpt lat="42.3200604" lon="13.6143309"><ele>949.0</ele><time>2026-05-03T08:17:05.987Z</time></trkpt><trkpt lat="42.3200074" lon="13.6143771"><ele>949.0</ele><time>2026-05-03T08:17:07.988Z</time></trkpt><trkpt lat="42.3199514" lon="13.6144339"><ele>949.0</ele><time>2026-05-03T08:17:09.988Z</time></trkpt><trkpt lat="42.3199076" lon="13.6145162"><ele>948.9999999999999</ele><time>2026-05-03T08:17:11.987Z</time></trkpt><trkpt lat="42.3198531" lon="13.6146416"><ele>949.0</ele><time>2026-05-03T08:17:13.987Z</time></trkpt><trkpt lat="42.3198118" lon="13.61472"><ele>948.6666666666666</ele><time>2026-05-03T08:17:14.988Z</time></trkpt><trkpt lat="42.3197645" lon="13.6148093"><ele>948.3333333333333</ele><time>2026-05-03T08:17:15.988Z</time></trkpt><trkpt lat="42.3197176" lon="13.6149045"><ele>948.0</ele><time>2026-05-03T08:17:16.988Z</time></trkpt><trkpt lat="42.3196675" lon="13.6149966"><ele>947.6666666666667</ele><time>2026-05-03T08:17:17.987Z</time></trkpt><trkpt lat="42.3196198" lon="13.6150958"><ele>947.3333333333334</ele><time>2026-05-03T08:17:18.988Z</time></trkpt><trkpt lat="42.3195813" lon="13.6151903"><ele>947.0</ele><time>2026-05-03T08:17:19.988Z</time></trkpt><trkpt lat="42.3195461" lon="13.6152713"><ele>948.3333333333334</ele><time>2026-05-03T08:17:20.987Z</time></trkpt><trkpt lat="42.3194687" lon="13.6154117"><ele>949.6666666666667</ele><time>2026-05-03T08:17:22.987Z</time></trkpt><trkpt lat="42.3194116" lon="13.6154781"><ele>951.0</ele><time>2026-05-03T08:17:23.987Z</time></trkpt><trkpt lat="42.3193515" lon="13.6155431"><ele>952.3333333333333</ele><time>2026-05-03T08:17:24.988Z</time></trkpt><trkpt lat="42.3192969" lon="13.615618"><ele>953.6666666666666</ele><time>2026-05-03T08:17:25.987Z</time></trkpt><trkpt lat="42.3192562" lon="13.6156869"><ele>955.0</ele><time>2026-05-03T08:17:26.988Z</time></trkpt><trkpt lat="42.3191871" lon="13.6158008"><ele>955.0</ele><time>2026-05-03T08:17:28.988Z</time></trkpt><trkpt lat="42.3191522" lon="13.6159336"><ele>955.0</ele><time>2026-05-03T08:17:30.988Z</time></trkpt><trkpt lat="42.3191137" lon="13.6160785"><ele>955.0</ele><time>2026-05-03T08:17:32.988Z</time></trkpt><trkpt lat="42.3190623" lon="13.616211"><ele>955.0</ele><time>2026-05-03T08:17:34.987Z</time></trkpt><trkpt lat="42.3190073" lon="13.6163563"><ele>955.0</ele><time>2026-05-03T08:17:36.988Z</time></trkpt><trkpt lat="42.3189299" lon="13.6164832"><ele>955.6666666666666</ele><time>2026-05-03T08:17:38.987Z</time></trkpt><trkpt lat="42.3188407" lon="13.6166173"><ele>956.3333333333333</ele><time>2026-05-03T08:17:40.987Z</time></trkpt><trkpt lat="42.3187897" lon="13.6166747"><ele>957.0</ele><time>2026-05-03T08:17:41.988Z</time></trkpt><trkpt lat="42.3187391" lon="13.6167255"><ele>957.6666666666667</ele><time>2026-05-03T08:17:42.987Z</time></trkpt><trkpt lat="42.3186476" lon="13.6167973"><ele>958.3333333333334</ele><time>2026-05-03T08:17:44.988Z</time></trkpt><trkpt lat="42.3186" lon="13.6168826"><ele>959.0</ele><time>2026-05-03T08:17:46.987Z</time></trkpt><trkpt lat="42.3185407" lon="13.6169986"><ele>959.0000000000001</ele><time>2026-05-03T08:17:48.988Z</time></trkpt><trkpt lat="42.3184887" lon="13.6170548"><ele>959.0</ele><time>2026-05-03T08:17:49.988Z</time></trkpt><trkpt lat="42.318434" lon="13.6171138"><ele>959.0</ele><time>2026-05-03T08:17:50.988Z</time></trkpt><trkpt lat="42.3183776" lon="13.6171638"><ele>959.0</ele><time>2026-05-03T08:17:51.987Z</time></trkpt><trkpt lat="42.31831" lon="13.6172107"><ele>959.0000000000001</ele><time>2026-05-03T08:17:52.988Z</time></trkpt><trkpt lat="42.31825" lon="13.6172619"><ele>959.0</ele><time>2026-05-03T08:17:53.987Z</time></trkpt><trkpt lat="42.3181532" lon="13.6173689"><ele>959.0000000000001</ele><time>2026-05-03T08:17:55.988Z</time></trkpt><trkpt lat="42.3180918" lon="13.6174197"><ele>959.0</ele><time>2026-05-03T08:17:56.987Z</time></trkpt><trkpt lat="42.3180216" lon="13.617464"><ele>959.0</ele><time>2026-05-03T08:17:57.988Z</time></trkpt><trkpt lat="42.3179499" lon="13.6175085"><ele>959.0</ele><time>2026-05-03T08:17:58.988Z</time></trkpt><trkpt lat="42.3178839" lon="13.6175639"><ele>959.0000000000001</ele><time>2026-05-03T08:17:59.987Z</time></trkpt><trkpt lat="42.3178246" lon="13.6176243"><ele>959.0</ele><time>2026-05-03T08:18:00.987Z</time></trkpt><trkpt lat="42.3177653" lon="13.6176825"><ele>959.5000000000001</ele><time>2026-05-03T08:18:01.987Z</time></trkpt><trkpt lat="42.3177061" lon="13.6177405"><ele>960.0</ele><time>2026-05-03T08:18:02.988Z</time></trkpt><trkpt lat="42.3176459" lon="13.6177956"><ele>960.5</ele><time>2026-05-03T08:18:03.987Z</time></trkpt><trkpt lat="42.3175894" lon="13.6178481"><ele>961.0</ele><time>2026-05-03T08:18:04.987Z</time></trkpt><trkpt lat="42.3175427" lon="13.6179077"><ele>961.5000000000001</ele><time>2026-05-03T08:18:05.987Z</time></trkpt><trkpt lat="42.3174507" lon="13.6180117"><ele>962.0</ele><time>2026-05-03T08:18:07.988Z</time></trkpt><trkpt lat="42.31739" lon="13.6180671"><ele>962.0000000000001</ele><time>2026-05-03T08:18:08.987Z</time></trkpt><trkpt lat="42.3173192" lon="13.618133"><ele>962.0</ele><time>2026-05-03T08:18:09.987Z</time></trkpt><trkpt lat="42.3172459" lon="13.6182068"><ele>962.0</ele><time>2026-05-03T08:18:10.988Z</time></trkpt><trkpt lat="42.3171706" lon="13.6182835"><ele>962.0</ele><time>2026-05-03T08:18:11.987Z</time></trkpt><trkpt lat="42.3170983" lon="13.6183579"><ele>962.0000000000001</ele><time>2026-05-03T08:18:12.988Z</time></trkpt><trkpt lat="42.3170314" lon="13.6184304"><ele>962.0</ele><time>2026-05-03T08:18:13.988Z</time></trkpt><trkpt lat="42.3169689" lon="13.6185022"><ele>962.9999999999999</ele><time>2026-05-03T08:18:14.987Z</time></trkpt><trkpt lat="42.3169119" lon="13.6185711"><ele>964.0</ele><time>2026-05-03T08:18:15.988Z</time></trkpt><trkpt lat="42.3168528" lon="13.6186274"><ele>964.9999999999999</ele><time>2026-05-03T08:18:16.987Z</time></trkpt><trkpt lat="42.3167892" lon="13.6186708"><ele>965.9999999999999</ele><time>2026-05-03T08:18:17.988Z</time></trkpt><trkpt lat="42.3167259" lon="13.6187156"><ele>967.0</ele><time>2026-05-03T08:18:18.987Z</time></trkpt><trkpt lat="42.3166681" lon="13.6187702"><ele>967.9999999999999</ele><time>2026-05-03T08:18:19.987Z</time></trkpt><trkpt lat="42.3166094" lon="13.6188264"><ele>968.9999999999999</ele><time>2026-05-03T08:18:20.988Z</time></trkpt><trkpt lat="42.3165501" lon="13.6188753"><ele>969.0</ele><time>2026-05-03T08:18:21.987Z</time></trkpt><trkpt lat="42.3164524" lon="13.6189696"><ele>969.0000000000001</ele><time>2026-05-03T08:18:23.987Z</time></trkpt><trkpt lat="42.3163513" lon="13.6190645"><ele>969.0000000000001</ele><time>2026-05-03T08:18:25.987Z</time></trkpt><trkpt lat="42.3162853" lon="13.6191975"><ele>969.0</ele><time>2026-05-03T08:18:27.987Z</time></trkpt><trkpt lat="42.3162621" lon="13.6192812"><ele>969.0</ele><time>2026-05-03T08:18:28.988Z</time></trkpt><trkpt lat="42.3162458" lon="13.6193667"><ele>971.0</ele><time>2026-05-03T08:18:29.988Z</time></trkpt><trkpt lat="42.3162154" lon="13.6195096"><ele>973.0000000000001</ele><time>2026-05-03T08:18:31.988Z</time></trkpt><trkpt lat="42.3162144" lon="13.6196544"><ele>975.0000000000001</ele><time>2026-05-03T08:18:33.988Z</time></trkpt><trkpt lat="42.3161815" lon="13.6197792"><ele>977.0</ele><time>2026-05-03T08:18:35.988Z</time></trkpt><trkpt lat="42.3161025" lon="13.6198284"><ele>979.0</ele><time>2026-05-03T08:18:37.988Z</time></trkpt><trkpt lat="42.3160141" lon="13.619882"><ele>979.0</ele><time>2026-05-03T08:18:39.987Z</time></trkpt><trkpt lat="42.3159633" lon="13.6199447"><ele>979.0</ele><time>2026-05-03T08:18:40.987Z</time></trkpt><trkpt lat="42.3159174" lon="13.6200088"><ele>979.0</ele><time>2026-05-03T08:18:41.988Z</time></trkpt><trkpt lat="42.3158621" lon="13.6200794"><ele>979.0</ele><time>2026-05-03T08:18:42.987Z</time></trkpt><trkpt lat="42.3158104" lon="13.6201498"><ele>979.0</ele><time>2026-05-03T08:18:43.987Z</time></trkpt><trkpt lat="42.3157668" lon="13.620223"><ele>979.0</ele><time>2026-05-03T08:18:44.988Z</time></trkpt><trkpt lat="42.3157289" lon="13.6202968"><ele>979.0</ele><time>2026-05-03T08:18:45.987Z</time></trkpt><trkpt lat="42.3156926" lon="13.6203666"><ele>979.2</ele><time>2026-05-03T08:18:46.988Z</time></trkpt><trkpt lat="42.3156049" lon="13.6204536"><ele>979.4000000000001</ele><time>2026-05-03T08:18:48.988Z</time></trkpt><trkpt lat="42.3155053" lon="13.6204501"><ele>979.6</ele><time>2026-05-03T08:18:50.988Z</time></trkpt><trkpt lat="42.3154169" lon="13.6205114"><ele>979.8</ele><time>2026-05-03T08:18:52.987Z</time></trkpt><trkpt lat="42.3153238" lon="13.6206291"><ele>980.0</ele><time>2026-05-03T08:18:54.987Z</time></trkpt><trkpt lat="42.3152747" lon="13.6206934"><ele>980.0</ele><time>2026-05-03T08:18:55.987Z</time></trkpt><trkpt lat="42.3152254" lon="13.6207649"><ele>980.0</ele><time>2026-05-03T08:18:56.987Z</time></trkpt><trkpt lat="42.3151694" lon="13.620834"><ele>980.0</ele><time>2026-05-03T08:18:57.987Z</time></trkpt><trkpt lat="42.3151118" lon="13.6208895"><ele>980.0</ele><time>2026-05-03T08:18:58.988Z</time></trkpt><trkpt lat="42.31505" lon="13.6209383"><ele>980.0</ele><time>2026-05-03T08:18:59.988Z</time></trkpt><trkpt lat="42.3149864" lon="13.6209815"><ele>980.0</ele><time>2026-05-03T08:19:00.987Z</time></trkpt><trkpt lat="42.3149241" lon="13.621018"><ele>980.0</ele><time>2026-05-03T08:19:01.988Z</time></trkpt><trkpt lat="42.3148642" lon="13.6210514"><ele>980.0</ele><time>2026-05-03T08:19:02.988Z</time></trkpt><trkpt lat="42.3147598" lon="13.6210926"><ele>980.0</ele><time>2026-05-03T08:19:04.988Z</time></trkpt><trkpt lat="42.3146954" lon="13.6211197"><ele>980.0</ele><time>2026-05-03T08:19:06.987Z</time></trkpt><trkpt lat="42.3146436" lon="13.621186"><ele>980.0</ele><time>2026-05-03T08:20:09.988Z</time></trkpt><trkpt lat="42.3145616" lon="13.6212351"><ele>980.0</ele><time>2026-05-03T08:20:11.988Z</time></trkpt><trkpt lat="42.314455" lon="13.621333"><ele>980.2</ele><time>2026-05-03T08:20:13.988Z</time></trkpt><trkpt lat="42.3143985" lon="13.6213823"><ele>980.4</ele><time>2026-05-03T08:20:14.988Z</time></trkpt><trkpt lat="42.3142951" lon="13.621473"><ele>980.5999999999999</ele><time>2026-05-03T08:20:16.988Z</time></trkpt><trkpt lat="42.3141972" lon="13.6215491"><ele>980.8</ele><time>2026-05-03T08:20:18.987Z</time></trkpt><trkpt lat="42.3140969" lon="13.6216242"><ele>981.0</ele><time>2026-05-03T08:20:20.988Z</time></trkpt><trkpt lat="42.3140186" lon="13.6217097"><ele>981.0</ele><time>2026-05-03T08:20:22.988Z</time></trkpt><trkpt lat="42.3139561" lon="13.621762"><ele>981.0</ele><time>2026-05-03T08:20:24.988Z</time></trkpt><trkpt lat="42.3138865" lon="13.6217304"><ele>981.0</ele><time>2026-05-03T08:20:26.988Z</time></trkpt><trkpt lat="42.3137895" lon="13.6216991"><ele>981.0</ele><time>2026-05-03T08:20:28.987Z</time></trkpt><trkpt lat="42.3136895" lon="13.6217197"><ele>981.0</ele><time>2026-05-03T08:20:30.987Z</time></trkpt><trkpt lat="42.3136121" lon="13.6217878"><ele>981.0</ele><time>2026-05-03T08:20:32.988Z</time></trkpt><trkpt lat="42.3135235" lon="13.6218511"><ele>981.4</ele><time>2026-05-03T08:20:34.987Z</time></trkpt><trkpt lat="42.3134238" lon="13.6219462"><ele>981.8</ele><time>2026-05-03T08:20:36.987Z</time></trkpt><trkpt lat="42.313339" lon="13.6220369"><ele>982.1999999999999</ele><time>2026-05-03T08:20:38.988Z</time></trkpt><trkpt lat="42.3132737" lon="13.6221283"><ele>982.5999999999999</ele><time>2026-05-03T08:20:40.987Z</time></trkpt><trkpt lat="42.3132293" lon="13.6222061"><ele>983.0</ele><time>2026-05-03T08:20:43.987Z</time></trkpt><trkpt lat="42.3131777" lon="13.6222899"><ele>983.0000000000001</ele><time>2026-05-03T08:20:45.988Z</time></trkpt><trkpt lat="42.3130998" lon="13.6224055"><ele>983.0</ele><time>2026-05-03T08:20:47.987Z</time></trkpt><trkpt lat="42.3130265" lon="13.622486"><ele>983.0</ele><time>2026-05-03T08:20:49.988Z</time></trkpt><trkpt lat="42.3129666" lon="13.6225318"><ele>983.0</ele><time>2026-05-03T08:20:52.988Z</time></trkpt><trkpt lat="42.3129001" lon="13.6226109"><ele>983.0000000000001</ele><time>2026-05-03T08:20:54.988Z</time></trkpt><trkpt lat="42.3128533" lon="13.622682"><ele>983.0</ele><time>2026-05-03T08:20:55.987Z</time></trkpt><trkpt lat="42.3127822" lon="13.6228172"><ele>984.5999999999999</ele><time>2026-05-03T08:20:57.988Z</time></trkpt><trkpt lat="42.3127348" lon="13.6228807"><ele>986.1999999999999</ele><time>2026-05-03T08:20:58.987Z</time></trkpt><trkpt lat="42.3126714" lon="13.6230046"><ele>987.8</ele><time>2026-05-03T08:21:00.988Z</time></trkpt><trkpt lat="42.3126181" lon="13.6231369"><ele>989.4</ele><time>2026-05-03T08:21:02.988Z</time></trkpt><trkpt lat="42.3125488" lon="13.6232236"><ele>991.0</ele><time>2026-05-03T08:21:04.987Z</time></trkpt><trkpt lat="42.3124636" lon="13.6233089"><ele>991.0</ele><time>2026-05-03T08:21:06.988Z</time></trkpt><trkpt lat="42.3123918" lon="13.6234291"><ele>991.0</ele><time>2026-05-03T08:21:08.987Z</time></trkpt><trkpt lat="42.3123372" lon="13.6235563"><ele>991.0</ele><time>2026-05-03T08:21:10.987Z</time></trkpt><trkpt lat="42.3122712" lon="13.6236753"><ele>991.0</ele><time>2026-05-03T08:21:12.988Z</time></trkpt><trkpt lat="42.3121992" lon="13.6238064"><ele>993.8</ele><time>2026-05-03T08:21:14.987Z</time></trkpt><trkpt lat="42.3121411" lon="13.6239253"><ele>996.5999999999999</ele><time>2026-05-03T08:21:16.988Z</time></trkpt><trkpt lat="42.3120861" lon="13.6240526"><ele>999.4</ele><time>2026-05-03T08:21:18.988Z</time></trkpt><trkpt lat="42.3120346" lon="13.6241699"><ele>1002.2</ele><time>2026-05-03T08:21:20.988Z</time></trkpt><trkpt lat="42.3119627" lon="13.6242888"><ele>1005.0</ele><time>2026-05-03T08:21:22.987Z</time></trkpt><trkpt lat="42.3119161" lon="13.6243708"><ele>1005.0</ele><time>2026-05-03T08:21:23.988Z</time></trkpt><trkpt lat="42.3118781" lon="13.624444"><ele>1005.0</ele><time>2026-05-03T08:21:24.987Z</time></trkpt><trkpt lat="42.311849" lon="13.6245206"><ele>1005.0</ele><time>2026-05-03T08:21:25.987Z</time></trkpt><trkpt lat="42.3118114" lon="13.6246093"><ele>1005.0</ele><time>2026-05-03T08:21:26.988Z</time></trkpt><trkpt lat="42.3117689" lon="13.6246909"><ele>1005.0</ele><time>2026-05-03T08:21:27.988Z</time></trkpt><trkpt lat="42.3116784" lon="13.6248156"><ele>1005.0</ele><time>2026-05-03T08:21:29.987Z</time></trkpt><trkpt lat="42.311624" lon="13.6248695"><ele>1006.4</ele><time>2026-05-03T08:21:30.988Z</time></trkpt><trkpt lat="42.3115752" lon="13.6249315"><ele>1007.8</ele><time>2026-05-03T08:21:31.987Z</time></trkpt><trkpt lat="42.3114929" lon="13.6250336"><ele>1009.2</ele><time>2026-05-03T08:21:33.988Z</time></trkpt><trkpt lat="42.3114454" lon="13.6250922"><ele>1010.6</ele><time>2026-05-03T08:21:34.987Z</time></trkpt><trkpt lat="42.3113737" lon="13.6251965"><ele>1012.0</ele><time>2026-05-03T08:21:36.988Z</time></trkpt><trkpt lat="42.3113039" lon="13.6253314"><ele>1012.0</ele><time>2026-05-03T08:21:38.987Z</time></trkpt><trkpt lat="42.3112642" lon="13.6254134"><ele>1012.0</ele><time>2026-05-03T08:21:39.988Z</time></trkpt><trkpt lat="42.3112204" lon="13.625493"><ele>1012.0</ele><time>2026-05-03T08:21:40.988Z</time></trkpt><trkpt lat="42.3111501" lon="13.6256384"><ele>1012.0</ele><time>2026-05-03T08:21:42.988Z</time></trkpt><trkpt lat="42.3110762" lon="13.6257648"><ele>1012.0</ele><time>2026-05-03T08:21:44.988Z</time></trkpt><trkpt lat="42.3110192" lon="13.6258834"><ele>1012.0</ele><time>2026-05-03T08:21:46.987Z</time></trkpt><trkpt lat="42.3109723" lon="13.6259534"><ele>1012.0</ele><time>2026-05-03T08:21:47.987Z</time></trkpt><trkpt lat="42.3109338" lon="13.6260902"><ele>1012.0</ele><time>2026-05-03T08:21:49.988Z</time></trkpt><trkpt lat="42.3108884" lon="13.626199"><ele>1012.0</ele><time>2026-05-03T08:21:51.987Z</time></trkpt><trkpt lat="42.3108432" lon="13.6263378"><ele>1012.0</ele><time>2026-05-03T08:21:53.987Z</time></trkpt><trkpt lat="42.3108106" lon="13.6264251"><ele>1010.3333333333333</ele><time>2026-05-03T08:21:54.988Z</time></trkpt><trkpt lat="42.3107232" lon="13.6265413"><ele>1008.6666666666666</ele><time>2026-05-03T08:21:56.988Z</time></trkpt><trkpt lat="42.3106768" lon="13.6266167"><ele>1007.0</ele><time>2026-05-03T08:21:57.988Z</time></trkpt><trkpt lat="42.3106448" lon="13.626694"><ele>1005.3333333333333</ele><time>2026-05-03T08:21:58.988Z</time></trkpt><trkpt lat="42.3105995" lon="13.6267547"><ele>1003.6666666666666</ele><time>2026-05-03T08:21:59.988Z</time></trkpt><trkpt lat="42.3105569" lon="13.626823"><ele>1002.0</ele><time>2026-05-03T08:22:00.987Z</time></trkpt><trkpt lat="42.3104843" lon="13.6269571"><ele>1002.8333333333334</ele><time>2026-05-03T08:22:02.988Z</time></trkpt><trkpt lat="42.31045" lon="13.6270479"><ele>1003.6666666666667</ele><time>2026-05-03T08:22:03.987Z</time></trkpt><trkpt lat="42.3104099" lon="13.6271334"><ele>1004.5</ele><time>2026-05-03T08:22:04.988Z</time></trkpt><trkpt lat="42.3103764" lon="13.6272134"><ele>1005.3333333333334</ele><time>2026-05-03T08:22:05.987Z</time></trkpt><trkpt lat="42.3103247" lon="13.6273569"><ele>1006.1666666666667</ele><time>2026-05-03T08:22:07.988Z</time></trkpt><trkpt lat="42.3102776" lon="13.6274806"><ele>1007.0</ele><time>2026-05-03T08:22:09.987Z</time></trkpt><trkpt lat="42.3102033" lon="13.6275979"><ele>1007.0000000000001</ele><time>2026-05-03T08:22:11.988Z</time></trkpt><trkpt lat="42.3101194" lon="13.6276825"><ele>1007.0</ele><time>2026-05-03T08:22:13.988Z</time></trkpt><trkpt lat="42.3100505" lon="13.6277848"><ele>1007.0</ele><time>2026-05-03T08:22:15.988Z</time></trkpt><trkpt lat="42.3100167" lon="13.627859"><ele>1007.0</ele><time>2026-05-03T08:22:16.987Z</time></trkpt><trkpt lat="42.3099831" lon="13.6279352"><ele>1007.0000000000001</ele><time>2026-05-03T08:22:17.987Z</time></trkpt><trkpt lat="42.309946" lon="13.6280137"><ele>1007.0</ele><time>2026-05-03T08:22:18.988Z</time></trkpt><trkpt lat="42.3099151" lon="13.6281053"><ele>1005.6666666666667</ele><time>2026-05-03T08:22:19.987Z</time></trkpt><trkpt lat="42.3098723" lon="13.6281911"><ele>1004.3333333333334</ele><time>2026-05-03T08:22:20.987Z</time></trkpt><trkpt lat="42.3098305" lon="13.6282763"><ele>1003.0</ele><time>2026-05-03T08:22:21.988Z</time></trkpt><trkpt lat="42.3097908" lon="13.6283627"><ele>1001.6666666666667</ele><time>2026-05-03T08:22:22.987Z</time></trkpt><trkpt lat="42.3097452" lon="13.6284458"><ele>1000.3333333333334</ele><time>2026-05-03T08:22:23.988Z</time></trkpt><trkpt lat="42.3097017" lon="13.6285399"><ele>999.0</ele><time>2026-05-03T08:22:24.988Z</time></trkpt><trkpt lat="42.3096612" lon="13.6286287"><ele>1001.0</ele><time>2026-05-03T08:22:25.987Z</time></trkpt><trkpt lat="42.3096197" lon="13.628712"><ele>1003.0000000000001</ele><time>2026-05-03T08:22:26.987Z</time></trkpt><trkpt lat="42.3095766" lon="13.6287901"><ele>1005.0</ele><time>2026-05-03T08:22:27.988Z</time></trkpt><trkpt lat="42.3095331" lon="13.6288588"><ele>1007.0</ele><time>2026-05-03T08:22:28.987Z</time></trkpt><trkpt lat="42.3094963" lon="13.6289377"><ele>1009.0000000000001</ele><time>2026-05-03T08:22:29.988Z</time></trkpt><trkpt lat="42.3094663" lon="13.629023"><ele>1011.0</ele><time>2026-05-03T08:22:30.987Z</time></trkpt><trkpt lat="42.3094387" lon="13.6291032"><ele>1013.0</ele><time>2026-05-03T08:22:31.988Z</time></trkpt><trkpt lat="42.3094161" lon="13.629184"><ele>1013.0000000000001</ele><time>2026-05-03T08:22:32.988Z</time></trkpt><trkpt lat="42.3093615" lon="13.629319"><ele>1013.0</ele><time>2026-05-03T08:22:34.988Z</time></trkpt><trkpt lat="42.3092875" lon="13.6294343"><ele>1013.0</ele><time>2026-05-03T08:22:36.988Z</time></trkpt><trkpt lat="42.3092436" lon="13.6294969"><ele>1013.0</ele><time>2026-05-03T08:22:37.987Z</time></trkpt><trkpt lat="42.3091961" lon="13.6295721"><ele>1013.0000000000001</ele><time>2026-05-03T08:22:38.988Z</time></trkpt><trkpt lat="42.3091448" lon="13.6296451"><ele>1013.0</ele><time>2026-05-03T08:22:39.987Z</time></trkpt><trkpt lat="42.3091012" lon="13.6297199"><ele>1012.5000000000001</ele><time>2026-05-03T08:22:40.987Z</time></trkpt><trkpt lat="42.3090538" lon="13.6297895"><ele>1012.0</ele><time>2026-05-03T08:22:41.988Z</time></trkpt><trkpt lat="42.3090128" lon="13.6298557"><ele>1011.5</ele><time>2026-05-03T08:22:42.987Z</time></trkpt><trkpt lat="42.308958" lon="13.6299744"><ele>1011.0</ele><time>2026-05-03T08:22:44.988Z</time></trkpt><trkpt lat="42.3089325" lon="13.6300754"><ele>1010.5000000000001</ele><time>2026-05-03T08:22:45.988Z</time></trkpt><trkpt lat="42.3089126" lon="13.630173"><ele>1010.0</ele><time>2026-05-03T08:22:46.988Z</time></trkpt><trkpt lat="42.3088912" lon="13.6302696"><ele>1009.8</ele><time>2026-05-03T08:22:47.988Z</time></trkpt><trkpt lat="42.3088699" lon="13.6303656"><ele>1009.6</ele><time>2026-05-03T08:22:48.988Z</time></trkpt><trkpt lat="42.308852" lon="13.6304536"><ele>1009.4000000000001</ele><time>2026-05-03T08:22:49.987Z</time></trkpt><trkpt lat="42.3088378" lon="13.6306176"><ele>1009.2</ele><time>2026-05-03T08:22:51.987Z</time></trkpt><trkpt lat="42.3088571" lon="13.6307885"><ele>1009.0</ele><time>2026-05-03T08:22:53.988Z</time></trkpt><trkpt lat="42.3088726" lon="13.6308775"><ele>1009.0</ele><time>2026-05-03T08:22:54.988Z</time></trkpt><trkpt lat="42.308904" lon="13.631014"><ele>1009.0000000000001</ele><time>2026-05-03T08:22:56.987Z</time></trkpt><trkpt lat="42.3089263" lon="13.6311342"><ele>1009.0000000000001</ele><time>2026-05-03T08:22:58.988Z</time></trkpt><trkpt lat="42.3089237" lon="13.6312423"><ele>1009.0</ele><time>2026-05-03T08:23:00.988Z</time></trkpt><trkpt lat="42.3088622" lon="13.6313715"><ele>1009.0</ele><time>2026-05-03T08:23:02.987Z</time></trkpt><trkpt lat="42.3088172" lon="13.6315167"><ele>1007.0</ele><time>2026-05-03T08:23:04.987Z</time></trkpt><trkpt lat="42.3087916" lon="13.6316908"><ele>1005.0000000000001</ele><time>2026-05-03T08:23:06.988Z</time></trkpt><trkpt lat="42.3087714" lon="13.6317862"><ele>1003.0000000000001</ele><time>2026-05-03T08:23:07.987Z</time></trkpt><trkpt lat="42.3087547" lon="13.6318793"><ele>1001.0</ele><time>2026-05-03T08:23:08.988Z</time></trkpt><trkpt lat="42.3087309" lon="13.6319664"><ele>999.0</ele><time>2026-05-03T08:23:09.988Z</time></trkpt><trkpt lat="42.308683" lon="13.6321275"><ele>998.6</ele><time>2026-05-03T08:23:11.987Z</time></trkpt><trkpt lat="42.3086351" lon="13.6322785"><ele>998.2</ele><time>2026-05-03T08:23:13.988Z</time></trkpt><trkpt lat="42.3086048" lon="13.6323573"><ele>997.8000000000001</ele><time>2026-05-03T08:23:14.988Z</time></trkpt><trkpt lat="42.3085351" lon="13.6324902"><ele>997.4000000000001</ele><time>2026-05-03T08:23:16.988Z</time></trkpt><trkpt lat="42.3084617" lon="13.6326334"><ele>997.0</ele><time>2026-05-03T08:23:18.987Z</time></trkpt><trkpt lat="42.3084184" lon="13.6327171"><ele>996.9999999999999</ele><time>2026-05-03T08:23:19.988Z</time></trkpt><trkpt lat="42.3083755" lon="13.6327923"><ele>997.0</ele><time>2026-05-03T08:23:20.987Z</time></trkpt><trkpt lat="42.3083108" lon="13.6328737"><ele>996.9999999999999</ele><time>2026-05-03T08:23:21.988Z</time></trkpt><trkpt lat="42.3082783" lon="13.6329539"><ele>996.9999999999999</ele><time>2026-05-03T08:23:22.988Z</time></trkpt><trkpt lat="42.3082445" lon="13.6330286"><ele>997.0</ele><time>2026-05-03T08:23:23.988Z</time></trkpt><trkpt lat="42.3082106" lon="13.6331107"><ele>996.9999999999999</ele><time>2026-05-03T08:23:24.988Z</time></trkpt><trkpt lat="42.3081616" lon="13.6331875"><ele>996.9999999999999</ele><time>2026-05-03T08:23:25.987Z</time></trkpt><trkpt lat="42.3081192" lon="13.6332899"><ele>995.6666666666666</ele><time>2026-05-03T08:23:26.988Z</time></trkpt><trkpt lat="42.3080699" lon="13.633383"><ele>994.3333333333333</ele><time>2026-05-03T08:23:27.988Z</time></trkpt><trkpt lat="42.308027" lon="13.6334733"><ele>993.0</ele><time>2026-05-03T08:23:28.988Z</time></trkpt><trkpt lat="42.3079909" lon="13.6335444"><ele>991.6666666666667</ele><time>2026-05-03T08:23:29.988Z</time></trkpt><trkpt lat="42.3079563" lon="13.6336236"><ele>990.3333333333334</ele><time>2026-05-03T08:23:30.987Z</time></trkpt><trkpt lat="42.3079283" lon="13.6337013"><ele>989.0</ele><time>2026-05-03T08:23:31.988Z</time></trkpt><trkpt lat="42.3078556" lon="13.6338463"><ele>988.8333333333334</ele><time>2026-05-03T08:23:33.987Z</time></trkpt><trkpt lat="42.3077959" lon="13.6338841"><ele>988.6666666666667</ele><time>2026-05-03T08:23:34.988Z</time></trkpt><trkpt lat="42.307735" lon="13.6339357"><ele>988.5</ele><time>2026-05-03T08:23:35.988Z</time></trkpt><trkpt lat="42.3076568" lon="13.6339661"><ele>988.3333333333333</ele><time>2026-05-03T08:23:37.988Z</time></trkpt><trkpt lat="42.3075532" lon="13.6340543"><ele>988.1666666666666</ele><time>2026-05-03T08:23:39.988Z</time></trkpt><trkpt lat="42.3074952" lon="13.6341332"><ele>988.0</ele><time>2026-05-03T08:23:40.988Z</time></trkpt><trkpt lat="42.3074266" lon="13.6342511"><ele>988.0</ele><time>2026-05-03T08:23:41.988Z</time></trkpt><trkpt lat="42.3073694" lon="13.6343232"><ele>988.0</ele><time>2026-05-03T08:23:42.987Z</time></trkpt><trkpt lat="42.3073132" lon="13.6344097"><ele>988.0</ele><time>2026-05-03T08:23:43.988Z</time></trkpt><trkpt lat="42.3072637" lon="13.6344909"><ele>988.0</ele><time>2026-05-03T08:23:44.988Z</time></trkpt><trkpt lat="42.3072202" lon="13.6345556"><ele>988.0</ele><time>2026-05-03T08:23:45.988Z</time></trkpt><trkpt lat="42.3071713" lon="13.6346334"><ele>988.0</ele><time>2026-05-03T08:23:46.987Z</time></trkpt><trkpt lat="42.3071321" lon="13.6347082"><ele>988.0</ele><time>2026-05-03T08:23:47.988Z</time></trkpt><trkpt lat="42.3070997" lon="13.634792"><ele>987.4</ele><time>2026-05-03T08:23:48.987Z</time></trkpt><trkpt lat="42.3070465" lon="13.6348928"><ele>986.8</ele><time>2026-05-03T08:23:49.988Z</time></trkpt><trkpt lat="42.3069842" lon="13.6350115"><ele>986.2</ele><time>2026-05-03T08:23:50.987Z</time></trkpt><trkpt lat="42.3069359" lon="13.6351404"><ele>985.6</ele><time>2026-05-03T08:23:51.988Z</time></trkpt><trkpt lat="42.3068773" lon="13.635259"><ele>985.0</ele><time>2026-05-03T08:23:52.988Z</time></trkpt><trkpt lat="42.3068274" lon="13.6353793"><ele>984.3333333333333</ele><time>2026-05-03T08:23:53.988Z</time></trkpt><trkpt lat="42.3067643" lon="13.6354741"><ele>983.6666666666666</ele><time>2026-05-03T08:23:54.987Z</time></trkpt><trkpt lat="42.3067107" lon="13.6355696"><ele>983.0</ele><time>2026-05-03T08:23:55.988Z</time></trkpt><trkpt lat="42.3066635" lon="13.6356571"><ele>982.3333333333333</ele><time>2026-05-03T08:23:56.988Z</time></trkpt><trkpt lat="42.3066176" lon="13.6357417"><ele>981.6666666666666</ele><time>2026-05-03T08:23:57.987Z</time></trkpt><trkpt lat="42.3065729" lon="13.635823"><ele>981.0</ele><time>2026-05-03T08:23:58.987Z</time></trkpt><trkpt lat="42.306542" lon="13.6359105"><ele>981.0</ele><time>2026-05-03T08:23:59.987Z</time></trkpt><trkpt lat="42.3065027" lon="13.6359972"><ele>981.0</ele><time>2026-05-03T08:24:00.988Z</time></trkpt><trkpt lat="42.3064566" lon="13.6360924"><ele>981.0</ele><time>2026-05-03T08:24:01.988Z</time></trkpt><trkpt lat="42.3064089" lon="13.6361878"><ele>981.0</ele><time>2026-05-03T08:24:02.987Z</time></trkpt><trkpt lat="42.3063644" lon="13.6362826"><ele>981.0</ele><time>2026-05-03T08:24:03.988Z</time></trkpt><trkpt lat="42.3063199" lon="13.6363794"><ele>981.0</ele><time>2026-05-03T08:24:04.987Z</time></trkpt><trkpt lat="42.3062836" lon="13.636475"><ele>980.5</ele><time>2026-05-03T08:24:05.988Z</time></trkpt><trkpt lat="42.3062504" lon="13.6365655"><ele>980.0</ele><time>2026-05-03T08:24:06.988Z</time></trkpt><trkpt lat="42.3062222" lon="13.6366698"><ele>979.5</ele><time>2026-05-03T08:24:07.987Z</time></trkpt><trkpt lat="42.3061939" lon="13.6367835"><ele>979.0</ele><time>2026-05-03T08:24:08.988Z</time></trkpt><trkpt lat="42.3061627" lon="13.6368897"><ele>978.5</ele><time>2026-05-03T08:24:09.988Z</time></trkpt><trkpt lat="42.306135" lon="13.6369995"><ele>978.0</ele><time>2026-05-03T08:24:10.988Z</time></trkpt><trkpt lat="42.3061022" lon="13.6371058"><ele>977.1666666666666</ele><time>2026-05-03T08:24:11.988Z</time></trkpt><trkpt lat="42.306071" lon="13.6372118"><ele>976.3333333333333</ele><time>2026-05-03T08:24:12.987Z</time></trkpt><trkpt lat="42.3060436" lon="13.6373134"><ele>975.5</ele><time>2026-05-03T08:24:13.988Z</time></trkpt><trkpt lat="42.3060091" lon="13.637396"><ele>974.6666666666666</ele><time>2026-05-03T08:24:14.987Z</time></trkpt><trkpt lat="42.3059755" lon="13.6374986"><ele>973.8333333333333</ele><time>2026-05-03T08:24:15.987Z</time></trkpt><trkpt lat="42.3059473" lon="13.6375864"><ele>973.0</ele><time>2026-05-03T08:24:16.988Z</time></trkpt><trkpt lat="42.3059192" lon="13.6376863"><ele>972.9999999999999</ele><time>2026-05-03T08:24:17.988Z</time></trkpt><trkpt lat="42.3058915" lon="13.6377854"><ele>973.0</ele><time>2026-05-03T08:24:18.987Z</time></trkpt><trkpt lat="42.3058642" lon="13.6378816"><ele>973.0</ele><time>2026-05-03T08:24:19.988Z</time></trkpt><trkpt lat="42.3058404" lon="13.6379719"><ele>973.0</ele><time>2026-05-03T08:24:20.988Z</time></trkpt><trkpt lat="42.3058233" lon="13.6380807"><ele>972.9999999999999</ele><time>2026-05-03T08:24:21.987Z</time></trkpt><trkpt lat="42.3058131" lon="13.6381884"><ele>973.0</ele><time>2026-05-03T08:24:22.988Z</time></trkpt><trkpt lat="42.3058114" lon="13.6382907"><ele>972.3333333333333</ele><time>2026-05-03T08:24:23.987Z</time></trkpt><trkpt lat="42.3057969" lon="13.6383833"><ele>971.6666666666666</ele><time>2026-05-03T08:24:24.987Z</time></trkpt><trkpt lat="42.3057607" lon="13.6384579"><ele>971.0</ele><time>2026-05-03T08:24:25.988Z</time></trkpt><trkpt lat="42.3057385" lon="13.6385479"><ele>970.3333333333333</ele><time>2026-05-03T08:24:26.987Z</time></trkpt><trkpt lat="42.3056817" lon="13.6386811"><ele>969.6666666666666</ele><time>2026-05-03T08:24:28.988Z</time></trkpt><trkpt lat="42.3056494" lon="13.6388378"><ele>969.0</ele><time>2026-05-03T08:24:30.988Z</time></trkpt><trkpt lat="42.305639" lon="13.6389233"><ele>968.8571428571427</ele><time>2026-05-03T08:24:31.987Z</time></trkpt><trkpt lat="42.305628" lon="13.6390144"><ele>968.7142857142857</ele><time>2026-05-03T08:24:32.988Z</time></trkpt><trkpt lat="42.3056012" lon="13.639092"><ele>968.5714285714284</ele><time>2026-05-03T08:24:33.988Z</time></trkpt><trkpt lat="42.3055792" lon="13.639175"><ele>968.4285714285713</ele><time>2026-05-03T08:24:34.987Z</time></trkpt><trkpt lat="42.3055476" lon="13.6392499"><ele>968.2857142857142</ele><time>2026-05-03T08:24:35.987Z</time></trkpt><trkpt lat="42.3055251" lon="13.6393323"><ele>968.1428571428571</ele><time>2026-05-03T08:24:36.987Z</time></trkpt><trkpt lat="42.3054629" lon="13.6394272"><ele>968.0</ele><time>2026-05-03T08:24:38.987Z</time></trkpt><trkpt lat="42.3054041" lon="13.6395453"><ele>965.2</ele><time>2026-05-03T08:24:40.988Z</time></trkpt><trkpt lat="42.3053573" lon="13.6397007"><ele>962.4</ele><time>2026-05-03T08:24:42.987Z</time></trkpt><trkpt lat="42.3053382" lon="13.6397898"><ele>959.6000000000001</ele><time>2026-05-03T08:24:43.987Z</time></trkpt><trkpt lat="42.3052842" lon="13.6399439"><ele>956.8000000000001</ele><time>2026-05-03T08:24:45.988Z</time></trkpt><trkpt lat="42.3052589" lon="13.6400329"><ele>954.0</ele><time>2026-05-03T08:24:46.988Z</time></trkpt><trkpt lat="42.3052369" lon="13.6401281"><ele>954.0</ele><time>2026-05-03T08:24:47.988Z</time></trkpt><trkpt lat="42.3052169" lon="13.6402134"><ele>954.0000000000001</ele><time>2026-05-03T08:24:48.988Z</time></trkpt><trkpt lat="42.3051857" lon="13.6403522"><ele>954.0000000000001</ele><time>2026-05-03T08:24:50.987Z</time></trkpt><trkpt lat="42.3051327" lon="13.6405036"><ele>954.0</ele><time>2026-05-03T08:24:52.987Z</time></trkpt><trkpt lat="42.3050684" lon="13.6406434"><ele>954.0</ele><time>2026-05-03T08:24:54.987Z</time></trkpt><trkpt lat="42.3049921" lon="13.640782"><ele>952.0</ele><time>2026-05-03T08:24:56.988Z</time></trkpt><trkpt lat="42.3049404" lon="13.6408988"><ele>950.0</ele><time>2026-05-03T08:24:58.988Z</time></trkpt><trkpt lat="42.3049543" lon="13.6409928"><ele>948.0</ele><time>2026-05-03T08:25:26.988Z</time></trkpt><trkpt lat="42.3049623" lon="13.6410795"><ele>946.0</ele><time>2026-05-03T08:25:28.988Z</time></trkpt><trkpt lat="42.304962" lon="13.6412297"><ele>944.0</ele><time>2026-05-03T08:25:30.988Z</time></trkpt><trkpt lat="42.3049453" lon="13.6413216"><ele>942.0</ele><time>2026-05-03T08:25:31.988Z</time></trkpt><trkpt lat="42.304917" lon="13.6414056"><ele>940.6</ele><time>2026-05-03T08:25:32.987Z</time></trkpt><trkpt lat="42.3048852" lon="13.6414847"><ele>939.2</ele><time>2026-05-03T08:25:33.987Z</time></trkpt><trkpt lat="42.3048495" lon="13.6416231"><ele>937.8</ele><time>2026-05-03T08:25:35.988Z</time></trkpt><trkpt lat="42.3048236" lon="13.6417593"><ele>936.4</ele><time>2026-05-03T08:25:37.987Z</time></trkpt><trkpt lat="42.3047994" lon="13.6419041"><ele>935.0</ele><time>2026-05-03T08:25:39.988Z</time></trkpt><trkpt lat="42.3047674" lon="13.6420143"><ele>932.1666666666667</ele><time>2026-05-03T08:25:41.987Z</time></trkpt><trkpt lat="42.3047149" lon="13.6420966"><ele>929.3333333333334</ele><time>2026-05-03T08:25:43.988Z</time></trkpt><trkpt lat="42.304636" lon="13.6421741"><ele>926.5</ele><time>2026-05-03T08:25:45.988Z</time></trkpt><trkpt lat="42.3045331" lon="13.642275"><ele>923.6666666666667</ele><time>2026-05-03T08:25:47.988Z</time></trkpt><trkpt lat="42.3044879" lon="13.6423505"><ele>920.8333333333334</ele><time>2026-05-03T08:25:48.988Z</time></trkpt><trkpt lat="42.3044356" lon="13.6424169"><ele>918.0</ele><time>2026-05-03T08:25:49.987Z</time></trkpt><trkpt lat="42.3043847" lon="13.642492"><ele>918.0</ele><time>2026-05-03T08:25:50.987Z</time></trkpt><trkpt lat="42.3043299" lon="13.6425731"><ele>918.0</ele><time>2026-05-03T08:25:51.987Z</time></trkpt><trkpt lat="42.3042766" lon="13.6426514"><ele>918.0</ele><time>2026-05-03T08:25:52.988Z</time></trkpt><trkpt lat="42.3042252" lon="13.6427263"><ele>918.0</ele><time>2026-05-03T08:25:53.988Z</time></trkpt><trkpt lat="42.3041675" lon="13.6427886"><ele>918.0</ele><time>2026-05-03T08:25:54.988Z</time></trkpt><trkpt lat="42.3040633" lon="13.6428467"><ele>918.0</ele><time>2026-05-03T08:25:56.988Z</time></trkpt><trkpt lat="42.3039778" lon="13.6428821"><ele>915.8</ele><time>2026-05-03T08:26:00.987Z</time></trkpt><trkpt lat="42.3038951" lon="13.6429011"><ele>913.5999999999999</ele><time>2026-05-03T08:26:03.988Z</time></trkpt><trkpt lat="42.3038161" lon="13.6429359"><ele>911.4000000000001</ele><time>2026-05-03T08:26:05.987Z</time></trkpt><trkpt lat="42.303699" lon="13.6429709"><ele>909.2</ele><time>2026-05-03T08:26:07.988Z</time></trkpt><trkpt lat="42.3036054" lon="13.6430017"><ele>907.0</ele><time>2026-05-03T08:26:09.987Z</time></trkpt><trkpt lat="42.3035289" lon="13.6430223"><ele>906.9999999999999</ele><time>2026-05-03T08:26:11.988Z</time></trkpt><trkpt lat="42.3034429" lon="13.6430446"><ele>907.0</ele><time>2026-05-03T08:26:13.988Z</time></trkpt><trkpt lat="42.303359" lon="13.6430682"><ele>907.0</ele><time>2026-05-03T08:26:16.988Z</time></trkpt><trkpt lat="42.3032952" lon="13.6430946"><ele>907.0</ele><time>2026-05-03T08:26:18.988Z</time></trkpt><trkpt lat="42.3032158" lon="13.6431279"><ele>906.9999999999999</ele><time>2026-05-03T08:26:20.987Z</time></trkpt><trkpt lat="42.3031294" lon="13.6431603"><ele>907.0</ele><time>2026-05-03T08:26:22.988Z</time></trkpt><trkpt lat="42.303043" lon="13.6431794"><ele>904.3333333333333</ele><time>2026-05-03T08:26:24.988Z</time></trkpt><trkpt lat="42.3029628" lon="13.6431963"><ele>901.6666666666666</ele><time>2026-05-03T08:26:26.988Z</time></trkpt><trkpt lat="42.3028902" lon="13.6432073"><ele>899.0</ele><time>2026-05-03T08:26:29.987Z</time></trkpt><trkpt lat="42.3028051" lon="13.643203"><ele>896.3333333333333</ele><time>2026-05-03T08:26:31.988Z</time></trkpt><trkpt lat="42.3027151" lon="13.6432069"><ele>893.6666666666666</ele><time>2026-05-03T08:26:33.988Z</time></trkpt><trkpt lat="42.3026168" lon="13.6431769"><ele>891.0</ele><time>2026-05-03T08:26:35.987Z</time></trkpt><trkpt lat="42.302525" lon="13.6431345"><ele>891.0</ele><time>2026-05-03T08:26:37.987Z</time></trkpt><trkpt lat="42.302419" lon="13.6431086"><ele>890.9999999999999</ele><time>2026-05-03T08:26:39.988Z</time></trkpt><trkpt lat="42.3023195" lon="13.6431188"><ele>890.9999999999999</ele><time>2026-05-03T08:26:41.987Z</time></trkpt><trkpt lat="42.3022216" lon="13.6431651"><ele>891.0</ele><time>2026-05-03T08:26:43.988Z</time></trkpt><trkpt lat="42.3021249" lon="13.6432376"><ele>891.0</ele><time>2026-05-03T08:26:45.988Z</time></trkpt><trkpt lat="42.3020197" lon="13.6432842"><ele>889.5714285714287</ele><time>2026-05-03T08:26:47.987Z</time></trkpt><trkpt lat="42.3019507" lon="13.6433038"><ele>888.1428571428571</ele><time>2026-05-03T08:26:48.988Z</time></trkpt><trkpt lat="42.3018792" lon="13.6433185"><ele>886.7142857142858</ele><time>2026-05-03T08:26:49.987Z</time></trkpt><trkpt lat="42.3018073" lon="13.6433355"><ele>885.2857142857143</ele><time>2026-05-03T08:26:50.988Z</time></trkpt><trkpt lat="42.3017319" lon="13.6433502"><ele>883.8571428571429</ele><time>2026-05-03T08:26:51.987Z</time></trkpt><trkpt lat="42.3016569" lon="13.6433625"><ele>882.4285714285714</ele><time>2026-05-03T08:26:52.988Z</time></trkpt><trkpt lat="42.3015792" lon="13.6433804"><ele>881.0</ele><time>2026-05-03T08:26:53.987Z</time></trkpt><trkpt lat="42.3015059" lon="13.6434076"><ele>881.0000000000001</ele><time>2026-05-03T08:26:54.988Z</time></trkpt><trkpt lat="42.3014374" lon="13.6434325"><ele>881.0</ele><time>2026-05-03T08:26:55.988Z</time></trkpt><trkpt lat="42.3013725" lon="13.6434537"><ele>881.0</ele><time>2026-05-03T08:26:56.988Z</time></trkpt><trkpt lat="42.3012924" lon="13.6434947"><ele>881.0</ele><time>2026-05-03T08:26:58.988Z</time></trkpt><trkpt lat="42.3012217" lon="13.6435286"><ele>881.0000000000001</ele><time>2026-05-03T08:27:00.988Z</time></trkpt><trkpt lat="42.3011524" lon="13.643558"><ele>881.0</ele><time>2026-05-03T08:27:03.988Z</time></trkpt><trkpt lat="42.3010637" lon="13.6435862"><ele>879.5999999999999</ele><time>2026-05-03T08:27:06.988Z</time></trkpt><trkpt lat="42.3009906" lon="13.6436103"><ele>878.1999999999999</ele><time>2026-05-03T08:27:08.987Z</time></trkpt><trkpt lat="42.3009176" lon="13.6436412"><ele>876.8000000000001</ele><time>2026-05-03T08:27:10.988Z</time></trkpt><trkpt lat="42.3008316" lon="13.6436755"><ele>875.4000000000001</ele><time>2026-05-03T08:27:12.988Z</time></trkpt><trkpt lat="42.3007323" lon="13.6437179"><ele>874.0</ele><time>2026-05-03T08:27:14.987Z</time></trkpt><trkpt lat="42.300637" lon="13.6437759"><ele>872.4999999999999</ele><time>2026-05-03T08:27:16.988Z</time></trkpt><trkpt lat="42.3005398" lon="13.643831"><ele>871.0</ele><time>2026-05-03T08:27:18.988Z</time></trkpt><trkpt lat="42.3004245" lon="13.6438522"><ele>869.5</ele><time>2026-05-03T08:27:20.988Z</time></trkpt><trkpt lat="42.3003522" lon="13.643862"><ele>868.0</ele><time>2026-05-03T08:27:21.987Z</time></trkpt><trkpt lat="42.3002858" lon="13.6438706"><ele>866.4999999999999</ele><time>2026-05-03T08:27:22.987Z</time></trkpt><trkpt lat="42.3002131" lon="13.6438856"><ele>865.0</ele><time>2026-05-03T08:27:23.988Z</time></trkpt><trkpt lat="42.3001439" lon="13.6438954"><ele>864.9999999999999</ele><time>2026-05-03T08:27:24.987Z</time></trkpt><trkpt lat="42.3000667" lon="13.6438993"><ele>865.0</ele><time>2026-05-03T08:27:25.988Z</time></trkpt><trkpt lat="42.299988" lon="13.6438922"><ele>865.0</ele><time>2026-05-03T08:27:26.988Z</time></trkpt><trkpt lat="42.2999131" lon="13.6438812"><ele>865.0</ele><time>2026-05-03T08:27:27.988Z</time></trkpt><trkpt lat="42.2998002" lon="13.6438712"><ele>864.9999999999999</ele><time>2026-05-03T08:27:29.988Z</time></trkpt><trkpt lat="42.299706" lon="13.6438486"><ele>865.0</ele><time>2026-05-03T08:27:31.988Z</time></trkpt><trkpt lat="42.2996" lon="13.6437469"><ele>864.2</ele><time>2026-05-03T08:27:33.987Z</time></trkpt><trkpt lat="42.2995293" lon="13.6436776"><ele>863.4</ele><time>2026-05-03T08:27:34.988Z</time></trkpt><trkpt lat="42.299443" lon="13.6436026"><ele>862.5999999999999</ele><time>2026-05-03T08:27:35.988Z</time></trkpt><trkpt lat="42.2993514" lon="13.6435212"><ele>861.8</ele><time>2026-05-03T08:27:36.988Z</time></trkpt><trkpt lat="42.2992605" lon="13.6434366"><ele>861.0</ele><time>2026-05-03T08:27:37.988Z</time></trkpt><trkpt lat="42.2991686" lon="13.6433483"><ele>859.75</ele><time>2026-05-03T08:27:38.988Z</time></trkpt><trkpt lat="42.2990727" lon="13.643265"><ele>858.5</ele><time>2026-05-03T08:27:39.988Z</time></trkpt><trkpt lat="42.2989774" lon="13.6431818"><ele>857.25</ele><time>2026-05-03T08:27:40.988Z</time></trkpt><trkpt lat="42.2988822" lon="13.6430917"><ele>856.0</ele><time>2026-05-03T08:27:41.987Z</time></trkpt><trkpt lat="42.2987915" lon="13.6429952"><ele>854.25</ele><time>2026-05-03T08:27:42.988Z</time></trkpt><trkpt lat="42.2987035" lon="13.6428939"><ele>852.5</ele><time>2026-05-03T08:27:43.988Z</time></trkpt><trkpt lat="42.2986218" lon="13.6427836"><ele>850.75</ele><time>2026-05-03T08:27:44.988Z</time></trkpt><trkpt lat="42.2985461" lon="13.6426666"><ele>849.0</ele><time>2026-05-03T08:27:45.987Z</time></trkpt><trkpt lat="42.2984716" lon="13.6425456"><ele>847.5</ele><time>2026-05-03T08:27:46.987Z</time></trkpt><trkpt lat="42.2983991" lon="13.642425"><ele>846.0</ele><time>2026-05-03T08:27:47.987Z</time></trkpt><trkpt lat="42.2983254" lon="13.6423088"><ele>844.5</ele><time>2026-05-03T08:27:48.988Z</time></trkpt><trkpt lat="42.2982448" lon="13.6421939"><ele>843.0</ele><time>2026-05-03T08:27:49.987Z</time></trkpt><trkpt lat="42.2981628" lon="13.6420807"><ele>841.4</ele><time>2026-05-03T08:27:50.987Z</time></trkpt><trkpt lat="42.2980844" lon="13.6419692"><ele>839.8</ele><time>2026-05-03T08:27:51.988Z</time></trkpt><trkpt lat="42.298017" lon="13.6418674"><ele>838.2</ele><time>2026-05-03T08:27:52.987Z</time></trkpt><trkpt lat="42.2979617" lon="13.6417891"><ele>836.6</ele><time>2026-05-03T08:27:53.988Z</time></trkpt><trkpt lat="42.2979073" lon="13.6417189"><ele>835.0</ele><time>2026-05-03T08:27:54.988Z</time></trkpt><trkpt lat="42.2978403" lon="13.641621"><ele>834.3333333333333</ele><time>2026-05-03T08:27:56.987Z</time></trkpt><trkpt lat="42.2977737" lon="13.6415984"><ele>833.6666666666666</ele><time>2026-05-03T08:27:58.987Z</time></trkpt><trkpt lat="42.2976736" lon="13.6416187"><ele>833.0</ele><time>2026-05-03T08:28:00.987Z</time></trkpt><trkpt lat="42.2975998" lon="13.6416246"><ele>832.3333333333333</ele><time>2026-05-03T08:28:01.988Z</time></trkpt><trkpt lat="42.2975289" lon="13.6416253"><ele>831.6666666666666</ele><time>2026-05-03T08:28:02.988Z</time></trkpt><trkpt lat="42.2974552" lon="13.6416279"><ele>831.0</ele><time>2026-05-03T08:28:03.987Z</time></trkpt><trkpt lat="42.2973778" lon="13.6416314"><ele>831.0</ele><time>2026-05-03T08:28:04.987Z</time></trkpt><trkpt lat="42.297304" lon="13.6416264"><ele>831.0</ele><time>2026-05-03T08:28:05.988Z</time></trkpt><trkpt lat="42.2972236" lon="13.6416119"><ele>831.0</ele><time>2026-05-03T08:28:06.987Z</time></trkpt><trkpt lat="42.297144" lon="13.6415987"><ele>831.0</ele><time>2026-05-03T08:28:07.987Z</time></trkpt><trkpt lat="42.2970632" lon="13.641584"><ele>831.0</ele><time>2026-05-03T08:28:08.987Z</time></trkpt><trkpt lat="42.2969784" lon="13.6415697"><ele>831.0</ele><time>2026-05-03T08:28:09.987Z</time></trkpt><trkpt lat="42.2969047" lon="13.6415536"><ele>829.1999999999999</ele><time>2026-05-03T08:28:10.987Z</time></trkpt><trkpt lat="42.2968416" lon="13.6415357"><ele>827.4</ele><time>2026-05-03T08:28:11.987Z</time></trkpt><trkpt lat="42.2967281" lon="13.6415236"><ele>825.6</ele><time>2026-05-03T08:28:13.988Z</time></trkpt><trkpt lat="42.2966013" lon="13.6415503"><ele>823.8</ele><time>2026-05-03T08:28:15.988Z</time></trkpt><trkpt lat="42.2964801" lon="13.6415627"><ele>822.0</ele><time>2026-05-03T08:28:17.988Z</time></trkpt><trkpt lat="42.2964091" lon="13.6415583"><ele>820.7142857142857</ele><time>2026-05-03T08:28:18.988Z</time></trkpt><trkpt lat="42.2963378" lon="13.6415489"><ele>819.4285714285713</ele><time>2026-05-03T08:28:19.987Z</time></trkpt><trkpt lat="42.2962619" lon="13.6415385"><ele>818.1428571428571</ele><time>2026-05-03T08:28:20.987Z</time></trkpt><trkpt lat="42.2961932" lon="13.6415237"><ele>816.8571428571429</ele><time>2026-05-03T08:28:21.987Z</time></trkpt><trkpt lat="42.2961257" lon="13.6415068"><ele>815.5714285714286</ele><time>2026-05-03T08:28:22.987Z</time></trkpt><trkpt lat="42.296059" lon="13.6414785"><ele>814.2857142857143</ele><time>2026-05-03T08:28:23.988Z</time></trkpt><trkpt lat="42.2959951" lon="13.6414404"><ele>813.0</ele><time>2026-05-03T08:28:24.988Z</time></trkpt><trkpt lat="42.2959261" lon="13.6414056"><ele>813.0</ele><time>2026-05-03T08:28:25.987Z</time></trkpt><trkpt lat="42.2958612" lon="13.6413682"><ele>813.0</ele><time>2026-05-03T08:28:26.988Z</time></trkpt><trkpt lat="42.2957859" lon="13.6413422"><ele>813.0</ele><time>2026-05-03T08:28:27.988Z</time></trkpt><trkpt lat="42.2957065" lon="13.641321"><ele>813.0</ele><time>2026-05-03T08:28:28.988Z</time></trkpt><trkpt lat="42.2956276" lon="13.6413052"><ele>813.0</ele><time>2026-05-03T08:28:29.988Z</time></trkpt><trkpt lat="42.2955472" lon="13.6412963"><ele>813.0</ele><time>2026-05-03T08:28:30.988Z</time></trkpt><trkpt lat="42.2954688" lon="13.6412947"><ele>811.5</ele><time>2026-05-03T08:28:31.988Z</time></trkpt><trkpt lat="42.295388" lon="13.6412905"><ele>810.0</ele><time>2026-05-03T08:28:32.988Z</time></trkpt><trkpt lat="42.2953109" lon="13.6412693"><ele>808.5</ele><time>2026-05-03T08:28:33.988Z</time></trkpt><trkpt lat="42.2952252" lon="13.6412635"><ele>807.0</ele><time>2026-05-03T08:28:34.988Z</time></trkpt><trkpt lat="42.2951409" lon="13.6412605"><ele>805.5</ele><time>2026-05-03T08:28:35.988Z</time></trkpt><trkpt lat="42.2950604" lon="13.6412548"><ele>804.0</ele><time>2026-05-03T08:28:36.988Z</time></trkpt><trkpt lat="42.2949869" lon="13.6412568"><ele>804.0</ele><time>2026-05-03T08:28:37.987Z</time></trkpt><trkpt lat="42.2949117" lon="13.641262"><ele>804.0</ele><time>2026-05-03T08:28:38.988Z</time></trkpt><trkpt lat="42.2948467" lon="13.6412531"><ele>804.0</ele><time>2026-05-03T08:28:39.987Z</time></trkpt><trkpt lat="42.2947809" lon="13.6412378"><ele>804.0</ele><time>2026-05-03T08:28:40.987Z</time></trkpt><trkpt lat="42.2947123" lon="13.6412178"><ele>804.0</ele><time>2026-05-03T08:28:41.988Z</time></trkpt><trkpt lat="42.2946009" lon="13.641158"><ele>804.0</ele><time>2026-05-03T08:28:43.987Z</time></trkpt><trkpt lat="42.2945002" lon="13.6411106"><ele>802.8000000000001</ele><time>2026-05-03T08:28:45.987Z</time></trkpt><trkpt lat="42.2944386" lon="13.6410869"><ele>801.6</ele><time>2026-05-03T08:28:47.988Z</time></trkpt><trkpt lat="42.2943611" lon="13.641099"><ele>800.4</ele><time>2026-05-03T08:28:50.988Z</time></trkpt><trkpt lat="42.2943082" lon="13.641163"><ele>799.2</ele><time>2026-05-03T08:28:52.988Z</time></trkpt><trkpt lat="42.2942009" lon="13.6412825"><ele>798.0</ele><time>2026-05-03T08:28:54.988Z</time></trkpt><trkpt lat="42.2941132" lon="13.6413785"><ele>798.0</ele><time>2026-05-03T08:28:55.988Z</time></trkpt><trkpt lat="42.2940155" lon="13.6414919"><ele>798.0</ele><time>2026-05-03T08:28:56.988Z</time></trkpt><trkpt lat="42.2939179" lon="13.6416116"><ele>798.0</ele><time>2026-05-03T08:28:57.988Z</time></trkpt><trkpt lat="42.2938378" lon="13.641742"><ele>798.0</ele><time>2026-05-03T08:28:58.987Z</time></trkpt><trkpt lat="42.2937643" lon="13.6418965"><ele>798.0</ele><time>2026-05-03T08:28:59.988Z</time></trkpt><trkpt lat="42.2937069" lon="13.6420544"><ele>798.0</ele><time>2026-05-03T08:29:00.988Z</time></trkpt><trkpt lat="42.293636" lon="13.6421844"><ele>798.0</ele><time>2026-05-03T08:29:01.988Z</time></trkpt><trkpt lat="42.2935455" lon="13.6422833"><ele>798.0</ele><time>2026-05-03T08:29:02.988Z</time></trkpt><trkpt lat="42.2934311" lon="13.6423683"><ele>798.0</ele><time>2026-05-03T08:29:03.988Z</time></trkpt><trkpt lat="42.2932989" lon="13.6424582"><ele>798.0</ele><time>2026-05-03T08:29:04.987Z</time></trkpt><trkpt lat="42.2931571" lon="13.6425414"><ele>798.0</ele><time>2026-05-03T08:29:05.988Z</time></trkpt><trkpt lat="42.2930076" lon="13.6426231"><ele>797.6666666666667</ele><time>2026-05-03T08:29:06.988Z</time></trkpt><trkpt lat="42.2928501" lon="13.6427018"><ele>797.3333333333334</ele><time>2026-05-03T08:29:07.988Z</time></trkpt><trkpt lat="42.2926878" lon="13.6427887"><ele>797.0</ele><time>2026-05-03T08:29:08.987Z</time></trkpt><trkpt lat="42.292522" lon="13.6428778"><ele>797.0</ele><time>2026-05-03T08:29:09.987Z</time></trkpt><trkpt lat="42.2923514" lon="13.642956"><ele>797.0</ele><time>2026-05-03T08:29:10.988Z</time></trkpt><trkpt lat="42.2921797" lon="13.6430305"><ele>797.0</ele><time>2026-05-03T08:29:11.987Z</time></trkpt><trkpt lat="42.2920155" lon="13.6430986"><ele>796.3333333333334</ele><time>2026-05-03T08:29:12.987Z</time></trkpt><trkpt lat="42.291852" lon="13.6431545"><ele>795.6666666666667</ele><time>2026-05-03T08:29:13.988Z</time></trkpt><trkpt lat="42.2917001" lon="13.6431762"><ele>795.0</ele><time>2026-05-03T08:29:14.988Z</time></trkpt><trkpt lat="42.2915696" lon="13.6431663"><ele>795.0</ele><time>2026-05-03T08:29:15.987Z</time></trkpt><trkpt lat="42.2914432" lon="13.6431273"><ele>795.0</ele><time>2026-05-03T08:29:16.987Z</time></trkpt><trkpt lat="42.2913245" lon="13.6430778"><ele>795.0</ele><time>2026-05-03T08:29:17.988Z</time></trkpt><trkpt lat="42.2912018" lon="13.6430662"><ele>795.0</ele><time>2026-05-03T08:29:18.988Z</time></trkpt><trkpt lat="42.2910738" lon="13.6430803"><ele>794.0</ele><time>2026-05-03T08:29:19.987Z</time></trkpt><trkpt lat="42.2909446" lon="13.6431139"><ele>793.0</ele><time>2026-05-03T08:29:20.987Z</time></trkpt><trkpt lat="42.2908075" lon="13.643151"><ele>792.0</ele><time>2026-05-03T08:29:21.987Z</time></trkpt><trkpt lat="42.2906617" lon="13.6431831"><ele>791.0</ele><time>2026-05-03T08:29:22.988Z</time></trkpt><trkpt lat="42.2905165" lon="13.6432006"><ele>789.75</ele><time>2026-05-03T08:29:23.988Z</time></trkpt><trkpt lat="42.2903743" lon="13.6432114"><ele>788.5</ele><time>2026-05-03T08:29:24.988Z</time></trkpt><trkpt lat="42.2902322" lon="13.6432277"><ele>787.25</ele><time>2026-05-03T08:29:25.987Z</time></trkpt><trkpt lat="42.2900904" lon="13.6432387"><ele>786.0</ele><time>2026-05-03T08:29:26.987Z</time></trkpt><trkpt lat="42.2899567" lon="13.6432587"><ele>786.0</ele><time>2026-05-03T08:29:27.988Z</time></trkpt><trkpt lat="42.2898528" lon="13.6432882"><ele>786.0</ele><time>2026-05-03T08:29:28.988Z</time></trkpt><trkpt lat="42.2897742" lon="13.643338"><ele>786.0</ele><time>2026-05-03T08:29:29.988Z</time></trkpt><trkpt lat="42.2897188" lon="13.6434193"><ele>786.0</ele><time>2026-05-03T08:29:30.988Z</time></trkpt><trkpt lat="42.2897012" lon="13.6435124"><ele>786.0</ele><time>2026-05-03T08:29:31.988Z</time></trkpt><trkpt lat="42.2897102" lon="13.6436239"><ele>786.0</ele><time>2026-05-03T08:29:32.987Z</time></trkpt><trkpt lat="42.2897424" lon="13.6437409"><ele>787.0</ele><time>2026-05-03T08:29:33.988Z</time></trkpt><trkpt lat="42.2897718" lon="13.6438719"><ele>788.0</ele><time>2026-05-03T08:29:34.988Z</time></trkpt><trkpt lat="42.2897971" lon="13.6440163"><ele>789.0</ele><time>2026-05-03T08:29:35.988Z</time></trkpt><trkpt lat="42.2898209" lon="13.6441659"><ele>790.0</ele><time>2026-05-03T08:29:36.987Z</time></trkpt><trkpt lat="42.2898348" lon="13.6443177"><ele>791.0</ele><time>2026-05-03T08:29:37.988Z</time></trkpt><trkpt lat="42.2898471" lon="13.6444669"><ele>792.0</ele><time>2026-05-03T08:29:38.988Z</time></trkpt><trkpt lat="42.2898669" lon="13.6446124"><ele>793.0</ele><time>2026-05-03T08:29:39.988Z</time></trkpt><trkpt lat="42.2898962" lon="13.6447617"><ele>794.0</ele><time>2026-05-03T08:29:40.987Z</time></trkpt><trkpt lat="42.2899355" lon="13.644912"><ele>795.0</ele><time>2026-05-03T08:29:41.988Z</time></trkpt><trkpt lat="42.2899771" lon="13.6450641"><ele>795.0</ele><time>2026-05-03T08:29:42.988Z</time></trkpt><trkpt lat="42.2900209" lon="13.6452166"><ele>795.0</ele><time>2026-05-03T08:29:43.987Z</time></trkpt><trkpt lat="42.2900639" lon="13.6453715"><ele>795.0</ele><time>2026-05-03T08:29:44.987Z</time></trkpt><trkpt lat="42.2900945" lon="13.6455245"><ele>795.0</ele><time>2026-05-03T08:29:45.988Z</time></trkpt><trkpt lat="42.2901074" lon="13.6456796"><ele>795.25</ele><time>2026-05-03T08:29:46.988Z</time></trkpt><trkpt lat="42.2901042" lon="13.6458412"><ele>795.5</ele><time>2026-05-03T08:29:47.988Z</time></trkpt><trkpt lat="42.2900901" lon="13.646"><ele>795.75</ele><time>2026-05-03T08:29:48.988Z</time></trkpt><trkpt lat="42.2900658" lon="13.6461637"><ele>796.0</ele><time>2026-05-03T08:29:49.988Z</time></trkpt><trkpt lat="42.290026" lon="13.6463212"><ele>797.5</ele><time>2026-05-03T08:29:50.987Z</time></trkpt><trkpt lat="42.2899571" lon="13.646467"><ele>799.0</ele><time>2026-05-03T08:29:51.987Z</time></trkpt><trkpt lat="42.2898815" lon="13.6466026"><ele>800.5</ele><time>2026-05-03T08:29:52.987Z</time></trkpt><trkpt lat="42.2898095" lon="13.6467441"><ele>802.0</ele><time>2026-05-03T08:29:53.988Z</time></trkpt><trkpt lat="42.2897358" lon="13.6468923"><ele>799.25</ele><time>2026-05-03T08:29:54.988Z</time></trkpt><trkpt lat="42.2896722" lon="13.6470479"><ele>796.5</ele><time>2026-05-03T08:29:55.988Z</time></trkpt><trkpt lat="42.2896239" lon="13.647208"><ele>793.75</ele><time>2026-05-03T08:29:56.987Z</time></trkpt><trkpt lat="42.2895894" lon="13.6473632"><ele>791.0</ele><time>2026-05-03T08:29:57.988Z</time></trkpt><trkpt lat="42.289562" lon="13.6475187"><ele>791.0</ele><time>2026-05-03T08:29:58.987Z</time></trkpt><trkpt lat="42.289512" lon="13.6476641"><ele>791.0</ele><time>2026-05-03T08:29:59.988Z</time></trkpt><trkpt lat="42.2894378" lon="13.6478032"><ele>791.0</ele><time>2026-05-03T08:30:00.987Z</time></trkpt><trkpt lat="42.2893577" lon="13.6479478"><ele>791.0</ele><time>2026-05-03T08:30:01.987Z</time></trkpt><trkpt lat="42.2892694" lon="13.6480921"><ele>790.25</ele><time>2026-05-03T08:30:02.987Z</time></trkpt><trkpt lat="42.2891711" lon="13.6482402"><ele>789.5</ele><time>2026-05-03T08:30:03.987Z</time></trkpt><trkpt lat="42.2890635" lon="13.6483801"><ele>788.75</ele><time>2026-05-03T08:30:04.987Z</time></trkpt><trkpt lat="42.2889528" lon="13.6485214"><ele>788.0</ele><time>2026-05-03T08:30:05.988Z</time></trkpt><trkpt lat="42.2888407" lon="13.6486646"><ele>788.0</ele><time>2026-05-03T08:30:06.987Z</time></trkpt><trkpt lat="42.2887179" lon="13.6488047"><ele>788.0</ele><time>2026-05-03T08:30:07.988Z</time></trkpt><trkpt lat="42.2885854" lon="13.6489342"><ele>788.0</ele><time>2026-05-03T08:30:08.988Z</time></trkpt><trkpt lat="42.2884529" lon="13.6490525"><ele>788.0</ele><time>2026-05-03T08:30:09.988Z</time></trkpt><trkpt lat="42.2883183" lon="13.6491785"><ele>788.0</ele><time>2026-05-03T08:30:10.988Z</time></trkpt><trkpt lat="42.2881929" lon="13.649317"><ele>788.0</ele><time>2026-05-03T08:30:11.987Z</time></trkpt><trkpt lat="42.2880754" lon="13.6494605"><ele>785.3333333333334</ele><time>2026-05-03T08:30:12.988Z</time></trkpt><trkpt lat="42.2879701" lon="13.6496199"><ele>782.6666666666667</ele><time>2026-05-03T08:30:13.988Z</time></trkpt><trkpt lat="42.2878759" lon="13.6497991"><ele>780.0</ele><time>2026-05-03T08:30:14.988Z</time></trkpt><trkpt lat="42.287792" lon="13.6499892"><ele>780.0</ele><time>2026-05-03T08:30:15.988Z</time></trkpt><trkpt lat="42.2877193" lon="13.6501855"><ele>780.0</ele><time>2026-05-03T08:30:16.988Z</time></trkpt><trkpt lat="42.2876479" lon="13.6503805"><ele>780.0</ele><time>2026-05-03T08:30:17.988Z</time></trkpt><trkpt lat="42.2875915" lon="13.65058"><ele>781.6666666666667</ele><time>2026-05-03T08:30:18.987Z</time></trkpt><trkpt lat="42.2875514" lon="13.6507789"><ele>783.3333333333334</ele><time>2026-05-03T08:30:19.987Z</time></trkpt><trkpt lat="42.2875169" lon="13.6509856"><ele>785.0</ele><time>2026-05-03T08:30:20.988Z</time></trkpt><trkpt lat="42.2874901" lon="13.651191"><ele>785.75</ele><time>2026-05-03T08:30:21.988Z</time></trkpt><trkpt lat="42.2874833" lon="13.6513984"><ele>786.5</ele><time>2026-05-03T08:30:22.987Z</time></trkpt><trkpt lat="42.2874999" lon="13.6516006"><ele>787.25</ele><time>2026-05-03T08:30:23.988Z</time></trkpt><trkpt lat="42.2875286" lon="13.6517917"><ele>788.0</ele><time>2026-05-03T08:30:24.988Z</time></trkpt><trkpt lat="42.2875336" lon="13.6519519"><ele>789.25</ele><time>2026-05-03T08:30:25.988Z</time></trkpt><trkpt lat="42.2875181" lon="13.6521017"><ele>790.5</ele><time>2026-05-03T08:30:26.987Z</time></trkpt><trkpt lat="42.2874705" lon="13.6522382"><ele>791.75</ele><time>2026-05-03T08:30:27.988Z</time></trkpt><trkpt lat="42.2873992" lon="13.6523593"><ele>793.0</ele><time>2026-05-03T08:30:28.988Z</time></trkpt><trkpt lat="42.2873228" lon="13.6524876"><ele>789.75</ele><time>2026-05-03T08:30:29.988Z</time></trkpt><trkpt lat="42.2872486" lon="13.6526148"><ele>786.5</ele><time>2026-05-03T08:30:30.987Z</time></trkpt><trkpt lat="42.2871777" lon="13.6527542"><ele>783.25</ele><time>2026-05-03T08:30:31.988Z</time></trkpt><trkpt lat="42.287132" lon="13.6529166"><ele>780.0</ele><time>2026-05-03T08:30:32.988Z</time></trkpt><trkpt lat="42.2870991" lon="13.6530894"><ele>780.0</ele><time>2026-05-03T08:30:33.988Z</time></trkpt><trkpt lat="42.2870691" lon="13.6532734"><ele>780.0</ele><time>2026-05-03T08:30:34.988Z</time></trkpt><trkpt lat="42.287038" lon="13.6534576"><ele>780.0</ele><time>2026-05-03T08:30:35.988Z</time></trkpt><trkpt lat="42.2870066" lon="13.6536409"><ele>780.0</ele><time>2026-05-03T08:30:36.988Z</time></trkpt><trkpt lat="42.2869713" lon="13.6538178"><ele>781.75</ele><time>2026-05-03T08:30:37.988Z</time></trkpt><trkpt lat="42.2869263" lon="13.6539803"><ele>783.5</ele><time>2026-05-03T08:30:38.987Z</time></trkpt><trkpt lat="42.2868725" lon="13.6541177"><ele>785.25</ele><time>2026-05-03T08:30:39.987Z</time></trkpt><trkpt lat="42.2868116" lon="13.6542367"><ele>787.0</ele><time>2026-05-03T08:30:40.987Z</time></trkpt><trkpt lat="42.2867418" lon="13.6543451"><ele>787.0</ele><time>2026-05-03T08:30:41.987Z</time></trkpt><trkpt lat="42.2866689" lon="13.6544489"><ele>787.0</ele><time>2026-05-03T08:30:42.988Z</time></trkpt><trkpt lat="42.2865911" lon="13.6545625"><ele>787.0</ele><time>2026-05-03T08:30:43.988Z</time></trkpt><trkpt lat="42.2865142" lon="13.6546803"><ele>787.0</ele><time>2026-05-03T08:30:44.988Z</time></trkpt><trkpt lat="42.2864337" lon="13.6547955"><ele>786.2</ele><time>2026-05-03T08:30:45.988Z</time></trkpt><trkpt lat="42.286347" lon="13.6549052"><ele>785.4000000000001</ele><time>2026-05-03T08:30:46.988Z</time></trkpt><trkpt lat="42.2862815" lon="13.6549923"><ele>784.5999999999999</ele><time>2026-05-03T08:30:47.987Z</time></trkpt><trkpt lat="42.2862209" lon="13.6550847"><ele>783.8</ele><time>2026-05-03T08:30:49.988Z</time></trkpt><trkpt lat="42.2861977" lon="13.6551854"><ele>783.0</ele><time>2026-05-03T08:30:53.988Z</time></trkpt><trkpt lat="42.2861865" lon="13.6553186"><ele>783.0</ele><time>2026-05-03T08:30:55.988Z</time></trkpt><trkpt lat="42.2861761" lon="13.6554112"><ele>783.0</ele><time>2026-05-03T08:30:56.988Z</time></trkpt><trkpt lat="42.2861478" lon="13.6555165"><ele>783.0</ele><time>2026-05-03T08:30:57.987Z</time></trkpt><trkpt lat="42.2861191" lon="13.6556354"><ele>783.0</ele><time>2026-05-03T08:30:58.987Z</time></trkpt><trkpt lat="42.286095" lon="13.6557721"><ele>783.0</ele><time>2026-05-03T08:30:59.987Z</time></trkpt><trkpt lat="42.2860801" lon="13.6558905"><ele>783.0</ele><time>2026-05-03T08:31:00.988Z</time></trkpt><trkpt lat="42.2860692" lon="13.6559789"><ele>783.0</ele><time>2026-05-03T08:31:01.988Z</time></trkpt><trkpt lat="42.2860509" lon="13.6560865"><ele>783.0</ele><time>2026-05-03T08:31:03.988Z</time></trkpt><trkpt lat="42.2860836" lon="13.655944"><ele>783.0</ele><time>2026-05-03T08:31:11.988Z</time></trkpt><trkpt lat="42.2860891" lon="13.655853"><ele>783.0</ele><time>2026-05-03T08:31:12.988Z</time></trkpt><trkpt lat="42.2861012" lon="13.6557498"><ele>783.0</ele><time>2026-05-03T08:31:13.987Z</time></trkpt><trkpt lat="42.2861232" lon="13.6556444"><ele>783.0</ele><time>2026-05-03T08:31:14.988Z</time></trkpt><trkpt lat="42.2861461" lon="13.6555455"><ele>783.0</ele><time>2026-05-03T08:31:15.988Z</time></trkpt><trkpt lat="42.2861689" lon="13.6554565"><ele>783.0</ele><time>2026-05-03T08:31:16.987Z</time></trkpt><trkpt lat="42.2861945" lon="13.6553048"><ele>783.0</ele><time>2026-05-03T08:31:18.988Z</time></trkpt><trkpt lat="42.2862552" lon="13.6552567"><ele>783.0</ele><time>2026-05-03T08:31:21.988Z</time></trkpt><trkpt lat="42.2863254" lon="13.6553096"><ele>783.0</ele><time>2026-05-03T08:31:23.988Z</time></trkpt><trkpt lat="42.2863914" lon="13.6554423"><ele>783.0</ele><time>2026-05-03T08:31:25.988Z</time></trkpt><trkpt lat="42.2864077" lon="13.6555984"><ele>783.0</ele><time>2026-05-03T08:31:27.987Z</time></trkpt><trkpt lat="42.2863997" lon="13.6556952"><ele>783.0</ele><time>2026-05-03T08:31:28.987Z</time></trkpt><trkpt lat="42.2863875" lon="13.6558035"><ele>783.0</ele><time>2026-05-03T08:31:29.987Z</time></trkpt><trkpt lat="42.2863811" lon="13.6559224"><ele>783.0</ele><time>2026-05-03T08:31:30.988Z</time></trkpt><trkpt lat="42.2863786" lon="13.656038"><ele>783.0</ele><time>2026-05-03T08:31:31.988Z</time></trkpt><trkpt lat="42.2863792" lon="13.6561543"><ele>783.8</ele><time>2026-05-03T08:31:32.988Z</time></trkpt><trkpt lat="42.2863742" lon="13.6562625"><ele>784.5999999999999</ele><time>2026-05-03T08:31:33.988Z</time></trkpt><trkpt lat="42.2863665" lon="13.6564081"><ele>785.4000000000001</ele><time>2026-05-03T08:31:35.988Z</time></trkpt><trkpt lat="42.2864029" lon="13.6565168"><ele>786.2</ele><time>2026-05-03T08:31:37.987Z</time></trkpt><trkpt lat="42.2864622" lon="13.6566015"><ele>787.0</ele><time>2026-05-03T08:31:53.987Z</time></trkpt><trkpt lat="42.2865538" lon="13.6566186"><ele>790.6</ele><time>2026-05-03T08:31:55.988Z</time></trkpt><trkpt lat="42.2866308" lon="13.6566573"><ele>794.2</ele><time>2026-05-03T08:31:57.987Z</time></trkpt><trkpt lat="42.28667" lon="13.6567402"><ele>797.8</ele><time>2026-05-03T08:31:59.988Z</time></trkpt><trkpt lat="42.2866821" lon="13.6568403"><ele>801.4</ele><time>2026-05-03T08:32:01.987Z</time></trkpt><trkpt lat="42.2866041" lon="13.6569481"><ele>805.0</ele><time>2026-05-03T08:32:03.988Z</time></trkpt><trkpt lat="42.286535" lon="13.6570778"><ele>803.4999999999999</ele><time>2026-05-03T08:32:05.988Z</time></trkpt><trkpt lat="42.2864502" lon="13.6572001"><ele>802.0</ele><time>2026-05-03T08:32:07.987Z</time></trkpt><trkpt lat="42.2864034" lon="13.6572726"><ele>800.5</ele><time>2026-05-03T08:32:08.988Z</time></trkpt><trkpt lat="42.2863591" lon="13.6573483"><ele>799.0</ele><time>2026-05-03T08:32:09.988Z</time></trkpt><trkpt lat="42.2863156" lon="13.6574133"><ele>797.4999999999999</ele><time>2026-05-03T08:32:10.988Z</time></trkpt><trkpt lat="42.2862482" lon="13.6575373"><ele>796.0</ele><time>2026-05-03T08:32:12.987Z</time></trkpt><trkpt lat="42.2862146" lon="13.6576106"><ele>795.9999999999999</ele><time>2026-05-03T08:32:14.987Z</time></trkpt><trkpt lat="42.2861575" lon="13.6576475"><ele>796.0</ele><time>2026-05-03T08:32:16.988Z</time></trkpt><trkpt lat="42.2861028" lon="13.6576977"><ele>796.0</ele><time>2026-05-03T08:32:18.988Z</time></trkpt><trkpt lat="42.2860604" lon="13.6577939"><ele>796.0</ele><time>2026-05-03T08:32:21.988Z</time></trkpt><trkpt lat="42.2859927" lon="13.6578594"><ele>795.9999999999999</ele><time>2026-05-03T08:32:28.987Z</time></trkpt><trkpt lat="42.2859284" lon="13.6579741"><ele>796.0</ele><time>2026-05-03T08:32:30.987Z</time></trkpt><trkpt lat="42.2858503" lon="13.658096"><ele>796.4</ele><time>2026-05-03T08:32:32.988Z</time></trkpt><trkpt lat="42.2857739" lon="13.6582074"><ele>796.8</ele><time>2026-05-03T08:32:34.988Z</time></trkpt><trkpt lat="42.2857137" lon="13.6583115"><ele>797.1999999999999</ele><time>2026-05-03T08:32:36.988Z</time></trkpt><trkpt lat="42.2856621" lon="13.6584016"><ele>797.5999999999999</ele><time>2026-05-03T08:32:38.987Z</time></trkpt><trkpt lat="42.2855818" lon="13.6585093"><ele>798.0</ele><time>2026-05-03T08:32:40.988Z</time></trkpt><trkpt lat="42.2855068" lon="13.6586349"><ele>798.0</ele><time>2026-05-03T08:32:42.987Z</time></trkpt><trkpt lat="42.2854374" lon="13.6587534"><ele>798.0</ele><time>2026-05-03T08:32:44.987Z</time></trkpt><trkpt lat="42.2853846" lon="13.6588827"><ele>798.0</ele><time>2026-05-03T08:32:46.988Z</time></trkpt><trkpt lat="42.2853079" lon="13.65898"><ele>798.0</ele><time>2026-05-03T08:32:48.988Z</time></trkpt><trkpt lat="42.2852239" lon="13.6590878"><ele>798.0</ele><time>2026-05-03T08:32:50.988Z</time></trkpt><trkpt lat="42.285145" lon="13.6591999"><ele>798.0</ele><time>2026-05-03T08:32:52.988Z</time></trkpt><trkpt lat="42.2850608" lon="13.6593001"><ele>798.0</ele><time>2026-05-03T08:32:54.988Z</time></trkpt><trkpt lat="42.2849831" lon="13.6594178"><ele>798.0</ele><time>2026-05-03T08:32:56.987Z</time></trkpt><trkpt lat="42.2849427" lon="13.6594846"><ele>798.0</ele><time>2026-05-03T08:32:57.988Z</time></trkpt><trkpt lat="42.2849066" lon="13.6596295"><ele>798.0</ele><time>2026-05-03T08:32:59.988Z</time></trkpt><trkpt lat="42.2848916" lon="13.6597191"><ele>797.5714285714286</ele><time>2026-05-03T08:33:00.988Z</time></trkpt><trkpt lat="42.2848748" lon="13.6598028"><ele>797.1428571428571</ele><time>2026-05-03T08:33:01.987Z</time></trkpt><trkpt lat="42.2848536" lon="13.6598867"><ele>796.7142857142858</ele><time>2026-05-03T08:33:02.987Z</time></trkpt><trkpt lat="42.2848274" lon="13.659967"><ele>796.2857142857142</ele><time>2026-05-03T08:33:03.988Z</time></trkpt><trkpt lat="42.2847809" lon="13.6600403"><ele>795.8571428571429</ele><time>2026-05-03T08:33:04.988Z</time></trkpt><trkpt lat="42.2847304" lon="13.6600999"><ele>795.4285714285714</ele><time>2026-05-03T08:33:05.988Z</time></trkpt><trkpt lat="42.2846745" lon="13.660161"><ele>795.0</ele><time>2026-05-03T08:33:06.988Z</time></trkpt><trkpt lat="42.2846184" lon="13.6602342"><ele>798.5</ele><time>2026-05-03T08:33:07.987Z</time></trkpt><trkpt lat="42.2845577" lon="13.6603107"><ele>802.0</ele><time>2026-05-03T08:33:08.988Z</time></trkpt><trkpt lat="42.2844892" lon="13.660376"><ele>805.5</ele><time>2026-05-03T08:33:09.988Z</time></trkpt><trkpt lat="42.2844125" lon="13.6604352"><ele>809.0</ele><time>2026-05-03T08:33:10.987Z</time></trkpt><trkpt lat="42.2843328" lon="13.6604921"><ele>812.5</ele><time>2026-05-03T08:33:11.988Z</time></trkpt><trkpt lat="42.2842537" lon="13.6605725"><ele>816.0</ele><time>2026-05-03T08:33:12.988Z</time></trkpt><trkpt lat="42.2841768" lon="13.6606605"><ele>816.0</ele><time>2026-05-03T08:33:13.988Z</time></trkpt><trkpt lat="42.2841124" lon="13.6607696"><ele>816.0</ele><time>2026-05-03T08:33:14.988Z</time></trkpt><trkpt lat="42.2840474" lon="13.6608871"><ele>816.0</ele><time>2026-05-03T08:33:15.988Z</time></trkpt><trkpt lat="42.2839856" lon="13.6610162"><ele>816.0</ele><time>2026-05-03T08:33:16.988Z</time></trkpt><trkpt lat="42.2839243" lon="13.6611529"><ele>816.0</ele><time>2026-05-03T08:33:17.988Z</time></trkpt><trkpt lat="42.2838694" lon="13.6612845"><ele>815.0</ele><time>2026-05-03T08:33:18.987Z</time></trkpt><trkpt lat="42.2838202" lon="13.6614216"><ele>814.0</ele><time>2026-05-03T08:33:19.987Z</time></trkpt><trkpt lat="42.2837733" lon="13.6615571"><ele>813.0</ele><time>2026-05-03T08:33:20.987Z</time></trkpt><trkpt lat="42.2837335" lon="13.6616947"><ele>812.0</ele><time>2026-05-03T08:33:21.988Z</time></trkpt><trkpt lat="42.2836913" lon="13.6618347"><ele>811.0</ele><time>2026-05-03T08:33:22.987Z</time></trkpt><trkpt lat="42.2836467" lon="13.6619733"><ele>815.75</ele><time>2026-05-03T08:33:23.987Z</time></trkpt><trkpt lat="42.2836018" lon="13.6621125"><ele>820.5</ele><time>2026-05-03T08:33:24.987Z</time></trkpt><trkpt lat="42.2835522" lon="13.6622545"><ele>825.25</ele><time>2026-05-03T08:33:25.987Z</time></trkpt><trkpt lat="42.2835011" lon="13.6623928"><ele>830.0</ele><time>2026-05-03T08:33:26.988Z</time></trkpt><trkpt lat="42.2834558" lon="13.662527"><ele>830.0</ele><time>2026-05-03T08:33:27.988Z</time></trkpt><trkpt lat="42.2834077" lon="13.6626556"><ele>830.0</ele><time>2026-05-03T08:33:28.988Z</time></trkpt><trkpt lat="42.2833597" lon="13.6627785"><ele>830.0</ele><time>2026-05-03T08:33:29.987Z</time></trkpt><trkpt lat="42.283313" lon="13.6628949"><ele>830.0</ele><time>2026-05-03T08:33:30.987Z</time></trkpt><trkpt lat="42.2832739" lon="13.6630003"><ele>830.0</ele><time>2026-05-03T08:33:31.988Z</time></trkpt><trkpt lat="42.2832357" lon="13.6630966"><ele>829.7142857142858</ele><time>2026-05-03T08:33:32.987Z</time></trkpt><trkpt lat="42.2831988" lon="13.6631813"><ele>829.4285714285714</ele><time>2026-05-03T08:33:33.988Z</time></trkpt><trkpt lat="42.2831621" lon="13.6632665"><ele>829.1428571428571</ele><time>2026-05-03T08:33:34.988Z</time></trkpt><trkpt lat="42.2831235" lon="13.6633452"><ele>828.8571428571429</ele><time>2026-05-03T08:33:35.988Z</time></trkpt><trkpt lat="42.2830907" lon="13.6634229"><ele>828.5714285714286</ele><time>2026-05-03T08:33:36.988Z</time></trkpt><trkpt lat="42.2830591" lon="13.663501"><ele>828.2857142857143</ele><time>2026-05-03T08:33:37.988Z</time></trkpt><trkpt lat="42.2830265" lon="13.6635741"><ele>828.0</ele><time>2026-05-03T08:33:38.988Z</time></trkpt><trkpt lat="42.282993" lon="13.6636524"><ele>828.0</ele><time>2026-05-03T08:33:39.987Z</time></trkpt><trkpt lat="42.2829592" lon="13.6637329"><ele>828.0</ele><time>2026-05-03T08:33:40.988Z</time></trkpt><trkpt lat="42.2829213" lon="13.6638138"><ele>828.0</ele><time>2026-05-03T08:33:41.987Z</time></trkpt><trkpt lat="42.2828793" lon="13.6639063"><ele>828.0</ele><time>2026-05-03T08:33:42.988Z</time></trkpt><trkpt lat="42.2828394" lon="13.6640037"><ele>828.0</ele><time>2026-05-03T08:33:43.988Z</time></trkpt><trkpt lat="42.2827937" lon="13.664106"><ele>828.0</ele><time>2026-05-03T08:33:44.988Z</time></trkpt><trkpt lat="42.2827482" lon="13.6642086"><ele>828.0</ele><time>2026-05-03T08:33:45.988Z</time></trkpt><trkpt lat="42.2827036" lon="13.6643163"><ele>828.0</ele><time>2026-05-03T08:33:46.988Z</time></trkpt><trkpt lat="42.2826559" lon="13.6644224"><ele>828.0</ele><time>2026-05-03T08:33:47.988Z</time></trkpt><trkpt lat="42.2826115" lon="13.6645383"><ele>828.0</ele><time>2026-05-03T08:33:48.988Z</time></trkpt><trkpt lat="42.2825641" lon="13.6646487"><ele>828.0</ele><time>2026-05-03T08:33:49.988Z</time></trkpt><trkpt lat="42.2825143" lon="13.6647649"><ele>827.8</ele><time>2026-05-03T08:33:50.988Z</time></trkpt><trkpt lat="42.2824663" lon="13.6648834"><ele>827.5999999999999</ele><time>2026-05-03T08:33:51.988Z</time></trkpt><trkpt lat="42.2824174" lon="13.6650042"><ele>827.4000000000001</ele><time>2026-05-03T08:33:52.987Z</time></trkpt><trkpt lat="42.2823648" lon="13.6651214"><ele>827.2</ele><time>2026-05-03T08:33:53.988Z</time></trkpt><trkpt lat="42.2823083" lon="13.665239"><ele>827.0</ele><time>2026-05-03T08:33:54.987Z</time></trkpt><trkpt lat="42.2822533" lon="13.6653573"><ele>827.0</ele><time>2026-05-03T08:33:55.988Z</time></trkpt><trkpt lat="42.2821993" lon="13.6654817"><ele>827.0</ele><time>2026-05-03T08:33:56.988Z</time></trkpt><trkpt lat="42.2821496" lon="13.6656062"><ele>827.0</ele><time>2026-05-03T08:33:57.988Z</time></trkpt><trkpt lat="42.2820938" lon="13.6657334"><ele>827.0</ele><time>2026-05-03T08:33:58.988Z</time></trkpt><trkpt lat="42.2820443" lon="13.6658633"><ele>827.0</ele><time>2026-05-03T08:33:59.988Z</time></trkpt><trkpt lat="42.2819906" lon="13.6659939"><ele>830.0</ele><time>2026-05-03T08:34:00.988Z</time></trkpt><trkpt lat="42.2819361" lon="13.6661228"><ele>833.0</ele><time>2026-05-03T08:34:01.987Z</time></trkpt><trkpt lat="42.2818848" lon="13.6662468"><ele>836.0</ele><time>2026-05-03T08:34:02.987Z</time></trkpt><trkpt lat="42.2818346" lon="13.6663685"><ele>839.0</ele><time>2026-05-03T08:34:03.988Z</time></trkpt><trkpt lat="42.2817879" lon="13.6664884"><ele>842.0</ele><time>2026-05-03T08:34:04.988Z</time></trkpt><trkpt lat="42.2817364" lon="13.6666078"><ele>842.0</ele><time>2026-05-03T08:34:05.988Z</time></trkpt><trkpt lat="42.281679" lon="13.6667312"><ele>842.0</ele><time>2026-05-03T08:34:06.987Z</time></trkpt><trkpt lat="42.2816205" lon="13.6668532"><ele>842.0</ele><time>2026-05-03T08:34:07.987Z</time></trkpt><trkpt lat="42.2815629" lon="13.6669665"><ele>842.0</ele><time>2026-05-03T08:34:08.988Z</time></trkpt><trkpt lat="42.2815031" lon="13.6670857"><ele>842.0</ele><time>2026-05-03T08:34:09.987Z</time></trkpt><trkpt lat="42.281455" lon="13.6672016"><ele>842.2</ele><time>2026-05-03T08:34:10.988Z</time></trkpt><trkpt lat="42.2814048" lon="13.6673284"><ele>842.4000000000001</ele><time>2026-05-03T08:34:11.987Z</time></trkpt><trkpt lat="42.2813498" lon="13.6674485"><ele>842.5999999999999</ele><time>2026-05-03T08:34:12.988Z</time></trkpt><trkpt lat="42.2812976" lon="13.6675689"><ele>842.8</ele><time>2026-05-03T08:34:13.987Z</time></trkpt><trkpt lat="42.2812435" lon="13.6676825"><ele>843.0</ele><time>2026-05-03T08:34:14.988Z</time></trkpt><trkpt lat="42.2811909" lon="13.6677994"><ele>843.0</ele><time>2026-05-03T08:34:15.987Z</time></trkpt><trkpt lat="42.2811358" lon="13.6679187"><ele>843.0</ele><time>2026-05-03T08:34:16.988Z</time></trkpt><trkpt lat="42.2810829" lon="13.6680392"><ele>843.0</ele><time>2026-05-03T08:34:17.987Z</time></trkpt><trkpt lat="42.2810246" lon="13.6681476"><ele>843.0</ele><time>2026-05-03T08:34:18.988Z</time></trkpt><trkpt lat="42.280967" lon="13.6682584"><ele>843.0</ele><time>2026-05-03T08:34:19.987Z</time></trkpt><trkpt lat="42.2809085" lon="13.6683675"><ele>843.0</ele><time>2026-05-03T08:34:20.988Z</time></trkpt><trkpt lat="42.2808475" lon="13.6684776"><ele>843.0</ele><time>2026-05-03T08:34:21.988Z</time></trkpt><trkpt lat="42.280786" lon="13.6685818"><ele>843.0</ele><time>2026-05-03T08:34:22.988Z</time></trkpt><trkpt lat="42.2807255" lon="13.6686861"><ele>843.0</ele><time>2026-05-03T08:34:23.988Z</time></trkpt><trkpt lat="42.280665" lon="13.6687849"><ele>843.0</ele><time>2026-05-03T08:34:24.988Z</time></trkpt><trkpt lat="42.2805924" lon="13.6688861"><ele>841.4</ele><time>2026-05-03T08:34:25.988Z</time></trkpt><trkpt lat="42.2805217" lon="13.66898"><ele>839.8</ele><time>2026-05-03T08:34:26.988Z</time></trkpt><trkpt lat="42.2804579" lon="13.669078"><ele>838.2</ele><time>2026-05-03T08:34:27.988Z</time></trkpt><trkpt lat="42.2803941" lon="13.6691801"><ele>836.6</ele><time>2026-05-03T08:34:28.987Z</time></trkpt><trkpt lat="42.2803281" lon="13.6692864"><ele>835.0</ele><time>2026-05-03T08:34:29.988Z</time></trkpt><trkpt lat="42.2802593" lon="13.6693897"><ele>838.2</ele><time>2026-05-03T08:34:30.988Z</time></trkpt><trkpt lat="42.2801867" lon="13.6694925"><ele>841.4</ele><time>2026-05-03T08:34:31.987Z</time></trkpt><trkpt lat="42.2801219" lon="13.6695967"><ele>844.5999999999999</ele><time>2026-05-03T08:34:32.987Z</time></trkpt><trkpt lat="42.2800577" lon="13.6697014"><ele>847.8</ele><time>2026-05-03T08:34:33.988Z</time></trkpt><trkpt lat="42.2799915" lon="13.6697963"><ele>851.0</ele><time>2026-05-03T08:34:34.987Z</time></trkpt><trkpt lat="42.2799297" lon="13.6699048"><ele>851.0</ele><time>2026-05-03T08:34:35.987Z</time></trkpt><trkpt lat="42.2798547" lon="13.6700084"><ele>851.0</ele><time>2026-05-03T08:34:36.987Z</time></trkpt><trkpt lat="42.2797773" lon="13.6701154"><ele>851.0</ele><time>2026-05-03T08:34:37.988Z</time></trkpt><trkpt lat="42.2797064" lon="13.6702174"><ele>851.0</ele><time>2026-05-03T08:34:38.987Z</time></trkpt><trkpt lat="42.2796408" lon="13.6703182"><ele>851.0</ele><time>2026-05-03T08:34:39.988Z</time></trkpt><trkpt lat="42.2795778" lon="13.6704267"><ele>849.4</ele><time>2026-05-03T08:34:40.988Z</time></trkpt><trkpt lat="42.2795094" lon="13.6705137"><ele>847.8</ele><time>2026-05-03T08:34:41.988Z</time></trkpt><trkpt lat="42.2794479" lon="13.6706079"><ele>846.1999999999999</ele><time>2026-05-03T08:34:42.988Z</time></trkpt><trkpt lat="42.279386" lon="13.670718"><ele>844.5999999999999</ele><time>2026-05-03T08:34:43.988Z</time></trkpt><trkpt lat="42.2793168" lon="13.6708193"><ele>843.0</ele><time>2026-05-03T08:34:44.987Z</time></trkpt><trkpt lat="42.279244" lon="13.6709228"><ele>843.0</ele><time>2026-05-03T08:34:45.988Z</time></trkpt><trkpt lat="42.2791738" lon="13.6710252"><ele>843.0</ele><time>2026-05-03T08:34:46.988Z</time></trkpt><trkpt lat="42.2790967" lon="13.6711267"><ele>843.0</ele><time>2026-05-03T08:34:47.988Z</time></trkpt><trkpt lat="42.2790232" lon="13.671233"><ele>843.0</ele><time>2026-05-03T08:34:48.987Z</time></trkpt><trkpt lat="42.278945" lon="13.6713392"><ele>843.0</ele><time>2026-05-03T08:34:49.988Z</time></trkpt><trkpt lat="42.2788717" lon="13.6714544"><ele>841.8</ele><time>2026-05-03T08:34:50.987Z</time></trkpt><trkpt lat="42.2787968" lon="13.6715635"><ele>840.5999999999999</ele><time>2026-05-03T08:34:51.987Z</time></trkpt><trkpt lat="42.2787229" lon="13.6716713"><ele>839.4000000000001</ele><time>2026-05-03T08:34:52.988Z</time></trkpt><trkpt lat="42.2786486" lon="13.6717824"><ele>838.2</ele><time>2026-05-03T08:34:53.987Z</time></trkpt><trkpt lat="42.2785748" lon="13.6718881"><ele>837.0</ele><time>2026-05-03T08:34:54.988Z</time></trkpt><trkpt lat="42.2785048" lon="13.6719988"><ele>840.0</ele><time>2026-05-03T08:34:55.987Z</time></trkpt><trkpt lat="42.2784342" lon="13.6721141"><ele>843.0</ele><time>2026-05-03T08:34:56.988Z</time></trkpt><trkpt lat="42.278363" lon="13.6722323"><ele>846.0</ele><time>2026-05-03T08:34:57.987Z</time></trkpt><trkpt lat="42.2782906" lon="13.6723483"><ele>849.0</ele><time>2026-05-03T08:34:58.987Z</time></trkpt><trkpt lat="42.2782155" lon="13.6724624"><ele>852.0</ele><time>2026-05-03T08:34:59.988Z</time></trkpt><trkpt lat="42.278137" lon="13.6725729"><ele>849.8</ele><time>2026-05-03T08:35:00.988Z</time></trkpt><trkpt lat="42.2780674" lon="13.6726887"><ele>847.6</ele><time>2026-05-03T08:35:01.987Z</time></trkpt><trkpt lat="42.277987" lon="13.6727974"><ele>845.4</ele><time>2026-05-03T08:35:02.988Z</time></trkpt><trkpt lat="42.2779162" lon="13.6729134"><ele>843.1999999999999</ele><time>2026-05-03T08:35:03.988Z</time></trkpt><trkpt lat="42.2778404" lon="13.6730217"><ele>841.0</ele><time>2026-05-03T08:35:04.988Z</time></trkpt><trkpt lat="42.2777614" lon="13.6731361"><ele>841.0</ele><time>2026-05-03T08:35:05.987Z</time></trkpt><trkpt lat="42.2776818" lon="13.67325"><ele>841.0</ele><time>2026-05-03T08:35:06.988Z</time></trkpt><trkpt lat="42.2776039" lon="13.6733616"><ele>841.0</ele><time>2026-05-03T08:35:07.988Z</time></trkpt><trkpt lat="42.2775238" lon="13.6734701"><ele>841.0</ele><time>2026-05-03T08:35:08.988Z</time></trkpt><trkpt lat="42.2774447" lon="13.6735725"><ele>840.5999999999999</ele><time>2026-05-03T08:35:09.988Z</time></trkpt><trkpt lat="42.2773706" lon="13.6736819"><ele>840.2</ele><time>2026-05-03T08:35:10.988Z</time></trkpt><trkpt lat="42.2772954" lon="13.6737935"><ele>839.8</ele><time>2026-05-03T08:35:11.988Z</time></trkpt><trkpt lat="42.2772214" lon="13.6738997"><ele>839.4000000000001</ele><time>2026-05-03T08:35:12.988Z</time></trkpt><trkpt lat="42.2771492" lon="13.6740131"><ele>839.0</ele><time>2026-05-03T08:35:13.987Z</time></trkpt><trkpt lat="42.2770823" lon="13.6741156"><ele>839.0</ele><time>2026-05-03T08:35:14.988Z</time></trkpt><trkpt lat="42.2770135" lon="13.6742251"><ele>839.0</ele><time>2026-05-03T08:35:15.988Z</time></trkpt><trkpt lat="42.2769398" lon="13.6743338"><ele>839.0</ele><time>2026-05-03T08:35:16.987Z</time></trkpt><trkpt lat="42.2768625" lon="13.6744484"><ele>839.0</ele><time>2026-05-03T08:35:17.988Z</time></trkpt><trkpt lat="42.2767899" lon="13.6745578"><ele>839.0</ele><time>2026-05-03T08:35:18.988Z</time></trkpt><trkpt lat="42.2767175" lon="13.6746667"><ele>838.0</ele><time>2026-05-03T08:35:19.988Z</time></trkpt><trkpt lat="42.2766426" lon="13.6747676"><ele>837.0</ele><time>2026-05-03T08:35:20.987Z</time></trkpt><trkpt lat="42.2765693" lon="13.674871"><ele>836.0</ele><time>2026-05-03T08:35:21.988Z</time></trkpt><trkpt lat="42.2764949" lon="13.6749725"><ele>835.0</ele><time>2026-05-03T08:35:22.988Z</time></trkpt><trkpt lat="42.2764162" lon="13.6750765"><ele>834.0</ele><time>2026-05-03T08:35:23.987Z</time></trkpt><trkpt lat="42.2763388" lon="13.6751792"><ele>837.5</ele><time>2026-05-03T08:35:24.988Z</time></trkpt><trkpt lat="42.2762582" lon="13.6752848"><ele>841.0</ele><time>2026-05-03T08:35:25.988Z</time></trkpt><trkpt lat="42.2761807" lon="13.6753934"><ele>844.5</ele><time>2026-05-03T08:35:26.987Z</time></trkpt><trkpt lat="42.2760978" lon="13.6755031"><ele>848.0</ele><time>2026-05-03T08:35:27.988Z</time></trkpt><trkpt lat="42.2760162" lon="13.6756125"><ele>848.0</ele><time>2026-05-03T08:35:28.987Z</time></trkpt><trkpt lat="42.2759324" lon="13.6757183"><ele>848.0</ele><time>2026-05-03T08:35:29.988Z</time></trkpt><trkpt lat="42.275852" lon="13.6758298"><ele>848.0</ele><time>2026-05-03T08:35:30.988Z</time></trkpt><trkpt lat="42.2757691" lon="13.6759403"><ele>848.0</ele><time>2026-05-03T08:35:31.988Z</time></trkpt><trkpt lat="42.2756848" lon="13.6760507"><ele>847.5999999999999</ele><time>2026-05-03T08:35:32.987Z</time></trkpt><trkpt lat="42.2756052" lon="13.676156"><ele>847.1999999999999</ele><time>2026-05-03T08:35:33.988Z</time></trkpt><trkpt lat="42.275528" lon="13.6762616"><ele>846.8</ele><time>2026-05-03T08:35:34.987Z</time></trkpt><trkpt lat="42.2754553" lon="13.676359"><ele>846.4</ele><time>2026-05-03T08:35:35.987Z</time></trkpt><trkpt lat="42.2753853" lon="13.6764509"><ele>846.0</ele><time>2026-05-03T08:35:36.988Z</time></trkpt><trkpt lat="42.2753189" lon="13.6765406"><ele>846.0</ele><time>2026-05-03T08:35:37.987Z</time></trkpt><trkpt lat="42.2752484" lon="13.676632"><ele>846.0</ele><time>2026-05-03T08:35:38.988Z</time></trkpt><trkpt lat="42.2751765" lon="13.6767166"><ele>846.0</ele><time>2026-05-03T08:35:39.988Z</time></trkpt><trkpt lat="42.2751102" lon="13.6768103"><ele>846.0</ele><time>2026-05-03T08:35:40.988Z</time></trkpt><trkpt lat="42.2750405" lon="13.6769106"><ele>846.0</ele><time>2026-05-03T08:35:41.988Z</time></trkpt><trkpt lat="42.2749705" lon="13.6770089"><ele>846.5</ele><time>2026-05-03T08:35:42.988Z</time></trkpt><trkpt lat="42.2749026" lon="13.6771051"><ele>847.0</ele><time>2026-05-03T08:35:43.988Z</time></trkpt><trkpt lat="42.2748408" lon="13.6772008"><ele>847.5</ele><time>2026-05-03T08:35:44.988Z</time></trkpt><trkpt lat="42.274786" lon="13.6772865"><ele>848.0</ele><time>2026-05-03T08:35:45.987Z</time></trkpt><trkpt lat="42.2747292" lon="13.6773697"><ele>848.5</ele><time>2026-05-03T08:35:46.987Z</time></trkpt><trkpt lat="42.2746767" lon="13.677448"><ele>849.0</ele><time>2026-05-03T08:35:47.987Z</time></trkpt><trkpt lat="42.2746316" lon="13.6775135"><ele>849.0000000000001</ele><time>2026-05-03T08:35:48.987Z</time></trkpt><trkpt lat="42.2745826" lon="13.6775729"><ele>849.0</ele><time>2026-05-03T08:35:49.987Z</time></trkpt><trkpt lat="42.274535" lon="13.6776342"><ele>849.0</ele><time>2026-05-03T08:35:50.988Z</time></trkpt><trkpt lat="42.2744832" lon="13.6777009"><ele>849.0</ele><time>2026-05-03T08:35:51.987Z</time></trkpt><trkpt lat="42.274426" lon="13.6777713"><ele>849.0</ele><time>2026-05-03T08:35:52.987Z</time></trkpt><trkpt lat="42.2743753" lon="13.6778435"><ele>849.0000000000001</ele><time>2026-05-03T08:35:53.988Z</time></trkpt><trkpt lat="42.2743212" lon="13.6779085"><ele>849.0</ele><time>2026-05-03T08:35:54.988Z</time></trkpt><trkpt lat="42.2742585" lon="13.6779753"><ele>852.1666666666666</ele><time>2026-05-03T08:35:55.988Z</time></trkpt><trkpt lat="42.2742063" lon="13.6780478"><ele>855.3333333333333</ele><time>2026-05-03T08:35:56.988Z</time></trkpt><trkpt lat="42.2741449" lon="13.6781203"><ele>858.5</ele><time>2026-05-03T08:35:57.987Z</time></trkpt><trkpt lat="42.2741065" lon="13.6782018"><ele>861.6666666666666</ele><time>2026-05-03T08:35:58.988Z</time></trkpt><trkpt lat="42.2740543" lon="13.6782626"><ele>864.8333333333333</ele><time>2026-05-03T08:35:59.988Z</time></trkpt><trkpt lat="42.274004" lon="13.6783251"><ele>868.0</ele><time>2026-05-03T08:36:00.987Z</time></trkpt><trkpt lat="42.2739402" lon="13.6784118"><ele>867.4</ele><time>2026-05-03T08:36:01.988Z</time></trkpt><trkpt lat="42.2738765" lon="13.678498"><ele>866.8</ele><time>2026-05-03T08:36:02.987Z</time></trkpt><trkpt lat="42.2738149" lon="13.6785835"><ele>866.2</ele><time>2026-05-03T08:36:03.988Z</time></trkpt><trkpt lat="42.273754" lon="13.6786797"><ele>865.6</ele><time>2026-05-03T08:36:04.987Z</time></trkpt><trkpt lat="42.2736869" lon="13.6787768"><ele>865.0</ele><time>2026-05-03T08:36:05.987Z</time></trkpt><trkpt lat="42.2736177" lon="13.6788751"><ele>865.0</ele><time>2026-05-03T08:36:06.987Z</time></trkpt><trkpt lat="42.2735524" lon="13.6789757"><ele>865.0</ele><time>2026-05-03T08:36:07.988Z</time></trkpt><trkpt lat="42.2734909" lon="13.6790732"><ele>865.0</ele><time>2026-05-03T08:36:08.988Z</time></trkpt><trkpt lat="42.2734313" lon="13.6791819"><ele>865.0</ele><time>2026-05-03T08:36:09.987Z</time></trkpt><trkpt lat="42.2733692" lon="13.6792924"><ele>865.0</ele><time>2026-05-03T08:36:10.987Z</time></trkpt><trkpt lat="42.2733079" lon="13.6794036"><ele>867.4</ele><time>2026-05-03T08:36:11.987Z</time></trkpt><trkpt lat="42.2732548" lon="13.6795215"><ele>869.8</ele><time>2026-05-03T08:36:12.988Z</time></trkpt><trkpt lat="42.2731982" lon="13.6796427"><ele>872.2</ele><time>2026-05-03T08:36:13.987Z</time></trkpt><trkpt lat="42.2731439" lon="13.6797755"><ele>874.6</ele><time>2026-05-03T08:36:14.988Z</time></trkpt><trkpt lat="42.2730934" lon="13.6799066"><ele>877.0</ele><time>2026-05-03T08:36:15.987Z</time></trkpt><trkpt lat="42.2730423" lon="13.6800422"><ele>874.2</ele><time>2026-05-03T08:36:16.987Z</time></trkpt><trkpt lat="42.2729938" lon="13.6801602"><ele>871.4000000000001</ele><time>2026-05-03T08:36:17.988Z</time></trkpt><trkpt lat="42.2729442" lon="13.6802863"><ele>868.5999999999999</ele><time>2026-05-03T08:36:18.988Z</time></trkpt><trkpt lat="42.2729012" lon="13.6804173"><ele>865.8</ele><time>2026-05-03T08:36:19.987Z</time></trkpt><trkpt lat="42.2728487" lon="13.680544"><ele>863.0</ele><time>2026-05-03T08:36:20.988Z</time></trkpt><trkpt lat="42.2728066" lon="13.6806615"><ele>863.0</ele><time>2026-05-03T08:36:21.987Z</time></trkpt><trkpt lat="42.2727542" lon="13.680795"><ele>863.0</ele><time>2026-05-03T08:36:22.988Z</time></trkpt><trkpt lat="42.2727021" lon="13.6809333"><ele>863.0</ele><time>2026-05-03T08:36:23.988Z</time></trkpt><trkpt lat="42.2726443" lon="13.6810699"><ele>863.0</ele><time>2026-05-03T08:36:24.987Z</time></trkpt><trkpt lat="42.2725846" lon="13.6812165"><ele>865.75</ele><time>2026-05-03T08:36:25.987Z</time></trkpt><trkpt lat="42.2725248" lon="13.6813695"><ele>868.5</ele><time>2026-05-03T08:36:26.988Z</time></trkpt><trkpt lat="42.272468" lon="13.6815247"><ele>871.25</ele><time>2026-05-03T08:36:27.987Z</time></trkpt><trkpt lat="42.2724069" lon="13.6816825"><ele>874.0</ele><time>2026-05-03T08:36:28.988Z</time></trkpt><trkpt lat="42.2723413" lon="13.6818437"><ele>871.25</ele><time>2026-05-03T08:36:29.987Z</time></trkpt><trkpt lat="42.2722795" lon="13.6820045"><ele>868.5</ele><time>2026-05-03T08:36:30.988Z</time></trkpt><trkpt lat="42.2722192" lon="13.6821667"><ele>865.75</ele><time>2026-05-03T08:36:31.988Z</time></trkpt><trkpt lat="42.2721589" lon="13.6823211"><ele>863.0</ele><time>2026-05-03T08:36:32.988Z</time></trkpt><trkpt lat="42.272103" lon="13.6824584"><ele>863.0</ele><time>2026-05-03T08:36:33.988Z</time></trkpt><trkpt lat="42.2720479" lon="13.6825903"><ele>863.0</ele><time>2026-05-03T08:36:34.987Z</time></trkpt><trkpt lat="42.2719947" lon="13.6827223"><ele>863.0</ele><time>2026-05-03T08:36:35.988Z</time></trkpt><trkpt lat="42.2719425" lon="13.6828528"><ele>863.0</ele><time>2026-05-03T08:36:36.988Z</time></trkpt><trkpt lat="42.2718966" lon="13.6829772"><ele>863.0</ele><time>2026-05-03T08:36:37.988Z</time></trkpt><trkpt lat="42.2718558" lon="13.6830919"><ele>864.5000000000001</ele><time>2026-05-03T08:36:38.987Z</time></trkpt><trkpt lat="42.2718193" lon="13.6832059"><ele>866.0</ele><time>2026-05-03T08:36:39.988Z</time></trkpt><trkpt lat="42.2717867" lon="13.6833185"><ele>867.5</ele><time>2026-05-03T08:36:40.987Z</time></trkpt><trkpt lat="42.2717556" lon="13.6834286"><ele>869.0</ele><time>2026-05-03T08:36:41.988Z</time></trkpt><trkpt lat="42.2717234" lon="13.6835337"><ele>870.5000000000001</ele><time>2026-05-03T08:36:42.988Z</time></trkpt><trkpt lat="42.2716955" lon="13.6836278"><ele>872.0</ele><time>2026-05-03T08:36:43.987Z</time></trkpt><trkpt lat="42.2716742" lon="13.6837081"><ele>871.3333333333334</ele><time>2026-05-03T08:36:44.988Z</time></trkpt><trkpt lat="42.2716289" lon="13.6838329"><ele>870.6666666666667</ele><time>2026-05-03T08:36:46.988Z</time></trkpt><trkpt lat="42.2716042" lon="13.6839207"><ele>870.0</ele><time>2026-05-03T08:36:48.988Z</time></trkpt><trkpt lat="42.2715796" lon="13.6840111"><ele>869.3333333333333</ele><time>2026-05-03T08:36:50.988Z</time></trkpt><trkpt lat="42.2715296" lon="13.684119"><ele>868.6666666666666</ele><time>2026-05-03T08:36:52.988Z</time></trkpt><trkpt lat="42.2714769" lon="13.684216"><ele>868.0</ele><time>2026-05-03T08:36:54.988Z</time></trkpt><trkpt lat="42.2714083" lon="13.6843289"><ele>867.9999999999999</ele><time>2026-05-03T08:36:56.987Z</time></trkpt><trkpt lat="42.2713694" lon="13.684396"><ele>868.0</ele><time>2026-05-03T08:36:57.988Z</time></trkpt><trkpt lat="42.2713305" lon="13.6844629"><ele>868.0</ele><time>2026-05-03T08:36:58.988Z</time></trkpt><trkpt lat="42.2712515" lon="13.6845948"><ele>868.0</ele><time>2026-05-03T08:37:00.988Z</time></trkpt><trkpt lat="42.2711936" lon="13.6847093"><ele>867.9999999999999</ele><time>2026-05-03T08:37:02.987Z</time></trkpt><trkpt lat="42.2711502" lon="13.6847831"><ele>868.0</ele><time>2026-05-03T08:37:04.988Z</time></trkpt><trkpt lat="42.2710912" lon="13.6848785"><ele>870.9999999999999</ele><time>2026-05-03T08:37:06.987Z</time></trkpt><trkpt lat="42.2710382" lon="13.6849728"><ele>874.0</ele><time>2026-05-03T08:37:08.987Z</time></trkpt><trkpt lat="42.2709835" lon="13.6850572"><ele>877.0</ele><time>2026-05-03T08:37:10.988Z</time></trkpt><trkpt lat="42.2709399" lon="13.685124"><ele>880.0</ele><time>2026-05-03T08:37:14.988Z</time></trkpt><trkpt lat="42.2708978" lon="13.6851991"><ele>882.9999999999999</ele><time>2026-05-03T08:37:16.988Z</time></trkpt><trkpt lat="42.2708539" lon="13.6853"><ele>886.0</ele><time>2026-05-03T08:37:18.987Z</time></trkpt><trkpt lat="42.2708168" lon="13.6853887"><ele>888.8333333333333</ele><time>2026-05-03T08:37:20.988Z</time></trkpt><trkpt lat="42.2707674" lon="13.6854643"><ele>891.6666666666666</ele><time>2026-05-03T08:37:24.988Z</time></trkpt><trkpt lat="42.2707255" lon="13.6855733"><ele>894.5</ele><time>2026-05-03T08:37:27.987Z</time></trkpt><trkpt lat="42.2707067" lon="13.6856747"><ele>897.3333333333333</ele><time>2026-05-03T08:37:29.988Z</time></trkpt><trkpt lat="42.270676" lon="13.6857705"><ele>900.1666666666666</ele><time>2026-05-03T08:37:31.988Z</time></trkpt><trkpt lat="42.270649" lon="13.6858679"><ele>903.0</ele><time>2026-05-03T08:37:33.988Z</time></trkpt><trkpt lat="42.2706289" lon="13.6860265"><ele>905.3333333333334</ele><time>2026-05-03T08:37:35.988Z</time></trkpt><trkpt lat="42.2706162" lon="13.6861225"><ele>907.6666666666667</ele><time>2026-05-03T08:37:36.988Z</time></trkpt><trkpt lat="42.2706204" lon="13.6862093"><ele>910.0</ele><time>2026-05-03T08:37:37.988Z</time></trkpt><trkpt lat="42.2706454" lon="13.6863594"><ele>912.3333333333334</ele><time>2026-05-03T08:37:39.988Z</time></trkpt><trkpt lat="42.2706622" lon="13.6865258"><ele>914.6666666666667</ele><time>2026-05-03T08:37:41.988Z</time></trkpt><trkpt lat="42.2706794" lon="13.686609"><ele>917.0</ele><time>2026-05-03T08:37:42.987Z</time></trkpt><trkpt lat="42.2707214" lon="13.686753"><ele>917.0000000000001</ele><time>2026-05-03T08:37:44.987Z</time></trkpt><trkpt lat="42.270764" lon="13.6868953"><ele>917.0</ele><time>2026-05-03T08:37:46.987Z</time></trkpt><trkpt lat="42.2707759" lon="13.6869827"><ele>917.0</ele><time>2026-05-03T08:37:47.987Z</time></trkpt><trkpt lat="42.2707841" lon="13.6870721"><ele>917.0</ele><time>2026-05-03T08:37:48.987Z</time></trkpt><trkpt lat="42.2707888" lon="13.6871596"><ele>917.0000000000001</ele><time>2026-05-03T08:37:49.988Z</time></trkpt><trkpt lat="42.2707951" lon="13.6873202"><ele>917.0</ele><time>2026-05-03T08:37:51.988Z</time></trkpt><trkpt lat="42.2707867" lon="13.6874927"><ele>917.6</ele><time>2026-05-03T08:37:53.988Z</time></trkpt><trkpt lat="42.2707797" lon="13.6875847"><ele>918.2</ele><time>2026-05-03T08:37:54.987Z</time></trkpt><trkpt lat="42.2707592" lon="13.6877472"><ele>918.8</ele><time>2026-05-03T08:37:56.988Z</time></trkpt><trkpt lat="42.2707402" lon="13.6879032"><ele>919.4</ele><time>2026-05-03T08:37:58.987Z</time></trkpt><trkpt lat="42.2707548" lon="13.6880559"><ele>920.0</ele><time>2026-05-03T08:38:00.988Z</time></trkpt><trkpt lat="42.2708043" lon="13.6881512"><ele>920.0000000000001</ele><time>2026-05-03T08:38:02.987Z</time></trkpt><trkpt lat="42.2708771" lon="13.6881926"><ele>920.0</ele><time>2026-05-03T08:38:04.987Z</time></trkpt><trkpt lat="42.2709559" lon="13.6881372"><ele>920.0</ele><time>2026-05-03T08:38:06.987Z</time></trkpt><trkpt lat="42.2710056" lon="13.6880313"><ele>920.0</ele><time>2026-05-03T08:38:08.988Z</time></trkpt><trkpt lat="42.2710366" lon="13.6878847"><ele>920.0000000000001</ele><time>2026-05-03T08:38:10.988Z</time></trkpt><trkpt lat="42.2710535" lon="13.6878004"><ele>920.0</ele><time>2026-05-03T08:38:11.988Z</time></trkpt><trkpt lat="42.2710703" lon="13.6877133"><ele>920.8</ele><time>2026-05-03T08:38:12.988Z</time></trkpt><trkpt lat="42.2710995" lon="13.687569"><ele>921.6</ele><time>2026-05-03T08:38:14.988Z</time></trkpt><trkpt lat="42.2711375" lon="13.6874062"><ele>922.4000000000001</ele><time>2026-05-03T08:38:16.987Z</time></trkpt><trkpt lat="42.271158" lon="13.6873043"><ele>923.2</ele><time>2026-05-03T08:38:17.988Z</time></trkpt><trkpt lat="42.2711787" lon="13.6872035"><ele>924.0</ele><time>2026-05-03T08:38:18.987Z</time></trkpt><trkpt lat="42.2712012" lon="13.6871131"><ele>924.0</ele><time>2026-05-03T08:38:19.988Z</time></trkpt><trkpt lat="42.271254" lon="13.6869701"><ele>924.0000000000001</ele><time>2026-05-03T08:38:21.988Z</time></trkpt><trkpt lat="42.27133" lon="13.686855"><ele>924.0000000000001</ele><time>2026-05-03T08:38:23.987Z</time></trkpt><trkpt lat="42.2714043" lon="13.6868265"><ele>924.0</ele><time>2026-05-03T08:38:25.987Z</time></trkpt><trkpt lat="42.2714791" lon="13.6868977"><ele>924.0</ele><time>2026-05-03T08:38:27.988Z</time></trkpt><trkpt lat="42.2714945" lon="13.6870214"><ele>924.0</ele><time>2026-05-03T08:38:29.988Z</time></trkpt><trkpt lat="42.271467" lon="13.6871047"><ele>924.0000000000001</ele><time>2026-05-03T08:38:30.988Z</time></trkpt><trkpt lat="42.2714376" lon="13.6871859"><ele>924.0000000000001</ele><time>2026-05-03T08:38:31.987Z</time></trkpt><trkpt lat="42.2714063" lon="13.6873354"><ele>924.0</ele><time>2026-05-03T08:38:33.988Z</time></trkpt><trkpt lat="42.2714029" lon="13.6874804"><ele>924.0</ele><time>2026-05-03T08:38:35.988Z</time></trkpt><trkpt lat="42.2714056" lon="13.6876306"><ele>924.0</ele><time>2026-05-03T08:38:37.988Z</time></trkpt><trkpt lat="42.2714203" lon="13.6877207"><ele>924.0</ele><time>2026-05-03T08:38:38.987Z</time></trkpt><trkpt lat="42.2714338" lon="13.6878144"><ele>924.0</ele><time>2026-05-03T08:38:39.988Z</time></trkpt><trkpt lat="42.2714519" lon="13.687905"><ele>924.0</ele><time>2026-05-03T08:38:40.987Z</time></trkpt><trkpt lat="42.2714759" lon="13.6879906"><ele>924.0</ele><time>2026-05-03T08:38:41.988Z</time></trkpt><trkpt lat="42.2715076" lon="13.6880657"><ele>924.0</ele><time>2026-05-03T08:38:42.987Z</time></trkpt><trkpt lat="42.2715901" lon="13.6881838"><ele>927.0</ele><time>2026-05-03T08:38:44.988Z</time></trkpt><trkpt lat="42.2717031" lon="13.6882762"><ele>930.0</ele><time>2026-05-03T08:38:46.987Z</time></trkpt><trkpt lat="42.2717744" lon="13.6883058"><ele>933.0</ele><time>2026-05-03T08:38:47.988Z</time></trkpt><trkpt lat="42.2718456" lon="13.6883302"><ele>936.0</ele><time>2026-05-03T08:38:48.987Z</time></trkpt><trkpt lat="42.271915" lon="13.688361"><ele>939.0</ele><time>2026-05-03T08:38:49.987Z</time></trkpt><trkpt lat="42.2719802" lon="13.6883973"><ele>942.0</ele><time>2026-05-03T08:38:50.988Z</time></trkpt><trkpt lat="42.2720565" lon="13.6884313"><ele>942.0</ele><time>2026-05-03T08:38:51.987Z</time></trkpt><trkpt lat="42.272138" lon="13.6884692"><ele>942.0</ele><time>2026-05-03T08:38:52.988Z</time></trkpt><trkpt lat="42.2722209" lon="13.688506"><ele>942.0</ele><time>2026-05-03T08:38:53.988Z</time></trkpt><trkpt lat="42.2723051" lon="13.6885464"><ele>942.0</ele><time>2026-05-03T08:38:54.988Z</time></trkpt><trkpt lat="42.2723901" lon="13.6885917"><ele>942.0</ele><time>2026-05-03T08:38:55.988Z</time></trkpt><trkpt lat="42.2724758" lon="13.68865"><ele>940.8</ele><time>2026-05-03T08:38:56.987Z</time></trkpt><trkpt lat="42.2725639" lon="13.6887095"><ele>939.6</ele><time>2026-05-03T08:38:57.988Z</time></trkpt><trkpt lat="42.2726475" lon="13.6887726"><ele>938.3999999999999</ele><time>2026-05-03T08:38:58.988Z</time></trkpt><trkpt lat="42.2727349" lon="13.6888409"><ele>937.1999999999999</ele><time>2026-05-03T08:38:59.987Z</time></trkpt><trkpt lat="42.2728213" lon="13.6889144"><ele>936.0</ele><time>2026-05-03T08:39:00.988Z</time></trkpt><trkpt lat="42.2729086" lon="13.6889899"><ele>936.0</ele><time>2026-05-03T08:39:01.988Z</time></trkpt><trkpt lat="42.2729842" lon="13.6890691"><ele>935.9999999999999</ele><time>2026-05-03T08:39:02.987Z</time></trkpt><trkpt lat="42.2730655" lon="13.6891446"><ele>935.9999999999999</ele><time>2026-05-03T08:39:03.988Z</time></trkpt><trkpt lat="42.273141" lon="13.6892276"><ele>936.0</ele><time>2026-05-03T08:39:04.988Z</time></trkpt><trkpt lat="42.2732097" lon="13.6893047"><ele>936.0</ele><time>2026-05-03T08:39:05.987Z</time></trkpt><trkpt lat="42.2732774" lon="13.6893806"><ele>936.1666666666666</ele><time>2026-05-03T08:39:06.988Z</time></trkpt><trkpt lat="42.2733475" lon="13.6894427"><ele>936.3333333333333</ele><time>2026-05-03T08:39:07.987Z</time></trkpt><trkpt lat="42.2734245" lon="13.6894873"><ele>936.5</ele><time>2026-05-03T08:39:08.987Z</time></trkpt><trkpt lat="42.2735103" lon="13.6895111"><ele>936.6666666666666</ele><time>2026-05-03T08:39:09.987Z</time></trkpt><trkpt lat="42.2735964" lon="13.6895193"><ele>936.8333333333333</ele><time>2026-05-03T08:39:10.988Z</time></trkpt><trkpt lat="42.2736863" lon="13.6895134"><ele>937.0</ele><time>2026-05-03T08:39:11.988Z</time></trkpt><trkpt lat="42.2737674" lon="13.6894951"><ele>936.9999999999999</ele><time>2026-05-03T08:39:12.988Z</time></trkpt><trkpt lat="42.2738435" lon="13.6894591"><ele>937.0</ele><time>2026-05-03T08:39:13.988Z</time></trkpt><trkpt lat="42.2739202" lon="13.6894093"><ele>937.0</ele><time>2026-05-03T08:39:14.988Z</time></trkpt><trkpt lat="42.2739911" lon="13.6893474"><ele>937.0</ele><time>2026-05-03T08:39:15.988Z</time></trkpt><trkpt lat="42.274065" lon="13.689282"><ele>936.9999999999999</ele><time>2026-05-03T08:39:16.988Z</time></trkpt><trkpt lat="42.2741304" lon="13.6892056"><ele>937.0</ele><time>2026-05-03T08:39:17.987Z</time></trkpt><trkpt lat="42.2741926" lon="13.689134"><ele>940.6666666666666</ele><time>2026-05-03T08:39:18.988Z</time></trkpt><trkpt lat="42.2742611" lon="13.689062"><ele>944.3333333333333</ele><time>2026-05-03T08:39:19.988Z</time></trkpt><trkpt lat="42.2743269" lon="13.6890054"><ele>948.0</ele><time>2026-05-03T08:39:20.988Z</time></trkpt><trkpt lat="42.274399" lon="13.6889486"><ele>951.6666666666667</ele><time>2026-05-03T08:39:21.988Z</time></trkpt><trkpt lat="42.274462" lon="13.6889084"><ele>955.3333333333334</ele><time>2026-05-03T08:39:22.987Z</time></trkpt><trkpt lat="42.2745339" lon="13.6888682"><ele>959.0</ele><time>2026-05-03T08:39:23.987Z</time></trkpt><trkpt lat="42.2746012" lon="13.6888282"><ele>959.0000000000001</ele><time>2026-05-03T08:39:24.987Z</time></trkpt><trkpt lat="42.2746738" lon="13.6887892"><ele>959.0</ele><time>2026-05-03T08:39:25.988Z</time></trkpt><trkpt lat="42.2747443" lon="13.6887513"><ele>959.0</ele><time>2026-05-03T08:39:26.987Z</time></trkpt><trkpt lat="42.2748184" lon="13.6887199"><ele>959.0</ele><time>2026-05-03T08:39:27.988Z</time></trkpt><trkpt lat="42.2748961" lon="13.688681"><ele>959.0000000000001</ele><time>2026-05-03T08:39:28.987Z</time></trkpt><trkpt lat="42.2749697" lon="13.6886454"><ele>959.0</ele><time>2026-05-03T08:39:29.987Z</time></trkpt><trkpt lat="42.2750461" lon="13.6886021"><ele>961.1666666666667</ele><time>2026-05-03T08:39:30.988Z</time></trkpt><trkpt lat="42.2751215" lon="13.6885554"><ele>963.3333333333334</ele><time>2026-05-03T08:39:31.987Z</time></trkpt><trkpt lat="42.2752052" lon="13.6885082"><ele>965.5</ele><time>2026-05-03T08:39:32.988Z</time></trkpt><trkpt lat="42.2752916" lon="13.6884628"><ele>967.6666666666667</ele><time>2026-05-03T08:39:33.988Z</time></trkpt><trkpt lat="42.2753745" lon="13.688418"><ele>969.8333333333334</ele><time>2026-05-03T08:39:34.988Z</time></trkpt><trkpt lat="42.2754571" lon="13.6883809"><ele>972.0</ele><time>2026-05-03T08:39:35.987Z</time></trkpt><trkpt lat="42.2755404" lon="13.6883482"><ele>970.3333333333334</ele><time>2026-05-03T08:39:36.987Z</time></trkpt><trkpt lat="42.2756268" lon="13.6883114"><ele>968.6666666666667</ele><time>2026-05-03T08:39:37.987Z</time></trkpt><trkpt lat="42.2757094" lon="13.6882781"><ele>967.0</ele><time>2026-05-03T08:39:38.988Z</time></trkpt><trkpt lat="42.2757874" lon="13.6882356"><ele>965.3333333333334</ele><time>2026-05-03T08:39:39.988Z</time></trkpt><trkpt lat="42.2758571" lon="13.6881877"><ele>963.6666666666667</ele><time>2026-05-03T08:39:40.988Z</time></trkpt><trkpt lat="42.2759337" lon="13.6881309"><ele>962.0</ele><time>2026-05-03T08:39:41.987Z</time></trkpt><trkpt lat="42.2760058" lon="13.6880729"><ele>962.0</ele><time>2026-05-03T08:39:42.987Z</time></trkpt><trkpt lat="42.2760798" lon="13.688012"><ele>962.0</ele><time>2026-05-03T08:39:43.987Z</time></trkpt><trkpt lat="42.2761569" lon="13.6879544"><ele>962.0</ele><time>2026-05-03T08:39:44.988Z</time></trkpt><trkpt lat="42.2762325" lon="13.6878971"><ele>962.0</ele><time>2026-05-03T08:39:45.988Z</time></trkpt><trkpt lat="42.2763157" lon="13.6878328"><ele>962.0</ele><time>2026-05-03T08:39:46.987Z</time></trkpt><trkpt lat="42.2763995" lon="13.6877687"><ele>963.4000000000001</ele><time>2026-05-03T08:39:47.987Z</time></trkpt><trkpt lat="42.2764787" lon="13.6877041"><ele>964.8000000000001</ele><time>2026-05-03T08:39:48.988Z</time></trkpt><trkpt lat="42.2765602" lon="13.6876432"><ele>966.2</ele><time>2026-05-03T08:39:49.987Z</time></trkpt><trkpt lat="42.2766454" lon="13.6875827"><ele>967.6</ele><time>2026-05-03T08:39:50.988Z</time></trkpt><trkpt lat="42.2767292" lon="13.6875206"><ele>969.0</ele><time>2026-05-03T08:39:51.988Z</time></trkpt><trkpt lat="42.2768125" lon="13.6874574"><ele>969.0</ele><time>2026-05-03T08:39:52.987Z</time></trkpt><trkpt lat="42.2768961" lon="13.6874022"><ele>969.0</ele><time>2026-05-03T08:39:53.988Z</time></trkpt><trkpt lat="42.2769806" lon="13.6873495"><ele>969.0</ele><time>2026-05-03T08:39:54.987Z</time></trkpt><trkpt lat="42.2770628" lon="13.6872988"><ele>969.0</ele><time>2026-05-03T08:39:55.988Z</time></trkpt><trkpt lat="42.2771394" lon="13.6872514"><ele>969.0</ele><time>2026-05-03T08:39:56.987Z</time></trkpt><trkpt lat="42.2772101" lon="13.687206"><ele>969.0</ele><time>2026-05-03T08:39:57.988Z</time></trkpt><trkpt lat="42.2772853" lon="13.6871539"><ele>968.1666666666666</ele><time>2026-05-03T08:39:58.987Z</time></trkpt><trkpt lat="42.2773623" lon="13.6871025"><ele>967.3333333333333</ele><time>2026-05-03T08:39:59.987Z</time></trkpt><trkpt lat="42.2774378" lon="13.6870421"><ele>966.5</ele><time>2026-05-03T08:40:00.988Z</time></trkpt><trkpt lat="42.2775042" lon="13.6869732"><ele>965.6666666666666</ele><time>2026-05-03T08:40:01.988Z</time></trkpt><trkpt lat="42.2775611" lon="13.6869119"><ele>964.8333333333333</ele><time>2026-05-03T08:40:02.988Z</time></trkpt><trkpt lat="42.2776303" lon="13.6868424"><ele>964.0</ele><time>2026-05-03T08:40:04.988Z</time></trkpt><trkpt lat="42.2776866" lon="13.6869043"><ele>963.9999999999999</ele><time>2026-05-03T08:40:22.988Z</time></trkpt><trkpt lat="42.2777201" lon="13.6869853"><ele>964.0</ele><time>2026-05-03T08:40:24.988Z</time></trkpt><trkpt lat="42.2777235" lon="13.68709"><ele>964.0</ele><time>2026-05-03T08:40:26.987Z</time></trkpt><trkpt lat="42.2777387" lon="13.6872067"><ele>964.0</ele><time>2026-05-03T08:40:28.987Z</time></trkpt><trkpt lat="42.2777604" lon="13.6873022"><ele>963.9999999999999</ele><time>2026-05-03T08:40:30.988Z</time></trkpt><trkpt lat="42.2777418" lon="13.6874018"><ele>964.0</ele><time>2026-05-03T08:40:32.987Z</time></trkpt><trkpt lat="42.2776954" lon="13.6875222"><ele>964.0</ele><time>2026-05-03T08:40:34.988Z</time></trkpt><trkpt lat="42.2776555" lon="13.6876711"><ele>964.0000000000001</ele><time>2026-05-03T08:40:36.988Z</time></trkpt><trkpt lat="42.277633" lon="13.6877524"><ele>964.0000000000001</ele><time>2026-05-03T08:40:37.987Z</time></trkpt><trkpt lat="42.2775815" lon="13.6878904"><ele>964.0</ele><time>2026-05-03T08:40:39.988Z</time></trkpt><trkpt lat="42.2775019" lon="13.6880091"><ele>964.0</ele><time>2026-05-03T08:40:41.987Z</time></trkpt><trkpt lat="42.2774643" lon="13.6880895"><ele>963.1666666666666</ele><time>2026-05-03T08:40:42.987Z</time></trkpt><trkpt lat="42.2774349" lon="13.6881671"><ele>962.3333333333333</ele><time>2026-05-03T08:40:43.987Z</time></trkpt><trkpt lat="42.2774192" lon="13.688264"><ele>961.5</ele><time>2026-05-03T08:40:45.987Z</time></trkpt><trkpt lat="42.2775274" lon="13.6883377"><ele>960.6666666666667</ele><time>2026-05-03T08:40:48.987Z</time></trkpt><trkpt lat="42.2775917" lon="13.6883543"><ele>959.8333333333334</ele><time>2026-05-03T08:40:49.988Z</time></trkpt><trkpt lat="42.2777022" lon="13.6883727"><ele>959.0</ele><time>2026-05-03T08:40:51.988Z</time></trkpt><trkpt lat="42.2778162" lon="13.6884374"><ele>959.0</ele><time>2026-05-03T08:40:53.987Z</time></trkpt><trkpt lat="42.2778818" lon="13.6884749"><ele>959.0</ele><time>2026-05-03T08:40:54.988Z</time></trkpt><trkpt lat="42.2779468" lon="13.6885067"><ele>959.0</ele><time>2026-05-03T08:40:55.988Z</time></trkpt><trkpt lat="42.2780153" lon="13.6885343"><ele>959.0</ele><time>2026-05-03T08:40:56.988Z</time></trkpt><trkpt lat="42.2780867" lon="13.6885534"><ele>959.0</ele><time>2026-05-03T08:40:57.987Z</time></trkpt><trkpt lat="42.2781592" lon="13.6885821"><ele>959.0</ele><time>2026-05-03T08:40:58.988Z</time></trkpt><trkpt lat="42.2782211" lon="13.6886035"><ele>959.0</ele><time>2026-05-03T08:40:59.988Z</time></trkpt><trkpt lat="42.2783022" lon="13.6886743"><ele>958.4285714285714</ele><time>2026-05-03T08:41:01.988Z</time></trkpt><trkpt lat="42.2783705" lon="13.688704"><ele>957.8571428571429</ele><time>2026-05-03T08:41:02.988Z</time></trkpt><trkpt lat="42.2784341" lon="13.688751"><ele>957.2857142857142</ele><time>2026-05-03T08:41:03.988Z</time></trkpt><trkpt lat="42.2784913" lon="13.6888007"><ele>956.7142857142857</ele><time>2026-05-03T08:41:04.988Z</time></trkpt><trkpt lat="42.2785514" lon="13.6888478"><ele>956.1428571428571</ele><time>2026-05-03T08:41:05.988Z</time></trkpt><trkpt lat="42.2786128" lon="13.6889165"><ele>955.5714285714284</ele><time>2026-05-03T08:41:06.988Z</time></trkpt><trkpt lat="42.2786629" lon="13.6890059"><ele>954.9999999999999</ele><time>2026-05-03T08:41:07.987Z</time></trkpt><trkpt lat="42.2787206" lon="13.6890882"><ele>955.0</ele><time>2026-05-03T08:41:08.987Z</time></trkpt><trkpt lat="42.2787833" lon="13.6891756"><ele>955.0</ele><time>2026-05-03T08:41:09.987Z</time></trkpt><trkpt lat="42.2788476" lon="13.689268"><ele>955.0</ele><time>2026-05-03T08:41:10.988Z</time></trkpt><trkpt lat="42.2789174" lon="13.6893575"><ele>955.0</ele><time>2026-05-03T08:41:11.988Z</time></trkpt><trkpt lat="42.2789806" lon="13.6894363"><ele>955.0</ele><time>2026-05-03T08:41:12.987Z</time></trkpt><trkpt lat="42.2790405" lon="13.6895232"><ele>955.6666666666666</ele><time>2026-05-03T08:41:13.988Z</time></trkpt><trkpt lat="42.279094" lon="13.6895996"><ele>956.3333333333333</ele><time>2026-05-03T08:41:14.987Z</time></trkpt><trkpt lat="42.2791495" lon="13.6896694"><ele>957.0</ele><time>2026-05-03T08:41:15.987Z</time></trkpt><trkpt lat="42.279209" lon="13.6897182"><ele>957.6666666666667</ele><time>2026-05-03T08:41:16.987Z</time></trkpt><trkpt lat="42.2792675" lon="13.6897534"><ele>958.3333333333334</ele><time>2026-05-03T08:41:17.987Z</time></trkpt><trkpt lat="42.2793835" lon="13.6897948"><ele>959.0</ele><time>2026-05-03T08:41:19.987Z</time></trkpt><trkpt lat="42.2794982" lon="13.6898024"><ele>959.0</ele><time>2026-05-03T08:41:21.988Z</time></trkpt><trkpt lat="42.2795926" lon="13.6898779"><ele>959.0000000000001</ele><time>2026-05-03T08:41:23.988Z</time></trkpt><trkpt lat="42.2796496" lon="13.6899661"><ele>959.0000000000001</ele><time>2026-05-03T08:41:25.988Z</time></trkpt><trkpt lat="42.2796927" lon="13.6900622"><ele>959.0</ele><time>2026-05-03T08:41:27.988Z</time></trkpt><trkpt lat="42.2797489" lon="13.6901495"><ele>959.0</ele><time>2026-05-03T08:41:29.988Z</time></trkpt><trkpt lat="42.279822" lon="13.6902066"><ele>959.5000000000001</ele><time>2026-05-03T08:41:31.988Z</time></trkpt><trkpt lat="42.2799106" lon="13.6902518"><ele>960.0</ele><time>2026-05-03T08:41:33.987Z</time></trkpt><trkpt lat="42.2799929" lon="13.6902874"><ele>960.5</ele><time>2026-05-03T08:41:35.988Z</time></trkpt><trkpt lat="42.2800989" lon="13.690284"><ele>961.0</ele><time>2026-05-03T08:41:37.987Z</time></trkpt><trkpt lat="42.2801641" lon="13.6902914"><ele>961.5000000000001</ele><time>2026-05-03T08:41:38.987Z</time></trkpt><trkpt lat="42.2802341" lon="13.6903045"><ele>962.0</ele><time>2026-05-03T08:41:39.988Z</time></trkpt><trkpt lat="42.2803009" lon="13.6903132"><ele>962.0000000000001</ele><time>2026-05-03T08:41:40.988Z</time></trkpt><trkpt lat="42.2804084" lon="13.6904065"><ele>962.0</ele><time>2026-05-03T08:41:42.988Z</time></trkpt><trkpt lat="42.2804563" lon="13.6904928"><ele>962.0</ele><time>2026-05-03T08:41:43.987Z</time></trkpt><trkpt lat="42.2804995" lon="13.6905759"><ele>962.0</ele><time>2026-05-03T08:41:44.988Z</time></trkpt><trkpt lat="42.280528" lon="13.6906699"><ele>962.0000000000001</ele><time>2026-05-03T08:41:45.987Z</time></trkpt><trkpt lat="42.2805435" lon="13.6907665"><ele>962.0</ele><time>2026-05-03T08:41:46.988Z</time></trkpt><trkpt lat="42.2805558" lon="13.6908577"><ele>962.0000000000001</ele><time>2026-05-03T08:41:47.988Z</time></trkpt><trkpt lat="42.2805631" lon="13.6909545"><ele>962.0</ele><time>2026-05-03T08:41:48.988Z</time></trkpt><trkpt lat="42.2805625" lon="13.6910529"><ele>962.0</ele><time>2026-05-03T08:41:49.988Z</time></trkpt><trkpt lat="42.2805531" lon="13.6911561"><ele>962.0</ele><time>2026-05-03T08:41:50.988Z</time></trkpt><trkpt lat="42.2805412" lon="13.6912599"><ele>962.0000000000001</ele><time>2026-05-03T08:41:51.988Z</time></trkpt><trkpt lat="42.2805265" lon="13.6913717"><ele>962.0</ele><time>2026-05-03T08:41:52.988Z</time></trkpt><trkpt lat="42.2805066" lon="13.6914755"><ele>962.5000000000001</ele><time>2026-05-03T08:41:53.987Z</time></trkpt><trkpt lat="42.2804823" lon="13.6915724"><ele>963.0</ele><time>2026-05-03T08:41:54.987Z</time></trkpt><trkpt lat="42.2804547" lon="13.6916638"><ele>963.5</ele><time>2026-05-03T08:41:55.987Z</time></trkpt><trkpt lat="42.2804221" lon="13.6917546"><ele>964.0</ele><time>2026-05-03T08:41:56.988Z</time></trkpt><trkpt lat="42.280386" lon="13.6918556"><ele>964.5000000000001</ele><time>2026-05-03T08:41:57.987Z</time></trkpt><trkpt lat="42.2803519" lon="13.6919594"><ele>965.0</ele><time>2026-05-03T08:41:58.988Z</time></trkpt><trkpt lat="42.2803256" lon="13.6920481"><ele>967.6</ele><time>2026-05-03T08:41:59.988Z</time></trkpt><trkpt lat="42.2802753" lon="13.6921883"><ele>970.2</ele><time>2026-05-03T08:42:01.987Z</time></trkpt><trkpt lat="42.2802167" lon="13.6923411"><ele>972.8</ele><time>2026-05-03T08:42:03.988Z</time></trkpt><trkpt lat="42.2801842" lon="13.6924279"><ele>975.4</ele><time>2026-05-03T08:42:04.987Z</time></trkpt><trkpt lat="42.2801516" lon="13.692518"><ele>978.0</ele><time>2026-05-03T08:42:05.988Z</time></trkpt><trkpt lat="42.280113" lon="13.6926273"><ele>978.0</ele><time>2026-05-03T08:42:06.987Z</time></trkpt><trkpt lat="42.2800772" lon="13.692713"><ele>978.0</ele><time>2026-05-03T08:42:07.987Z</time></trkpt><trkpt lat="42.2800433" lon="13.6928015"><ele>978.0</ele><time>2026-05-03T08:42:08.988Z</time></trkpt><trkpt lat="42.2800242" lon="13.6929653"><ele>978.0</ele><time>2026-05-03T08:42:10.987Z</time></trkpt><trkpt lat="42.2800231" lon="13.6930508"><ele>978.0</ele><time>2026-05-03T08:42:11.988Z</time></trkpt><trkpt lat="42.2800333" lon="13.6931394"><ele>978.0</ele><time>2026-05-03T08:42:12.988Z</time></trkpt><trkpt lat="42.280044" lon="13.6932299"><ele>978.6666666666666</ele><time>2026-05-03T08:42:13.988Z</time></trkpt><trkpt lat="42.2800588" lon="13.6933304"><ele>979.3333333333333</ele><time>2026-05-03T08:42:14.988Z</time></trkpt><trkpt lat="42.2800638" lon="13.6934255"><ele>980.0</ele><time>2026-05-03T08:42:15.987Z</time></trkpt><trkpt lat="42.2800684" lon="13.6935391"><ele>980.6666666666666</ele><time>2026-05-03T08:42:16.987Z</time></trkpt><trkpt lat="42.2800672" lon="13.6936484"><ele>981.3333333333333</ele><time>2026-05-03T08:42:17.988Z</time></trkpt><trkpt lat="42.2800669" lon="13.6937604"><ele>982.0</ele><time>2026-05-03T08:42:18.988Z</time></trkpt><trkpt lat="42.2800678" lon="13.6938753"><ele>981.9999999999999</ele><time>2026-05-03T08:42:19.988Z</time></trkpt><trkpt lat="42.2800753" lon="13.6939882"><ele>982.0</ele><time>2026-05-03T08:42:20.988Z</time></trkpt><trkpt lat="42.2800769" lon="13.6941056"><ele>982.0</ele><time>2026-05-03T08:42:21.987Z</time></trkpt><trkpt lat="42.2800705" lon="13.6942208"><ele>982.0</ele><time>2026-05-03T08:42:22.988Z</time></trkpt><trkpt lat="42.2800659" lon="13.6943263"><ele>981.9999999999999</ele><time>2026-05-03T08:42:23.988Z</time></trkpt><trkpt lat="42.2800619" lon="13.6944343"><ele>982.0</ele><time>2026-05-03T08:42:24.988Z</time></trkpt><trkpt lat="42.2800606" lon="13.6945375"><ele>981.2857142857142</ele><time>2026-05-03T08:42:25.988Z</time></trkpt><trkpt lat="42.280048" lon="13.6946401"><ele>980.5714285714284</ele><time>2026-05-03T08:42:26.988Z</time></trkpt><trkpt lat="42.2800276" lon="13.6947351"><ele>979.8571428571429</ele><time>2026-05-03T08:42:27.988Z</time></trkpt><trkpt lat="42.2800111" lon="13.694825"><ele>979.1428571428571</ele><time>2026-05-03T08:42:28.988Z</time></trkpt><trkpt lat="42.279991" lon="13.6949173"><ele>978.4285714285714</ele><time>2026-05-03T08:42:29.988Z</time></trkpt><trkpt lat="42.2799946" lon="13.6950175"><ele>977.7142857142858</ele><time>2026-05-03T08:42:30.988Z</time></trkpt><trkpt lat="42.2799996" lon="13.6951162"><ele>977.0000000000001</ele><time>2026-05-03T08:42:31.988Z</time></trkpt><trkpt lat="42.2800178" lon="13.6952023"><ele>975.8333333333334</ele><time>2026-05-03T08:42:32.988Z</time></trkpt><trkpt lat="42.2800404" lon="13.6952899"><ele>974.6666666666667</ele><time>2026-05-03T08:42:33.987Z</time></trkpt><trkpt lat="42.2800773" lon="13.6953972"><ele>973.5</ele><time>2026-05-03T08:42:35.988Z</time></trkpt><trkpt lat="42.280136" lon="13.695478"><ele>972.3333333333333</ele><time>2026-05-03T08:42:38.987Z</time></trkpt><trkpt lat="42.2801944" lon="13.695539"><ele>971.1666666666666</ele><time>2026-05-03T08:42:40.987Z</time></trkpt><trkpt lat="42.280271" lon="13.6956346"><ele>970.0</ele><time>2026-05-03T08:42:42.987Z</time></trkpt><trkpt lat="42.2803732" lon="13.6957149"><ele>970.0</ele><time>2026-05-03T08:42:44.988Z</time></trkpt><trkpt lat="42.2804286" lon="13.6957607"><ele>970.0</ele><time>2026-05-03T08:42:45.987Z</time></trkpt><trkpt lat="42.2804821" lon="13.6958089"><ele>970.0</ele><time>2026-05-03T08:42:46.988Z</time></trkpt><trkpt lat="42.2805754" lon="13.6959037"><ele>970.0</ele><time>2026-05-03T08:42:48.988Z</time></trkpt><trkpt lat="42.2806839" lon="13.6959439"><ele>970.0</ele><time>2026-05-03T08:42:50.988Z</time></trkpt><trkpt lat="42.2807928" lon="13.6959561"><ele>973.2</ele><time>2026-05-03T08:42:52.988Z</time></trkpt><trkpt lat="42.2809107" lon="13.6959122"><ele>976.4</ele><time>2026-05-03T08:42:54.988Z</time></trkpt><trkpt lat="42.2810281" lon="13.6958742"><ele>979.5999999999999</ele><time>2026-05-03T08:42:56.987Z</time></trkpt><trkpt lat="42.2811371" lon="13.6957963"><ele>982.8</ele><time>2026-05-03T08:42:58.987Z</time></trkpt><trkpt lat="42.2812037" lon="13.6957607"><ele>986.0</ele><time>2026-05-03T08:42:59.987Z</time></trkpt><trkpt lat="42.2812751" lon="13.6957319"><ele>986.0000000000001</ele><time>2026-05-03T08:43:00.988Z</time></trkpt><trkpt lat="42.2813565" lon="13.6957807"><ele>986.0</ele><time>2026-05-03T08:43:02.988Z</time></trkpt><trkpt lat="42.2814212" lon="13.6959114"><ele>986.0</ele><time>2026-05-03T08:43:04.987Z</time></trkpt><trkpt lat="42.2814504" lon="13.6959899"><ele>986.0</ele><time>2026-05-03T08:43:05.987Z</time></trkpt><trkpt lat="42.2814905" lon="13.6960848"><ele>986.0000000000001</ele><time>2026-05-03T08:43:06.988Z</time></trkpt><trkpt lat="42.2815314" lon="13.6961674"><ele>986.0</ele><time>2026-05-03T08:43:07.988Z</time></trkpt><trkpt lat="42.2815677" lon="13.6962577"><ele>986.8</ele><time>2026-05-03T08:43:08.988Z</time></trkpt><trkpt lat="42.2816105" lon="13.6963302"><ele>987.5999999999999</ele><time>2026-05-03T08:43:09.987Z</time></trkpt><trkpt lat="42.2816537" lon="13.6963928"><ele>988.4</ele><time>2026-05-03T08:43:10.988Z</time></trkpt><trkpt lat="42.2817377" lon="13.6964986"><ele>989.2</ele><time>2026-05-03T08:43:12.987Z</time></trkpt><trkpt lat="42.2818182" lon="13.6965944"><ele>990.0</ele><time>2026-05-03T08:43:14.988Z</time></trkpt><trkpt lat="42.2819062" lon="13.6966956"><ele>990.0</ele><time>2026-05-03T08:43:16.987Z</time></trkpt><trkpt lat="42.2819807" lon="13.6967992"><ele>990.0</ele><time>2026-05-03T08:43:18.987Z</time></trkpt><trkpt lat="42.2820351" lon="13.6968791"><ele>990.0</ele><time>2026-05-03T08:43:20.988Z</time></trkpt><trkpt lat="42.2820998" lon="13.6968489"><ele>990.0</ele><time>2026-05-03T08:43:22.988Z</time></trkpt><trkpt lat="42.2821155" lon="13.6967614"><ele>990.0</ele><time>2026-05-03T08:43:24.987Z</time></trkpt><trkpt lat="42.2820821" lon="13.6966585"><ele>990.0</ele><time>2026-05-03T08:43:26.987Z</time></trkpt><trkpt lat="42.2820548" lon="13.6965351"><ele>990.0</ele><time>2026-05-03T08:43:28.987Z</time></trkpt><trkpt lat="42.2820641" lon="13.6964156"><ele>990.0</ele><time>2026-05-03T08:43:30.987Z</time></trkpt><trkpt lat="42.2821236" lon="13.6963269"><ele>990.0</ele><time>2026-05-03T08:43:32.988Z</time></trkpt><trkpt lat="42.2821966" lon="13.6962344"><ele>990.0</ele><time>2026-05-03T08:43:34.987Z</time></trkpt><trkpt lat="42.282253" lon="13.6961233"><ele>990.0</ele><time>2026-05-03T08:43:36.988Z</time></trkpt><trkpt lat="42.2822869" lon="13.6960133"><ele>985.6</ele><time>2026-05-03T08:43:38.988Z</time></trkpt><trkpt lat="42.2823049" lon="13.6958856"><ele>981.2</ele><time>2026-05-03T08:43:40.987Z</time></trkpt><trkpt lat="42.2823101" lon="13.69574"><ele>976.8</ele><time>2026-05-03T08:43:42.987Z</time></trkpt><trkpt lat="42.2823098" lon="13.6955906"><ele>972.4</ele><time>2026-05-03T08:43:44.988Z</time></trkpt><trkpt lat="42.2823136" lon="13.6954282"><ele>968.0</ele><time>2026-05-03T08:43:46.987Z</time></trkpt><trkpt lat="42.282324" lon="13.6952579"><ele>967.5714285714286</ele><time>2026-05-03T08:43:48.987Z</time></trkpt><trkpt lat="42.2823252" lon="13.6951658"><ele>967.1428571428571</ele><time>2026-05-03T08:43:49.988Z</time></trkpt><trkpt lat="42.282329" lon="13.6950751"><ele>966.7142857142857</ele><time>2026-05-03T08:43:50.987Z</time></trkpt><trkpt lat="42.2823335" lon="13.6949831"><ele>966.2857142857142</ele><time>2026-05-03T08:43:51.988Z</time></trkpt><trkpt lat="42.2823338" lon="13.694893"><ele>965.8571428571429</ele><time>2026-05-03T08:43:52.987Z</time></trkpt><trkpt lat="42.2823283" lon="13.6948045"><ele>965.4285714285713</ele><time>2026-05-03T08:43:53.988Z</time></trkpt><trkpt lat="42.2823248" lon="13.6947183"><ele>965.0</ele><time>2026-05-03T08:43:54.987Z</time></trkpt><trkpt lat="42.2823143" lon="13.6946299"><ele>965.0000000000001</ele><time>2026-05-03T08:43:55.987Z</time></trkpt><trkpt lat="42.2823042" lon="13.6945452"><ele>965.0</ele><time>2026-05-03T08:43:56.988Z</time></trkpt><trkpt lat="42.2822695" lon="13.6943731"><ele>965.0</ele><time>2026-05-03T08:43:58.987Z</time></trkpt><trkpt lat="42.2822528" lon="13.6942892"><ele>965.0</ele><time>2026-05-03T08:43:59.988Z</time></trkpt><trkpt lat="42.282236" lon="13.694197"><ele>965.0000000000001</ele><time>2026-05-03T08:44:00.988Z</time></trkpt><trkpt lat="42.2822273" lon="13.6941113"><ele>965.0</ele><time>2026-05-03T08:44:01.988Z</time></trkpt><trkpt lat="42.2822361" lon="13.6940198"><ele>963.4</ele><time>2026-05-03T08:44:02.987Z</time></trkpt><trkpt lat="42.2822435" lon="13.6939228"><ele>961.8</ele><time>2026-05-03T08:44:03.988Z</time></trkpt><trkpt lat="42.2822802" lon="13.6937797"><ele>960.2</ele><time>2026-05-03T08:44:05.988Z</time></trkpt><trkpt lat="42.2823199" lon="13.6936467"><ele>958.6</ele><time>2026-05-03T08:44:07.987Z</time></trkpt><trkpt lat="42.2823424" lon="13.6935028"><ele>957.0</ele><time>2026-05-03T08:44:09.988Z</time></trkpt><trkpt lat="42.2823586" lon="13.6933568"><ele>957.1666666666666</ele><time>2026-05-03T08:44:11.987Z</time></trkpt><trkpt lat="42.2823763" lon="13.6931965"><ele>957.3333333333333</ele><time>2026-05-03T08:44:13.987Z</time></trkpt><trkpt lat="42.2823817" lon="13.6931108"><ele>957.5</ele><time>2026-05-03T08:44:14.987Z</time></trkpt><trkpt lat="42.2823996" lon="13.6930263"><ele>957.6666666666666</ele><time>2026-05-03T08:44:15.988Z</time></trkpt><trkpt lat="42.2824164" lon="13.6929408"><ele>957.8333333333333</ele><time>2026-05-03T08:44:16.988Z</time></trkpt><trkpt lat="42.2824645" lon="13.6927796"><ele>958.0</ele><time>2026-05-03T08:44:18.987Z</time></trkpt><trkpt lat="42.2824881" lon="13.6926975"><ele>958.0</ele><time>2026-05-03T08:44:19.987Z</time></trkpt><trkpt lat="42.2825176" lon="13.6926125"><ele>958.0</ele><time>2026-05-03T08:44:20.988Z</time></trkpt><trkpt lat="42.2825475" lon="13.692525"><ele>958.0</ele><time>2026-05-03T08:44:21.988Z</time></trkpt><trkpt lat="42.2825811" lon="13.6924396"><ele>958.0</ele><time>2026-05-03T08:44:22.988Z</time></trkpt><trkpt lat="42.2826154" lon="13.6923496"><ele>958.0</ele><time>2026-05-03T08:44:23.988Z</time></trkpt><trkpt lat="42.2826556" lon="13.6922659"><ele>958.0</ele><time>2026-05-03T08:44:24.987Z</time></trkpt><trkpt lat="42.2827065" lon="13.6921799"><ele>958.0</ele><time>2026-05-03T08:44:25.988Z</time></trkpt><trkpt lat="42.2827545" lon="13.6920949"><ele>958.0</ele><time>2026-05-03T08:44:26.988Z</time></trkpt><trkpt lat="42.2828044" lon="13.6920101"><ele>958.0</ele><time>2026-05-03T08:44:27.988Z</time></trkpt><trkpt lat="42.2828538" lon="13.6919267"><ele>958.0</ele><time>2026-05-03T08:44:28.987Z</time></trkpt><trkpt lat="42.282896" lon="13.6918503"><ele>958.0</ele><time>2026-05-03T08:44:29.988Z</time></trkpt><trkpt lat="42.2829395" lon="13.6917722"><ele>958.0</ele><time>2026-05-03T08:44:30.988Z</time></trkpt><trkpt lat="42.2829927" lon="13.6917068"><ele>958.0</ele><time>2026-05-03T08:44:31.988Z</time></trkpt><trkpt lat="42.2830456" lon="13.6916433"><ele>958.0</ele><time>2026-05-03T08:44:32.987Z</time></trkpt><trkpt lat="42.2830955" lon="13.6915824"><ele>954.8333333333333</ele><time>2026-05-03T08:44:33.988Z</time></trkpt><trkpt lat="42.2831498" lon="13.6915294"><ele>951.6666666666666</ele><time>2026-05-03T08:44:34.987Z</time></trkpt><trkpt lat="42.2832185" lon="13.691486"><ele>948.5</ele><time>2026-05-03T08:44:35.987Z</time></trkpt><trkpt lat="42.2832846" lon="13.6914437"><ele>945.3333333333333</ele><time>2026-05-03T08:44:36.987Z</time></trkpt><trkpt lat="42.2833553" lon="13.6913995"><ele>942.1666666666666</ele><time>2026-05-03T08:44:37.988Z</time></trkpt><trkpt lat="42.2834209" lon="13.6913519"><ele>939.0</ele><time>2026-05-03T08:44:38.987Z</time></trkpt><trkpt lat="42.2834929" lon="13.6912957"><ele>939.0</ele><time>2026-05-03T08:44:39.988Z</time></trkpt><trkpt lat="42.2835623" lon="13.6912545"><ele>939.0</ele><time>2026-05-03T08:44:40.988Z</time></trkpt><trkpt lat="42.2836357" lon="13.6911923"><ele>939.0</ele><time>2026-05-03T08:44:41.987Z</time></trkpt><trkpt lat="42.2837008" lon="13.6911554"><ele>939.0</ele><time>2026-05-03T08:44:42.987Z</time></trkpt><trkpt lat="42.2837668" lon="13.6911094"><ele>939.0</ele><time>2026-05-03T08:44:43.987Z</time></trkpt><trkpt lat="42.2838409" lon="13.6910672"><ele>939.0</ele><time>2026-05-03T08:44:44.987Z</time></trkpt><trkpt lat="42.2839116" lon="13.6910217"><ele>939.8000000000001</ele><time>2026-05-03T08:44:45.988Z</time></trkpt><trkpt lat="42.2839808" lon="13.6909726"><ele>940.6000000000001</ele><time>2026-05-03T08:44:46.988Z</time></trkpt><trkpt lat="42.2840468" lon="13.690934"><ele>941.4</ele><time>2026-05-03T08:44:47.988Z</time></trkpt><trkpt lat="42.284155" lon="13.6908858"><ele>942.2</ele><time>2026-05-03T08:44:49.988Z</time></trkpt><trkpt lat="42.2842284" lon="13.6908968"><ele>943.0</ele><time>2026-05-03T08:44:50.988Z</time></trkpt><trkpt lat="42.2843453" lon="13.6909331"><ele>943.0</ele><time>2026-05-03T08:44:52.987Z</time></trkpt><trkpt lat="42.2844091" lon="13.690969"><ele>943.0</ele><time>2026-05-03T08:44:53.988Z</time></trkpt><trkpt lat="42.2845389" lon="13.6910177"><ele>943.0</ele><time>2026-05-03T08:44:55.988Z</time></trkpt><trkpt lat="42.2846102" lon="13.691039"><ele>943.0</ele><time>2026-05-03T08:44:56.987Z</time></trkpt><trkpt lat="42.2846795" lon="13.6910636"><ele>943.0</ele><time>2026-05-03T08:44:57.988Z</time></trkpt><trkpt lat="42.2848077" lon="13.6910997"><ele>938.1428571428572</ele><time>2026-05-03T08:44:59.988Z</time></trkpt><trkpt lat="42.2848824" lon="13.6911186"><ele>933.2857142857144</ele><time>2026-05-03T08:45:00.987Z</time></trkpt><trkpt lat="42.2849562" lon="13.6911459"><ele>928.4285714285714</ele><time>2026-05-03T08:45:01.988Z</time></trkpt><trkpt lat="42.2850284" lon="13.6911699"><ele>923.5714285714287</ele><time>2026-05-03T08:45:02.988Z</time></trkpt><trkpt lat="42.2850994" lon="13.6911868"><ele>918.7142857142858</ele><time>2026-05-03T08:45:03.988Z</time></trkpt><trkpt lat="42.2851648" lon="13.6912094"><ele>913.8571428571429</ele><time>2026-05-03T08:45:04.987Z</time></trkpt><trkpt lat="42.2852299" lon="13.6912241"><ele>909.0</ele><time>2026-05-03T08:45:05.987Z</time></trkpt><trkpt lat="42.2852924" lon="13.6912511"><ele>909.0</ele><time>2026-05-03T08:45:06.988Z</time></trkpt><trkpt lat="42.2853636" lon="13.6912669"><ele>909.0</ele><time>2026-05-03T08:45:07.988Z</time></trkpt><trkpt lat="42.2854443" lon="13.6912615"><ele>909.0</ele><time>2026-05-03T08:45:08.987Z</time></trkpt><trkpt lat="42.2855211" lon="13.6912608"><ele>909.0</ele><time>2026-05-03T08:45:09.988Z</time></trkpt><trkpt lat="42.2855982" lon="13.6912604"><ele>909.0</ele><time>2026-05-03T08:45:10.987Z</time></trkpt><trkpt lat="42.2856753" lon="13.6912524"><ele>909.0</ele><time>2026-05-03T08:45:11.987Z</time></trkpt><trkpt lat="42.2857598" lon="13.6912394"><ele>909.4000000000001</ele><time>2026-05-03T08:45:12.988Z</time></trkpt><trkpt lat="42.2858456" lon="13.691224"><ele>909.8000000000001</ele><time>2026-05-03T08:45:13.988Z</time></trkpt><trkpt lat="42.2859288" lon="13.6912067"><ele>910.1999999999999</ele><time>2026-05-03T08:45:14.988Z</time></trkpt><trkpt lat="42.2860175" lon="13.6911776"><ele>910.5999999999999</ele><time>2026-05-03T08:45:15.988Z</time></trkpt><trkpt lat="42.2861103" lon="13.6911523"><ele>911.0</ele><time>2026-05-03T08:45:16.988Z</time></trkpt><trkpt lat="42.2862035" lon="13.6911263"><ele>911.0</ele><time>2026-05-03T08:45:17.987Z</time></trkpt><trkpt lat="42.2862939" lon="13.6910955"><ele>910.9999999999999</ele><time>2026-05-03T08:45:18.988Z</time></trkpt><trkpt lat="42.2863873" lon="13.6910741"><ele>910.9999999999999</ele><time>2026-05-03T08:45:19.988Z</time></trkpt><trkpt lat="42.2864796" lon="13.6910514"><ele>911.0</ele><time>2026-05-03T08:45:20.988Z</time></trkpt><trkpt lat="42.2865714" lon="13.6910344"><ele>911.0</ele><time>2026-05-03T08:45:21.988Z</time></trkpt><trkpt lat="42.2866662" lon="13.6910147"><ele>916.5999999999999</ele><time>2026-05-03T08:45:22.988Z</time></trkpt><trkpt lat="42.2867563" lon="13.6909879"><ele>922.1999999999999</ele><time>2026-05-03T08:45:23.987Z</time></trkpt><trkpt lat="42.2868456" lon="13.6909628"><ele>927.8000000000001</ele><time>2026-05-03T08:45:24.987Z</time></trkpt><trkpt lat="42.2869367" lon="13.6909362"><ele>933.4000000000001</ele><time>2026-05-03T08:45:25.987Z</time></trkpt><trkpt lat="42.2870283" lon="13.6909042"><ele>939.0</ele><time>2026-05-03T08:45:26.988Z</time></trkpt><trkpt lat="42.287122" lon="13.6908686"><ele>939.0</ele><time>2026-05-03T08:45:27.987Z</time></trkpt><trkpt lat="42.287207" lon="13.6908299"><ele>939.0</ele><time>2026-05-03T08:45:28.987Z</time></trkpt><trkpt lat="42.2872929" lon="13.6907956"><ele>939.0</ele><time>2026-05-03T08:45:29.987Z</time></trkpt><trkpt lat="42.2873723" lon="13.6907542"><ele>939.0</ele><time>2026-05-03T08:45:30.987Z</time></trkpt><trkpt lat="42.287454" lon="13.690721"><ele>939.0</ele><time>2026-05-03T08:45:31.987Z</time></trkpt><trkpt lat="42.2875359" lon="13.6906938"><ele>939.0</ele><time>2026-05-03T08:45:32.988Z</time></trkpt><trkpt lat="42.2876121" lon="13.6906655"><ele>936.3333333333334</ele><time>2026-05-03T08:45:33.988Z</time></trkpt><trkpt lat="42.2876867" lon="13.6906478"><ele>933.6666666666667</ele><time>2026-05-03T08:45:34.987Z</time></trkpt><trkpt lat="42.2877555" lon="13.6906186"><ele>931.0</ele><time>2026-05-03T08:45:35.988Z</time></trkpt><trkpt lat="42.2878692" lon="13.6905784"><ele>928.3333333333334</ele><time>2026-05-03T08:45:37.988Z</time></trkpt><trkpt lat="42.2879313" lon="13.6905455"><ele>925.6666666666667</ele><time>2026-05-03T08:45:38.988Z</time></trkpt><trkpt lat="42.2879977" lon="13.6905188"><ele>923.0</ele><time>2026-05-03T08:45:39.987Z</time></trkpt><trkpt lat="42.288068" lon="13.6904831"><ele>920.1666666666667</ele><time>2026-05-03T08:45:40.988Z</time></trkpt><trkpt lat="42.2881385" lon="13.6904534"><ele>917.3333333333334</ele><time>2026-05-03T08:45:41.987Z</time></trkpt><trkpt lat="42.288201" lon="13.6904242"><ele>914.5</ele><time>2026-05-03T08:45:42.988Z</time></trkpt><trkpt lat="42.2882693" lon="13.6903925"><ele>911.6666666666667</ele><time>2026-05-03T08:45:43.987Z</time></trkpt><trkpt lat="42.288339" lon="13.6903637"><ele>908.8333333333334</ele><time>2026-05-03T08:45:44.988Z</time></trkpt><trkpt lat="42.2884079" lon="13.6903474"><ele>906.0</ele><time>2026-05-03T08:45:45.988Z</time></trkpt><trkpt lat="42.2885395" lon="13.6903385"><ele>906.0</ele><time>2026-05-03T08:45:47.987Z</time></trkpt><trkpt lat="42.2886049" lon="13.6903469"><ele>905.9999999999999</ele><time>2026-05-03T08:45:48.988Z</time></trkpt><trkpt lat="42.2887145" lon="13.6903834"><ele>905.9999999999999</ele><time>2026-05-03T08:45:50.987Z</time></trkpt><trkpt lat="42.2888154" lon="13.6904402"><ele>906.0</ele><time>2026-05-03T08:45:52.988Z</time></trkpt><trkpt lat="42.2889177" lon="13.6904543"><ele>906.0</ele><time>2026-05-03T08:45:54.987Z</time></trkpt><trkpt lat="42.2890247" lon="13.6904949"><ele>905.1666666666666</ele><time>2026-05-03T08:45:56.988Z</time></trkpt><trkpt lat="42.2891433" lon="13.6905107"><ele>904.3333333333333</ele><time>2026-05-03T08:45:58.988Z</time></trkpt><trkpt lat="42.2892088" lon="13.690504"><ele>903.5</ele><time>2026-05-03T08:45:59.988Z</time></trkpt><trkpt lat="42.2892804" lon="13.6904915"><ele>902.6666666666666</ele><time>2026-05-03T08:46:00.987Z</time></trkpt><trkpt lat="42.2893499" lon="13.6904828"><ele>901.8333333333333</ele><time>2026-05-03T08:46:01.988Z</time></trkpt><trkpt lat="42.2894163" lon="13.6904711"><ele>901.0</ele><time>2026-05-03T08:46:02.988Z</time></trkpt><trkpt lat="42.2894924" lon="13.6904732"><ele>900.9999999999999</ele><time>2026-05-03T08:46:03.988Z</time></trkpt><trkpt lat="42.289561" lon="13.6904719"><ele>901.0</ele><time>2026-05-03T08:46:04.988Z</time></trkpt><trkpt lat="42.2896382" lon="13.6904919"><ele>901.0</ele><time>2026-05-03T08:46:05.988Z</time></trkpt><trkpt lat="42.2897082" lon="13.690512"><ele>901.0</ele><time>2026-05-03T08:46:06.988Z</time></trkpt><trkpt lat="42.2897708" lon="13.6905478"><ele>900.9999999999999</ele><time>2026-05-03T08:46:07.987Z</time></trkpt><trkpt lat="42.2898459" lon="13.6905709"><ele>901.0</ele><time>2026-05-03T08:46:08.987Z</time></trkpt><trkpt lat="42.289969" lon="13.690601"><ele>900.3333333333333</ele><time>2026-05-03T08:46:10.988Z</time></trkpt><trkpt lat="42.2900888" lon="13.6906147"><ele>899.6666666666666</ele><time>2026-05-03T08:46:12.988Z</time></trkpt><trkpt lat="42.2901539" lon="13.6906112"><ele>899.0</ele><time>2026-05-03T08:46:13.988Z</time></trkpt><trkpt lat="42.2902779" lon="13.6905824"><ele>898.3333333333333</ele><time>2026-05-03T08:46:15.988Z</time></trkpt><trkpt lat="42.2903427" lon="13.6905641"><ele>897.6666666666666</ele><time>2026-05-03T08:46:16.988Z</time></trkpt><trkpt lat="42.2904088" lon="13.6905394"><ele>897.0</ele><time>2026-05-03T08:46:17.988Z</time></trkpt><trkpt lat="42.2905234" lon="13.6905176"><ele>895.0</ele><time>2026-05-03T08:46:19.987Z</time></trkpt><trkpt lat="42.2906404" lon="13.6905075"><ele>893.0</ele><time>2026-05-03T08:46:21.987Z</time></trkpt><trkpt lat="42.2907648" lon="13.6905172"><ele>891.0</ele><time>2026-05-03T08:46:23.988Z</time></trkpt><trkpt lat="42.2908778" lon="13.6905181"><ele>889.0</ele><time>2026-05-03T08:46:25.988Z</time></trkpt><trkpt lat="42.2909442" lon="13.6905255"><ele>887.0</ele><time>2026-05-03T08:46:26.988Z</time></trkpt><trkpt lat="42.2910076" lon="13.6905167"><ele>887.0000000000001</ele><time>2026-05-03T08:46:27.988Z</time></trkpt><trkpt lat="42.2910709" lon="13.6905045"><ele>887.0</ele><time>2026-05-03T08:46:28.988Z</time></trkpt><trkpt lat="42.2911377" lon="13.6904872"><ele>887.0</ele><time>2026-05-03T08:46:29.987Z</time></trkpt><trkpt lat="42.2912605" lon="13.6904335"><ele>887.0</ele><time>2026-05-03T08:46:31.988Z</time></trkpt><trkpt lat="42.2913254" lon="13.6903913"><ele>887.0000000000001</ele><time>2026-05-03T08:46:32.988Z</time></trkpt><trkpt lat="42.291381" lon="13.6903308"><ele>887.0</ele><time>2026-05-03T08:46:33.988Z</time></trkpt><trkpt lat="42.2914346" lon="13.6902836"><ele>884.5</ele><time>2026-05-03T08:46:34.988Z</time></trkpt><trkpt lat="42.2915211" lon="13.6901773"><ele>882.0</ele><time>2026-05-03T08:46:36.987Z</time></trkpt><trkpt lat="42.2916062" lon="13.6900744"><ele>879.5</ele><time>2026-05-03T08:46:38.988Z</time></trkpt><trkpt lat="42.2916987" lon="13.6899598"><ele>877.0</ele><time>2026-05-03T08:46:40.988Z</time></trkpt><trkpt lat="42.2917965" lon="13.689866"><ele>877.0</ele><time>2026-05-03T08:46:42.987Z</time></trkpt><trkpt lat="42.2918702" lon="13.6898299"><ele>877.0</ele><time>2026-05-03T08:46:43.987Z</time></trkpt><trkpt lat="42.2919447" lon="13.6897965"><ele>877.0</ele><time>2026-05-03T08:46:44.987Z</time></trkpt><trkpt lat="42.2920551" lon="13.689725"><ele>877.0</ele><time>2026-05-03T08:46:46.988Z</time></trkpt><trkpt lat="42.2921422" lon="13.6896249"><ele>877.0</ele><time>2026-05-03T08:46:48.987Z</time></trkpt><trkpt lat="42.2921899" lon="13.689562"><ele>876.9999999999999</ele><time>2026-05-03T08:46:49.988Z</time></trkpt><trkpt lat="42.2922305" lon="13.6894963"><ele>877.0</ele><time>2026-05-03T08:46:50.987Z</time></trkpt><trkpt lat="42.2922894" lon="13.6894186"><ele>877.0</ele><time>2026-05-03T08:46:51.987Z</time></trkpt><trkpt lat="42.2923418" lon="13.6893393"><ele>877.0</ele><time>2026-05-03T08:46:52.987Z</time></trkpt><trkpt lat="42.2923977" lon="13.6892576"><ele>876.9999999999999</ele><time>2026-05-03T08:46:53.988Z</time></trkpt><trkpt lat="42.2924519" lon="13.6891816"><ele>877.0</ele><time>2026-05-03T08:46:54.987Z</time></trkpt><trkpt lat="42.292504" lon="13.6891173"><ele>875.6666666666666</ele><time>2026-05-03T08:46:55.987Z</time></trkpt><trkpt lat="42.2925532" lon="13.6890549"><ele>874.3333333333333</ele><time>2026-05-03T08:46:56.988Z</time></trkpt><trkpt lat="42.2926081" lon="13.6890006"><ele>873.0</ele><time>2026-05-03T08:46:57.988Z</time></trkpt><trkpt lat="42.2926604" lon="13.6889422"><ele>871.6666666666667</ele><time>2026-05-03T08:46:58.987Z</time></trkpt><trkpt lat="42.2927582" lon="13.6888558"><ele>870.3333333333334</ele><time>2026-05-03T08:47:00.987Z</time></trkpt><trkpt lat="42.2928679" lon="13.6887897"><ele>869.0</ele><time>2026-05-03T08:47:02.987Z</time></trkpt><trkpt lat="42.2929276" lon="13.688753"><ele>869.0</ele><time>2026-05-03T08:47:03.988Z</time></trkpt><trkpt lat="42.2929904" lon="13.6887039"><ele>869.0</ele><time>2026-05-03T08:47:04.987Z</time></trkpt><trkpt lat="42.2930552" lon="13.6886599"><ele>869.0</ele><time>2026-05-03T08:47:05.988Z</time></trkpt><trkpt lat="42.2931186" lon="13.6886272"><ele>869.0</ele><time>2026-05-03T08:47:06.988Z</time></trkpt><trkpt lat="42.2931864" lon="13.688605"><ele>869.0</ele><time>2026-05-03T08:47:07.987Z</time></trkpt><trkpt lat="42.2932637" lon="13.6885882"><ele>869.0</ele><time>2026-05-03T08:47:08.988Z</time></trkpt><trkpt lat="42.2933261" lon="13.6885762"><ele>869.0</ele><time>2026-05-03T08:47:09.988Z</time></trkpt><trkpt lat="42.2933976" lon="13.6885978"><ele>869.0000000000001</ele><time>2026-05-03T08:47:11.987Z</time></trkpt><trkpt lat="42.2933885" lon="13.6886934"><ele>869.0</ele><time>2026-05-03T08:47:16.988Z</time></trkpt><trkpt lat="42.2933187" lon="13.688772"><ele>869.0</ele><time>2026-05-03T08:47:18.987Z</time></trkpt><trkpt lat="42.2932648" lon="13.688825"><ele>869.0</ele><time>2026-05-03T08:47:19.988Z</time></trkpt><trkpt lat="42.2932171" lon="13.6889113"><ele>869.0000000000001</ele><time>2026-05-03T08:47:20.987Z</time></trkpt><trkpt lat="42.2931529" lon="13.6890152"><ele>869.0</ele><time>2026-05-03T08:47:21.988Z</time></trkpt><trkpt lat="42.2930814" lon="13.6891306"><ele>869.0</ele><time>2026-05-03T08:47:22.988Z</time></trkpt><trkpt lat="42.2929999" lon="13.689269"><ele>869.0</ele><time>2026-05-03T08:47:23.988Z</time></trkpt><trkpt lat="42.292923" lon="13.6894366"><ele>869.0</ele><time>2026-05-03T08:47:24.988Z</time></trkpt><trkpt lat="42.292843" lon="13.6896119"><ele>869.0</ele><time>2026-05-03T08:47:25.987Z</time></trkpt><trkpt lat="42.2927583" lon="13.6897956"><ele>866.5</ele><time>2026-05-03T08:47:26.988Z</time></trkpt><trkpt lat="42.2926808" lon="13.6899706"><ele>864.0</ele><time>2026-05-03T08:47:27.988Z</time></trkpt><trkpt lat="42.2926157" lon="13.6901383"><ele>861.5</ele><time>2026-05-03T08:47:28.988Z</time></trkpt><trkpt lat="42.292556" lon="13.6902924"><ele>859.0</ele><time>2026-05-03T08:47:29.988Z</time></trkpt><trkpt lat="42.292507" lon="13.6904479"><ele>858.25</ele><time>2026-05-03T08:47:30.988Z</time></trkpt><trkpt lat="42.2924777" lon="13.6906104"><ele>857.5</ele><time>2026-05-03T08:47:31.988Z</time></trkpt><trkpt lat="42.2924629" lon="13.6907741"><ele>856.75</ele><time>2026-05-03T08:47:32.988Z</time></trkpt><trkpt lat="42.2924507" lon="13.6909278"><ele>856.0</ele><time>2026-05-03T08:47:33.987Z</time></trkpt><trkpt lat="42.2924285" lon="13.6910768"><ele>857.25</ele><time>2026-05-03T08:47:34.987Z</time></trkpt><trkpt lat="42.2923968" lon="13.6912235"><ele>858.5</ele><time>2026-05-03T08:47:35.987Z</time></trkpt><trkpt lat="42.2923578" lon="13.6913734"><ele>859.75</ele><time>2026-05-03T08:47:36.988Z</time></trkpt><trkpt lat="42.2923032" lon="13.6915255"><ele>861.0</ele><time>2026-05-03T08:47:37.988Z</time></trkpt><trkpt lat="42.2922339" lon="13.6916759"><ele>861.25</ele><time>2026-05-03T08:47:38.987Z</time></trkpt><trkpt lat="42.2921487" lon="13.6918202"><ele>861.5</ele><time>2026-05-03T08:47:39.988Z</time></trkpt><trkpt lat="42.2920459" lon="13.6919483"><ele>861.75</ele><time>2026-05-03T08:47:40.987Z</time></trkpt><trkpt lat="42.2919385" lon="13.6920815"><ele>862.0</ele><time>2026-05-03T08:47:41.987Z</time></trkpt><trkpt lat="42.2918252" lon="13.6922151"><ele>862.0</ele><time>2026-05-03T08:47:42.988Z</time></trkpt><trkpt lat="42.2916966" lon="13.6923402"><ele>862.0</ele><time>2026-05-03T08:47:43.987Z</time></trkpt><trkpt lat="42.2915655" lon="13.6924652"><ele>862.0</ele><time>2026-05-03T08:47:44.988Z</time></trkpt><trkpt lat="42.2914351" lon="13.6926024"><ele>862.0</ele><time>2026-05-03T08:47:45.988Z</time></trkpt><trkpt lat="42.2913286" lon="13.6927542"><ele>862.0</ele><time>2026-05-03T08:47:46.988Z</time></trkpt><trkpt lat="42.2912497" lon="13.6928912"><ele>862.0</ele><time>2026-05-03T08:47:47.987Z</time></trkpt><trkpt lat="42.2911871" lon="13.6929886"><ele>862.0</ele><time>2026-05-03T08:47:48.987Z</time></trkpt><trkpt lat="42.2911392" lon="13.6930727"><ele>861.9999999999999</ele><time>2026-05-03T08:47:49.988Z</time></trkpt><trkpt lat="42.2910893" lon="13.6931498"><ele>862.0</ele><time>2026-05-03T08:47:50.987Z</time></trkpt><trkpt lat="42.2910315" lon="13.6932311"><ele>862.0</ele><time>2026-05-03T08:47:51.987Z</time></trkpt><trkpt lat="42.2909697" lon="13.6933085"><ele>862.0</ele><time>2026-05-03T08:47:52.988Z</time></trkpt><trkpt lat="42.290899" lon="13.6933856"><ele>861.9999999999999</ele><time>2026-05-03T08:47:53.988Z</time></trkpt><trkpt lat="42.2908227" lon="13.6934631"><ele>862.0</ele><time>2026-05-03T08:47:54.987Z</time></trkpt><trkpt lat="42.2907456" lon="13.6935456"><ele>862.1666666666666</ele><time>2026-05-03T08:47:55.988Z</time></trkpt><trkpt lat="42.2906724" lon="13.693631"><ele>862.3333333333333</ele><time>2026-05-03T08:47:56.988Z</time></trkpt><trkpt lat="42.2906099" lon="13.6937202"><ele>862.5</ele><time>2026-05-03T08:47:57.987Z</time></trkpt><trkpt lat="42.2905538" lon="13.6938148"><ele>862.6666666666667</ele><time>2026-05-03T08:47:58.987Z</time></trkpt><trkpt lat="42.290503" lon="13.6939109"><ele>862.8333333333334</ele><time>2026-05-03T08:47:59.988Z</time></trkpt><trkpt lat="42.2904649" lon="13.6939946"><ele>863.0</ele><time>2026-05-03T08:48:00.987Z</time></trkpt><trkpt lat="42.2904293" lon="13.6940682"><ele>860.8</ele><time>2026-05-03T08:48:01.987Z</time></trkpt><trkpt lat="42.2903797" lon="13.6941701"><ele>858.5999999999999</ele><time>2026-05-03T08:48:03.987Z</time></trkpt><trkpt lat="42.2903411" lon="13.6942708"><ele>856.4000000000001</ele><time>2026-05-03T08:48:06.987Z</time></trkpt><trkpt lat="42.2904131" lon="13.6942982"><ele>854.2</ele><time>2026-05-03T08:48:19.987Z</time></trkpt><trkpt lat="42.2904655" lon="13.6941246"><ele>852.0</ele><time>2026-05-03T08:48:22.987Z</time></trkpt><trkpt lat="42.2904888" lon="13.6939855"><ele>852.0</ele><time>2026-05-03T08:48:23.988Z</time></trkpt><trkpt lat="42.2905261" lon="13.6938762"><ele>852.0</ele><time>2026-05-03T08:48:24.987Z</time></trkpt><trkpt lat="42.2905758" lon="13.6937761"><ele>852.0</ele><time>2026-05-03T08:48:25.987Z</time></trkpt><trkpt lat="42.2906363" lon="13.6936859"><ele>852.0</ele><time>2026-05-03T08:48:26.987Z</time></trkpt><trkpt lat="42.2906991" lon="13.6936046"><ele>852.0</ele><time>2026-05-03T08:48:27.988Z</time></trkpt><trkpt lat="42.2907668" lon="13.6935279"><ele>852.0</ele><time>2026-05-03T08:48:28.987Z</time></trkpt><trkpt lat="42.2908402" lon="13.693457"><ele>853.6666666666666</ele><time>2026-05-03T08:48:29.988Z</time></trkpt><trkpt lat="42.2909051" lon="13.693389"><ele>855.3333333333333</ele><time>2026-05-03T08:48:30.987Z</time></trkpt><trkpt lat="42.2909592" lon="13.693323"><ele>857.0</ele><time>2026-05-03T08:48:31.988Z</time></trkpt><trkpt lat="42.2910079" lon="13.6932597"><ele>858.6666666666666</ele><time>2026-05-03T08:48:32.988Z</time></trkpt><trkpt lat="42.2910931" lon="13.6931417"><ele>860.3333333333333</ele><time>2026-05-03T08:48:34.987Z</time></trkpt><trkpt lat="42.2911505" lon="13.6930381"><ele>862.0</ele><time>2026-05-03T08:48:36.988Z</time></trkpt><trkpt lat="42.2911002" lon="13.6929729"><ele>861.9999999999999</ele><time>2026-05-03T08:48:39.987Z</time></trkpt><trkpt lat="42.2910008" lon="13.6929825"><ele>862.0</ele><time>2026-05-03T08:48:41.988Z</time></trkpt><trkpt lat="42.2909313" lon="13.6930074"><ele>862.0</ele><time>2026-05-03T08:48:42.988Z</time></trkpt><trkpt lat="42.2908569" lon="13.6930489"><ele>862.0</ele><time>2026-05-03T08:48:43.988Z</time></trkpt><trkpt lat="42.2907796" lon="13.6930967"><ele>861.9999999999999</ele><time>2026-05-03T08:48:44.988Z</time></trkpt><trkpt lat="42.2907026" lon="13.6931197"><ele>862.0</ele><time>2026-05-03T08:48:45.988Z</time></trkpt><trkpt lat="42.2906247" lon="13.6931264"><ele>860.6666666666666</ele><time>2026-05-03T08:48:46.988Z</time></trkpt><trkpt lat="42.2905462" lon="13.6931304"><ele>859.3333333333333</ele><time>2026-05-03T08:48:47.987Z</time></trkpt><trkpt lat="42.2904662" lon="13.6931577"><ele>858.0</ele><time>2026-05-03T08:48:48.987Z</time></trkpt><trkpt lat="42.2903871" lon="13.6932051"><ele>856.6666666666667</ele><time>2026-05-03T08:48:49.988Z</time></trkpt><trkpt lat="42.2903081" lon="13.6932644"><ele>855.3333333333334</ele><time>2026-05-03T08:48:50.988Z</time></trkpt><trkpt lat="42.290225" lon="13.6933264"><ele>854.0</ele><time>2026-05-03T08:48:51.988Z</time></trkpt><trkpt lat="42.2901401" lon="13.6933907"><ele>854.0</ele><time>2026-05-03T08:48:52.988Z</time></trkpt><trkpt lat="42.2900541" lon="13.6934544"><ele>854.0000000000001</ele><time>2026-05-03T08:48:53.987Z</time></trkpt><trkpt lat="42.2899687" lon="13.6935215"><ele>854.0000000000001</ele><time>2026-05-03T08:48:54.987Z</time></trkpt><trkpt lat="42.2898862" lon="13.693592"><ele>854.0</ele><time>2026-05-03T08:48:55.987Z</time></trkpt><trkpt lat="42.2898065" lon="13.6936556"><ele>854.0</ele><time>2026-05-03T08:48:56.988Z</time></trkpt><trkpt lat="42.2897258" lon="13.6937161"><ele>851.0</ele><time>2026-05-03T08:48:57.988Z</time></trkpt><trkpt lat="42.2896517" lon="13.6937769"><ele>848.0000000000001</ele><time>2026-05-03T08:48:58.987Z</time></trkpt><trkpt lat="42.2895899" lon="13.6938398"><ele>845.0</ele><time>2026-05-03T08:48:59.988Z</time></trkpt><trkpt lat="42.2895385" lon="13.6939051"><ele>842.0</ele><time>2026-05-03T08:49:00.988Z</time></trkpt><trkpt lat="42.2894747" lon="13.6940158"><ele>839.0</ele><time>2026-05-03T08:49:02.988Z</time></trkpt><trkpt lat="42.2894349" lon="13.6941623"><ele>839.0</ele><time>2026-05-03T08:49:04.988Z</time></trkpt><trkpt lat="42.2894038" lon="13.6942413"><ele>839.0</ele><time>2026-05-03T08:49:05.987Z</time></trkpt><trkpt lat="42.2893661" lon="13.6943244"><ele>839.0</ele><time>2026-05-03T08:49:06.987Z</time></trkpt><trkpt lat="42.2893269" lon="13.6944123"><ele>839.0</ele><time>2026-05-03T08:49:07.987Z</time></trkpt><trkpt lat="42.2892865" lon="13.6945013"><ele>839.0</ele><time>2026-05-03T08:49:08.988Z</time></trkpt><trkpt lat="42.2892437" lon="13.6945872"><ele>839.0</ele><time>2026-05-03T08:49:09.987Z</time></trkpt><trkpt lat="42.2891975" lon="13.6946761"><ele>839.0</ele><time>2026-05-03T08:49:10.988Z</time></trkpt><trkpt lat="42.2891503" lon="13.6947684"><ele>838.1666666666667</ele><time>2026-05-03T08:49:11.987Z</time></trkpt><trkpt lat="42.2891052" lon="13.6948677"><ele>837.3333333333334</ele><time>2026-05-03T08:49:12.988Z</time></trkpt><trkpt lat="42.2890652" lon="13.6949544"><ele>836.5</ele><time>2026-05-03T08:49:13.988Z</time></trkpt><trkpt lat="42.2890145" lon="13.6950803"><ele>835.6666666666667</ele><time>2026-05-03T08:49:15.987Z</time></trkpt><trkpt lat="42.2889701" lon="13.6951739"><ele>834.8333333333334</ele><time>2026-05-03T08:49:17.988Z</time></trkpt><trkpt lat="42.2889565" lon="13.695275"><ele>834.0</ele><time>2026-05-03T08:49:19.987Z</time></trkpt><trkpt lat="42.2889248" lon="13.6953731"><ele>831.5</ele><time>2026-05-03T08:49:21.987Z</time></trkpt><trkpt lat="42.2888785" lon="13.6955078"><ele>829.0</ele><time>2026-05-03T08:49:23.988Z</time></trkpt><trkpt lat="42.2888507" lon="13.6955931"><ele>826.5</ele><time>2026-05-03T08:49:24.988Z</time></trkpt><trkpt lat="42.288812" lon="13.6956756"><ele>824.0</ele><time>2026-05-03T08:49:25.988Z</time></trkpt><trkpt lat="42.2887735" lon="13.6957531"><ele>821.5</ele><time>2026-05-03T08:49:26.988Z</time></trkpt><trkpt lat="42.2887316" lon="13.6958269"><ele>819.0</ele><time>2026-05-03T08:49:27.987Z</time></trkpt><trkpt lat="42.2886372" lon="13.69593"><ele>819.0</ele><time>2026-05-03T08:49:29.988Z</time></trkpt><trkpt lat="42.2885241" lon="13.6959867"><ele>819.0</ele><time>2026-05-03T08:49:31.987Z</time></trkpt><trkpt lat="42.2884451" lon="13.6960209"><ele>819.0</ele><time>2026-05-03T08:49:33.988Z</time></trkpt><trkpt lat="42.2883557" lon="13.6960642"><ele>819.0</ele><time>2026-05-03T08:49:36.987Z</time></trkpt><trkpt lat="42.288272" lon="13.6961338"><ele>819.0</ele><time>2026-05-03T08:49:38.988Z</time></trkpt><trkpt lat="42.2881849" lon="13.6962318"><ele>815.8000000000001</ele><time>2026-05-03T08:49:40.988Z</time></trkpt><trkpt lat="42.2880919" lon="13.6963511"><ele>812.6</ele><time>2026-05-03T08:49:42.987Z</time></trkpt><trkpt lat="42.2880366" lon="13.6964169"><ele>809.4</ele><time>2026-05-03T08:49:43.987Z</time></trkpt><trkpt lat="42.2879833" lon="13.6964778"><ele>806.2</ele><time>2026-05-03T08:49:44.988Z</time></trkpt><trkpt lat="42.2879339" lon="13.6965345"><ele>803.0</ele><time>2026-05-03T08:49:45.987Z</time></trkpt><trkpt lat="42.2878538" lon="13.6966589"><ele>803.0000000000001</ele><time>2026-05-03T08:49:47.988Z</time></trkpt><trkpt lat="42.2877922" lon="13.6967063"><ele>803.0</ele><time>2026-05-03T08:49:48.987Z</time></trkpt><trkpt lat="42.2877324" lon="13.6967456"><ele>803.0</ele><time>2026-05-03T08:49:49.988Z</time></trkpt><trkpt lat="42.2876821" lon="13.6967983"><ele>803.0</ele><time>2026-05-03T08:49:50.987Z</time></trkpt><trkpt lat="42.2876196" lon="13.6969464"><ele>803.0000000000001</ele><time>2026-05-03T08:49:52.988Z</time></trkpt><trkpt lat="42.2876077" lon="13.6970351"><ele>803.0</ele><time>2026-05-03T08:49:53.988Z</time></trkpt><trkpt lat="42.2876054" lon="13.697137"><ele>802.5714285714286</ele><time>2026-05-03T08:49:54.988Z</time></trkpt><trkpt lat="42.287607" lon="13.6972376"><ele>802.1428571428571</ele><time>2026-05-03T08:49:55.988Z</time></trkpt><trkpt lat="42.2876023" lon="13.6973308"><ele>801.7142857142858</ele><time>2026-05-03T08:49:56.987Z</time></trkpt><trkpt lat="42.2875826" lon="13.6974235"><ele>801.2857142857142</ele><time>2026-05-03T08:49:57.988Z</time></trkpt><trkpt lat="42.2875461" lon="13.6975072"><ele>800.8571428571429</ele><time>2026-05-03T08:49:58.988Z</time></trkpt><trkpt lat="42.2874943" lon="13.6975857"><ele>800.4285714285714</ele><time>2026-05-03T08:49:59.988Z</time></trkpt><trkpt lat="42.2874414" lon="13.697671"><ele>800.0</ele><time>2026-05-03T08:50:00.988Z</time></trkpt><trkpt lat="42.2874011" lon="13.6977641"><ele>799.8333333333334</ele><time>2026-05-03T08:50:01.988Z</time></trkpt><trkpt lat="42.2873652" lon="13.6978622"><ele>799.6666666666667</ele><time>2026-05-03T08:50:02.987Z</time></trkpt><trkpt lat="42.2873346" lon="13.6979686"><ele>799.5</ele><time>2026-05-03T08:50:03.988Z</time></trkpt><trkpt lat="42.2873082" lon="13.6980826"><ele>799.3333333333333</ele><time>2026-05-03T08:50:04.988Z</time></trkpt><trkpt lat="42.28729" lon="13.6982037"><ele>799.1666666666666</ele><time>2026-05-03T08:50:05.988Z</time></trkpt><trkpt lat="42.2872763" lon="13.6983156"><ele>799.0</ele><time>2026-05-03T08:50:06.988Z</time></trkpt><trkpt lat="42.2872554" lon="13.6984125"><ele>798.3333333333333</ele><time>2026-05-03T08:50:07.988Z</time></trkpt><trkpt lat="42.2872255" lon="13.6984892"><ele>797.6666666666666</ele><time>2026-05-03T08:50:08.987Z</time></trkpt><trkpt lat="42.2871631" lon="13.6986231"><ele>797.0</ele><time>2026-05-03T08:50:10.988Z</time></trkpt><trkpt lat="42.2871305" lon="13.6987569"><ele>796.3333333333333</ele><time>2026-05-03T08:50:12.988Z</time></trkpt><trkpt lat="42.2871119" lon="13.6988425"><ele>795.6666666666666</ele><time>2026-05-03T08:50:13.988Z</time></trkpt><trkpt lat="42.287087" lon="13.698936"><ele>795.0</ele><time>2026-05-03T08:50:14.988Z</time></trkpt><trkpt lat="42.2870582" lon="13.6990417"><ele>794.5</ele><time>2026-05-03T08:50:15.987Z</time></trkpt><trkpt lat="42.2870284" lon="13.6991441"><ele>794.0</ele><time>2026-05-03T08:50:16.988Z</time></trkpt><trkpt lat="42.2869948" lon="13.6992348"><ele>793.5</ele><time>2026-05-03T08:50:17.988Z</time></trkpt><trkpt lat="42.2869685" lon="13.6993255"><ele>793.0</ele><time>2026-05-03T08:50:18.988Z</time></trkpt><trkpt lat="42.2869554" lon="13.6994178"><ele>792.5</ele><time>2026-05-03T08:50:19.988Z</time></trkpt><trkpt lat="42.2869428" lon="13.6995592"><ele>792.0</ele><time>2026-05-03T08:50:21.988Z</time></trkpt><trkpt lat="42.2869236" lon="13.6996572"><ele>791.0</ele><time>2026-05-03T08:50:23.988Z</time></trkpt><trkpt lat="42.2869257" lon="13.6997493"><ele>790.0</ele><time>2026-05-03T08:50:25.987Z</time></trkpt><trkpt lat="42.2869316" lon="13.6998354"><ele>789.0</ele><time>2026-05-03T08:50:27.988Z</time></trkpt><trkpt lat="42.2869155" lon="13.6999306"><ele>788.0</ele><time>2026-05-03T08:50:30.988Z</time></trkpt><trkpt lat="42.2869085" lon="13.7000321"><ele>787.0</ele><time>2026-05-03T08:50:34.988Z</time></trkpt><trkpt lat="42.2869632" lon="13.6999748"><ele>786.0</ele><time>2026-05-03T08:50:41.987Z</time></trkpt><trkpt lat="42.2869514" lon="13.6998191"><ele>786.0</ele><time>2026-05-03T08:50:43.988Z</time></trkpt><trkpt lat="42.2869383" lon="13.6997158"><ele>786.0</ele><time>2026-05-03T08:50:44.987Z</time></trkpt><trkpt lat="42.2869318" lon="13.6996273"><ele>786.0</ele><time>2026-05-03T08:50:45.988Z</time></trkpt><trkpt lat="42.2869535" lon="13.6994735"><ele>786.0</ele><time>2026-05-03T08:50:47.988Z</time></trkpt><trkpt lat="42.2869698" lon="13.6993819"><ele>786.0</ele><time>2026-05-03T08:50:48.987Z</time></trkpt><trkpt lat="42.2869848" lon="13.6992855"><ele>786.0</ele><time>2026-05-03T08:50:49.988Z</time></trkpt><trkpt lat="42.2870059" lon="13.6991911"><ele>787.0</ele><time>2026-05-03T08:50:50.988Z</time></trkpt><trkpt lat="42.2870391" lon="13.6990917"><ele>788.0</ele><time>2026-05-03T08:50:51.988Z</time></trkpt><trkpt lat="42.2870748" lon="13.6989837"><ele>789.0</ele><time>2026-05-03T08:50:52.987Z</time></trkpt><trkpt lat="42.2871023" lon="13.6988738"><ele>790.0</ele><time>2026-05-03T08:50:53.987Z</time></trkpt><trkpt lat="42.2871231" lon="13.6987672"><ele>791.0</ele><time>2026-05-03T08:50:54.988Z</time></trkpt><trkpt lat="42.2871485" lon="13.6986669"><ele>792.0</ele><time>2026-05-03T08:50:55.988Z</time></trkpt><trkpt lat="42.2871758" lon="13.6985768"><ele>792.5</ele><time>2026-05-03T08:50:56.987Z</time></trkpt><trkpt lat="42.2872258" lon="13.6984641"><ele>793.0</ele><time>2026-05-03T08:50:58.987Z</time></trkpt><trkpt lat="42.287286" lon="13.6984943"><ele>793.5</ele><time>2026-05-03T08:51:01.987Z</time></trkpt><trkpt lat="42.2873121" lon="13.6986314"><ele>794.0</ele><time>2026-05-03T08:51:03.988Z</time></trkpt><trkpt lat="42.2873084" lon="13.6987491"><ele>794.5</ele><time>2026-05-03T08:51:04.988Z</time></trkpt><trkpt lat="42.2872939" lon="13.6988681"><ele>795.0</ele><time>2026-05-03T08:51:05.988Z</time></trkpt><trkpt lat="42.2872671" lon="13.6989795"><ele>794.6</ele><time>2026-05-03T08:51:06.987Z</time></trkpt><trkpt lat="42.2872454" lon="13.69909"><ele>794.2</ele><time>2026-05-03T08:51:07.987Z</time></trkpt><trkpt lat="42.2872291" lon="13.6991867"><ele>793.8</ele><time>2026-05-03T08:51:08.988Z</time></trkpt><trkpt lat="42.2872227" lon="13.6993228"><ele>793.4</ele><time>2026-05-03T08:51:10.987Z</time></trkpt><trkpt lat="42.2872509" lon="13.6994466"><ele>793.0</ele><time>2026-05-03T08:51:12.988Z</time></trkpt><trkpt lat="42.287325" lon="13.6995669"><ele>793.0</ele><time>2026-05-03T08:51:14.988Z</time></trkpt><trkpt lat="42.2873841" lon="13.6996754"><ele>793.0</ele><time>2026-05-03T08:51:16.988Z</time></trkpt><trkpt lat="42.2873868" lon="13.699782"><ele>793.0</ele><time>2026-05-03T08:51:18.988Z</time></trkpt><trkpt lat="42.2873736" lon="13.6999033"><ele>793.0</ele><time>2026-05-03T08:51:20.987Z</time></trkpt><trkpt lat="42.2873719" lon="13.7000519"><ele>793.0</ele><time>2026-05-03T08:51:22.987Z</time></trkpt><trkpt lat="42.2873619" lon="13.7001712"><ele>793.0</ele><time>2026-05-03T08:51:24.988Z</time></trkpt><trkpt lat="42.2873307" lon="13.7002458"><ele>793.0</ele><time>2026-05-03T08:51:26.988Z</time></trkpt><trkpt lat="42.2872871" lon="13.7003449"><ele>793.0</ele><time>2026-05-03T08:51:28.988Z</time></trkpt><trkpt lat="42.2872311" lon="13.7004606"><ele>793.0</ele><time>2026-05-03T08:51:30.988Z</time></trkpt><trkpt lat="42.28718" lon="13.7006078"><ele>793.0</ele><time>2026-05-03T08:51:32.987Z</time></trkpt><trkpt lat="42.2871427" lon="13.7007711"><ele>791.3333333333333</ele><time>2026-05-03T08:51:34.987Z</time></trkpt><trkpt lat="42.287133" lon="13.7008611"><ele>789.6666666666666</ele><time>2026-05-03T08:51:35.987Z</time></trkpt><trkpt lat="42.287132" lon="13.7009623"><ele>788.0</ele><time>2026-05-03T08:51:36.987Z</time></trkpt><trkpt lat="42.2871363" lon="13.7010791"><ele>786.3333333333333</ele><time>2026-05-03T08:51:37.987Z</time></trkpt><trkpt lat="42.287139" lon="13.7011924"><ele>784.6666666666666</ele><time>2026-05-03T08:51:38.988Z</time></trkpt><trkpt lat="42.2871361" lon="13.7013112"><ele>783.0</ele><time>2026-05-03T08:51:39.988Z</time></trkpt><trkpt lat="42.2871277" lon="13.7014197"><ele>783.0</ele><time>2026-05-03T08:51:40.988Z</time></trkpt><trkpt lat="42.2871153" lon="13.7015321"><ele>783.0</ele><time>2026-05-03T08:51:41.988Z</time></trkpt><trkpt lat="42.2870945" lon="13.7016438"><ele>783.0</ele><time>2026-05-03T08:51:42.987Z</time></trkpt><trkpt lat="42.2870624" lon="13.7017539"><ele>783.0</ele><time>2026-05-03T08:51:43.987Z</time></trkpt><trkpt lat="42.2870201" lon="13.7018691"><ele>783.0</ele><time>2026-05-03T08:51:44.987Z</time></trkpt><trkpt lat="42.286973" lon="13.7019792"><ele>783.0</ele><time>2026-05-03T08:51:45.987Z</time></trkpt><trkpt lat="42.2869268" lon="13.7020905"><ele>782.8</ele><time>2026-05-03T08:51:46.987Z</time></trkpt><trkpt lat="42.2868799" lon="13.7022034"><ele>782.5999999999999</ele><time>2026-05-03T08:51:47.987Z</time></trkpt><trkpt lat="42.2868341" lon="13.7023167"><ele>782.4000000000001</ele><time>2026-05-03T08:51:48.987Z</time></trkpt><trkpt lat="42.2867972" lon="13.7024387"><ele>782.2</ele><time>2026-05-03T08:51:49.987Z</time></trkpt><trkpt lat="42.2867583" lon="13.7025603"><ele>782.0</ele><time>2026-05-03T08:51:50.988Z</time></trkpt><trkpt lat="42.2867202" lon="13.7026739"><ele>782.8</ele><time>2026-05-03T08:51:51.987Z</time></trkpt><trkpt lat="42.2866792" lon="13.7027826"><ele>783.6</ele><time>2026-05-03T08:51:52.988Z</time></trkpt><trkpt lat="42.2866318" lon="13.7028907"><ele>784.4</ele><time>2026-05-03T08:51:53.988Z</time></trkpt><trkpt lat="42.2865847" lon="13.7029924"><ele>785.1999999999999</ele><time>2026-05-03T08:51:54.987Z</time></trkpt><trkpt lat="42.2865346" lon="13.7031025"><ele>786.0</ele><time>2026-05-03T08:51:55.988Z</time></trkpt><trkpt lat="42.2864908" lon="13.7032194"><ele>786.0</ele><time>2026-05-03T08:51:56.988Z</time></trkpt><trkpt lat="42.2864497" lon="13.7033401"><ele>786.0</ele><time>2026-05-03T08:51:57.988Z</time></trkpt><trkpt lat="42.2864061" lon="13.7034705"><ele>786.0</ele><time>2026-05-03T08:51:58.988Z</time></trkpt><trkpt lat="42.2863706" lon="13.7035982"><ele>786.0</ele><time>2026-05-03T08:51:59.988Z</time></trkpt><trkpt lat="42.2863437" lon="13.7036983"><ele>786.0</ele><time>2026-05-03T08:52:00.988Z</time></trkpt><trkpt lat="42.2862896" lon="13.7038166"><ele>784.3333333333334</ele><time>2026-05-03T08:52:02.988Z</time></trkpt><trkpt lat="42.2862347" lon="13.703863"><ele>782.6666666666667</ele><time>2026-05-03T08:52:04.988Z</time></trkpt><trkpt lat="42.2861462" lon="13.7038613"><ele>781.0</ele><time>2026-05-03T08:52:06.988Z</time></trkpt><trkpt lat="42.2860195" lon="13.7038179"><ele>779.3333333333334</ele><time>2026-05-03T08:52:08.987Z</time></trkpt><trkpt lat="42.2859572" lon="13.7038036"><ele>777.6666666666667</ele><time>2026-05-03T08:52:09.987Z</time></trkpt><trkpt lat="42.2858861" lon="13.7037883"><ele>776.0</ele><time>2026-05-03T08:52:10.987Z</time></trkpt><trkpt lat="42.2858174" lon="13.7037833"><ele>776.0</ele><time>2026-05-03T08:52:11.988Z</time></trkpt><trkpt lat="42.2857492" lon="13.7037741"><ele>776.0</ele><time>2026-05-03T08:52:12.988Z</time></trkpt><trkpt lat="42.2856261" lon="13.7037873"><ele>776.0</ele><time>2026-05-03T08:52:14.988Z</time></trkpt><trkpt lat="42.2855315" lon="13.7038648"><ele>776.0</ele><time>2026-05-03T08:52:16.988Z</time></trkpt><trkpt lat="42.2854403" lon="13.7039969"><ele>776.0</ele><time>2026-05-03T08:52:18.988Z</time></trkpt><trkpt lat="42.2853927" lon="13.7040702"><ele>778.3333333333334</ele><time>2026-05-03T08:52:19.988Z</time></trkpt><trkpt lat="42.2853389" lon="13.7041535"><ele>780.6666666666667</ele><time>2026-05-03T08:52:20.988Z</time></trkpt><trkpt lat="42.2852967" lon="13.7042415"><ele>783.0</ele><time>2026-05-03T08:52:21.988Z</time></trkpt><trkpt lat="42.285257" lon="13.7043285"><ele>785.3333333333333</ele><time>2026-05-03T08:52:22.987Z</time></trkpt><trkpt lat="42.2852268" lon="13.7044123"><ele>787.6666666666666</ele><time>2026-05-03T08:52:23.987Z</time></trkpt><trkpt lat="42.2851933" lon="13.7045053"><ele>790.0</ele><time>2026-05-03T08:52:24.987Z</time></trkpt><trkpt lat="42.285163" lon="13.7045988"><ele>789.9999999999999</ele><time>2026-05-03T08:52:25.987Z</time></trkpt><trkpt lat="42.2851418" lon="13.704691"><ele>790.0</ele><time>2026-05-03T08:52:26.988Z</time></trkpt><trkpt lat="42.2851142" lon="13.7047863"><ele>790.0</ele><time>2026-05-03T08:52:27.987Z</time></trkpt><trkpt lat="42.2850874" lon="13.704898"><ele>790.0</ele><time>2026-05-03T08:52:28.988Z</time></trkpt><trkpt lat="42.2850672" lon="13.7050104"><ele>789.9999999999999</ele><time>2026-05-03T08:52:29.988Z</time></trkpt><trkpt lat="42.2850348" lon="13.7051201"><ele>790.0</ele><time>2026-05-03T08:52:30.988Z</time></trkpt><trkpt lat="42.2850114" lon="13.7052144"><ele>789.0</ele><time>2026-05-03T08:52:31.988Z</time></trkpt><trkpt lat="42.2849833" lon="13.7053184"><ele>788.0</ele><time>2026-05-03T08:52:32.988Z</time></trkpt><trkpt lat="42.2849542" lon="13.7054435"><ele>787.0</ele><time>2026-05-03T08:52:33.988Z</time></trkpt><trkpt lat="42.2848991" lon="13.7055471"><ele>786.0</ele><time>2026-05-03T08:52:34.988Z</time></trkpt><trkpt lat="42.2848645" lon="13.7056666"><ele>785.0</ele><time>2026-05-03T08:52:35.988Z</time></trkpt><trkpt lat="42.2848287" lon="13.7057794"><ele>785.0000000000001</ele><time>2026-05-03T08:52:36.988Z</time></trkpt><trkpt lat="42.2848024" lon="13.7058904"><ele>785.0</ele><time>2026-05-03T08:52:37.987Z</time></trkpt><trkpt lat="42.2847705" lon="13.7060088"><ele>785.0</ele><time>2026-05-03T08:52:38.987Z</time></trkpt><trkpt lat="42.2847371" lon="13.7061133"><ele>785.0</ele><time>2026-05-03T08:52:39.988Z</time></trkpt><trkpt lat="42.2847101" lon="13.7062033"><ele>785.0000000000001</ele><time>2026-05-03T08:52:40.988Z</time></trkpt><trkpt lat="42.2846741" lon="13.706303"><ele>785.0</ele><time>2026-05-03T08:52:41.988Z</time></trkpt><trkpt lat="42.2846478" lon="13.7063837"><ele>789.0000000000001</ele><time>2026-05-03T08:52:42.987Z</time></trkpt><trkpt lat="42.2845976" lon="13.7064831"><ele>793.0</ele><time>2026-05-03T08:52:43.988Z</time></trkpt><trkpt lat="42.2845451" lon="13.7065698"><ele>797.0</ele><time>2026-05-03T08:52:44.988Z</time></trkpt><trkpt lat="42.2844872" lon="13.706658"><ele>801.0</ele><time>2026-05-03T08:52:45.987Z</time></trkpt><trkpt lat="42.2844276" lon="13.7067461"><ele>805.0000000000001</ele><time>2026-05-03T08:52:46.988Z</time></trkpt><trkpt lat="42.2843781" lon="13.7068116"><ele>809.0</ele><time>2026-05-03T08:52:47.987Z</time></trkpt><trkpt lat="42.2843149" lon="13.7068884"><ele>808.3333333333334</ele><time>2026-05-03T08:52:48.988Z</time></trkpt><trkpt lat="42.2842568" lon="13.7069601"><ele>807.6666666666667</ele><time>2026-05-03T08:52:49.987Z</time></trkpt><trkpt lat="42.2842023" lon="13.7070279"><ele>807.0</ele><time>2026-05-03T08:52:50.988Z</time></trkpt><trkpt lat="42.2841326" lon="13.7071041"><ele>806.3333333333333</ele><time>2026-05-03T08:52:51.988Z</time></trkpt><trkpt lat="42.2840738" lon="13.7071611"><ele>805.6666666666666</ele><time>2026-05-03T08:52:52.988Z</time></trkpt><trkpt lat="42.2840153" lon="13.7072391"><ele>805.0</ele><time>2026-05-03T08:52:53.987Z</time></trkpt><trkpt lat="42.28396" lon="13.7073025"><ele>807.1666666666666</ele><time>2026-05-03T08:52:54.988Z</time></trkpt><trkpt lat="42.2839049" lon="13.7073784"><ele>809.3333333333333</ele><time>2026-05-03T08:52:55.987Z</time></trkpt><trkpt lat="42.2838466" lon="13.7074472"><ele>811.5</ele><time>2026-05-03T08:52:56.987Z</time></trkpt><trkpt lat="42.2837976" lon="13.7075406"><ele>813.6666666666667</ele><time>2026-05-03T08:52:57.988Z</time></trkpt><trkpt lat="42.2837468" lon="13.7076371"><ele>815.8333333333334</ele><time>2026-05-03T08:52:58.988Z</time></trkpt><trkpt lat="42.2837008" lon="13.7077381"><ele>818.0</ele><time>2026-05-03T08:52:59.987Z</time></trkpt><trkpt lat="42.283649" lon="13.70785"><ele>818.0000000000001</ele><time>2026-05-03T08:53:00.987Z</time></trkpt><trkpt lat="42.2836093" lon="13.7079488"><ele>818.0</ele><time>2026-05-03T08:53:01.987Z</time></trkpt><trkpt lat="42.2835583" lon="13.7080215"><ele>818.0</ele><time>2026-05-03T08:53:02.987Z</time></trkpt><trkpt lat="42.2835051" lon="13.7080992"><ele>818.0</ele><time>2026-05-03T08:53:03.988Z</time></trkpt><trkpt lat="42.2834361" lon="13.7081903"><ele>818.0000000000001</ele><time>2026-05-03T08:53:04.988Z</time></trkpt><trkpt lat="42.2833805" lon="13.7082617"><ele>818.0</ele><time>2026-05-03T08:53:05.988Z</time></trkpt><trkpt lat="42.2833177" lon="13.7083422"><ele>818.0000000000001</ele><time>2026-05-03T08:53:06.988Z</time></trkpt><trkpt lat="42.283259" lon="13.7084211"><ele>818.0</ele><time>2026-05-03T08:53:07.988Z</time></trkpt><trkpt lat="42.283194" lon="13.7084975"><ele>818.0</ele><time>2026-05-03T08:53:08.988Z</time></trkpt><trkpt lat="42.2831272" lon="13.7085834"><ele>818.0</ele><time>2026-05-03T08:53:09.988Z</time></trkpt><trkpt lat="42.2830649" lon="13.7086633"><ele>818.0000000000001</ele><time>2026-05-03T08:53:10.988Z</time></trkpt><trkpt lat="42.2829994" lon="13.7087323"><ele>818.0</ele><time>2026-05-03T08:53:11.987Z</time></trkpt><trkpt lat="42.282935" lon="13.708776"><ele>818.5000000000001</ele><time>2026-05-03T08:53:12.987Z</time></trkpt><trkpt lat="42.2828574" lon="13.708809"><ele>819.0</ele><time>2026-05-03T08:53:13.987Z</time></trkpt><trkpt lat="42.2827834" lon="13.7088339"><ele>819.5</ele><time>2026-05-03T08:53:14.987Z</time></trkpt><trkpt lat="42.2827088" lon="13.7088772"><ele>820.0</ele><time>2026-05-03T08:53:15.987Z</time></trkpt><trkpt lat="42.2826298" lon="13.7089318"><ele>820.5000000000001</ele><time>2026-05-03T08:53:16.988Z</time></trkpt><trkpt lat="42.2825487" lon="13.7089939"><ele>821.0</ele><time>2026-05-03T08:53:17.987Z</time></trkpt><trkpt lat="42.28247" lon="13.7090544"><ele>821.0000000000001</ele><time>2026-05-03T08:53:18.987Z</time></trkpt><trkpt lat="42.2823933" lon="13.7091165"><ele>821.0</ele><time>2026-05-03T08:53:19.988Z</time></trkpt><trkpt lat="42.2823192" lon="13.709163"><ele>821.0</ele><time>2026-05-03T08:53:20.987Z</time></trkpt><trkpt lat="42.2822481" lon="13.7092138"><ele>821.0</ele><time>2026-05-03T08:53:21.988Z</time></trkpt><trkpt lat="42.2821643" lon="13.7092677"><ele>821.0000000000001</ele><time>2026-05-03T08:53:22.988Z</time></trkpt><trkpt lat="42.2820849" lon="13.7093165"><ele>821.0</ele><time>2026-05-03T08:53:23.988Z</time></trkpt><trkpt lat="42.2820138" lon="13.7093691"><ele>821.1666666666667</ele><time>2026-05-03T08:53:24.988Z</time></trkpt><trkpt lat="42.2819436" lon="13.7094172"><ele>821.3333333333334</ele><time>2026-05-03T08:53:25.988Z</time></trkpt><trkpt lat="42.2818692" lon="13.709472"><ele>821.5</ele><time>2026-05-03T08:53:26.988Z</time></trkpt><trkpt lat="42.2817962" lon="13.7095111"><ele>821.6666666666667</ele><time>2026-05-03T08:53:27.988Z</time></trkpt><trkpt lat="42.2817282" lon="13.7095466"><ele>821.8333333333334</ele><time>2026-05-03T08:53:28.987Z</time></trkpt><trkpt lat="42.2816531" lon="13.7095884"><ele>822.0</ele><time>2026-05-03T08:53:29.987Z</time></trkpt><trkpt lat="42.2815917" lon="13.70964"><ele>822.0</ele><time>2026-05-03T08:53:30.988Z</time></trkpt><trkpt lat="42.2815285" lon="13.7097043"><ele>822.0</ele><time>2026-05-03T08:53:31.988Z</time></trkpt><trkpt lat="42.2814601" lon="13.7097651"><ele>822.0</ele><time>2026-05-03T08:53:32.988Z</time></trkpt><trkpt lat="42.2813946" lon="13.7098176"><ele>822.0</ele><time>2026-05-03T08:53:33.988Z</time></trkpt><trkpt lat="42.2813275" lon="13.7098626"><ele>822.0</ele><time>2026-05-03T08:53:34.987Z</time></trkpt><trkpt lat="42.281249" lon="13.709882"><ele>822.0</ele><time>2026-05-03T08:53:35.988Z</time></trkpt><trkpt lat="42.2811867" lon="13.70992"><ele>825.0</ele><time>2026-05-03T08:53:36.988Z</time></trkpt><trkpt lat="42.2811129" lon="13.7099308"><ele>828.0</ele><time>2026-05-03T08:53:37.988Z</time></trkpt><trkpt lat="42.2810411" lon="13.7099581"><ele>831.0</ele><time>2026-05-03T08:53:38.988Z</time></trkpt><trkpt lat="42.2809734" lon="13.7099841"><ele>834.0</ele><time>2026-05-03T08:53:39.987Z</time></trkpt><trkpt lat="42.2809055" lon="13.7100101"><ele>837.0</ele><time>2026-05-03T08:53:40.988Z</time></trkpt><trkpt lat="42.2808397" lon="13.7100419"><ele>840.0</ele><time>2026-05-03T08:53:41.987Z</time></trkpt><trkpt lat="42.2807742" lon="13.7100694"><ele>843.0</ele><time>2026-05-03T08:53:42.988Z</time></trkpt><trkpt lat="42.280705" lon="13.710089"><ele>843.0</ele><time>2026-05-03T08:53:43.988Z</time></trkpt><trkpt lat="42.2806357" lon="13.7100987"><ele>843.0</ele><time>2026-05-03T08:53:44.987Z</time></trkpt><trkpt lat="42.2805645" lon="13.7101077"><ele>843.0</ele><time>2026-05-03T08:53:45.988Z</time></trkpt><trkpt lat="42.2804934" lon="13.7101211"><ele>843.0</ele><time>2026-05-03T08:53:46.987Z</time></trkpt><trkpt lat="42.2804293" lon="13.7101234"><ele>843.0</ele><time>2026-05-03T08:53:47.988Z</time></trkpt><trkpt lat="42.280364" lon="13.7101287"><ele>843.0</ele><time>2026-05-03T08:53:48.988Z</time></trkpt><trkpt lat="42.280298" lon="13.710119"><ele>843.0</ele><time>2026-05-03T08:53:49.987Z</time></trkpt><trkpt lat="42.2802315" lon="13.7101215"><ele>844.5714285714286</ele><time>2026-05-03T08:53:50.988Z</time></trkpt><trkpt lat="42.2801681" lon="13.7101257"><ele>846.1428571428571</ele><time>2026-05-03T08:53:51.988Z</time></trkpt><trkpt lat="42.280101" lon="13.710158"><ele>847.7142857142858</ele><time>2026-05-03T08:53:52.987Z</time></trkpt><trkpt lat="42.2800344" lon="13.7101721"><ele>849.2857142857142</ele><time>2026-05-03T08:53:53.988Z</time></trkpt><trkpt lat="42.2799656" lon="13.7101717"><ele>850.8571428571429</ele><time>2026-05-03T08:53:54.987Z</time></trkpt><trkpt lat="42.2798971" lon="13.7101731"><ele>852.4285714285714</ele><time>2026-05-03T08:53:55.988Z</time></trkpt><trkpt lat="42.2798186" lon="13.7101839"><ele>854.0</ele><time>2026-05-03T08:53:56.988Z</time></trkpt><trkpt lat="42.2797465" lon="13.7101881"><ele>855.1666666666667</ele><time>2026-05-03T08:53:57.988Z</time></trkpt><trkpt lat="42.2796654" lon="13.7101834"><ele>856.3333333333334</ele><time>2026-05-03T08:53:58.988Z</time></trkpt><trkpt lat="42.2795804" lon="13.7101746"><ele>857.5</ele><time>2026-05-03T08:53:59.988Z</time></trkpt><trkpt lat="42.2794989" lon="13.7101706"><ele>858.6666666666667</ele><time>2026-05-03T08:54:00.987Z</time></trkpt><trkpt lat="42.279422" lon="13.7101691"><ele>859.8333333333334</ele><time>2026-05-03T08:54:01.987Z</time></trkpt><trkpt lat="42.2793437" lon="13.7101704"><ele>861.0</ele><time>2026-05-03T08:54:02.987Z</time></trkpt><trkpt lat="42.2792725" lon="13.7101567"><ele>861.0</ele><time>2026-05-03T08:54:03.987Z</time></trkpt><trkpt lat="42.2792072" lon="13.710137"><ele>861.0</ele><time>2026-05-03T08:54:04.988Z</time></trkpt><trkpt lat="42.279144" lon="13.7101072"><ele>861.0</ele><time>2026-05-03T08:54:05.988Z</time></trkpt><trkpt lat="42.2790794" lon="13.7100833"><ele>861.0</ele><time>2026-05-03T08:54:06.987Z</time></trkpt><trkpt lat="42.2790099" lon="13.710071"><ele>861.0</ele><time>2026-05-03T08:54:07.987Z</time></trkpt><trkpt lat="42.2789324" lon="13.7100659"><ele>861.0</ele><time>2026-05-03T08:54:08.988Z</time></trkpt><trkpt lat="42.2788534" lon="13.7100801"><ele>861.0</ele><time>2026-05-03T08:54:09.987Z</time></trkpt><trkpt lat="42.2787721" lon="13.7100914"><ele>862.8571428571429</ele><time>2026-05-03T08:54:10.988Z</time></trkpt><trkpt lat="42.2786901" lon="13.7101075"><ele>864.7142857142858</ele><time>2026-05-03T08:54:11.988Z</time></trkpt><trkpt lat="42.278616" lon="13.7101223"><ele>866.5714285714286</ele><time>2026-05-03T08:54:12.988Z</time></trkpt><trkpt lat="42.2785451" lon="13.7101322"><ele>868.4285714285714</ele><time>2026-05-03T08:54:13.988Z</time></trkpt><trkpt lat="42.2784739" lon="13.7101368"><ele>870.2857142857143</ele><time>2026-05-03T08:54:14.987Z</time></trkpt><trkpt lat="42.2784077" lon="13.7101446"><ele>872.1428571428571</ele><time>2026-05-03T08:54:15.988Z</time></trkpt><trkpt lat="42.2783359" lon="13.7101654"><ele>874.0</ele><time>2026-05-03T08:54:16.988Z</time></trkpt><trkpt lat="42.2782649" lon="13.7101937"><ele>873.9999999999999</ele><time>2026-05-03T08:54:17.988Z</time></trkpt><trkpt lat="42.2781848" lon="13.7102237"><ele>874.0</ele><time>2026-05-03T08:54:18.988Z</time></trkpt><trkpt lat="42.2780982" lon="13.7102448"><ele>874.0</ele><time>2026-05-03T08:54:19.988Z</time></trkpt><trkpt lat="42.2780156" lon="13.7102661"><ele>874.0</ele><time>2026-05-03T08:54:20.988Z</time></trkpt><trkpt lat="42.277934" lon="13.7102819"><ele>873.9999999999999</ele><time>2026-05-03T08:54:21.988Z</time></trkpt><trkpt lat="42.2778574" lon="13.7102957"><ele>874.0</ele><time>2026-05-03T08:54:22.987Z</time></trkpt><trkpt lat="42.2777891" lon="13.7103009"><ele>874.8571428571428</ele><time>2026-05-03T08:54:23.988Z</time></trkpt><trkpt lat="42.2777237" lon="13.7103125"><ele>875.7142857142858</ele><time>2026-05-03T08:54:24.987Z</time></trkpt><trkpt lat="42.277655" lon="13.7103201"><ele>876.5714285714286</ele><time>2026-05-03T08:54:25.988Z</time></trkpt><trkpt lat="42.2775839" lon="13.7103268"><ele>877.4285714285713</ele><time>2026-05-03T08:54:26.988Z</time></trkpt><trkpt lat="42.2775161" lon="13.7103472"><ele>878.2857142857142</ele><time>2026-05-03T08:54:27.988Z</time></trkpt><trkpt lat="42.2774552" lon="13.7103701"><ele>879.1428571428571</ele><time>2026-05-03T08:54:28.988Z</time></trkpt><trkpt lat="42.2773708" lon="13.7104444"><ele>880.0</ele><time>2026-05-03T08:54:30.988Z</time></trkpt><trkpt lat="42.2773123" lon="13.7105281"><ele>879.1666666666666</ele><time>2026-05-03T08:54:32.988Z</time></trkpt><trkpt lat="42.2772501" lon="13.7105864"><ele>878.3333333333333</ele><time>2026-05-03T08:54:34.988Z</time></trkpt><trkpt lat="42.2772067" lon="13.7106483"><ele>877.5</ele><time>2026-05-03T08:54:37.987Z</time></trkpt><trkpt lat="42.2771342" lon="13.710626"><ele>876.6666666666667</ele><time>2026-05-03T09:00:45.981Z</time></trkpt><trkpt lat="42.2770307" lon="13.7106087"><ele>875.8333333333334</ele><time>2026-05-03T09:00:48.981Z</time></trkpt><trkpt lat="42.276928" lon="13.7106478"><ele>875.0</ele><time>2026-05-03T09:00:50.98Z</time></trkpt><trkpt lat="42.2768184" lon="13.7107087"><ele>875.0000000000001</ele><time>2026-05-03T09:00:52.981Z</time></trkpt><trkpt lat="42.2767601" lon="13.710741"><ele>875.0</ele><time>2026-05-03T09:00:53.98Z</time></trkpt><trkpt lat="42.2766559" lon="13.7107593"><ele>875.0</ele><time>2026-05-03T09:00:55.98Z</time></trkpt><trkpt lat="42.2765628" lon="13.7107315"><ele>875.0</ele><time>2026-05-03T09:00:57.981Z</time></trkpt><trkpt lat="42.276487" lon="13.7107078"><ele>875.0000000000001</ele><time>2026-05-03T09:00:59.981Z</time></trkpt><trkpt lat="42.2763961" lon="13.7106976"><ele>875.0</ele><time>2026-05-03T09:01:01.98Z</time></trkpt><trkpt lat="42.2762914" lon="13.7106812"><ele>873.4</ele><time>2026-05-03T09:01:03.981Z</time></trkpt><trkpt lat="42.2762003" lon="13.7107153"><ele>871.8</ele><time>2026-05-03T09:01:05.98Z</time></trkpt><trkpt lat="42.2761081" lon="13.7107975"><ele>870.2</ele><time>2026-05-03T09:01:07.98Z</time></trkpt><trkpt lat="42.2760061" lon="13.7108877"><ele>868.6</ele><time>2026-05-03T09:01:09.98Z</time></trkpt><trkpt lat="42.2759494" lon="13.7109267"><ele>867.0</ele><time>2026-05-03T09:01:10.98Z</time></trkpt><trkpt lat="42.275884" lon="13.7109566"><ele>867.0</ele><time>2026-05-03T09:01:11.981Z</time></trkpt><trkpt lat="42.2758103" lon="13.7109859"><ele>867.0</ele><time>2026-05-03T09:01:12.981Z</time></trkpt><trkpt lat="42.2757357" lon="13.7110178"><ele>867.0</ele><time>2026-05-03T09:01:13.98Z</time></trkpt><trkpt lat="42.2756666" lon="13.7110377"><ele>867.0</ele><time>2026-05-03T09:01:14.98Z</time></trkpt><trkpt lat="42.2755982" lon="13.7110668"><ele>867.0</ele><time>2026-05-03T09:01:15.98Z</time></trkpt><trkpt lat="42.2755283" lon="13.7111119"><ele>867.0</ele><time>2026-05-03T09:01:16.981Z</time></trkpt><trkpt lat="42.2754577" lon="13.7111622"><ele>868.0</ele><time>2026-05-03T09:01:17.981Z</time></trkpt><trkpt lat="42.2753827" lon="13.7112051"><ele>869.0</ele><time>2026-05-03T09:01:18.98Z</time></trkpt><trkpt lat="42.2753094" lon="13.7112475"><ele>870.0</ele><time>2026-05-03T09:01:19.98Z</time></trkpt><trkpt lat="42.2752432" lon="13.7112906"><ele>871.0</ele><time>2026-05-03T09:01:20.98Z</time></trkpt><trkpt lat="42.2751825" lon="13.7113468"><ele>872.0</ele><time>2026-05-03T09:01:21.98Z</time></trkpt><trkpt lat="42.2751229" lon="13.7114049"><ele>873.0</ele><time>2026-05-03T09:01:22.981Z</time></trkpt><trkpt lat="42.275068" lon="13.7114676"><ele>872.9999999999999</ele><time>2026-05-03T09:01:23.98Z</time></trkpt><trkpt lat="42.2750147" lon="13.7115321"><ele>873.0</ele><time>2026-05-03T09:01:24.981Z</time></trkpt><trkpt lat="42.2749578" lon="13.7115975"><ele>873.0</ele><time>2026-05-03T09:01:25.98Z</time></trkpt><trkpt lat="42.2748987" lon="13.7116644"><ele>873.0</ele><time>2026-05-03T09:01:26.981Z</time></trkpt><trkpt lat="42.2748402" lon="13.7117317"><ele>873.0</ele><time>2026-05-03T09:01:27.981Z</time></trkpt><trkpt lat="42.2747863" lon="13.7117978"><ele>872.9999999999999</ele><time>2026-05-03T09:01:28.981Z</time></trkpt><trkpt lat="42.2747389" lon="13.7118575"><ele>873.0</ele><time>2026-05-03T09:01:29.98Z</time></trkpt><trkpt lat="42.2746455" lon="13.7119393"><ele>873.1666666666666</ele><time>2026-05-03T09:01:31.98Z</time></trkpt><trkpt lat="42.2745535" lon="13.7120288"><ele>873.3333333333333</ele><time>2026-05-03T09:01:33.981Z</time></trkpt><trkpt lat="42.2745016" lon="13.7120778"><ele>873.5</ele><time>2026-05-03T09:01:34.981Z</time></trkpt><trkpt lat="42.2744475" lon="13.7121234"><ele>873.6666666666666</ele><time>2026-05-03T09:01:35.98Z</time></trkpt><trkpt lat="42.2743456" lon="13.7121926"><ele>873.8333333333333</ele><time>2026-05-03T09:01:37.981Z</time></trkpt><trkpt lat="42.2742651" lon="13.7122192"><ele>874.0</ele><time>2026-05-03T09:01:39.981Z</time></trkpt><trkpt lat="42.2741876" lon="13.7121885"><ele>874.0</ele><time>2026-05-03T09:01:42.98Z</time></trkpt><trkpt lat="42.2741203" lon="13.7122359"><ele>874.0000000000001</ele><time>2026-05-03T09:01:44.98Z</time></trkpt><trkpt lat="42.2740588" lon="13.7123122"><ele>874.0000000000001</ele><time>2026-05-03T09:01:46.98Z</time></trkpt><trkpt lat="42.2740031" lon="13.7124213"><ele>874.0</ele><time>2026-05-03T09:01:48.981Z</time></trkpt><trkpt lat="42.2739411" lon="13.7125417"><ele>874.0</ele><time>2026-05-03T09:01:50.981Z</time></trkpt><trkpt lat="42.2738624" lon="13.7124692"><ele>874.9999999999999</ele><time>2026-05-03T09:01:53.981Z</time></trkpt><trkpt lat="42.2738507" lon="13.7123851"><ele>876.0</ele><time>2026-05-03T09:01:54.981Z</time></trkpt><trkpt lat="42.2738468" lon="13.7122717"><ele>877.0</ele><time>2026-05-03T09:01:55.98Z</time></trkpt><trkpt lat="42.2738361" lon="13.7121377"><ele>878.0</ele><time>2026-05-03T09:01:56.98Z</time></trkpt><trkpt lat="42.2738147" lon="13.7120147"><ele>878.9999999999999</ele><time>2026-05-03T09:01:57.981Z</time></trkpt><trkpt lat="42.2737891" lon="13.7119116"><ele>880.0</ele><time>2026-05-03T09:01:58.98Z</time></trkpt><trkpt lat="42.2737583" lon="13.7118138"><ele>879.9999999999999</ele><time>2026-05-03T09:01:59.98Z</time></trkpt><trkpt lat="42.2737261" lon="13.7117164"><ele>880.0</ele><time>2026-05-03T09:02:00.981Z</time></trkpt><trkpt lat="42.273694" lon="13.7116199"><ele>880.0</ele><time>2026-05-03T09:02:01.981Z</time></trkpt><trkpt lat="42.2736611" lon="13.7115207"><ele>880.0</ele><time>2026-05-03T09:02:02.98Z</time></trkpt><trkpt lat="42.273626" lon="13.7114204"><ele>879.9999999999999</ele><time>2026-05-03T09:02:03.98Z</time></trkpt><trkpt lat="42.2735944" lon="13.7113297"><ele>880.0</ele><time>2026-05-03T09:02:04.98Z</time></trkpt><trkpt lat="42.2735671" lon="13.7112492"><ele>880.0</ele><time>2026-05-03T09:02:05.98Z</time></trkpt><trkpt lat="42.2735074" lon="13.7111138"><ele>880.0</ele><time>2026-05-03T09:02:07.98Z</time></trkpt><trkpt lat="42.2734443" lon="13.7109957"><ele>880.0</ele><time>2026-05-03T09:02:09.981Z</time></trkpt><trkpt lat="42.2733792" lon="13.7108522"><ele>880.0</ele><time>2026-05-03T09:02:11.981Z</time></trkpt><trkpt lat="42.2733447" lon="13.7107713"><ele>880.0</ele><time>2026-05-03T09:02:12.981Z</time></trkpt><trkpt lat="42.2733099" lon="13.7106952"><ele>880.6</ele><time>2026-05-03T09:02:13.981Z</time></trkpt><trkpt lat="42.2732394" lon="13.7105627"><ele>881.2</ele><time>2026-05-03T09:02:15.981Z</time></trkpt><trkpt lat="42.2731649" lon="13.7104566"><ele>881.8</ele><time>2026-05-03T09:02:17.98Z</time></trkpt><trkpt lat="42.2730759" lon="13.7103838"><ele>882.4</ele><time>2026-05-03T09:02:19.98Z</time></trkpt><trkpt lat="42.2729743" lon="13.7103487"><ele>883.0</ele><time>2026-05-03T09:02:21.98Z</time></trkpt><trkpt lat="42.2728745" lon="13.710374"><ele>883.0</ele><time>2026-05-03T09:02:23.981Z</time></trkpt><trkpt lat="42.2727566" lon="13.7103793"><ele>883.0</ele><time>2026-05-03T09:02:25.98Z</time></trkpt><trkpt lat="42.2726305" lon="13.7104034"><ele>883.0</ele><time>2026-05-03T09:02:27.98Z</time></trkpt><trkpt lat="42.2725644" lon="13.7104124"><ele>883.0</ele><time>2026-05-03T09:02:28.981Z</time></trkpt><trkpt lat="42.2724625" lon="13.7104101"><ele>883.0</ele><time>2026-05-03T09:02:30.981Z</time></trkpt><trkpt lat="42.2724025" lon="13.7103612"><ele>883.0</ele><time>2026-05-03T09:02:32.98Z</time></trkpt><trkpt lat="42.2723745" lon="13.7102507"><ele>883.0</ele><time>2026-05-03T09:02:34.98Z</time></trkpt><trkpt lat="42.2723315" lon="13.7101279"><ele>883.0</ele><time>2026-05-03T09:02:36.981Z</time></trkpt><trkpt lat="42.2722662" lon="13.7100608"><ele>883.0</ele><time>2026-05-03T09:02:38.98Z</time></trkpt><trkpt lat="42.2721739" lon="13.71003"><ele>883.0</ele><time>2026-05-03T09:02:40.98Z</time></trkpt><trkpt lat="42.2720771" lon="13.7099731"><ele>882.2</ele><time>2026-05-03T09:02:42.981Z</time></trkpt><trkpt lat="42.2719947" lon="13.7098711"><ele>881.4</ele><time>2026-05-03T09:02:44.98Z</time></trkpt><trkpt lat="42.2719341" lon="13.7097715"><ele>880.6000000000001</ele><time>2026-05-03T09:02:46.981Z</time></trkpt><trkpt lat="42.27187" lon="13.7096831"><ele>879.8000000000001</ele><time>2026-05-03T09:02:48.981Z</time></trkpt><trkpt lat="42.2718186" lon="13.7095808"><ele>879.0</ele><time>2026-05-03T09:02:50.981Z</time></trkpt><trkpt lat="42.2717675" lon="13.7094202"><ele>878.8333333333334</ele><time>2026-05-03T09:02:52.98Z</time></trkpt><trkpt lat="42.2717454" lon="13.7093216"><ele>878.6666666666667</ele><time>2026-05-03T09:02:53.981Z</time></trkpt><trkpt lat="42.2717308" lon="13.7092284"><ele>878.5</ele><time>2026-05-03T09:02:54.981Z</time></trkpt><trkpt lat="42.2717162" lon="13.709143"><ele>878.3333333333334</ele><time>2026-05-03T09:02:55.981Z</time></trkpt><trkpt lat="42.2716802" lon="13.7089898"><ele>878.1666666666667</ele><time>2026-05-03T09:02:57.981Z</time></trkpt><trkpt lat="42.2716537" lon="13.7088595"><ele>878.0</ele><time>2026-05-03T09:02:59.981Z</time></trkpt><trkpt lat="42.2716336" lon="13.708739"><ele>878.0</ele><time>2026-05-03T09:03:01.981Z</time></trkpt><trkpt lat="42.2716093" lon="13.7085938"><ele>878.0</ele><time>2026-05-03T09:03:03.981Z</time></trkpt><trkpt lat="42.2715996" lon="13.7084224"><ele>878.0</ele><time>2026-05-03T09:03:05.981Z</time></trkpt><trkpt lat="42.2715977" lon="13.7083269"><ele>878.0</ele><time>2026-05-03T09:03:06.98Z</time></trkpt><trkpt lat="42.2715944" lon="13.708227"><ele>878.0</ele><time>2026-05-03T09:03:07.981Z</time></trkpt><trkpt lat="42.2715924" lon="13.7081295"><ele>877.5714285714286</ele><time>2026-05-03T09:03:08.98Z</time></trkpt><trkpt lat="42.2715932" lon="13.7080259"><ele>877.1428571428571</ele><time>2026-05-03T09:03:09.98Z</time></trkpt><trkpt lat="42.2715934" lon="13.7079196"><ele>876.7142857142858</ele><time>2026-05-03T09:03:10.981Z</time></trkpt><trkpt lat="42.2715832" lon="13.7078178"><ele>876.2857142857142</ele><time>2026-05-03T09:03:11.98Z</time></trkpt><trkpt lat="42.271568" lon="13.7077163"><ele>875.8571428571429</ele><time>2026-05-03T09:03:12.98Z</time></trkpt><trkpt lat="42.2715579" lon="13.7076156"><ele>875.4285714285714</ele><time>2026-05-03T09:03:13.98Z</time></trkpt><trkpt lat="42.2715576" lon="13.7075302"><ele>875.0</ele><time>2026-05-03T09:03:14.981Z</time></trkpt><trkpt lat="42.2715911" lon="13.7073635"><ele>874.1666666666667</ele><time>2026-05-03T09:03:16.981Z</time></trkpt><trkpt lat="42.2716151" lon="13.707279"><ele>873.3333333333334</ele><time>2026-05-03T09:03:17.98Z</time></trkpt><trkpt lat="42.2716299" lon="13.707193"><ele>872.5</ele><time>2026-05-03T09:03:18.981Z</time></trkpt><trkpt lat="42.2716384" lon="13.707101"><ele>871.6666666666667</ele><time>2026-05-03T09:03:19.981Z</time></trkpt><trkpt lat="42.2716439" lon="13.7070144"><ele>870.8333333333334</ele><time>2026-05-03T09:03:20.98Z</time></trkpt><trkpt lat="42.2716598" lon="13.7068512"><ele>870.0</ele><time>2026-05-03T09:03:22.981Z</time></trkpt><trkpt lat="42.2716679" lon="13.7066821"><ele>868.5</ele><time>2026-05-03T09:03:24.981Z</time></trkpt><trkpt lat="42.2716797" lon="13.7065915"><ele>867.0</ele><time>2026-05-03T09:03:25.981Z</time></trkpt><trkpt lat="42.2716929" lon="13.7065017"><ele>865.5</ele><time>2026-05-03T09:03:26.98Z</time></trkpt><trkpt lat="42.2717011" lon="13.7063534"><ele>864.0</ele><time>2026-05-03T09:03:28.98Z</time></trkpt><trkpt lat="42.2717002" lon="13.7062362"><ele>862.5</ele><time>2026-05-03T09:03:30.981Z</time></trkpt><trkpt lat="42.2717066" lon="13.7061345"><ele>861.0</ele><time>2026-05-03T09:03:32.981Z</time></trkpt><trkpt lat="42.2717128" lon="13.7060274"><ele>859.8333333333334</ele><time>2026-05-03T09:03:35.981Z</time></trkpt><trkpt lat="42.2717182" lon="13.7058919"><ele>858.6666666666667</ele><time>2026-05-03T09:03:37.98Z</time></trkpt><trkpt lat="42.2717075" lon="13.7057217"><ele>857.5</ele><time>2026-05-03T09:03:39.981Z</time></trkpt><trkpt lat="42.2717032" lon="13.7056291"><ele>856.3333333333334</ele><time>2026-05-03T09:03:40.981Z</time></trkpt><trkpt lat="42.2716876" lon="13.7055338"><ele>855.1666666666667</ele><time>2026-05-03T09:03:41.981Z</time></trkpt><trkpt lat="42.2716644" lon="13.7054395"><ele>854.0</ele><time>2026-05-03T09:03:42.981Z</time></trkpt><trkpt lat="42.2716261" lon="13.705308"><ele>853.0</ele><time>2026-05-03T09:03:44.981Z</time></trkpt><trkpt lat="42.2715844" lon="13.7051956"><ele>852.0000000000001</ele><time>2026-05-03T09:03:47.981Z</time></trkpt><trkpt lat="42.2715093" lon="13.7051327"><ele>851.0</ele><time>2026-05-03T09:03:49.981Z</time></trkpt><trkpt lat="42.2714048" lon="13.7050784"><ele>850.0</ele><time>2026-05-03T09:03:51.98Z</time></trkpt><trkpt lat="42.2713304" lon="13.7049825"><ele>849.0</ele><time>2026-05-03T09:03:53.98Z</time></trkpt><trkpt lat="42.2712439" lon="13.7049177"><ele>848.0</ele><time>2026-05-03T09:03:55.98Z</time></trkpt><trkpt lat="42.2711592" lon="13.7048103"><ele>847.0</ele><time>2026-05-03T09:03:57.981Z</time></trkpt><trkpt lat="42.2710896" lon="13.7046894"><ele>846.0</ele><time>2026-05-03T09:03:59.981Z</time></trkpt><trkpt lat="42.2710383" lon="13.7045824"><ele>845.0</ele><time>2026-05-03T09:04:01.981Z</time></trkpt><trkpt lat="42.2709849" lon="13.7044541"><ele>844.0</ele><time>2026-05-03T09:04:03.98Z</time></trkpt><trkpt lat="42.2709274" lon="13.7043262"><ele>842.6</ele><time>2026-05-03T09:04:05.981Z</time></trkpt><trkpt lat="42.2708781" lon="13.7041913"><ele>841.2</ele><time>2026-05-03T09:04:07.98Z</time></trkpt><trkpt lat="42.2708185" lon="13.7040803"><ele>839.8000000000001</ele><time>2026-05-03T09:04:09.981Z</time></trkpt><trkpt lat="42.2707403" lon="13.7040213"><ele>838.4000000000001</ele><time>2026-05-03T09:04:11.98Z</time></trkpt><trkpt lat="42.2706422" lon="13.7039929"><ele>837.0</ele><time>2026-05-03T09:04:13.981Z</time></trkpt><trkpt lat="42.2705539" lon="13.7039666"><ele>836.6</ele><time>2026-05-03T09:04:15.98Z</time></trkpt><trkpt lat="42.2704639" lon="13.7039389"><ele>836.2</ele><time>2026-05-03T09:04:17.981Z</time></trkpt><trkpt lat="42.2703691" lon="13.7039446"><ele>835.8</ele><time>2026-05-03T09:04:19.98Z</time></trkpt><trkpt lat="42.2702477" lon="13.7039477"><ele>835.4</ele><time>2026-05-03T09:04:21.98Z</time></trkpt><trkpt lat="42.2701836" lon="13.703948"><ele>835.0</ele><time>2026-05-03T09:04:22.98Z</time></trkpt><trkpt lat="42.2700808" lon="13.7039308"><ele>835.0</ele><time>2026-05-03T09:04:24.981Z</time></trkpt><trkpt lat="42.2700051" lon="13.7038535"><ele>835.0</ele><time>2026-05-03T09:04:26.981Z</time></trkpt><trkpt lat="42.2699328" lon="13.7037423"><ele>835.0</ele><time>2026-05-03T09:04:28.981Z</time></trkpt><trkpt lat="42.2698267" lon="13.7036639"><ele>835.0</ele><time>2026-05-03T09:04:30.981Z</time></trkpt><trkpt lat="42.2697669" lon="13.703633"><ele>835.0</ele><time>2026-05-03T09:04:31.98Z</time></trkpt><trkpt lat="42.2697072" lon="13.7036032"><ele>833.5714285714287</ele><time>2026-05-03T09:04:32.981Z</time></trkpt><trkpt lat="42.2696451" lon="13.7035728"><ele>832.1428571428571</ele><time>2026-05-03T09:04:33.981Z</time></trkpt><trkpt lat="42.269582" lon="13.7035431"><ele>830.7142857142858</ele><time>2026-05-03T09:04:34.981Z</time></trkpt><trkpt lat="42.2695169" lon="13.7035214"><ele>829.2857142857143</ele><time>2026-05-03T09:04:35.98Z</time></trkpt><trkpt lat="42.269451" lon="13.7035017"><ele>827.8571428571429</ele><time>2026-05-03T09:04:36.98Z</time></trkpt><trkpt lat="42.2693852" lon="13.7034806"><ele>826.4285714285714</ele><time>2026-05-03T09:04:37.981Z</time></trkpt><trkpt lat="42.2693193" lon="13.7034575"><ele>825.0</ele><time>2026-05-03T09:04:38.981Z</time></trkpt><trkpt lat="42.2692533" lon="13.7034318"><ele>825.0</ele><time>2026-05-03T09:04:39.981Z</time></trkpt><trkpt lat="42.2691945" lon="13.7033917"><ele>825.0</ele><time>2026-05-03T09:04:40.98Z</time></trkpt><trkpt lat="42.2690994" lon="13.703298"><ele>825.0</ele><time>2026-05-03T09:04:42.98Z</time></trkpt><trkpt lat="42.2689981" lon="13.7032313"><ele>825.0</ele><time>2026-05-03T09:04:44.981Z</time></trkpt><trkpt lat="42.2688949" lon="13.7031734"><ele>825.0</ele><time>2026-05-03T09:04:46.981Z</time></trkpt><trkpt lat="42.2687949" lon="13.703136"><ele>823.6666666666666</ele><time>2026-05-03T09:04:48.981Z</time></trkpt><trkpt lat="42.2687261" lon="13.7031362"><ele>822.3333333333333</ele><time>2026-05-03T09:04:51.98Z</time></trkpt><trkpt lat="42.2686651" lon="13.7031776"><ele>821.0</ele><time>2026-05-03T09:04:57.98Z</time></trkpt><trkpt lat="42.2686475" lon="13.7032863"><ele>819.6666666666666</ele><time>2026-05-03T09:05:01.981Z</time></trkpt><trkpt lat="42.2685469" lon="13.7033788"><ele>818.3333333333333</ele><time>2026-05-03T09:05:03.98Z</time></trkpt><trkpt lat="42.2684947" lon="13.7034445"><ele>817.0</ele><time>2026-05-03T09:05:04.98Z</time></trkpt><trkpt lat="42.2684426" lon="13.7035251"><ele>817.4999999999999</ele><time>2026-05-03T09:05:05.98Z</time></trkpt><trkpt lat="42.2683931" lon="13.7036188"><ele>818.0</ele><time>2026-05-03T09:05:06.981Z</time></trkpt><trkpt lat="42.2683476" lon="13.7037091"><ele>818.5</ele><time>2026-05-03T09:05:07.98Z</time></trkpt><trkpt lat="42.2683041" lon="13.7037867"><ele>819.0</ele><time>2026-05-03T09:05:08.981Z</time></trkpt><trkpt lat="42.268263" lon="13.703858"><ele>819.4999999999999</ele><time>2026-05-03T09:05:09.98Z</time></trkpt><trkpt lat="42.2682262" lon="13.7039298"><ele>820.0</ele><time>2026-05-03T09:05:10.981Z</time></trkpt><trkpt lat="42.2681572" lon="13.7040748"><ele>820.0</ele><time>2026-05-03T09:05:12.981Z</time></trkpt><trkpt lat="42.268131" lon="13.7041595"><ele>820.0</ele><time>2026-05-03T09:05:13.981Z</time></trkpt><trkpt lat="42.2680863" lon="13.7043183"><ele>820.0</ele><time>2026-05-03T09:05:15.981Z</time></trkpt><trkpt lat="42.2680396" lon="13.7044719"><ele>820.0</ele><time>2026-05-03T09:05:17.981Z</time></trkpt><trkpt lat="42.2680019" lon="13.704605"><ele>820.0</ele><time>2026-05-03T09:05:19.981Z</time></trkpt><trkpt lat="42.2679901" lon="13.7046964"><ele>820.9999999999999</ele><time>2026-05-03T09:05:21.98Z</time></trkpt><trkpt lat="42.2679864" lon="13.7048026"><ele>822.0</ele><time>2026-05-03T09:05:24.98Z</time></trkpt><trkpt lat="42.2679702" lon="13.7048878"><ele>823.0</ele><time>2026-05-03T09:05:26.98Z</time></trkpt><trkpt lat="42.2679463" lon="13.7049941"><ele>824.0</ele><time>2026-05-03T09:05:34.98Z</time></trkpt><trkpt lat="42.2679452" lon="13.7048924"><ele>824.9999999999999</ele><time>2026-05-03T09:05:52.981Z</time></trkpt><trkpt lat="42.2679246" lon="13.7047625"><ele>826.0</ele><time>2026-05-03T09:05:54.981Z</time></trkpt><trkpt lat="42.2679067" lon="13.7046382"><ele>825.9999999999999</ele><time>2026-05-03T09:05:56.98Z</time></trkpt><trkpt lat="42.2678907" lon="13.7045148"><ele>826.0</ele><time>2026-05-03T09:05:58.981Z</time></trkpt><trkpt lat="42.2678809" lon="13.7043975"><ele>826.0</ele><time>2026-05-03T09:06:00.98Z</time></trkpt><trkpt lat="42.2678724" lon="13.7042765"><ele>826.0</ele><time>2026-05-03T09:06:02.981Z</time></trkpt><trkpt lat="42.2678384" lon="13.7041907"><ele>825.9999999999999</ele><time>2026-05-03T09:06:04.981Z</time></trkpt><trkpt lat="42.267755" lon="13.7041416"><ele>826.0</ele><time>2026-05-03T09:06:07.98Z</time></trkpt><trkpt lat="42.2676692" lon="13.7041377"><ele>825.0</ele><time>2026-05-03T09:06:09.981Z</time></trkpt><trkpt lat="42.2675805" lon="13.7041022"><ele>824.0</ele><time>2026-05-03T09:06:11.98Z</time></trkpt><trkpt lat="42.2674849" lon="13.7040004"><ele>823.0</ele><time>2026-05-03T09:06:13.98Z</time></trkpt><trkpt lat="42.267434" lon="13.7039447"><ele>822.0</ele><time>2026-05-03T09:06:14.98Z</time></trkpt><trkpt lat="42.2673244" lon="13.7038268"><ele>821.0</ele><time>2026-05-03T09:06:16.981Z</time></trkpt><trkpt lat="42.267264" lon="13.703763"><ele>821.0000000000001</ele><time>2026-05-03T09:06:17.981Z</time></trkpt><trkpt lat="42.2672033" lon="13.7036975"><ele>821.0</ele><time>2026-05-03T09:06:18.98Z</time></trkpt><trkpt lat="42.2671497" lon="13.7036218"><ele>821.0</ele><time>2026-05-03T09:06:19.98Z</time></trkpt><trkpt lat="42.2670933" lon="13.7035588"><ele>821.0</ele><time>2026-05-03T09:06:20.981Z</time></trkpt><trkpt lat="42.2670371" lon="13.7034927"><ele>821.0</ele><time>2026-05-03T09:06:21.98Z</time></trkpt><trkpt lat="42.2669858" lon="13.7034234"><ele>821.0000000000001</ele><time>2026-05-03T09:06:22.98Z</time></trkpt><trkpt lat="42.2669352" lon="13.7033581"><ele>821.0</ele><time>2026-05-03T09:06:23.98Z</time></trkpt><trkpt lat="42.2668854" lon="13.7032917"><ele>819.5000000000001</ele><time>2026-05-03T09:06:24.981Z</time></trkpt><trkpt lat="42.2668369" lon="13.7032205"><ele>818.0</ele><time>2026-05-03T09:06:25.98Z</time></trkpt><trkpt lat="42.2667964" lon="13.7031509"><ele>816.5</ele><time>2026-05-03T09:06:26.981Z</time></trkpt><trkpt lat="42.2667605" lon="13.7030799"><ele>815.0</ele><time>2026-05-03T09:06:27.98Z</time></trkpt><trkpt lat="42.2666944" lon="13.7029594"><ele>813.5000000000001</ele><time>2026-05-03T09:06:29.981Z</time></trkpt><trkpt lat="42.2666297" lon="13.7028998"><ele>812.0</ele><time>2026-05-03T09:06:31.981Z</time></trkpt><trkpt lat="42.2665296" lon="13.7029259"><ele>811.0000000000001</ele><time>2026-05-03T09:06:35.98Z</time></trkpt><trkpt lat="42.2664193" lon="13.7029949"><ele>810.0</ele><time>2026-05-03T09:06:37.981Z</time></trkpt><trkpt lat="42.2663561" lon="13.7030371"><ele>809.0</ele><time>2026-05-03T09:06:38.981Z</time></trkpt><trkpt lat="42.2662841" lon="13.7030872"><ele>808.0</ele><time>2026-05-03T09:06:39.981Z</time></trkpt><trkpt lat="42.2662113" lon="13.7031415"><ele>807.0000000000001</ele><time>2026-05-03T09:06:40.98Z</time></trkpt><trkpt lat="42.2661436" lon="13.7031966"><ele>806.0</ele><time>2026-05-03T09:06:41.981Z</time></trkpt><trkpt lat="42.266078" lon="13.7032499"><ele>806.0000000000001</ele><time>2026-05-03T09:06:42.981Z</time></trkpt><trkpt lat="42.2660124" lon="13.7033025"><ele>806.0</ele><time>2026-05-03T09:06:43.981Z</time></trkpt><trkpt lat="42.2659473" lon="13.7033536"><ele>806.0</ele><time>2026-05-03T09:06:44.981Z</time></trkpt><trkpt lat="42.2658794" lon="13.703391"><ele>806.0</ele><time>2026-05-03T09:06:45.981Z</time></trkpt><trkpt lat="42.2658004" lon="13.703413"><ele>806.0000000000001</ele><time>2026-05-03T09:06:46.981Z</time></trkpt><trkpt lat="42.2657057" lon="13.7034264"><ele>806.0</ele><time>2026-05-03T09:06:47.98Z</time></trkpt><trkpt lat="42.2656004" lon="13.7034301"><ele>805.8</ele><time>2026-05-03T09:06:48.981Z</time></trkpt><trkpt lat="42.2654946" lon="13.7034335"><ele>805.5999999999999</ele><time>2026-05-03T09:06:49.981Z</time></trkpt><trkpt lat="42.2653918" lon="13.7034404"><ele>805.4</ele><time>2026-05-03T09:06:50.981Z</time></trkpt><trkpt lat="42.2652914" lon="13.7034435"><ele>805.2</ele><time>2026-05-03T09:06:51.981Z</time></trkpt><trkpt lat="42.2651959" lon="13.7034491"><ele>805.0</ele><time>2026-05-03T09:06:52.98Z</time></trkpt><trkpt lat="42.2651104" lon="13.7034566"><ele>804.9999999999999</ele><time>2026-05-03T09:06:53.981Z</time></trkpt><trkpt lat="42.2650239" lon="13.703465"><ele>805.0</ele><time>2026-05-03T09:06:54.981Z</time></trkpt><trkpt lat="42.264937" lon="13.7034711"><ele>805.0</ele><time>2026-05-03T09:06:55.98Z</time></trkpt><trkpt lat="42.2648491" lon="13.703468"><ele>805.0</ele><time>2026-05-03T09:06:56.98Z</time></trkpt><trkpt lat="42.2647603" lon="13.7034525"><ele>804.9999999999999</ele><time>2026-05-03T09:06:57.98Z</time></trkpt><trkpt lat="42.2646712" lon="13.7034273"><ele>805.0</ele><time>2026-05-03T09:06:58.981Z</time></trkpt><trkpt lat="42.2645815" lon="13.7033927"><ele>805.3333333333333</ele><time>2026-05-03T09:06:59.981Z</time></trkpt><trkpt lat="42.2644948" lon="13.7033575"><ele>805.6666666666666</ele><time>2026-05-03T09:07:00.98Z</time></trkpt><trkpt lat="42.2644122" lon="13.7033189"><ele>806.0</ele><time>2026-05-03T09:07:01.981Z</time></trkpt><trkpt lat="42.264332" lon="13.703277"><ele>806.3333333333333</ele><time>2026-05-03T09:07:02.98Z</time></trkpt><trkpt lat="42.2642559" lon="13.7032311"><ele>806.6666666666666</ele><time>2026-05-03T09:07:03.98Z</time></trkpt><trkpt lat="42.2641897" lon="13.7031847"><ele>807.0</ele><time>2026-05-03T09:07:04.981Z</time></trkpt><trkpt lat="42.264128" lon="13.7031385"><ele>807.0</ele><time>2026-05-03T09:07:05.98Z</time></trkpt><trkpt lat="42.2640735" lon="13.7030889"><ele>807.0</ele><time>2026-05-03T09:07:06.98Z</time></trkpt><trkpt lat="42.2639897" lon="13.7029739"><ele>807.0</ele><time>2026-05-03T09:07:08.981Z</time></trkpt><trkpt lat="42.2639266" lon="13.7028279"><ele>807.0</ele><time>2026-05-03T09:07:10.981Z</time></trkpt><trkpt lat="42.2638915" lon="13.7027316"><ele>807.0</ele><time>2026-05-03T09:07:11.981Z</time></trkpt><trkpt lat="42.2638542" lon="13.7026318"><ele>806.7142857142858</ele><time>2026-05-03T09:07:12.98Z</time></trkpt><trkpt lat="42.263821" lon="13.7025339"><ele>806.4285714285714</ele><time>2026-05-03T09:07:13.981Z</time></trkpt><trkpt lat="42.2637954" lon="13.702437"><ele>806.1428571428571</ele><time>2026-05-03T09:07:14.981Z</time></trkpt><trkpt lat="42.2637718" lon="13.7023443"><ele>805.8571428571429</ele><time>2026-05-03T09:07:15.98Z</time></trkpt><trkpt lat="42.2637463" lon="13.7022565"><ele>805.5714285714286</ele><time>2026-05-03T09:07:16.98Z</time></trkpt><trkpt lat="42.2637148" lon="13.7021746"><ele>805.2857142857143</ele><time>2026-05-03T09:07:17.981Z</time></trkpt><trkpt lat="42.263676" lon="13.7020992"><ele>805.0</ele><time>2026-05-03T09:07:18.98Z</time></trkpt><trkpt lat="42.2636285" lon="13.7020252"><ele>804.9999999999999</ele><time>2026-05-03T09:07:19.981Z</time></trkpt><trkpt lat="42.2635789" lon="13.7019501"><ele>805.0</ele><time>2026-05-03T09:07:20.981Z</time></trkpt><trkpt lat="42.2635333" lon="13.7018766"><ele>805.0</ele><time>2026-05-03T09:07:21.981Z</time></trkpt><trkpt lat="42.2634888" lon="13.7018062"><ele>805.0</ele><time>2026-05-03T09:07:22.981Z</time></trkpt><trkpt lat="42.2634475" lon="13.7017419"><ele>804.9999999999999</ele><time>2026-05-03T09:07:23.981Z</time></trkpt><trkpt lat="42.2633795" lon="13.7016495"><ele>805.0</ele><time>2026-05-03T09:07:25.981Z</time></trkpt><trkpt lat="42.2632957" lon="13.7016394"><ele>804.6</ele><time>2026-05-03T09:07:27.98Z</time></trkpt><trkpt lat="42.26319" lon="13.7016615"><ele>804.2</ele><time>2026-05-03T09:07:29.98Z</time></trkpt><trkpt lat="42.2630622" lon="13.7016681"><ele>803.8</ele><time>2026-05-03T09:07:31.98Z</time></trkpt><trkpt lat="42.2629925" lon="13.7016732"><ele>803.4</ele><time>2026-05-03T09:07:32.981Z</time></trkpt><trkpt lat="42.2629217" lon="13.7016961"><ele>803.0</ele><time>2026-05-03T09:07:33.981Z</time></trkpt><trkpt lat="42.2628514" lon="13.7017547"><ele>804.0</ele><time>2026-05-03T09:07:34.981Z</time></trkpt><trkpt lat="42.2627697" lon="13.7018396"><ele>805.0</ele><time>2026-05-03T09:07:35.981Z</time></trkpt><trkpt lat="42.2626747" lon="13.7019261"><ele>806.0</ele><time>2026-05-03T09:07:36.981Z</time></trkpt><trkpt lat="42.2625789" lon="13.7020025"><ele>807.0</ele><time>2026-05-03T09:07:37.981Z</time></trkpt><trkpt lat="42.2624916" lon="13.702067"><ele>808.0</ele><time>2026-05-03T09:07:38.98Z</time></trkpt><trkpt lat="42.2624057" lon="13.7021215"><ele>808.0</ele><time>2026-05-03T09:07:39.98Z</time></trkpt><trkpt lat="42.2623126" lon="13.7021729"><ele>808.0</ele><time>2026-05-03T09:07:40.981Z</time></trkpt><trkpt lat="42.2622177" lon="13.7022268"><ele>808.0</ele><time>2026-05-03T09:07:41.98Z</time></trkpt><trkpt lat="42.2621203" lon="13.7023066"><ele>808.0</ele><time>2026-05-03T09:07:42.98Z</time></trkpt><trkpt lat="42.2620219" lon="13.7024072"><ele>808.0</ele><time>2026-05-03T09:07:43.98Z</time></trkpt><trkpt lat="42.2619247" lon="13.702508"><ele>809.5</ele><time>2026-05-03T09:07:44.981Z</time></trkpt><trkpt lat="42.2618291" lon="13.7026117"><ele>811.0</ele><time>2026-05-03T09:07:45.981Z</time></trkpt><trkpt lat="42.2617317" lon="13.7027064"><ele>812.5</ele><time>2026-05-03T09:07:46.981Z</time></trkpt><trkpt lat="42.2616423" lon="13.7027902"><ele>814.0</ele><time>2026-05-03T09:07:47.98Z</time></trkpt><trkpt lat="42.2615512" lon="13.7028706"><ele>814.0</ele><time>2026-05-03T09:07:48.981Z</time></trkpt><trkpt lat="42.2614504" lon="13.7029432"><ele>814.0</ele><time>2026-05-03T09:07:49.98Z</time></trkpt><trkpt lat="42.2613477" lon="13.7030159"><ele>814.0</ele><time>2026-05-03T09:07:50.981Z</time></trkpt><trkpt lat="42.2612397" lon="13.7030888"><ele>814.0</ele><time>2026-05-03T09:07:51.981Z</time></trkpt><trkpt lat="42.2611292" lon="13.7031647"><ele>818.0</ele><time>2026-05-03T09:07:52.98Z</time></trkpt><trkpt lat="42.2610212" lon="13.7032329"><ele>822.0</ele><time>2026-05-03T09:07:53.981Z</time></trkpt><trkpt lat="42.2609132" lon="13.7032994"><ele>826.0</ele><time>2026-05-03T09:07:54.981Z</time></trkpt><trkpt lat="42.2608026" lon="13.7033496"><ele>830.0</ele><time>2026-05-03T09:07:55.981Z</time></trkpt><trkpt lat="42.2606952" lon="13.7033969"><ele>830.0</ele><time>2026-05-03T09:07:56.98Z</time></trkpt><trkpt lat="42.2605927" lon="13.7034313"><ele>830.0</ele><time>2026-05-03T09:07:57.981Z</time></trkpt><trkpt lat="42.2604903" lon="13.703457"><ele>830.0</ele><time>2026-05-03T09:07:58.981Z</time></trkpt><trkpt lat="42.2603851" lon="13.7034836"><ele>830.0</ele><time>2026-05-03T09:07:59.981Z</time></trkpt><trkpt lat="42.2602771" lon="13.7035102"><ele>830.0</ele><time>2026-05-03T09:08:00.981Z</time></trkpt><trkpt lat="42.2601763" lon="13.7035359"><ele>830.0</ele><time>2026-05-03T09:08:01.981Z</time></trkpt><trkpt lat="42.260095" lon="13.7035479"><ele>830.0</ele><time>2026-05-03T09:08:02.981Z</time></trkpt><trkpt lat="42.260032" lon="13.7035443"><ele>830.0</ele><time>2026-05-03T09:08:03.98Z</time></trkpt><trkpt lat="42.2599519" lon="13.7034684"><ele>830.0</ele><time>2026-05-03T09:08:05.981Z</time></trkpt><trkpt lat="42.2599252" lon="13.7033092"><ele>830.0</ele><time>2026-05-03T09:08:07.981Z</time></trkpt><trkpt lat="42.2599109" lon="13.703181"><ele>830.0</ele><time>2026-05-03T09:08:08.981Z</time></trkpt><trkpt lat="42.2598984" lon="13.703025"><ele>830.0</ele><time>2026-05-03T09:08:09.981Z</time></trkpt><trkpt lat="42.2598891" lon="13.7028588"><ele>830.0</ele><time>2026-05-03T09:08:10.981Z</time></trkpt><trkpt lat="42.2598765" lon="13.7026947"><ele>830.0</ele><time>2026-05-03T09:08:11.98Z</time></trkpt><trkpt lat="42.2598648" lon="13.7025312"><ele>831.75</ele><time>2026-05-03T09:08:12.98Z</time></trkpt><trkpt lat="42.2598633" lon="13.702365"><ele>833.5</ele><time>2026-05-03T09:08:13.981Z</time></trkpt><trkpt lat="42.2598767" lon="13.7022066"><ele>835.25</ele><time>2026-05-03T09:08:14.98Z</time></trkpt><trkpt lat="42.2598965" lon="13.7020608"><ele>837.0</ele><time>2026-05-03T09:08:15.981Z</time></trkpt><trkpt lat="42.2599102" lon="13.7019274"><ele>836.0</ele><time>2026-05-03T09:08:16.981Z</time></trkpt><trkpt lat="42.2599168" lon="13.7018046"><ele>835.0</ele><time>2026-05-03T09:08:17.981Z</time></trkpt><trkpt lat="42.259908" lon="13.7016842"><ele>834.0</ele><time>2026-05-03T09:08:18.98Z</time></trkpt><trkpt lat="42.259884" lon="13.7015731"><ele>833.0</ele><time>2026-05-03T09:08:19.98Z</time></trkpt><trkpt lat="42.2598459" lon="13.7014806"><ele>832.0</ele><time>2026-05-03T09:08:20.98Z</time></trkpt><trkpt lat="42.2597928" lon="13.7014089"><ele>831.0</ele><time>2026-05-03T09:08:21.981Z</time></trkpt><trkpt lat="42.2597178" lon="13.7013437"><ele>831.0</ele><time>2026-05-03T09:08:22.981Z</time></trkpt><trkpt lat="42.2596207" lon="13.7012812"><ele>831.0</ele><time>2026-05-03T09:08:23.98Z</time></trkpt><trkpt lat="42.259518" lon="13.7012157"><ele>831.0</ele><time>2026-05-03T09:08:24.981Z</time></trkpt><trkpt lat="42.2594055" lon="13.7011461"><ele>831.0</ele><time>2026-05-03T09:08:25.981Z</time></trkpt><trkpt lat="42.2592955" lon="13.7010735"><ele>835.0</ele><time>2026-05-03T09:08:26.981Z</time></trkpt><trkpt lat="42.2591967" lon="13.7010132"><ele>839.0</ele><time>2026-05-03T09:08:27.98Z</time></trkpt><trkpt lat="42.2590987" lon="13.7009648"><ele>843.0</ele><time>2026-05-03T09:08:28.98Z</time></trkpt><trkpt lat="42.2590045" lon="13.700925"><ele>847.0</ele><time>2026-05-03T09:08:29.98Z</time></trkpt><trkpt lat="42.2589162" lon="13.7008884"><ele>851.0</ele><time>2026-05-03T09:08:30.98Z</time></trkpt><trkpt lat="42.2588382" lon="13.7008463"><ele>851.0000000000001</ele><time>2026-05-03T09:08:31.98Z</time></trkpt><trkpt lat="42.2587601" lon="13.7008099"><ele>851.0</ele><time>2026-05-03T09:08:32.98Z</time></trkpt><trkpt lat="42.2586872" lon="13.7007777"><ele>851.0</ele><time>2026-05-03T09:08:33.98Z</time></trkpt><trkpt lat="42.2586117" lon="13.7007425"><ele>851.0</ele><time>2026-05-03T09:08:34.981Z</time></trkpt><trkpt lat="42.2585359" lon="13.7007078"><ele>851.0000000000001</ele><time>2026-05-03T09:08:35.98Z</time></trkpt><trkpt lat="42.2584584" lon="13.7006755"><ele>851.0</ele><time>2026-05-03T09:08:36.98Z</time></trkpt><trkpt lat="42.2583793" lon="13.7006478"><ele>851.0000000000001</ele><time>2026-05-03T09:08:37.981Z</time></trkpt><trkpt lat="42.2583026" lon="13.7006208"><ele>851.0</ele><time>2026-05-03T09:08:38.981Z</time></trkpt><trkpt lat="42.2582263" lon="13.7005935"><ele>851.0</ele><time>2026-05-03T09:08:39.98Z</time></trkpt><trkpt lat="42.2581486" lon="13.700571"><ele>851.0</ele><time>2026-05-03T09:08:40.981Z</time></trkpt><trkpt lat="42.2580682" lon="13.7005567"><ele>851.0000000000001</ele><time>2026-05-03T09:08:41.98Z</time></trkpt><trkpt lat="42.2579875" lon="13.70054"><ele>851.0</ele><time>2026-05-03T09:08:42.98Z</time></trkpt><trkpt lat="42.2578926" lon="13.7005352"><ele>852.5999999999999</ele><time>2026-05-03T09:08:43.981Z</time></trkpt><trkpt lat="42.2577905" lon="13.7005463"><ele>854.2</ele><time>2026-05-03T09:08:44.98Z</time></trkpt><trkpt lat="42.2576873" lon="13.7005749"><ele>855.8000000000001</ele><time>2026-05-03T09:08:45.981Z</time></trkpt><trkpt lat="42.2575826" lon="13.7006204"><ele>857.4000000000001</ele><time>2026-05-03T09:08:46.981Z</time></trkpt><trkpt lat="42.2574796" lon="13.7006815"><ele>859.0</ele><time>2026-05-03T09:08:47.981Z</time></trkpt><trkpt lat="42.2573903" lon="13.7007331"><ele>858.9999999999999</ele><time>2026-05-03T09:08:48.981Z</time></trkpt><trkpt lat="42.2573121" lon="13.7007772"><ele>859.0</ele><time>2026-05-03T09:08:49.981Z</time></trkpt><trkpt lat="42.2572455" lon="13.7008049"><ele>859.0</ele><time>2026-05-03T09:08:50.981Z</time></trkpt><trkpt lat="42.257172" lon="13.7007793"><ele>859.0</ele><time>2026-05-03T09:08:52.98Z</time></trkpt><trkpt lat="42.2571574" lon="13.7006584"><ele>858.9999999999999</ele><time>2026-05-03T09:08:54.981Z</time></trkpt><trkpt lat="42.2571483" lon="13.7005494"><ele>859.0</ele><time>2026-05-03T09:08:55.98Z</time></trkpt><trkpt lat="42.2571182" lon="13.7004364"><ele>858.0</ele><time>2026-05-03T09:08:56.98Z</time></trkpt><trkpt lat="42.2570908" lon="13.7003344"><ele>857.0000000000001</ele><time>2026-05-03T09:08:57.98Z</time></trkpt><trkpt lat="42.2570634" lon="13.7002331"><ele>856.0000000000001</ele><time>2026-05-03T09:08:58.981Z</time></trkpt><trkpt lat="42.2569832" lon="13.7001376"><ele>855.0</ele><time>2026-05-03T09:09:00.981Z</time></trkpt><trkpt lat="42.2568316" lon="13.7001964"><ele>854.0</ele><time>2026-05-03T09:09:02.981Z</time></trkpt><trkpt lat="42.2567295" lon="13.700248"><ele>853.5</ele><time>2026-05-03T09:09:03.981Z</time></trkpt><trkpt lat="42.2566251" lon="13.7002848"><ele>853.0</ele><time>2026-05-03T09:09:04.98Z</time></trkpt><trkpt lat="42.256522" lon="13.7003227"><ele>852.5</ele><time>2026-05-03T09:09:05.981Z</time></trkpt><trkpt lat="42.2564089" lon="13.7003868"><ele>852.0</ele><time>2026-05-03T09:09:06.981Z</time></trkpt><trkpt lat="42.2562935" lon="13.7004716"><ele>852.0</ele><time>2026-05-03T09:09:07.98Z</time></trkpt><trkpt lat="42.2561672" lon="13.7005597"><ele>852.0</ele><time>2026-05-03T09:09:08.981Z</time></trkpt><trkpt lat="42.2560341" lon="13.7006543"><ele>852.0</ele><time>2026-05-03T09:09:09.98Z</time></trkpt><trkpt lat="42.2559051" lon="13.7007502"><ele>852.0</ele><time>2026-05-03T09:09:10.981Z</time></trkpt><trkpt lat="42.2557786" lon="13.700838"><ele>852.0</ele><time>2026-05-03T09:09:11.98Z</time></trkpt><trkpt lat="42.2556539" lon="13.7009209"><ele>852.0</ele><time>2026-05-03T09:09:12.981Z</time></trkpt><trkpt lat="42.255531" lon="13.7010067"><ele>852.0</ele><time>2026-05-03T09:09:13.981Z</time></trkpt><trkpt lat="42.2554086" lon="13.7010867"><ele>852.0</ele><time>2026-05-03T09:09:14.981Z</time></trkpt><trkpt lat="42.2552891" lon="13.7011404"><ele>851.5</ele><time>2026-05-03T09:09:15.98Z</time></trkpt><trkpt lat="42.2551614" lon="13.7011863"><ele>851.0</ele><time>2026-05-03T09:09:16.981Z</time></trkpt><trkpt lat="42.2550288" lon="13.7012283"><ele>850.5</ele><time>2026-05-03T09:09:17.981Z</time></trkpt><trkpt lat="42.2548951" lon="13.7012671"><ele>850.0</ele><time>2026-05-03T09:09:18.981Z</time></trkpt><trkpt lat="42.2547612" lon="13.7012911"><ele>850.0</ele><time>2026-05-03T09:09:19.98Z</time></trkpt><trkpt lat="42.2546258" lon="13.7012995"><ele>850.0</ele><time>2026-05-03T09:09:20.981Z</time></trkpt><trkpt lat="42.2544935" lon="13.7013057"><ele>850.0</ele><time>2026-05-03T09:09:21.981Z</time></trkpt><trkpt lat="42.2543624" lon="13.7012952"><ele>850.0</ele><time>2026-05-03T09:09:22.98Z</time></trkpt><trkpt lat="42.2542302" lon="13.7012897"><ele>850.0</ele><time>2026-05-03T09:09:23.981Z</time></trkpt><trkpt lat="42.2541008" lon="13.701292"><ele>850.0</ele><time>2026-05-03T09:09:24.98Z</time></trkpt><trkpt lat="42.2539841" lon="13.7012883"><ele>850.0</ele><time>2026-05-03T09:09:25.98Z</time></trkpt><trkpt lat="42.2538942" lon="13.7012951"><ele>850.0</ele><time>2026-05-03T09:09:26.981Z</time></trkpt><trkpt lat="42.2538046" lon="13.7013323"><ele>850.0</ele><time>2026-05-03T09:09:27.981Z</time></trkpt><trkpt lat="42.2537055" lon="13.7013881"><ele>845.0</ele><time>2026-05-03T09:09:28.981Z</time></trkpt><trkpt lat="42.2536" lon="13.701433"><ele>840.0</ele><time>2026-05-03T09:09:29.981Z</time></trkpt><trkpt lat="42.2534913" lon="13.7014809"><ele>835.0</ele><time>2026-05-03T09:09:30.981Z</time></trkpt><trkpt lat="42.2533896" lon="13.7015505"><ele>830.0</ele><time>2026-05-03T09:09:31.98Z</time></trkpt><trkpt lat="42.2532917" lon="13.7016448"><ele>830.0</ele><time>2026-05-03T09:09:32.981Z</time></trkpt><trkpt lat="42.2531928" lon="13.7017442"><ele>830.0</ele><time>2026-05-03T09:09:33.981Z</time></trkpt><trkpt lat="42.2530932" lon="13.7018343"><ele>830.0</ele><time>2026-05-03T09:09:34.981Z</time></trkpt><trkpt lat="42.2529868" lon="13.7019244"><ele>830.0</ele><time>2026-05-03T09:09:35.981Z</time></trkpt><trkpt lat="42.252876" lon="13.7020271"><ele>828.25</ele><time>2026-05-03T09:09:36.981Z</time></trkpt><trkpt lat="42.252768" lon="13.7021282"><ele>826.5</ele><time>2026-05-03T09:09:37.981Z</time></trkpt><trkpt lat="42.2526608" lon="13.7022265"><ele>824.75</ele><time>2026-05-03T09:09:38.981Z</time></trkpt><trkpt lat="42.2525565" lon="13.7023234"><ele>823.0</ele><time>2026-05-03T09:09:39.981Z</time></trkpt><trkpt lat="42.2524548" lon="13.7024196"><ele>823.0</ele><time>2026-05-03T09:09:40.98Z</time></trkpt><trkpt lat="42.2523564" lon="13.7025145"><ele>823.0</ele><time>2026-05-03T09:09:41.981Z</time></trkpt><trkpt lat="42.2522595" lon="13.702607"><ele>823.0</ele><time>2026-05-03T09:09:42.98Z</time></trkpt><trkpt lat="42.2521601" lon="13.7026944"><ele>823.0</ele><time>2026-05-03T09:09:43.98Z</time></trkpt><trkpt lat="42.2520605" lon="13.7027761"><ele>822.5</ele><time>2026-05-03T09:09:44.981Z</time></trkpt><trkpt lat="42.2519587" lon="13.7028453"><ele>822.0</ele><time>2026-05-03T09:09:45.98Z</time></trkpt><trkpt lat="42.2518518" lon="13.7028993"><ele>821.5</ele><time>2026-05-03T09:09:46.981Z</time></trkpt><trkpt lat="42.2517359" lon="13.7029362"><ele>821.0</ele><time>2026-05-03T09:09:47.98Z</time></trkpt><trkpt lat="42.2516115" lon="13.7029629"><ele>821.0</ele><time>2026-05-03T09:09:48.981Z</time></trkpt><trkpt lat="42.2514886" lon="13.702985"><ele>821.0</ele><time>2026-05-03T09:09:49.981Z</time></trkpt><trkpt lat="42.251374" lon="13.7030007"><ele>821.0</ele><time>2026-05-03T09:09:50.981Z</time></trkpt><trkpt lat="42.2512759" lon="13.7030059"><ele>821.0</ele><time>2026-05-03T09:09:51.98Z</time></trkpt><trkpt lat="42.2511913" lon="13.7030069"><ele>821.0</ele><time>2026-05-03T09:09:52.981Z</time></trkpt><trkpt lat="42.2511094" lon="13.7030202"><ele>819.4</ele><time>2026-05-03T09:09:53.98Z</time></trkpt><trkpt lat="42.2510265" lon="13.7030583"><ele>817.8</ele><time>2026-05-03T09:09:54.981Z</time></trkpt><trkpt lat="42.2509291" lon="13.7031219"><ele>816.1999999999999</ele><time>2026-05-03T09:09:55.98Z</time></trkpt><trkpt lat="42.2508256" lon="13.7031981"><ele>814.5999999999999</ele><time>2026-05-03T09:09:56.981Z</time></trkpt><trkpt lat="42.2507192" lon="13.7032807"><ele>813.0</ele><time>2026-05-03T09:09:57.98Z</time></trkpt><trkpt lat="42.2506175" lon="13.7033622"><ele>811.75</ele><time>2026-05-03T09:09:58.981Z</time></trkpt><trkpt lat="42.2505175" lon="13.7034496"><ele>810.5</ele><time>2026-05-03T09:09:59.98Z</time></trkpt><trkpt lat="42.250426" lon="13.7035406"><ele>809.25</ele><time>2026-05-03T09:10:00.981Z</time></trkpt><trkpt lat="42.2503418" lon="13.7036434"><ele>808.0</ele><time>2026-05-03T09:10:01.981Z</time></trkpt><trkpt lat="42.2502639" lon="13.7037491"><ele>808.0</ele><time>2026-05-03T09:10:02.981Z</time></trkpt><trkpt lat="42.2501952" lon="13.7038377"><ele>808.0</ele><time>2026-05-03T09:10:03.98Z</time></trkpt><trkpt lat="42.2501477" lon="13.703907"><ele>808.0</ele><time>2026-05-03T09:10:04.98Z</time></trkpt><trkpt lat="42.2500877" lon="13.704064"><ele>808.0</ele><time>2026-05-03T09:10:06.981Z</time></trkpt><trkpt lat="42.2500538" lon="13.7041506"><ele>808.0</ele><time>2026-05-03T09:10:07.98Z</time></trkpt><trkpt lat="42.2500069" lon="13.7042815"><ele>807.9999999999999</ele><time>2026-05-03T09:10:09.981Z</time></trkpt><trkpt lat="42.2499441" lon="13.7043744"><ele>808.0</ele><time>2026-05-03T09:10:24.98Z</time></trkpt><trkpt lat="42.24991" lon="13.7044659"><ele>808.0</ele><time>2026-05-03T09:10:26.98Z</time></trkpt><trkpt lat="42.249869" lon="13.7045732"><ele>808.0</ele><time>2026-05-03T09:10:28.98Z</time></trkpt><trkpt lat="42.2498348" lon="13.7047214"><ele>807.9999999999999</ele><time>2026-05-03T09:10:30.98Z</time></trkpt><trkpt lat="42.2498149" lon="13.7048074"><ele>808.0</ele><time>2026-05-03T09:10:31.981Z</time></trkpt><trkpt lat="42.2497962" lon="13.7048897"><ele>807.8571428571429</ele><time>2026-05-03T09:10:32.98Z</time></trkpt><trkpt lat="42.2497741" lon="13.7049749"><ele>807.7142857142857</ele><time>2026-05-03T09:10:33.981Z</time></trkpt><trkpt lat="42.2497473" lon="13.7050603"><ele>807.5714285714287</ele><time>2026-05-03T09:10:34.981Z</time></trkpt><trkpt lat="42.2497134" lon="13.7051423"><ele>807.4285714285714</ele><time>2026-05-03T09:10:35.98Z</time></trkpt><trkpt lat="42.2496676" lon="13.7052262"><ele>807.2857142857143</ele><time>2026-05-03T09:10:36.98Z</time></trkpt><trkpt lat="42.2496106" lon="13.7053037"><ele>807.1428571428572</ele><time>2026-05-03T09:10:37.981Z</time></trkpt><trkpt lat="42.2495444" lon="13.7053774"><ele>807.0</ele><time>2026-05-03T09:10:38.98Z</time></trkpt><trkpt lat="42.2494744" lon="13.7054481"><ele>809.6666666666666</ele><time>2026-05-03T09:10:39.981Z</time></trkpt><trkpt lat="42.2494086" lon="13.7055157"><ele>812.3333333333333</ele><time>2026-05-03T09:10:40.981Z</time></trkpt><trkpt lat="42.2493417" lon="13.7055764"><ele>815.0</ele><time>2026-05-03T09:10:41.981Z</time></trkpt><trkpt lat="42.2492746" lon="13.7056261"><ele>817.6666666666666</ele><time>2026-05-03T09:10:42.981Z</time></trkpt><trkpt lat="42.249209" lon="13.7056618"><ele>820.3333333333333</ele><time>2026-05-03T09:10:43.98Z</time></trkpt><trkpt lat="42.2490947" lon="13.7057458"><ele>823.0</ele><time>2026-05-03T09:10:45.981Z</time></trkpt><trkpt lat="42.2490295" lon="13.7058065"><ele>822.2</ele><time>2026-05-03T09:10:46.981Z</time></trkpt><trkpt lat="42.2489546" lon="13.7058782"><ele>821.4</ele><time>2026-05-03T09:10:47.98Z</time></trkpt><trkpt lat="42.2488743" lon="13.705949"><ele>820.6</ele><time>2026-05-03T09:10:48.98Z</time></trkpt><trkpt lat="42.2487912" lon="13.7060254"><ele>819.8000000000001</ele><time>2026-05-03T09:10:49.981Z</time></trkpt><trkpt lat="42.2487103" lon="13.7061047"><ele>819.0</ele><time>2026-05-03T09:10:50.98Z</time></trkpt><trkpt lat="42.2486356" lon="13.7061782"><ele>821.1666666666666</ele><time>2026-05-03T09:10:51.981Z</time></trkpt><trkpt lat="42.2485756" lon="13.7062352"><ele>823.3333333333333</ele><time>2026-05-03T09:10:52.981Z</time></trkpt><trkpt lat="42.248519" lon="13.7062867"><ele>825.5</ele><time>2026-05-03T09:10:53.981Z</time></trkpt><trkpt lat="42.2484256" lon="13.7063677"><ele>827.6666666666666</ele><time>2026-05-03T09:10:55.981Z</time></trkpt><trkpt lat="42.2483587" lon="13.7064593"><ele>829.8333333333333</ele><time>2026-05-03T09:10:57.981Z</time></trkpt><trkpt lat="42.248312" lon="13.7065763"><ele>832.0</ele><time>2026-05-03T09:10:59.981Z</time></trkpt><trkpt lat="42.2482888" lon="13.7066608"><ele>832.0</ele><time>2026-05-03T09:11:00.98Z</time></trkpt><trkpt lat="42.2482676" lon="13.70675"><ele>832.0</ele><time>2026-05-03T09:11:01.98Z</time></trkpt><trkpt lat="42.2482621" lon="13.7069084"><ele>832.0</ele><time>2026-05-03T09:11:03.981Z</time></trkpt><trkpt lat="42.2482793" lon="13.7070646"><ele>832.0</ele><time>2026-05-03T09:11:05.98Z</time></trkpt><trkpt lat="42.2482961" lon="13.7072045"><ele>832.0</ele><time>2026-05-03T09:11:07.98Z</time></trkpt><trkpt lat="42.2482817" lon="13.7073616"><ele>832.0</ele><time>2026-05-03T09:11:09.981Z</time></trkpt><trkpt lat="42.2482678" lon="13.7074531"><ele>832.0</ele><time>2026-05-03T09:11:10.98Z</time></trkpt><trkpt lat="42.2482498" lon="13.7075485"><ele>832.0</ele><time>2026-05-03T09:11:11.981Z</time></trkpt><trkpt lat="42.2482248" lon="13.7076503"><ele>832.0</ele><time>2026-05-03T09:11:12.98Z</time></trkpt><trkpt lat="42.2481976" lon="13.7077506"><ele>832.0</ele><time>2026-05-03T09:11:13.981Z</time></trkpt><trkpt lat="42.2481697" lon="13.7078379"><ele>832.0</ele><time>2026-05-03T09:11:14.98Z</time></trkpt><trkpt lat="42.2481394" lon="13.7079173"><ele>832.0</ele><time>2026-05-03T09:11:15.981Z</time></trkpt><trkpt lat="42.2481091" lon="13.7079976"><ele>829.6666666666666</ele><time>2026-05-03T09:11:16.981Z</time></trkpt><trkpt lat="42.2480816" lon="13.7080771"><ele>827.3333333333333</ele><time>2026-05-03T09:11:17.98Z</time></trkpt><trkpt lat="42.2480126" lon="13.7081957"><ele>825.0</ele><time>2026-05-03T09:11:19.98Z</time></trkpt><trkpt lat="42.2479555" lon="13.7082532"><ele>822.6666666666667</ele><time>2026-05-03T09:11:20.981Z</time></trkpt><trkpt lat="42.2478934" lon="13.7083009"><ele>820.3333333333334</ele><time>2026-05-03T09:11:21.981Z</time></trkpt><trkpt lat="42.2478292" lon="13.7083413"><ele>818.0</ele><time>2026-05-03T09:11:22.98Z</time></trkpt><trkpt lat="42.2477647" lon="13.7083864"><ele>818.0000000000001</ele><time>2026-05-03T09:11:23.981Z</time></trkpt><trkpt lat="42.247704" lon="13.7084357"><ele>818.0</ele><time>2026-05-03T09:11:24.981Z</time></trkpt><trkpt lat="42.2476445" lon="13.7084898"><ele>818.0</ele><time>2026-05-03T09:11:25.981Z</time></trkpt><trkpt lat="42.247589" lon="13.7085426"><ele>818.0</ele><time>2026-05-03T09:11:26.98Z</time></trkpt><trkpt lat="42.2474971" lon="13.7086052"><ele>818.0000000000001</ele><time>2026-05-03T09:11:28.98Z</time></trkpt><trkpt lat="42.247432" lon="13.708619"><ele>818.0</ele><time>2026-05-03T09:11:30.981Z</time></trkpt><trkpt lat="42.247345" lon="13.7085526"><ele>815.6666666666667</ele><time>2026-05-03T09:11:33.981Z</time></trkpt><trkpt lat="42.2472812" lon="13.7084404"><ele>813.3333333333334</ele><time>2026-05-03T09:11:35.98Z</time></trkpt><trkpt lat="42.2472394" lon="13.7083287"><ele>811.0</ele><time>2026-05-03T09:11:37.98Z</time></trkpt><trkpt lat="42.2472149" lon="13.708201"><ele>808.6666666666667</ele><time>2026-05-03T09:11:39.98Z</time></trkpt><trkpt lat="42.2472098" lon="13.7081157"><ele>806.3333333333334</ele><time>2026-05-03T09:11:40.98Z</time></trkpt><trkpt lat="42.247205" lon="13.7080221"><ele>804.0</ele><time>2026-05-03T09:11:41.981Z</time></trkpt><trkpt lat="42.2471953" lon="13.7079158"><ele>804.0</ele><time>2026-05-03T09:11:42.981Z</time></trkpt><trkpt lat="42.2471858" lon="13.7077934"><ele>804.0</ele><time>2026-05-03T09:11:43.981Z</time></trkpt><trkpt lat="42.2471794" lon="13.7076797"><ele>804.0</ele><time>2026-05-03T09:11:44.981Z</time></trkpt><trkpt lat="42.2471748" lon="13.7075846"><ele>804.0</ele><time>2026-05-03T09:11:45.98Z</time></trkpt><trkpt lat="42.2471733" lon="13.7074924"><ele>804.0</ele><time>2026-05-03T09:11:46.98Z</time></trkpt><trkpt lat="42.2471695" lon="13.7073986"><ele>804.0</ele><time>2026-05-03T09:11:47.981Z</time></trkpt><trkpt lat="42.2471447" lon="13.707254"><ele>804.3333333333334</ele><time>2026-05-03T09:11:49.98Z</time></trkpt><trkpt lat="42.2470973" lon="13.7071673"><ele>804.6666666666667</ele><time>2026-05-03T09:11:51.98Z</time></trkpt><trkpt lat="42.2470078" lon="13.7071542"><ele>805.0</ele><time>2026-05-03T09:11:53.981Z</time></trkpt><trkpt lat="42.2469406" lon="13.7071544"><ele>805.3333333333334</ele><time>2026-05-03T09:11:54.981Z</time></trkpt><trkpt lat="42.2468688" lon="13.7071559"><ele>805.6666666666667</ele><time>2026-05-03T09:11:55.981Z</time></trkpt><trkpt lat="42.2468052" lon="13.707154"><ele>806.0</ele><time>2026-05-03T09:11:56.981Z</time></trkpt><trkpt lat="42.2467216" lon="13.7071233"><ele>806.0000000000001</ele><time>2026-05-03T09:11:58.981Z</time></trkpt><trkpt lat="42.2466711" lon="13.7070118"><ele>806.0</ele><time>2026-05-03T09:12:01.981Z</time></trkpt><trkpt lat="42.2466819" lon="13.7068896"><ele>806.0</ele><time>2026-05-03T09:12:03.98Z</time></trkpt><trkpt lat="42.2466989" lon="13.7067788"><ele>806.0</ele><time>2026-05-03T09:12:05.98Z</time></trkpt><trkpt lat="42.2466414" lon="13.7066874"><ele>806.0000000000001</ele><time>2026-05-03T09:12:08.981Z</time></trkpt><trkpt lat="42.2465741" lon="13.7066629"><ele>806.0</ele><time>2026-05-03T09:12:11.967Z</time></trkpt><trkpt lat="42.2466411" lon="13.7066989"><ele>806.0000000000001</ele><time>2026-05-03T09:12:22.981Z</time></trkpt><trkpt lat="42.246685" lon="13.706777"><ele>806.0</ele><time>2026-05-03T09:12:25.981Z</time></trkpt><trkpt lat="42.2466766" lon="13.7069337"><ele>806.0</ele><time>2026-05-03T09:12:27.981Z</time></trkpt><trkpt lat="42.2466689" lon="13.7070334"><ele>806.0</ele><time>2026-05-03T09:12:30.981Z</time></trkpt><trkpt lat="42.2467133" lon="13.7071104"><ele>806.0000000000001</ele><time>2026-05-03T09:12:33.981Z</time></trkpt><trkpt lat="42.2466447" lon="13.7071471"><ele>806.0</ele><time>2026-05-03T09:12:51.98Z</time></trkpt><trkpt lat="42.2465572" lon="13.7071452"><ele>806.0000000000001</ele><time>2026-05-03T09:12:54.98Z</time></trkpt><trkpt lat="42.2464685" lon="13.7071277"><ele>806.0</ele><time>2026-05-03T09:12:58.98Z</time></trkpt><trkpt lat="42.2463976" lon="13.7070647"><ele>806.0</ele><time>2026-05-03T09:13:00.98Z</time></trkpt><trkpt lat="42.2462898" lon="13.7070369"><ele>806.0</ele><time>2026-05-03T09:13:02.981Z</time></trkpt><trkpt lat="42.2462198" lon="13.7070152"><ele>806.0000000000001</ele><time>2026-05-03T09:13:04.981Z</time></trkpt><trkpt lat="42.2461407" lon="13.7069883"><ele>806.0</ele><time>2026-05-03T09:13:07.981Z</time></trkpt><trkpt lat="42.2461061" lon="13.7071021"><ele>803.8333333333334</ele><time>2026-05-03T09:13:13.981Z</time></trkpt><trkpt lat="42.2461147" lon="13.707189"><ele>801.6666666666667</ele><time>2026-05-03T09:13:14.98Z</time></trkpt><trkpt lat="42.2461226" lon="13.7072862"><ele>799.5</ele><time>2026-05-03T09:13:15.981Z</time></trkpt><trkpt lat="42.2461246" lon="13.7074009"><ele>797.3333333333333</ele><time>2026-05-03T09:13:16.981Z</time></trkpt><trkpt lat="42.2461216" lon="13.7075302"><ele>795.1666666666666</ele><time>2026-05-03T09:13:17.981Z</time></trkpt><trkpt lat="42.2461105" lon="13.7076662"><ele>793.0</ele><time>2026-05-03T09:13:18.98Z</time></trkpt><trkpt lat="42.246097" lon="13.7078094"><ele>792.4</ele><time>2026-05-03T09:13:19.98Z</time></trkpt><trkpt lat="42.246089" lon="13.7079526"><ele>791.8</ele><time>2026-05-03T09:13:20.981Z</time></trkpt><trkpt lat="42.2460814" lon="13.7080883"><ele>791.2</ele><time>2026-05-03T09:13:21.981Z</time></trkpt><trkpt lat="42.2460734" lon="13.7082235"><ele>790.6</ele><time>2026-05-03T09:13:22.98Z</time></trkpt><trkpt lat="42.2460653" lon="13.7083613"><ele>790.0</ele><time>2026-05-03T09:13:23.98Z</time></trkpt><trkpt lat="42.246056" lon="13.7084998"><ele>789.2</ele><time>2026-05-03T09:13:24.981Z</time></trkpt><trkpt lat="42.2460425" lon="13.7086331"><ele>788.4</ele><time>2026-05-03T09:13:25.981Z</time></trkpt><trkpt lat="42.246026" lon="13.7087623"><ele>787.5999999999999</ele><time>2026-05-03T09:13:26.98Z</time></trkpt><trkpt lat="42.2460141" lon="13.7088883"><ele>786.8</ele><time>2026-05-03T09:13:27.98Z</time></trkpt><trkpt lat="42.2460084" lon="13.7090126"><ele>786.0</ele><time>2026-05-03T09:13:28.981Z</time></trkpt><trkpt lat="42.2460086" lon="13.709135"><ele>786.0</ele><time>2026-05-03T09:13:29.981Z</time></trkpt><trkpt lat="42.2460188" lon="13.7092549"><ele>786.0</ele><time>2026-05-03T09:13:30.98Z</time></trkpt><trkpt lat="42.2460397" lon="13.7093702"><ele>786.0</ele><time>2026-05-03T09:13:31.981Z</time></trkpt><trkpt lat="42.2460671" lon="13.7094784"><ele>786.0</ele><time>2026-05-03T09:13:32.981Z</time></trkpt><trkpt lat="42.2461059" lon="13.7095781"><ele>786.0</ele><time>2026-05-03T09:13:33.98Z</time></trkpt><trkpt lat="42.2461549" lon="13.7096687"><ele>786.0</ele><time>2026-05-03T09:13:34.981Z</time></trkpt><trkpt lat="42.2462133" lon="13.7097587"><ele>785.8</ele><time>2026-05-03T09:13:35.981Z</time></trkpt><trkpt lat="42.2462844" lon="13.7098506"><ele>785.5999999999999</ele><time>2026-05-03T09:13:36.98Z</time></trkpt><trkpt lat="42.2463685" lon="13.7099341"><ele>785.4</ele><time>2026-05-03T09:13:37.98Z</time></trkpt><trkpt lat="42.2464584" lon="13.7100075"><ele>785.2</ele><time>2026-05-03T09:13:38.981Z</time></trkpt><trkpt lat="42.2465495" lon="13.7100712"><ele>785.0</ele><time>2026-05-03T09:13:39.98Z</time></trkpt><trkpt lat="42.2466471" lon="13.7101175"><ele>785.75</ele><time>2026-05-03T09:13:40.981Z</time></trkpt><trkpt lat="42.2467565" lon="13.7101358"><ele>786.5</ele><time>2026-05-03T09:13:41.98Z</time></trkpt><trkpt lat="42.2468758" lon="13.7101264"><ele>787.25</ele><time>2026-05-03T09:13:42.981Z</time></trkpt><trkpt lat="42.2469993" lon="13.7100979"><ele>788.0</ele><time>2026-05-03T09:13:43.98Z</time></trkpt><trkpt lat="42.2471267" lon="13.710053"><ele>788.0</ele><time>2026-05-03T09:13:44.981Z</time></trkpt><trkpt lat="42.2472569" lon="13.7099987"><ele>788.0</ele><time>2026-05-03T09:13:45.98Z</time></trkpt><trkpt lat="42.2473869" lon="13.7099517"><ele>788.0</ele><time>2026-05-03T09:13:46.98Z</time></trkpt><trkpt lat="42.2475174" lon="13.7099163"><ele>788.0</ele><time>2026-05-03T09:13:47.98Z</time></trkpt><trkpt lat="42.2476489" lon="13.709889"><ele>786.75</ele><time>2026-05-03T09:13:48.981Z</time></trkpt><trkpt lat="42.2477795" lon="13.7098765"><ele>785.5</ele><time>2026-05-03T09:13:49.98Z</time></trkpt><trkpt lat="42.2479032" lon="13.7098946"><ele>784.25</ele><time>2026-05-03T09:13:50.981Z</time></trkpt><trkpt lat="42.2480088" lon="13.7099498"><ele>783.0</ele><time>2026-05-03T09:13:51.981Z</time></trkpt><trkpt lat="42.2480899" lon="13.7100384"><ele>783.5999999999999</ele><time>2026-05-03T09:13:52.98Z</time></trkpt><trkpt lat="42.2481411" lon="13.710155"><ele>784.1999999999999</ele><time>2026-05-03T09:13:53.981Z</time></trkpt><trkpt lat="42.2481608" lon="13.7102862"><ele>784.8</ele><time>2026-05-03T09:13:54.98Z</time></trkpt><trkpt lat="42.2481469" lon="13.7104304"><ele>785.4</ele><time>2026-05-03T09:13:55.981Z</time></trkpt><trkpt lat="42.2481207" lon="13.710568"><ele>786.0</ele><time>2026-05-03T09:13:56.981Z</time></trkpt><trkpt lat="42.2480828" lon="13.710705"><ele>782.1999999999999</ele><time>2026-05-03T09:13:57.98Z</time></trkpt><trkpt lat="42.2480395" lon="13.7108417"><ele>778.4</ele><time>2026-05-03T09:13:58.98Z</time></trkpt><trkpt lat="42.2479976" lon="13.7109788"><ele>774.6</ele><time>2026-05-03T09:13:59.98Z</time></trkpt><trkpt lat="42.2479519" lon="13.7111123"><ele>770.8</ele><time>2026-05-03T09:14:00.98Z</time></trkpt><trkpt lat="42.2479057" lon="13.7112457"><ele>767.0</ele><time>2026-05-03T09:14:01.98Z</time></trkpt><trkpt lat="42.2478642" lon="13.7113782"><ele>767.0</ele><time>2026-05-03T09:14:02.981Z</time></trkpt><trkpt lat="42.247824" lon="13.7115079"><ele>767.0</ele><time>2026-05-03T09:14:03.981Z</time></trkpt><trkpt lat="42.2477848" lon="13.7116347"><ele>767.0</ele><time>2026-05-03T09:14:04.981Z</time></trkpt><trkpt lat="42.247754" lon="13.7117646"><ele>767.0</ele><time>2026-05-03T09:14:05.98Z</time></trkpt><trkpt lat="42.2477339" lon="13.7118945"><ele>767.0</ele><time>2026-05-03T09:14:06.98Z</time></trkpt><trkpt lat="42.2477283" lon="13.7120254"><ele>767.0</ele><time>2026-05-03T09:14:07.981Z</time></trkpt><trkpt lat="42.247734" lon="13.7121636"><ele>767.0</ele><time>2026-05-03T09:14:08.98Z</time></trkpt><trkpt lat="42.2477381" lon="13.7123005"><ele>767.0</ele><time>2026-05-03T09:14:09.981Z</time></trkpt><trkpt lat="42.2477344" lon="13.7124226"><ele>767.0</ele><time>2026-05-03T09:14:10.98Z</time></trkpt><trkpt lat="42.2477254" lon="13.7125429"><ele>767.0</ele><time>2026-05-03T09:14:11.98Z</time></trkpt><trkpt lat="42.2477137" lon="13.7126592"><ele>767.2</ele><time>2026-05-03T09:14:12.981Z</time></trkpt><trkpt lat="42.2477045" lon="13.7127792"><ele>767.4000000000001</ele><time>2026-05-03T09:14:13.981Z</time></trkpt><trkpt lat="42.2476996" lon="13.7129023"><ele>767.5999999999999</ele><time>2026-05-03T09:14:14.981Z</time></trkpt><trkpt lat="42.2476962" lon="13.7130253"><ele>767.8</ele><time>2026-05-03T09:14:15.98Z</time></trkpt><trkpt lat="42.2476881" lon="13.7131456"><ele>768.0</ele><time>2026-05-03T09:14:16.98Z</time></trkpt><trkpt lat="42.2476738" lon="13.7132639"><ele>768.0</ele><time>2026-05-03T09:14:17.98Z</time></trkpt><trkpt lat="42.2476557" lon="13.7133811"><ele>768.0</ele><time>2026-05-03T09:14:18.981Z</time></trkpt><trkpt lat="42.2476417" lon="13.7134992"><ele>768.0</ele><time>2026-05-03T09:14:19.98Z</time></trkpt><trkpt lat="42.2476343" lon="13.7136171"><ele>768.0</ele><time>2026-05-03T09:14:20.98Z</time></trkpt><trkpt lat="42.2476356" lon="13.7137371"><ele>768.0</ele><time>2026-05-03T09:14:21.981Z</time></trkpt><trkpt lat="42.2476448" lon="13.7138679"><ele>767.5999999999999</ele><time>2026-05-03T09:14:22.981Z</time></trkpt><trkpt lat="42.2476632" lon="13.7140011"><ele>767.1999999999999</ele><time>2026-05-03T09:14:23.981Z</time></trkpt><trkpt lat="42.2476872" lon="13.7141421"><ele>766.8</ele><time>2026-05-03T09:14:24.98Z</time></trkpt><trkpt lat="42.2477205" lon="13.7142865"><ele>766.4</ele><time>2026-05-03T09:14:25.98Z</time></trkpt><trkpt lat="42.2477617" lon="13.7144326"><ele>766.0</ele><time>2026-05-03T09:14:26.981Z</time></trkpt><trkpt lat="42.2478108" lon="13.7145837"><ele>764.0</ele><time>2026-05-03T09:14:27.981Z</time></trkpt><trkpt lat="42.2478639" lon="13.7147389"><ele>762.0</ele><time>2026-05-03T09:14:28.98Z</time></trkpt><trkpt lat="42.2479214" lon="13.7148924"><ele>760.0</ele><time>2026-05-03T09:14:29.981Z</time></trkpt><trkpt lat="42.2479795" lon="13.7150323"><ele>758.0</ele><time>2026-05-03T09:14:30.981Z</time></trkpt><trkpt lat="42.2480374" lon="13.7151575"><ele>756.4</ele><time>2026-05-03T09:14:31.98Z</time></trkpt><trkpt lat="42.2480979" lon="13.7152693"><ele>754.8</ele><time>2026-05-03T09:14:32.981Z</time></trkpt><trkpt lat="42.248162" lon="13.7153632"><ele>753.2</ele><time>2026-05-03T09:14:33.98Z</time></trkpt><trkpt lat="42.2482305" lon="13.715449"><ele>751.6</ele><time>2026-05-03T09:14:34.981Z</time></trkpt><trkpt lat="42.2483084" lon="13.7155354"><ele>750.0</ele><time>2026-05-03T09:14:35.981Z</time></trkpt><trkpt lat="42.2483958" lon="13.7156223"><ele>754.5</ele><time>2026-05-03T09:14:36.981Z</time></trkpt><trkpt lat="42.2484897" lon="13.7157117"><ele>759.0</ele><time>2026-05-03T09:14:37.981Z</time></trkpt><trkpt lat="42.2485859" lon="13.715807"><ele>763.5</ele><time>2026-05-03T09:14:38.981Z</time></trkpt><trkpt lat="42.2486804" lon="13.7159024"><ele>768.0</ele><time>2026-05-03T09:14:39.981Z</time></trkpt><trkpt lat="42.2487726" lon="13.7159875"><ele>768.0</ele><time>2026-05-03T09:14:40.98Z</time></trkpt><trkpt lat="42.2488649" lon="13.7160638"><ele>768.0</ele><time>2026-05-03T09:14:41.981Z</time></trkpt><trkpt lat="42.2489554" lon="13.716134"><ele>768.0</ele><time>2026-05-03T09:14:42.981Z</time></trkpt><trkpt lat="42.2490466" lon="13.716201"><ele>768.0</ele><time>2026-05-03T09:14:43.98Z</time></trkpt><trkpt lat="42.2491378" lon="13.7162604"><ele>768.0</ele><time>2026-05-03T09:14:44.981Z</time></trkpt><trkpt lat="42.2492229" lon="13.7163213"><ele>767.5</ele><time>2026-05-03T09:14:45.981Z</time></trkpt><trkpt lat="42.2492892" lon="13.7163863"><ele>767.0</ele><time>2026-05-03T09:14:46.981Z</time></trkpt><trkpt lat="42.2493664" lon="13.7165218"><ele>766.5</ele><time>2026-05-03T09:14:48.981Z</time></trkpt><trkpt lat="42.2493866" lon="13.7166182"><ele>766.0</ele><time>2026-05-03T09:14:49.981Z</time></trkpt><trkpt lat="42.2494011" lon="13.7167238"><ele>765.5</ele><time>2026-05-03T09:14:50.981Z</time></trkpt><trkpt lat="42.2494269" lon="13.7168327"><ele>765.0</ele><time>2026-05-03T09:14:51.98Z</time></trkpt><trkpt lat="42.2494615" lon="13.7169409"><ele>764.2</ele><time>2026-05-03T09:14:52.98Z</time></trkpt><trkpt lat="42.2495107" lon="13.7170486"><ele>763.4</ele><time>2026-05-03T09:14:53.98Z</time></trkpt><trkpt lat="42.249572" lon="13.717148"><ele>762.5999999999999</ele><time>2026-05-03T09:14:54.98Z</time></trkpt><trkpt lat="42.2496473" lon="13.717237"><ele>761.8</ele><time>2026-05-03T09:14:55.981Z</time></trkpt><trkpt lat="42.2497237" lon="13.7173248"><ele>761.0</ele><time>2026-05-03T09:14:56.981Z</time></trkpt><trkpt lat="42.2497958" lon="13.7174218"><ele>763.4</ele><time>2026-05-03T09:14:57.98Z</time></trkpt><trkpt lat="42.2498561" lon="13.7175331"><ele>765.8</ele><time>2026-05-03T09:14:58.98Z</time></trkpt><trkpt lat="42.2499033" lon="13.7176604"><ele>768.1999999999999</ele><time>2026-05-03T09:14:59.98Z</time></trkpt><trkpt lat="42.2499427" lon="13.7177833"><ele>770.5999999999999</ele><time>2026-05-03T09:15:00.981Z</time></trkpt><trkpt lat="42.2499882" lon="13.7178887"><ele>773.0</ele><time>2026-05-03T09:15:01.981Z</time></trkpt><trkpt lat="42.2500424" lon="13.7179963"><ele>773.0</ele><time>2026-05-03T09:15:02.98Z</time></trkpt><trkpt lat="42.2501038" lon="13.7181122"><ele>773.0</ele><time>2026-05-03T09:15:03.98Z</time></trkpt><trkpt lat="42.2501706" lon="13.7182184"><ele>773.0</ele><time>2026-05-03T09:15:04.981Z</time></trkpt><trkpt lat="42.2502446" lon="13.7183247"><ele>773.0</ele><time>2026-05-03T09:15:05.981Z</time></trkpt><trkpt lat="42.25032" lon="13.718429"><ele>773.0</ele><time>2026-05-03T09:15:06.981Z</time></trkpt><trkpt lat="42.2503972" lon="13.7185256"><ele>773.0</ele><time>2026-05-03T09:15:07.981Z</time></trkpt><trkpt lat="42.250481" lon="13.718614"><ele>773.0</ele><time>2026-05-03T09:15:08.98Z</time></trkpt><trkpt lat="42.2505705" lon="13.7186888"><ele>773.0</ele><time>2026-05-03T09:15:09.981Z</time></trkpt><trkpt lat="42.2506661" lon="13.7187479"><ele>773.0</ele><time>2026-05-03T09:15:10.98Z</time></trkpt><trkpt lat="42.250763" lon="13.7187925"><ele>773.0</ele><time>2026-05-03T09:15:11.981Z</time></trkpt><trkpt lat="42.2508651" lon="13.718836"><ele>773.0</ele><time>2026-05-03T09:15:12.981Z</time></trkpt><trkpt lat="42.2509689" lon="13.7188852"><ele>773.0</ele><time>2026-05-03T09:15:13.981Z</time></trkpt><trkpt lat="42.2510672" lon="13.7189442"><ele>773.0</ele><time>2026-05-03T09:15:14.98Z</time></trkpt><trkpt lat="42.2511675" lon="13.7190211"><ele>773.0</ele><time>2026-05-03T09:15:15.981Z</time></trkpt><trkpt lat="42.2512625" lon="13.7191195"><ele>773.0</ele><time>2026-05-03T09:15:16.98Z</time></trkpt><trkpt lat="42.2513473" lon="13.7192371"><ele>773.0</ele><time>2026-05-03T09:15:17.981Z</time></trkpt><trkpt lat="42.2514209" lon="13.7193581"><ele>773.0</ele><time>2026-05-03T09:15:18.98Z</time></trkpt><trkpt lat="42.2515067" lon="13.7194663"><ele>773.0</ele><time>2026-05-03T09:15:19.98Z</time></trkpt><trkpt lat="42.2516077" lon="13.7195688"><ele>774.75</ele><time>2026-05-03T09:15:20.981Z</time></trkpt><trkpt lat="42.2517198" lon="13.7196651"><ele>776.5</ele><time>2026-05-03T09:15:21.981Z</time></trkpt><trkpt lat="42.25183" lon="13.7197578"><ele>778.25</ele><time>2026-05-03T09:15:22.98Z</time></trkpt><trkpt lat="42.2519321" lon="13.719852"><ele>780.0</ele><time>2026-05-03T09:15:23.981Z</time></trkpt><trkpt lat="42.2520329" lon="13.7199453"><ele>780.0</ele><time>2026-05-03T09:15:24.98Z</time></trkpt><trkpt lat="42.2521348" lon="13.7200425"><ele>780.0</ele><time>2026-05-03T09:15:25.98Z</time></trkpt><trkpt lat="42.2522375" lon="13.7201464"><ele>780.0</ele><time>2026-05-03T09:15:26.981Z</time></trkpt><trkpt lat="42.25234" lon="13.7202489"><ele>780.0</ele><time>2026-05-03T09:15:27.981Z</time></trkpt><trkpt lat="42.2524438" lon="13.7203461"><ele>779.25</ele><time>2026-05-03T09:15:28.981Z</time></trkpt><trkpt lat="42.2525415" lon="13.7204364"><ele>778.5</ele><time>2026-05-03T09:15:29.98Z</time></trkpt><trkpt lat="42.2526379" lon="13.7205176"><ele>777.75</ele><time>2026-05-03T09:15:30.981Z</time></trkpt><trkpt lat="42.2527506" lon="13.7205974"><ele>777.0</ele><time>2026-05-03T09:15:31.981Z</time></trkpt><trkpt lat="42.252868" lon="13.7206675"><ele>777.0</ele><time>2026-05-03T09:15:32.98Z</time></trkpt><trkpt lat="42.2529876" lon="13.7207328"><ele>777.0</ele><time>2026-05-03T09:15:33.98Z</time></trkpt><trkpt lat="42.2530957" lon="13.7207932"><ele>777.0</ele><time>2026-05-03T09:15:34.981Z</time></trkpt><trkpt lat="42.2531998" lon="13.72085"><ele>777.0</ele><time>2026-05-03T09:15:35.981Z</time></trkpt><trkpt lat="42.2533027" lon="13.7208871"><ele>777.5</ele><time>2026-05-03T09:15:36.98Z</time></trkpt><trkpt lat="42.2533973" lon="13.7209176"><ele>778.0</ele><time>2026-05-03T09:15:37.981Z</time></trkpt><trkpt lat="42.2534768" lon="13.7209547"><ele>778.5</ele><time>2026-05-03T09:15:38.98Z</time></trkpt><trkpt lat="42.2535371" lon="13.7210038"><ele>779.0</ele><time>2026-05-03T09:15:39.981Z</time></trkpt><trkpt lat="42.2535856" lon="13.7210723"><ele>779.5</ele><time>2026-05-03T09:15:40.981Z</time></trkpt><trkpt lat="42.2536311" lon="13.7211618"><ele>780.0</ele><time>2026-05-03T09:15:41.981Z</time></trkpt><trkpt lat="42.2536666" lon="13.721263"><ele>780.0</ele><time>2026-05-03T09:15:42.981Z</time></trkpt><trkpt lat="42.2536901" lon="13.7213562"><ele>780.0</ele><time>2026-05-03T09:15:43.981Z</time></trkpt><trkpt lat="42.2537027" lon="13.7214488"><ele>780.0</ele><time>2026-05-03T09:15:44.981Z</time></trkpt><trkpt lat="42.2536957" lon="13.7215416"><ele>780.0</ele><time>2026-05-03T09:15:45.981Z</time></trkpt><trkpt lat="42.2536689" lon="13.721635"><ele>780.0</ele><time>2026-05-03T09:15:46.98Z</time></trkpt><trkpt lat="42.2536207" lon="13.7217318"><ele>780.0</ele><time>2026-05-03T09:15:47.981Z</time></trkpt><trkpt lat="42.2535574" lon="13.7218277"><ele>780.8333333333334</ele><time>2026-05-03T09:15:48.981Z</time></trkpt><trkpt lat="42.2534999" lon="13.7219325"><ele>781.6666666666667</ele><time>2026-05-03T09:15:49.98Z</time></trkpt><trkpt lat="42.2534492" lon="13.7220445"><ele>782.5</ele><time>2026-05-03T09:15:50.981Z</time></trkpt><trkpt lat="42.2534149" lon="13.7221492"><ele>783.3333333333334</ele><time>2026-05-03T09:15:51.98Z</time></trkpt><trkpt lat="42.2533903" lon="13.7222539"><ele>784.1666666666667</ele><time>2026-05-03T09:15:52.98Z</time></trkpt><trkpt lat="42.2533836" lon="13.7223486"><ele>785.0</ele><time>2026-05-03T09:15:53.98Z</time></trkpt><trkpt lat="42.2534156" lon="13.7225158"><ele>785.0</ele><time>2026-05-03T09:15:55.981Z</time></trkpt><trkpt lat="42.2534448" lon="13.7226135"><ele>785.0</ele><time>2026-05-03T09:15:56.981Z</time></trkpt><trkpt lat="42.2534787" lon="13.7227206"><ele>785.0</ele><time>2026-05-03T09:15:57.98Z</time></trkpt><trkpt lat="42.2535194" lon="13.7228373"><ele>785.0</ele><time>2026-05-03T09:15:58.981Z</time></trkpt><trkpt lat="42.2535676" lon="13.7229618"><ele>785.0</ele><time>2026-05-03T09:15:59.981Z</time></trkpt><trkpt lat="42.2536206" lon="13.7230889"><ele>786.0</ele><time>2026-05-03T09:16:00.981Z</time></trkpt><trkpt lat="42.2536736" lon="13.7232102"><ele>787.0</ele><time>2026-05-03T09:16:01.981Z</time></trkpt><trkpt lat="42.2537249" lon="13.7233329"><ele>788.0</ele><time>2026-05-03T09:16:02.98Z</time></trkpt><trkpt lat="42.2537691" lon="13.723448"><ele>789.0</ele><time>2026-05-03T09:16:03.98Z</time></trkpt><trkpt lat="42.2538101" lon="13.7235662"><ele>790.0</ele><time>2026-05-03T09:16:04.981Z</time></trkpt><trkpt lat="42.2538401" lon="13.7236802"><ele>790.4999999999999</ele><time>2026-05-03T09:16:05.981Z</time></trkpt><trkpt lat="42.2538691" lon="13.7237896"><ele>791.0</ele><time>2026-05-03T09:16:06.98Z</time></trkpt><trkpt lat="42.2538991" lon="13.7238887"><ele>791.5</ele><time>2026-05-03T09:16:07.981Z</time></trkpt><trkpt lat="42.2539369" lon="13.7239832"><ele>792.0</ele><time>2026-05-03T09:16:08.981Z</time></trkpt><trkpt lat="42.2539816" lon="13.724064"><ele>792.4999999999999</ele><time>2026-05-03T09:16:09.98Z</time></trkpt><trkpt lat="42.2540714" lon="13.7241614"><ele>793.0</ele><time>2026-05-03T09:16:11.981Z</time></trkpt><trkpt lat="42.2541424" lon="13.7241993"><ele>791.4999999999999</ele><time>2026-05-03T09:16:14.981Z</time></trkpt><trkpt lat="42.2542114" lon="13.7242033"><ele>790.0</ele><time>2026-05-03T09:16:24.981Z</time></trkpt><trkpt lat="42.2542835" lon="13.724232"><ele>788.5</ele><time>2026-05-03T09:16:26.981Z</time></trkpt><trkpt lat="42.2543635" lon="13.7242782"><ele>787.0</ele><time>2026-05-03T09:16:28.981Z</time></trkpt><trkpt lat="42.254455" lon="13.7243371"><ele>785.4999999999999</ele><time>2026-05-03T09:16:30.981Z</time></trkpt><trkpt lat="42.2545618" lon="13.7243922"><ele>784.0</ele><time>2026-05-03T09:16:32.981Z</time></trkpt><trkpt lat="42.2546224" lon="13.724422"><ele>780.6</ele><time>2026-05-03T09:16:33.981Z</time></trkpt><trkpt lat="42.2547379" lon="13.7244772"><ele>777.2</ele><time>2026-05-03T09:16:35.981Z</time></trkpt><trkpt lat="42.2548007" lon="13.7244985"><ele>773.8000000000001</ele><time>2026-05-03T09:16:36.981Z</time></trkpt><trkpt lat="42.2548621" lon="13.7245207"><ele>770.4000000000001</ele><time>2026-05-03T09:16:37.98Z</time></trkpt><trkpt lat="42.2549804" lon="13.724574"><ele>767.0</ele><time>2026-05-03T09:16:39.981Z</time></trkpt><trkpt lat="42.2550935" lon="13.7246268"><ele>766.8333333333333</ele><time>2026-05-03T09:16:41.98Z</time></trkpt><trkpt lat="42.255191" lon="13.7247247"><ele>766.6666666666666</ele><time>2026-05-03T09:16:43.981Z</time></trkpt><trkpt lat="42.2552347" lon="13.7247898"><ele>766.5</ele><time>2026-05-03T09:16:44.981Z</time></trkpt><trkpt lat="42.2552702" lon="13.7248661"><ele>766.3333333333334</ele><time>2026-05-03T09:16:45.98Z</time></trkpt><trkpt lat="42.2552971" lon="13.7249448"><ele>766.1666666666667</ele><time>2026-05-03T09:16:46.98Z</time></trkpt><trkpt lat="42.255315" lon="13.725028"><ele>766.0</ele><time>2026-05-03T09:16:47.981Z</time></trkpt><trkpt lat="42.2553351" lon="13.7251158"><ele>766.0</ele><time>2026-05-03T09:16:48.981Z</time></trkpt><trkpt lat="42.2553567" lon="13.7252062"><ele>766.0</ele><time>2026-05-03T09:16:49.98Z</time></trkpt><trkpt lat="42.255378" lon="13.7252957"><ele>766.0</ele><time>2026-05-03T09:16:50.98Z</time></trkpt><trkpt lat="42.2554002" lon="13.7253841"><ele>766.0</ele><time>2026-05-03T09:16:51.981Z</time></trkpt><trkpt lat="42.2554231" lon="13.7254746"><ele>766.0</ele><time>2026-05-03T09:16:52.981Z</time></trkpt><trkpt lat="42.2554463" lon="13.7255588"><ele>766.0</ele><time>2026-05-03T09:16:53.98Z</time></trkpt><trkpt lat="42.2554671" lon="13.7256431"><ele>766.0</ele><time>2026-05-03T09:16:54.981Z</time></trkpt><trkpt lat="42.2554901" lon="13.7257241"><ele>765.8333333333334</ele><time>2026-05-03T09:16:55.981Z</time></trkpt><trkpt lat="42.2555165" lon="13.725813"><ele>765.6666666666667</ele><time>2026-05-03T09:16:56.981Z</time></trkpt><trkpt lat="42.2555494" lon="13.7259092"><ele>765.5</ele><time>2026-05-03T09:16:57.981Z</time></trkpt><trkpt lat="42.2555815" lon="13.7260031"><ele>765.3333333333334</ele><time>2026-05-03T09:16:58.981Z</time></trkpt><trkpt lat="42.2556235" lon="13.7261067"><ele>765.1666666666666</ele><time>2026-05-03T09:16:59.981Z</time></trkpt><trkpt lat="42.255656" lon="13.7262062"><ele>765.0</ele><time>2026-05-03T09:17:00.981Z</time></trkpt><trkpt lat="42.2556839" lon="13.7263035"><ele>765.0</ele><time>2026-05-03T09:17:01.981Z</time></trkpt><trkpt lat="42.255701" lon="13.7263945"><ele>765.0</ele><time>2026-05-03T09:17:02.98Z</time></trkpt><trkpt lat="42.2557036" lon="13.7264821"><ele>765.0</ele><time>2026-05-03T09:17:03.981Z</time></trkpt><trkpt lat="42.2556529" lon="13.7266301"><ele>765.0</ele><time>2026-05-03T09:17:05.981Z</time></trkpt><trkpt lat="42.2555672" lon="13.7267403"><ele>765.0</ele><time>2026-05-03T09:17:07.98Z</time></trkpt><trkpt lat="42.2554953" lon="13.7268523"><ele>762.3333333333334</ele><time>2026-05-03T09:17:09.981Z</time></trkpt><trkpt lat="42.2554818" lon="13.7270273"><ele>759.6666666666666</ele><time>2026-05-03T09:17:11.98Z</time></trkpt><trkpt lat="42.2554755" lon="13.7271249"><ele>757.0</ele><time>2026-05-03T09:17:12.98Z</time></trkpt><trkpt lat="42.2554632" lon="13.7272165"><ele>754.3333333333333</ele><time>2026-05-03T09:17:13.98Z</time></trkpt><trkpt lat="42.2554446" lon="13.727304"><ele>751.6666666666666</ele><time>2026-05-03T09:17:14.981Z</time></trkpt><trkpt lat="42.2554371" lon="13.7274528"><ele>749.0</ele><time>2026-05-03T09:17:16.981Z</time></trkpt><trkpt lat="42.2554798" lon="13.7275499"><ele>749.0</ele><time>2026-05-03T09:17:18.98Z</time></trkpt><trkpt lat="42.2555708" lon="13.7275654"><ele>749.0</ele><time>2026-05-03T09:17:21.981Z</time></trkpt><trkpt lat="42.2556564" lon="13.7275371"><ele>749.0</ele><time>2026-05-03T09:17:23.98Z</time></trkpt><trkpt lat="42.2557341" lon="13.7275287"><ele>749.0</ele><time>2026-05-03T09:17:25.981Z</time></trkpt><trkpt lat="42.2558234" lon="13.7275536"><ele>749.0</ele><time>2026-05-03T09:17:27.98Z</time></trkpt><trkpt lat="42.2558838" lon="13.7275912"><ele>749.0</ele><time>2026-05-03T09:17:29.98Z</time></trkpt><trkpt lat="42.2559311" lon="13.7276889"><ele>749.8333333333333</ele><time>2026-05-03T09:17:33.98Z</time></trkpt><trkpt lat="42.2559879" lon="13.7276434"><ele>750.6666666666666</ele><time>2026-05-03T09:18:08.981Z</time></trkpt><trkpt lat="42.2560644" lon="13.7276962"><ele>751.5</ele><time>2026-05-03T09:18:10.981Z</time></trkpt><trkpt lat="42.256159" lon="13.7277715"><ele>752.3333333333334</ele><time>2026-05-03T09:18:12.98Z</time></trkpt><trkpt lat="42.256213" lon="13.7278168"><ele>753.1666666666667</ele><time>2026-05-03T09:18:13.98Z</time></trkpt><trkpt lat="42.2562663" lon="13.7278628"><ele>754.0</ele><time>2026-05-03T09:18:14.981Z</time></trkpt><trkpt lat="42.2563248" lon="13.7279123"><ele>750.5</ele><time>2026-05-03T09:18:15.98Z</time></trkpt><trkpt lat="42.2563871" lon="13.7279643"><ele>747.0</ele><time>2026-05-03T09:18:16.981Z</time></trkpt><trkpt lat="42.2564481" lon="13.7280158"><ele>743.5</ele><time>2026-05-03T09:18:17.981Z</time></trkpt><trkpt lat="42.2565069" lon="13.7280659"><ele>740.0</ele><time>2026-05-03T09:18:18.981Z</time></trkpt><trkpt lat="42.2565614" lon="13.7281124"><ele>736.5</ele><time>2026-05-03T09:18:19.981Z</time></trkpt><trkpt lat="42.2566604" lon="13.7281887"><ele>733.0</ele><time>2026-05-03T09:18:21.981Z</time></trkpt><trkpt lat="42.2567462" lon="13.7282695"><ele>733.0</ele><time>2026-05-03T09:18:23.981Z</time></trkpt><trkpt lat="42.2568255" lon="13.7283569"><ele>733.0</ele><time>2026-05-03T09:18:25.981Z</time></trkpt><trkpt lat="42.2568894" lon="13.7284387"><ele>733.0</ele><time>2026-05-03T09:18:27.98Z</time></trkpt><trkpt lat="42.2569482" lon="13.7285169"><ele>733.0</ele><time>2026-05-03T09:18:29.981Z</time></trkpt><trkpt lat="42.2570244" lon="13.7285995"><ele>733.0</ele><time>2026-05-03T09:18:31.981Z</time></trkpt><trkpt lat="42.2571006" lon="13.7286811"><ele>730.2</ele><time>2026-05-03T09:18:33.981Z</time></trkpt><trkpt lat="42.2571626" lon="13.7287801"><ele>727.4</ele><time>2026-05-03T09:18:35.98Z</time></trkpt><trkpt lat="42.2572139" lon="13.7289151"><ele>724.6</ele><time>2026-05-03T09:18:37.98Z</time></trkpt><trkpt lat="42.2572577" lon="13.7290346"><ele>721.8000000000001</ele><time>2026-05-03T09:18:39.98Z</time></trkpt><trkpt lat="42.2572995" lon="13.72913"><ele>719.0</ele><time>2026-05-03T09:18:41.981Z</time></trkpt><trkpt lat="42.2573515" lon="13.7292412"><ele>719.0</ele><time>2026-05-03T09:18:43.981Z</time></trkpt><trkpt lat="42.2574023" lon="13.7293358"><ele>719.0</ele><time>2026-05-03T09:18:45.98Z</time></trkpt><trkpt lat="42.2574672" lon="13.7294105"><ele>719.0</ele><time>2026-05-03T09:18:47.981Z</time></trkpt><trkpt lat="42.2575489" lon="13.7294495"><ele>719.0</ele><time>2026-05-03T09:18:49.981Z</time></trkpt><trkpt lat="42.2576425" lon="13.7294917"><ele>719.0</ele><time>2026-05-03T09:18:51.981Z</time></trkpt><trkpt lat="42.2577511" lon="13.7295255"><ele>713.4000000000001</ele><time>2026-05-03T09:18:53.981Z</time></trkpt><trkpt lat="42.2578613" lon="13.7295522"><ele>707.8</ele><time>2026-05-03T09:18:55.98Z</time></trkpt><trkpt lat="42.2579382" lon="13.7295701"><ele>702.2</ele><time>2026-05-03T09:18:57.981Z</time></trkpt><trkpt lat="42.2580077" lon="13.7295884"><ele>696.5999999999999</ele><time>2026-05-03T09:18:59.981Z</time></trkpt><trkpt lat="42.2580987" lon="13.7296101"><ele>691.0</ele><time>2026-05-03T09:19:01.98Z</time></trkpt><trkpt lat="42.2581955" lon="13.7296462"><ele>691.0</ele><time>2026-05-03T09:19:03.981Z</time></trkpt><trkpt lat="42.2582771" lon="13.7296863"><ele>691.0</ele><time>2026-05-03T09:19:05.981Z</time></trkpt><trkpt lat="42.2583613" lon="13.7297366"><ele>691.0</ele><time>2026-05-03T09:19:07.981Z</time></trkpt><trkpt lat="42.2584398" lon="13.7297923"><ele>691.0</ele><time>2026-05-03T09:19:09.981Z</time></trkpt><trkpt lat="42.2585322" lon="13.7298592"><ele>691.0</ele><time>2026-05-03T09:19:11.981Z</time></trkpt><trkpt lat="42.2586465" lon="13.7299303"><ele>691.0</ele><time>2026-05-03T09:19:13.98Z</time></trkpt><trkpt lat="42.2587077" lon="13.7299651"><ele>691.0</ele><time>2026-05-03T09:19:14.98Z</time></trkpt><trkpt lat="42.2587737" lon="13.7299995"><ele>691.0</ele><time>2026-05-03T09:19:15.981Z</time></trkpt><trkpt lat="42.2588442" lon="13.7300318"><ele>691.0</ele><time>2026-05-03T09:19:16.981Z</time></trkpt><trkpt lat="42.2589175" lon="13.7300657"><ele>691.0</ele><time>2026-05-03T09:19:17.98Z</time></trkpt><trkpt lat="42.2589919" lon="13.7301018"><ele>691.0</ele><time>2026-05-03T09:19:18.981Z</time></trkpt><trkpt lat="42.25907" lon="13.7301358"><ele>692.1428571428571</ele><time>2026-05-03T09:19:19.981Z</time></trkpt><trkpt lat="42.2591478" lon="13.7301675"><ele>693.2857142857142</ele><time>2026-05-03T09:19:20.981Z</time></trkpt><trkpt lat="42.2592244" lon="13.730197"><ele>694.4285714285713</ele><time>2026-05-03T09:19:21.98Z</time></trkpt><trkpt lat="42.2593003" lon="13.7302256"><ele>695.5714285714286</ele><time>2026-05-03T09:19:22.981Z</time></trkpt><trkpt lat="42.2593708" lon="13.7302529"><ele>696.7142857142858</ele><time>2026-05-03T09:19:23.981Z</time></trkpt><trkpt lat="42.2594344" lon="13.7302791"><ele>697.8571428571428</ele><time>2026-05-03T09:19:24.981Z</time></trkpt><trkpt lat="42.2594964" lon="13.7303082"><ele>699.0</ele><time>2026-05-03T09:19:25.981Z</time></trkpt><trkpt lat="42.2595558" lon="13.7303393"><ele>694.8571428571428</ele><time>2026-05-03T09:19:26.98Z</time></trkpt><trkpt lat="42.2596173" lon="13.7303707"><ele>690.7142857142858</ele><time>2026-05-03T09:19:27.981Z</time></trkpt><trkpt lat="42.2596802" lon="13.7304021"><ele>686.5714285714286</ele><time>2026-05-03T09:19:28.981Z</time></trkpt><trkpt lat="42.2597442" lon="13.7304313"><ele>682.4285714285713</ele><time>2026-05-03T09:19:29.981Z</time></trkpt><trkpt lat="42.2598107" lon="13.7304615"><ele>678.2857142857142</ele><time>2026-05-03T09:19:30.981Z</time></trkpt><trkpt lat="42.2598775" lon="13.730497"><ele>674.1428571428571</ele><time>2026-05-03T09:19:31.981Z</time></trkpt><trkpt lat="42.2599439" lon="13.7305342"><ele>670.0</ele><time>2026-05-03T09:19:32.981Z</time></trkpt><trkpt lat="42.2600474" lon="13.7305967"><ele>670.0</ele><time>2026-05-03T09:19:34.981Z</time></trkpt><trkpt lat="42.2601524" lon="13.7306619"><ele>670.0</ele><time>2026-05-03T09:19:36.981Z</time></trkpt><trkpt lat="42.2602554" lon="13.7307485"><ele>670.0</ele><time>2026-05-03T09:19:38.98Z</time></trkpt><trkpt lat="42.2603598" lon="13.7308251"><ele>670.0</ele><time>2026-05-03T09:19:40.98Z</time></trkpt><trkpt lat="42.2604403" lon="13.730885"><ele>670.0</ele><time>2026-05-03T09:19:42.981Z</time></trkpt><trkpt lat="42.2605307" lon="13.7309583"><ele>670.0</ele><time>2026-05-03T09:19:44.981Z</time></trkpt><trkpt lat="42.260606" lon="13.7310283"><ele>670.0</ele><time>2026-05-03T09:19:46.981Z</time></trkpt><trkpt lat="42.2606918" lon="13.7311104"><ele>670.0</ele><time>2026-05-03T09:19:48.981Z</time></trkpt><trkpt lat="42.2607877" lon="13.7312075"><ele>670.0</ele><time>2026-05-03T09:19:50.981Z</time></trkpt><trkpt lat="42.2608552" lon="13.7313095"><ele>670.0</ele><time>2026-05-03T09:19:52.98Z</time></trkpt><trkpt lat="42.2609071" lon="13.7314286"><ele>666.4</ele><time>2026-05-03T09:19:54.98Z</time></trkpt><trkpt lat="42.2609584" lon="13.731573"><ele>662.8</ele><time>2026-05-03T09:19:56.981Z</time></trkpt><trkpt lat="42.2609904" lon="13.731647"><ele>659.2</ele><time>2026-05-03T09:19:57.981Z</time></trkpt><trkpt lat="42.2610302" lon="13.7317193"><ele>655.6</ele><time>2026-05-03T09:19:58.98Z</time></trkpt><trkpt lat="42.2611015" lon="13.7318301"><ele>652.0</ele><time>2026-05-03T09:20:00.98Z</time></trkpt><trkpt lat="42.2611719" lon="13.7319241"><ele>651.4000000000001</ele><time>2026-05-03T09:20:02.98Z</time></trkpt><trkpt lat="42.2612575" lon="13.7319624"><ele>650.8000000000001</ele><time>2026-05-03T09:20:04.981Z</time></trkpt><trkpt lat="42.2613606" lon="13.7319684"><ele>650.2</ele><time>2026-05-03T09:20:06.981Z</time></trkpt><trkpt lat="42.2614648" lon="13.7320036"><ele>649.6</ele><time>2026-05-03T09:20:08.98Z</time></trkpt><trkpt lat="42.2615488" lon="13.7321127"><ele>649.0</ele><time>2026-05-03T09:20:10.981Z</time></trkpt><trkpt lat="42.2615962" lon="13.7322515"><ele>649.0</ele><time>2026-05-03T09:20:12.98Z</time></trkpt><trkpt lat="42.2616091" lon="13.7323824"><ele>649.0</ele><time>2026-05-03T09:20:14.98Z</time></trkpt><trkpt lat="42.2616041" lon="13.7325462"><ele>649.0</ele><time>2026-05-03T09:20:16.981Z</time></trkpt><trkpt lat="42.2615924" lon="13.7327072"><ele>649.0</ele><time>2026-05-03T09:20:18.98Z</time></trkpt><trkpt lat="42.2616081" lon="13.7328772"><ele>646.8571428571428</ele><time>2026-05-03T09:20:20.98Z</time></trkpt><trkpt lat="42.2616234" lon="13.7329719"><ele>644.7142857142857</ele><time>2026-05-03T09:20:21.98Z</time></trkpt><trkpt lat="42.2616342" lon="13.7330669"><ele>642.5714285714286</ele><time>2026-05-03T09:20:22.981Z</time></trkpt><trkpt lat="42.2616422" lon="13.7331585"><ele>640.4285714285713</ele><time>2026-05-03T09:20:23.981Z</time></trkpt><trkpt lat="42.2616501" lon="13.7332547"><ele>638.2857142857142</ele><time>2026-05-03T09:20:24.981Z</time></trkpt><trkpt lat="42.261661" lon="13.733353"><ele>636.1428571428571</ele><time>2026-05-03T09:20:25.981Z</time></trkpt><trkpt lat="42.2616799" lon="13.7334498"><ele>634.0</ele><time>2026-05-03T09:20:26.98Z</time></trkpt><trkpt lat="42.2617029" lon="13.7335451"><ele>633.1428571428571</ele><time>2026-05-03T09:20:27.981Z</time></trkpt><trkpt lat="42.2617261" lon="13.7336403"><ele>632.2857142857142</ele><time>2026-05-03T09:20:28.981Z</time></trkpt><trkpt lat="42.2617473" lon="13.7337376"><ele>631.4285714285713</ele><time>2026-05-03T09:20:29.981Z</time></trkpt><trkpt lat="42.2617603" lon="13.7338386"><ele>630.5714285714286</ele><time>2026-05-03T09:20:30.98Z</time></trkpt><trkpt lat="42.261763" lon="13.7339425"><ele>629.7142857142857</ele><time>2026-05-03T09:20:31.981Z</time></trkpt><trkpt lat="42.2617616" lon="13.7340443"><ele>628.8571428571428</ele><time>2026-05-03T09:20:32.981Z</time></trkpt><trkpt lat="42.2617566" lon="13.7341363"><ele>628.0</ele><time>2026-05-03T09:20:33.981Z</time></trkpt><trkpt lat="42.2617454" lon="13.7342268"><ele>627.9999999999999</ele><time>2026-05-03T09:20:34.98Z</time></trkpt><trkpt lat="42.2617236" lon="13.7343129"><ele>628.0</ele><time>2026-05-03T09:20:35.98Z</time></trkpt><trkpt lat="42.261694" lon="13.7343926"><ele>628.0</ele><time>2026-05-03T09:20:36.981Z</time></trkpt><trkpt lat="42.2616657" lon="13.7344767"><ele>628.0</ele><time>2026-05-03T09:20:37.981Z</time></trkpt><trkpt lat="42.2616383" lon="13.7345618"><ele>628.0</ele><time>2026-05-03T09:20:38.981Z</time></trkpt><trkpt lat="42.2616038" lon="13.7346418"><ele>627.9999999999999</ele><time>2026-05-03T09:20:39.98Z</time></trkpt><trkpt lat="42.261563" lon="13.734717"><ele>628.0</ele><time>2026-05-03T09:20:40.98Z</time></trkpt><trkpt lat="42.2615185" lon="13.7347845"><ele>628.1428571428571</ele><time>2026-05-03T09:20:41.981Z</time></trkpt><trkpt lat="42.2614703" lon="13.7348464"><ele>628.2857142857142</ele><time>2026-05-03T09:20:42.98Z</time></trkpt><trkpt lat="42.2614183" lon="13.734909"><ele>628.4285714285713</ele><time>2026-05-03T09:20:43.981Z</time></trkpt><trkpt lat="42.2613675" lon="13.7349767"><ele>628.5714285714286</ele><time>2026-05-03T09:20:44.981Z</time></trkpt><trkpt lat="42.2613184" lon="13.7350469"><ele>628.7142857142858</ele><time>2026-05-03T09:20:45.981Z</time></trkpt><trkpt lat="42.2612716" lon="13.7351159"><ele>628.8571428571428</ele><time>2026-05-03T09:20:46.98Z</time></trkpt><trkpt lat="42.2612296" lon="13.7351834"><ele>629.0</ele><time>2026-05-03T09:20:47.98Z</time></trkpt><trkpt lat="42.2611808" lon="13.7353109"><ele>624.8333333333333</ele><time>2026-05-03T09:20:49.98Z</time></trkpt><trkpt lat="42.2611439" lon="13.7354688"><ele>620.6666666666666</ele><time>2026-05-03T09:20:51.981Z</time></trkpt><trkpt lat="42.2611257" lon="13.7355526"><ele>616.5</ele><time>2026-05-03T09:20:52.981Z</time></trkpt><trkpt lat="42.2611032" lon="13.7356431"><ele>612.3333333333334</ele><time>2026-05-03T09:20:53.981Z</time></trkpt><trkpt lat="42.2610817" lon="13.7357375"><ele>608.1666666666667</ele><time>2026-05-03T09:20:54.98Z</time></trkpt><trkpt lat="42.2610661" lon="13.7358258"><ele>604.0</ele><time>2026-05-03T09:20:55.981Z</time></trkpt><trkpt lat="42.2610445" lon="13.7359776"><ele>602.6666666666667</ele><time>2026-05-03T09:20:57.98Z</time></trkpt><trkpt lat="42.2610282" lon="13.7361104"><ele>601.3333333333334</ele><time>2026-05-03T09:20:59.98Z</time></trkpt><trkpt lat="42.2610288" lon="13.7362048"><ele>600.0</ele><time>2026-05-03T09:21:02.981Z</time></trkpt><trkpt lat="42.2609665" lon="13.7362867"><ele>598.6666666666666</ele><time>2026-05-03T09:21:41.98Z</time></trkpt><trkpt lat="42.2609711" lon="13.7363816"><ele>597.3333333333333</ele><time>2026-05-03T09:21:50.98Z</time></trkpt><trkpt lat="42.2610313" lon="13.7364446"><ele>596.0</ele><time>2026-05-03T09:21:54.981Z</time></trkpt><trkpt lat="42.2610879" lon="13.7364981"><ele>596.0</ele><time>2026-05-03T09:21:56.98Z</time></trkpt><trkpt lat="42.2611424" lon="13.7365639"><ele>596.0</ele><time>2026-05-03T09:21:58.981Z</time></trkpt><trkpt lat="42.2611885" lon="13.7366249"><ele>596.0</ele><time>2026-05-03T09:22:00.981Z</time></trkpt><trkpt lat="42.2612685" lon="13.7367116"><ele>596.0</ele><time>2026-05-03T09:22:03.981Z</time></trkpt><trkpt lat="42.2613494" lon="13.7368024"><ele>596.0</ele><time>2026-05-03T09:22:05.981Z</time></trkpt><trkpt lat="42.2614474" lon="13.7368874"><ele>592.25</ele><time>2026-05-03T09:22:07.981Z</time></trkpt><trkpt lat="42.2615598" lon="13.7369453"><ele>588.5</ele><time>2026-05-03T09:22:09.981Z</time></trkpt><trkpt lat="42.2616793" lon="13.7369816"><ele>584.75</ele><time>2026-05-03T09:22:11.981Z</time></trkpt><trkpt lat="42.2617926" lon="13.7370167"><ele>581.0</ele><time>2026-05-03T09:22:13.98Z</time></trkpt><trkpt lat="42.2618943" lon="13.7370528"><ele>581.0</ele><time>2026-05-03T09:22:15.981Z</time></trkpt><trkpt lat="42.2619972" lon="13.7371049"><ele>581.0</ele><time>2026-05-03T09:22:17.981Z</time></trkpt><trkpt lat="42.2621055" lon="13.7371843"><ele>581.0</ele><time>2026-05-03T09:22:19.98Z</time></trkpt><trkpt lat="42.2621636" lon="13.7372322"><ele>581.0</ele><time>2026-05-03T09:22:20.981Z</time></trkpt><trkpt lat="42.2622256" lon="13.7372792"><ele>581.0</ele><time>2026-05-03T09:22:21.98Z</time></trkpt><trkpt lat="42.2622907" lon="13.7373275"><ele>581.0</ele><time>2026-05-03T09:22:22.981Z</time></trkpt><trkpt lat="42.2623581" lon="13.7373793"><ele>581.8333333333333</ele><time>2026-05-03T09:22:23.981Z</time></trkpt><trkpt lat="42.2624231" lon="13.7374267"><ele>582.6666666666666</ele><time>2026-05-03T09:22:24.981Z</time></trkpt><trkpt lat="42.2624802" lon="13.7374643"><ele>583.5</ele><time>2026-05-03T09:22:25.981Z</time></trkpt><trkpt lat="42.2625938" lon="13.7375185"><ele>584.3333333333334</ele><time>2026-05-03T09:22:27.981Z</time></trkpt><trkpt lat="42.2626594" lon="13.7375329"><ele>585.1666666666667</ele><time>2026-05-03T09:22:28.981Z</time></trkpt><trkpt lat="42.2627275" lon="13.7375474"><ele>586.0</ele><time>2026-05-03T09:22:29.981Z</time></trkpt><trkpt lat="42.262802" lon="13.7375636"><ele>586.0</ele><time>2026-05-03T09:22:30.981Z</time></trkpt><trkpt lat="42.2628747" lon="13.7375819"><ele>586.0</ele><time>2026-05-03T09:22:31.98Z</time></trkpt><trkpt lat="42.2629482" lon="13.7376013"><ele>586.0</ele><time>2026-05-03T09:22:32.981Z</time></trkpt><trkpt lat="42.2630235" lon="13.7376217"><ele>586.0</ele><time>2026-05-03T09:22:33.981Z</time></trkpt><trkpt lat="42.263101" lon="13.7376399"><ele>586.0</ele><time>2026-05-03T09:22:34.98Z</time></trkpt><trkpt lat="42.2631756" lon="13.7376616"><ele>586.0</ele><time>2026-05-03T09:22:35.98Z</time></trkpt><trkpt lat="42.26325" lon="13.7376799"><ele>586.5</ele><time>2026-05-03T09:22:36.981Z</time></trkpt><trkpt lat="42.2633211" lon="13.737698"><ele>587.0</ele><time>2026-05-03T09:22:37.981Z</time></trkpt><trkpt lat="42.2633935" lon="13.7377168"><ele>587.5</ele><time>2026-05-03T09:22:38.98Z</time></trkpt><trkpt lat="42.2634648" lon="13.7377268"><ele>588.0</ele><time>2026-05-03T09:22:39.981Z</time></trkpt><trkpt lat="42.2635775" lon="13.7377403"><ele>588.5</ele><time>2026-05-03T09:22:41.981Z</time></trkpt><trkpt lat="42.2636802" lon="13.7377546"><ele>589.0</ele><time>2026-05-03T09:22:43.98Z</time></trkpt><trkpt lat="42.2637969" lon="13.7377576"><ele>583.2</ele><time>2026-05-03T09:22:45.981Z</time></trkpt><trkpt lat="42.263909" lon="13.7377431"><ele>577.4</ele><time>2026-05-03T09:22:47.981Z</time></trkpt><trkpt lat="42.2640269" lon="13.7377449"><ele>571.6</ele><time>2026-05-03T09:22:49.98Z</time></trkpt><trkpt lat="42.2640888" lon="13.7377657"><ele>565.8</ele><time>2026-05-03T09:22:50.981Z</time></trkpt><trkpt lat="42.264195" lon="13.7378244"><ele>560.0</ele><time>2026-05-03T09:22:52.98Z</time></trkpt><trkpt lat="42.2643085" lon="13.7378729"><ele>559.3333333333333</ele><time>2026-05-03T09:22:54.981Z</time></trkpt><trkpt lat="42.264374" lon="13.7378885"><ele>558.6666666666666</ele><time>2026-05-03T09:22:55.981Z</time></trkpt><trkpt lat="42.2644434" lon="13.7379016"><ele>558.0</ele><time>2026-05-03T09:22:56.98Z</time></trkpt><trkpt lat="42.2645131" lon="13.737913"><ele>557.3333333333334</ele><time>2026-05-03T09:22:57.981Z</time></trkpt><trkpt lat="42.2646349" lon="13.7379318"><ele>556.6666666666667</ele><time>2026-05-03T09:22:59.981Z</time></trkpt><trkpt lat="42.2647449" lon="13.7379522"><ele>556.0</ele><time>2026-05-03T09:23:01.981Z</time></trkpt><trkpt lat="42.2648118" lon="13.7379694"><ele>555.2</ele><time>2026-05-03T09:23:03.981Z</time></trkpt><trkpt lat="42.2648814" lon="13.738017"><ele>554.4000000000001</ele><time>2026-05-03T09:23:07.981Z</time></trkpt><trkpt lat="42.2649513" lon="13.7380411"><ele>553.6</ele><time>2026-05-03T09:23:11.98Z</time></trkpt><trkpt lat="42.2650465" lon="13.7380721"><ele>552.8000000000001</ele><time>2026-05-03T09:23:15.981Z</time></trkpt><trkpt lat="42.2651411" lon="13.7380891"><ele>552.0</ele><time>2026-05-03T09:23:16.98Z</time></trkpt><trkpt lat="42.2652642" lon="13.7380981"><ele>552.0</ele><time>2026-05-03T09:23:17.981Z</time></trkpt><trkpt lat="42.2654175" lon="13.7381068"><ele>552.0</ele><time>2026-05-03T09:23:18.981Z</time></trkpt><trkpt lat="42.2655971" lon="13.7381178"><ele>552.0</ele><time>2026-05-03T09:23:19.98Z</time></trkpt><trkpt lat="42.265777" lon="13.738131"><ele>551.3333333333334</ele><time>2026-05-03T09:23:20.98Z</time></trkpt><trkpt lat="42.2659689" lon="13.738146"><ele>550.6666666666667</ele><time>2026-05-03T09:23:21.981Z</time></trkpt><trkpt lat="42.2661605" lon="13.7381542"><ele>550.0</ele><time>2026-05-03T09:23:22.98Z</time></trkpt><trkpt lat="42.2663541" lon="13.7381582"><ele>549.0</ele><time>2026-05-03T09:23:23.98Z</time></trkpt><trkpt lat="42.2665453" lon="13.7381657"><ele>548.0</ele><time>2026-05-03T09:23:24.981Z</time></trkpt><trkpt lat="42.2667341" lon="13.7381765"><ele>547.0</ele><time>2026-05-03T09:23:25.98Z</time></trkpt><trkpt lat="42.2669217" lon="13.7381884"><ele>547.0</ele><time>2026-05-03T09:23:26.981Z</time></trkpt><trkpt lat="42.2671112" lon="13.738195"><ele>547.0</ele><time>2026-05-03T09:23:27.981Z</time></trkpt><trkpt lat="42.2672998" lon="13.7382024"><ele>547.0</ele><time>2026-05-03T09:23:28.98Z</time></trkpt><trkpt lat="42.2674914" lon="13.7382114"><ele>545.6666666666667</ele><time>2026-05-03T09:23:29.981Z</time></trkpt><trkpt lat="42.2676861" lon="13.7382204"><ele>544.3333333333334</ele><time>2026-05-03T09:23:30.98Z</time></trkpt><trkpt lat="42.2678742" lon="13.7382321"><ele>543.0</ele><time>2026-05-03T09:23:31.98Z</time></trkpt><trkpt lat="42.2680517" lon="13.738242"><ele>541.75</ele><time>2026-05-03T09:23:32.981Z</time></trkpt><trkpt lat="42.2682059" lon="13.7382496"><ele>540.5</ele><time>2026-05-03T09:23:33.981Z</time></trkpt><trkpt lat="42.2683287" lon="13.7382587"><ele>539.25</ele><time>2026-05-03T09:23:34.981Z</time></trkpt><trkpt lat="42.2684253" lon="13.7382723"><ele>538.0</ele><time>2026-05-03T09:23:35.98Z</time></trkpt><trkpt lat="42.2685023" lon="13.738291"><ele>538.0</ele><time>2026-05-03T09:23:36.981Z</time></trkpt><trkpt lat="42.2685737" lon="13.7383135"><ele>538.0</ele><time>2026-05-03T09:23:37.981Z</time></trkpt><trkpt lat="42.2686506" lon="13.7383397"><ele>538.0</ele><time>2026-05-03T09:23:38.981Z</time></trkpt><trkpt lat="42.2687317" lon="13.7383692"><ele>538.0</ele><time>2026-05-03T09:23:39.981Z</time></trkpt><trkpt lat="42.2688122" lon="13.7383994"><ele>538.0</ele><time>2026-05-03T09:23:40.98Z</time></trkpt><trkpt lat="42.2688909" lon="13.7384301"><ele>538.0</ele><time>2026-05-03T09:23:41.98Z</time></trkpt><trkpt lat="42.2689559" lon="13.7384566"><ele>538.4</ele><time>2026-05-03T09:23:42.98Z</time></trkpt><trkpt lat="42.2690748" lon="13.7385098"><ele>538.8</ele><time>2026-05-03T09:23:44.98Z</time></trkpt><trkpt lat="42.2691353" lon="13.7385451"><ele>539.2</ele><time>2026-05-03T09:23:45.981Z</time></trkpt><trkpt lat="42.2692483" lon="13.7386166"><ele>539.6</ele><time>2026-05-03T09:23:47.981Z</time></trkpt><trkpt lat="42.2693453" lon="13.7386873"><ele>540.0</ele><time>2026-05-03T09:23:49.98Z</time></trkpt><trkpt lat="42.2693981" lon="13.7388087"><ele>537.6666666666666</ele><time>2026-05-03T09:23:51.98Z</time></trkpt><trkpt lat="42.2693837" lon="13.7389866"><ele>535.3333333333334</ele><time>2026-05-03T09:23:53.981Z</time></trkpt><trkpt lat="42.2693697" lon="13.7390893"><ele>533.0</ele><time>2026-05-03T09:23:54.98Z</time></trkpt><trkpt lat="42.269359" lon="13.7391901"><ele>530.6666666666667</ele><time>2026-05-03T09:23:55.981Z</time></trkpt><trkpt lat="42.2693458" lon="13.7392952"><ele>528.3333333333334</ele><time>2026-05-03T09:23:56.981Z</time></trkpt><trkpt lat="42.2693275" lon="13.7394002"><ele>526.0</ele><time>2026-05-03T09:23:57.981Z</time></trkpt><trkpt lat="42.2693101" lon="13.7395052"><ele>524.6666666666667</ele><time>2026-05-03T09:23:58.981Z</time></trkpt><trkpt lat="42.2692913" lon="13.7396127"><ele>523.3333333333334</ele><time>2026-05-03T09:23:59.98Z</time></trkpt><trkpt lat="42.269269" lon="13.7397195"><ele>522.0</ele><time>2026-05-03T09:24:00.98Z</time></trkpt><trkpt lat="42.2692471" lon="13.7398137"><ele>520.6666666666666</ele><time>2026-05-03T09:24:01.98Z</time></trkpt><trkpt lat="42.2692267" lon="13.7399061"><ele>519.3333333333333</ele><time>2026-05-03T09:24:02.98Z</time></trkpt><trkpt lat="42.2692164" lon="13.739999"><ele>518.0</ele><time>2026-05-03T09:24:03.981Z</time></trkpt><trkpt lat="42.2691975" lon="13.7401544"><ele>515.5714285714286</ele><time>2026-05-03T09:24:05.981Z</time></trkpt><trkpt lat="42.2691362" lon="13.7402737"><ele>513.1428571428571</ele><time>2026-05-03T09:24:07.981Z</time></trkpt><trkpt lat="42.2690871" lon="13.7403332"><ele>510.7142857142857</ele><time>2026-05-03T09:24:08.98Z</time></trkpt><trkpt lat="42.269033" lon="13.7403808"><ele>508.2857142857143</ele><time>2026-05-03T09:24:09.98Z</time></trkpt><trkpt lat="42.2689727" lon="13.7404254"><ele>505.85714285714283</ele><time>2026-05-03T09:24:10.981Z</time></trkpt><trkpt lat="42.2689086" lon="13.7404679"><ele>503.42857142857144</ele><time>2026-05-03T09:24:11.98Z</time></trkpt><trkpt lat="42.2688458" lon="13.7405074"><ele>501.0</ele><time>2026-05-03T09:24:12.981Z</time></trkpt><trkpt lat="42.2687323" lon="13.7405643"><ele>501.0</ele><time>2026-05-03T09:24:14.98Z</time></trkpt><trkpt lat="42.2686454" lon="13.7405673"><ele>501.0</ele><time>2026-05-03T09:24:16.981Z</time></trkpt><trkpt lat="42.2685957" lon="13.7405071"><ele>501.0</ele><time>2026-05-03T09:24:18.98Z</time></trkpt><trkpt lat="42.268567" lon="13.7403794"><ele>501.0</ele><time>2026-05-03T09:24:20.98Z</time></trkpt><trkpt lat="42.2685545" lon="13.7402205"><ele>501.0</ele><time>2026-05-03T09:24:22.981Z</time></trkpt><trkpt lat="42.2685349" lon="13.7400952"><ele>501.0</ele><time>2026-05-03T09:24:24.98Z</time></trkpt><trkpt lat="42.2684256" lon="13.740032"><ele>501.0</ele><time>2026-05-03T09:24:27.98Z</time></trkpt><trkpt lat="42.2683471" lon="13.7400786"><ele>501.0</ele><time>2026-05-03T09:24:29.98Z</time></trkpt><trkpt lat="42.2682966" lon="13.7401927"><ele>501.0</ele><time>2026-05-03T09:24:31.981Z</time></trkpt><trkpt lat="42.2682552" lon="13.740258"><ele>501.0</ele><time>2026-05-03T09:24:32.981Z</time></trkpt><trkpt lat="42.2681487" lon="13.7403547"><ele>499.6666666666667</ele><time>2026-05-03T09:24:34.981Z</time></trkpt><trkpt lat="42.2680777" lon="13.7403931"><ele>498.33333333333337</ele><time>2026-05-03T09:24:35.98Z</time></trkpt><trkpt lat="42.2680048" lon="13.74042"><ele>497.0</ele><time>2026-05-03T09:24:36.981Z</time></trkpt><trkpt lat="42.2679331" lon="13.7404424"><ele>495.6666666666667</ele><time>2026-05-03T09:24:37.981Z</time></trkpt><trkpt lat="42.2678673" lon="13.7404662"><ele>494.33333333333337</ele><time>2026-05-03T09:24:38.981Z</time></trkpt><trkpt lat="42.2677551" lon="13.7404842"><ele>493.0</ele><time>2026-05-03T09:24:40.981Z</time></trkpt><trkpt lat="42.2676375" lon="13.7404518"><ele>493.00000000000006</ele><time>2026-05-03T09:24:42.981Z</time></trkpt><trkpt lat="42.2675272" lon="13.7404176"><ele>493.0</ele><time>2026-05-03T09:24:44.981Z</time></trkpt><trkpt lat="42.2674682" lon="13.7403771"><ele>493.0</ele><time>2026-05-03T09:24:45.981Z</time></trkpt><trkpt lat="42.2674092" lon="13.740331"><ele>493.0</ele><time>2026-05-03T09:24:46.98Z</time></trkpt><trkpt lat="42.2673469" lon="13.7402892"><ele>493.00000000000006</ele><time>2026-05-03T09:24:47.98Z</time></trkpt><trkpt lat="42.2672846" lon="13.740247"><ele>493.0</ele><time>2026-05-03T09:24:48.98Z</time></trkpt><trkpt lat="42.2672238" lon="13.7402092"><ele>494.33333333333337</ele><time>2026-05-03T09:24:49.981Z</time></trkpt><trkpt lat="42.2671256" lon="13.740195"><ele>495.6666666666667</ele><time>2026-05-03T09:24:51.98Z</time></trkpt><trkpt lat="42.2670221" lon="13.7402116"><ele>497.0</ele><time>2026-05-03T09:24:53.98Z</time></trkpt><trkpt lat="42.2669539" lon="13.7401946"><ele>498.33333333333337</ele><time>2026-05-03T09:24:54.981Z</time></trkpt><trkpt lat="42.2668696" lon="13.7401697"><ele>499.6666666666667</ele><time>2026-05-03T09:24:55.981Z</time></trkpt><trkpt lat="42.2667872" lon="13.7401602"><ele>501.0</ele><time>2026-05-03T09:24:56.98Z</time></trkpt><trkpt lat="42.2667" lon="13.7401715"><ele>501.0</ele><time>2026-05-03T09:24:57.98Z</time></trkpt><trkpt lat="42.2666042" lon="13.7401891"><ele>501.0</ele><time>2026-05-03T09:24:58.98Z</time></trkpt><trkpt lat="42.2665057" lon="13.7402106"><ele>501.0</ele><time>2026-05-03T09:24:59.98Z</time></trkpt><trkpt lat="42.2664174" lon="13.7402361"><ele>501.0</ele><time>2026-05-03T09:25:00.98Z</time></trkpt><trkpt lat="42.2663437" lon="13.7402555"><ele>501.0</ele><time>2026-05-03T09:25:01.98Z</time></trkpt><trkpt lat="42.266281" lon="13.7402805"><ele>501.0</ele><time>2026-05-03T09:25:02.98Z</time></trkpt><trkpt lat="42.2661776" lon="13.7403743"><ele>498.6666666666667</ele><time>2026-05-03T09:25:04.981Z</time></trkpt><trkpt lat="42.2661232" lon="13.7404514"><ele>496.33333333333337</ele><time>2026-05-03T09:25:05.98Z</time></trkpt><trkpt lat="42.2660589" lon="13.7405297"><ele>494.0</ele><time>2026-05-03T09:25:06.98Z</time></trkpt><trkpt lat="42.2659878" lon="13.7405991"><ele>491.6666666666667</ele><time>2026-05-03T09:25:07.981Z</time></trkpt><trkpt lat="42.2659169" lon="13.740668"><ele>489.33333333333337</ele><time>2026-05-03T09:25:08.98Z</time></trkpt><trkpt lat="42.2658476" lon="13.7407452"><ele>487.0</ele><time>2026-05-03T09:25:09.98Z</time></trkpt><trkpt lat="42.2657858" lon="13.7408141"><ele>487.0</ele><time>2026-05-03T09:25:10.981Z</time></trkpt><trkpt lat="42.2657241" lon="13.7408676"><ele>487.0</ele><time>2026-05-03T09:25:11.98Z</time></trkpt><trkpt lat="42.2656559" lon="13.7409105"><ele>487.0</ele><time>2026-05-03T09:25:12.981Z</time></trkpt><trkpt lat="42.2655833" lon="13.7409418"><ele>487.0</ele><time>2026-05-03T09:25:13.98Z</time></trkpt><trkpt lat="42.2655089" lon="13.7409661"><ele>487.0</ele><time>2026-05-03T09:25:14.98Z</time></trkpt><trkpt lat="42.2654385" lon="13.7409864"><ele>487.0</ele><time>2026-05-03T09:25:15.981Z</time></trkpt><trkpt lat="42.26537" lon="13.7410009"><ele>487.0</ele><time>2026-05-03T09:25:16.98Z</time></trkpt><trkpt lat="42.2652916" lon="13.7410005"><ele>487.0</ele><time>2026-05-03T09:25:17.98Z</time></trkpt><trkpt lat="42.2652042" lon="13.7409907"><ele>487.00000000000006</ele><time>2026-05-03T09:25:18.981Z</time></trkpt><trkpt lat="42.2651163" lon="13.7409724"><ele>487.00000000000006</ele><time>2026-05-03T09:25:19.98Z</time></trkpt><trkpt lat="42.2650233" lon="13.7409554"><ele>487.0</ele><time>2026-05-03T09:25:20.981Z</time></trkpt><trkpt lat="42.2649182" lon="13.7409471"><ele>487.0</ele><time>2026-05-03T09:25:21.981Z</time></trkpt><trkpt lat="42.2648246" lon="13.7409487"><ele>487.50000000000006</ele><time>2026-05-03T09:25:22.981Z</time></trkpt><trkpt lat="42.264754" lon="13.7409689"><ele>488.0</ele><time>2026-05-03T09:25:23.98Z</time></trkpt><trkpt lat="42.264686" lon="13.7410094"><ele>488.5</ele><time>2026-05-03T09:25:24.981Z</time></trkpt><trkpt lat="42.2646142" lon="13.7410654"><ele>489.0</ele><time>2026-05-03T09:25:25.981Z</time></trkpt><trkpt lat="42.2645404" lon="13.7411164"><ele>489.50000000000006</ele><time>2026-05-03T09:25:26.981Z</time></trkpt><trkpt lat="42.264467" lon="13.7411558"><ele>490.0</ele><time>2026-05-03T09:25:27.981Z</time></trkpt><trkpt lat="42.2643859" lon="13.7411894"><ele>487.33333333333337</ele><time>2026-05-03T09:25:28.98Z</time></trkpt><trkpt lat="42.2643013" lon="13.7412162"><ele>484.6666666666667</ele><time>2026-05-03T09:25:29.981Z</time></trkpt><trkpt lat="42.2642239" lon="13.7412357"><ele>482.0</ele><time>2026-05-03T09:25:30.981Z</time></trkpt><trkpt lat="42.2641398" lon="13.7412469"><ele>479.33333333333337</ele><time>2026-05-03T09:25:31.98Z</time></trkpt><trkpt lat="42.2640452" lon="13.7412482"><ele>476.6666666666667</ele><time>2026-05-03T09:25:32.981Z</time></trkpt><trkpt lat="42.2639476" lon="13.7412439"><ele>474.0</ele><time>2026-05-03T09:25:33.981Z</time></trkpt><trkpt lat="42.2638541" lon="13.7412407"><ele>474.0</ele><time>2026-05-03T09:25:34.981Z</time></trkpt><trkpt lat="42.2637675" lon="13.7412366"><ele>474.0</ele><time>2026-05-03T09:25:35.98Z</time></trkpt><trkpt lat="42.2636853" lon="13.7412365"><ele>474.0</ele><time>2026-05-03T09:25:36.981Z</time></trkpt><trkpt lat="42.2636138" lon="13.7412398"><ele>474.0</ele><time>2026-05-03T09:25:37.98Z</time></trkpt><trkpt lat="42.2635351" lon="13.7412663"><ele>474.0</ele><time>2026-05-03T09:25:39.98Z</time></trkpt><trkpt lat="42.2634818" lon="13.7413825"><ele>474.0</ele><time>2026-05-03T09:25:41.981Z</time></trkpt><trkpt lat="42.2633948" lon="13.7414761"><ele>474.0</ele><time>2026-05-03T09:25:43.981Z</time></trkpt><trkpt lat="42.2633589" lon="13.7415724"><ele>474.0</ele><time>2026-05-03T09:25:45.981Z</time></trkpt><trkpt lat="42.2633436" lon="13.7416652"><ele>474.0</ele><time>2026-05-03T09:25:47.981Z</time></trkpt><trkpt lat="42.2632693" lon="13.7417086"><ele>474.0</ele><time>2026-05-03T09:25:49.981Z</time></trkpt><trkpt lat="42.2631619" lon="13.7417423"><ele>474.0</ele><time>2026-05-03T09:25:51.98Z</time></trkpt><trkpt lat="42.263123" lon="13.7418379"><ele>474.0</ele><time>2026-05-03T09:25:53.981Z</time></trkpt><trkpt lat="42.2631479" lon="13.7419816"><ele>472.0</ele><time>2026-05-03T09:25:55.981Z</time></trkpt><trkpt lat="42.2631567" lon="13.7421002"><ele>470.0</ele><time>2026-05-03T09:25:57.981Z</time></trkpt><trkpt lat="42.2630722" lon="13.7421865"><ele>468.0</ele><time>2026-05-03T09:26:00.98Z</time></trkpt><trkpt lat="42.2630098" lon="13.7422826"><ele>466.0</ele><time>2026-05-03T09:26:02.981Z</time></trkpt><trkpt lat="42.2630277" lon="13.7424576"><ele>464.0</ele><time>2026-05-03T09:26:04.981Z</time></trkpt><trkpt lat="42.2630385" lon="13.7425554"><ele>464.0</ele><time>2026-05-03T09:26:05.981Z</time></trkpt><trkpt lat="42.2630253" lon="13.7426849"><ele>464.0</ele><time>2026-05-03T09:26:07.98Z</time></trkpt><trkpt lat="42.2629554" lon="13.7427622"><ele>464.0</ele><time>2026-05-03T09:26:09.981Z</time></trkpt><trkpt lat="42.2628397" lon="13.7428077"><ele>464.0</ele><time>2026-05-03T09:26:11.981Z</time></trkpt><trkpt lat="42.2627756" lon="13.7428344"><ele>464.0</ele><time>2026-05-03T09:26:12.981Z</time></trkpt><trkpt lat="42.2627095" lon="13.7428881"><ele>463.1428571428572</ele><time>2026-05-03T09:26:13.981Z</time></trkpt><trkpt lat="42.262641" lon="13.7429431"><ele>462.28571428571433</ele><time>2026-05-03T09:26:14.981Z</time></trkpt><trkpt lat="42.2625749" lon="13.7429908"><ele>461.42857142857144</ele><time>2026-05-03T09:26:15.98Z</time></trkpt><trkpt lat="42.262512" lon="13.7430327"><ele>460.5714285714286</ele><time>2026-05-03T09:26:16.981Z</time></trkpt><trkpt lat="42.2624517" lon="13.7430614"><ele>459.7142857142858</ele><time>2026-05-03T09:26:17.981Z</time></trkpt><trkpt lat="42.2623903" lon="13.7430842"><ele>458.85714285714283</ele><time>2026-05-03T09:26:18.98Z</time></trkpt><trkpt lat="42.2623309" lon="13.7431268"><ele>458.0</ele><time>2026-05-03T09:26:19.98Z</time></trkpt><trkpt lat="42.2622809" lon="13.7431979"><ele>457.99999999999994</ele><time>2026-05-03T09:26:20.98Z</time></trkpt><trkpt lat="42.2622381" lon="13.7432824"><ele>458.0</ele><time>2026-05-03T09:26:21.98Z</time></trkpt><trkpt lat="42.2622035" lon="13.7433749"><ele>458.0</ele><time>2026-05-03T09:26:22.981Z</time></trkpt><trkpt lat="42.2621781" lon="13.7434703"><ele>458.0</ele><time>2026-05-03T09:26:23.981Z</time></trkpt><trkpt lat="42.2621464" lon="13.7435478"><ele>457.99999999999994</ele><time>2026-05-03T09:26:24.981Z</time></trkpt><trkpt lat="42.2620979" lon="13.7436378"><ele>458.0</ele><time>2026-05-03T09:26:26.98Z</time></trkpt><trkpt lat="42.2621532" lon="13.7437721"><ele>457.79999999999995</ele><time>2026-05-03T09:26:29.981Z</time></trkpt><trkpt lat="42.2621935" lon="13.7438413"><ele>457.59999999999997</ele><time>2026-05-03T09:26:30.98Z</time></trkpt><trkpt lat="42.2622662" lon="13.7439585"><ele>457.40000000000003</ele><time>2026-05-03T09:26:32.98Z</time></trkpt><trkpt lat="42.2623597" lon="13.7439863"><ele>457.20000000000005</ele><time>2026-05-03T09:26:34.981Z</time></trkpt><trkpt lat="42.2624764" lon="13.7439877"><ele>457.0</ele><time>2026-05-03T09:26:36.98Z</time></trkpt><trkpt lat="42.2625964" lon="13.7439824"><ele>456.20000000000005</ele><time>2026-05-03T09:26:38.98Z</time></trkpt><trkpt lat="42.2627216" lon="13.743966"><ele>455.40000000000003</ele><time>2026-05-03T09:26:40.981Z</time></trkpt><trkpt lat="42.2627927" lon="13.7439516"><ele>454.59999999999997</ele><time>2026-05-03T09:26:41.98Z</time></trkpt><trkpt lat="42.2628867" lon="13.743937"><ele>453.79999999999995</ele><time>2026-05-03T09:26:42.981Z</time></trkpt><trkpt lat="42.2629999" lon="13.7439303"><ele>453.0</ele><time>2026-05-03T09:26:43.981Z</time></trkpt><trkpt lat="42.2631183" lon="13.7439219"><ele>452.4</ele><time>2026-05-03T09:26:44.981Z</time></trkpt><trkpt lat="42.263235" lon="13.7439103"><ele>451.79999999999995</ele><time>2026-05-03T09:26:45.981Z</time></trkpt><trkpt lat="42.2633476" lon="13.7439089"><ele>451.2</ele><time>2026-05-03T09:26:46.98Z</time></trkpt><trkpt lat="42.2634573" lon="13.743916"><ele>450.6</ele><time>2026-05-03T09:26:47.98Z</time></trkpt><trkpt lat="42.2635636" lon="13.7439317"><ele>450.0</ele><time>2026-05-03T09:26:48.981Z</time></trkpt><trkpt lat="42.2636641" lon="13.7439552"><ele>450.0</ele><time>2026-05-03T09:26:49.98Z</time></trkpt><trkpt lat="42.2637642" lon="13.7439776"><ele>450.0</ele><time>2026-05-03T09:26:50.98Z</time></trkpt><trkpt lat="42.2638744" lon="13.7440038"><ele>450.0</ele><time>2026-05-03T09:26:51.981Z</time></trkpt><trkpt lat="42.2639919" lon="13.7440237"><ele>450.0</ele><time>2026-05-03T09:26:52.981Z</time></trkpt><trkpt lat="42.2641078" lon="13.7440404"><ele>450.0</ele><time>2026-05-03T09:26:53.981Z</time></trkpt><trkpt lat="42.2642212" lon="13.7440651"><ele>449.5</ele><time>2026-05-03T09:26:54.981Z</time></trkpt><trkpt lat="42.264337" lon="13.7440935"><ele>449.0</ele><time>2026-05-03T09:26:55.98Z</time></trkpt><trkpt lat="42.2644529" lon="13.7441034"><ele>448.5</ele><time>2026-05-03T09:26:56.98Z</time></trkpt><trkpt lat="42.2645623" lon="13.744085"><ele>448.0</ele><time>2026-05-03T09:26:57.981Z</time></trkpt><trkpt lat="42.2646668" lon="13.7440465"><ele>448.0</ele><time>2026-05-03T09:26:58.981Z</time></trkpt><trkpt lat="42.2647669" lon="13.7439944"><ele>447.99999999999994</ele><time>2026-05-03T09:26:59.981Z</time></trkpt><trkpt lat="42.2648623" lon="13.7439249"><ele>447.99999999999994</ele><time>2026-05-03T09:27:00.981Z</time></trkpt><trkpt lat="42.2649513" lon="13.7438423"><ele>448.0</ele><time>2026-05-03T09:27:01.98Z</time></trkpt><trkpt lat="42.2650395" lon="13.7437596"><ele>448.0</ele><time>2026-05-03T09:27:02.981Z</time></trkpt><trkpt lat="42.2651312" lon="13.7436934"><ele>448.0</ele><time>2026-05-03T09:27:03.98Z</time></trkpt><trkpt lat="42.2652258" lon="13.7436415"><ele>447.99999999999994</ele><time>2026-05-03T09:27:04.981Z</time></trkpt><trkpt lat="42.2653225" lon="13.7435912"><ele>447.99999999999994</ele><time>2026-05-03T09:27:05.98Z</time></trkpt><trkpt lat="42.2654201" lon="13.74355"><ele>448.0</ele><time>2026-05-03T09:27:06.981Z</time></trkpt><trkpt lat="42.2655236" lon="13.7435278"><ele>448.0</ele><time>2026-05-03T09:27:07.98Z</time></trkpt><trkpt lat="42.2656351" lon="13.743522"><ele>448.0</ele><time>2026-05-03T09:27:08.981Z</time></trkpt><trkpt lat="42.2657512" lon="13.743527"><ele>447.99999999999994</ele><time>2026-05-03T09:27:09.981Z</time></trkpt><trkpt lat="42.2658657" lon="13.7435203"><ele>447.99999999999994</ele><time>2026-05-03T09:27:10.981Z</time></trkpt><trkpt lat="42.2659752" lon="13.7435034"><ele>448.0</ele><time>2026-05-03T09:27:11.981Z</time></trkpt><trkpt lat="42.2660825" lon="13.743501"><ele>448.0</ele><time>2026-05-03T09:27:12.981Z</time></trkpt><trkpt lat="42.2661941" lon="13.7435167"><ele>448.0</ele><time>2026-05-03T09:27:13.981Z</time></trkpt><trkpt lat="42.2663074" lon="13.7435461"><ele>448.0</ele><time>2026-05-03T09:27:14.981Z</time></trkpt><trkpt lat="42.2664199" lon="13.7435779"><ele>448.0</ele><time>2026-05-03T09:27:15.981Z</time></trkpt><trkpt lat="42.2665321" lon="13.7435937"><ele>448.0</ele><time>2026-05-03T09:27:16.98Z</time></trkpt><trkpt lat="42.2666407" lon="13.7435964"><ele>447.59999999999997</ele><time>2026-05-03T09:27:17.98Z</time></trkpt><trkpt lat="42.2667371" lon="13.7435909"><ele>447.19999999999993</ele><time>2026-05-03T09:27:18.98Z</time></trkpt><trkpt lat="42.2668229" lon="13.7435767"><ele>446.8</ele><time>2026-05-03T09:27:19.981Z</time></trkpt><trkpt lat="42.2669072" lon="13.7435509"><ele>446.4</ele><time>2026-05-03T09:27:20.98Z</time></trkpt><trkpt lat="42.2669937" lon="13.7435087"><ele>446.0</ele><time>2026-05-03T09:27:21.981Z</time></trkpt><trkpt lat="42.2670772" lon="13.7434634"><ele>445.99999999999994</ele><time>2026-05-03T09:27:22.981Z</time></trkpt><trkpt lat="42.2671574" lon="13.7434283"><ele>446.0</ele><time>2026-05-03T09:27:23.98Z</time></trkpt><trkpt lat="42.2672362" lon="13.743406"><ele>446.0</ele><time>2026-05-03T09:27:24.981Z</time></trkpt><trkpt lat="42.267317" lon="13.7433921"><ele>446.0</ele><time>2026-05-03T09:27:25.981Z</time></trkpt><trkpt lat="42.2673968" lon="13.7433816"><ele>445.99999999999994</ele><time>2026-05-03T09:27:26.98Z</time></trkpt><trkpt lat="42.2674726" lon="13.7433677"><ele>446.0</ele><time>2026-05-03T09:27:27.98Z</time></trkpt><trkpt lat="42.2675482" lon="13.7433564"><ele>444.8333333333333</ele><time>2026-05-03T09:27:28.98Z</time></trkpt><trkpt lat="42.2676278" lon="13.7433605"><ele>443.66666666666663</ele><time>2026-05-03T09:27:29.98Z</time></trkpt><trkpt lat="42.2677121" lon="13.7433848"><ele>442.5</ele><time>2026-05-03T09:27:30.981Z</time></trkpt><trkpt lat="42.2677997" lon="13.7434185"><ele>441.33333333333337</ele><time>2026-05-03T09:27:31.98Z</time></trkpt><trkpt lat="42.2678876" lon="13.7434587"><ele>440.1666666666667</ele><time>2026-05-03T09:27:32.981Z</time></trkpt><trkpt lat="42.2679728" lon="13.7435111"><ele>439.0</ele><time>2026-05-03T09:27:33.981Z</time></trkpt><trkpt lat="42.2680526" lon="13.7435702"><ele>439.83333333333337</ele><time>2026-05-03T09:27:34.981Z</time></trkpt><trkpt lat="42.2681301" lon="13.7436271"><ele>440.6666666666667</ele><time>2026-05-03T09:27:35.981Z</time></trkpt><trkpt lat="42.2682063" lon="13.7436772"><ele>441.5</ele><time>2026-05-03T09:27:36.98Z</time></trkpt><trkpt lat="42.2682796" lon="13.7437176"><ele>442.33333333333337</ele><time>2026-05-03T09:27:37.981Z</time></trkpt><trkpt lat="42.2683532" lon="13.7437458"><ele>443.1666666666667</ele><time>2026-05-03T09:27:38.981Z</time></trkpt><trkpt lat="42.2684261" lon="13.7437551"><ele>444.0</ele><time>2026-05-03T09:27:39.981Z</time></trkpt><trkpt lat="42.2685037" lon="13.743755"><ele>444.0</ele><time>2026-05-03T09:27:40.98Z</time></trkpt><trkpt lat="42.2685823" lon="13.7437703"><ele>444.0</ele><time>2026-05-03T09:27:41.981Z</time></trkpt><trkpt lat="42.2686567" lon="13.7437817"><ele>444.0</ele><time>2026-05-03T09:27:42.981Z</time></trkpt><trkpt lat="42.2687288" lon="13.7437665"><ele>444.0</ele><time>2026-05-03T09:27:43.98Z</time></trkpt><trkpt lat="42.2688016" lon="13.7437228"><ele>444.0</ele><time>2026-05-03T09:27:44.98Z</time></trkpt><trkpt lat="42.2688726" lon="13.7436621"><ele>444.0</ele><time>2026-05-03T09:27:45.98Z</time></trkpt><trkpt lat="42.2689353" lon="13.7436005"><ele>442.5</ele><time>2026-05-03T09:27:46.981Z</time></trkpt><trkpt lat="42.2689909" lon="13.7435356"><ele>441.0</ele><time>2026-05-03T09:27:47.981Z</time></trkpt><trkpt lat="42.2690315" lon="13.743458"><ele>439.5</ele><time>2026-05-03T09:27:48.98Z</time></trkpt><trkpt lat="42.2690578" lon="13.7433723"><ele>438.0</ele><time>2026-05-03T09:27:49.981Z</time></trkpt><trkpt lat="42.2691266" lon="13.743262"><ele>436.5</ele><time>2026-05-03T09:27:51.981Z</time></trkpt><trkpt lat="42.2692489" lon="13.7432183"><ele>435.0</ele><time>2026-05-03T09:27:53.981Z</time></trkpt><trkpt lat="42.2693137" lon="13.7432067"><ele>435.00000000000006</ele><time>2026-05-03T09:27:54.98Z</time></trkpt><trkpt lat="42.2693808" lon="13.7431981"><ele>435.0</ele><time>2026-05-03T09:27:55.981Z</time></trkpt><trkpt lat="42.2694507" lon="13.7431998"><ele>435.0</ele><time>2026-05-03T09:27:56.98Z</time></trkpt><trkpt lat="42.2695167" lon="13.7432149"><ele>435.0</ele><time>2026-05-03T09:27:57.98Z</time></trkpt><trkpt lat="42.2695792" lon="13.743236"><ele>435.0</ele><time>2026-05-03T09:27:58.981Z</time></trkpt><trkpt lat="42.2696411" lon="13.7432624"><ele>435.00000000000006</ele><time>2026-05-03T09:27:59.981Z</time></trkpt><trkpt lat="42.2697002" lon="13.7432943"><ele>435.0</ele><time>2026-05-03T09:28:00.981Z</time></trkpt><trkpt lat="42.2698156" lon="13.7433628"><ele>434.8333333333333</ele><time>2026-05-03T09:28:02.98Z</time></trkpt><trkpt lat="42.2698796" lon="13.7434073"><ele>434.66666666666663</ele><time>2026-05-03T09:28:03.981Z</time></trkpt><trkpt lat="42.2699397" lon="13.7434544"><ele>434.5</ele><time>2026-05-03T09:28:04.98Z</time></trkpt><trkpt lat="42.2700257" lon="13.7435443"><ele>434.3333333333333</ele><time>2026-05-03T09:28:06.981Z</time></trkpt><trkpt lat="42.27013" lon="13.7436316"><ele>434.16666666666663</ele><time>2026-05-03T09:28:08.98Z</time></trkpt><trkpt lat="42.2701955" lon="13.743675"><ele>434.0</ele><time>2026-05-03T09:28:09.981Z</time></trkpt><trkpt lat="42.2702716" lon="13.7437284"><ele>432.99999999999994</ele><time>2026-05-03T09:28:10.98Z</time></trkpt><trkpt lat="42.2703455" lon="13.7437783"><ele>432.0</ele><time>2026-05-03T09:28:11.981Z</time></trkpt><trkpt lat="42.2704125" lon="13.7438246"><ele>431.0</ele><time>2026-05-03T09:28:12.981Z</time></trkpt><trkpt lat="42.2704796" lon="13.7438617"><ele>430.0</ele><time>2026-05-03T09:28:13.98Z</time></trkpt><trkpt lat="42.2705567" lon="13.7438862"><ele>428.99999999999994</ele><time>2026-05-03T09:28:14.981Z</time></trkpt><trkpt lat="42.2706317" lon="13.7439108"><ele>428.0</ele><time>2026-05-03T09:28:15.981Z</time></trkpt><trkpt lat="42.2706976" lon="13.7439413"><ele>427.8333333333333</ele><time>2026-05-03T09:28:16.98Z</time></trkpt><trkpt lat="42.2707622" lon="13.7439746"><ele>427.66666666666663</ele><time>2026-05-03T09:28:17.981Z</time></trkpt><trkpt lat="42.2708222" lon="13.7440165"><ele>427.5</ele><time>2026-05-03T09:28:18.981Z</time></trkpt><trkpt lat="42.2708977" lon="13.7441224"><ele>427.33333333333337</ele><time>2026-05-03T09:28:20.98Z</time></trkpt><trkpt lat="42.2709104" lon="13.7442115"><ele>427.1666666666667</ele><time>2026-05-03T09:28:22.981Z</time></trkpt><trkpt lat="42.2709118" lon="13.7442999"><ele>427.0</ele><time>2026-05-03T09:28:24.981Z</time></trkpt><trkpt lat="42.2709494" lon="13.7444353"><ele>426.40000000000003</ele><time>2026-05-03T09:28:26.98Z</time></trkpt><trkpt lat="42.2710075" lon="13.7445695"><ele>425.80000000000007</ele><time>2026-05-03T09:28:28.98Z</time></trkpt><trkpt lat="42.2710636" lon="13.7446818"><ele>425.2</ele><time>2026-05-03T09:28:30.98Z</time></trkpt><trkpt lat="42.2710964" lon="13.7447645"><ele>424.6</ele><time>2026-05-03T09:28:31.98Z</time></trkpt><trkpt lat="42.2711375" lon="13.7448563"><ele>424.0</ele><time>2026-05-03T09:28:32.981Z</time></trkpt><trkpt lat="42.2711868" lon="13.7449528"><ele>424.00000000000006</ele><time>2026-05-03T09:28:33.981Z</time></trkpt><trkpt lat="42.2712395" lon="13.7450559"><ele>424.0</ele><time>2026-05-03T09:28:34.981Z</time></trkpt><trkpt lat="42.2712932" lon="13.7451593"><ele>424.0</ele><time>2026-05-03T09:28:35.981Z</time></trkpt><trkpt lat="42.2713404" lon="13.7452606"><ele>424.0</ele><time>2026-05-03T09:28:36.981Z</time></trkpt><trkpt lat="42.2713802" lon="13.7453594"><ele>424.00000000000006</ele><time>2026-05-03T09:28:37.981Z</time></trkpt><trkpt lat="42.2714159" lon="13.7454558"><ele>424.0</ele><time>2026-05-03T09:28:38.98Z</time></trkpt><trkpt lat="42.2714441" lon="13.7455508"><ele>423.8571428571429</ele><time>2026-05-03T09:28:39.981Z</time></trkpt><trkpt lat="42.2714619" lon="13.7456415"><ele>423.71428571428567</ele><time>2026-05-03T09:28:40.98Z</time></trkpt><trkpt lat="42.2714694" lon="13.7457344"><ele>423.57142857142856</ele><time>2026-05-03T09:28:41.981Z</time></trkpt><trkpt lat="42.2714704" lon="13.7458308"><ele>423.42857142857144</ele><time>2026-05-03T09:28:42.981Z</time></trkpt><trkpt lat="42.271478" lon="13.7459296"><ele>423.28571428571433</ele><time>2026-05-03T09:28:43.98Z</time></trkpt><trkpt lat="42.2714959" lon="13.7460269"><ele>423.1428571428571</ele><time>2026-05-03T09:28:44.981Z</time></trkpt><trkpt lat="42.2715151" lon="13.7461259"><ele>423.0</ele><time>2026-05-03T09:28:45.981Z</time></trkpt><trkpt lat="42.2715386" lon="13.7462284"><ele>423.0</ele><time>2026-05-03T09:28:46.981Z</time></trkpt><trkpt lat="42.2715712" lon="13.7463366"><ele>423.0</ele><time>2026-05-03T09:28:47.98Z</time></trkpt><trkpt lat="42.2716111" lon="13.7464491"><ele>423.0</ele><time>2026-05-03T09:28:48.981Z</time></trkpt><trkpt lat="42.2716598" lon="13.7465671"><ele>423.0</ele><time>2026-05-03T09:28:49.98Z</time></trkpt><trkpt lat="42.2717177" lon="13.7466928"><ele>423.0</ele><time>2026-05-03T09:28:50.981Z</time></trkpt><trkpt lat="42.2717749" lon="13.7468146"><ele>424.59999999999997</ele><time>2026-05-03T09:28:51.981Z</time></trkpt><trkpt lat="42.2718334" lon="13.7469325"><ele>426.2</ele><time>2026-05-03T09:28:52.981Z</time></trkpt><trkpt lat="42.2718927" lon="13.7470433"><ele>427.8</ele><time>2026-05-03T09:28:53.981Z</time></trkpt><trkpt lat="42.2719427" lon="13.7471431"><ele>429.4</ele><time>2026-05-03T09:28:54.98Z</time></trkpt><trkpt lat="42.2719903" lon="13.7472443"><ele>431.0</ele><time>2026-05-03T09:28:55.98Z</time></trkpt><trkpt lat="42.2720478" lon="13.747346"><ele>430.99999999999994</ele><time>2026-05-03T09:28:56.981Z</time></trkpt><trkpt lat="42.2721092" lon="13.7474507"><ele>431.0</ele><time>2026-05-03T09:28:57.981Z</time></trkpt><trkpt lat="42.2721625" lon="13.7475506"><ele>431.0</ele><time>2026-05-03T09:28:58.98Z</time></trkpt><trkpt lat="42.2722082" lon="13.7476355"><ele>431.0</ele><time>2026-05-03T09:28:59.98Z</time></trkpt><trkpt lat="42.2722551" lon="13.7477129"><ele>430.99999999999994</ele><time>2026-05-03T09:29:00.981Z</time></trkpt><trkpt lat="42.272304" lon="13.7477816"><ele>431.0</ele><time>2026-05-03T09:29:01.98Z</time></trkpt><trkpt lat="42.272408" lon="13.7478671"><ele>430.16666666666663</ele><time>2026-05-03T09:29:03.98Z</time></trkpt><trkpt lat="42.2724748" lon="13.747906"><ele>429.3333333333333</ele><time>2026-05-03T09:29:04.98Z</time></trkpt><trkpt lat="42.2725451" lon="13.7479608"><ele>428.5</ele><time>2026-05-03T09:29:05.981Z</time></trkpt><trkpt lat="42.2726165" lon="13.7480291"><ele>427.66666666666663</ele><time>2026-05-03T09:29:06.981Z</time></trkpt><trkpt lat="42.2726876" lon="13.7481051"><ele>426.8333333333333</ele><time>2026-05-03T09:29:07.981Z</time></trkpt><trkpt lat="42.2727604" lon="13.7481911"><ele>426.0</ele><time>2026-05-03T09:29:08.981Z</time></trkpt><trkpt lat="42.2728351" lon="13.7482827"><ele>426.0</ele><time>2026-05-03T09:29:09.981Z</time></trkpt><trkpt lat="42.2729059" lon="13.7483813"><ele>426.0</ele><time>2026-05-03T09:29:10.981Z</time></trkpt><trkpt lat="42.2729724" lon="13.7484882"><ele>426.0</ele><time>2026-05-03T09:29:11.981Z</time></trkpt><trkpt lat="42.2730362" lon="13.7485891"><ele>426.0</ele><time>2026-05-03T09:29:12.981Z</time></trkpt><trkpt lat="42.2731034" lon="13.7486824"><ele>426.0</ele><time>2026-05-03T09:29:13.98Z</time></trkpt><trkpt lat="42.2731752" lon="13.748775"><ele>424.6</ele><time>2026-05-03T09:29:14.98Z</time></trkpt><trkpt lat="42.2732475" lon="13.748866"><ele>423.20000000000005</ele><time>2026-05-03T09:29:15.98Z</time></trkpt><trkpt lat="42.273323" lon="13.7489515"><ele>421.79999999999995</ele><time>2026-05-03T09:29:16.981Z</time></trkpt><trkpt lat="42.2734029" lon="13.7490374"><ele>420.4</ele><time>2026-05-03T09:29:17.98Z</time></trkpt><trkpt lat="42.2734849" lon="13.7491211"><ele>419.0</ele><time>2026-05-03T09:29:18.981Z</time></trkpt><trkpt lat="42.2735688" lon="13.7491954"><ele>418.99999999999994</ele><time>2026-05-03T09:29:19.98Z</time></trkpt><trkpt lat="42.2736524" lon="13.7492549"><ele>419.0</ele><time>2026-05-03T09:29:20.981Z</time></trkpt><trkpt lat="42.2737324" lon="13.7493083"><ele>419.0</ele><time>2026-05-03T09:29:21.98Z</time></trkpt><trkpt lat="42.2738062" lon="13.7493622"><ele>419.0</ele><time>2026-05-03T09:29:22.98Z</time></trkpt><trkpt lat="42.2738716" lon="13.749418"><ele>418.99999999999994</ele><time>2026-05-03T09:29:23.98Z</time></trkpt><trkpt lat="42.2739176" lon="13.7494794"><ele>419.0</ele><time>2026-05-03T09:29:24.98Z</time></trkpt><trkpt lat="42.2739471" lon="13.7496174"><ele>418.99999999999994</ele><time>2026-05-03T09:29:26.981Z</time></trkpt><trkpt lat="42.2739377" lon="13.7497021"><ele>419.0</ele><time>2026-05-03T09:29:27.98Z</time></trkpt><trkpt lat="42.2739122" lon="13.7497999"><ele>419.0</ele><time>2026-05-03T09:29:28.98Z</time></trkpt><trkpt lat="42.2738783" lon="13.7499049"><ele>419.0</ele><time>2026-05-03T09:29:29.981Z</time></trkpt><trkpt lat="42.2738372" lon="13.7500093"><ele>418.99999999999994</ele><time>2026-05-03T09:29:30.981Z</time></trkpt><trkpt lat="42.273793" lon="13.7501146"><ele>419.0</ele><time>2026-05-03T09:29:31.981Z</time></trkpt><trkpt lat="42.2737524" lon="13.75022"><ele>419.0</ele><time>2026-05-03T09:29:32.981Z</time></trkpt><trkpt lat="42.2737121" lon="13.7503197"><ele>419.0</ele><time>2026-05-03T09:29:33.981Z</time></trkpt><trkpt lat="42.273674" lon="13.7504116"><ele>419.0</ele><time>2026-05-03T09:29:34.981Z</time></trkpt><trkpt lat="42.2736418" lon="13.7504944"><ele>419.0</ele><time>2026-05-03T09:29:35.981Z</time></trkpt><trkpt lat="42.2736172" lon="13.7506391"><ele>419.0</ele><time>2026-05-03T09:29:37.98Z</time></trkpt><trkpt lat="42.2736445" lon="13.750791"><ele>418.99999999999994</ele><time>2026-05-03T09:29:39.98Z</time></trkpt><trkpt lat="42.2736752" lon="13.7508839"><ele>419.0</ele><time>2026-05-03T09:29:40.98Z</time></trkpt><trkpt lat="42.2737121" lon="13.7509765"><ele>419.0</ele><time>2026-05-03T09:29:41.981Z</time></trkpt><trkpt lat="42.2737552" lon="13.751058"><ele>419.0</ele><time>2026-05-03T09:29:42.98Z</time></trkpt><trkpt lat="42.2738022" lon="13.7511248"><ele>418.99999999999994</ele><time>2026-05-03T09:29:43.98Z</time></trkpt><trkpt lat="42.273902" lon="13.7512095"><ele>419.0</ele><time>2026-05-03T09:29:45.981Z</time></trkpt><trkpt lat="42.2739966" lon="13.7512121"><ele>418.4</ele><time>2026-05-03T09:29:47.98Z</time></trkpt><trkpt lat="42.2740858" lon="13.7511802"><ele>417.79999999999995</ele><time>2026-05-03T09:29:49.981Z</time></trkpt><trkpt lat="42.2741757" lon="13.7511381"><ele>417.20000000000005</ele><time>2026-05-03T09:29:51.981Z</time></trkpt><trkpt lat="42.2742934" lon="13.751087"><ele>416.6</ele><time>2026-05-03T09:29:53.981Z</time></trkpt><trkpt lat="42.2744167" lon="13.7510333"><ele>416.0</ele><time>2026-05-03T09:29:55.981Z</time></trkpt><trkpt lat="42.2744909" lon="13.7510081"><ele>415.99999999999994</ele><time>2026-05-03T09:29:56.981Z</time></trkpt><trkpt lat="42.2745646" lon="13.7509875"><ele>416.0</ele><time>2026-05-03T09:29:57.981Z</time></trkpt><trkpt lat="42.274633" lon="13.7509739"><ele>416.0</ele><time>2026-05-03T09:29:58.981Z</time></trkpt><trkpt lat="42.2747" lon="13.7509667"><ele>416.0</ele><time>2026-05-03T09:29:59.981Z</time></trkpt><trkpt lat="42.2747664" lon="13.7509653"><ele>415.99999999999994</ele><time>2026-05-03T09:30:00.981Z</time></trkpt><trkpt lat="42.2748883" lon="13.7509723"><ele>416.0</ele><time>2026-05-03T09:30:02.98Z</time></trkpt><trkpt lat="42.2749527" lon="13.7509773"><ele>415.4285714285714</ele><time>2026-05-03T09:30:03.981Z</time></trkpt><trkpt lat="42.2750186" lon="13.750981"><ele>414.8571428571429</ele><time>2026-05-03T09:30:04.981Z</time></trkpt><trkpt lat="42.2750826" lon="13.7509828"><ele>414.2857142857143</ele><time>2026-05-03T09:30:05.981Z</time></trkpt><trkpt lat="42.2751496" lon="13.7509792"><ele>413.71428571428567</ele><time>2026-05-03T09:30:06.981Z</time></trkpt><trkpt lat="42.2752197" lon="13.7509733"><ele>413.1428571428571</ele><time>2026-05-03T09:30:07.981Z</time></trkpt><trkpt lat="42.2752983" lon="13.7509641"><ele>412.57142857142856</ele><time>2026-05-03T09:30:08.98Z</time></trkpt><trkpt lat="42.2753947" lon="13.7509613"><ele>412.0</ele><time>2026-05-03T09:30:09.981Z</time></trkpt><trkpt lat="42.2754951" lon="13.7509722"><ele>412.0</ele><time>2026-05-03T09:30:10.981Z</time></trkpt><trkpt lat="42.2755916" lon="13.7509839"><ele>412.0</ele><time>2026-05-03T09:30:11.981Z</time></trkpt><trkpt lat="42.275687" lon="13.7509911"><ele>412.0</ele><time>2026-05-03T09:30:12.981Z</time></trkpt><trkpt lat="42.2757771" lon="13.750997"><ele>412.0</ele><time>2026-05-03T09:30:13.98Z</time></trkpt><trkpt lat="42.2758629" lon="13.7510058"><ele>412.0</ele><time>2026-05-03T09:30:14.98Z</time></trkpt><trkpt lat="42.2759449" lon="13.7510167"><ele>411.50000000000006</ele><time>2026-05-03T09:30:15.98Z</time></trkpt><trkpt lat="42.2760181" lon="13.7510398"><ele>411.0</ele><time>2026-05-03T09:30:16.98Z</time></trkpt><trkpt lat="42.2760848" lon="13.7510825"><ele>410.5</ele><time>2026-05-03T09:30:17.981Z</time></trkpt><trkpt lat="42.2761466" lon="13.7511439"><ele>410.0</ele><time>2026-05-03T09:30:18.981Z</time></trkpt><trkpt lat="42.2762078" lon="13.7512179"><ele>409.50000000000006</ele><time>2026-05-03T09:30:19.981Z</time></trkpt><trkpt lat="42.2762655" lon="13.7512936"><ele>409.0</ele><time>2026-05-03T09:30:20.981Z</time></trkpt><trkpt lat="42.2763181" lon="13.7513673"><ele>408.33333333333337</ele><time>2026-05-03T09:30:21.981Z</time></trkpt><trkpt lat="42.2763738" lon="13.7514374"><ele>407.6666666666667</ele><time>2026-05-03T09:30:22.98Z</time></trkpt><trkpt lat="42.2764377" lon="13.751503"><ele>407.0</ele><time>2026-05-03T09:30:23.981Z</time></trkpt><trkpt lat="42.2765038" lon="13.7515589"><ele>406.33333333333337</ele><time>2026-05-03T09:30:24.981Z</time></trkpt><trkpt lat="42.2765705" lon="13.7515986"><ele>405.6666666666667</ele><time>2026-05-03T09:30:25.98Z</time></trkpt><trkpt lat="42.2766535" lon="13.7516323"><ele>405.0</ele><time>2026-05-03T09:30:26.98Z</time></trkpt><trkpt lat="42.2767552" lon="13.7516686"><ele>404.4</ele><time>2026-05-03T09:30:27.981Z</time></trkpt><trkpt lat="42.276849" lon="13.7516981"><ele>403.8</ele><time>2026-05-03T09:30:28.98Z</time></trkpt><trkpt lat="42.276937" lon="13.7517259"><ele>403.20000000000005</ele><time>2026-05-03T09:30:29.981Z</time></trkpt><trkpt lat="42.2770315" lon="13.7517511"><ele>402.6</ele><time>2026-05-03T09:30:30.98Z</time></trkpt><trkpt lat="42.277126" lon="13.7517734"><ele>402.0</ele><time>2026-05-03T09:30:31.981Z</time></trkpt><trkpt lat="42.2772132" lon="13.7517933"><ele>401.8333333333333</ele><time>2026-05-03T09:30:32.981Z</time></trkpt><trkpt lat="42.277289" lon="13.751807"><ele>401.66666666666663</ele><time>2026-05-03T09:30:33.98Z</time></trkpt><trkpt lat="42.2773561" lon="13.7518217"><ele>401.5</ele><time>2026-05-03T09:30:34.981Z</time></trkpt><trkpt lat="42.2774594" lon="13.7518707"><ele>401.3333333333333</ele><time>2026-05-03T09:30:36.981Z</time></trkpt><trkpt lat="42.2775401" lon="13.7519469"><ele>401.16666666666663</ele><time>2026-05-03T09:30:38.98Z</time></trkpt><trkpt lat="42.2776031" lon="13.7519839"><ele>401.0</ele><time>2026-05-03T09:30:39.981Z</time></trkpt><trkpt lat="42.2776794" lon="13.7520046"><ele>401.20000000000005</ele><time>2026-05-03T09:30:40.98Z</time></trkpt><trkpt lat="42.2777629" lon="13.7520166"><ele>401.40000000000003</ele><time>2026-05-03T09:30:41.981Z</time></trkpt><trkpt lat="42.2778535" lon="13.7520451"><ele>401.6</ele><time>2026-05-03T09:30:42.98Z</time></trkpt><trkpt lat="42.27795" lon="13.7520913"><ele>401.8</ele><time>2026-05-03T09:30:43.981Z</time></trkpt><trkpt lat="42.2780539" lon="13.7521287"><ele>402.0</ele><time>2026-05-03T09:30:44.981Z</time></trkpt><trkpt lat="42.2781702" lon="13.7521548"><ele>402.0</ele><time>2026-05-03T09:30:45.981Z</time></trkpt><trkpt lat="42.2783021" lon="13.7521747"><ele>402.0</ele><time>2026-05-03T09:30:46.981Z</time></trkpt><trkpt lat="42.2784479" lon="13.7521854"><ele>402.0</ele><time>2026-05-03T09:30:47.98Z</time></trkpt><trkpt lat="42.2786064" lon="13.7521951"><ele>402.0</ele><time>2026-05-03T09:30:48.98Z</time></trkpt><trkpt lat="42.2787726" lon="13.7522045"><ele>400.66666666666663</ele><time>2026-05-03T09:30:49.981Z</time></trkpt><trkpt lat="42.2789476" lon="13.752206"><ele>399.3333333333333</ele><time>2026-05-03T09:30:50.981Z</time></trkpt><trkpt lat="42.2791279" lon="13.7521981"><ele>398.0</ele><time>2026-05-03T09:30:51.981Z</time></trkpt><trkpt lat="42.2793087" lon="13.7521877"><ele>398.0</ele><time>2026-05-03T09:30:52.981Z</time></trkpt><trkpt lat="42.2794907" lon="13.7521806"><ele>398.0</ele><time>2026-05-03T09:30:53.981Z</time></trkpt><trkpt lat="42.279667" lon="13.7521748"><ele>398.0</ele><time>2026-05-03T09:30:54.981Z</time></trkpt><trkpt lat="42.2798439" lon="13.7521641"><ele>395.66666666666663</ele><time>2026-05-03T09:30:55.981Z</time></trkpt><trkpt lat="42.280024" lon="13.7521568"><ele>393.33333333333337</ele><time>2026-05-03T09:30:56.981Z</time></trkpt><trkpt lat="42.2801945" lon="13.7521729"><ele>391.0</ele><time>2026-05-03T09:30:57.98Z</time></trkpt><trkpt lat="42.2803557" lon="13.7522103"><ele>391.0</ele><time>2026-05-03T09:30:58.981Z</time></trkpt><trkpt lat="42.2805096" lon="13.752263"><ele>391.0</ele><time>2026-05-03T09:30:59.98Z</time></trkpt><trkpt lat="42.280658" lon="13.7523296"><ele>391.0</ele><time>2026-05-03T09:31:00.98Z</time></trkpt><trkpt lat="42.2808025" lon="13.7524132"><ele>390.33333333333337</ele><time>2026-05-03T09:31:01.98Z</time></trkpt><trkpt lat="42.2809394" lon="13.7525173"><ele>389.66666666666663</ele><time>2026-05-03T09:31:02.98Z</time></trkpt><trkpt lat="42.2810681" lon="13.7526414"><ele>389.0</ele><time>2026-05-03T09:31:03.981Z</time></trkpt><trkpt lat="42.2811932" lon="13.7527785"><ele>389.0</ele><time>2026-05-03T09:31:04.98Z</time></trkpt><trkpt lat="42.2813206" lon="13.7529179"><ele>389.0</ele><time>2026-05-03T09:31:05.98Z</time></trkpt><trkpt lat="42.2814514" lon="13.7530589"><ele>389.0</ele><time>2026-05-03T09:31:06.981Z</time></trkpt><trkpt lat="42.2815832" lon="13.7532034"><ele>389.0</ele><time>2026-05-03T09:31:07.98Z</time></trkpt><trkpt lat="42.2817108" lon="13.7533575"><ele>389.0</ele><time>2026-05-03T09:31:08.98Z</time></trkpt><trkpt lat="42.2818379" lon="13.7535158"><ele>389.0</ele><time>2026-05-03T09:31:09.981Z</time></trkpt><trkpt lat="42.2819743" lon="13.7536585"><ele>389.66666666666663</ele><time>2026-05-03T09:31:10.981Z</time></trkpt><trkpt lat="42.2821185" lon="13.7537749"><ele>390.33333333333337</ele><time>2026-05-03T09:31:11.981Z</time></trkpt><trkpt lat="42.2822627" lon="13.7538728"><ele>391.0</ele><time>2026-05-03T09:31:12.98Z</time></trkpt><trkpt lat="42.2824105" lon="13.7539699"><ele>391.0</ele><time>2026-05-03T09:31:13.981Z</time></trkpt><trkpt lat="42.2825626" lon="13.7540699"><ele>391.0</ele><time>2026-05-03T09:31:14.98Z</time></trkpt><trkpt lat="42.2827167" lon="13.7541683"><ele>391.0</ele><time>2026-05-03T09:31:15.98Z</time></trkpt><trkpt lat="42.2828682" lon="13.7542583"><ele>391.0</ele><time>2026-05-03T09:31:16.981Z</time></trkpt><trkpt lat="42.2830132" lon="13.7543364"><ele>391.0</ele><time>2026-05-03T09:31:17.98Z</time></trkpt><trkpt lat="42.2831566" lon="13.7544131"><ele>391.0</ele><time>2026-05-03T09:31:18.98Z</time></trkpt><trkpt lat="42.2832951" lon="13.7544864"><ele>390.20000000000005</ele><time>2026-05-03T09:31:19.981Z</time></trkpt><trkpt lat="42.2834143" lon="13.7545366"><ele>389.40000000000003</ele><time>2026-05-03T09:31:20.981Z</time></trkpt><trkpt lat="42.2834884" lon="13.7545603"><ele>388.6</ele><time>2026-05-03T09:31:21.98Z</time></trkpt><trkpt lat="42.2835649" lon="13.7545518"><ele>387.8</ele><time>2026-05-03T09:31:23.981Z</time></trkpt><trkpt lat="42.2836056" lon="13.7544823"><ele>387.0</ele><time>2026-05-03T09:31:25.981Z</time></trkpt><trkpt lat="42.2835918" lon="13.7543243"><ele>386.20000000000005</ele><time>2026-05-03T09:31:27.981Z</time></trkpt><trkpt lat="42.2835729" lon="13.7542231"><ele>385.4</ele><time>2026-05-03T09:31:28.981Z</time></trkpt><trkpt lat="42.2835508" lon="13.7540848"><ele>384.6</ele><time>2026-05-03T09:31:29.98Z</time></trkpt><trkpt lat="42.2835255" lon="13.7539234"><ele>383.79999999999995</ele><time>2026-05-03T09:31:30.98Z</time></trkpt><trkpt lat="42.2834992" lon="13.7537446"><ele>383.0</ele><time>2026-05-03T09:31:31.98Z</time></trkpt><trkpt lat="42.2834745" lon="13.7535519"><ele>383.6666666666667</ele><time>2026-05-03T09:31:32.98Z</time></trkpt><trkpt lat="42.2834474" lon="13.7533404"><ele>384.33333333333337</ele><time>2026-05-03T09:31:33.981Z</time></trkpt><trkpt lat="42.2834222" lon="13.7531208"><ele>385.0</ele><time>2026-05-03T09:31:34.981Z</time></trkpt><trkpt lat="42.2834026" lon="13.7528903"><ele>385.25</ele><time>2026-05-03T09:31:35.98Z</time></trkpt><trkpt lat="42.2833948" lon="13.7526777"><ele>385.5</ele><time>2026-05-03T09:31:36.981Z</time></trkpt><trkpt lat="42.2833928" lon="13.7525154"><ele>385.75</ele><time>2026-05-03T09:31:37.98Z</time></trkpt><trkpt lat="42.2833921" lon="13.7523906"><ele>386.0</ele><time>2026-05-03T09:31:38.98Z</time></trkpt><trkpt lat="42.2834375" lon="13.7522613"><ele>386.0</ele><time>2026-05-03T09:31:40.981Z</time></trkpt><trkpt lat="42.2835368" lon="13.7522266"><ele>386.0</ele><time>2026-05-03T09:31:42.98Z</time></trkpt><trkpt lat="42.2836057" lon="13.7522422"><ele>386.0</ele><time>2026-05-03T09:31:43.98Z</time></trkpt><trkpt lat="42.2836914" lon="13.7522625"><ele>386.0</ele><time>2026-05-03T09:31:44.981Z</time></trkpt><trkpt lat="42.283797" lon="13.7522793"><ele>386.0</ele><time>2026-05-03T09:31:45.981Z</time></trkpt><trkpt lat="42.2839173" lon="13.7522982"><ele>385.5</ele><time>2026-05-03T09:31:46.98Z</time></trkpt><trkpt lat="42.2840491" lon="13.7523265"><ele>385.0</ele><time>2026-05-03T09:31:47.98Z</time></trkpt><trkpt lat="42.284185" lon="13.7523663"><ele>384.5</ele><time>2026-05-03T09:31:48.981Z</time></trkpt><trkpt lat="42.2843279" lon="13.7524131"><ele>384.0</ele><time>2026-05-03T09:31:49.981Z</time></trkpt><trkpt lat="42.2844756" lon="13.7524635"><ele>384.0</ele><time>2026-05-03T09:31:50.981Z</time></trkpt><trkpt lat="42.2846268" lon="13.7525182"><ele>384.0</ele><time>2026-05-03T09:31:51.981Z</time></trkpt><trkpt lat="42.28477" lon="13.7525722"><ele>384.0</ele><time>2026-05-03T09:31:52.98Z</time></trkpt><trkpt lat="42.2849022" lon="13.7526327"><ele>384.0</ele><time>2026-05-03T09:31:53.981Z</time></trkpt><trkpt lat="42.2850422" lon="13.7527136"><ele>383.3333333333333</ele><time>2026-05-03T09:31:54.98Z</time></trkpt><trkpt lat="42.2851881" lon="13.7527922"><ele>382.66666666666663</ele><time>2026-05-03T09:31:55.98Z</time></trkpt><trkpt lat="42.2853332" lon="13.7528507"><ele>382.0</ele><time>2026-05-03T09:31:56.981Z</time></trkpt><trkpt lat="42.2854718" lon="13.7529001"><ele>381.5</ele><time>2026-05-03T09:31:57.981Z</time></trkpt><trkpt lat="42.2856047" lon="13.7529512"><ele>381.0</ele><time>2026-05-03T09:31:58.98Z</time></trkpt><trkpt lat="42.2857319" lon="13.7529978"><ele>380.5</ele><time>2026-05-03T09:31:59.98Z</time></trkpt><trkpt lat="42.2858577" lon="13.7530415"><ele>380.0</ele><time>2026-05-03T09:32:00.98Z</time></trkpt><trkpt lat="42.2859733" lon="13.7530823"><ele>380.0</ele><time>2026-05-03T09:32:01.981Z</time></trkpt><trkpt lat="42.2860578" lon="13.7531075"><ele>380.0</ele><time>2026-05-03T09:32:02.98Z</time></trkpt><trkpt lat="42.286141" lon="13.753127"><ele>380.0</ele><time>2026-05-03T09:32:04.98Z</time></trkpt><trkpt lat="42.2862639" lon="13.753139"><ele>380.0</ele><time>2026-05-03T09:32:12.981Z</time></trkpt><trkpt lat="42.2863351" lon="13.7531646"><ele>380.0</ele><time>2026-05-03T09:32:13.981Z</time></trkpt><trkpt lat="42.2864339" lon="13.7532064"><ele>379.5</ele><time>2026-05-03T09:32:14.98Z</time></trkpt><trkpt lat="42.2865535" lon="13.7532462"><ele>379.0</ele><time>2026-05-03T09:32:15.981Z</time></trkpt><trkpt lat="42.2866833" lon="13.753273"><ele>378.5</ele><time>2026-05-03T09:32:16.981Z</time></trkpt><trkpt lat="42.2868233" lon="13.7532976"><ele>378.0</ele><time>2026-05-03T09:32:17.98Z</time></trkpt><trkpt lat="42.2869669" lon="13.7533376"><ele>378.0</ele><time>2026-05-03T09:32:18.981Z</time></trkpt><trkpt lat="42.2871052" lon="13.7534003"><ele>378.0</ele><time>2026-05-03T09:32:19.98Z</time></trkpt><trkpt lat="42.2872301" lon="13.7534666"><ele>378.0</ele><time>2026-05-03T09:32:20.981Z</time></trkpt><trkpt lat="42.2873457" lon="13.7535321"><ele>378.0</ele><time>2026-05-03T09:32:21.98Z</time></trkpt><trkpt lat="42.287454" lon="13.753599"><ele>377.4</ele><time>2026-05-03T09:32:22.98Z</time></trkpt><trkpt lat="42.2875543" lon="13.753666"><ele>376.79999999999995</ele><time>2026-05-03T09:32:23.981Z</time></trkpt><trkpt lat="42.2876409" lon="13.7537259"><ele>376.2</ele><time>2026-05-03T09:32:24.981Z</time></trkpt><trkpt lat="42.2877104" lon="13.7537687"><ele>375.6</ele><time>2026-05-03T09:32:25.981Z</time></trkpt><trkpt lat="42.2878194" lon="13.7537742"><ele>375.0</ele><time>2026-05-03T09:32:27.981Z</time></trkpt><trkpt lat="42.2878775" lon="13.7537301"><ele>375.0</ele><time>2026-05-03T09:32:28.98Z</time></trkpt><trkpt lat="42.2879301" lon="13.7536583"><ele>375.0</ele><time>2026-05-03T09:32:29.98Z</time></trkpt><trkpt lat="42.2879762" lon="13.7535812"><ele>375.0</ele><time>2026-05-03T09:32:30.981Z</time></trkpt><trkpt lat="42.2880281" lon="13.753505"><ele>375.0</ele><time>2026-05-03T09:32:31.98Z</time></trkpt><trkpt lat="42.2880919" lon="13.753429"><ele>375.0</ele><time>2026-05-03T09:32:32.981Z</time></trkpt><trkpt lat="42.2881607" lon="13.7533406"><ele>375.0</ele><time>2026-05-03T09:32:33.981Z</time></trkpt><trkpt lat="42.288235" lon="13.7532431"><ele>374.75</ele><time>2026-05-03T09:32:34.981Z</time></trkpt><trkpt lat="42.2883113" lon="13.7531398"><ele>374.5</ele><time>2026-05-03T09:32:35.981Z</time></trkpt><trkpt lat="42.2883875" lon="13.7530249"><ele>374.25</ele><time>2026-05-03T09:32:36.98Z</time></trkpt><trkpt lat="42.2884612" lon="13.7529049"><ele>374.0</ele><time>2026-05-03T09:32:37.981Z</time></trkpt><trkpt lat="42.2885399" lon="13.7527822"><ele>374.75</ele><time>2026-05-03T09:32:38.981Z</time></trkpt><trkpt lat="42.28862" lon="13.7526542"><ele>375.5</ele><time>2026-05-03T09:32:39.981Z</time></trkpt><trkpt lat="42.2886978" lon="13.7525213"><ele>376.25</ele><time>2026-05-03T09:32:40.98Z</time></trkpt><trkpt lat="42.2887708" lon="13.7523879"><ele>377.0</ele><time>2026-05-03T09:32:41.981Z</time></trkpt><trkpt lat="42.2888392" lon="13.7522462"><ele>377.0</ele><time>2026-05-03T09:32:42.981Z</time></trkpt><trkpt lat="42.2889059" lon="13.7521068"><ele>377.0</ele><time>2026-05-03T09:32:43.981Z</time></trkpt><trkpt lat="42.2889659" lon="13.7519781"><ele>377.0</ele><time>2026-05-03T09:32:44.981Z</time></trkpt><trkpt lat="42.2890264" lon="13.7518488"><ele>377.0</ele><time>2026-05-03T09:32:45.981Z</time></trkpt><trkpt lat="42.2890822" lon="13.7517266"><ele>378.0</ele><time>2026-05-03T09:32:46.981Z</time></trkpt><trkpt lat="42.2891399" lon="13.7515988"><ele>379.0</ele><time>2026-05-03T09:32:47.981Z</time></trkpt><trkpt lat="42.2891947" lon="13.7514656"><ele>380.0</ele><time>2026-05-03T09:32:48.981Z</time></trkpt><trkpt lat="42.2892441" lon="13.7513321"><ele>381.0</ele><time>2026-05-03T09:32:49.98Z</time></trkpt><trkpt lat="42.2892934" lon="13.7512027"><ele>382.0</ele><time>2026-05-03T09:32:50.981Z</time></trkpt><trkpt lat="42.2893413" lon="13.7510824"><ele>382.0</ele><time>2026-05-03T09:32:51.98Z</time></trkpt><trkpt lat="42.28939" lon="13.7509684"><ele>382.0</ele><time>2026-05-03T09:32:52.981Z</time></trkpt><trkpt lat="42.2894299" lon="13.7508562"><ele>382.0</ele><time>2026-05-03T09:32:53.981Z</time></trkpt><trkpt lat="42.2894747" lon="13.7507448"><ele>382.0</ele><time>2026-05-03T09:32:54.981Z</time></trkpt><trkpt lat="42.2895265" lon="13.7506351"><ele>382.0</ele><time>2026-05-03T09:32:55.98Z</time></trkpt><trkpt lat="42.2895844" lon="13.7505298"><ele>382.0</ele><time>2026-05-03T09:32:56.98Z</time></trkpt><trkpt lat="42.2896456" lon="13.750433"><ele>382.0</ele><time>2026-05-03T09:32:57.98Z</time></trkpt><trkpt lat="42.2897009" lon="13.750348"><ele>382.0</ele><time>2026-05-03T09:32:58.981Z</time></trkpt><trkpt lat="42.2897564" lon="13.7502649"><ele>382.0</ele><time>2026-05-03T09:32:59.981Z</time></trkpt><trkpt lat="42.2898124" lon="13.7501741"><ele>382.0</ele><time>2026-05-03T09:33:00.98Z</time></trkpt><trkpt lat="42.2898677" lon="13.750075"><ele>382.0</ele><time>2026-05-03T09:33:01.98Z</time></trkpt><trkpt lat="42.2899198" lon="13.7499678"><ele>381.8</ele><time>2026-05-03T09:33:02.98Z</time></trkpt><trkpt lat="42.2899725" lon="13.7498552"><ele>381.6</ele><time>2026-05-03T09:33:03.98Z</time></trkpt><trkpt lat="42.2900232" lon="13.7497442"><ele>381.40000000000003</ele><time>2026-05-03T09:33:04.98Z</time></trkpt><trkpt lat="42.2900703" lon="13.7496255"><ele>381.20000000000005</ele><time>2026-05-03T09:33:05.981Z</time></trkpt><trkpt lat="42.2901132" lon="13.749515"><ele>381.0</ele><time>2026-05-03T09:33:06.981Z</time></trkpt><trkpt lat="42.290157" lon="13.749408"><ele>381.6</ele><time>2026-05-03T09:33:07.981Z</time></trkpt><trkpt lat="42.2902056" lon="13.7493061"><ele>382.20000000000005</ele><time>2026-05-03T09:33:08.981Z</time></trkpt><trkpt lat="42.2902655" lon="13.7492064"><ele>382.79999999999995</ele><time>2026-05-03T09:33:09.981Z</time></trkpt><trkpt lat="42.2903308" lon="13.7491045"><ele>383.4</ele><time>2026-05-03T09:33:10.981Z</time></trkpt><trkpt lat="42.2904006" lon="13.7489939"><ele>384.0</ele><time>2026-05-03T09:33:11.981Z</time></trkpt><trkpt lat="42.290472" lon="13.7488861"><ele>384.0</ele><time>2026-05-03T09:33:12.981Z</time></trkpt><trkpt lat="42.2905413" lon="13.7487701"><ele>384.0</ele><time>2026-05-03T09:33:13.981Z</time></trkpt><trkpt lat="42.2906039" lon="13.7486546"><ele>384.0</ele><time>2026-05-03T09:33:14.981Z</time></trkpt><trkpt lat="42.2906676" lon="13.7485518"><ele>384.0</ele><time>2026-05-03T09:33:15.98Z</time></trkpt><trkpt lat="42.2907294" lon="13.7484536"><ele>384.0</ele><time>2026-05-03T09:33:16.981Z</time></trkpt><trkpt lat="42.2907921" lon="13.7483525"><ele>383.6</ele><time>2026-05-03T09:33:17.981Z</time></trkpt><trkpt lat="42.2908557" lon="13.7482436"><ele>383.2</ele><time>2026-05-03T09:33:18.98Z</time></trkpt><trkpt lat="42.2909209" lon="13.7481354"><ele>382.8</ele><time>2026-05-03T09:33:19.98Z</time></trkpt><trkpt lat="42.2909844" lon="13.7480223"><ele>382.40000000000003</ele><time>2026-05-03T09:33:20.98Z</time></trkpt><trkpt lat="42.2910468" lon="13.747907"><ele>382.0</ele><time>2026-05-03T09:33:21.98Z</time></trkpt><trkpt lat="42.291114" lon="13.7477936"><ele>382.40000000000003</ele><time>2026-05-03T09:33:22.98Z</time></trkpt><trkpt lat="42.2911801" lon="13.7476769"><ele>382.8</ele><time>2026-05-03T09:33:23.981Z</time></trkpt><trkpt lat="42.2912431" lon="13.7475589"><ele>383.2</ele><time>2026-05-03T09:33:24.98Z</time></trkpt><trkpt lat="42.2913031" lon="13.7474415"><ele>383.6</ele><time>2026-05-03T09:33:25.981Z</time></trkpt><trkpt lat="42.2913651" lon="13.7473226"><ele>384.0</ele><time>2026-05-03T09:33:26.981Z</time></trkpt><trkpt lat="42.2914349" lon="13.7472106"><ele>384.1666666666667</ele><time>2026-05-03T09:33:27.98Z</time></trkpt><trkpt lat="42.2915074" lon="13.7471089"><ele>384.33333333333337</ele><time>2026-05-03T09:33:28.981Z</time></trkpt><trkpt lat="42.2915716" lon="13.7470131"><ele>384.5</ele><time>2026-05-03T09:33:29.981Z</time></trkpt><trkpt lat="42.2916263" lon="13.746921"><ele>384.6666666666667</ele><time>2026-05-03T09:33:30.98Z</time></trkpt><trkpt lat="42.2916694" lon="13.746827"><ele>384.83333333333337</ele><time>2026-05-03T09:33:31.98Z</time></trkpt><trkpt lat="42.2917107" lon="13.7467412"><ele>385.0</ele><time>2026-05-03T09:33:32.981Z</time></trkpt><trkpt lat="42.2917559" lon="13.7466711"><ele>385.4</ele><time>2026-05-03T09:33:33.98Z</time></trkpt><trkpt lat="42.291826" lon="13.7465812"><ele>385.8</ele><time>2026-05-03T09:33:35.98Z</time></trkpt><trkpt lat="42.2919279" lon="13.7466424"><ele>386.20000000000005</ele><time>2026-05-03T09:33:38.981Z</time></trkpt><trkpt lat="42.2919908" lon="13.7466982"><ele>386.6</ele><time>2026-05-03T09:33:39.981Z</time></trkpt><trkpt lat="42.29207" lon="13.7467615"><ele>387.0</ele><time>2026-05-03T09:33:40.98Z</time></trkpt><trkpt lat="42.2921607" lon="13.7468328"><ele>385.75</ele><time>2026-05-03T09:33:41.98Z</time></trkpt><trkpt lat="42.2922597" lon="13.7469059"><ele>384.5</ele><time>2026-05-03T09:33:42.981Z</time></trkpt><trkpt lat="42.2923718" lon="13.7469741"><ele>383.25</ele><time>2026-05-03T09:33:43.98Z</time></trkpt><trkpt lat="42.2924894" lon="13.7470517"><ele>382.0</ele><time>2026-05-03T09:33:44.981Z</time></trkpt><trkpt lat="42.2926043" lon="13.7471263"><ele>382.0</ele><time>2026-05-03T09:33:45.981Z</time></trkpt><trkpt lat="42.2927137" lon="13.7471825"><ele>382.0</ele><time>2026-05-03T09:33:46.981Z</time></trkpt><trkpt lat="42.2928193" lon="13.7472296"><ele>382.0</ele><time>2026-05-03T09:33:47.98Z</time></trkpt><trkpt lat="42.2929285" lon="13.7472756"><ele>382.0</ele><time>2026-05-03T09:33:48.98Z</time></trkpt><trkpt lat="42.2930388" lon="13.7473209"><ele>383.0</ele><time>2026-05-03T09:33:49.981Z</time></trkpt><trkpt lat="42.2931396" lon="13.7473679"><ele>384.0</ele><time>2026-05-03T09:33:50.98Z</time></trkpt><trkpt lat="42.2932305" lon="13.747425"><ele>385.0</ele><time>2026-05-03T09:33:51.981Z</time></trkpt><trkpt lat="42.2933194" lon="13.7474868"><ele>386.0</ele><time>2026-05-03T09:33:52.981Z</time></trkpt><trkpt lat="42.293414" lon="13.747554"><ele>387.0</ele><time>2026-05-03T09:33:53.981Z</time></trkpt><trkpt lat="42.2935117" lon="13.7476265"><ele>387.0</ele><time>2026-05-03T09:33:54.98Z</time></trkpt><trkpt lat="42.2936163" lon="13.7476935"><ele>387.0</ele><time>2026-05-03T09:33:55.98Z</time></trkpt><trkpt lat="42.2937258" lon="13.7477528"><ele>387.0</ele><time>2026-05-03T09:33:56.98Z</time></trkpt><trkpt lat="42.293837" lon="13.7478123"><ele>387.0</ele><time>2026-05-03T09:33:57.981Z</time></trkpt><trkpt lat="42.2939502" lon="13.7478709"><ele>387.0</ele><time>2026-05-03T09:33:58.98Z</time></trkpt><trkpt lat="42.2940647" lon="13.7479251"><ele>387.0</ele><time>2026-05-03T09:33:59.981Z</time></trkpt><trkpt lat="42.2941815" lon="13.7479865"><ele>387.0</ele><time>2026-05-03T09:34:00.981Z</time></trkpt><trkpt lat="42.2943028" lon="13.7480569"><ele>387.0</ele><time>2026-05-03T09:34:01.981Z</time></trkpt><trkpt lat="42.2944236" lon="13.7481246"><ele>387.0</ele><time>2026-05-03T09:34:02.981Z</time></trkpt><trkpt lat="42.2945441" lon="13.7481906"><ele>387.0</ele><time>2026-05-03T09:34:03.981Z</time></trkpt><trkpt lat="42.2946597" lon="13.7482652"><ele>387.0</ele><time>2026-05-03T09:34:04.98Z</time></trkpt><trkpt lat="42.2947717" lon="13.7483389"><ele>387.0</ele><time>2026-05-03T09:34:05.981Z</time></trkpt><trkpt lat="42.2948748" lon="13.7484033"><ele>388.3333333333333</ele><time>2026-05-03T09:34:06.981Z</time></trkpt><trkpt lat="42.2949634" lon="13.7484614"><ele>389.66666666666663</ele><time>2026-05-03T09:34:07.98Z</time></trkpt><trkpt lat="42.2950365" lon="13.7485155"><ele>391.0</ele><time>2026-05-03T09:34:08.981Z</time></trkpt><trkpt lat="42.2951134" lon="13.7485822"><ele>392.3333333333333</ele><time>2026-05-03T09:34:10.981Z</time></trkpt><trkpt lat="42.2951839" lon="13.7486598"><ele>393.66666666666663</ele><time>2026-05-03T09:34:19.98Z</time></trkpt><trkpt lat="42.2952475" lon="13.7487149"><ele>395.0</ele><time>2026-05-03T09:34:20.98Z</time></trkpt><trkpt lat="42.2953177" lon="13.7487545"><ele>395.4</ele><time>2026-05-03T09:34:21.981Z</time></trkpt><trkpt lat="42.2953988" lon="13.7487915"><ele>395.8</ele><time>2026-05-03T09:34:22.981Z</time></trkpt><trkpt lat="42.2955002" lon="13.7488341"><ele>396.20000000000005</ele><time>2026-05-03T09:34:23.98Z</time></trkpt><trkpt lat="42.2956065" lon="13.7488848"><ele>396.6</ele><time>2026-05-03T09:34:24.981Z</time></trkpt><trkpt lat="42.2957056" lon="13.7489306"><ele>397.0</ele><time>2026-05-03T09:34:25.981Z</time></trkpt><trkpt lat="42.2957931" lon="13.7489792"><ele>399.40000000000003</ele><time>2026-05-03T09:34:26.981Z</time></trkpt><trkpt lat="42.2958721" lon="13.7490426"><ele>401.8</ele><time>2026-05-03T09:34:27.98Z</time></trkpt><trkpt lat="42.2959447" lon="13.7491146"><ele>404.2</ele><time>2026-05-03T09:34:28.981Z</time></trkpt><trkpt lat="42.2960153" lon="13.7492081"><ele>406.6</ele><time>2026-05-03T09:34:29.98Z</time></trkpt><trkpt lat="42.2960874" lon="13.7493136"><ele>409.0</ele><time>2026-05-03T09:34:30.981Z</time></trkpt><trkpt lat="42.2961621" lon="13.7494134"><ele>411.0</ele><time>2026-05-03T09:34:31.98Z</time></trkpt><trkpt lat="42.296245" lon="13.7494967"><ele>413.0</ele><time>2026-05-03T09:34:32.981Z</time></trkpt><trkpt lat="42.2963419" lon="13.7495681"><ele>415.0</ele><time>2026-05-03T09:34:33.981Z</time></trkpt><trkpt lat="42.2964432" lon="13.7496278"><ele>417.0</ele><time>2026-05-03T09:34:34.98Z</time></trkpt><trkpt lat="42.2965409" lon="13.749691"><ele>419.0</ele><time>2026-05-03T09:34:35.98Z</time></trkpt><trkpt lat="42.2966338" lon="13.7497617"><ele>420.0</ele><time>2026-05-03T09:34:36.98Z</time></trkpt><trkpt lat="42.296725" lon="13.7498447"><ele>421.0</ele><time>2026-05-03T09:34:37.98Z</time></trkpt><trkpt lat="42.2968097" lon="13.7499401"><ele>422.0</ele><time>2026-05-03T09:34:38.98Z</time></trkpt><trkpt lat="42.2968859" lon="13.750033"><ele>423.0</ele><time>2026-05-03T09:34:39.981Z</time></trkpt><trkpt lat="42.2969463" lon="13.7501145"><ele>424.0</ele><time>2026-05-03T09:34:40.98Z</time></trkpt><trkpt lat="42.2969991" lon="13.7501864"><ele>424.1666666666667</ele><time>2026-05-03T09:34:41.981Z</time></trkpt><trkpt lat="42.2970616" lon="13.7502504"><ele>424.33333333333337</ele><time>2026-05-03T09:34:42.981Z</time></trkpt><trkpt lat="42.2971446" lon="13.7503095"><ele>424.5</ele><time>2026-05-03T09:34:43.981Z</time></trkpt><trkpt lat="42.2972401" lon="13.7503656"><ele>424.66666666666663</ele><time>2026-05-03T09:34:44.981Z</time></trkpt><trkpt lat="42.2973291" lon="13.750416"><ele>424.8333333333333</ele><time>2026-05-03T09:34:45.981Z</time></trkpt><trkpt lat="42.2973932" lon="13.7504511"><ele>425.0</ele><time>2026-05-03T09:34:46.98Z</time></trkpt><trkpt lat="42.2974552" lon="13.750485"><ele>425.0</ele><time>2026-05-03T09:34:49.981Z</time></trkpt><trkpt lat="42.2975452" lon="13.7505594"><ele>425.0</ele><time>2026-05-03T09:34:52.981Z</time></trkpt><trkpt lat="42.2976656" lon="13.7506377"><ele>425.0</ele><time>2026-05-03T09:34:54.981Z</time></trkpt><trkpt lat="42.2977419" lon="13.7506682"><ele>425.0</ele><time>2026-05-03T09:34:55.981Z</time></trkpt><trkpt lat="42.2978255" lon="13.7506923"><ele>425.0</ele><time>2026-05-03T09:34:56.98Z</time></trkpt><trkpt lat="42.2979083" lon="13.7507111"><ele>425.0</ele><time>2026-05-03T09:34:57.981Z</time></trkpt><trkpt lat="42.2979868" lon="13.7507336"><ele>425.0</ele><time>2026-05-03T09:34:58.981Z</time></trkpt><trkpt lat="42.2980629" lon="13.7507546"><ele>425.0</ele><time>2026-05-03T09:34:59.98Z</time></trkpt><trkpt lat="42.298136" lon="13.7507721"><ele>425.0</ele><time>2026-05-03T09:35:00.98Z</time></trkpt><trkpt lat="42.2982053" lon="13.7508026"><ele>425.0</ele><time>2026-05-03T09:35:01.98Z</time></trkpt><trkpt lat="42.2982734" lon="13.7508393"><ele>425.0</ele><time>2026-05-03T09:35:03.981Z</time></trkpt><trkpt lat="42.298211" lon="13.7508077"><ele>425.0</ele><time>2026-05-03T09:35:19.981Z</time></trkpt><trkpt lat="42.2981484" lon="13.7507895"><ele>424.99999999999994</ele><time>2026-05-03T09:35:20.981Z</time></trkpt><trkpt lat="42.2980725" lon="13.7507635"><ele>425.0</ele><time>2026-05-03T09:35:21.98Z</time></trkpt><trkpt lat="42.297997" lon="13.750741"><ele>425.0</ele><time>2026-05-03T09:35:22.981Z</time></trkpt><trkpt lat="42.2979124" lon="13.7507155"><ele>425.0</ele><time>2026-05-03T09:35:23.981Z</time></trkpt><trkpt lat="42.2978256" lon="13.7506948"><ele>424.99999999999994</ele><time>2026-05-03T09:35:24.981Z</time></trkpt><trkpt lat="42.2977508" lon="13.7506722"><ele>425.0</ele><time>2026-05-03T09:35:25.981Z</time></trkpt><trkpt lat="42.2976731" lon="13.7506427"><ele>424.99999999999994</ele><time>2026-05-03T09:35:26.98Z</time></trkpt><trkpt lat="42.2976096" lon="13.7506044"><ele>425.0</ele><time>2026-05-03T09:35:27.98Z</time></trkpt><trkpt lat="42.2975531" lon="13.7505657"><ele>425.0</ele><time>2026-05-03T09:35:28.98Z</time></trkpt><trkpt lat="42.2974944" lon="13.750492"><ele>425.0</ele><time>2026-05-03T09:35:30.98Z</time></trkpt><trkpt lat="42.2975256" lon="13.7503686"><ele>424.99999999999994</ele><time>2026-05-03T09:35:33.981Z</time></trkpt><trkpt lat="42.2975997" lon="13.7502318"><ele>425.0</ele><time>2026-05-03T09:35:35.981Z</time></trkpt><trkpt lat="42.2977053" lon="13.7501309"><ele>425.49999999999994</ele><time>2026-05-03T09:35:37.98Z</time></trkpt><trkpt lat="42.2977765" lon="13.7500907"><ele>426.0</ele><time>2026-05-03T09:35:38.981Z</time></trkpt><trkpt lat="42.2978573" lon="13.750055"><ele>426.5</ele><time>2026-05-03T09:35:39.981Z</time></trkpt><trkpt lat="42.2979448" lon="13.7500299"><ele>427.0</ele><time>2026-05-03T09:35:40.98Z</time></trkpt><trkpt lat="42.2980375" lon="13.7500153"><ele>427.49999999999994</ele><time>2026-05-03T09:35:41.98Z</time></trkpt><trkpt lat="42.2981252" lon="13.7500074"><ele>428.0</ele><time>2026-05-03T09:35:42.98Z</time></trkpt><trkpt lat="42.2982079" lon="13.7500077"><ele>428.28571428571433</ele><time>2026-05-03T09:35:43.98Z</time></trkpt><trkpt lat="42.298283" lon="13.7500137"><ele>428.57142857142856</ele><time>2026-05-03T09:35:44.981Z</time></trkpt><trkpt lat="42.298353" lon="13.7500232"><ele>428.8571428571429</ele><time>2026-05-03T09:35:45.981Z</time></trkpt><trkpt lat="42.2984227" lon="13.7500365"><ele>429.14285714285717</ele><time>2026-05-03T09:35:46.981Z</time></trkpt><trkpt lat="42.2984934" lon="13.7500326"><ele>429.42857142857144</ele><time>2026-05-03T09:35:47.981Z</time></trkpt><trkpt lat="42.2985684" lon="13.7500205"><ele>429.7142857142857</ele><time>2026-05-03T09:35:48.981Z</time></trkpt><trkpt lat="42.2986407" lon="13.7499983"><ele>430.0</ele><time>2026-05-03T09:35:49.981Z</time></trkpt><trkpt lat="42.2987167" lon="13.7499778"><ele>430.00000000000006</ele><time>2026-05-03T09:35:50.981Z</time></trkpt><trkpt lat="42.2987991" lon="13.7499618"><ele>430.0</ele><time>2026-05-03T09:35:51.981Z</time></trkpt><trkpt lat="42.2988836" lon="13.7499428"><ele>430.0</ele><time>2026-05-03T09:35:52.981Z</time></trkpt><trkpt lat="42.2989731" lon="13.7499242"><ele>430.0</ele><time>2026-05-03T09:35:53.98Z</time></trkpt><trkpt lat="42.2990664" lon="13.7499053"><ele>430.00000000000006</ele><time>2026-05-03T09:35:54.981Z</time></trkpt><trkpt lat="42.2991527" lon="13.7498868"><ele>430.0</ele><time>2026-05-03T09:35:55.981Z</time></trkpt><trkpt lat="42.2992408" lon="13.7498718"><ele>429.50000000000006</ele><time>2026-05-03T09:35:56.98Z</time></trkpt><trkpt lat="42.2993269" lon="13.7498613"><ele>429.0</ele><time>2026-05-03T09:35:57.981Z</time></trkpt><trkpt lat="42.2994115" lon="13.7498582"><ele>428.5</ele><time>2026-05-03T09:35:58.98Z</time></trkpt><trkpt lat="42.2994946" lon="13.7498549"><ele>428.0</ele><time>2026-05-03T09:35:59.981Z</time></trkpt><trkpt lat="42.2995718" lon="13.7498457"><ele>427.50000000000006</ele><time>2026-05-03T09:36:00.98Z</time></trkpt><trkpt lat="42.2996463" lon="13.7498221"><ele>427.0</ele><time>2026-05-03T09:36:01.981Z</time></trkpt><trkpt lat="42.2997243" lon="13.7497876"><ele>426.33333333333337</ele><time>2026-05-03T09:36:02.98Z</time></trkpt><trkpt lat="42.2998046" lon="13.7497452"><ele>425.6666666666667</ele><time>2026-05-03T09:36:03.981Z</time></trkpt><trkpt lat="42.2998869" lon="13.7497047"><ele>425.0</ele><time>2026-05-03T09:36:04.981Z</time></trkpt><trkpt lat="42.2999736" lon="13.7496651"><ele>424.33333333333337</ele><time>2026-05-03T09:36:05.98Z</time></trkpt><trkpt lat="42.3000612" lon="13.7496322"><ele>423.6666666666667</ele><time>2026-05-03T09:36:06.98Z</time></trkpt><trkpt lat="42.3001506" lon="13.7496066"><ele>423.0</ele><time>2026-05-03T09:36:07.981Z</time></trkpt><trkpt lat="42.3002385" lon="13.7495797"><ele>423.0</ele><time>2026-05-03T09:36:08.981Z</time></trkpt><trkpt lat="42.3003263" lon="13.7495534"><ele>423.0</ele><time>2026-05-03T09:36:09.981Z</time></trkpt><trkpt lat="42.300409" lon="13.749523"><ele>423.0</ele><time>2026-05-03T09:36:10.981Z</time></trkpt><trkpt lat="42.3004919" lon="13.7494911"><ele>423.0</ele><time>2026-05-03T09:36:11.98Z</time></trkpt><trkpt lat="42.3005761" lon="13.7494616"><ele>423.0</ele><time>2026-05-03T09:36:12.981Z</time></trkpt><trkpt lat="42.3006677" lon="13.7494336"><ele>423.0</ele><time>2026-05-03T09:36:13.98Z</time></trkpt><trkpt lat="42.3007652" lon="13.7494107"><ele>421.79999999999995</ele><time>2026-05-03T09:36:14.981Z</time></trkpt><trkpt lat="42.3008651" lon="13.7493909"><ele>420.6</ele><time>2026-05-03T09:36:15.981Z</time></trkpt><trkpt lat="42.300958" lon="13.7493727"><ele>419.4</ele><time>2026-05-03T09:36:16.981Z</time></trkpt><trkpt lat="42.3010473" lon="13.7493525"><ele>418.20000000000005</ele><time>2026-05-03T09:36:17.981Z</time></trkpt><trkpt lat="42.3011336" lon="13.7493262"><ele>417.0</ele><time>2026-05-03T09:36:18.981Z</time></trkpt><trkpt lat="42.3012119" lon="13.7492896"><ele>419.3333333333333</ele><time>2026-05-03T09:36:19.981Z</time></trkpt><trkpt lat="42.301279" lon="13.7492476"><ele>421.66666666666663</ele><time>2026-05-03T09:36:20.98Z</time></trkpt><trkpt lat="42.3013371" lon="13.7491996"><ele>424.0</ele><time>2026-05-03T09:36:21.981Z</time></trkpt><trkpt lat="42.301387" lon="13.7491455"><ele>426.3333333333333</ele><time>2026-05-03T09:36:22.98Z</time></trkpt><trkpt lat="42.3014715" lon="13.7490194"><ele>428.66666666666663</ele><time>2026-05-03T09:36:24.981Z</time></trkpt><trkpt lat="42.3015123" lon="13.7489473"><ele>431.0</ele><time>2026-05-03T09:36:25.98Z</time></trkpt><trkpt lat="42.3015529" lon="13.7488749"><ele>430.99999999999994</ele><time>2026-05-03T09:36:26.98Z</time></trkpt><trkpt lat="42.3015977" lon="13.7488088"><ele>431.0</ele><time>2026-05-03T09:36:27.981Z</time></trkpt><trkpt lat="42.301688" lon="13.7486917"><ele>431.0</ele><time>2026-05-03T09:36:29.98Z</time></trkpt><trkpt lat="42.3017351" lon="13.7486302"><ele>431.0</ele><time>2026-05-03T09:36:30.981Z</time></trkpt><trkpt lat="42.301781" lon="13.7485636"><ele>430.99999999999994</ele><time>2026-05-03T09:36:31.981Z</time></trkpt><trkpt lat="42.3018308" lon="13.7484979"><ele>431.0</ele><time>2026-05-03T09:36:32.98Z</time></trkpt><trkpt lat="42.3018862" lon="13.7484436"><ele>433.7142857142857</ele><time>2026-05-03T09:36:33.981Z</time></trkpt><trkpt lat="42.3019477" lon="13.748396"><ele>436.42857142857144</ele><time>2026-05-03T09:36:34.981Z</time></trkpt><trkpt lat="42.3020109" lon="13.748353"><ele>439.14285714285717</ele><time>2026-05-03T09:36:35.981Z</time></trkpt><trkpt lat="42.3020751" lon="13.7483088"><ele>441.8571428571429</ele><time>2026-05-03T09:36:36.981Z</time></trkpt><trkpt lat="42.3021363" lon="13.7482611"><ele>444.57142857142856</ele><time>2026-05-03T09:36:37.98Z</time></trkpt><trkpt lat="42.3021934" lon="13.7482087"><ele>447.28571428571433</ele><time>2026-05-03T09:36:38.981Z</time></trkpt><trkpt lat="42.3022597" lon="13.748151"><ele>450.00000000000006</ele><time>2026-05-03T09:36:39.981Z</time></trkpt><trkpt lat="42.3023333" lon="13.7480924"><ele>450.0</ele><time>2026-05-03T09:36:40.981Z</time></trkpt><trkpt lat="42.3024112" lon="13.748037"><ele>450.0</ele><time>2026-05-03T09:36:41.981Z</time></trkpt><trkpt lat="42.30249" lon="13.747985"><ele>450.0</ele><time>2026-05-03T09:36:42.981Z</time></trkpt><trkpt lat="42.3025686" lon="13.7479412"><ele>450.0</ele><time>2026-05-03T09:36:43.981Z</time></trkpt><trkpt lat="42.3026472" lon="13.7479057"><ele>450.0</ele><time>2026-05-03T09:36:44.981Z</time></trkpt><trkpt lat="42.3027188" lon="13.7478767"><ele>450.0</ele><time>2026-05-03T09:36:45.98Z</time></trkpt><trkpt lat="42.302797" lon="13.7478665"><ele>450.0</ele><time>2026-05-03T09:36:46.981Z</time></trkpt><trkpt lat="42.3028817" lon="13.7478645"><ele>450.0</ele><time>2026-05-03T09:36:47.98Z</time></trkpt><trkpt lat="42.3029684" lon="13.747866"><ele>450.0</ele><time>2026-05-03T09:36:48.981Z</time></trkpt><trkpt lat="42.3030553" lon="13.7478724"><ele>450.0</ele><time>2026-05-03T09:36:49.981Z</time></trkpt><trkpt lat="42.3031443" lon="13.7478845"><ele>450.0</ele><time>2026-05-03T09:36:50.981Z</time></trkpt><trkpt lat="42.3032357" lon="13.747904"><ele>450.0</ele><time>2026-05-03T09:36:51.981Z</time></trkpt><trkpt lat="42.303324" lon="13.7479247"><ele>451.2</ele><time>2026-05-03T09:36:52.98Z</time></trkpt><trkpt lat="42.303415" lon="13.747944"><ele>452.4</ele><time>2026-05-03T09:36:53.981Z</time></trkpt><trkpt lat="42.3035153" lon="13.7479672"><ele>453.6</ele><time>2026-05-03T09:36:54.981Z</time></trkpt><trkpt lat="42.3036152" lon="13.7479865"><ele>454.8</ele><time>2026-05-03T09:36:55.98Z</time></trkpt><trkpt lat="42.3037097" lon="13.7480056"><ele>456.0</ele><time>2026-05-03T09:36:56.98Z</time></trkpt><trkpt lat="42.3037962" lon="13.7480223"><ele>456.0</ele><time>2026-05-03T09:36:57.981Z</time></trkpt><trkpt lat="42.3038746" lon="13.7480408"><ele>456.0</ele><time>2026-05-03T09:36:58.98Z</time></trkpt><trkpt lat="42.3039526" lon="13.7480649"><ele>456.0</ele><time>2026-05-03T09:36:59.981Z</time></trkpt><trkpt lat="42.3040323" lon="13.748096"><ele>456.0</ele><time>2026-05-03T09:37:00.981Z</time></trkpt><trkpt lat="42.3041143" lon="13.7481359"><ele>456.0</ele><time>2026-05-03T09:37:01.981Z</time></trkpt><trkpt lat="42.3041959" lon="13.7481851"><ele>456.0</ele><time>2026-05-03T09:37:02.98Z</time></trkpt><trkpt lat="42.30428" lon="13.7482334"><ele>458.6666666666667</ele><time>2026-05-03T09:37:03.98Z</time></trkpt><trkpt lat="42.3043663" lon="13.7482759"><ele>461.33333333333337</ele><time>2026-05-03T09:37:04.981Z</time></trkpt><trkpt lat="42.3044476" lon="13.748318"><ele>464.0</ele><time>2026-05-03T09:37:05.981Z</time></trkpt><trkpt lat="42.3045248" lon="13.7483519"><ele>466.6666666666667</ele><time>2026-05-03T09:37:06.98Z</time></trkpt><trkpt lat="42.304599" lon="13.7483716"><ele>469.33333333333337</ele><time>2026-05-03T09:37:07.981Z</time></trkpt><trkpt lat="42.3046716" lon="13.7483807"><ele>472.0</ele><time>2026-05-03T09:37:08.981Z</time></trkpt><trkpt lat="42.304744" lon="13.7483768"><ele>474.50000000000006</ele><time>2026-05-03T09:37:09.981Z</time></trkpt><trkpt lat="42.3048097" lon="13.748362"><ele>477.0</ele><time>2026-05-03T09:37:10.981Z</time></trkpt><trkpt lat="42.3048771" lon="13.7483412"><ele>479.5</ele><time>2026-05-03T09:37:11.98Z</time></trkpt><trkpt lat="42.3049436" lon="13.7483189"><ele>482.0</ele><time>2026-05-03T09:37:12.98Z</time></trkpt><trkpt lat="42.3050682" lon="13.7483209"><ele>484.50000000000006</ele><time>2026-05-03T09:37:14.98Z</time></trkpt><trkpt lat="42.305174" lon="13.7483882"><ele>487.0</ele><time>2026-05-03T09:37:16.98Z</time></trkpt><trkpt lat="42.3052259" lon="13.7484392"><ele>487.0</ele><time>2026-05-03T09:37:17.981Z</time></trkpt><trkpt lat="42.3052861" lon="13.748478"><ele>487.0</ele><time>2026-05-03T09:37:18.981Z</time></trkpt><trkpt lat="42.3053567" lon="13.7484959"><ele>487.0</ele><time>2026-05-03T09:37:19.981Z</time></trkpt><trkpt lat="42.3054337" lon="13.7484984"><ele>487.0</ele><time>2026-05-03T09:37:20.98Z</time></trkpt><trkpt lat="42.3055021" lon="13.7484957"><ele>487.0</ele><time>2026-05-03T09:37:21.981Z</time></trkpt><trkpt lat="42.305566" lon="13.7484917"><ele>487.0</ele><time>2026-05-03T09:37:22.981Z</time></trkpt><trkpt lat="42.3056312" lon="13.7484848"><ele>487.0</ele><time>2026-05-03T09:37:23.98Z</time></trkpt><trkpt lat="42.3056974" lon="13.7484714"><ele>488.20000000000005</ele><time>2026-05-03T09:37:24.981Z</time></trkpt><trkpt lat="42.3057696" lon="13.7484441"><ele>489.40000000000003</ele><time>2026-05-03T09:37:25.981Z</time></trkpt><trkpt lat="42.3058528" lon="13.7483974"><ele>490.59999999999997</ele><time>2026-05-03T09:37:26.981Z</time></trkpt><trkpt lat="42.3059443" lon="13.7483395"><ele>491.79999999999995</ele><time>2026-05-03T09:37:27.981Z</time></trkpt><trkpt lat="42.3060362" lon="13.7482895"><ele>493.0</ele><time>2026-05-03T09:37:28.981Z</time></trkpt><trkpt lat="42.3061284" lon="13.7482525"><ele>493.00000000000006</ele><time>2026-05-03T09:37:29.981Z</time></trkpt><trkpt lat="42.3062182" lon="13.7482223"><ele>493.0</ele><time>2026-05-03T09:37:30.98Z</time></trkpt><trkpt lat="42.3063062" lon="13.748188"><ele>493.0</ele><time>2026-05-03T09:37:31.98Z</time></trkpt><trkpt lat="42.3063918" lon="13.7481493"><ele>493.0</ele><time>2026-05-03T09:37:32.981Z</time></trkpt><trkpt lat="42.3064751" lon="13.7481085"><ele>493.00000000000006</ele><time>2026-05-03T09:37:33.981Z</time></trkpt><trkpt lat="42.3065513" lon="13.7480674"><ele>493.0</ele><time>2026-05-03T09:37:34.98Z</time></trkpt><trkpt lat="42.3066229" lon="13.7480301"><ele>492.50000000000006</ele><time>2026-05-03T09:37:35.981Z</time></trkpt><trkpt lat="42.3066906" lon="13.748002"><ele>492.0</ele><time>2026-05-03T09:37:36.981Z</time></trkpt><trkpt lat="42.3067539" lon="13.7479791"><ele>491.5</ele><time>2026-05-03T09:37:37.981Z</time></trkpt><trkpt lat="42.3068738" lon="13.7479509"><ele>491.0</ele><time>2026-05-03T09:37:39.98Z</time></trkpt><trkpt lat="42.3069418" lon="13.7479432"><ele>490.50000000000006</ele><time>2026-05-03T09:37:40.981Z</time></trkpt><trkpt lat="42.3070601" lon="13.7479131"><ele>490.0</ele><time>2026-05-03T09:37:42.98Z</time></trkpt><trkpt lat="42.307123" lon="13.7479055"><ele>490.00000000000006</ele><time>2026-05-03T09:37:43.98Z</time></trkpt><trkpt lat="42.3071898" lon="13.7479178"><ele>490.0</ele><time>2026-05-03T09:37:44.98Z</time></trkpt><trkpt lat="42.3072612" lon="13.7479294"><ele>490.0</ele><time>2026-05-03T09:37:45.981Z</time></trkpt><trkpt lat="42.3073399" lon="13.747929"><ele>490.0</ele><time>2026-05-03T09:37:46.981Z</time></trkpt><trkpt lat="42.3074191" lon="13.7479257"><ele>490.00000000000006</ele><time>2026-05-03T09:37:47.981Z</time></trkpt><trkpt lat="42.3074993" lon="13.7479233"><ele>490.0</ele><time>2026-05-03T09:37:48.981Z</time></trkpt><trkpt lat="42.3075817" lon="13.7479184"><ele>489.2</ele><time>2026-05-03T09:37:49.981Z</time></trkpt><trkpt lat="42.3076619" lon="13.7479117"><ele>488.4</ele><time>2026-05-03T09:37:50.981Z</time></trkpt><trkpt lat="42.3077482" lon="13.7479071"><ele>487.6</ele><time>2026-05-03T09:37:51.98Z</time></trkpt><trkpt lat="42.3078441" lon="13.7479004"><ele>486.8</ele><time>2026-05-03T09:37:52.981Z</time></trkpt><trkpt lat="42.307942" lon="13.7478917"><ele>486.0</ele><time>2026-05-03T09:37:53.98Z</time></trkpt><trkpt lat="42.3080371" lon="13.7478818"><ele>486.1666666666667</ele><time>2026-05-03T09:37:54.981Z</time></trkpt><trkpt lat="42.3081204" lon="13.7478748"><ele>486.33333333333337</ele><time>2026-05-03T09:37:55.981Z</time></trkpt><trkpt lat="42.308196" lon="13.7478676"><ele>486.5</ele><time>2026-05-03T09:37:56.981Z</time></trkpt><trkpt lat="42.3082692" lon="13.7478457"><ele>486.6666666666667</ele><time>2026-05-03T09:37:57.981Z</time></trkpt><trkpt lat="42.3083477" lon="13.7478155"><ele>486.83333333333337</ele><time>2026-05-03T09:37:58.981Z</time></trkpt><trkpt lat="42.3084271" lon="13.7477947"><ele>487.0</ele><time>2026-05-03T09:37:59.98Z</time></trkpt><trkpt lat="42.3085065" lon="13.7477888"><ele>487.00000000000006</ele><time>2026-05-03T09:38:00.98Z</time></trkpt><trkpt lat="42.3085928" lon="13.7477908"><ele>487.0</ele><time>2026-05-03T09:38:01.98Z</time></trkpt><trkpt lat="42.3086719" lon="13.7477939"><ele>487.0</ele><time>2026-05-03T09:38:02.981Z</time></trkpt><trkpt lat="42.3087433" lon="13.747794"><ele>487.0</ele><time>2026-05-03T09:38:03.98Z</time></trkpt><trkpt lat="42.3088115" lon="13.7477867"><ele>487.00000000000006</ele><time>2026-05-03T09:38:04.981Z</time></trkpt><trkpt lat="42.3089099" lon="13.7477398"><ele>487.0</ele><time>2026-05-03T09:38:06.981Z</time></trkpt><trkpt lat="42.3089506" lon="13.7476247"><ele>488.33333333333337</ele><time>2026-05-03T09:38:08.98Z</time></trkpt><trkpt lat="42.3089638" lon="13.7475353"><ele>489.6666666666667</ele><time>2026-05-03T09:38:09.98Z</time></trkpt><trkpt lat="42.3089765" lon="13.7474503"><ele>491.0</ele><time>2026-05-03T09:38:10.981Z</time></trkpt><trkpt lat="42.3089989" lon="13.7473692"><ele>492.33333333333337</ele><time>2026-05-03T09:38:11.98Z</time></trkpt><trkpt lat="42.3090417" lon="13.7472722"><ele>493.6666666666667</ele><time>2026-05-03T09:38:12.98Z</time></trkpt><trkpt lat="42.309101" lon="13.7471634"><ele>495.0</ele><time>2026-05-03T09:38:13.981Z</time></trkpt><trkpt lat="42.3091656" lon="13.747055"><ele>495.0</ele><time>2026-05-03T09:38:14.98Z</time></trkpt><trkpt lat="42.3092322" lon="13.7469437"><ele>495.0</ele><time>2026-05-03T09:38:15.981Z</time></trkpt><trkpt lat="42.3093018" lon="13.7468374"><ele>495.0</ele><time>2026-05-03T09:38:16.981Z</time></trkpt><trkpt lat="42.3093689" lon="13.7467381"><ele>495.0</ele><time>2026-05-03T09:38:17.981Z</time></trkpt><trkpt lat="42.3094329" lon="13.7466461"><ele>495.0</ele><time>2026-05-03T09:38:18.98Z</time></trkpt><trkpt lat="42.3094931" lon="13.7465676"><ele>499.2</ele><time>2026-05-03T09:38:19.98Z</time></trkpt><trkpt lat="42.3095447" lon="13.7465109"><ele>503.4</ele><time>2026-05-03T09:38:20.981Z</time></trkpt><trkpt lat="42.3096261" lon="13.7464446"><ele>507.6</ele><time>2026-05-03T09:38:22.98Z</time></trkpt><trkpt lat="42.309708" lon="13.7464649"><ele>511.8</ele><time>2026-05-03T09:38:25.98Z</time></trkpt><trkpt lat="42.3097841" lon="13.7465191"><ele>516.0</ele><time>2026-05-03T09:38:27.981Z</time></trkpt><trkpt lat="42.3098925" lon="13.7466097"><ele>515.9999999999999</ele><time>2026-05-03T09:38:29.981Z</time></trkpt><trkpt lat="42.3099543" lon="13.7466598"><ele>516.0</ele><time>2026-05-03T09:38:30.98Z</time></trkpt><trkpt lat="42.3100197" lon="13.7467074"><ele>516.0</ele><time>2026-05-03T09:38:31.98Z</time></trkpt><trkpt lat="42.3100812" lon="13.7467446"><ele>516.0</ele><time>2026-05-03T09:38:32.981Z</time></trkpt><trkpt lat="42.3101387" lon="13.7467812"><ele>516.0</ele><time>2026-05-03T09:38:33.981Z</time></trkpt><trkpt lat="42.3101971" lon="13.7468172"><ele>515.9999999999999</ele><time>2026-05-03T09:38:34.98Z</time></trkpt><trkpt lat="42.3102603" lon="13.7468502"><ele>516.0</ele><time>2026-05-03T09:38:35.981Z</time></trkpt><trkpt lat="42.3103258" lon="13.7468832"><ele>512.9999999999999</ele><time>2026-05-03T09:38:36.981Z</time></trkpt><trkpt lat="42.3103896" lon="13.746916"><ele>510.0</ele><time>2026-05-03T09:38:37.981Z</time></trkpt><trkpt lat="42.3104527" lon="13.7469502"><ele>506.99999999999994</ele><time>2026-05-03T09:38:38.981Z</time></trkpt><trkpt lat="42.3105173" lon="13.7469833"><ele>503.99999999999994</ele><time>2026-05-03T09:38:39.981Z</time></trkpt><trkpt lat="42.3105826" lon="13.7470144"><ele>501.0</ele><time>2026-05-03T09:38:40.981Z</time></trkpt><trkpt lat="42.3106483" lon="13.7470493"><ele>497.99999999999994</ele><time>2026-05-03T09:38:41.981Z</time></trkpt><trkpt lat="42.310716" lon="13.7470858"><ele>494.99999999999994</ele><time>2026-05-03T09:38:42.98Z</time></trkpt><trkpt lat="42.3107858" lon="13.7471211"><ele>494.99999999999994</ele><time>2026-05-03T09:38:43.981Z</time></trkpt><trkpt lat="42.3108565" lon="13.7471557"><ele>495.0</ele><time>2026-05-03T09:38:44.98Z</time></trkpt><trkpt lat="42.310927" lon="13.7471924"><ele>494.99999999999994</ele><time>2026-05-03T09:38:45.98Z</time></trkpt><trkpt lat="42.3109975" lon="13.7472277"><ele>494.99999999999994</ele><time>2026-05-03T09:38:46.981Z</time></trkpt><trkpt lat="42.3110677" lon="13.7472613"><ele>495.0</ele><time>2026-05-03T09:38:47.98Z</time></trkpt><trkpt lat="42.3111374" lon="13.7472948"><ele>494.99999999999994</ele><time>2026-05-03T09:38:48.981Z</time></trkpt><trkpt lat="42.3112076" lon="13.7473299"><ele>494.99999999999994</ele><time>2026-05-03T09:38:49.98Z</time></trkpt><trkpt lat="42.31128" lon="13.7473671"><ele>495.0</ele><time>2026-05-03T09:38:50.981Z</time></trkpt><trkpt lat="42.3113552" lon="13.7474059"><ele>495.0</ele><time>2026-05-03T09:38:51.981Z</time></trkpt><trkpt lat="42.3114323" lon="13.7474459"><ele>495.0</ele><time>2026-05-03T09:38:52.981Z</time></trkpt><trkpt lat="42.3115096" lon="13.7474836"><ele>495.0</ele><time>2026-05-03T09:38:53.98Z</time></trkpt><trkpt lat="42.3115872" lon="13.7475206"><ele>495.0</ele><time>2026-05-03T09:38:54.98Z</time></trkpt><trkpt lat="42.3116639" lon="13.7475615"><ele>495.0</ele><time>2026-05-03T09:38:55.98Z</time></trkpt><trkpt lat="42.311734" lon="13.7476006"><ele>496.42857142857133</ele><time>2026-05-03T09:38:56.981Z</time></trkpt><trkpt lat="42.3117982" lon="13.747637"><ele>497.85714285714283</ele><time>2026-05-03T09:38:57.981Z</time></trkpt><trkpt lat="42.3118611" lon="13.7476708"><ele>499.2857142857142</ele><time>2026-05-03T09:38:58.98Z</time></trkpt><trkpt lat="42.3119235" lon="13.7477041"><ele>500.71428571428567</ele><time>2026-05-03T09:38:59.981Z</time></trkpt><trkpt lat="42.3119886" lon="13.747738"><ele>502.1428571428571</ele><time>2026-05-03T09:39:00.98Z</time></trkpt><trkpt lat="42.3120575" lon="13.7477709"><ele>503.57142857142856</ele><time>2026-05-03T09:39:01.98Z</time></trkpt><trkpt lat="42.3121201" lon="13.7477992"><ele>505.0</ele><time>2026-05-03T09:39:02.98Z</time></trkpt><trkpt lat="42.3121811" lon="13.7478292"><ele>500.57142857142856</ele><time>2026-05-03T09:39:03.98Z</time></trkpt><trkpt lat="42.3122465" lon="13.7478616"><ele>496.1428571428571</ele><time>2026-05-03T09:39:04.98Z</time></trkpt><trkpt lat="42.3123152" lon="13.7478935"><ele>491.71428571428567</ele><time>2026-05-03T09:39:05.981Z</time></trkpt><trkpt lat="42.3123838" lon="13.7479276"><ele>487.2857142857142</ele><time>2026-05-03T09:39:06.98Z</time></trkpt><trkpt lat="42.3124559" lon="13.7479628"><ele>482.85714285714283</ele><time>2026-05-03T09:39:07.981Z</time></trkpt><trkpt lat="42.3125274" lon="13.7479975"><ele>478.42857142857133</ele><time>2026-05-03T09:39:08.981Z</time></trkpt><trkpt lat="42.3125863" lon="13.7480286"><ele>473.99999999999994</ele><time>2026-05-03T09:39:09.98Z</time></trkpt><trkpt lat="42.31269" lon="13.748086"><ele>474.0</ele><time>2026-05-03T09:39:11.98Z</time></trkpt><trkpt lat="42.31281" lon="13.7481513"><ele>474.0</ele><time>2026-05-03T09:39:13.98Z</time></trkpt><trkpt lat="42.3128807" lon="13.7481935"><ele>474.0</ele><time>2026-05-03T09:39:14.98Z</time></trkpt><trkpt lat="42.3129561" lon="13.7482409"><ele>474.0</ele><time>2026-05-03T09:39:15.981Z</time></trkpt><trkpt lat="42.313029" lon="13.7482856"><ele>474.0</ele><time>2026-05-03T09:39:16.98Z</time></trkpt><trkpt lat="42.3130993" lon="13.7483212"><ele>474.0</ele><time>2026-05-03T09:39:17.981Z</time></trkpt><trkpt lat="42.3131757" lon="13.7483564"><ele>473.6666666666667</ele><time>2026-05-03T09:39:18.98Z</time></trkpt><trkpt lat="42.3132555" lon="13.7483944"><ele>473.33333333333337</ele><time>2026-05-03T09:39:19.98Z</time></trkpt><trkpt lat="42.3133363" lon="13.748433"><ele>473.0</ele><time>2026-05-03T09:39:20.98Z</time></trkpt><trkpt lat="42.3134069" lon="13.7484684"><ele>472.6666666666667</ele><time>2026-05-03T09:39:21.98Z</time></trkpt><trkpt lat="42.3134779" lon="13.7485056"><ele>472.33333333333337</ele><time>2026-05-03T09:39:22.981Z</time></trkpt><trkpt lat="42.3135544" lon="13.7485443"><ele>472.0</ele><time>2026-05-03T09:39:23.981Z</time></trkpt><trkpt lat="42.3136185" lon="13.7485742"><ele>468.1666666666667</ele><time>2026-05-03T09:39:24.981Z</time></trkpt><trkpt lat="42.3137395" lon="13.7485982"><ele>464.33333333333337</ele><time>2026-05-03T09:39:26.98Z</time></trkpt><trkpt lat="42.3138094" lon="13.7485974"><ele>460.5</ele><time>2026-05-03T09:39:27.98Z</time></trkpt><trkpt lat="42.3138925" lon="13.7485978"><ele>456.66666666666663</ele><time>2026-05-03T09:39:28.98Z</time></trkpt><trkpt lat="42.3139728" lon="13.7485985"><ele>452.8333333333333</ele><time>2026-05-03T09:39:29.98Z</time></trkpt><trkpt lat="42.3140443" lon="13.7485968"><ele>449.0</ele><time>2026-05-03T09:39:30.98Z</time></trkpt><trkpt lat="42.3141133" lon="13.7485954"><ele>449.0</ele><time>2026-05-03T09:39:31.981Z</time></trkpt><trkpt lat="42.3141794" lon="13.7485977"><ele>448.99999999999994</ele><time>2026-05-03T09:39:32.98Z</time></trkpt><trkpt lat="42.3142461" lon="13.7486041"><ele>449.0</ele><time>2026-05-03T09:39:33.98Z</time></trkpt><trkpt lat="42.3143119" lon="13.7486128"><ele>449.0</ele><time>2026-05-03T09:39:34.981Z</time></trkpt><trkpt lat="42.3143783" lon="13.7486175"><ele>448.99999999999994</ele><time>2026-05-03T09:39:35.981Z</time></trkpt><trkpt lat="42.3144509" lon="13.7486191"><ele>449.0</ele><time>2026-05-03T09:39:36.981Z</time></trkpt><trkpt lat="42.314518" lon="13.7486142"><ele>449.0</ele><time>2026-05-03T09:39:37.981Z</time></trkpt><trkpt lat="42.3145934" lon="13.7486034"><ele>448.99999999999994</ele><time>2026-05-03T09:39:38.98Z</time></trkpt><trkpt lat="42.3146709" lon="13.7486026"><ele>449.0</ele><time>2026-05-03T09:39:39.981Z</time></trkpt><trkpt lat="42.3147528" lon="13.7486088"><ele>449.0</ele><time>2026-05-03T09:39:40.98Z</time></trkpt><trkpt lat="42.3148417" lon="13.7486103"><ele>449.0</ele><time>2026-05-03T09:39:41.98Z</time></trkpt><trkpt lat="42.3149315" lon="13.7486165"><ele>448.99999999999994</ele><time>2026-05-03T09:39:42.981Z</time></trkpt><trkpt lat="42.3150204" lon="13.7486195"><ele>449.0</ele><time>2026-05-03T09:39:43.981Z</time></trkpt><trkpt lat="42.3151066" lon="13.748621"><ele>448.8333333333333</ele><time>2026-05-03T09:39:44.98Z</time></trkpt><trkpt lat="42.3151939" lon="13.7486273"><ele>448.66666666666663</ele><time>2026-05-03T09:39:45.981Z</time></trkpt><trkpt lat="42.3152809" lon="13.7486265"><ele>448.5</ele><time>2026-05-03T09:39:46.98Z</time></trkpt><trkpt lat="42.3153637" lon="13.7486254"><ele>448.33333333333337</ele><time>2026-05-03T09:39:47.981Z</time></trkpt><trkpt lat="42.3154451" lon="13.7486246"><ele>448.1666666666667</ele><time>2026-05-03T09:39:48.98Z</time></trkpt><trkpt lat="42.3155277" lon="13.7486189"><ele>448.0</ele><time>2026-05-03T09:39:49.981Z</time></trkpt><trkpt lat="42.3156111" lon="13.7486132"><ele>448.59999999999997</ele><time>2026-05-03T09:39:50.98Z</time></trkpt><trkpt lat="42.3156945" lon="13.7486043"><ele>449.19999999999993</ele><time>2026-05-03T09:39:51.981Z</time></trkpt><trkpt lat="42.3157888" lon="13.748604"><ele>449.8</ele><time>2026-05-03T09:39:52.981Z</time></trkpt><trkpt lat="42.3158843" lon="13.7486177"><ele>450.4</ele><time>2026-05-03T09:39:53.98Z</time></trkpt><trkpt lat="42.3159759" lon="13.7486313"><ele>451.0</ele><time>2026-05-03T09:39:54.98Z</time></trkpt><trkpt lat="42.3160609" lon="13.7486398"><ele>451.00000000000006</ele><time>2026-05-03T09:39:55.981Z</time></trkpt><trkpt lat="42.3161467" lon="13.7486494"><ele>451.0</ele><time>2026-05-03T09:39:56.98Z</time></trkpt><trkpt lat="42.316226" lon="13.7486532"><ele>451.0</ele><time>2026-05-03T09:39:57.981Z</time></trkpt><trkpt lat="42.3163043" lon="13.7486731"><ele>451.0</ele><time>2026-05-03T09:39:58.98Z</time></trkpt><trkpt lat="42.3163819" lon="13.7487068"><ele>451.00000000000006</ele><time>2026-05-03T09:39:59.981Z</time></trkpt><trkpt lat="42.3164537" lon="13.7487528"><ele>451.0</ele><time>2026-05-03T09:40:00.981Z</time></trkpt><trkpt lat="42.31652" lon="13.7488022"><ele>452.00000000000006</ele><time>2026-05-03T09:40:01.98Z</time></trkpt><trkpt lat="42.3165846" lon="13.7488632"><ele>453.0</ele><time>2026-05-03T09:40:02.98Z</time></trkpt><trkpt lat="42.3166434" lon="13.7489337"><ele>454.0</ele><time>2026-05-03T09:40:03.98Z</time></trkpt><trkpt lat="42.3167032" lon="13.7490134"><ele>455.0</ele><time>2026-05-03T09:40:04.981Z</time></trkpt><trkpt lat="42.3167644" lon="13.7490964"><ele>456.00000000000006</ele><time>2026-05-03T09:40:05.981Z</time></trkpt><trkpt lat="42.3168242" lon="13.7491737"><ele>457.0</ele><time>2026-05-03T09:40:06.981Z</time></trkpt><trkpt lat="42.3168854" lon="13.7492474"><ele>457.00000000000006</ele><time>2026-05-03T09:40:07.98Z</time></trkpt><trkpt lat="42.3169467" lon="13.7493107"><ele>457.0</ele><time>2026-05-03T09:40:08.981Z</time></trkpt><trkpt lat="42.3170063" lon="13.7493628"><ele>457.0</ele><time>2026-05-03T09:40:09.981Z</time></trkpt><trkpt lat="42.3170678" lon="13.7494074"><ele>457.0</ele><time>2026-05-03T09:40:10.98Z</time></trkpt><trkpt lat="42.3171373" lon="13.7494568"><ele>457.00000000000006</ele><time>2026-05-03T09:40:11.98Z</time></trkpt><trkpt lat="42.3172146" lon="13.7495099"><ele>457.0</ele><time>2026-05-03T09:40:12.981Z</time></trkpt><trkpt lat="42.317286" lon="13.7495705"><ele>456.33333333333337</ele><time>2026-05-03T09:40:13.98Z</time></trkpt><trkpt lat="42.317357" lon="13.7496305"><ele>455.6666666666667</ele><time>2026-05-03T09:40:14.98Z</time></trkpt><trkpt lat="42.3174262" lon="13.7496862"><ele>455.0</ele><time>2026-05-03T09:40:15.981Z</time></trkpt><trkpt lat="42.3174951" lon="13.7497371"><ele>454.33333333333337</ele><time>2026-05-03T09:40:16.98Z</time></trkpt><trkpt lat="42.3175581" lon="13.7497647"><ele>453.6666666666667</ele><time>2026-05-03T09:40:17.98Z</time></trkpt><trkpt lat="42.3176491" lon="13.7497975"><ele>453.0</ele><time>2026-05-03T09:40:19.981Z</time></trkpt><trkpt lat="42.3177013" lon="13.749861"><ele>453.0</ele><time>2026-05-03T09:40:21.981Z</time></trkpt><trkpt lat="42.3177991" lon="13.7499544"><ele>453.0</ele><time>2026-05-03T09:40:23.98Z</time></trkpt><trkpt lat="42.3178671" lon="13.7499976"><ele>453.0</ele><time>2026-05-03T09:40:24.981Z</time></trkpt><trkpt lat="42.3179335" lon="13.7500426"><ele>453.0</ele><time>2026-05-03T09:40:25.981Z</time></trkpt><trkpt lat="42.3180027" lon="13.750089"><ele>453.0</ele><time>2026-05-03T09:40:26.981Z</time></trkpt><trkpt lat="42.3180638" lon="13.7501312"><ele>453.0</ele><time>2026-05-03T09:40:27.98Z</time></trkpt><trkpt lat="42.3181506" lon="13.7501873"><ele>452.59999999999997</ele><time>2026-05-03T09:40:29.98Z</time></trkpt><trkpt lat="42.3181593" lon="13.7503151"><ele>452.19999999999993</ele><time>2026-05-03T09:40:33.981Z</time></trkpt><trkpt lat="42.31809" lon="13.7504158"><ele>451.8</ele><time>2026-05-03T09:40:35.98Z</time></trkpt><trkpt lat="42.3180067" lon="13.7505334"><ele>451.4</ele><time>2026-05-03T09:40:37.98Z</time></trkpt><trkpt lat="42.3179697" lon="13.7506112"><ele>451.0</ele><time>2026-05-03T09:40:38.981Z</time></trkpt><trkpt lat="42.3179338" lon="13.7506983"><ele>449.6666666666667</ele><time>2026-05-03T09:40:39.981Z</time></trkpt><trkpt lat="42.3178908" lon="13.7507905"><ele>448.33333333333337</ele><time>2026-05-03T09:40:40.98Z</time></trkpt><trkpt lat="42.3178475" lon="13.7508846"><ele>447.0</ele><time>2026-05-03T09:40:41.981Z</time></trkpt><trkpt lat="42.3178061" lon="13.7509665"><ele>445.66666666666663</ele><time>2026-05-03T09:40:42.98Z</time></trkpt><trkpt lat="42.3177626" lon="13.7510592"><ele>444.3333333333333</ele><time>2026-05-03T09:40:43.98Z</time></trkpt><trkpt lat="42.317723" lon="13.7511555"><ele>443.0</ele><time>2026-05-03T09:40:44.98Z</time></trkpt><trkpt lat="42.3176779" lon="13.7513059"><ele>441.99999999999994</ele><time>2026-05-03T09:40:46.981Z</time></trkpt><trkpt lat="42.3176445" lon="13.7514311"><ele>441.0</ele><time>2026-05-03T09:40:48.98Z</time></trkpt><trkpt lat="42.3176489" lon="13.7515266"><ele>440.0</ele><time>2026-05-03T09:40:54.981Z</time></trkpt><trkpt lat="42.3177481" lon="13.75158"><ele>439.0</ele><time>2026-05-03T09:40:56.98Z</time></trkpt><trkpt lat="42.3178319" lon="13.7515719"><ele>437.99999999999994</ele><time>2026-05-03T09:40:57.981Z</time></trkpt><trkpt lat="42.3179166" lon="13.7515543"><ele>437.0</ele><time>2026-05-03T09:40:58.98Z</time></trkpt><trkpt lat="42.3180143" lon="13.7515183"><ele>437.6</ele><time>2026-05-03T09:40:59.981Z</time></trkpt><trkpt lat="42.3181143" lon="13.7514658"><ele>438.20000000000005</ele><time>2026-05-03T09:41:00.981Z</time></trkpt><trkpt lat="42.3182111" lon="13.7514129"><ele>438.8</ele><time>2026-05-03T09:41:01.98Z</time></trkpt><trkpt lat="42.3183043" lon="13.7513666"><ele>439.4</ele><time>2026-05-03T09:41:02.981Z</time></trkpt><trkpt lat="42.3183966" lon="13.7513317"><ele>440.0</ele><time>2026-05-03T09:41:03.981Z</time></trkpt><trkpt lat="42.3184851" lon="13.751308"><ele>440.0</ele><time>2026-05-03T09:41:04.981Z</time></trkpt><trkpt lat="42.3185631" lon="13.7513"><ele>440.0</ele><time>2026-05-03T09:41:05.981Z</time></trkpt><trkpt lat="42.3186301" lon="13.7513092"><ele>440.0</ele><time>2026-05-03T09:41:06.981Z</time></trkpt><trkpt lat="42.3187474" lon="13.7513272"><ele>440.0</ele><time>2026-05-03T09:41:08.981Z</time></trkpt><trkpt lat="42.3188708" lon="13.7513447"><ele>440.0</ele><time>2026-05-03T09:41:10.981Z</time></trkpt><trkpt lat="42.3189346" lon="13.7513541"><ele>441.2</ele><time>2026-05-03T09:41:11.981Z</time></trkpt><trkpt lat="42.3190498" lon="13.7513693"><ele>442.4</ele><time>2026-05-03T09:41:13.981Z</time></trkpt><trkpt lat="42.3191319" lon="13.7514148"><ele>443.6</ele><time>2026-05-03T09:41:15.981Z</time></trkpt><trkpt lat="42.3191847" lon="13.751538"><ele>444.8</ele><time>2026-05-03T09:41:17.98Z</time></trkpt><trkpt lat="42.3192142" lon="13.7516161"><ele>446.0</ele><time>2026-05-03T09:41:18.981Z</time></trkpt><trkpt lat="42.3192499" lon="13.7517071"><ele>445.99999999999994</ele><time>2026-05-03T09:41:19.981Z</time></trkpt><trkpt lat="42.3192806" lon="13.7517977"><ele>446.0</ele><time>2026-05-03T09:41:20.981Z</time></trkpt><trkpt lat="42.3193216" lon="13.7518903"><ele>446.0</ele><time>2026-05-03T09:41:21.981Z</time></trkpt><trkpt lat="42.319373" lon="13.7519749"><ele>446.0</ele><time>2026-05-03T09:41:22.98Z</time></trkpt><trkpt lat="42.3194212" lon="13.7520615"><ele>445.99999999999994</ele><time>2026-05-03T09:41:23.981Z</time></trkpt><trkpt lat="42.3194648" lon="13.7521504"><ele>446.0</ele><time>2026-05-03T09:41:24.98Z</time></trkpt><trkpt lat="42.3195085" lon="13.752239"><ele>443.8333333333333</ele><time>2026-05-03T09:41:25.98Z</time></trkpt><trkpt lat="42.3195459" lon="13.752332"><ele>441.66666666666663</ele><time>2026-05-03T09:41:26.98Z</time></trkpt><trkpt lat="42.3195796" lon="13.7524289"><ele>439.5</ele><time>2026-05-03T09:41:27.981Z</time></trkpt><trkpt lat="42.3196023" lon="13.7525315"><ele>437.33333333333337</ele><time>2026-05-03T09:41:28.981Z</time></trkpt><trkpt lat="42.3196248" lon="13.7526343"><ele>435.1666666666667</ele><time>2026-05-03T09:41:29.981Z</time></trkpt><trkpt lat="42.3196517" lon="13.7527378"><ele>433.0</ele><time>2026-05-03T09:41:30.98Z</time></trkpt><trkpt lat="42.3196809" lon="13.7528454"><ele>433.79999999999995</ele><time>2026-05-03T09:41:31.981Z</time></trkpt><trkpt lat="42.3197104" lon="13.7529571"><ele>434.59999999999997</ele><time>2026-05-03T09:41:32.981Z</time></trkpt><trkpt lat="42.3197395" lon="13.7530724"><ele>435.40000000000003</ele><time>2026-05-03T09:41:33.98Z</time></trkpt><trkpt lat="42.3197742" lon="13.7531963"><ele>436.20000000000005</ele><time>2026-05-03T09:41:34.981Z</time></trkpt><trkpt lat="42.3198057" lon="13.7533172"><ele>437.0</ele><time>2026-05-03T09:41:35.98Z</time></trkpt><trkpt lat="42.3198408" lon="13.7534512"><ele>435.8</ele><time>2026-05-03T09:41:36.98Z</time></trkpt><trkpt lat="42.3198756" lon="13.7535775"><ele>434.6</ele><time>2026-05-03T09:41:37.981Z</time></trkpt><trkpt lat="42.3199089" lon="13.7537043"><ele>433.40000000000003</ele><time>2026-05-03T09:41:38.98Z</time></trkpt><trkpt lat="42.3199408" lon="13.7538244"><ele>432.20000000000005</ele><time>2026-05-03T09:41:39.981Z</time></trkpt><trkpt lat="42.3199706" lon="13.7539422"><ele>431.0</ele><time>2026-05-03T09:41:40.981Z</time></trkpt><trkpt lat="42.320001" lon="13.754055"><ele>430.99999999999994</ele><time>2026-05-03T09:41:41.98Z</time></trkpt><trkpt lat="42.3200392" lon="13.7541635"><ele>431.0</ele><time>2026-05-03T09:41:42.981Z</time></trkpt><trkpt lat="42.3200838" lon="13.7542677"><ele>431.0</ele><time>2026-05-03T09:41:43.981Z</time></trkpt><trkpt lat="42.3201312" lon="13.7543708"><ele>431.0</ele><time>2026-05-03T09:41:44.981Z</time></trkpt><trkpt lat="42.3201799" lon="13.7544712"><ele>430.99999999999994</ele><time>2026-05-03T09:41:45.98Z</time></trkpt><trkpt lat="42.3202252" lon="13.7545634"><ele>431.0</ele><time>2026-05-03T09:41:46.98Z</time></trkpt><trkpt lat="42.3202678" lon="13.7546675"><ele>430.99999999999994</ele><time>2026-05-03T09:41:47.981Z</time></trkpt><trkpt lat="42.3203052" lon="13.7547768"><ele>431.0</ele><time>2026-05-03T09:41:48.98Z</time></trkpt><trkpt lat="42.3203412" lon="13.7548844"><ele>431.0</ele><time>2026-05-03T09:41:49.98Z</time></trkpt><trkpt lat="42.3203751" lon="13.7549823"><ele>431.0</ele><time>2026-05-03T09:41:50.981Z</time></trkpt><trkpt lat="42.3204028" lon="13.7550744"><ele>430.99999999999994</ele><time>2026-05-03T09:41:51.98Z</time></trkpt><trkpt lat="42.320437" lon="13.7552061"><ele>431.0</ele><time>2026-05-03T09:41:53.981Z</time></trkpt><trkpt lat="42.3204769" lon="13.7553262"><ele>431.0</ele><time>2026-05-03T09:41:55.98Z</time></trkpt><trkpt lat="42.3205463" lon="13.7554231"><ele>431.0</ele><time>2026-05-03T09:41:57.98Z</time></trkpt><trkpt lat="42.3206345" lon="13.7555085"><ele>431.0</ele><time>2026-05-03T09:41:59.981Z</time></trkpt><trkpt lat="42.3207291" lon="13.755607"><ele>431.0</ele><time>2026-05-03T09:42:01.981Z</time></trkpt><trkpt lat="42.3208284" lon="13.7557008"><ele>431.0</ele><time>2026-05-03T09:42:03.981Z</time></trkpt><trkpt lat="42.3209352" lon="13.7557855"><ele>431.99999999999994</ele><time>2026-05-03T09:42:05.98Z</time></trkpt><trkpt lat="42.3210476" lon="13.7558686"><ele>433.0</ele><time>2026-05-03T09:42:07.981Z</time></trkpt><trkpt lat="42.3210963" lon="13.7559259"><ele>434.0</ele><time>2026-05-03T09:42:08.98Z</time></trkpt><trkpt lat="42.3211368" lon="13.7559941"><ele>435.0</ele><time>2026-05-03T09:42:09.981Z</time></trkpt><trkpt lat="42.3211785" lon="13.7560677"><ele>435.99999999999994</ele><time>2026-05-03T09:42:10.981Z</time></trkpt><trkpt lat="42.3212252" lon="13.7561404"><ele>437.0</ele><time>2026-05-03T09:42:11.98Z</time></trkpt><trkpt lat="42.3212742" lon="13.7562145"><ele>437.66666666666663</ele><time>2026-05-03T09:42:12.981Z</time></trkpt><trkpt lat="42.3213259" lon="13.7562822"><ele>438.3333333333333</ele><time>2026-05-03T09:42:13.981Z</time></trkpt><trkpt lat="42.3213849" lon="13.7563504"><ele>439.0</ele><time>2026-05-03T09:42:14.98Z</time></trkpt><trkpt lat="42.321447" lon="13.7564155"><ele>439.66666666666663</ele><time>2026-05-03T09:42:15.981Z</time></trkpt><trkpt lat="42.3215132" lon="13.7564757"><ele>440.3333333333333</ele><time>2026-05-03T09:42:16.98Z</time></trkpt><trkpt lat="42.3215806" lon="13.7565383"><ele>441.0</ele><time>2026-05-03T09:42:17.981Z</time></trkpt><trkpt lat="42.3216483" lon="13.756607"><ele>442.0</ele><time>2026-05-03T09:42:18.981Z</time></trkpt><trkpt lat="42.3217206" lon="13.75668"><ele>443.0</ele><time>2026-05-03T09:42:19.98Z</time></trkpt><trkpt lat="42.3217938" lon="13.7567524"><ele>444.0</ele><time>2026-05-03T09:42:20.981Z</time></trkpt><trkpt lat="42.3218622" lon="13.7568165"><ele>445.0</ele><time>2026-05-03T09:42:21.98Z</time></trkpt><trkpt lat="42.3219351" lon="13.7568671"><ele>446.0</ele><time>2026-05-03T09:42:22.98Z</time></trkpt><trkpt lat="42.3220059" lon="13.756896"><ele>447.0</ele><time>2026-05-03T09:42:23.981Z</time></trkpt><trkpt lat="42.3220742" lon="13.7569223"><ele>447.6666666666667</ele><time>2026-05-03T09:42:24.981Z</time></trkpt><trkpt lat="42.322134" lon="13.7569568"><ele>448.33333333333337</ele><time>2026-05-03T09:42:25.981Z</time></trkpt><trkpt lat="42.3222339" lon="13.7570582"><ele>449.0</ele><time>2026-05-03T09:42:27.981Z</time></trkpt><trkpt lat="42.3223201" lon="13.7571808"><ele>449.6666666666667</ele><time>2026-05-03T09:42:29.981Z</time></trkpt><trkpt lat="42.3223646" lon="13.7572425"><ele>450.33333333333337</ele><time>2026-05-03T09:42:30.981Z</time></trkpt><trkpt lat="42.3224091" lon="13.7573042"><ele>451.0</ele><time>2026-05-03T09:42:31.981Z</time></trkpt><trkpt lat="42.3224529" lon="13.7573736"><ele>452.1666666666667</ele><time>2026-05-03T09:42:32.981Z</time></trkpt><trkpt lat="42.3224892" lon="13.7574525"><ele>453.33333333333337</ele><time>2026-05-03T09:42:33.981Z</time></trkpt><trkpt lat="42.322525" lon="13.75754"><ele>454.5</ele><time>2026-05-03T09:42:34.981Z</time></trkpt><trkpt lat="42.3225606" lon="13.757635"><ele>455.66666666666663</ele><time>2026-05-03T09:42:35.98Z</time></trkpt><trkpt lat="42.3225929" lon="13.7577392"><ele>456.8333333333333</ele><time>2026-05-03T09:42:36.981Z</time></trkpt><trkpt lat="42.3226248" lon="13.7578498"><ele>458.0</ele><time>2026-05-03T09:42:37.981Z</time></trkpt><trkpt lat="42.3226577" lon="13.7579556"><ele>458.49999999999994</ele><time>2026-05-03T09:42:38.981Z</time></trkpt><trkpt lat="42.3226852" lon="13.758042"><ele>459.0</ele><time>2026-05-03T09:42:39.981Z</time></trkpt><trkpt lat="42.3227208" lon="13.7581414"><ele>459.5</ele><time>2026-05-03T09:42:41.98Z</time></trkpt><trkpt lat="42.3227849" lon="13.7581959"><ele>460.0</ele><time>2026-05-03T09:42:44.981Z</time></trkpt><trkpt lat="42.3228859" lon="13.7582056"><ele>460.49999999999994</ele><time>2026-05-03T09:42:46.98Z</time></trkpt><trkpt lat="42.3229638" lon="13.7582192"><ele>461.0</ele><time>2026-05-03T09:42:47.98Z</time></trkpt><trkpt lat="42.3230493" lon="13.7582471"><ele>463.0</ele><time>2026-05-03T09:42:48.98Z</time></trkpt><trkpt lat="42.3231363" lon="13.7582896"><ele>465.0</ele><time>2026-05-03T09:42:49.981Z</time></trkpt><trkpt lat="42.3232355" lon="13.7583387"><ele>467.0</ele><time>2026-05-03T09:42:50.981Z</time></trkpt><trkpt lat="42.3233426" lon="13.7583877"><ele>469.0</ele><time>2026-05-03T09:42:51.981Z</time></trkpt><trkpt lat="42.3234486" lon="13.7584373"><ele>471.0</ele><time>2026-05-03T09:42:52.98Z</time></trkpt><trkpt lat="42.3235383" lon="13.7584864"><ele>471.0</ele><time>2026-05-03T09:42:53.981Z</time></trkpt><trkpt lat="42.3236107" lon="13.7585328"><ele>471.0</ele><time>2026-05-03T09:42:54.981Z</time></trkpt><trkpt lat="42.3236779" lon="13.7585873"><ele>471.0</ele><time>2026-05-03T09:42:55.981Z</time></trkpt><trkpt lat="42.3237414" lon="13.7586536"><ele>471.0</ele><time>2026-05-03T09:42:56.981Z</time></trkpt><trkpt lat="42.323799" lon="13.7587273"><ele>471.0</ele><time>2026-05-03T09:42:57.98Z</time></trkpt><trkpt lat="42.3238539" lon="13.7587995"><ele>471.0</ele><time>2026-05-03T09:42:58.98Z</time></trkpt><trkpt lat="42.3238896" lon="13.7588836"><ele>472.5</ele><time>2026-05-03T09:42:59.98Z</time></trkpt><trkpt lat="42.3239147" lon="13.7589792"><ele>474.0</ele><time>2026-05-03T09:43:00.98Z</time></trkpt><trkpt lat="42.3239374" lon="13.7590759"><ele>475.5</ele><time>2026-05-03T09:43:01.98Z</time></trkpt><trkpt lat="42.3239467" lon="13.7591936"><ele>477.0</ele><time>2026-05-03T09:43:02.981Z</time></trkpt><trkpt lat="42.3239559" lon="13.759308"><ele>478.5</ele><time>2026-05-03T09:43:03.98Z</time></trkpt><trkpt lat="42.3239751" lon="13.7594142"><ele>480.0</ele><time>2026-05-03T09:43:04.981Z</time></trkpt><trkpt lat="42.324004" lon="13.7595168"><ele>481.1666666666667</ele><time>2026-05-03T09:43:05.981Z</time></trkpt><trkpt lat="42.3240403" lon="13.759606"><ele>482.33333333333337</ele><time>2026-05-03T09:43:07.98Z</time></trkpt><trkpt lat="42.3240822" lon="13.7595194"><ele>483.5</ele><time>2026-05-03T09:43:17.981Z</time></trkpt><trkpt lat="42.3241726" lon="13.7595015"><ele>484.6666666666667</ele><time>2026-05-03T09:43:20.981Z</time></trkpt><trkpt lat="42.3242941" lon="13.7595371"><ele>485.83333333333337</ele><time>2026-05-03T09:43:22.981Z</time></trkpt><trkpt lat="42.3243689" lon="13.7595504"><ele>487.0</ele><time>2026-05-03T09:43:23.981Z</time></trkpt><trkpt lat="42.324432" lon="13.759555"><ele>487.00000000000006</ele><time>2026-05-03T09:43:24.981Z</time></trkpt><trkpt lat="42.3245279" lon="13.7595719"><ele>487.0</ele><time>2026-05-03T09:43:26.981Z</time></trkpt><trkpt lat="42.3245909" lon="13.7595767"><ele>487.0</ele><time>2026-05-03T09:43:28.981Z</time></trkpt><trkpt lat="42.3246841" lon="13.7595554"><ele>487.0</ele><time>2026-05-03T09:43:31.981Z</time></trkpt><trkpt lat="42.3247379" lon="13.7595049"><ele>487.00000000000006</ele><time>2026-05-03T09:43:32.98Z</time></trkpt><trkpt lat="42.3247912" lon="13.75942"><ele>487.0</ele><time>2026-05-03T09:43:33.98Z</time></trkpt><trkpt lat="42.32484" lon="13.7593201"><ele>487.6666666666667</ele><time>2026-05-03T09:43:34.98Z</time></trkpt><trkpt lat="42.324884" lon="13.7592155"><ele>488.33333333333337</ele><time>2026-05-03T09:43:35.98Z</time></trkpt><trkpt lat="42.3249092" lon="13.7591099"><ele>489.0</ele><time>2026-05-03T09:43:36.981Z</time></trkpt><trkpt lat="42.3249238" lon="13.7590146"><ele>489.66666666666663</ele><time>2026-05-03T09:43:37.98Z</time></trkpt><trkpt lat="42.3249416" lon="13.758863"><ele>490.3333333333333</ele><time>2026-05-03T09:43:39.981Z</time></trkpt><trkpt lat="42.3250085" lon="13.758826"><ele>491.0</ele><time>2026-05-03T09:43:42.98Z</time></trkpt><trkpt lat="42.3250255" lon="13.758911"><ele>491.0</ele><time>2026-05-03T09:43:44.98Z</time></trkpt><trkpt lat="42.3249767" lon="13.7590885"><ele>491.0</ele><time>2026-05-03T09:43:46.981Z</time></trkpt><trkpt lat="42.3249617" lon="13.7591874"><ele>491.0</ele><time>2026-05-03T09:43:47.981Z</time></trkpt><trkpt lat="42.3249585" lon="13.7592787"><ele>491.0</ele><time>2026-05-03T09:43:48.98Z</time></trkpt><trkpt lat="42.3249643" lon="13.7594339"><ele>491.0</ele><time>2026-05-03T09:43:50.981Z</time></trkpt><trkpt lat="42.3249864" lon="13.7595541"><ele>495.0</ele><time>2026-05-03T09:43:52.981Z</time></trkpt><trkpt lat="42.324953" lon="13.7596563"><ele>495.0</ele><time>2026-05-03T09:43:55.981Z</time></trkpt><trkpt lat="42.3249721" lon="13.7597445"><ele>495.0</ele><time>2026-05-03T09:44:10.98Z</time></trkpt><trkpt lat="42.3250145" lon="13.7598191"><ele>495.0</ele><time>2026-05-03T09:44:13.981Z</time></trkpt></trkseg><trkseg><trkpt lat="42.325039" lon="13.7597496"><ele>495.0</ele><time>2026-05-03T10:07:53.978Z</time></trkpt><trkpt lat="42.3250427" lon="13.759662"><ele>495.0</ele><time>2026-05-03T10:07:56.977Z</time></trkpt><trkpt lat="42.3251009" lon="13.7595824"><ele>495.0</ele><time>2026-05-03T10:08:00.977Z</time></trkpt><trkpt lat="42.3251701" lon="13.7596045"><ele>495.0</ele><time>2026-05-03T10:08:02.703Z</time></trkpt><trkpt lat="42.3252462" lon="13.7596707"><ele>495.0</ele><time>2026-05-03T10:08:04.978Z</time></trkpt><trkpt lat="42.3252979" lon="13.7598208"><ele>495.0</ele><time>2026-05-03T10:08:06.977Z</time></trkpt><trkpt lat="42.3253383" lon="13.7599039"><ele>495.0</ele><time>2026-05-03T10:08:07.978Z</time></trkpt><trkpt lat="42.3253785" lon="13.7599812"><ele>495.0</ele><time>2026-05-03T10:08:08.978Z</time></trkpt><trkpt lat="42.3254172" lon="13.7600632"><ele>495.0</ele><time>2026-05-03T10:08:09.977Z</time></trkpt><trkpt lat="42.3254554" lon="13.7601458"><ele>495.0</ele><time>2026-05-03T10:08:10.978Z</time></trkpt><trkpt lat="42.325497" lon="13.7602192"><ele>495.0</ele><time>2026-05-03T10:08:11.978Z</time></trkpt><trkpt lat="42.3255652" lon="13.7603218"><ele>495.0</ele><time>2026-05-03T10:08:13.978Z</time></trkpt><trkpt lat="42.3256037" lon="13.7604013"><ele>496.0</ele><time>2026-05-03T10:08:15.978Z</time></trkpt><trkpt lat="42.3255327" lon="13.7604845"><ele>497.0</ele><time>2026-05-03T10:08:18.977Z</time></trkpt><trkpt lat="42.3253832" lon="13.7605103"><ele>498.0</ele><time>2026-05-03T10:08:20.978Z</time></trkpt><trkpt lat="42.3252865" lon="13.7605154"><ele>499.0</ele><time>2026-05-03T10:08:21.978Z</time></trkpt><trkpt lat="42.3251944" lon="13.7605183"><ele>500.0</ele><time>2026-05-03T10:08:22.978Z</time></trkpt><trkpt lat="42.3251039" lon="13.7604953"><ele>500.0</ele><time>2026-05-03T10:08:23.978Z</time></trkpt><trkpt lat="42.3250135" lon="13.7604658"><ele>500.0</ele><time>2026-05-03T10:08:24.977Z</time></trkpt><trkpt lat="42.3249132" lon="13.7604196"><ele>500.0</ele><time>2026-05-03T10:08:25.978Z</time></trkpt><trkpt lat="42.3248115" lon="13.7603645"><ele>500.0</ele><time>2026-05-03T10:08:26.977Z</time></trkpt><trkpt lat="42.3247117" lon="13.7603091"><ele>500.0</ele><time>2026-05-03T10:08:27.978Z</time></trkpt><trkpt lat="42.324613" lon="13.7602509"><ele>499.99999999999994</ele><time>2026-05-03T10:08:28.977Z</time></trkpt><trkpt lat="42.3245125" lon="13.7601936"><ele>500.0</ele><time>2026-05-03T10:08:29.977Z</time></trkpt><trkpt lat="42.3244283" lon="13.7601406"><ele>500.0</ele><time>2026-05-03T10:08:30.978Z</time></trkpt><trkpt lat="42.3243456" lon="13.7600706"><ele>500.0</ele><time>2026-05-03T10:08:32.978Z</time></trkpt><trkpt lat="42.324299" lon="13.7601292"><ele>499.99999999999994</ele><time>2026-05-03T10:08:42.978Z</time></trkpt><trkpt lat="42.324372" lon="13.7601668"><ele>500.0</ele><time>2026-05-03T10:08:44.978Z</time></trkpt><trkpt lat="42.3244867" lon="13.7602258"><ele>499.99999999999994</ele><time>2026-05-03T10:08:46.978Z</time></trkpt><trkpt lat="42.3245599" lon="13.7602643"><ele>500.0</ele><time>2026-05-03T10:08:47.978Z</time></trkpt><trkpt lat="42.3246271" lon="13.7602994"><ele>500.0</ele><time>2026-05-03T10:08:48.978Z</time></trkpt><trkpt lat="42.3246969" lon="13.7603345"><ele>500.0</ele><time>2026-05-03T10:08:49.978Z</time></trkpt><trkpt lat="42.3247602" lon="13.7603656"><ele>499.99999999999994</ele><time>2026-05-03T10:08:50.977Z</time></trkpt><trkpt lat="42.3248715" lon="13.7604232"><ele>500.0</ele><time>2026-05-03T10:08:52.977Z</time></trkpt><trkpt lat="42.324946" lon="13.7604716"><ele>500.0</ele><time>2026-05-03T10:08:54.978Z</time></trkpt><trkpt lat="42.3249497" lon="13.7605735"><ele>500.0</ele><time>2026-05-03T10:08:56.978Z</time></trkpt><trkpt lat="42.3248769" lon="13.7606869"><ele>500.0</ele><time>2026-05-03T10:08:58.978Z</time></trkpt><trkpt lat="42.3248136" lon="13.7607487"><ele>500.0</ele><time>2026-05-03T10:08:59.977Z</time></trkpt><trkpt lat="42.3247377" lon="13.7608122"><ele>500.0</ele><time>2026-05-03T10:09:00.978Z</time></trkpt><trkpt lat="42.3246453" lon="13.7608605"><ele>500.0</ele><time>2026-05-03T10:09:01.977Z</time></trkpt><trkpt lat="42.3245447" lon="13.7608796"><ele>500.0</ele><time>2026-05-03T10:09:02.977Z</time></trkpt><trkpt lat="42.3244438" lon="13.7608773"><ele>500.0</ele><time>2026-05-03T10:09:03.977Z</time></trkpt><trkpt lat="42.3243454" lon="13.7608634"><ele>500.0</ele><time>2026-05-03T10:09:04.977Z</time></trkpt><trkpt lat="42.3242444" lon="13.7608475"><ele>500.0</ele><time>2026-05-03T10:09:05.978Z</time></trkpt><trkpt lat="42.3241415" lon="13.7608361"><ele>499.99999999999994</ele><time>2026-05-03T10:09:06.978Z</time></trkpt><trkpt lat="42.3240463" lon="13.7608289"><ele>500.0</ele><time>2026-05-03T10:09:07.977Z</time></trkpt><trkpt lat="42.3239604" lon="13.7608317"><ele>500.0</ele><time>2026-05-03T10:09:08.977Z</time></trkpt><trkpt lat="42.3238785" lon="13.7608392"><ele>500.0</ele><time>2026-05-03T10:09:09.977Z</time></trkpt><trkpt lat="42.323802" lon="13.7608405"><ele>499.99999999999994</ele><time>2026-05-03T10:09:10.977Z</time></trkpt><trkpt lat="42.3237231" lon="13.7608335"><ele>500.0</ele><time>2026-05-03T10:09:11.977Z</time></trkpt><trkpt lat="42.3236385" lon="13.760826"><ele>499.8</ele><time>2026-05-03T10:09:12.978Z</time></trkpt><trkpt lat="42.32355" lon="13.7608242"><ele>499.6</ele><time>2026-05-03T10:09:13.977Z</time></trkpt><trkpt lat="42.3234591" lon="13.7608284"><ele>499.4</ele><time>2026-05-03T10:09:14.978Z</time></trkpt><trkpt lat="42.3233646" lon="13.7608371"><ele>499.2</ele><time>2026-05-03T10:09:15.978Z</time></trkpt><trkpt lat="42.3232688" lon="13.7608506"><ele>499.0</ele><time>2026-05-03T10:09:16.978Z</time></trkpt><trkpt lat="42.3231755" lon="13.7608724"><ele>499.0</ele><time>2026-05-03T10:09:17.977Z</time></trkpt><trkpt lat="42.323087" lon="13.7609052"><ele>499.0</ele><time>2026-05-03T10:09:18.978Z</time></trkpt><trkpt lat="42.3229959" lon="13.7609507"><ele>499.0</ele><time>2026-05-03T10:09:19.978Z</time></trkpt><trkpt lat="42.3229009" lon="13.7610106"><ele>499.0</ele><time>2026-05-03T10:09:20.978Z</time></trkpt><trkpt lat="42.3228027" lon="13.7610815"><ele>499.0</ele><time>2026-05-03T10:09:21.977Z</time></trkpt><trkpt lat="42.322706" lon="13.761153"><ele>498.6</ele><time>2026-05-03T10:09:22.978Z</time></trkpt><trkpt lat="42.3226118" lon="13.7612252"><ele>498.2</ele><time>2026-05-03T10:09:23.977Z</time></trkpt><trkpt lat="42.3225175" lon="13.7612939"><ele>497.80000000000007</ele><time>2026-05-03T10:09:24.978Z</time></trkpt><trkpt lat="42.3224232" lon="13.7613549"><ele>497.40000000000003</ele><time>2026-05-03T10:09:25.978Z</time></trkpt><trkpt lat="42.3223305" lon="13.7614161"><ele>497.0</ele><time>2026-05-03T10:09:26.978Z</time></trkpt><trkpt lat="42.3222414" lon="13.7614734"><ele>495.16666666666663</ele><time>2026-05-03T10:09:27.977Z</time></trkpt><trkpt lat="42.3221547" lon="13.7615249"><ele>493.3333333333333</ele><time>2026-05-03T10:09:28.977Z</time></trkpt><trkpt lat="42.3220755" lon="13.7615725"><ele>491.5</ele><time>2026-05-03T10:09:29.978Z</time></trkpt><trkpt lat="42.3219991" lon="13.7616236"><ele>489.66666666666663</ele><time>2026-05-03T10:09:30.978Z</time></trkpt><trkpt lat="42.321925" lon="13.7616787"><ele>487.8333333333333</ele><time>2026-05-03T10:09:31.978Z</time></trkpt><trkpt lat="42.3218544" lon="13.7617321"><ele>486.0</ele><time>2026-05-03T10:09:32.978Z</time></trkpt><trkpt lat="42.3217861" lon="13.7617757"><ele>486.0</ele><time>2026-05-03T10:09:33.978Z</time></trkpt><trkpt lat="42.3217008" lon="13.7618028"><ele>486.0</ele><time>2026-05-03T10:09:35.977Z</time></trkpt><trkpt lat="42.3216191" lon="13.761741"><ele>486.0</ele><time>2026-05-03T10:09:37.978Z</time></trkpt><trkpt lat="42.3215704" lon="13.7616797"><ele>486.0</ele><time>2026-05-03T10:09:38.978Z</time></trkpt><trkpt lat="42.3215161" lon="13.7616085"><ele>486.0</ele><time>2026-05-03T10:09:39.978Z</time></trkpt><trkpt lat="42.3214745" lon="13.7615355"><ele>486.0</ele><time>2026-05-03T10:09:40.977Z</time></trkpt><trkpt lat="42.3214343" lon="13.7613769"><ele>486.0</ele><time>2026-05-03T10:09:42.977Z</time></trkpt><trkpt lat="42.3214304" lon="13.7612803"><ele>486.0</ele><time>2026-05-03T10:09:43.977Z</time></trkpt><trkpt lat="42.3214261" lon="13.7611789"><ele>486.0</ele><time>2026-05-03T10:09:44.978Z</time></trkpt><trkpt lat="42.3214124" lon="13.7610735"><ele>486.0</ele><time>2026-05-03T10:09:45.978Z</time></trkpt><trkpt lat="42.3213873" lon="13.7609686"><ele>486.0</ele><time>2026-05-03T10:09:46.978Z</time></trkpt><trkpt lat="42.3213532" lon="13.7608639"><ele>486.0</ele><time>2026-05-03T10:09:47.978Z</time></trkpt><trkpt lat="42.321318" lon="13.7607748"><ele>483.3333333333333</ele><time>2026-05-03T10:09:48.977Z</time></trkpt><trkpt lat="42.3212904" lon="13.7606749"><ele>480.66666666666663</ele><time>2026-05-03T10:09:49.977Z</time></trkpt><trkpt lat="42.3212734" lon="13.7605748"><ele>478.0</ele><time>2026-05-03T10:09:50.978Z</time></trkpt><trkpt lat="42.3212569" lon="13.7604676"><ele>475.3333333333333</ele><time>2026-05-03T10:09:52.977Z</time></trkpt><trkpt lat="42.3211951" lon="13.7603994"><ele>472.66666666666663</ele><time>2026-05-03T10:09:57.977Z</time></trkpt><trkpt lat="42.3211138" lon="13.7604463"><ele>470.0</ele><time>2026-05-03T10:09:59.978Z</time></trkpt><trkpt lat="42.3210144" lon="13.7604983"><ele>470.0</ele><time>2026-05-03T10:10:01.978Z</time></trkpt><trkpt lat="42.320906" lon="13.7605619"><ele>470.0</ele><time>2026-05-03T10:10:03.978Z</time></trkpt><trkpt lat="42.3208154" lon="13.7606424"><ele>470.0</ele><time>2026-05-03T10:10:05.978Z</time></trkpt><trkpt lat="42.3207215" lon="13.7607156"><ele>470.0</ele><time>2026-05-03T10:10:07.978Z</time></trkpt><trkpt lat="42.3206086" lon="13.7607966"><ele>469.4285714285714</ele><time>2026-05-03T10:10:09.977Z</time></trkpt><trkpt lat="42.3205448" lon="13.760834"><ele>468.8571428571428</ele><time>2026-05-03T10:10:10.977Z</time></trkpt><trkpt lat="42.3204831" lon="13.7608817"><ele>468.2857142857143</ele><time>2026-05-03T10:10:11.977Z</time></trkpt><trkpt lat="42.3204239" lon="13.7609392"><ele>467.71428571428567</ele><time>2026-05-03T10:10:12.977Z</time></trkpt><trkpt lat="42.3203637" lon="13.7609891"><ele>467.1428571428571</ele><time>2026-05-03T10:10:13.977Z</time></trkpt><trkpt lat="42.3203033" lon="13.7610418"><ele>466.57142857142856</ele><time>2026-05-03T10:10:14.978Z</time></trkpt><trkpt lat="42.3202422" lon="13.7611154"><ele>466.0</ele><time>2026-05-03T10:10:15.977Z</time></trkpt><trkpt lat="42.3201797" lon="13.7611956"><ele>466.00000000000006</ele><time>2026-05-03T10:10:16.978Z</time></trkpt><trkpt lat="42.3201215" lon="13.7612834"><ele>466.0</ele><time>2026-05-03T10:10:17.977Z</time></trkpt><trkpt lat="42.3200602" lon="13.7613581"><ele>466.0</ele><time>2026-05-03T10:10:18.978Z</time></trkpt><trkpt lat="42.3199961" lon="13.7614231"><ele>466.0</ele><time>2026-05-03T10:10:19.978Z</time></trkpt><trkpt lat="42.319924" lon="13.7614883"><ele>466.00000000000006</ele><time>2026-05-03T10:10:20.977Z</time></trkpt><trkpt lat="42.3198454" lon="13.7615588"><ele>466.0</ele><time>2026-05-03T10:10:21.978Z</time></trkpt><trkpt lat="42.31976" lon="13.7616276"><ele>465.6</ele><time>2026-05-03T10:10:22.977Z</time></trkpt><trkpt lat="42.319674" lon="13.7616983"><ele>465.20000000000005</ele><time>2026-05-03T10:10:23.977Z</time></trkpt><trkpt lat="42.3195863" lon="13.7617679"><ele>464.79999999999995</ele><time>2026-05-03T10:10:24.978Z</time></trkpt><trkpt lat="42.3195001" lon="13.7618325"><ele>464.4</ele><time>2026-05-03T10:10:25.977Z</time></trkpt><trkpt lat="42.3194188" lon="13.7618969"><ele>464.0</ele><time>2026-05-03T10:10:26.978Z</time></trkpt><trkpt lat="42.3193375" lon="13.7619649"><ele>464.0</ele><time>2026-05-03T10:10:27.977Z</time></trkpt><trkpt lat="42.3192536" lon="13.7620298"><ele>464.0</ele><time>2026-05-03T10:10:28.978Z</time></trkpt><trkpt lat="42.3191609" lon="13.7621016"><ele>464.0</ele><time>2026-05-03T10:10:29.977Z</time></trkpt><trkpt lat="42.3190662" lon="13.7621642"><ele>464.0</ele><time>2026-05-03T10:10:30.977Z</time></trkpt><trkpt lat="42.3189718" lon="13.7622236"><ele>464.0</ele><time>2026-05-03T10:10:31.978Z</time></trkpt><trkpt lat="42.3188736" lon="13.7622982"><ele>461.5</ele><time>2026-05-03T10:10:32.978Z</time></trkpt><trkpt lat="42.318773" lon="13.7623797"><ele>459.0</ele><time>2026-05-03T10:10:33.977Z</time></trkpt><trkpt lat="42.3186724" lon="13.7624642"><ele>456.5</ele><time>2026-05-03T10:10:34.978Z</time></trkpt><trkpt lat="42.3185734" lon="13.7625522"><ele>454.0</ele><time>2026-05-03T10:10:35.978Z</time></trkpt><trkpt lat="42.3184727" lon="13.7626434"><ele>456.25</ele><time>2026-05-03T10:10:36.978Z</time></trkpt><trkpt lat="42.3183707" lon="13.7627354"><ele>458.5</ele><time>2026-05-03T10:10:37.977Z</time></trkpt><trkpt lat="42.3182668" lon="13.7628294"><ele>460.75</ele><time>2026-05-03T10:10:38.977Z</time></trkpt><trkpt lat="42.3181665" lon="13.7629209"><ele>463.0</ele><time>2026-05-03T10:10:39.978Z</time></trkpt><trkpt lat="42.3180683" lon="13.7630098"><ele>461.79999999999995</ele><time>2026-05-03T10:10:40.977Z</time></trkpt><trkpt lat="42.3179736" lon="13.7630912"><ele>460.59999999999997</ele><time>2026-05-03T10:10:41.978Z</time></trkpt><trkpt lat="42.3178847" lon="13.7631703"><ele>459.40000000000003</ele><time>2026-05-03T10:10:42.977Z</time></trkpt><trkpt lat="42.3178018" lon="13.7632498"><ele>458.20000000000005</ele><time>2026-05-03T10:10:43.978Z</time></trkpt><trkpt lat="42.3177261" lon="13.7633309"><ele>457.0</ele><time>2026-05-03T10:10:44.978Z</time></trkpt><trkpt lat="42.3176573" lon="13.7634194"><ele>457.0</ele><time>2026-05-03T10:10:45.977Z</time></trkpt><trkpt lat="42.3175932" lon="13.76352"><ele>457.00000000000006</ele><time>2026-05-03T10:10:46.978Z</time></trkpt><trkpt lat="42.3175346" lon="13.7636317"><ele>457.00000000000006</ele><time>2026-05-03T10:10:47.977Z</time></trkpt><trkpt lat="42.3174698" lon="13.7637454"><ele>457.0</ele><time>2026-05-03T10:10:48.977Z</time></trkpt><trkpt lat="42.3173999" lon="13.7638611"><ele>457.0</ele><time>2026-05-03T10:10:49.978Z</time></trkpt><trkpt lat="42.3173283" lon="13.763979"><ele>457.40000000000003</ele><time>2026-05-03T10:10:50.977Z</time></trkpt><trkpt lat="42.3172566" lon="13.7640941"><ele>457.80000000000007</ele><time>2026-05-03T10:10:51.977Z</time></trkpt><trkpt lat="42.3171864" lon="13.7642076"><ele>458.2</ele><time>2026-05-03T10:10:52.978Z</time></trkpt><trkpt lat="42.317118" lon="13.7643208"><ele>458.6</ele><time>2026-05-03T10:10:53.978Z</time></trkpt><trkpt lat="42.3170532" lon="13.7644333"><ele>459.0</ele><time>2026-05-03T10:10:54.978Z</time></trkpt><trkpt lat="42.3169863" lon="13.7645394"><ele>458.0</ele><time>2026-05-03T10:10:55.978Z</time></trkpt><trkpt lat="42.3169173" lon="13.764637"><ele>457.0</ele><time>2026-05-03T10:10:56.978Z</time></trkpt><trkpt lat="42.3168482" lon="13.7647297"><ele>456.0</ele><time>2026-05-03T10:10:57.977Z</time></trkpt><trkpt lat="42.3167787" lon="13.764817"><ele>455.0</ele><time>2026-05-03T10:10:58.978Z</time></trkpt><trkpt lat="42.316711" lon="13.7648992"><ele>454.0</ele><time>2026-05-03T10:10:59.978Z</time></trkpt><trkpt lat="42.3166426" lon="13.7649754"><ele>454.0</ele><time>2026-05-03T10:11:00.978Z</time></trkpt><trkpt lat="42.3165741" lon="13.7650419"><ele>454.00000000000006</ele><time>2026-05-03T10:11:01.977Z</time></trkpt><trkpt lat="42.316506" lon="13.7650995"><ele>454.0</ele><time>2026-05-03T10:11:02.978Z</time></trkpt><trkpt lat="42.3164394" lon="13.7651512"><ele>454.0</ele><time>2026-05-03T10:11:03.978Z</time></trkpt><trkpt lat="42.3163757" lon="13.7652012"><ele>454.00000000000006</ele><time>2026-05-03T10:11:04.978Z</time></trkpt><trkpt lat="42.3163155" lon="13.7652464"><ele>454.0</ele><time>2026-05-03T10:11:05.978Z</time></trkpt><trkpt lat="42.3162585" lon="13.765288"><ele>454.0</ele><time>2026-05-03T10:11:06.977Z</time></trkpt><trkpt lat="42.3161561" lon="13.7653526"><ele>454.50000000000006</ele><time>2026-05-03T10:11:08.977Z</time></trkpt><trkpt lat="42.3160937" lon="13.7653998"><ele>455.0</ele><time>2026-05-03T10:11:26.978Z</time></trkpt><trkpt lat="42.3160233" lon="13.7654683"><ele>455.5</ele><time>2026-05-03T10:11:28.977Z</time></trkpt><trkpt lat="42.3159668" lon="13.7655338"><ele>456.0</ele><time>2026-05-03T10:11:29.977Z</time></trkpt><trkpt lat="42.3159098" lon="13.7656154"><ele>456.50000000000006</ele><time>2026-05-03T10:11:30.977Z</time></trkpt><trkpt lat="42.3158596" lon="13.7657061"><ele>457.0</ele><time>2026-05-03T10:11:31.978Z</time></trkpt><trkpt lat="42.3158125" lon="13.7658175"><ele>457.0</ele><time>2026-05-03T10:11:32.978Z</time></trkpt><trkpt lat="42.3157581" lon="13.7659437"><ele>457.0</ele><time>2026-05-03T10:11:33.977Z</time></trkpt><trkpt lat="42.3156962" lon="13.7660765"><ele>457.0</ele><time>2026-05-03T10:11:34.978Z</time></trkpt><trkpt lat="42.3156315" lon="13.766209"><ele>457.0</ele><time>2026-05-03T10:11:35.977Z</time></trkpt><trkpt lat="42.3155607" lon="13.7663403"><ele>458.0</ele><time>2026-05-03T10:11:36.977Z</time></trkpt><trkpt lat="42.315478" lon="13.7664675"><ele>459.0</ele><time>2026-05-03T10:11:37.978Z</time></trkpt><trkpt lat="42.3153843" lon="13.7665838"><ele>460.0</ele><time>2026-05-03T10:11:38.977Z</time></trkpt><trkpt lat="42.3152859" lon="13.7666889"><ele>461.0</ele><time>2026-05-03T10:11:39.978Z</time></trkpt><trkpt lat="42.3151816" lon="13.7667808"><ele>464.25</ele><time>2026-05-03T10:11:40.978Z</time></trkpt><trkpt lat="42.3150771" lon="13.7668783"><ele>467.5</ele><time>2026-05-03T10:11:41.978Z</time></trkpt><trkpt lat="42.314974" lon="13.7669792"><ele>470.75</ele><time>2026-05-03T10:11:42.977Z</time></trkpt><trkpt lat="42.3148738" lon="13.7670874"><ele>474.0</ele><time>2026-05-03T10:11:43.978Z</time></trkpt><trkpt lat="42.3147808" lon="13.7672049"><ele>473.0</ele><time>2026-05-03T10:11:44.978Z</time></trkpt><trkpt lat="42.3146982" lon="13.7673243"><ele>472.0</ele><time>2026-05-03T10:11:45.978Z</time></trkpt><trkpt lat="42.3146251" lon="13.7674312"><ele>471.0</ele><time>2026-05-03T10:11:46.977Z</time></trkpt><trkpt lat="42.3145563" lon="13.7675297"><ele>470.0</ele><time>2026-05-03T10:11:47.978Z</time></trkpt><trkpt lat="42.3145003" lon="13.7676223"><ele>469.0</ele><time>2026-05-03T10:11:48.977Z</time></trkpt><trkpt lat="42.3144345" lon="13.7677383"><ele>469.00000000000006</ele><time>2026-05-03T10:11:50.978Z</time></trkpt><trkpt lat="42.3143876" lon="13.7678033"><ele>469.0</ele><time>2026-05-03T10:11:53.977Z</time></trkpt><trkpt lat="42.31444" lon="13.7678534"><ele>469.0</ele><time>2026-05-03T10:11:57.978Z</time></trkpt><trkpt lat="42.3144722" lon="13.7677383"><ele>469.0</ele><time>2026-05-03T10:12:00.977Z</time></trkpt><trkpt lat="42.3144632" lon="13.7676432"><ele>469.00000000000006</ele><time>2026-05-03T10:12:03.977Z</time></trkpt><trkpt lat="42.3143788" lon="13.7676595"><ele>469.0</ele><time>2026-05-03T10:12:05.978Z</time></trkpt><trkpt lat="42.314259" lon="13.7677005"><ele>469.0</ele><time>2026-05-03T10:12:07.978Z</time></trkpt><trkpt lat="42.3141986" lon="13.7677313"><ele>469.0</ele><time>2026-05-03T10:12:08.978Z</time></trkpt><trkpt lat="42.3141398" lon="13.7677749"><ele>469.0</ele><time>2026-05-03T10:12:09.978Z</time></trkpt><trkpt lat="42.3140837" lon="13.7678364"><ele>469.0</ele><time>2026-05-03T10:12:10.977Z</time></trkpt><trkpt lat="42.3140296" lon="13.7679041"><ele>469.0</ele><time>2026-05-03T10:12:11.977Z</time></trkpt><trkpt lat="42.3139808" lon="13.7679844"><ele>469.0</ele><time>2026-05-03T10:12:12.977Z</time></trkpt><trkpt lat="42.313939" lon="13.7680726"><ele>469.0</ele><time>2026-05-03T10:12:13.977Z</time></trkpt><trkpt lat="42.3139037" lon="13.7681716"><ele>464.2</ele><time>2026-05-03T10:12:14.977Z</time></trkpt><trkpt lat="42.3138653" lon="13.7682748"><ele>459.4</ele><time>2026-05-03T10:12:15.977Z</time></trkpt><trkpt lat="42.3138244" lon="13.7683819"><ele>454.6</ele><time>2026-05-03T10:12:16.978Z</time></trkpt><trkpt lat="42.313776" lon="13.768484"><ele>449.8</ele><time>2026-05-03T10:12:17.978Z</time></trkpt><trkpt lat="42.3137209" lon="13.7685871"><ele>445.0</ele><time>2026-05-03T10:12:18.977Z</time></trkpt><trkpt lat="42.3136655" lon="13.7686964"><ele>445.0</ele><time>2026-05-03T10:12:19.978Z</time></trkpt><trkpt lat="42.313613" lon="13.7688068"><ele>445.0</ele><time>2026-05-03T10:12:20.978Z</time></trkpt><trkpt lat="42.3135679" lon="13.7689245"><ele>445.0</ele><time>2026-05-03T10:12:21.978Z</time></trkpt><trkpt lat="42.3135237" lon="13.769042"><ele>445.0</ele><time>2026-05-03T10:12:22.977Z</time></trkpt><trkpt lat="42.3134739" lon="13.769156"><ele>445.0</ele><time>2026-05-03T10:12:23.977Z</time></trkpt><trkpt lat="42.3134186" lon="13.7692688"><ele>445.4</ele><time>2026-05-03T10:12:24.978Z</time></trkpt><trkpt lat="42.3133625" lon="13.7693807"><ele>445.8</ele><time>2026-05-03T10:12:25.977Z</time></trkpt><trkpt lat="42.3133051" lon="13.7694948"><ele>446.20000000000005</ele><time>2026-05-03T10:12:26.977Z</time></trkpt><trkpt lat="42.3132395" lon="13.7696051"><ele>446.6</ele><time>2026-05-03T10:12:27.977Z</time></trkpt><trkpt lat="42.313161" lon="13.7697047"><ele>447.0</ele><time>2026-05-03T10:12:28.978Z</time></trkpt><trkpt lat="42.313074" lon="13.7697941"><ele>443.25</ele><time>2026-05-03T10:12:29.978Z</time></trkpt><trkpt lat="42.3129786" lon="13.7698794"><ele>439.5</ele><time>2026-05-03T10:12:30.977Z</time></trkpt><trkpt lat="42.3128727" lon="13.7699489"><ele>435.75</ele><time>2026-05-03T10:12:31.977Z</time></trkpt><trkpt lat="42.312768" lon="13.7700109"><ele>432.0</ele><time>2026-05-03T10:12:32.978Z</time></trkpt><trkpt lat="42.3126584" lon="13.7700656"><ele>432.0</ele><time>2026-05-03T10:12:33.977Z</time></trkpt><trkpt lat="42.3125529" lon="13.7701054"><ele>432.00000000000006</ele><time>2026-05-03T10:12:34.978Z</time></trkpt><trkpt lat="42.3124453" lon="13.7701324"><ele>432.00000000000006</ele><time>2026-05-03T10:12:35.978Z</time></trkpt><trkpt lat="42.3123373" lon="13.7701537"><ele>432.0</ele><time>2026-05-03T10:12:36.978Z</time></trkpt><trkpt lat="42.3122312" lon="13.7701739"><ele>432.0</ele><time>2026-05-03T10:12:37.978Z</time></trkpt><trkpt lat="42.3121275" lon="13.7701927"><ele>433.5</ele><time>2026-05-03T10:12:38.978Z</time></trkpt><trkpt lat="42.3120269" lon="13.7702154"><ele>435.0</ele><time>2026-05-03T10:12:39.978Z</time></trkpt><trkpt lat="42.3119366" lon="13.770241"><ele>436.5</ele><time>2026-05-03T10:12:40.977Z</time></trkpt><trkpt lat="42.3118521" lon="13.7702633"><ele>438.0</ele><time>2026-05-03T10:12:41.977Z</time></trkpt><trkpt lat="42.3117699" lon="13.7702788"><ele>439.5</ele><time>2026-05-03T10:12:42.978Z</time></trkpt><trkpt lat="42.3116946" lon="13.7702885"><ele>441.0</ele><time>2026-05-03T10:12:43.977Z</time></trkpt><trkpt lat="42.3116289" lon="13.7703136"><ele>441.0</ele><time>2026-05-03T10:12:44.977Z</time></trkpt><trkpt lat="42.3115613" lon="13.7703606"><ele>441.0</ele><time>2026-05-03T10:12:45.978Z</time></trkpt><trkpt lat="42.3114798" lon="13.7704247"><ele>441.0</ele><time>2026-05-03T10:12:46.978Z</time></trkpt><trkpt lat="42.3113943" lon="13.7704925"><ele>441.0</ele><time>2026-05-03T10:12:47.978Z</time></trkpt><trkpt lat="42.3113085" lon="13.7705648"><ele>441.0</ele><time>2026-05-03T10:12:48.978Z</time></trkpt><trkpt lat="42.3112245" lon="13.7706379"><ele>440.3333333333333</ele><time>2026-05-03T10:12:49.977Z</time></trkpt><trkpt lat="42.3111479" lon="13.7707135"><ele>439.66666666666663</ele><time>2026-05-03T10:12:50.978Z</time></trkpt><trkpt lat="42.3110729" lon="13.7707781"><ele>439.0</ele><time>2026-05-03T10:12:51.977Z</time></trkpt><trkpt lat="42.3109962" lon="13.7708132"><ele>438.3333333333333</ele><time>2026-05-03T10:12:52.978Z</time></trkpt><trkpt lat="42.3109183" lon="13.7708182"><ele>437.66666666666663</ele><time>2026-05-03T10:12:53.978Z</time></trkpt><trkpt lat="42.3108376" lon="13.7708108"><ele>437.0</ele><time>2026-05-03T10:12:54.977Z</time></trkpt><trkpt lat="42.3107559" lon="13.7707936"><ele>436.99999999999994</ele><time>2026-05-03T10:12:55.978Z</time></trkpt><trkpt lat="42.3106785" lon="13.7707808"><ele>437.0</ele><time>2026-05-03T10:12:56.978Z</time></trkpt><trkpt lat="42.3106" lon="13.7707866"><ele>437.0</ele><time>2026-05-03T10:12:57.978Z</time></trkpt><trkpt lat="42.3105195" lon="13.7708091"><ele>437.0</ele><time>2026-05-03T10:12:58.978Z</time></trkpt><trkpt lat="42.3104326" lon="13.7708343"><ele>436.99999999999994</ele><time>2026-05-03T10:12:59.978Z</time></trkpt><trkpt lat="42.3103372" lon="13.770864"><ele>437.0</ele><time>2026-05-03T10:13:00.977Z</time></trkpt><trkpt lat="42.3102371" lon="13.7708803"><ele>436.40000000000003</ele><time>2026-05-03T10:13:01.978Z</time></trkpt><trkpt lat="42.3101305" lon="13.7708949"><ele>435.80000000000007</ele><time>2026-05-03T10:13:02.978Z</time></trkpt><trkpt lat="42.3100195" lon="13.7709187"><ele>435.2</ele><time>2026-05-03T10:13:03.977Z</time></trkpt><trkpt lat="42.3099083" lon="13.7709619"><ele>434.6</ele><time>2026-05-03T10:13:04.978Z</time></trkpt><trkpt lat="42.3098084" lon="13.7710159"><ele>434.0</ele><time>2026-05-03T10:13:05.977Z</time></trkpt><trkpt lat="42.3097286" lon="13.771082"><ele>436.0</ele><time>2026-05-03T10:13:06.978Z</time></trkpt><trkpt lat="42.3096718" lon="13.7711361"><ele>438.0</ele><time>2026-05-03T10:13:07.978Z</time></trkpt><trkpt lat="42.3096327" lon="13.7712388"><ele>440.0</ele><time>2026-05-03T10:13:10.978Z</time></trkpt><trkpt lat="42.3095895" lon="13.7713454"><ele>442.0</ele><time>2026-05-03T10:13:13.977Z</time></trkpt><trkpt lat="42.3095033" lon="13.7714218"><ele>444.0</ele><time>2026-05-03T10:13:15.978Z</time></trkpt><trkpt lat="42.3094139" lon="13.7715043"><ele>444.0</ele><time>2026-05-03T10:13:17.977Z</time></trkpt><trkpt lat="42.3092972" lon="13.7715811"><ele>444.0</ele><time>2026-05-03T10:13:19.977Z</time></trkpt><trkpt lat="42.309231" lon="13.7716131"><ele>444.0</ele><time>2026-05-03T10:13:20.978Z</time></trkpt><trkpt lat="42.3091696" lon="13.7716445"><ele>444.0</ele><time>2026-05-03T10:13:21.977Z</time></trkpt><trkpt lat="42.3091061" lon="13.7716837"><ele>444.0</ele><time>2026-05-03T10:13:22.978Z</time></trkpt><trkpt lat="42.3090073" lon="13.7717679"><ele>443.8333333333333</ele><time>2026-05-03T10:13:24.977Z</time></trkpt><trkpt lat="42.3089138" lon="13.771887"><ele>443.66666666666663</ele><time>2026-05-03T10:13:26.978Z</time></trkpt><trkpt lat="42.3088627" lon="13.7719509"><ele>443.5</ele><time>2026-05-03T10:13:27.978Z</time></trkpt><trkpt lat="42.3088135" lon="13.7720118"><ele>443.3333333333333</ele><time>2026-05-03T10:13:28.978Z</time></trkpt><trkpt lat="42.3087606" lon="13.7720786"><ele>443.16666666666663</ele><time>2026-05-03T10:13:29.978Z</time></trkpt><trkpt lat="42.3087085" lon="13.7721434"><ele>443.0</ele><time>2026-05-03T10:13:30.978Z</time></trkpt><trkpt lat="42.308654" lon="13.772205"><ele>442.99999999999994</ele><time>2026-05-03T10:13:31.978Z</time></trkpt><trkpt lat="42.3085876" lon="13.7722766"><ele>443.0</ele><time>2026-05-03T10:13:32.977Z</time></trkpt><trkpt lat="42.3085229" lon="13.7723518"><ele>443.0</ele><time>2026-05-03T10:13:33.978Z</time></trkpt><trkpt lat="42.3084558" lon="13.772435"><ele>443.0</ele><time>2026-05-03T10:13:34.978Z</time></trkpt><trkpt lat="42.3083944" lon="13.7725217"><ele>442.99999999999994</ele><time>2026-05-03T10:13:35.978Z</time></trkpt><trkpt lat="42.308337" lon="13.7726094"><ele>443.0</ele><time>2026-05-03T10:13:36.978Z</time></trkpt><trkpt lat="42.3082796" lon="13.7726931"><ele>443.8333333333333</ele><time>2026-05-03T10:13:37.977Z</time></trkpt><trkpt lat="42.308219" lon="13.7727728"><ele>444.66666666666663</ele><time>2026-05-03T10:13:38.978Z</time></trkpt><trkpt lat="42.3081582" lon="13.772848"><ele>445.5</ele><time>2026-05-03T10:13:39.978Z</time></trkpt><trkpt lat="42.3080959" lon="13.7729178"><ele>446.33333333333337</ele><time>2026-05-03T10:13:40.978Z</time></trkpt><trkpt lat="42.308032" lon="13.7729871"><ele>447.1666666666667</ele><time>2026-05-03T10:13:41.978Z</time></trkpt><trkpt lat="42.307966" lon="13.7730563"><ele>448.0</ele><time>2026-05-03T10:13:42.977Z</time></trkpt><trkpt lat="42.3079015" lon="13.773118"><ele>445.1666666666667</ele><time>2026-05-03T10:13:43.977Z</time></trkpt><trkpt lat="42.3078407" lon="13.7731729"><ele>442.33333333333337</ele><time>2026-05-03T10:13:44.978Z</time></trkpt><trkpt lat="42.3077736" lon="13.7732267"><ele>439.5</ele><time>2026-05-03T10:13:45.977Z</time></trkpt><trkpt lat="42.3077036" lon="13.7732782"><ele>436.66666666666663</ele><time>2026-05-03T10:13:46.978Z</time></trkpt><trkpt lat="42.307639" lon="13.7733395"><ele>433.8333333333333</ele><time>2026-05-03T10:13:47.978Z</time></trkpt><trkpt lat="42.3075791" lon="13.7734095"><ele>431.0</ele><time>2026-05-03T10:13:48.978Z</time></trkpt><trkpt lat="42.307521" lon="13.7734844"><ele>431.8333333333333</ele><time>2026-05-03T10:13:49.978Z</time></trkpt><trkpt lat="42.3074637" lon="13.7735641"><ele>432.66666666666663</ele><time>2026-05-03T10:13:50.978Z</time></trkpt><trkpt lat="42.3074" lon="13.7736427"><ele>433.5</ele><time>2026-05-03T10:13:51.978Z</time></trkpt><trkpt lat="42.307327" lon="13.7737164"><ele>434.33333333333337</ele><time>2026-05-03T10:13:52.977Z</time></trkpt><trkpt lat="42.3072496" lon="13.7737813"><ele>435.1666666666667</ele><time>2026-05-03T10:13:53.977Z</time></trkpt><trkpt lat="42.3071752" lon="13.7738445"><ele>436.0</ele><time>2026-05-03T10:13:54.978Z</time></trkpt><trkpt lat="42.3071075" lon="13.7739092"><ele>434.6666666666667</ele><time>2026-05-03T10:13:55.978Z</time></trkpt><trkpt lat="42.3070467" lon="13.7739761"><ele>433.33333333333337</ele><time>2026-05-03T10:13:56.977Z</time></trkpt><trkpt lat="42.3069946" lon="13.7740467"><ele>432.0</ele><time>2026-05-03T10:13:57.978Z</time></trkpt><trkpt lat="42.3069479" lon="13.7741227"><ele>430.66666666666663</ele><time>2026-05-03T10:13:58.978Z</time></trkpt><trkpt lat="42.3068968" lon="13.7742058"><ele>429.3333333333333</ele><time>2026-05-03T10:13:59.978Z</time></trkpt><trkpt lat="42.3068347" lon="13.7742825"><ele>428.0</ele><time>2026-05-03T10:14:00.977Z</time></trkpt><trkpt lat="42.306768" lon="13.7743628"><ele>427.99999999999994</ele><time>2026-05-03T10:14:01.978Z</time></trkpt><trkpt lat="42.306709" lon="13.7744456"><ele>428.0</ele><time>2026-05-03T10:14:02.977Z</time></trkpt><trkpt lat="42.3066541" lon="13.7745307"><ele>428.0</ele><time>2026-05-03T10:14:03.977Z</time></trkpt><trkpt lat="42.3066023" lon="13.7746225"><ele>428.0</ele><time>2026-05-03T10:14:04.977Z</time></trkpt><trkpt lat="42.3065553" lon="13.7747193"><ele>427.99999999999994</ele><time>2026-05-03T10:14:05.978Z</time></trkpt><trkpt lat="42.3065134" lon="13.7748207"><ele>428.0</ele><time>2026-05-03T10:14:06.978Z</time></trkpt><trkpt lat="42.3064707" lon="13.774931"><ele>427.99999999999994</ele><time>2026-05-03T10:14:07.977Z</time></trkpt><trkpt lat="42.3064326" lon="13.7750431"><ele>428.0</ele><time>2026-05-03T10:14:08.977Z</time></trkpt><trkpt lat="42.3063977" lon="13.7751518"><ele>428.0</ele><time>2026-05-03T10:14:09.978Z</time></trkpt><trkpt lat="42.3063682" lon="13.7752543"><ele>428.0</ele><time>2026-05-03T10:14:10.977Z</time></trkpt><trkpt lat="42.3063422" lon="13.7753527"><ele>427.99999999999994</ele><time>2026-05-03T10:14:11.977Z</time></trkpt><trkpt lat="42.3063155" lon="13.7754489"><ele>428.0</ele><time>2026-05-03T10:14:12.978Z</time></trkpt><trkpt lat="42.3062882" lon="13.7755465"><ele>427.3333333333333</ele><time>2026-05-03T10:14:13.977Z</time></trkpt><trkpt lat="42.3062585" lon="13.7756469"><ele>426.66666666666663</ele><time>2026-05-03T10:14:14.978Z</time></trkpt><trkpt lat="42.3062296" lon="13.775742"><ele>426.0</ele><time>2026-05-03T10:14:15.978Z</time></trkpt><trkpt lat="42.3062063" lon="13.7758393"><ele>425.33333333333337</ele><time>2026-05-03T10:14:16.978Z</time></trkpt><trkpt lat="42.3061862" lon="13.7759505"><ele>424.6666666666667</ele><time>2026-05-03T10:14:17.978Z</time></trkpt><trkpt lat="42.306162" lon="13.7760704"><ele>424.0</ele><time>2026-05-03T10:14:18.977Z</time></trkpt><trkpt lat="42.3061367" lon="13.7761916"><ele>423.83333333333337</ele><time>2026-05-03T10:14:19.977Z</time></trkpt><trkpt lat="42.3061156" lon="13.7763016"><ele>423.6666666666667</ele><time>2026-05-03T10:14:20.977Z</time></trkpt><trkpt lat="42.306098" lon="13.7763903"><ele>423.5</ele><time>2026-05-03T10:14:21.978Z</time></trkpt><trkpt lat="42.3060609" lon="13.7765076"><ele>423.33333333333337</ele><time>2026-05-03T10:14:23.977Z</time></trkpt><trkpt lat="42.3060544" lon="13.7766278"><ele>423.1666666666667</ele><time>2026-05-03T10:14:26.978Z</time></trkpt><trkpt lat="42.3060626" lon="13.7767625"><ele>423.0</ele><time>2026-05-03T10:14:28.977Z</time></trkpt><trkpt lat="42.3060858" lon="13.7768927"><ele>422.75</ele><time>2026-05-03T10:14:30.978Z</time></trkpt><trkpt lat="42.306124" lon="13.777052"><ele>422.5</ele><time>2026-05-03T10:14:32.978Z</time></trkpt><trkpt lat="42.3061509" lon="13.7772042"><ele>422.25</ele><time>2026-05-03T10:14:34.977Z</time></trkpt><trkpt lat="42.306133" lon="13.7773337"><ele>422.0</ele><time>2026-05-03T10:14:36.977Z</time></trkpt><trkpt lat="42.3060785" lon="13.7774727"><ele>422.0</ele><time>2026-05-03T10:14:38.978Z</time></trkpt><trkpt lat="42.3060379" lon="13.7775828"><ele>422.0</ele><time>2026-05-03T10:14:40.978Z</time></trkpt><trkpt lat="42.3059798" lon="13.7776765"><ele>422.0</ele><time>2026-05-03T10:14:42.977Z</time></trkpt><trkpt lat="42.3058892" lon="13.777769"><ele>422.0</ele><time>2026-05-03T10:14:44.977Z</time></trkpt><trkpt lat="42.3057852" lon="13.7778553"><ele>422.0</ele><time>2026-05-03T10:14:46.977Z</time></trkpt><trkpt lat="42.3057383" lon="13.7779143"><ele>421.8</ele><time>2026-05-03T10:14:47.978Z</time></trkpt><trkpt lat="42.3056948" lon="13.777985"><ele>421.6</ele><time>2026-05-03T10:14:48.978Z</time></trkpt><trkpt lat="42.3056515" lon="13.778049"><ele>421.40000000000003</ele><time>2026-05-03T10:14:49.978Z</time></trkpt><trkpt lat="42.3055419" lon="13.7781292"><ele>421.20000000000005</ele><time>2026-05-03T10:14:51.978Z</time></trkpt><trkpt lat="42.3054302" lon="13.7782058"><ele>421.0</ele><time>2026-05-03T10:14:53.978Z</time></trkpt><trkpt lat="42.3053767" lon="13.7782651"><ele>420.00000000000006</ele><time>2026-05-03T10:14:54.977Z</time></trkpt><trkpt lat="42.3053264" lon="13.7783343"><ele>419.0</ele><time>2026-05-03T10:14:55.978Z</time></trkpt><trkpt lat="42.3052775" lon="13.7783992"><ele>418.0</ele><time>2026-05-03T10:14:56.977Z</time></trkpt><trkpt lat="42.3052302" lon="13.7784628"><ele>417.0</ele><time>2026-05-03T10:14:57.977Z</time></trkpt><trkpt lat="42.3051883" lon="13.7785297"><ele>416.0</ele><time>2026-05-03T10:14:58.977Z</time></trkpt><trkpt lat="42.3051516" lon="13.7786004"><ele>415.00000000000006</ele><time>2026-05-03T10:14:59.978Z</time></trkpt><trkpt lat="42.3051187" lon="13.7786809"><ele>414.0</ele><time>2026-05-03T10:15:00.978Z</time></trkpt><trkpt lat="42.3050859" lon="13.7787698"><ele>414.0</ele><time>2026-05-03T10:15:01.978Z</time></trkpt><trkpt lat="42.3050497" lon="13.7788621"><ele>414.0</ele><time>2026-05-03T10:15:02.977Z</time></trkpt><trkpt lat="42.3049971" lon="13.7789568"><ele>414.0</ele><time>2026-05-03T10:15:03.977Z</time></trkpt><trkpt lat="42.3049329" lon="13.7790554"><ele>414.0</ele><time>2026-05-03T10:15:04.977Z</time></trkpt><trkpt lat="42.3048682" lon="13.7791497"><ele>414.0</ele><time>2026-05-03T10:15:05.978Z</time></trkpt><trkpt lat="42.3048008" lon="13.7792416"><ele>412.6666666666667</ele><time>2026-05-03T10:15:06.978Z</time></trkpt><trkpt lat="42.3047415" lon="13.7793313"><ele>411.33333333333337</ele><time>2026-05-03T10:15:07.977Z</time></trkpt><trkpt lat="42.3046892" lon="13.7794179"><ele>410.0</ele><time>2026-05-03T10:15:08.977Z</time></trkpt><trkpt lat="42.3046312" lon="13.7795022"><ele>408.6666666666667</ele><time>2026-05-03T10:15:09.977Z</time></trkpt><trkpt lat="42.3045682" lon="13.7795792"><ele>407.33333333333337</ele><time>2026-05-03T10:15:10.978Z</time></trkpt><trkpt lat="42.3045017" lon="13.779642"><ele>406.0</ele><time>2026-05-03T10:15:11.978Z</time></trkpt><trkpt lat="42.3044294" lon="13.7796891"><ele>406.00000000000006</ele><time>2026-05-03T10:15:12.978Z</time></trkpt><trkpt lat="42.3043549" lon="13.7797209"><ele>406.0</ele><time>2026-05-03T10:15:13.978Z</time></trkpt><trkpt lat="42.3042804" lon="13.7797487"><ele>406.0</ele><time>2026-05-03T10:15:14.978Z</time></trkpt><trkpt lat="42.3042162" lon="13.779797"><ele>406.0</ele><time>2026-05-03T10:15:15.977Z</time></trkpt><trkpt lat="42.3041612" lon="13.7798654"><ele>406.00000000000006</ele><time>2026-05-03T10:15:16.977Z</time></trkpt><trkpt lat="42.3041064" lon="13.7799518"><ele>406.0</ele><time>2026-05-03T10:15:17.977Z</time></trkpt><trkpt lat="42.3040535" lon="13.7800392"><ele>406.00000000000006</ele><time>2026-05-03T10:15:18.977Z</time></trkpt><trkpt lat="42.3040046" lon="13.7801157"><ele>406.0</ele><time>2026-05-03T10:15:19.977Z</time></trkpt><trkpt lat="42.3039559" lon="13.780181"><ele>406.0</ele><time>2026-05-03T10:15:20.978Z</time></trkpt><trkpt lat="42.3038844" lon="13.7802402"><ele>406.0</ele><time>2026-05-03T10:15:22.978Z</time></trkpt><trkpt lat="42.3038108" lon="13.7802246"><ele>406.00000000000006</ele><time>2026-05-03T10:15:26.978Z</time></trkpt><trkpt lat="42.3037281" lon="13.7802341"><ele>406.0</ele><time>2026-05-03T10:15:29.978Z</time></trkpt><trkpt lat="42.3036453" lon="13.7802364"><ele>405.4</ele><time>2026-05-03T10:15:32.978Z</time></trkpt><trkpt lat="42.3036919" lon="13.7802952"><ele>404.8</ele><time>2026-05-03T10:15:38.977Z</time></trkpt><trkpt lat="42.3037586" lon="13.7802427"><ele>404.2</ele><time>2026-05-03T10:15:40.978Z</time></trkpt><trkpt lat="42.3038241" lon="13.7802404"><ele>403.59999999999997</ele><time>2026-05-03T10:15:44.978Z</time></trkpt><trkpt lat="42.303727" lon="13.7804681"><ele>403.0</ele><time>2026-05-03T10:15:53.978Z</time></trkpt><trkpt lat="42.3036783" lon="13.7805559"><ele>403.0</ele><time>2026-05-03T10:15:54.978Z</time></trkpt><trkpt lat="42.3036409" lon="13.780625"><ele>403.0</ele><time>2026-05-03T10:15:55.978Z</time></trkpt><trkpt lat="42.3035862" lon="13.7807667"><ele>403.0</ele><time>2026-05-03T10:15:57.978Z</time></trkpt><trkpt lat="42.3035422" lon="13.7809127"><ele>403.0</ele><time>2026-05-03T10:15:59.978Z</time></trkpt><trkpt lat="42.3034441" lon="13.781024"><ele>403.0</ele><time>2026-05-03T10:16:01.978Z</time></trkpt><trkpt lat="42.3033573" lon="13.7810735"><ele>403.6666666666667</ele><time>2026-05-03T10:16:02.978Z</time></trkpt><trkpt lat="42.3032815" lon="13.7811335"><ele>404.33333333333337</ele><time>2026-05-03T10:16:03.978Z</time></trkpt><trkpt lat="42.3032122" lon="13.7812017"><ele>405.0</ele><time>2026-05-03T10:16:04.977Z</time></trkpt><trkpt lat="42.3031424" lon="13.7812828"><ele>405.66666666666663</ele><time>2026-05-03T10:16:05.978Z</time></trkpt><trkpt lat="42.3030752" lon="13.7813705"><ele>406.3333333333333</ele><time>2026-05-03T10:16:06.978Z</time></trkpt><trkpt lat="42.3030173" lon="13.7814581"><ele>407.0</ele><time>2026-05-03T10:16:07.978Z</time></trkpt><trkpt lat="42.3029627" lon="13.7815394"><ele>405.66666666666663</ele><time>2026-05-03T10:16:08.977Z</time></trkpt><trkpt lat="42.3029045" lon="13.7816233"><ele>404.3333333333333</ele><time>2026-05-03T10:16:09.977Z</time></trkpt><trkpt lat="42.3028462" lon="13.7817138"><ele>403.0</ele><time>2026-05-03T10:16:10.978Z</time></trkpt><trkpt lat="42.3027868" lon="13.7818069"><ele>401.66666666666663</ele><time>2026-05-03T10:16:11.978Z</time></trkpt><trkpt lat="42.3027264" lon="13.7818996"><ele>400.3333333333333</ele><time>2026-05-03T10:16:12.978Z</time></trkpt><trkpt lat="42.3026674" lon="13.7819925"><ele>399.0</ele><time>2026-05-03T10:16:13.978Z</time></trkpt><trkpt lat="42.3026113" lon="13.7820825"><ele>399.0</ele><time>2026-05-03T10:16:14.978Z</time></trkpt><trkpt lat="42.3025558" lon="13.7821668"><ele>399.0</ele><time>2026-05-03T10:16:15.978Z</time></trkpt><trkpt lat="42.3024892" lon="13.782234"><ele>399.0</ele><time>2026-05-03T10:16:16.977Z</time></trkpt><trkpt lat="42.3024217" lon="13.7822974"><ele>399.0</ele><time>2026-05-03T10:16:17.977Z</time></trkpt><trkpt lat="42.302356" lon="13.7823577"><ele>399.0</ele><time>2026-05-03T10:16:18.978Z</time></trkpt><trkpt lat="42.30229" lon="13.7824099"><ele>399.0</ele><time>2026-05-03T10:16:19.978Z</time></trkpt><trkpt lat="42.302229" lon="13.7824445"><ele>397.7142857142857</ele><time>2026-05-03T10:16:20.977Z</time></trkpt><trkpt lat="42.3021575" lon="13.7824351"><ele>396.42857142857144</ele><time>2026-05-03T10:16:22.978Z</time></trkpt><trkpt lat="42.3021361" lon="13.7823226"><ele>395.1428571428571</ele><time>2026-05-03T10:16:24.978Z</time></trkpt><trkpt lat="42.3021349" lon="13.7822352"><ele>393.8571428571429</ele><time>2026-05-03T10:16:25.977Z</time></trkpt><trkpt lat="42.3021226" lon="13.7821403"><ele>392.57142857142856</ele><time>2026-05-03T10:16:26.977Z</time></trkpt><trkpt lat="42.3020979" lon="13.7820449"><ele>391.2857142857143</ele><time>2026-05-03T10:16:27.978Z</time></trkpt><trkpt lat="42.3020808" lon="13.7819448"><ele>390.0</ele><time>2026-05-03T10:16:28.978Z</time></trkpt><trkpt lat="42.3020654" lon="13.7818393"><ele>389.0</ele><time>2026-05-03T10:16:29.977Z</time></trkpt><trkpt lat="42.3020504" lon="13.781733"><ele>388.0</ele><time>2026-05-03T10:16:30.977Z</time></trkpt><trkpt lat="42.3020339" lon="13.7816261"><ele>387.0</ele><time>2026-05-03T10:16:31.978Z</time></trkpt><trkpt lat="42.3020172" lon="13.7815188"><ele>386.0</ele><time>2026-05-03T10:16:32.978Z</time></trkpt><trkpt lat="42.3019966" lon="13.7814088"><ele>385.0</ele><time>2026-05-03T10:16:33.977Z</time></trkpt><trkpt lat="42.30198" lon="13.7812987"><ele>384.0</ele><time>2026-05-03T10:16:34.978Z</time></trkpt><trkpt lat="42.3019666" lon="13.781188"><ele>384.0</ele><time>2026-05-03T10:16:35.977Z</time></trkpt><trkpt lat="42.3019583" lon="13.7810802"><ele>384.0</ele><time>2026-05-03T10:16:36.978Z</time></trkpt><trkpt lat="42.3019433" lon="13.780976"><ele>384.0</ele><time>2026-05-03T10:16:37.977Z</time></trkpt><trkpt lat="42.3019243" lon="13.7808754"><ele>384.0</ele><time>2026-05-03T10:16:38.978Z</time></trkpt><trkpt lat="42.3019113" lon="13.7807784"><ele>384.0</ele><time>2026-05-03T10:16:39.978Z</time></trkpt><trkpt lat="42.3019089" lon="13.7806813"><ele>384.0</ele><time>2026-05-03T10:16:40.977Z</time></trkpt><trkpt lat="42.3019088" lon="13.7805858"><ele>384.0</ele><time>2026-05-03T10:16:41.977Z</time></trkpt><trkpt lat="42.3019024" lon="13.7804911"><ele>384.0</ele><time>2026-05-03T10:16:42.977Z</time></trkpt><trkpt lat="42.3018915" lon="13.7804027"><ele>384.0</ele><time>2026-05-03T10:16:43.977Z</time></trkpt><trkpt lat="42.3019117" lon="13.780292"><ele>384.0</ele><time>2026-05-03T10:16:45.978Z</time></trkpt><trkpt lat="42.301973" lon="13.7801838"><ele>384.0</ele><time>2026-05-03T10:16:47.978Z</time></trkpt><trkpt lat="42.3019686" lon="13.7800533"><ele>384.0</ele><time>2026-05-03T10:16:49.977Z</time></trkpt><trkpt lat="42.3019353" lon="13.7799739"><ele>383.6666666666667</ele><time>2026-05-03T10:16:50.978Z</time></trkpt><trkpt lat="42.3018985" lon="13.7798793"><ele>383.3333333333333</ele><time>2026-05-03T10:16:51.978Z</time></trkpt><trkpt lat="42.3018626" lon="13.779776"><ele>383.0</ele><time>2026-05-03T10:16:52.977Z</time></trkpt><trkpt lat="42.3018252" lon="13.779669"><ele>382.66666666666663</ele><time>2026-05-03T10:16:53.978Z</time></trkpt><trkpt lat="42.3017859" lon="13.7795606"><ele>382.3333333333333</ele><time>2026-05-03T10:16:54.978Z</time></trkpt><trkpt lat="42.3017462" lon="13.7794488"><ele>382.0</ele><time>2026-05-03T10:16:55.977Z</time></trkpt><trkpt lat="42.3017077" lon="13.7793355"><ele>381.40000000000003</ele><time>2026-05-03T10:16:56.977Z</time></trkpt><trkpt lat="42.301673" lon="13.7792133"><ele>380.8</ele><time>2026-05-03T10:16:57.977Z</time></trkpt><trkpt lat="42.3016447" lon="13.7790965"><ele>380.2</ele><time>2026-05-03T10:16:58.977Z</time></trkpt><trkpt lat="42.3016196" lon="13.7789807"><ele>379.6</ele><time>2026-05-03T10:16:59.977Z</time></trkpt><trkpt lat="42.3015912" lon="13.7788693"><ele>379.0</ele><time>2026-05-03T10:17:00.977Z</time></trkpt><trkpt lat="42.3015621" lon="13.778759"><ele>379.0</ele><time>2026-05-03T10:17:01.977Z</time></trkpt><trkpt lat="42.3015383" lon="13.778648"><ele>379.0</ele><time>2026-05-03T10:17:02.978Z</time></trkpt><trkpt lat="42.3015143" lon="13.7785378"><ele>379.0</ele><time>2026-05-03T10:17:03.978Z</time></trkpt><trkpt lat="42.3014878" lon="13.7784294"><ele>379.0</ele><time>2026-05-03T10:17:04.978Z</time></trkpt><trkpt lat="42.3014617" lon="13.7783226"><ele>379.0</ele><time>2026-05-03T10:17:05.978Z</time></trkpt><trkpt lat="42.3014325" lon="13.7782185"><ele>379.0</ele><time>2026-05-03T10:17:06.977Z</time></trkpt><trkpt lat="42.3013982" lon="13.7781181"><ele>377.3333333333333</ele><time>2026-05-03T10:17:07.977Z</time></trkpt><trkpt lat="42.301363" lon="13.7780179"><ele>375.66666666666663</ele><time>2026-05-03T10:17:08.978Z</time></trkpt><trkpt lat="42.3013321" lon="13.777918"><ele>374.0</ele><time>2026-05-03T10:17:09.978Z</time></trkpt><trkpt lat="42.3013032" lon="13.7778197"><ele>372.3333333333333</ele><time>2026-05-03T10:17:10.977Z</time></trkpt><trkpt lat="42.3012813" lon="13.7777197"><ele>370.6666666666667</ele><time>2026-05-03T10:17:11.977Z</time></trkpt><trkpt lat="42.3012644" lon="13.7776075"><ele>369.0</ele><time>2026-05-03T10:17:12.978Z</time></trkpt><trkpt lat="42.3012511" lon="13.7774855"><ele>368.5</ele><time>2026-05-03T10:17:13.978Z</time></trkpt><trkpt lat="42.3012489" lon="13.7773695"><ele>368.0</ele><time>2026-05-03T10:17:14.978Z</time></trkpt><trkpt lat="42.3012534" lon="13.7772549"><ele>367.5</ele><time>2026-05-03T10:17:15.978Z</time></trkpt><trkpt lat="42.3012586" lon="13.7771486"><ele>367.0</ele><time>2026-05-03T10:17:16.978Z</time></trkpt><trkpt lat="42.3012676" lon="13.777052"><ele>366.5</ele><time>2026-05-03T10:17:17.978Z</time></trkpt><trkpt lat="42.3012735" lon="13.7769612"><ele>366.0</ele><time>2026-05-03T10:17:18.978Z</time></trkpt><trkpt lat="42.3012728" lon="13.7768736"><ele>366.1666666666667</ele><time>2026-05-03T10:17:19.977Z</time></trkpt><trkpt lat="42.301253" lon="13.7767881"><ele>366.3333333333333</ele><time>2026-05-03T10:17:20.977Z</time></trkpt><trkpt lat="42.3012136" lon="13.7766937"><ele>366.5</ele><time>2026-05-03T10:17:21.977Z</time></trkpt><trkpt lat="42.3011719" lon="13.7765969"><ele>366.66666666666663</ele><time>2026-05-03T10:17:22.978Z</time></trkpt><trkpt lat="42.3011291" lon="13.7765039"><ele>366.8333333333333</ele><time>2026-05-03T10:17:23.978Z</time></trkpt><trkpt lat="42.3010843" lon="13.7764149"><ele>367.0</ele><time>2026-05-03T10:17:24.978Z</time></trkpt><trkpt lat="42.301029" lon="13.776341"><ele>367.0</ele><time>2026-05-03T10:17:25.978Z</time></trkpt><trkpt lat="42.300967" lon="13.7762806"><ele>367.0</ele><time>2026-05-03T10:17:26.978Z</time></trkpt><trkpt lat="42.3009071" lon="13.7762236"><ele>367.0</ele><time>2026-05-03T10:17:27.978Z</time></trkpt><trkpt lat="42.3008542" lon="13.7761177"><ele>367.0</ele><time>2026-05-03T10:17:29.978Z</time></trkpt><trkpt lat="42.3008698" lon="13.7759796"><ele>367.0</ele><time>2026-05-03T10:17:31.977Z</time></trkpt><trkpt lat="42.3008851" lon="13.7758463"><ele>367.0</ele><time>2026-05-03T10:17:33.978Z</time></trkpt><trkpt lat="42.3008081" lon="13.7757607"><ele>367.5</ele><time>2026-05-03T10:17:35.977Z</time></trkpt><trkpt lat="42.3007518" lon="13.7757216"><ele>368.0</ele><time>2026-05-03T10:17:36.978Z</time></trkpt><trkpt lat="42.3007048" lon="13.7756642"><ele>368.5</ele><time>2026-05-03T10:17:37.978Z</time></trkpt><trkpt lat="42.3006594" lon="13.7756052"><ele>369.0</ele><time>2026-05-03T10:17:38.978Z</time></trkpt><trkpt lat="42.300541" lon="13.775568"><ele>369.5</ele><time>2026-05-03T10:17:40.978Z</time></trkpt><trkpt lat="42.3004586" lon="13.7754742"><ele>370.0</ele><time>2026-05-03T10:17:42.978Z</time></trkpt><trkpt lat="42.3004167" lon="13.7753959"><ele>368.3333333333333</ele><time>2026-05-03T10:17:43.978Z</time></trkpt><trkpt lat="42.3003759" lon="13.7753169"><ele>366.66666666666663</ele><time>2026-05-03T10:17:44.977Z</time></trkpt><trkpt lat="42.3003225" lon="13.77525"><ele>365.0</ele><time>2026-05-03T10:17:45.977Z</time></trkpt><trkpt lat="42.3002644" lon="13.7751818"><ele>363.3333333333333</ele><time>2026-05-03T10:17:46.978Z</time></trkpt><trkpt lat="42.3002016" lon="13.7751173"><ele>361.6666666666667</ele><time>2026-05-03T10:17:47.977Z</time></trkpt><trkpt lat="42.3001399" lon="13.7750568"><ele>360.0</ele><time>2026-05-03T10:17:48.978Z</time></trkpt><trkpt lat="42.3000513" lon="13.7750206"><ele>360.0</ele><time>2026-05-03T10:17:50.978Z</time></trkpt><trkpt lat="42.2999777" lon="13.7750776"><ele>360.0</ele><time>2026-05-03T10:17:52.978Z</time></trkpt><trkpt lat="42.2999162" lon="13.7751412"><ele>360.0</ele><time>2026-05-03T10:17:54.978Z</time></trkpt><trkpt lat="42.2998529" lon="13.7751969"><ele>360.0</ele><time>2026-05-03T10:18:00.978Z</time></trkpt><trkpt lat="42.2997786" lon="13.7752871"><ele>360.0</ele><time>2026-05-03T10:18:02.977Z</time></trkpt><trkpt lat="42.2997243" lon="13.7753493"><ele>360.0</ele><time>2026-05-03T10:18:03.978Z</time></trkpt><trkpt lat="42.2996717" lon="13.7754087"><ele>359.6666666666667</ele><time>2026-05-03T10:18:04.978Z</time></trkpt><trkpt lat="42.2996198" lon="13.7754586"><ele>359.3333333333333</ele><time>2026-05-03T10:18:05.977Z</time></trkpt><trkpt lat="42.299525" lon="13.7755226"><ele>359.0</ele><time>2026-05-03T10:18:07.978Z</time></trkpt><trkpt lat="42.2994478" lon="13.7755195"><ele>358.66666666666663</ele><time>2026-05-03T10:18:10.977Z</time></trkpt><trkpt lat="42.2993687" lon="13.7754912"><ele>358.3333333333333</ele><time>2026-05-03T10:18:12.978Z</time></trkpt><trkpt lat="42.2992707" lon="13.7754028"><ele>358.0</ele><time>2026-05-03T10:18:14.977Z</time></trkpt><trkpt lat="42.2992138" lon="13.7753535"><ele>358.0</ele><time>2026-05-03T10:18:15.978Z</time></trkpt><trkpt lat="42.2991597" lon="13.775309"><ele>358.0</ele><time>2026-05-03T10:18:16.977Z</time></trkpt><trkpt lat="42.2990779" lon="13.7752788"><ele>358.0</ele><time>2026-05-03T10:18:18.978Z</time></trkpt><trkpt lat="42.2990176" lon="13.7753304"><ele>358.0</ele><time>2026-05-03T10:18:20.978Z</time></trkpt><trkpt lat="42.2989525" lon="13.7754619"><ele>358.0</ele><time>2026-05-03T10:18:22.977Z</time></trkpt><trkpt lat="42.2989145" lon="13.7755637"><ele>358.0</ele><time>2026-05-03T10:18:23.978Z</time></trkpt><trkpt lat="42.2988713" lon="13.7756866"><ele>357.5</ele><time>2026-05-03T10:18:24.977Z</time></trkpt><trkpt lat="42.298834" lon="13.7758207"><ele>357.0</ele><time>2026-05-03T10:18:25.977Z</time></trkpt><trkpt lat="42.2988005" lon="13.7759625"><ele>356.5</ele><time>2026-05-03T10:18:26.977Z</time></trkpt><trkpt lat="42.2987698" lon="13.7761177"><ele>356.0</ele><time>2026-05-03T10:18:27.977Z</time></trkpt><trkpt lat="42.2987425" lon="13.7762799"><ele>356.0</ele><time>2026-05-03T10:18:28.978Z</time></trkpt><trkpt lat="42.2987139" lon="13.7764474"><ele>356.0</ele><time>2026-05-03T10:18:29.977Z</time></trkpt><trkpt lat="42.298681" lon="13.7766029"><ele>356.0</ele><time>2026-05-03T10:18:30.978Z</time></trkpt><trkpt lat="42.2986456" lon="13.7767527"><ele>356.0</ele><time>2026-05-03T10:18:31.977Z</time></trkpt><trkpt lat="42.2985984" lon="13.7769078"><ele>356.20000000000005</ele><time>2026-05-03T10:18:32.977Z</time></trkpt><trkpt lat="42.2985479" lon="13.7770588"><ele>356.40000000000003</ele><time>2026-05-03T10:18:33.978Z</time></trkpt><trkpt lat="42.2985068" lon="13.7772007"><ele>356.6</ele><time>2026-05-03T10:18:34.977Z</time></trkpt><trkpt lat="42.2984725" lon="13.7773386"><ele>356.8</ele><time>2026-05-03T10:18:35.978Z</time></trkpt><trkpt lat="42.29844" lon="13.7774659"><ele>357.0</ele><time>2026-05-03T10:18:36.977Z</time></trkpt><trkpt lat="42.2984111" lon="13.7775674"><ele>357.0</ele><time>2026-05-03T10:18:37.978Z</time></trkpt><trkpt lat="42.2983647" lon="13.7776944"><ele>357.0</ele><time>2026-05-03T10:18:39.978Z</time></trkpt><trkpt lat="42.298308" lon="13.7777744"><ele>357.0</ele><time>2026-05-03T10:18:43.978Z</time></trkpt><trkpt lat="42.2981969" lon="13.7778367"><ele>357.0</ele><time>2026-05-03T10:18:45.977Z</time></trkpt><trkpt lat="42.2981294" lon="13.7778997"><ele>357.0</ele><time>2026-05-03T10:18:46.978Z</time></trkpt><trkpt lat="42.2980545" lon="13.7779809"><ele>356.25</ele><time>2026-05-03T10:18:47.977Z</time></trkpt><trkpt lat="42.2979805" lon="13.7780792"><ele>355.5</ele><time>2026-05-03T10:18:48.978Z</time></trkpt><trkpt lat="42.2979013" lon="13.7781801"><ele>354.75</ele><time>2026-05-03T10:18:49.978Z</time></trkpt><trkpt lat="42.2978129" lon="13.7782869"><ele>354.0</ele><time>2026-05-03T10:18:50.978Z</time></trkpt><trkpt lat="42.2977243" lon="13.7784007"><ele>353.5</ele><time>2026-05-03T10:18:51.978Z</time></trkpt><trkpt lat="42.2976334" lon="13.7785193"><ele>353.0</ele><time>2026-05-03T10:18:52.978Z</time></trkpt><trkpt lat="42.2975414" lon="13.7786333"><ele>352.5</ele><time>2026-05-03T10:18:53.978Z</time></trkpt><trkpt lat="42.2974472" lon="13.7787404"><ele>352.0</ele><time>2026-05-03T10:18:54.977Z</time></trkpt><trkpt lat="42.297353" lon="13.7788358"><ele>352.0</ele><time>2026-05-03T10:18:55.978Z</time></trkpt><trkpt lat="42.2972575" lon="13.7789247"><ele>352.0</ele><time>2026-05-03T10:18:56.978Z</time></trkpt><trkpt lat="42.2971614" lon="13.7790176"><ele>352.0</ele><time>2026-05-03T10:18:57.977Z</time></trkpt><trkpt lat="42.2970658" lon="13.7791074"><ele>352.0</ele><time>2026-05-03T10:18:58.977Z</time></trkpt><trkpt lat="42.2969735" lon="13.7791984"><ele>351.8</ele><time>2026-05-03T10:18:59.977Z</time></trkpt><trkpt lat="42.2968865" lon="13.779293"><ele>351.6</ele><time>2026-05-03T10:19:00.978Z</time></trkpt><trkpt lat="42.296809" lon="13.7793971"><ele>351.40000000000003</ele><time>2026-05-03T10:19:01.977Z</time></trkpt><trkpt lat="42.2967378" lon="13.7795085"><ele>351.20000000000005</ele><time>2026-05-03T10:19:02.978Z</time></trkpt><trkpt lat="42.2966691" lon="13.779623"><ele>351.0</ele><time>2026-05-03T10:19:03.977Z</time></trkpt><trkpt lat="42.2966012" lon="13.7797375"><ele>351.0</ele><time>2026-05-03T10:19:04.977Z</time></trkpt><trkpt lat="42.2965349" lon="13.7798503"><ele>351.0</ele><time>2026-05-03T10:19:05.978Z</time></trkpt><trkpt lat="42.2964686" lon="13.7799688"><ele>351.0</ele><time>2026-05-03T10:19:06.977Z</time></trkpt><trkpt lat="42.2963976" lon="13.7800838"><ele>351.0</ele><time>2026-05-03T10:19:07.978Z</time></trkpt><trkpt lat="42.2963278" lon="13.7801989"><ele>351.0</ele><time>2026-05-03T10:19:08.978Z</time></trkpt><trkpt lat="42.2962625" lon="13.7803146"><ele>351.4</ele><time>2026-05-03T10:19:09.977Z</time></trkpt><trkpt lat="42.2962009" lon="13.7804367"><ele>351.8</ele><time>2026-05-03T10:19:10.978Z</time></trkpt><trkpt lat="42.2961434" lon="13.780554"><ele>352.2</ele><time>2026-05-03T10:19:11.978Z</time></trkpt><trkpt lat="42.2960872" lon="13.7806745"><ele>352.59999999999997</ele><time>2026-05-03T10:19:12.977Z</time></trkpt><trkpt lat="42.296023" lon="13.7807966"><ele>353.0</ele><time>2026-05-03T10:19:13.977Z</time></trkpt><trkpt lat="42.2959519" lon="13.7809106"><ele>352.79999999999995</ele><time>2026-05-03T10:19:14.978Z</time></trkpt><trkpt lat="42.2958771" lon="13.7810253"><ele>352.6</ele><time>2026-05-03T10:19:15.977Z</time></trkpt><trkpt lat="42.2958053" lon="13.7811404"><ele>352.4</ele><time>2026-05-03T10:19:16.977Z</time></trkpt><trkpt lat="42.2957397" lon="13.7812533"><ele>352.20000000000005</ele><time>2026-05-03T10:19:17.977Z</time></trkpt><trkpt lat="42.2956699" lon="13.7813663"><ele>352.0</ele><time>2026-05-03T10:19:18.978Z</time></trkpt><trkpt lat="42.2955992" lon="13.7814708"><ele>350.75</ele><time>2026-05-03T10:19:19.977Z</time></trkpt><trkpt lat="42.2955207" lon="13.7815712"><ele>349.5</ele><time>2026-05-03T10:19:20.978Z</time></trkpt><trkpt lat="42.2954312" lon="13.7816672"><ele>348.25</ele><time>2026-05-03T10:19:21.977Z</time></trkpt><trkpt lat="42.2953354" lon="13.7817572"><ele>347.0</ele><time>2026-05-03T10:19:22.977Z</time></trkpt><trkpt lat="42.2952353" lon="13.7818464"><ele>348.25</ele><time>2026-05-03T10:19:23.978Z</time></trkpt><trkpt lat="42.2951352" lon="13.7819387"><ele>349.5</ele><time>2026-05-03T10:19:24.978Z</time></trkpt><trkpt lat="42.2950368" lon="13.7820388"><ele>350.75</ele><time>2026-05-03T10:19:25.977Z</time></trkpt><trkpt lat="42.2949408" lon="13.7821431"><ele>352.0</ele><time>2026-05-03T10:19:26.977Z</time></trkpt><trkpt lat="42.2948459" lon="13.7822495"><ele>351.5</ele><time>2026-05-03T10:19:27.978Z</time></trkpt><trkpt lat="42.2947519" lon="13.7823557"><ele>351.0</ele><time>2026-05-03T10:19:28.978Z</time></trkpt><trkpt lat="42.2946617" lon="13.7824642"><ele>350.5</ele><time>2026-05-03T10:19:29.977Z</time></trkpt><trkpt lat="42.2945754" lon="13.7825768"><ele>350.0</ele><time>2026-05-03T10:19:30.977Z</time></trkpt><trkpt lat="42.2944922" lon="13.7826906"><ele>350.0</ele><time>2026-05-03T10:19:31.977Z</time></trkpt><trkpt lat="42.2944077" lon="13.782804"><ele>350.0</ele><time>2026-05-03T10:19:32.977Z</time></trkpt><trkpt lat="42.2943247" lon="13.7829158"><ele>350.0</ele><time>2026-05-03T10:19:33.978Z</time></trkpt><trkpt lat="42.2942432" lon="13.7830216"><ele>350.0</ele><time>2026-05-03T10:19:34.978Z</time></trkpt><trkpt lat="42.2941643" lon="13.7831242"><ele>350.0</ele><time>2026-05-03T10:19:35.978Z</time></trkpt><trkpt lat="42.294087" lon="13.7832315"><ele>350.0</ele><time>2026-05-03T10:19:36.978Z</time></trkpt><trkpt lat="42.2940103" lon="13.783346"><ele>350.0</ele><time>2026-05-03T10:19:37.978Z</time></trkpt><trkpt lat="42.2939344" lon="13.7834588"><ele>350.0</ele><time>2026-05-03T10:19:38.978Z</time></trkpt><trkpt lat="42.2938612" lon="13.7835702"><ele>350.0</ele><time>2026-05-03T10:19:39.978Z</time></trkpt><trkpt lat="42.2937905" lon="13.783681"><ele>350.25</ele><time>2026-05-03T10:19:40.977Z</time></trkpt><trkpt lat="42.2937115" lon="13.7837879"><ele>350.5</ele><time>2026-05-03T10:19:41.977Z</time></trkpt><trkpt lat="42.2936267" lon="13.7838916"><ele>350.75</ele><time>2026-05-03T10:19:42.978Z</time></trkpt><trkpt lat="42.2935348" lon="13.7839933"><ele>351.0</ele><time>2026-05-03T10:19:43.978Z</time></trkpt><trkpt lat="42.2934411" lon="13.7840968"><ele>351.0</ele><time>2026-05-03T10:19:44.977Z</time></trkpt><trkpt lat="42.2933478" lon="13.7841967"><ele>351.0</ele><time>2026-05-03T10:19:45.977Z</time></trkpt><trkpt lat="42.2932552" lon="13.7842922"><ele>351.0</ele><time>2026-05-03T10:19:46.978Z</time></trkpt><trkpt lat="42.2931648" lon="13.7843809"><ele>351.0</ele><time>2026-05-03T10:19:47.978Z</time></trkpt><trkpt lat="42.2930752" lon="13.784467"><ele>351.20000000000005</ele><time>2026-05-03T10:19:48.977Z</time></trkpt><trkpt lat="42.2929867" lon="13.7845433"><ele>351.40000000000003</ele><time>2026-05-03T10:19:49.978Z</time></trkpt><trkpt lat="42.2928905" lon="13.7846123"><ele>351.6</ele><time>2026-05-03T10:19:50.978Z</time></trkpt><trkpt lat="42.2927923" lon="13.7846768"><ele>351.8</ele><time>2026-05-03T10:19:51.977Z</time></trkpt><trkpt lat="42.2926915" lon="13.7847409"><ele>352.0</ele><time>2026-05-03T10:19:52.978Z</time></trkpt><trkpt lat="42.2925915" lon="13.784804"><ele>352.0</ele><time>2026-05-03T10:19:53.978Z</time></trkpt><trkpt lat="42.2924862" lon="13.7848603"><ele>352.0</ele><time>2026-05-03T10:19:54.977Z</time></trkpt><trkpt lat="42.2923797" lon="13.7849107"><ele>352.0</ele><time>2026-05-03T10:19:55.978Z</time></trkpt><trkpt lat="42.2922672" lon="13.7849558"><ele>352.0</ele><time>2026-05-03T10:19:56.978Z</time></trkpt><trkpt lat="42.2921526" lon="13.7849982"><ele>352.25</ele><time>2026-05-03T10:19:57.978Z</time></trkpt><trkpt lat="42.292037" lon="13.7850432"><ele>352.5</ele><time>2026-05-03T10:19:58.978Z</time></trkpt><trkpt lat="42.291923" lon="13.7850914"><ele>352.75</ele><time>2026-05-03T10:19:59.978Z</time></trkpt><trkpt lat="42.291807" lon="13.785148"><ele>353.0</ele><time>2026-05-03T10:20:00.977Z</time></trkpt><trkpt lat="42.2916969" lon="13.7852285"><ele>353.0</ele><time>2026-05-03T10:20:01.978Z</time></trkpt><trkpt lat="42.2915874" lon="13.7853064"><ele>353.0</ele><time>2026-05-03T10:20:02.978Z</time></trkpt><trkpt lat="42.291478" lon="13.7853815"><ele>353.0</ele><time>2026-05-03T10:20:03.978Z</time></trkpt><trkpt lat="42.291367" lon="13.7854526"><ele>353.0</ele><time>2026-05-03T10:20:04.978Z</time></trkpt><trkpt lat="42.2912544" lon="13.7855219"><ele>352.5</ele><time>2026-05-03T10:20:05.977Z</time></trkpt><trkpt lat="42.2911444" lon="13.7855946"><ele>352.0</ele><time>2026-05-03T10:20:06.978Z</time></trkpt><trkpt lat="42.2910356" lon="13.7856689"><ele>351.5</ele><time>2026-05-03T10:20:07.978Z</time></trkpt><trkpt lat="42.2909271" lon="13.7857504"><ele>351.0</ele><time>2026-05-03T10:20:08.977Z</time></trkpt><trkpt lat="42.2908197" lon="13.7858394"><ele>351.0</ele><time>2026-05-03T10:20:09.978Z</time></trkpt><trkpt lat="42.290713" lon="13.7859309"><ele>351.0</ele><time>2026-05-03T10:20:10.978Z</time></trkpt><trkpt lat="42.2906097" lon="13.7860135"><ele>351.0</ele><time>2026-05-03T10:20:11.977Z</time></trkpt><trkpt lat="42.2905123" lon="13.7860906"><ele>351.0</ele><time>2026-05-03T10:20:12.977Z</time></trkpt><trkpt lat="42.2904229" lon="13.7861701"><ele>351.1666666666667</ele><time>2026-05-03T10:20:13.978Z</time></trkpt><trkpt lat="42.2903443" lon="13.7862459"><ele>351.3333333333333</ele><time>2026-05-03T10:20:14.977Z</time></trkpt><trkpt lat="42.2902687" lon="13.7863127"><ele>351.5</ele><time>2026-05-03T10:20:15.977Z</time></trkpt><trkpt lat="42.2901981" lon="13.7863694"><ele>351.66666666666663</ele><time>2026-05-03T10:20:16.978Z</time></trkpt><trkpt lat="42.2901247" lon="13.7864314"><ele>351.8333333333333</ele><time>2026-05-03T10:20:17.978Z</time></trkpt><trkpt lat="42.290049" lon="13.7864867"><ele>352.0</ele><time>2026-05-03T10:20:18.977Z</time></trkpt><trkpt lat="42.2899661" lon="13.7865454"><ele>352.0</ele><time>2026-05-03T10:20:19.978Z</time></trkpt><trkpt lat="42.289881" lon="13.7866141"><ele>352.0</ele><time>2026-05-03T10:20:20.978Z</time></trkpt><trkpt lat="42.289784" lon="13.7866863"><ele>352.0</ele><time>2026-05-03T10:20:21.977Z</time></trkpt><trkpt lat="42.2896758" lon="13.7867655"><ele>352.0</ele><time>2026-05-03T10:20:22.978Z</time></trkpt><trkpt lat="42.2895773" lon="13.7868416"><ele>352.0</ele><time>2026-05-03T10:20:23.977Z</time></trkpt><trkpt lat="42.2894822" lon="13.7869188"><ele>352.75</ele><time>2026-05-03T10:20:24.977Z</time></trkpt><trkpt lat="42.2893835" lon="13.7869919"><ele>353.5</ele><time>2026-05-03T10:20:25.978Z</time></trkpt><trkpt lat="42.2892848" lon="13.7870628"><ele>354.25</ele><time>2026-05-03T10:20:26.977Z</time></trkpt><trkpt lat="42.2891868" lon="13.7871383"><ele>355.0</ele><time>2026-05-03T10:20:27.977Z</time></trkpt><trkpt lat="42.2890859" lon="13.7872228"><ele>355.0</ele><time>2026-05-03T10:20:28.977Z</time></trkpt><trkpt lat="42.288982" lon="13.7873179"><ele>355.0</ele><time>2026-05-03T10:20:29.978Z</time></trkpt><trkpt lat="42.2888742" lon="13.7874212"><ele>355.0</ele><time>2026-05-03T10:20:30.978Z</time></trkpt><trkpt lat="42.2887601" lon="13.7875231"><ele>355.0</ele><time>2026-05-03T10:20:31.978Z</time></trkpt><trkpt lat="42.2886391" lon="13.7876256"><ele>356.25</ele><time>2026-05-03T10:20:32.978Z</time></trkpt><trkpt lat="42.2885178" lon="13.787726"><ele>357.5</ele><time>2026-05-03T10:20:33.978Z</time></trkpt><trkpt lat="42.2883976" lon="13.7878231"><ele>358.75</ele><time>2026-05-03T10:20:34.978Z</time></trkpt><trkpt lat="42.2882866" lon="13.7879083"><ele>360.0</ele><time>2026-05-03T10:20:35.978Z</time></trkpt><trkpt lat="42.2881779" lon="13.787981"><ele>360.4</ele><time>2026-05-03T10:20:36.978Z</time></trkpt><trkpt lat="42.2880712" lon="13.7880274"><ele>360.8</ele><time>2026-05-03T10:20:37.977Z</time></trkpt><trkpt lat="42.2879659" lon="13.7880553"><ele>361.20000000000005</ele><time>2026-05-03T10:20:38.977Z</time></trkpt><trkpt lat="42.2878562" lon="13.788089"><ele>361.6</ele><time>2026-05-03T10:20:39.978Z</time></trkpt><trkpt lat="42.2877497" lon="13.7881362"><ele>362.0</ele><time>2026-05-03T10:20:40.978Z</time></trkpt><trkpt lat="42.2876392" lon="13.7881862"><ele>362.0</ele><time>2026-05-03T10:20:41.977Z</time></trkpt><trkpt lat="42.2875319" lon="13.78824"><ele>362.0</ele><time>2026-05-03T10:20:42.977Z</time></trkpt><trkpt lat="42.2874227" lon="13.7882863"><ele>362.0</ele><time>2026-05-03T10:20:43.978Z</time></trkpt><trkpt lat="42.2873187" lon="13.7883381"><ele>362.0</ele><time>2026-05-03T10:20:44.978Z</time></trkpt><trkpt lat="42.2872256" lon="13.7883939"><ele>362.0</ele><time>2026-05-03T10:20:45.978Z</time></trkpt><trkpt lat="42.287138" lon="13.7884503"><ele>362.0</ele><time>2026-05-03T10:20:46.978Z</time></trkpt><trkpt lat="42.2870482" lon="13.7885087"><ele>362.0</ele><time>2026-05-03T10:20:47.978Z</time></trkpt><trkpt lat="42.2869652" lon="13.7885648"><ele>362.0</ele><time>2026-05-03T10:20:48.977Z</time></trkpt><trkpt lat="42.2868893" lon="13.7886152"><ele>362.0</ele><time>2026-05-03T10:20:49.978Z</time></trkpt><trkpt lat="42.2868198" lon="13.7886616"><ele>362.0</ele><time>2026-05-03T10:20:50.978Z</time></trkpt><trkpt lat="42.2867573" lon="13.7887033"><ele>362.0</ele><time>2026-05-03T10:20:51.978Z</time></trkpt><trkpt lat="42.2866591" lon="13.788772"><ele>362.0</ele><time>2026-05-03T10:20:53.977Z</time></trkpt><trkpt lat="42.286595" lon="13.788757"><ele>362.0</ele><time>2026-05-03T10:20:56.978Z</time></trkpt><trkpt lat="42.2865957" lon="13.7886526"><ele>362.0</ele><time>2026-05-03T10:20:58.978Z</time></trkpt><trkpt lat="42.2866015" lon="13.7885467"><ele>362.0</ele><time>2026-05-03T10:20:59.978Z</time></trkpt><trkpt lat="42.2865978" lon="13.7884239"><ele>362.0</ele><time>2026-05-03T10:21:00.978Z</time></trkpt><trkpt lat="42.2865881" lon="13.7883011"><ele>362.0</ele><time>2026-05-03T10:21:01.977Z</time></trkpt><trkpt lat="42.2865762" lon="13.7881757"><ele>361.20000000000005</ele><time>2026-05-03T10:21:02.977Z</time></trkpt><trkpt lat="42.2865634" lon="13.7880498"><ele>360.4</ele><time>2026-05-03T10:21:03.977Z</time></trkpt><trkpt lat="42.2865488" lon="13.7879222"><ele>359.6</ele><time>2026-05-03T10:21:04.978Z</time></trkpt><trkpt lat="42.2865348" lon="13.7877907"><ele>358.79999999999995</ele><time>2026-05-03T10:21:05.977Z</time></trkpt><trkpt lat="42.2865204" lon="13.7876564"><ele>358.0</ele><time>2026-05-03T10:21:06.978Z</time></trkpt><trkpt lat="42.2865059" lon="13.787519"><ele>356.75</ele><time>2026-05-03T10:21:07.977Z</time></trkpt><trkpt lat="42.2864893" lon="13.7873778"><ele>355.5</ele><time>2026-05-03T10:21:08.978Z</time></trkpt><trkpt lat="42.2864642" lon="13.7872188"><ele>354.25</ele><time>2026-05-03T10:21:09.978Z</time></trkpt><trkpt lat="42.286435" lon="13.7870236"><ele>353.0</ele><time>2026-05-03T10:21:10.977Z</time></trkpt><trkpt lat="42.2864056" lon="13.7868144"><ele>350.0</ele><time>2026-05-03T10:21:11.978Z</time></trkpt><trkpt lat="42.286368" lon="13.7865962"><ele>347.0</ele><time>2026-05-03T10:21:12.978Z</time></trkpt><trkpt lat="42.2863287" lon="13.7863624"><ele>344.0</ele><time>2026-05-03T10:21:13.978Z</time></trkpt><trkpt lat="42.2862963" lon="13.7861186"><ele>343.6666666666667</ele><time>2026-05-03T10:21:14.978Z</time></trkpt><trkpt lat="42.286268" lon="13.7858704"><ele>343.3333333333333</ele><time>2026-05-03T10:21:15.977Z</time></trkpt><trkpt lat="42.2862416" lon="13.7856195"><ele>343.0</ele><time>2026-05-03T10:21:16.978Z</time></trkpt><trkpt lat="42.2862131" lon="13.7853597"><ele>343.0</ele><time>2026-05-03T10:21:17.978Z</time></trkpt><trkpt lat="42.2861802" lon="13.7850912"><ele>343.0</ele><time>2026-05-03T10:21:18.978Z</time></trkpt><trkpt lat="42.2861451" lon="13.7848211"><ele>343.0</ele><time>2026-05-03T10:21:19.978Z</time></trkpt><trkpt lat="42.2861097" lon="13.7845474"><ele>343.66666666666663</ele><time>2026-05-03T10:21:20.978Z</time></trkpt><trkpt lat="42.2860773" lon="13.7842743"><ele>344.3333333333333</ele><time>2026-05-03T10:21:21.978Z</time></trkpt><trkpt lat="42.2860478" lon="13.784002"><ele>345.0</ele><time>2026-05-03T10:21:22.978Z</time></trkpt><trkpt lat="42.2860179" lon="13.7837297"><ele>345.3333333333333</ele><time>2026-05-03T10:21:23.977Z</time></trkpt><trkpt lat="42.2859885" lon="13.783465"><ele>345.66666666666663</ele><time>2026-05-03T10:21:24.978Z</time></trkpt><trkpt lat="42.2859596" lon="13.7832153"><ele>346.0</ele><time>2026-05-03T10:21:25.978Z</time></trkpt><trkpt lat="42.2859319" lon="13.7829772"><ele>346.0</ele><time>2026-05-03T10:21:26.978Z</time></trkpt><trkpt lat="42.2859003" lon="13.7827442"><ele>346.0</ele><time>2026-05-03T10:21:27.977Z</time></trkpt><trkpt lat="42.2858609" lon="13.7825138"><ele>346.0</ele><time>2026-05-03T10:21:28.977Z</time></trkpt><trkpt lat="42.2858009" lon="13.7822887"><ele>345.3333333333333</ele><time>2026-05-03T10:21:29.978Z</time></trkpt><trkpt lat="42.2857242" lon="13.7820643"><ele>344.6666666666667</ele><time>2026-05-03T10:21:30.978Z</time></trkpt><trkpt lat="42.2856386" lon="13.7818351"><ele>344.0</ele><time>2026-05-03T10:21:31.977Z</time></trkpt><trkpt lat="42.2855489" lon="13.7816033"><ele>344.0</ele><time>2026-05-03T10:21:32.977Z</time></trkpt><trkpt lat="42.2854558" lon="13.7813665"><ele>344.0</ele><time>2026-05-03T10:21:33.977Z</time></trkpt><trkpt lat="42.2853571" lon="13.7811265"><ele>344.0</ele><time>2026-05-03T10:21:34.977Z</time></trkpt><trkpt lat="42.2852573" lon="13.7808831"><ele>343.6666666666667</ele><time>2026-05-03T10:21:35.978Z</time></trkpt><trkpt lat="42.2851559" lon="13.7806364"><ele>343.3333333333333</ele><time>2026-05-03T10:21:36.978Z</time></trkpt><trkpt lat="42.2850544" lon="13.7803843"><ele>343.0</ele><time>2026-05-03T10:21:37.978Z</time></trkpt><trkpt lat="42.2849516" lon="13.7801293"><ele>343.0</ele><time>2026-05-03T10:21:38.978Z</time></trkpt><trkpt lat="42.2848455" lon="13.7798749"><ele>343.0</ele><time>2026-05-03T10:21:39.978Z</time></trkpt><trkpt lat="42.2847414" lon="13.7796201"><ele>343.0</ele><time>2026-05-03T10:21:40.978Z</time></trkpt><trkpt lat="42.2846371" lon="13.7793681"><ele>343.0</ele><time>2026-05-03T10:21:41.978Z</time></trkpt><trkpt lat="42.2845339" lon="13.7791153"><ele>343.0</ele><time>2026-05-03T10:21:42.978Z</time></trkpt><trkpt lat="42.284432" lon="13.7788637"><ele>343.0</ele><time>2026-05-03T10:21:43.978Z</time></trkpt><trkpt lat="42.2843298" lon="13.7786138"><ele>343.3333333333333</ele><time>2026-05-03T10:21:44.978Z</time></trkpt><trkpt lat="42.2842279" lon="13.7783653"><ele>343.6666666666667</ele><time>2026-05-03T10:21:45.977Z</time></trkpt><trkpt lat="42.2841255" lon="13.7781178"><ele>344.0</ele><time>2026-05-03T10:21:46.977Z</time></trkpt><trkpt lat="42.2840248" lon="13.7778719"><ele>344.33333333333337</ele><time>2026-05-03T10:21:47.978Z</time></trkpt><trkpt lat="42.2839241" lon="13.7776255"><ele>344.6666666666667</ele><time>2026-05-03T10:21:48.978Z</time></trkpt><trkpt lat="42.2838243" lon="13.7773794"><ele>345.0</ele><time>2026-05-03T10:21:49.978Z</time></trkpt><trkpt lat="42.2837246" lon="13.777133"><ele>345.0</ele><time>2026-05-03T10:21:50.978Z</time></trkpt><trkpt lat="42.2836241" lon="13.7768879"><ele>345.0</ele><time>2026-05-03T10:21:51.977Z</time></trkpt><trkpt lat="42.2835239" lon="13.7766436"><ele>345.0</ele><time>2026-05-03T10:21:52.978Z</time></trkpt><trkpt lat="42.2834241" lon="13.7764017"><ele>345.0</ele><time>2026-05-03T10:21:53.978Z</time></trkpt><trkpt lat="42.2833308" lon="13.7761734"><ele>345.0</ele><time>2026-05-03T10:21:54.978Z</time></trkpt><trkpt lat="42.283243" lon="13.7759563"><ele>345.0</ele><time>2026-05-03T10:21:55.978Z</time></trkpt><trkpt lat="42.2831608" lon="13.7757491"><ele>345.0</ele><time>2026-05-03T10:21:56.977Z</time></trkpt><trkpt lat="42.2830819" lon="13.775551"><ele>345.0</ele><time>2026-05-03T10:21:57.978Z</time></trkpt><trkpt lat="42.2830037" lon="13.7753646"><ele>345.0</ele><time>2026-05-03T10:21:58.977Z</time></trkpt><trkpt lat="42.2829218" lon="13.7751913"><ele>345.75</ele><time>2026-05-03T10:21:59.978Z</time></trkpt><trkpt lat="42.2828317" lon="13.7750382"><ele>346.5</ele><time>2026-05-03T10:22:00.978Z</time></trkpt><trkpt lat="42.2827327" lon="13.7749073"><ele>347.25</ele><time>2026-05-03T10:22:01.977Z</time></trkpt><trkpt lat="42.2826258" lon="13.774802"><ele>348.0</ele><time>2026-05-03T10:22:02.978Z</time></trkpt><trkpt lat="42.2825136" lon="13.7747238"><ele>348.0</ele><time>2026-05-03T10:22:03.978Z</time></trkpt><trkpt lat="42.2823882" lon="13.7746671"><ele>348.0</ele><time>2026-05-03T10:22:04.978Z</time></trkpt><trkpt lat="42.2822517" lon="13.7746297"><ele>348.0</ele><time>2026-05-03T10:22:05.977Z</time></trkpt><trkpt lat="42.2821126" lon="13.7746008"><ele>348.0</ele><time>2026-05-03T10:22:06.977Z</time></trkpt><trkpt lat="42.2819807" lon="13.7745694"><ele>348.25</ele><time>2026-05-03T10:22:07.978Z</time></trkpt><trkpt lat="42.2818581" lon="13.7745232"><ele>348.5</ele><time>2026-05-03T10:22:08.978Z</time></trkpt><trkpt lat="42.2817454" lon="13.7744619"><ele>348.75</ele><time>2026-05-03T10:22:09.978Z</time></trkpt><trkpt lat="42.2816449" lon="13.7743862"><ele>349.0</ele><time>2026-05-03T10:22:10.978Z</time></trkpt><trkpt lat="42.2815526" lon="13.7742916"><ele>349.5</ele><time>2026-05-03T10:22:11.977Z</time></trkpt><trkpt lat="42.2814627" lon="13.7741787"><ele>350.0</ele><time>2026-05-03T10:22:12.978Z</time></trkpt><trkpt lat="42.2813703" lon="13.7740583"><ele>350.5</ele><time>2026-05-03T10:22:13.978Z</time></trkpt><trkpt lat="42.281274" lon="13.7739337"><ele>351.0</ele><time>2026-05-03T10:22:14.978Z</time></trkpt><trkpt lat="42.281175" lon="13.7738056"><ele>351.0</ele><time>2026-05-03T10:22:15.978Z</time></trkpt><trkpt lat="42.2810736" lon="13.7736788"><ele>351.0</ele><time>2026-05-03T10:22:16.977Z</time></trkpt><trkpt lat="42.2809817" lon="13.7735542"><ele>351.0</ele><time>2026-05-03T10:22:17.978Z</time></trkpt><trkpt lat="42.2809015" lon="13.7734238"><ele>351.0</ele><time>2026-05-03T10:22:18.977Z</time></trkpt><trkpt lat="42.2808277" lon="13.773285"><ele>351.5</ele><time>2026-05-03T10:22:19.977Z</time></trkpt><trkpt lat="42.2807552" lon="13.773146"><ele>352.0</ele><time>2026-05-03T10:22:20.978Z</time></trkpt><trkpt lat="42.2806819" lon="13.7730054"><ele>352.5</ele><time>2026-05-03T10:22:21.977Z</time></trkpt><trkpt lat="42.2806057" lon="13.7728652"><ele>353.0</ele><time>2026-05-03T10:22:22.978Z</time></trkpt><trkpt lat="42.2805321" lon="13.7727226"><ele>353.5</ele><time>2026-05-03T10:22:23.978Z</time></trkpt><trkpt lat="42.2804586" lon="13.7725733"><ele>354.0</ele><time>2026-05-03T10:22:24.977Z</time></trkpt><trkpt lat="42.2803856" lon="13.772431"><ele>354.5</ele><time>2026-05-03T10:22:25.978Z</time></trkpt><trkpt lat="42.2803096" lon="13.7723062"><ele>355.0</ele><time>2026-05-03T10:22:26.977Z</time></trkpt><trkpt lat="42.280222" lon="13.7722055"><ele>355.0</ele><time>2026-05-03T10:22:27.977Z</time></trkpt><trkpt lat="42.2801253" lon="13.7721292"><ele>355.0</ele><time>2026-05-03T10:22:28.978Z</time></trkpt><trkpt lat="42.2800259" lon="13.7720639"><ele>355.0</ele><time>2026-05-03T10:22:29.978Z</time></trkpt><trkpt lat="42.2799324" lon="13.7720002"><ele>355.0</ele><time>2026-05-03T10:22:30.978Z</time></trkpt><trkpt lat="42.2798495" lon="13.7719272"><ele>355.0</ele><time>2026-05-03T10:22:31.978Z</time></trkpt><trkpt lat="42.2797742" lon="13.7718357"><ele>355.5</ele><time>2026-05-03T10:22:32.978Z</time></trkpt><trkpt lat="42.2797082" lon="13.7717177"><ele>356.0</ele><time>2026-05-03T10:22:33.978Z</time></trkpt><trkpt lat="42.2796473" lon="13.7715839"><ele>356.5</ele><time>2026-05-03T10:22:34.977Z</time></trkpt><trkpt lat="42.2795879" lon="13.7714324"><ele>357.0</ele><time>2026-05-03T10:22:35.978Z</time></trkpt><trkpt lat="42.2795308" lon="13.7712692"><ele>357.0</ele><time>2026-05-03T10:22:36.978Z</time></trkpt><trkpt lat="42.2794723" lon="13.7711029"><ele>357.0</ele><time>2026-05-03T10:22:37.977Z</time></trkpt><trkpt lat="42.2794125" lon="13.7709391"><ele>357.0</ele><time>2026-05-03T10:22:38.978Z</time></trkpt><trkpt lat="42.2793552" lon="13.7707763"><ele>357.0</ele><time>2026-05-03T10:22:39.978Z</time></trkpt><trkpt lat="42.2792994" lon="13.7706134"><ele>357.5</ele><time>2026-05-03T10:22:40.978Z</time></trkpt><trkpt lat="42.2792426" lon="13.7704533"><ele>358.0</ele><time>2026-05-03T10:22:41.977Z</time></trkpt><trkpt lat="42.279189" lon="13.7703032"><ele>358.5</ele><time>2026-05-03T10:22:42.977Z</time></trkpt><trkpt lat="42.2791382" lon="13.7701623"><ele>359.0</ele><time>2026-05-03T10:22:43.978Z</time></trkpt><trkpt lat="42.2790894" lon="13.7700237"><ele>359.2</ele><time>2026-05-03T10:22:44.977Z</time></trkpt><trkpt lat="42.279042" lon="13.7698873"><ele>359.4</ele><time>2026-05-03T10:22:45.978Z</time></trkpt><trkpt lat="42.2789954" lon="13.769755"><ele>359.6</ele><time>2026-05-03T10:22:46.977Z</time></trkpt><trkpt lat="42.2789514" lon="13.7696313"><ele>359.8</ele><time>2026-05-03T10:22:47.978Z</time></trkpt><trkpt lat="42.2789194" lon="13.7695341"><ele>360.0</ele><time>2026-05-03T10:22:48.978Z</time></trkpt><trkpt lat="42.2788773" lon="13.7694024"><ele>360.0</ele><time>2026-05-03T10:22:50.977Z</time></trkpt><trkpt lat="42.2788049" lon="13.7693512"><ele>360.0</ele><time>2026-05-03T10:22:53.978Z</time></trkpt><trkpt lat="42.2786916" lon="13.7694307"><ele>360.0</ele><time>2026-05-03T10:22:55.978Z</time></trkpt><trkpt lat="42.2786168" lon="13.7695066"><ele>360.0</ele><time>2026-05-03T10:22:56.977Z</time></trkpt><trkpt lat="42.2785277" lon="13.7696014"><ele>360.0</ele><time>2026-05-03T10:22:57.978Z</time></trkpt><trkpt lat="42.2784299" lon="13.769711"><ele>360.0</ele><time>2026-05-03T10:22:58.978Z</time></trkpt><trkpt lat="42.278327" lon="13.7698282"><ele>360.0</ele><time>2026-05-03T10:22:59.977Z</time></trkpt><trkpt lat="42.2782147" lon="13.7699547"><ele>360.0</ele><time>2026-05-03T10:23:00.978Z</time></trkpt><trkpt lat="42.2780944" lon="13.7700922"><ele>360.0</ele><time>2026-05-03T10:23:01.977Z</time></trkpt><trkpt lat="42.2779753" lon="13.7702308"><ele>358.5</ele><time>2026-05-03T10:23:02.978Z</time></trkpt><trkpt lat="42.2778622" lon="13.7703604"><ele>357.0</ele><time>2026-05-03T10:23:03.977Z</time></trkpt><trkpt lat="42.27775" lon="13.7704856"><ele>355.5</ele><time>2026-05-03T10:23:04.977Z</time></trkpt><trkpt lat="42.2776329" lon="13.7705962"><ele>354.0</ele><time>2026-05-03T10:23:05.978Z</time></trkpt><trkpt lat="42.2775065" lon="13.7706731"><ele>354.0</ele><time>2026-05-03T10:23:06.978Z</time></trkpt><trkpt lat="42.2773734" lon="13.7707125"><ele>354.0</ele><time>2026-05-03T10:23:07.978Z</time></trkpt><trkpt lat="42.2772304" lon="13.7707138"><ele>354.0</ele><time>2026-05-03T10:23:08.978Z</time></trkpt><trkpt lat="42.2770737" lon="13.7706993"><ele>354.0</ele><time>2026-05-03T10:23:09.978Z</time></trkpt><trkpt lat="42.276897" lon="13.7706855"><ele>352.0</ele><time>2026-05-03T10:23:10.977Z</time></trkpt><trkpt lat="42.276696" lon="13.7706629"><ele>350.0</ele><time>2026-05-03T10:23:11.978Z</time></trkpt><trkpt lat="42.276486" lon="13.7706332"><ele>348.0</ele><time>2026-05-03T10:23:12.977Z</time></trkpt><trkpt lat="42.2762824" lon="13.7706147"><ele>346.6666666666667</ele><time>2026-05-03T10:23:13.977Z</time></trkpt><trkpt lat="42.2760852" lon="13.770588"><ele>345.33333333333337</ele><time>2026-05-03T10:23:14.977Z</time></trkpt><trkpt lat="42.2758968" lon="13.7705515"><ele>344.0</ele><time>2026-05-03T10:23:15.977Z</time></trkpt><trkpt lat="42.275717" lon="13.7705281"><ele>346.0</ele><time>2026-05-03T10:23:16.977Z</time></trkpt><trkpt lat="42.2755821" lon="13.7705194"><ele>348.0</ele><time>2026-05-03T10:23:17.977Z</time></trkpt><trkpt lat="42.2754519" lon="13.7705333"><ele>350.0</ele><time>2026-05-03T10:23:18.978Z</time></trkpt><trkpt lat="42.2753186" lon="13.770577"><ele>352.0</ele><time>2026-05-03T10:23:19.978Z</time></trkpt><trkpt lat="42.2751933" lon="13.7706322"><ele>352.0</ele><time>2026-05-03T10:23:20.978Z</time></trkpt><trkpt lat="42.2750858" lon="13.7706922"><ele>352.0</ele><time>2026-05-03T10:23:21.977Z</time></trkpt><trkpt lat="42.2750072" lon="13.7707775"><ele>352.0</ele><time>2026-05-03T10:23:22.978Z</time></trkpt><trkpt lat="42.2749492" lon="13.7708918"><ele>352.0</ele><time>2026-05-03T10:23:23.978Z</time></trkpt><trkpt lat="42.2748995" lon="13.771056"><ele>353.66666666666663</ele><time>2026-05-03T10:23:24.977Z</time></trkpt><trkpt lat="42.2748551" lon="13.771249"><ele>355.3333333333333</ele><time>2026-05-03T10:23:25.977Z</time></trkpt><trkpt lat="42.2748124" lon="13.7714633"><ele>357.0</ele><time>2026-05-03T10:23:26.977Z</time></trkpt><trkpt lat="42.2747704" lon="13.7716719"><ele>356.25</ele><time>2026-05-03T10:23:27.978Z</time></trkpt><trkpt lat="42.2747309" lon="13.7718599"><ele>355.5</ele><time>2026-05-03T10:23:28.977Z</time></trkpt><trkpt lat="42.2746927" lon="13.7720343"><ele>354.75</ele><time>2026-05-03T10:23:29.978Z</time></trkpt><trkpt lat="42.2746526" lon="13.7722091"><ele>354.0</ele><time>2026-05-03T10:23:30.978Z</time></trkpt><trkpt lat="42.2746072" lon="13.7723718"><ele>354.0</ele><time>2026-05-03T10:23:31.977Z</time></trkpt><trkpt lat="42.2745445" lon="13.7725247"><ele>354.0</ele><time>2026-05-03T10:23:32.978Z</time></trkpt><trkpt lat="42.2744614" lon="13.7726638"><ele>354.0</ele><time>2026-05-03T10:23:33.978Z</time></trkpt><trkpt lat="42.2743632" lon="13.7727995"><ele>354.0</ele><time>2026-05-03T10:23:34.977Z</time></trkpt><trkpt lat="42.2742493" lon="13.7729452"><ele>353.3333333333333</ele><time>2026-05-03T10:23:35.977Z</time></trkpt><trkpt lat="42.2741271" lon="13.7730993"><ele>352.66666666666663</ele><time>2026-05-03T10:23:36.978Z</time></trkpt><trkpt lat="42.2740038" lon="13.7732546"><ele>352.0</ele><time>2026-05-03T10:23:37.978Z</time></trkpt><trkpt lat="42.2738712" lon="13.7734156"><ele>352.66666666666663</ele><time>2026-05-03T10:23:38.978Z</time></trkpt><trkpt lat="42.2737323" lon="13.7735738"><ele>353.3333333333333</ele><time>2026-05-03T10:23:39.977Z</time></trkpt><trkpt lat="42.2735874" lon="13.7737331"><ele>354.0</ele><time>2026-05-03T10:23:40.978Z</time></trkpt><trkpt lat="42.2734434" lon="13.7738964"><ele>354.0</ele><time>2026-05-03T10:23:41.978Z</time></trkpt><trkpt lat="42.2733037" lon="13.7740683"><ele>354.0</ele><time>2026-05-03T10:23:42.978Z</time></trkpt><trkpt lat="42.2731713" lon="13.7742534"><ele>354.0</ele><time>2026-05-03T10:23:43.977Z</time></trkpt><trkpt lat="42.2730474" lon="13.7744594"><ele>355.0</ele><time>2026-05-03T10:23:44.978Z</time></trkpt><trkpt lat="42.2729278" lon="13.7746741"><ele>356.0</ele><time>2026-05-03T10:23:45.978Z</time></trkpt><trkpt lat="42.2728088" lon="13.7748752"><ele>357.0</ele><time>2026-05-03T10:23:46.977Z</time></trkpt><trkpt lat="42.2726964" lon="13.7750618"><ele>355.6666666666667</ele><time>2026-05-03T10:23:47.978Z</time></trkpt><trkpt lat="42.2725889" lon="13.7752373"><ele>354.33333333333337</ele><time>2026-05-03T10:23:48.978Z</time></trkpt><trkpt lat="42.2724917" lon="13.775411"><ele>353.0</ele><time>2026-05-03T10:23:49.977Z</time></trkpt><trkpt lat="42.272412" lon="13.775581"><ele>353.0</ele><time>2026-05-03T10:23:50.977Z</time></trkpt><trkpt lat="42.2723454" lon="13.7757534"><ele>353.0</ele><time>2026-05-03T10:23:51.978Z</time></trkpt><trkpt lat="42.272297" lon="13.7759322"><ele>353.0</ele><time>2026-05-03T10:23:52.978Z</time></trkpt><trkpt lat="42.2722642" lon="13.7761252"><ele>353.0</ele><time>2026-05-03T10:23:53.978Z</time></trkpt><trkpt lat="42.2722399" lon="13.7763389"><ele>352.33333333333337</ele><time>2026-05-03T10:23:54.977Z</time></trkpt><trkpt lat="42.2722147" lon="13.7765782"><ele>351.6666666666667</ele><time>2026-05-03T10:23:55.977Z</time></trkpt><trkpt lat="42.2721893" lon="13.7768322"><ele>351.0</ele><time>2026-05-03T10:23:56.978Z</time></trkpt><trkpt lat="42.2721638" lon="13.7770882"><ele>350.0</ele><time>2026-05-03T10:23:57.978Z</time></trkpt><trkpt lat="42.2721376" lon="13.7773479"><ele>349.0</ele><time>2026-05-03T10:23:58.977Z</time></trkpt><trkpt lat="42.2721118" lon="13.7776111"><ele>348.0</ele><time>2026-05-03T10:23:59.978Z</time></trkpt><trkpt lat="42.2720893" lon="13.7778657"><ele>347.3333333333333</ele><time>2026-05-03T10:24:00.977Z</time></trkpt><trkpt lat="42.2720674" lon="13.7781201"><ele>346.66666666666663</ele><time>2026-05-03T10:24:01.977Z</time></trkpt><trkpt lat="42.2720433" lon="13.7783775"><ele>346.0</ele><time>2026-05-03T10:24:02.978Z</time></trkpt><trkpt lat="42.2720188" lon="13.778635"><ele>345.0</ele><time>2026-05-03T10:24:03.978Z</time></trkpt><trkpt lat="42.2719912" lon="13.7788898"><ele>344.0</ele><time>2026-05-03T10:24:04.978Z</time></trkpt><trkpt lat="42.2719612" lon="13.779134"><ele>343.0</ele><time>2026-05-03T10:24:05.978Z</time></trkpt><trkpt lat="42.2719351" lon="13.7793449"><ele>342.25</ele><time>2026-05-03T10:24:06.978Z</time></trkpt><trkpt lat="42.2719094" lon="13.7795085"><ele>341.5</ele><time>2026-05-03T10:24:07.978Z</time></trkpt><trkpt lat="42.27187" lon="13.7796539"><ele>340.75</ele><time>2026-05-03T10:24:08.978Z</time></trkpt><trkpt lat="42.2718158" lon="13.7797904"><ele>340.0</ele><time>2026-05-03T10:24:09.977Z</time></trkpt><trkpt lat="42.2717438" lon="13.7799245"><ele>340.0</ele><time>2026-05-03T10:24:10.978Z</time></trkpt><trkpt lat="42.2716546" lon="13.7800642"><ele>340.0</ele><time>2026-05-03T10:24:11.978Z</time></trkpt><trkpt lat="42.2715592" lon="13.7802082"><ele>340.0</ele><time>2026-05-03T10:24:12.977Z</time></trkpt><trkpt lat="42.2714699" lon="13.7803453"><ele>340.0</ele><time>2026-05-03T10:24:13.977Z</time></trkpt><trkpt lat="42.2713803" lon="13.7804804"><ele>340.2</ele><time>2026-05-03T10:24:14.977Z</time></trkpt><trkpt lat="42.2712984" lon="13.780607"><ele>340.4</ele><time>2026-05-03T10:24:15.977Z</time></trkpt><trkpt lat="42.2712143" lon="13.7807285"><ele>340.6</ele><time>2026-05-03T10:24:16.977Z</time></trkpt><trkpt lat="42.2711498" lon="13.7808309"><ele>340.8</ele><time>2026-05-03T10:24:17.978Z</time></trkpt><trkpt lat="42.2710945" lon="13.7809117"><ele>341.0</ele><time>2026-05-03T10:24:18.977Z</time></trkpt><trkpt lat="42.2710241" lon="13.7810137"><ele>340.0</ele><time>2026-05-03T10:24:20.978Z</time></trkpt><trkpt lat="42.270976" lon="13.7810918"><ele>339.0</ele><time>2026-05-03T10:24:23.977Z</time></trkpt><trkpt lat="42.2708701" lon="13.7812201"><ele>338.0</ele><time>2026-05-03T10:24:25.977Z</time></trkpt><trkpt lat="42.270795" lon="13.7812997"><ele>337.0</ele><time>2026-05-03T10:24:26.977Z</time></trkpt><trkpt lat="42.2707015" lon="13.7813705"><ele>336.0</ele><time>2026-05-03T10:24:27.977Z</time></trkpt><trkpt lat="42.2705885" lon="13.7814255"><ele>336.0</ele><time>2026-05-03T10:24:28.977Z</time></trkpt><trkpt lat="42.2704722" lon="13.7814948"><ele>336.0</ele><time>2026-05-03T10:24:29.978Z</time></trkpt><trkpt lat="42.2703506" lon="13.7815889"><ele>336.0</ele><time>2026-05-03T10:24:30.977Z</time></trkpt><trkpt lat="42.270233" lon="13.7816868"><ele>336.0</ele><time>2026-05-03T10:24:31.978Z</time></trkpt><trkpt lat="42.2701232" lon="13.7817673"><ele>336.0</ele><time>2026-05-03T10:24:32.977Z</time></trkpt><trkpt lat="42.2700189" lon="13.7818435"><ele>336.0</ele><time>2026-05-03T10:24:33.978Z</time></trkpt><trkpt lat="42.2699116" lon="13.7819101"><ele>336.0</ele><time>2026-05-03T10:24:34.978Z</time></trkpt><trkpt lat="42.2697929" lon="13.7819581"><ele>336.0</ele><time>2026-05-03T10:24:35.978Z</time></trkpt><trkpt lat="42.2696782" lon="13.7819998"><ele>336.6666666666667</ele><time>2026-05-03T10:24:36.978Z</time></trkpt><trkpt lat="42.2695743" lon="13.7820403"><ele>337.3333333333333</ele><time>2026-05-03T10:24:37.978Z</time></trkpt><trkpt lat="42.269495" lon="13.7820926"><ele>338.0</ele><time>2026-05-03T10:24:38.978Z</time></trkpt><trkpt lat="42.2694442" lon="13.7821606"><ele>338.66666666666663</ele><time>2026-05-03T10:24:39.977Z</time></trkpt><trkpt lat="42.2694062" lon="13.7822432"><ele>339.3333333333333</ele><time>2026-05-03T10:24:40.977Z</time></trkpt><trkpt lat="42.2693764" lon="13.7823491"><ele>340.0</ele><time>2026-05-03T10:24:41.978Z</time></trkpt><trkpt lat="42.2693522" lon="13.7824724"><ele>340.0</ele><time>2026-05-03T10:24:42.978Z</time></trkpt><trkpt lat="42.2693316" lon="13.7826121"><ele>340.0</ele><time>2026-05-03T10:24:43.977Z</time></trkpt><trkpt lat="42.2693085" lon="13.7827612"><ele>340.0</ele><time>2026-05-03T10:24:44.978Z</time></trkpt><trkpt lat="42.2692836" lon="13.782919"><ele>340.0</ele><time>2026-05-03T10:24:45.978Z</time></trkpt><trkpt lat="42.2692559" lon="13.7830771"><ele>340.0</ele><time>2026-05-03T10:24:46.978Z</time></trkpt><trkpt lat="42.2692269" lon="13.7832175"><ele>340.0</ele><time>2026-05-03T10:24:47.978Z</time></trkpt><trkpt lat="42.2691945" lon="13.7833514"><ele>340.0</ele><time>2026-05-03T10:24:48.978Z</time></trkpt><trkpt lat="42.2691574" lon="13.7834728"><ele>340.0</ele><time>2026-05-03T10:24:49.977Z</time></trkpt><trkpt lat="42.2691201" lon="13.7835741"><ele>340.0</ele><time>2026-05-03T10:24:50.977Z</time></trkpt><trkpt lat="42.2690829" lon="13.7836658"><ele>340.0</ele><time>2026-05-03T10:24:51.978Z</time></trkpt><trkpt lat="42.2690441" lon="13.7837805"><ele>340.0</ele><time>2026-05-03T10:24:52.978Z</time></trkpt><trkpt lat="42.2689904" lon="13.7839088"><ele>340.0</ele><time>2026-05-03T10:24:53.978Z</time></trkpt><trkpt lat="42.268924" lon="13.7840492"><ele>340.0</ele><time>2026-05-03T10:24:54.978Z</time></trkpt><trkpt lat="42.2688548" lon="13.7841921"><ele>340.75</ele><time>2026-05-03T10:24:55.978Z</time></trkpt><trkpt lat="42.2687799" lon="13.7843303"><ele>341.5</ele><time>2026-05-03T10:24:56.978Z</time></trkpt><trkpt lat="42.2687049" lon="13.784464"><ele>342.25</ele><time>2026-05-03T10:24:57.977Z</time></trkpt><trkpt lat="42.268622" lon="13.7845951"><ele>343.0</ele><time>2026-05-03T10:24:58.978Z</time></trkpt><trkpt lat="42.268517" lon="13.7847308"><ele>343.0</ele><time>2026-05-03T10:24:59.978Z</time></trkpt><trkpt lat="42.2684042" lon="13.7848567"><ele>343.0</ele><time>2026-05-03T10:25:00.977Z</time></trkpt><trkpt lat="42.2682882" lon="13.7849785"><ele>343.0</ele><time>2026-05-03T10:25:01.978Z</time></trkpt><trkpt lat="42.2681639" lon="13.785102"><ele>343.0</ele><time>2026-05-03T10:25:02.978Z</time></trkpt><trkpt lat="42.2680311" lon="13.785216"><ele>344.3333333333333</ele><time>2026-05-03T10:25:03.977Z</time></trkpt><trkpt lat="42.2678921" lon="13.7853267"><ele>345.6666666666667</ele><time>2026-05-03T10:25:04.977Z</time></trkpt><trkpt lat="42.2677548" lon="13.7854482"><ele>347.0</ele><time>2026-05-03T10:25:05.978Z</time></trkpt><trkpt lat="42.2676187" lon="13.7855811"><ele>347.0</ele><time>2026-05-03T10:25:06.978Z</time></trkpt><trkpt lat="42.2674891" lon="13.7857233"><ele>347.0</ele><time>2026-05-03T10:25:07.977Z</time></trkpt><trkpt lat="42.2673631" lon="13.7858664"><ele>347.0</ele><time>2026-05-03T10:25:08.978Z</time></trkpt><trkpt lat="42.2672375" lon="13.7860055"><ele>347.33333333333337</ele><time>2026-05-03T10:25:09.978Z</time></trkpt><trkpt lat="42.2671157" lon="13.786149"><ele>347.6666666666667</ele><time>2026-05-03T10:25:10.977Z</time></trkpt><trkpt lat="42.2669974" lon="13.7862922"><ele>348.0</ele><time>2026-05-03T10:25:11.978Z</time></trkpt><trkpt lat="42.2668821" lon="13.7864425"><ele>348.0</ele><time>2026-05-03T10:25:12.977Z</time></trkpt><trkpt lat="42.2667728" lon="13.7866027"><ele>348.0</ele><time>2026-05-03T10:25:13.977Z</time></trkpt><trkpt lat="42.266667" lon="13.7867692"><ele>348.0</ele><time>2026-05-03T10:25:14.977Z</time></trkpt><trkpt lat="42.2665607" lon="13.7869373"><ele>347.3333333333333</ele><time>2026-05-03T10:25:15.977Z</time></trkpt><trkpt lat="42.2664581" lon="13.7871075"><ele>346.66666666666663</ele><time>2026-05-03T10:25:16.978Z</time></trkpt><trkpt lat="42.2663564" lon="13.787285"><ele>346.0</ele><time>2026-05-03T10:25:17.978Z</time></trkpt><trkpt lat="42.2662592" lon="13.787473"><ele>346.3333333333333</ele><time>2026-05-03T10:25:18.978Z</time></trkpt><trkpt lat="42.2661649" lon="13.7876539"><ele>346.6666666666667</ele><time>2026-05-03T10:25:19.978Z</time></trkpt><trkpt lat="42.2660662" lon="13.787832"><ele>347.0</ele><time>2026-05-03T10:25:20.978Z</time></trkpt><trkpt lat="42.2659619" lon="13.7880082"><ele>347.0</ele><time>2026-05-03T10:25:21.978Z</time></trkpt><trkpt lat="42.2658552" lon="13.7881855"><ele>347.0</ele><time>2026-05-03T10:25:22.977Z</time></trkpt><trkpt lat="42.2657456" lon="13.788367"><ele>347.0</ele><time>2026-05-03T10:25:23.978Z</time></trkpt><trkpt lat="42.2656345" lon="13.7885556"><ele>348.0</ele><time>2026-05-03T10:25:24.978Z</time></trkpt><trkpt lat="42.2655279" lon="13.7887488"><ele>349.0</ele><time>2026-05-03T10:25:25.977Z</time></trkpt><trkpt lat="42.2654241" lon="13.7889424"><ele>350.0</ele><time>2026-05-03T10:25:26.977Z</time></trkpt><trkpt lat="42.2653346" lon="13.7891372"><ele>349.0</ele><time>2026-05-03T10:25:27.977Z</time></trkpt><trkpt lat="42.2652579" lon="13.7893429"><ele>348.0</ele><time>2026-05-03T10:25:28.978Z</time></trkpt><trkpt lat="42.2651915" lon="13.7895495"><ele>347.0</ele><time>2026-05-03T10:25:29.977Z</time></trkpt><trkpt lat="42.2651213" lon="13.7897642"><ele>347.0</ele><time>2026-05-03T10:25:30.978Z</time></trkpt><trkpt lat="42.2650413" lon="13.7899784"><ele>347.0</ele><time>2026-05-03T10:25:31.978Z</time></trkpt><trkpt lat="42.2649616" lon="13.7901939"><ele>347.0</ele><time>2026-05-03T10:25:32.978Z</time></trkpt><trkpt lat="42.2648886" lon="13.7904106"><ele>346.33333333333337</ele><time>2026-05-03T10:25:33.978Z</time></trkpt><trkpt lat="42.2648177" lon="13.790627"><ele>345.6666666666667</ele><time>2026-05-03T10:25:34.978Z</time></trkpt><trkpt lat="42.2647468" lon="13.790849"><ele>345.0</ele><time>2026-05-03T10:25:35.978Z</time></trkpt><trkpt lat="42.2646762" lon="13.7910764"><ele>346.3333333333333</ele><time>2026-05-03T10:25:36.978Z</time></trkpt><trkpt lat="42.264607" lon="13.7912967"><ele>347.66666666666663</ele><time>2026-05-03T10:25:37.977Z</time></trkpt><trkpt lat="42.2645362" lon="13.7915179"><ele>349.0</ele><time>2026-05-03T10:25:38.978Z</time></trkpt><trkpt lat="42.2644671" lon="13.7917396"><ele>348.0</ele><time>2026-05-03T10:25:39.978Z</time></trkpt><trkpt lat="42.2644023" lon="13.7919579"><ele>347.0</ele><time>2026-05-03T10:25:40.978Z</time></trkpt><trkpt lat="42.2643455" lon="13.7921792"><ele>346.0</ele><time>2026-05-03T10:25:41.977Z</time></trkpt><trkpt lat="42.264294" lon="13.7924005"><ele>346.0</ele><time>2026-05-03T10:25:42.977Z</time></trkpt><trkpt lat="42.2642411" lon="13.7926215"><ele>346.0</ele><time>2026-05-03T10:25:43.978Z</time></trkpt><trkpt lat="42.2641809" lon="13.7928435"><ele>346.0</ele><time>2026-05-03T10:25:44.978Z</time></trkpt><trkpt lat="42.2641111" lon="13.7930616"><ele>346.0</ele><time>2026-05-03T10:25:45.978Z</time></trkpt><trkpt lat="42.2640408" lon="13.7932742"><ele>346.0</ele><time>2026-05-03T10:25:46.978Z</time></trkpt><trkpt lat="42.2639747" lon="13.7934796"><ele>346.0</ele><time>2026-05-03T10:25:47.978Z</time></trkpt><trkpt lat="42.2639104" lon="13.7936755"><ele>346.0</ele><time>2026-05-03T10:25:48.977Z</time></trkpt><trkpt lat="42.263847" lon="13.7938632"><ele>346.0</ele><time>2026-05-03T10:25:49.978Z</time></trkpt><trkpt lat="42.2637824" lon="13.7940453"><ele>346.0</ele><time>2026-05-03T10:25:50.977Z</time></trkpt><trkpt lat="42.2637135" lon="13.7942298"><ele>344.66666666666663</ele><time>2026-05-03T10:25:51.977Z</time></trkpt><trkpt lat="42.2636341" lon="13.7944113"><ele>343.3333333333333</ele><time>2026-05-03T10:25:52.977Z</time></trkpt><trkpt lat="42.2635362" lon="13.7945894"><ele>342.0</ele><time>2026-05-03T10:25:53.977Z</time></trkpt><trkpt lat="42.2634278" lon="13.7947634"><ele>342.0</ele><time>2026-05-03T10:25:54.978Z</time></trkpt><trkpt lat="42.2633232" lon="13.794935"><ele>342.0</ele><time>2026-05-03T10:25:55.977Z</time></trkpt><trkpt lat="42.2632255" lon="13.7951015"><ele>342.0</ele><time>2026-05-03T10:25:56.977Z</time></trkpt><trkpt lat="42.2631323" lon="13.7952622"><ele>343.0</ele><time>2026-05-03T10:25:57.978Z</time></trkpt><trkpt lat="42.263042" lon="13.7954152"><ele>344.0</ele><time>2026-05-03T10:25:58.977Z</time></trkpt><trkpt lat="42.2629565" lon="13.7955582"><ele>345.0</ele><time>2026-05-03T10:25:59.977Z</time></trkpt><trkpt lat="42.262871" lon="13.7956917"><ele>346.0</ele><time>2026-05-03T10:26:00.978Z</time></trkpt><trkpt lat="42.2627929" lon="13.7958193"><ele>346.0</ele><time>2026-05-03T10:26:01.978Z</time></trkpt><trkpt lat="42.262722" lon="13.7959393"><ele>346.0</ele><time>2026-05-03T10:26:02.978Z</time></trkpt><trkpt lat="42.2626599" lon="13.7960488"><ele>346.0</ele><time>2026-05-03T10:26:03.978Z</time></trkpt><trkpt lat="42.2626116" lon="13.7961392"><ele>346.0</ele><time>2026-05-03T10:26:04.978Z</time></trkpt><trkpt lat="42.2625854" lon="13.7962414"><ele>346.0</ele><time>2026-05-03T10:26:06.977Z</time></trkpt><trkpt lat="42.2626239" lon="13.7963144"><ele>346.0</ele><time>2026-05-03T10:26:08.978Z</time></trkpt><trkpt lat="42.2627536" lon="13.7963481"><ele>345.5</ele><time>2026-05-03T10:26:10.977Z</time></trkpt><trkpt lat="42.262855" lon="13.7963446"><ele>345.0</ele><time>2026-05-03T10:26:11.977Z</time></trkpt><trkpt lat="42.2629979" lon="13.7963559"><ele>344.5</ele><time>2026-05-03T10:26:12.977Z</time></trkpt><trkpt lat="42.2631698" lon="13.79639"><ele>344.0</ele><time>2026-05-03T10:26:13.978Z</time></trkpt><trkpt lat="42.2633629" lon="13.7964364"><ele>342.33333333333337</ele><time>2026-05-03T10:26:14.977Z</time></trkpt><trkpt lat="42.263565" lon="13.7964732"><ele>340.6666666666667</ele><time>2026-05-03T10:26:15.978Z</time></trkpt><trkpt lat="42.2637682" lon="13.7965139"><ele>339.0</ele><time>2026-05-03T10:26:16.978Z</time></trkpt><trkpt lat="42.2639571" lon="13.7965538"><ele>338.0</ele><time>2026-05-03T10:26:17.978Z</time></trkpt><trkpt lat="42.2641098" lon="13.7965894"><ele>337.0</ele><time>2026-05-03T10:26:18.978Z</time></trkpt><trkpt lat="42.2642473" lon="13.7966344"><ele>336.0</ele><time>2026-05-03T10:26:19.978Z</time></trkpt><trkpt lat="42.2643753" lon="13.7967057"><ele>335.0</ele><time>2026-05-03T10:26:20.977Z</time></trkpt><trkpt lat="42.2644826" lon="13.7968067"><ele>333.25</ele><time>2026-05-03T10:26:21.978Z</time></trkpt><trkpt lat="42.2645743" lon="13.7969226"><ele>331.5</ele><time>2026-05-03T10:26:22.977Z</time></trkpt><trkpt lat="42.2646568" lon="13.7970448"><ele>329.75</ele><time>2026-05-03T10:26:23.978Z</time></trkpt><trkpt lat="42.2647291" lon="13.7971759"><ele>328.0</ele><time>2026-05-03T10:26:24.978Z</time></trkpt><trkpt lat="42.2647814" lon="13.797318"><ele>328.0</ele><time>2026-05-03T10:26:25.977Z</time></trkpt><trkpt lat="42.2648175" lon="13.7974458"><ele>328.0</ele><time>2026-05-03T10:26:26.978Z</time></trkpt><trkpt lat="42.2648421" lon="13.7975686"><ele>328.0</ele><time>2026-05-03T10:26:27.977Z</time></trkpt><trkpt lat="42.2648536" lon="13.7977009"><ele>328.0</ele><time>2026-05-03T10:26:28.978Z</time></trkpt><trkpt lat="42.2648629" lon="13.7978397"><ele>328.0</ele><time>2026-05-03T10:26:29.978Z</time></trkpt><trkpt lat="42.2648725" lon="13.7979833"><ele>328.2</ele><time>2026-05-03T10:26:30.977Z</time></trkpt><trkpt lat="42.2648838" lon="13.7981228"><ele>328.4</ele><time>2026-05-03T10:26:31.978Z</time></trkpt><trkpt lat="42.2648995" lon="13.7982601"><ele>328.59999999999997</ele><time>2026-05-03T10:26:32.978Z</time></trkpt><trkpt lat="42.264927" lon="13.7983936"><ele>328.79999999999995</ele><time>2026-05-03T10:26:33.978Z</time></trkpt><trkpt lat="42.2649703" lon="13.7985209"><ele>329.0</ele><time>2026-05-03T10:26:34.977Z</time></trkpt><trkpt lat="42.2650177" lon="13.7986461"><ele>329.0</ele><time>2026-05-03T10:26:35.978Z</time></trkpt><trkpt lat="42.2650601" lon="13.7987607"><ele>329.0</ele><time>2026-05-03T10:26:36.978Z</time></trkpt><trkpt lat="42.2650998" lon="13.798869"><ele>329.0</ele><time>2026-05-03T10:26:37.978Z</time></trkpt><trkpt lat="42.2651315" lon="13.7989675"><ele>329.0</ele><time>2026-05-03T10:26:38.977Z</time></trkpt><trkpt lat="42.2651428" lon="13.7991034"><ele>329.0</ele><time>2026-05-03T10:26:40.978Z</time></trkpt><trkpt lat="42.2650809" lon="13.7992137"><ele>329.0</ele><time>2026-05-03T10:26:42.977Z</time></trkpt><trkpt lat="42.265026" lon="13.7992663"><ele>329.0</ele><time>2026-05-03T10:26:43.978Z</time></trkpt><trkpt lat="42.2649551" lon="13.7993036"><ele>329.0</ele><time>2026-05-03T10:26:44.977Z</time></trkpt><trkpt lat="42.2648755" lon="13.7993201"><ele>329.0</ele><time>2026-05-03T10:26:45.978Z</time></trkpt><trkpt lat="42.2647877" lon="13.7993158"><ele>329.0</ele><time>2026-05-03T10:26:46.978Z</time></trkpt><trkpt lat="42.2647008" lon="13.7993116"><ele>329.0</ele><time>2026-05-03T10:26:47.977Z</time></trkpt><trkpt lat="42.2646132" lon="13.7993188"><ele>330.33333333333337</ele><time>2026-05-03T10:26:48.978Z</time></trkpt><trkpt lat="42.2645335" lon="13.7993353"><ele>331.6666666666667</ele><time>2026-05-03T10:26:49.978Z</time></trkpt><trkpt lat="42.2644611" lon="13.7993691"><ele>333.0</ele><time>2026-05-03T10:26:50.978Z</time></trkpt><trkpt lat="42.2643929" lon="13.7994293"><ele>334.3333333333333</ele><time>2026-05-03T10:26:51.978Z</time></trkpt><trkpt lat="42.2643217" lon="13.7995114"><ele>335.66666666666663</ele><time>2026-05-03T10:26:52.977Z</time></trkpt><trkpt lat="42.2642579" lon="13.7995905"><ele>337.0</ele><time>2026-05-03T10:26:53.978Z</time></trkpt><trkpt lat="42.2641907" lon="13.7996613"><ele>337.0</ele><time>2026-05-03T10:26:54.978Z</time></trkpt><trkpt lat="42.2641177" lon="13.7997265"><ele>337.0</ele><time>2026-05-03T10:26:55.977Z</time></trkpt><trkpt lat="42.2640261" lon="13.7997729"><ele>337.0</ele><time>2026-05-03T10:26:56.977Z</time></trkpt><trkpt lat="42.2639322" lon="13.7998275"><ele>337.0</ele><time>2026-05-03T10:26:57.978Z</time></trkpt><trkpt lat="42.2638318" lon="13.7998841"><ele>337.0</ele><time>2026-05-03T10:26:58.977Z</time></trkpt><trkpt lat="42.2637282" lon="13.7999405"><ele>336.40000000000003</ele><time>2026-05-03T10:26:59.977Z</time></trkpt><trkpt lat="42.2636238" lon="13.7999915"><ele>335.8</ele><time>2026-05-03T10:27:00.978Z</time></trkpt><trkpt lat="42.2635171" lon="13.8000341"><ele>335.2</ele><time>2026-05-03T10:27:01.978Z</time></trkpt><trkpt lat="42.2634071" lon="13.800057"><ele>334.6</ele><time>2026-05-03T10:27:02.978Z</time></trkpt><trkpt lat="42.2632977" lon="13.8000725"><ele>334.0</ele><time>2026-05-03T10:27:03.978Z</time></trkpt><trkpt lat="42.2631926" lon="13.8000768"><ele>333.79999999999995</ele><time>2026-05-03T10:27:04.978Z</time></trkpt><trkpt lat="42.263089" lon="13.8000564"><ele>333.59999999999997</ele><time>2026-05-03T10:27:05.977Z</time></trkpt><trkpt lat="42.2629908" lon="13.8000231"><ele>333.4</ele><time>2026-05-03T10:27:06.977Z</time></trkpt><trkpt lat="42.2628966" lon="13.7999733"><ele>333.2</ele><time>2026-05-03T10:27:07.978Z</time></trkpt><trkpt lat="42.262807" lon="13.7999269"><ele>333.0</ele><time>2026-05-03T10:27:08.977Z</time></trkpt><trkpt lat="42.2627159" lon="13.799895"><ele>333.0</ele><time>2026-05-03T10:27:09.977Z</time></trkpt><trkpt lat="42.2626139" lon="13.7998742"><ele>333.0</ele><time>2026-05-03T10:27:10.978Z</time></trkpt><trkpt lat="42.2625154" lon="13.7998577"><ele>333.0</ele><time>2026-05-03T10:27:11.977Z</time></trkpt><trkpt lat="42.2624106" lon="13.7998415"><ele>333.0</ele><time>2026-05-03T10:27:12.978Z</time></trkpt><trkpt lat="42.262313" lon="13.7998305"><ele>333.0</ele><time>2026-05-03T10:27:13.977Z</time></trkpt><trkpt lat="42.2622178" lon="13.7998165"><ele>332.79999999999995</ele><time>2026-05-03T10:27:14.977Z</time></trkpt><trkpt lat="42.2621157" lon="13.7998081"><ele>332.6</ele><time>2026-05-03T10:27:15.978Z</time></trkpt><trkpt lat="42.2620154" lon="13.7998036"><ele>332.4</ele><time>2026-05-03T10:27:16.977Z</time></trkpt><trkpt lat="42.2619199" lon="13.7998078"><ele>332.20000000000005</ele><time>2026-05-03T10:27:17.978Z</time></trkpt><trkpt lat="42.2618333" lon="13.7998252"><ele>332.0</ele><time>2026-05-03T10:27:18.978Z</time></trkpt><trkpt lat="42.2617497" lon="13.79987"><ele>332.0</ele><time>2026-05-03T10:27:19.977Z</time></trkpt><trkpt lat="42.2616594" lon="13.7999293"><ele>332.0</ele><time>2026-05-03T10:27:20.978Z</time></trkpt><trkpt lat="42.2615714" lon="13.7999924"><ele>332.0</ele><time>2026-05-03T10:27:21.977Z</time></trkpt><trkpt lat="42.2614766" lon="13.8000693"><ele>332.0</ele><time>2026-05-03T10:27:22.977Z</time></trkpt><trkpt lat="42.2613828" lon="13.8001479"><ele>332.0</ele><time>2026-05-03T10:27:23.977Z</time></trkpt><trkpt lat="42.2612958" lon="13.8002213"><ele>332.0</ele><time>2026-05-03T10:27:24.978Z</time></trkpt><trkpt lat="42.261215" lon="13.8002958"><ele>332.0</ele><time>2026-05-03T10:27:25.978Z</time></trkpt><trkpt lat="42.2611518" lon="13.800366"><ele>332.0</ele><time>2026-05-03T10:27:26.977Z</time></trkpt><trkpt lat="42.2610956" lon="13.8004554"><ele>332.0</ele><time>2026-05-03T10:27:27.978Z</time></trkpt><trkpt lat="42.2610318" lon="13.8005435"><ele>332.0</ele><time>2026-05-03T10:27:28.978Z</time></trkpt><trkpt lat="42.2609673" lon="13.8006318"><ele>332.0</ele><time>2026-05-03T10:27:29.978Z</time></trkpt><trkpt lat="42.26089" lon="13.8007225"><ele>332.0</ele><time>2026-05-03T10:27:30.978Z</time></trkpt><trkpt lat="42.260817" lon="13.8008086"><ele>332.0</ele><time>2026-05-03T10:27:31.978Z</time></trkpt><trkpt lat="42.2607373" lon="13.8008813"><ele>332.0</ele><time>2026-05-03T10:27:32.978Z</time></trkpt><trkpt lat="42.2606614" lon="13.8009477"><ele>332.0</ele><time>2026-05-03T10:27:33.978Z</time></trkpt><trkpt lat="42.260587" lon="13.8010158"><ele>332.0</ele><time>2026-05-03T10:27:34.977Z</time></trkpt><trkpt lat="42.26051" lon="13.8010816"><ele>331.8</ele><time>2026-05-03T10:27:35.978Z</time></trkpt><trkpt lat="42.2604368" lon="13.8011524"><ele>331.6</ele><time>2026-05-03T10:27:36.978Z</time></trkpt><trkpt lat="42.2603573" lon="13.8012265"><ele>331.40000000000003</ele><time>2026-05-03T10:27:37.977Z</time></trkpt><trkpt lat="42.2602769" lon="13.8013056"><ele>331.20000000000005</ele><time>2026-05-03T10:27:38.978Z</time></trkpt><trkpt lat="42.2601959" lon="13.8013928"><ele>331.0</ele><time>2026-05-03T10:27:39.977Z</time></trkpt><trkpt lat="42.2601166" lon="13.8014886"><ele>331.0</ele><time>2026-05-03T10:27:40.977Z</time></trkpt><trkpt lat="42.2600412" lon="13.8015819"><ele>331.0</ele><time>2026-05-03T10:27:41.978Z</time></trkpt><trkpt lat="42.259972" lon="13.8016729"><ele>331.0</ele><time>2026-05-03T10:27:42.977Z</time></trkpt><trkpt lat="42.2599084" lon="13.80177"><ele>331.0</ele><time>2026-05-03T10:27:43.978Z</time></trkpt><trkpt lat="42.2598478" lon="13.8018663"><ele>331.0</ele><time>2026-05-03T10:27:44.977Z</time></trkpt><trkpt lat="42.2597882" lon="13.8019531"><ele>331.8</ele><time>2026-05-03T10:27:45.978Z</time></trkpt><trkpt lat="42.2597203" lon="13.8020379"><ele>332.6</ele><time>2026-05-03T10:27:46.978Z</time></trkpt><trkpt lat="42.259644" lon="13.8021043"><ele>333.4</ele><time>2026-05-03T10:27:47.978Z</time></trkpt><trkpt lat="42.2595616" lon="13.8021731"><ele>334.2</ele><time>2026-05-03T10:27:48.977Z</time></trkpt><trkpt lat="42.2594728" lon="13.8022393"><ele>335.0</ele><time>2026-05-03T10:27:49.977Z</time></trkpt><trkpt lat="42.2593832" lon="13.802297"><ele>335.0</ele><time>2026-05-03T10:27:50.977Z</time></trkpt><trkpt lat="42.2592907" lon="13.8023409"><ele>335.0</ele><time>2026-05-03T10:27:51.977Z</time></trkpt><trkpt lat="42.2591996" lon="13.8023653"><ele>335.0</ele><time>2026-05-03T10:27:52.978Z</time></trkpt><trkpt lat="42.2591111" lon="13.8023729"><ele>335.0</ele><time>2026-05-03T10:27:53.978Z</time></trkpt><trkpt lat="42.2590196" lon="13.8023679"><ele>335.0</ele><time>2026-05-03T10:27:54.977Z</time></trkpt><trkpt lat="42.2589264" lon="13.8023448"><ele>335.6</ele><time>2026-05-03T10:27:55.978Z</time></trkpt><trkpt lat="42.2588324" lon="13.8023161"><ele>336.2</ele><time>2026-05-03T10:27:56.978Z</time></trkpt><trkpt lat="42.2587379" lon="13.802279"><ele>336.79999999999995</ele><time>2026-05-03T10:27:57.977Z</time></trkpt><trkpt lat="42.2586426" lon="13.8022392"><ele>337.4</ele><time>2026-05-03T10:27:58.977Z</time></trkpt><trkpt lat="42.2585456" lon="13.8021981"><ele>338.0</ele><time>2026-05-03T10:27:59.978Z</time></trkpt><trkpt lat="42.25845" lon="13.8021571"><ele>338.0</ele><time>2026-05-03T10:28:00.978Z</time></trkpt><trkpt lat="42.2583605" lon="13.8021099"><ele>338.0</ele><time>2026-05-03T10:28:01.978Z</time></trkpt><trkpt lat="42.2582799" lon="13.8020588"><ele>338.0</ele><time>2026-05-03T10:28:02.978Z</time></trkpt><trkpt lat="42.2582096" lon="13.8020044"><ele>338.0</ele><time>2026-05-03T10:28:03.978Z</time></trkpt><trkpt lat="42.2581483" lon="13.8019389"><ele>338.0</ele><time>2026-05-03T10:28:04.978Z</time></trkpt><trkpt lat="42.2580938" lon="13.8018572"><ele>338.0</ele><time>2026-05-03T10:28:05.977Z</time></trkpt><trkpt lat="42.258049" lon="13.8017655"><ele>337.33333333333337</ele><time>2026-05-03T10:28:06.978Z</time></trkpt><trkpt lat="42.2580038" lon="13.8016722"><ele>336.6666666666667</ele><time>2026-05-03T10:28:07.977Z</time></trkpt><trkpt lat="42.2579525" lon="13.8015785"><ele>336.0</ele><time>2026-05-03T10:28:08.978Z</time></trkpt><trkpt lat="42.2579009" lon="13.8014779"><ele>335.3333333333333</ele><time>2026-05-03T10:28:09.978Z</time></trkpt><trkpt lat="42.2578408" lon="13.8013887"><ele>334.66666666666663</ele><time>2026-05-03T10:28:10.978Z</time></trkpt><trkpt lat="42.2577805" lon="13.8013117"><ele>334.0</ele><time>2026-05-03T10:28:11.978Z</time></trkpt><trkpt lat="42.2577185" lon="13.8012508"><ele>334.0</ele><time>2026-05-03T10:28:12.977Z</time></trkpt><trkpt lat="42.2576511" lon="13.8012046"><ele>334.0</ele><time>2026-05-03T10:28:13.977Z</time></trkpt><trkpt lat="42.2575766" lon="13.8011793"><ele>334.0</ele><time>2026-05-03T10:28:14.978Z</time></trkpt><trkpt lat="42.257502" lon="13.8011815"><ele>334.0</ele><time>2026-05-03T10:28:15.978Z</time></trkpt><trkpt lat="42.2574215" lon="13.8012179"><ele>334.0</ele><time>2026-05-03T10:28:16.977Z</time></trkpt><trkpt lat="42.2573373" lon="13.8012798"><ele>334.0</ele><time>2026-05-03T10:28:17.978Z</time></trkpt><trkpt lat="42.257245" lon="13.8013516"><ele>334.2</ele><time>2026-05-03T10:28:18.978Z</time></trkpt><trkpt lat="42.2571496" lon="13.8014298"><ele>334.4</ele><time>2026-05-03T10:28:19.978Z</time></trkpt><trkpt lat="42.2570619" lon="13.8015143"><ele>334.6</ele><time>2026-05-03T10:28:20.978Z</time></trkpt><trkpt lat="42.2569758" lon="13.8016115"><ele>334.8</ele><time>2026-05-03T10:28:21.978Z</time></trkpt><trkpt lat="42.256896" lon="13.8017222"><ele>335.0</ele><time>2026-05-03T10:28:22.978Z</time></trkpt><trkpt lat="42.2568175" lon="13.8018419"><ele>335.0</ele><time>2026-05-03T10:28:23.978Z</time></trkpt><trkpt lat="42.2567417" lon="13.8019523"><ele>335.0</ele><time>2026-05-03T10:28:24.978Z</time></trkpt><trkpt lat="42.2566626" lon="13.8020621"><ele>335.0</ele><time>2026-05-03T10:28:25.977Z</time></trkpt><trkpt lat="42.2565797" lon="13.8021662"><ele>335.0</ele><time>2026-05-03T10:28:26.977Z</time></trkpt><trkpt lat="42.2564976" lon="13.8022472"><ele>335.0</ele><time>2026-05-03T10:28:27.977Z</time></trkpt><trkpt lat="42.256412" lon="13.8023137"><ele>334.0</ele><time>2026-05-03T10:28:28.977Z</time></trkpt><trkpt lat="42.2563207" lon="13.8023642"><ele>333.0</ele><time>2026-05-03T10:28:29.978Z</time></trkpt><trkpt lat="42.2562307" lon="13.8024044"><ele>332.0</ele><time>2026-05-03T10:28:30.978Z</time></trkpt><trkpt lat="42.256133" lon="13.8024344"><ele>331.0</ele><time>2026-05-03T10:28:31.978Z</time></trkpt><trkpt lat="42.2560332" lon="13.8024585"><ele>330.0</ele><time>2026-05-03T10:28:32.978Z</time></trkpt><trkpt lat="42.2559341" lon="13.8024864"><ele>330.0</ele><time>2026-05-03T10:28:33.978Z</time></trkpt><trkpt lat="42.2558345" lon="13.8025158"><ele>330.0</ele><time>2026-05-03T10:28:34.977Z</time></trkpt><trkpt lat="42.2557376" lon="13.8025486"><ele>330.0</ele><time>2026-05-03T10:28:35.978Z</time></trkpt><trkpt lat="42.2556404" lon="13.8025904"><ele>330.0</ele><time>2026-05-03T10:28:36.978Z</time></trkpt><trkpt lat="42.2555487" lon="13.8026414"><ele>330.0</ele><time>2026-05-03T10:28:37.978Z</time></trkpt><trkpt lat="42.2554593" lon="13.8026995"><ele>330.8333333333333</ele><time>2026-05-03T10:28:38.977Z</time></trkpt><trkpt lat="42.2553744" lon="13.8027552"><ele>331.6666666666667</ele><time>2026-05-03T10:28:39.978Z</time></trkpt><trkpt lat="42.2552932" lon="13.8028092"><ele>332.5</ele><time>2026-05-03T10:28:40.978Z</time></trkpt><trkpt lat="42.255213" lon="13.8028543"><ele>333.33333333333337</ele><time>2026-05-03T10:28:41.977Z</time></trkpt><trkpt lat="42.2551321" lon="13.8028959"><ele>334.1666666666667</ele><time>2026-05-03T10:28:42.977Z</time></trkpt><trkpt lat="42.2550458" lon="13.8029345"><ele>335.0</ele><time>2026-05-03T10:28:43.977Z</time></trkpt><trkpt lat="42.2549551" lon="13.8029663"><ele>335.0</ele><time>2026-05-03T10:28:44.977Z</time></trkpt><trkpt lat="42.2548633" lon="13.8029922"><ele>335.0</ele><time>2026-05-03T10:28:45.978Z</time></trkpt><trkpt lat="42.2547713" lon="13.8030061"><ele>335.0</ele><time>2026-05-03T10:28:46.978Z</time></trkpt><trkpt lat="42.2546788" lon="13.803007"><ele>335.0</ele><time>2026-05-03T10:28:47.978Z</time></trkpt><trkpt lat="42.2545914" lon="13.802999"><ele>335.0</ele><time>2026-05-03T10:28:48.977Z</time></trkpt><trkpt lat="42.2545016" lon="13.8030076"><ele>334.0</ele><time>2026-05-03T10:28:49.977Z</time></trkpt><trkpt lat="42.2544112" lon="13.8030334"><ele>333.0</ele><time>2026-05-03T10:28:50.978Z</time></trkpt><trkpt lat="42.2543134" lon="13.8030691"><ele>332.0</ele><time>2026-05-03T10:28:51.977Z</time></trkpt><trkpt lat="42.2542088" lon="13.8031111"><ele>331.0</ele><time>2026-05-03T10:28:52.978Z</time></trkpt><trkpt lat="42.2541021" lon="13.8031589"><ele>330.0</ele><time>2026-05-03T10:28:53.978Z</time></trkpt><trkpt lat="42.2539939" lon="13.8032085"><ele>328.6</ele><time>2026-05-03T10:28:54.978Z</time></trkpt><trkpt lat="42.2538861" lon="13.8032542"><ele>327.2</ele><time>2026-05-03T10:28:55.978Z</time></trkpt><trkpt lat="42.253784" lon="13.8032912"><ele>325.79999999999995</ele><time>2026-05-03T10:28:56.978Z</time></trkpt><trkpt lat="42.2536878" lon="13.8033283"><ele>324.4</ele><time>2026-05-03T10:28:57.977Z</time></trkpt><trkpt lat="42.2535968" lon="13.8033826"><ele>323.0</ele><time>2026-05-03T10:28:58.977Z</time></trkpt><trkpt lat="42.2535013" lon="13.8034588"><ele>325.25</ele><time>2026-05-03T10:28:59.978Z</time></trkpt><trkpt lat="42.2534017" lon="13.8035389"><ele>327.5</ele><time>2026-05-03T10:29:00.978Z</time></trkpt><trkpt lat="42.2533045" lon="13.8036251"><ele>329.75</ele><time>2026-05-03T10:29:01.978Z</time></trkpt><trkpt lat="42.2532124" lon="13.8037113"><ele>332.0</ele><time>2026-05-03T10:29:02.978Z</time></trkpt><trkpt lat="42.2531239" lon="13.8037956"><ele>331.0</ele><time>2026-05-03T10:29:03.977Z</time></trkpt><trkpt lat="42.2530367" lon="13.8038631"><ele>330.0</ele><time>2026-05-03T10:29:04.978Z</time></trkpt><trkpt lat="42.2529403" lon="13.8039227"><ele>329.0</ele><time>2026-05-03T10:29:05.978Z</time></trkpt><trkpt lat="42.2528382" lon="13.8039717"><ele>328.0</ele><time>2026-05-03T10:29:06.978Z</time></trkpt><trkpt lat="42.2527309" lon="13.8040056"><ele>327.0</ele><time>2026-05-03T10:29:07.978Z</time></trkpt><trkpt lat="42.2526243" lon="13.8040339"><ele>327.0</ele><time>2026-05-03T10:29:08.977Z</time></trkpt><trkpt lat="42.2525207" lon="13.8040593"><ele>327.0</ele><time>2026-05-03T10:29:09.977Z</time></trkpt><trkpt lat="42.2524246" lon="13.8040779"><ele>327.0</ele><time>2026-05-03T10:29:10.977Z</time></trkpt><trkpt lat="42.2523276" lon="13.8040826"><ele>327.0</ele><time>2026-05-03T10:29:11.977Z</time></trkpt><trkpt lat="42.2522276" lon="13.8040677"><ele>327.0</ele><time>2026-05-03T10:29:12.978Z</time></trkpt><trkpt lat="42.2521299" lon="13.8040434"><ele>329.0</ele><time>2026-05-03T10:29:13.978Z</time></trkpt><trkpt lat="42.2520422" lon="13.8040029"><ele>331.0</ele><time>2026-05-03T10:29:14.977Z</time></trkpt><trkpt lat="42.2519616" lon="13.8039473"><ele>333.0</ele><time>2026-05-03T10:29:15.978Z</time></trkpt><trkpt lat="42.2518794" lon="13.8038789"><ele>335.0</ele><time>2026-05-03T10:29:16.978Z</time></trkpt><trkpt lat="42.251803" lon="13.8037988"><ele>337.0</ele><time>2026-05-03T10:29:17.978Z</time></trkpt><trkpt lat="42.2517479" lon="13.8037285"><ele>337.0</ele><time>2026-05-03T10:29:18.978Z</time></trkpt><trkpt lat="42.2516882" lon="13.8036661"><ele>337.0</ele><time>2026-05-03T10:29:20.977Z</time></trkpt><trkpt lat="42.2516198" lon="13.8035971"><ele>337.0</ele><time>2026-05-03T10:29:23.977Z</time></trkpt><trkpt lat="42.2515293" lon="13.8035142"><ele>337.0</ele><time>2026-05-03T10:29:26.978Z</time></trkpt><trkpt lat="42.2514065" lon="13.8034594"><ele>337.0</ele><time>2026-05-03T10:29:28.978Z</time></trkpt><trkpt lat="42.251337" lon="13.8034381"><ele>335.8333333333333</ele><time>2026-05-03T10:29:29.978Z</time></trkpt><trkpt lat="42.2512611" lon="13.8034222"><ele>334.66666666666663</ele><time>2026-05-03T10:29:30.977Z</time></trkpt><trkpt lat="42.2511775" lon="13.8033975"><ele>333.5</ele><time>2026-05-03T10:29:31.978Z</time></trkpt><trkpt lat="42.2510897" lon="13.8033588"><ele>332.3333333333333</ele><time>2026-05-03T10:29:32.978Z</time></trkpt><trkpt lat="42.2510061" lon="13.803333"><ele>331.1666666666667</ele><time>2026-05-03T10:29:33.978Z</time></trkpt><trkpt lat="42.2509204" lon="13.8033207"><ele>330.0</ele><time>2026-05-03T10:29:34.978Z</time></trkpt><trkpt lat="42.250835" lon="13.8033207"><ele>330.0</ele><time>2026-05-03T10:29:35.978Z</time></trkpt><trkpt lat="42.2507488" lon="13.803336"><ele>330.0</ele><time>2026-05-03T10:29:36.978Z</time></trkpt><trkpt lat="42.2506627" lon="13.8033615"><ele>330.0</ele><time>2026-05-03T10:29:37.978Z</time></trkpt><trkpt lat="42.2505731" lon="13.8033965"><ele>330.0</ele><time>2026-05-03T10:29:38.978Z</time></trkpt><trkpt lat="42.2504851" lon="13.8034415"><ele>330.0</ele><time>2026-05-03T10:29:39.977Z</time></trkpt><trkpt lat="42.250396" lon="13.803496"><ele>331.2</ele><time>2026-05-03T10:29:40.978Z</time></trkpt><trkpt lat="42.2503047" lon="13.8035603"><ele>332.4</ele><time>2026-05-03T10:29:41.977Z</time></trkpt><trkpt lat="42.2502149" lon="13.8036322"><ele>333.6</ele><time>2026-05-03T10:29:42.978Z</time></trkpt><trkpt lat="42.2501245" lon="13.8037094"><ele>334.8</ele><time>2026-05-03T10:29:43.978Z</time></trkpt><trkpt lat="42.250037" lon="13.8037861"><ele>336.0</ele><time>2026-05-03T10:29:44.978Z</time></trkpt><trkpt lat="42.2499589" lon="13.8038605"><ele>336.0</ele><time>2026-05-03T10:29:45.978Z</time></trkpt><trkpt lat="42.2498866" lon="13.8039433"><ele>336.0</ele><time>2026-05-03T10:29:46.977Z</time></trkpt><trkpt lat="42.2498188" lon="13.8040448"><ele>336.0</ele><time>2026-05-03T10:29:47.978Z</time></trkpt><trkpt lat="42.2497552" lon="13.8041571"><ele>336.0</ele><time>2026-05-03T10:29:48.977Z</time></trkpt><trkpt lat="42.249695" lon="13.804276"><ele>336.0</ele><time>2026-05-03T10:29:49.978Z</time></trkpt><trkpt lat="42.2496335" lon="13.8043837"><ele>336.1666666666667</ele><time>2026-05-03T10:29:50.977Z</time></trkpt><trkpt lat="42.2495684" lon="13.8044759"><ele>336.3333333333333</ele><time>2026-05-03T10:29:51.977Z</time></trkpt><trkpt lat="42.249504" lon="13.8045688"><ele>336.5</ele><time>2026-05-03T10:29:52.977Z</time></trkpt><trkpt lat="42.249447" lon="13.8046562"><ele>336.66666666666663</ele><time>2026-05-03T10:29:53.977Z</time></trkpt><trkpt lat="42.2494018" lon="13.8047241"><ele>336.8333333333333</ele><time>2026-05-03T10:29:54.977Z</time></trkpt><trkpt lat="42.2493474" lon="13.8047947"><ele>337.0</ele><time>2026-05-03T10:29:55.978Z</time></trkpt><trkpt lat="42.2492844" lon="13.8048793"><ele>337.0</ele><time>2026-05-03T10:29:56.978Z</time></trkpt><trkpt lat="42.2492199" lon="13.8049736"><ele>337.0</ele><time>2026-05-03T10:29:57.977Z</time></trkpt><trkpt lat="42.2491462" lon="13.805057"><ele>337.0</ele><time>2026-05-03T10:29:58.977Z</time></trkpt><trkpt lat="42.2490686" lon="13.8051207"><ele>337.0</ele><time>2026-05-03T10:29:59.978Z</time></trkpt><trkpt lat="42.2489875" lon="13.8051516"><ele>337.0</ele><time>2026-05-03T10:30:00.978Z</time></trkpt><trkpt lat="42.2488993" lon="13.8051685"><ele>336.6</ele><time>2026-05-03T10:30:01.977Z</time></trkpt><trkpt lat="42.2488071" lon="13.805183"><ele>336.20000000000005</ele><time>2026-05-03T10:30:02.978Z</time></trkpt><trkpt lat="42.2487193" lon="13.8052084"><ele>335.8</ele><time>2026-05-03T10:30:03.977Z</time></trkpt><trkpt lat="42.2486329" lon="13.8052519"><ele>335.4</ele><time>2026-05-03T10:30:04.978Z</time></trkpt><trkpt lat="42.2485441" lon="13.8053074"><ele>335.0</ele><time>2026-05-03T10:30:05.978Z</time></trkpt><trkpt lat="42.2484629" lon="13.8053724"><ele>335.0</ele><time>2026-05-03T10:30:06.977Z</time></trkpt><trkpt lat="42.2483928" lon="13.8054387"><ele>335.0</ele><time>2026-05-03T10:30:07.978Z</time></trkpt><trkpt lat="42.2483401" lon="13.8054945"><ele>335.0</ele><time>2026-05-03T10:30:08.978Z</time></trkpt><trkpt lat="42.248288" lon="13.8055695"><ele>335.0</ele><time>2026-05-03T10:30:10.977Z</time></trkpt><trkpt lat="42.2482442" lon="13.8056718"><ele>335.0</ele><time>2026-05-03T10:30:13.977Z</time></trkpt><trkpt lat="42.2481995" lon="13.8057734"><ele>335.0</ele><time>2026-05-03T10:30:15.977Z</time></trkpt><trkpt lat="42.2481449" lon="13.8058469"><ele>333.83333333333337</ele><time>2026-05-03T10:30:18.977Z</time></trkpt><trkpt lat="42.2481039" lon="13.8059474"><ele>332.6666666666667</ele><time>2026-05-03T10:30:20.978Z</time></trkpt><trkpt lat="42.2480662" lon="13.8060267"><ele>331.5</ele><time>2026-05-03T10:30:21.978Z</time></trkpt><trkpt lat="42.2480157" lon="13.8061253"><ele>330.3333333333333</ele><time>2026-05-03T10:30:22.977Z</time></trkpt><trkpt lat="42.2479602" lon="13.8062303"><ele>329.16666666666663</ele><time>2026-05-03T10:30:23.978Z</time></trkpt><trkpt lat="42.2479089" lon="13.8063264"><ele>328.0</ele><time>2026-05-03T10:30:24.978Z</time></trkpt><trkpt lat="42.2478607" lon="13.8064115"><ele>327.99999999999994</ele><time>2026-05-03T10:30:25.977Z</time></trkpt><trkpt lat="42.247825" lon="13.8064874"><ele>328.0</ele><time>2026-05-03T10:30:26.977Z</time></trkpt><trkpt lat="42.2478017" lon="13.8065743"><ele>328.0</ele><time>2026-05-03T10:30:27.977Z</time></trkpt><trkpt lat="42.2477818" lon="13.8066673"><ele>328.0</ele><time>2026-05-03T10:30:28.978Z</time></trkpt><trkpt lat="42.2477652" lon="13.8067667"><ele>328.0</ele><time>2026-05-03T10:30:29.977Z</time></trkpt><trkpt lat="42.2477552" lon="13.8068772"><ele>327.99999999999994</ele><time>2026-05-03T10:30:30.978Z</time></trkpt><trkpt lat="42.2477451" lon="13.8069856"><ele>328.0</ele><time>2026-05-03T10:30:31.978Z</time></trkpt><trkpt lat="42.2477266" lon="13.8070853"><ele>328.0</ele><time>2026-05-03T10:30:32.977Z</time></trkpt><trkpt lat="42.2477076" lon="13.8071688"><ele>328.0</ele><time>2026-05-03T10:30:33.977Z</time></trkpt><trkpt lat="42.2476508" lon="13.8072856"><ele>328.0</ele><time>2026-05-03T10:30:35.977Z</time></trkpt><trkpt lat="42.2476" lon="13.8073494"><ele>328.0</ele><time>2026-05-03T10:30:36.978Z</time></trkpt><trkpt lat="42.2475385" lon="13.8074141"><ele>328.0</ele><time>2026-05-03T10:30:37.977Z</time></trkpt><trkpt lat="42.2474693" lon="13.8074745"><ele>328.0</ele><time>2026-05-03T10:30:38.977Z</time></trkpt><trkpt lat="42.2473935" lon="13.80753"><ele>328.0</ele><time>2026-05-03T10:30:39.978Z</time></trkpt><trkpt lat="42.2473202" lon="13.8075795"><ele>328.0</ele><time>2026-05-03T10:30:40.977Z</time></trkpt><trkpt lat="42.2472511" lon="13.8076388"><ele>328.0</ele><time>2026-05-03T10:30:41.977Z</time></trkpt><trkpt lat="42.247184" lon="13.807711"><ele>328.0</ele><time>2026-05-03T10:30:42.978Z</time></trkpt><trkpt lat="42.2471226" lon="13.8077803"><ele>328.0</ele><time>2026-05-03T10:30:43.978Z</time></trkpt><trkpt lat="42.2470632" lon="13.8078525"><ele>328.0</ele><time>2026-05-03T10:30:44.977Z</time></trkpt><trkpt lat="42.2470054" lon="13.8079319"><ele>327.5</ele><time>2026-05-03T10:30:45.977Z</time></trkpt><trkpt lat="42.2469525" lon="13.8080104"><ele>327.0</ele><time>2026-05-03T10:30:46.977Z</time></trkpt><trkpt lat="42.246905" lon="13.8080986"><ele>326.5</ele><time>2026-05-03T10:30:47.978Z</time></trkpt><trkpt lat="42.2468588" lon="13.8081908"><ele>326.0</ele><time>2026-05-03T10:30:48.977Z</time></trkpt><trkpt lat="42.2468068" lon="13.8082927"><ele>325.5</ele><time>2026-05-03T10:30:49.978Z</time></trkpt><trkpt lat="42.2467857" lon="13.8084206"><ele>325.0</ele><time>2026-05-03T10:30:50.977Z</time></trkpt><trkpt lat="42.2467688" lon="13.8085618"><ele>324.8</ele><time>2026-05-03T10:30:51.978Z</time></trkpt><trkpt lat="42.2467451" lon="13.8086973"><ele>324.6</ele><time>2026-05-03T10:30:52.978Z</time></trkpt><trkpt lat="42.246712" lon="13.808827"><ele>324.4</ele><time>2026-05-03T10:30:53.977Z</time></trkpt><trkpt lat="42.2466788" lon="13.8089584"><ele>324.2</ele><time>2026-05-03T10:30:54.977Z</time></trkpt><trkpt lat="42.2466467" lon="13.8090974"><ele>324.0</ele><time>2026-05-03T10:30:55.977Z</time></trkpt><trkpt lat="42.2466095" lon="13.8092441"><ele>324.2</ele><time>2026-05-03T10:30:56.978Z</time></trkpt><trkpt lat="42.2465716" lon="13.809389"><ele>324.4</ele><time>2026-05-03T10:30:57.977Z</time></trkpt><trkpt lat="42.2465308" lon="13.8095265"><ele>324.6</ele><time>2026-05-03T10:30:58.977Z</time></trkpt><trkpt lat="42.2464867" lon="13.8096538"><ele>324.8</ele><time>2026-05-03T10:30:59.978Z</time></trkpt><trkpt lat="42.2464459" lon="13.8097816"><ele>325.0</ele><time>2026-05-03T10:31:00.978Z</time></trkpt><trkpt lat="42.2464065" lon="13.8099048"><ele>325.0</ele><time>2026-05-03T10:31:01.977Z</time></trkpt><trkpt lat="42.2463597" lon="13.8100186"><ele>325.0</ele><time>2026-05-03T10:31:02.977Z</time></trkpt><trkpt lat="42.246306" lon="13.8101194"><ele>325.0</ele><time>2026-05-03T10:31:03.977Z</time></trkpt><trkpt lat="42.2462414" lon="13.8102127"><ele>325.0</ele><time>2026-05-03T10:31:04.977Z</time></trkpt><trkpt lat="42.2461753" lon="13.8103019"><ele>325.0</ele><time>2026-05-03T10:31:05.978Z</time></trkpt><trkpt lat="42.2461114" lon="13.8103897"><ele>325.0</ele><time>2026-05-03T10:31:06.978Z</time></trkpt><trkpt lat="42.2460459" lon="13.810463"><ele>325.0</ele><time>2026-05-03T10:31:07.978Z</time></trkpt><trkpt lat="42.2459797" lon="13.8105303"><ele>325.0</ele><time>2026-05-03T10:31:08.977Z</time></trkpt><trkpt lat="42.2459128" lon="13.8106102"><ele>325.0</ele><time>2026-05-03T10:31:09.977Z</time></trkpt><trkpt lat="42.2458482" lon="13.8106967"><ele>325.0</ele><time>2026-05-03T10:31:10.977Z</time></trkpt><trkpt lat="42.2457839" lon="13.8107849"><ele>325.0</ele><time>2026-05-03T10:31:11.978Z</time></trkpt><trkpt lat="42.2457182" lon="13.8108778"><ele>325.0</ele><time>2026-05-03T10:31:12.978Z</time></trkpt><trkpt lat="42.2456506" lon="13.8109732"><ele>325.0</ele><time>2026-05-03T10:31:13.978Z</time></trkpt><trkpt lat="42.2455768" lon="13.8110648"><ele>325.0</ele><time>2026-05-03T10:31:14.978Z</time></trkpt><trkpt lat="42.2454978" lon="13.8111477"><ele>325.0</ele><time>2026-05-03T10:31:15.978Z</time></trkpt><trkpt lat="42.2454149" lon="13.8112288"><ele>325.0</ele><time>2026-05-03T10:31:16.978Z</time></trkpt><trkpt lat="42.245339" lon="13.8113085"><ele>324.8333333333333</ele><time>2026-05-03T10:31:17.977Z</time></trkpt><trkpt lat="42.2452702" lon="13.8113817"><ele>324.66666666666663</ele><time>2026-05-03T10:31:18.977Z</time></trkpt><trkpt lat="42.2452114" lon="13.8114622"><ele>324.5</ele><time>2026-05-03T10:31:19.978Z</time></trkpt><trkpt lat="42.2451621" lon="13.8115523"><ele>324.3333333333333</ele><time>2026-05-03T10:31:20.978Z</time></trkpt><trkpt lat="42.2451224" lon="13.8116529"><ele>324.1666666666667</ele><time>2026-05-03T10:31:21.978Z</time></trkpt><trkpt lat="42.2450917" lon="13.8117706"><ele>324.0</ele><time>2026-05-03T10:31:22.978Z</time></trkpt><trkpt lat="42.2450765" lon="13.811885"><ele>324.6666666666667</ele><time>2026-05-03T10:31:23.978Z</time></trkpt><trkpt lat="42.2450543" lon="13.8120049"><ele>325.3333333333333</ele><time>2026-05-03T10:31:24.978Z</time></trkpt><trkpt lat="42.2450252" lon="13.8121261"><ele>326.0</ele><time>2026-05-03T10:31:25.977Z</time></trkpt><trkpt lat="42.2449899" lon="13.8122295"><ele>326.66666666666663</ele><time>2026-05-03T10:31:26.978Z</time></trkpt><trkpt lat="42.2449447" lon="13.8123198"><ele>327.3333333333333</ele><time>2026-05-03T10:31:27.978Z</time></trkpt><trkpt lat="42.2448872" lon="13.8123982"><ele>328.0</ele><time>2026-05-03T10:31:28.977Z</time></trkpt><trkpt lat="42.2448229" lon="13.8124651"><ele>328.5</ele><time>2026-05-03T10:31:29.978Z</time></trkpt><trkpt lat="42.2447542" lon="13.8125191"><ele>329.0</ele><time>2026-05-03T10:31:30.977Z</time></trkpt><trkpt lat="42.244682" lon="13.8125595"><ele>329.5</ele><time>2026-05-03T10:31:31.977Z</time></trkpt><trkpt lat="42.2445966" lon="13.8125896"><ele>330.0</ele><time>2026-05-03T10:31:32.977Z</time></trkpt><trkpt lat="42.2445008" lon="13.8126146"><ele>330.5</ele><time>2026-05-03T10:31:33.978Z</time></trkpt><trkpt lat="42.2444058" lon="13.8126369"><ele>331.0</ele><time>2026-05-03T10:31:34.978Z</time></trkpt><trkpt lat="42.2443148" lon="13.8126789"><ele>331.0</ele><time>2026-05-03T10:31:35.978Z</time></trkpt><trkpt lat="42.2442297" lon="13.8127177"><ele>331.0</ele><time>2026-05-03T10:31:36.978Z</time></trkpt><trkpt lat="42.2441442" lon="13.8127679"><ele>331.0</ele><time>2026-05-03T10:31:37.978Z</time></trkpt><trkpt lat="42.244064" lon="13.8128235"><ele>331.0</ele><time>2026-05-03T10:31:38.978Z</time></trkpt><trkpt lat="42.243982" lon="13.8128671"><ele>331.0</ele><time>2026-05-03T10:31:39.978Z</time></trkpt><trkpt lat="42.2438916" lon="13.8129001"><ele>330.0</ele><time>2026-05-03T10:31:40.977Z</time></trkpt><trkpt lat="42.2438006" lon="13.8129257"><ele>329.0</ele><time>2026-05-03T10:31:41.978Z</time></trkpt><trkpt lat="42.2437147" lon="13.8129599"><ele>328.0</ele><time>2026-05-03T10:31:42.978Z</time></trkpt><trkpt lat="42.2436357" lon="13.8130112"><ele>327.0</ele><time>2026-05-03T10:31:43.977Z</time></trkpt><trkpt lat="42.2435655" lon="13.8130774"><ele>326.0</ele><time>2026-05-03T10:31:44.978Z</time></trkpt><trkpt lat="42.243493" lon="13.8131557"><ele>325.0</ele><time>2026-05-03T10:31:45.977Z</time></trkpt><trkpt lat="42.2434111" lon="13.813246"><ele>325.0</ele><time>2026-05-03T10:31:46.977Z</time></trkpt><trkpt lat="42.2433257" lon="13.813341"><ele>325.0</ele><time>2026-05-03T10:31:47.978Z</time></trkpt><trkpt lat="42.2432437" lon="13.8134449"><ele>325.0</ele><time>2026-05-03T10:31:48.977Z</time></trkpt><trkpt lat="42.2431649" lon="13.8135555"><ele>325.0</ele><time>2026-05-03T10:31:49.978Z</time></trkpt><trkpt lat="42.2430854" lon="13.8136597"><ele>325.0</ele><time>2026-05-03T10:31:50.978Z</time></trkpt><trkpt lat="42.2430066" lon="13.8137586"><ele>324.0</ele><time>2026-05-03T10:31:51.978Z</time></trkpt><trkpt lat="42.2429259" lon="13.8138494"><ele>323.0</ele><time>2026-05-03T10:31:52.978Z</time></trkpt><trkpt lat="42.2428388" lon="13.8139366"><ele>322.0</ele><time>2026-05-03T10:31:53.978Z</time></trkpt><trkpt lat="42.2427497" lon="13.8140252"><ele>321.0</ele><time>2026-05-03T10:31:54.978Z</time></trkpt><trkpt lat="42.2426579" lon="13.814117"><ele>320.0</ele><time>2026-05-03T10:31:55.978Z</time></trkpt><trkpt lat="42.2425702" lon="13.8142058"><ele>320.0</ele><time>2026-05-03T10:31:56.978Z</time></trkpt><trkpt lat="42.2424863" lon="13.8142912"><ele>320.0</ele><time>2026-05-03T10:31:57.978Z</time></trkpt><trkpt lat="42.2424041" lon="13.814371"><ele>320.0</ele><time>2026-05-03T10:31:58.977Z</time></trkpt><trkpt lat="42.2423288" lon="13.8144301"><ele>320.0</ele><time>2026-05-03T10:31:59.978Z</time></trkpt><trkpt lat="42.242267" lon="13.8144667"><ele>320.0</ele><time>2026-05-03T10:32:00.977Z</time></trkpt><trkpt lat="42.2421396" lon="13.8144835"><ele>319.83333333333337</ele><time>2026-05-03T10:32:02.978Z</time></trkpt><trkpt lat="42.2420633" lon="13.8144909"><ele>319.6666666666667</ele><time>2026-05-03T10:32:03.977Z</time></trkpt><trkpt lat="42.2419955" lon="13.8145089"><ele>319.5</ele><time>2026-05-03T10:32:04.978Z</time></trkpt><trkpt lat="42.2419188" lon="13.8145984"><ele>319.3333333333333</ele><time>2026-05-03T10:32:06.978Z</time></trkpt><trkpt lat="42.2418821" lon="13.8147039"><ele>319.16666666666663</ele><time>2026-05-03T10:32:08.978Z</time></trkpt><trkpt lat="42.2418521" lon="13.8148547"><ele>319.0</ele><time>2026-05-03T10:32:10.978Z</time></trkpt><trkpt lat="42.2418278" lon="13.8149412"><ele>319.0</ele><time>2026-05-03T10:32:11.977Z</time></trkpt><trkpt lat="42.2418019" lon="13.8150294"><ele>319.0</ele><time>2026-05-03T10:32:12.978Z</time></trkpt><trkpt lat="42.2417732" lon="13.81513"><ele>319.0</ele><time>2026-05-03T10:32:13.977Z</time></trkpt><trkpt lat="42.2417353" lon="13.8152435"><ele>319.0</ele><time>2026-05-03T10:32:14.978Z</time></trkpt><trkpt lat="42.2417014" lon="13.8153664"><ele>319.0</ele><time>2026-05-03T10:32:15.977Z</time></trkpt><trkpt lat="42.2416776" lon="13.8154953"><ele>319.0</ele><time>2026-05-03T10:32:16.978Z</time></trkpt><trkpt lat="42.2416701" lon="13.8156185"><ele>319.3333333333333</ele><time>2026-05-03T10:32:17.978Z</time></trkpt><trkpt lat="42.2416722" lon="13.8157281"><ele>319.66666666666663</ele><time>2026-05-03T10:32:18.977Z</time></trkpt><trkpt lat="42.241654" lon="13.8158253"><ele>320.0</ele><time>2026-05-03T10:32:19.978Z</time></trkpt><trkpt lat="42.2416099" lon="13.8159099"><ele>320.3333333333333</ele><time>2026-05-03T10:32:20.978Z</time></trkpt><trkpt lat="42.241542" lon="13.8159945"><ele>320.6666666666667</ele><time>2026-05-03T10:32:21.978Z</time></trkpt><trkpt lat="42.2414655" lon="13.8160761"><ele>321.0</ele><time>2026-05-03T10:32:22.978Z</time></trkpt><trkpt lat="42.2413898" lon="13.8161457"><ele>322.6</ele><time>2026-05-03T10:32:23.977Z</time></trkpt><trkpt lat="42.2413133" lon="13.8161999"><ele>324.20000000000005</ele><time>2026-05-03T10:32:24.978Z</time></trkpt><trkpt lat="42.2412258" lon="13.8162406"><ele>325.79999999999995</ele><time>2026-05-03T10:32:25.978Z</time></trkpt><trkpt lat="42.2411296" lon="13.8162703"><ele>327.4</ele><time>2026-05-03T10:32:26.977Z</time></trkpt><trkpt lat="42.2410264" lon="13.8162857"><ele>329.0</ele><time>2026-05-03T10:32:27.977Z</time></trkpt><trkpt lat="42.2409182" lon="13.8162925"><ele>329.0</ele><time>2026-05-03T10:32:28.977Z</time></trkpt><trkpt lat="42.2408099" lon="13.8162962"><ele>329.0</ele><time>2026-05-03T10:32:29.978Z</time></trkpt><trkpt lat="42.2407122" lon="13.8162966"><ele>329.0</ele><time>2026-05-03T10:32:30.978Z</time></trkpt><trkpt lat="42.2406244" lon="13.8162996"><ele>329.0</ele><time>2026-05-03T10:32:31.977Z</time></trkpt><trkpt lat="42.2405323" lon="13.816307"><ele>329.0</ele><time>2026-05-03T10:32:32.978Z</time></trkpt><trkpt lat="42.2404293" lon="13.816311"><ele>328.6</ele><time>2026-05-03T10:32:33.977Z</time></trkpt><trkpt lat="42.2403198" lon="13.8163165"><ele>328.2</ele><time>2026-05-03T10:32:34.977Z</time></trkpt><trkpt lat="42.2402146" lon="13.8163261"><ele>327.8</ele><time>2026-05-03T10:32:35.978Z</time></trkpt><trkpt lat="42.2401172" lon="13.8163363"><ele>327.40000000000003</ele><time>2026-05-03T10:32:36.978Z</time></trkpt><trkpt lat="42.2400263" lon="13.8163576"><ele>327.0</ele><time>2026-05-03T10:32:37.978Z</time></trkpt><trkpt lat="42.2399384" lon="13.8163857"><ele>327.0</ele><time>2026-05-03T10:32:38.977Z</time></trkpt><trkpt lat="42.2398505" lon="13.8164336"><ele>327.0</ele><time>2026-05-03T10:32:39.978Z</time></trkpt><trkpt lat="42.2397555" lon="13.8164569"><ele>327.0</ele><time>2026-05-03T10:32:40.977Z</time></trkpt><trkpt lat="42.2396654" lon="13.8164715"><ele>327.0</ele><time>2026-05-03T10:32:41.978Z</time></trkpt><trkpt lat="42.2395907" lon="13.8164857"><ele>327.0</ele><time>2026-05-03T10:32:42.978Z</time></trkpt><trkpt lat="42.2395171" lon="13.8164633"><ele>327.0</ele><time>2026-05-03T10:32:44.978Z</time></trkpt><trkpt lat="42.2394521" lon="13.8163726"><ele>326.20000000000005</ele><time>2026-05-03T10:32:46.977Z</time></trkpt><trkpt lat="42.239395" lon="13.8162559"><ele>325.4</ele><time>2026-05-03T10:32:48.978Z</time></trkpt><trkpt lat="42.2393161" lon="13.8161777"><ele>324.6</ele><time>2026-05-03T10:32:50.977Z</time></trkpt><trkpt lat="42.2392545" lon="13.8161599"><ele>323.79999999999995</ele><time>2026-05-03T10:32:51.978Z</time></trkpt><trkpt lat="42.2391691" lon="13.8161578"><ele>323.0</ele><time>2026-05-03T10:32:52.978Z</time></trkpt><trkpt lat="42.2390656" lon="13.8161479"><ele>322.0</ele><time>2026-05-03T10:32:53.978Z</time></trkpt><trkpt lat="42.2389554" lon="13.8161206"><ele>321.0</ele><time>2026-05-03T10:32:54.978Z</time></trkpt><trkpt lat="42.238835" lon="13.8160928"><ele>320.0</ele><time>2026-05-03T10:32:55.978Z</time></trkpt><trkpt lat="42.2387132" lon="13.8160759"><ele>319.0</ele><time>2026-05-03T10:32:56.978Z</time></trkpt><trkpt lat="42.2385877" lon="13.8160842"><ele>319.0</ele><time>2026-05-03T10:32:57.978Z</time></trkpt><trkpt lat="42.238455" lon="13.8161199"><ele>319.0</ele><time>2026-05-03T10:32:58.977Z</time></trkpt><trkpt lat="42.2383188" lon="13.8161748"><ele>319.0</ele><time>2026-05-03T10:32:59.977Z</time></trkpt><trkpt lat="42.2381756" lon="13.8162384"><ele>319.0</ele><time>2026-05-03T10:33:00.978Z</time></trkpt><trkpt lat="42.2380199" lon="13.8163075"><ele>319.0</ele><time>2026-05-03T10:33:01.978Z</time></trkpt><trkpt lat="42.2378604" lon="13.8163821"><ele>319.0</ele><time>2026-05-03T10:33:02.978Z</time></trkpt><trkpt lat="42.2377014" lon="13.8164629"><ele>319.0</ele><time>2026-05-03T10:33:03.978Z</time></trkpt><trkpt lat="42.2375461" lon="13.8165473"><ele>319.0</ele><time>2026-05-03T10:33:04.978Z</time></trkpt><trkpt lat="42.2373978" lon="13.8166219"><ele>319.0</ele><time>2026-05-03T10:33:05.977Z</time></trkpt><trkpt lat="42.237253" lon="13.8166737"><ele>319.0</ele><time>2026-05-03T10:33:06.978Z</time></trkpt><trkpt lat="42.2371092" lon="13.8167093"><ele>319.25</ele><time>2026-05-03T10:33:07.978Z</time></trkpt><trkpt lat="42.2369647" lon="13.8167215"><ele>319.5</ele><time>2026-05-03T10:33:08.978Z</time></trkpt><trkpt lat="42.2368262" lon="13.8167102"><ele>319.75</ele><time>2026-05-03T10:33:09.978Z</time></trkpt><trkpt lat="42.2366935" lon="13.8166758"><ele>320.0</ele><time>2026-05-03T10:33:10.978Z</time></trkpt><trkpt lat="42.2365683" lon="13.8166228"><ele>320.5</ele><time>2026-05-03T10:33:11.977Z</time></trkpt><trkpt lat="42.2364485" lon="13.8165537"><ele>321.0</ele><time>2026-05-03T10:33:12.978Z</time></trkpt><trkpt lat="42.2363369" lon="13.8164707"><ele>321.5</ele><time>2026-05-03T10:33:13.978Z</time></trkpt><trkpt lat="42.2362304" lon="13.8163845"><ele>322.0</ele><time>2026-05-03T10:33:14.977Z</time></trkpt><trkpt lat="42.2361272" lon="13.8163041"><ele>322.0</ele><time>2026-05-03T10:33:15.978Z</time></trkpt><trkpt lat="42.2360235" lon="13.8162424"><ele>322.0</ele><time>2026-05-03T10:33:16.978Z</time></trkpt><trkpt lat="42.2359198" lon="13.8162189"><ele>322.0</ele><time>2026-05-03T10:33:17.978Z</time></trkpt><trkpt lat="42.2358138" lon="13.8162204"><ele>322.0</ele><time>2026-05-03T10:33:18.978Z</time></trkpt><trkpt lat="42.2357096" lon="13.8162505"><ele>322.0</ele><time>2026-05-03T10:33:19.978Z</time></trkpt><trkpt lat="42.2356019" lon="13.8163009"><ele>321.0</ele><time>2026-05-03T10:33:20.977Z</time></trkpt><trkpt lat="42.2355007" lon="13.816373"><ele>320.0</ele><time>2026-05-03T10:33:21.978Z</time></trkpt><trkpt lat="42.2354137" lon="13.8164683"><ele>319.0</ele><time>2026-05-03T10:33:22.978Z</time></trkpt><trkpt lat="42.2353365" lon="13.8165823"><ele>318.0</ele><time>2026-05-03T10:33:23.977Z</time></trkpt><trkpt lat="42.2352727" lon="13.8167288"><ele>318.75</ele><time>2026-05-03T10:33:24.977Z</time></trkpt><trkpt lat="42.2352032" lon="13.816873"><ele>319.5</ele><time>2026-05-03T10:33:25.978Z</time></trkpt><trkpt lat="42.2351317" lon="13.8170254"><ele>320.25</ele><time>2026-05-03T10:33:26.977Z</time></trkpt><trkpt lat="42.2350529" lon="13.8171844"><ele>321.0</ele><time>2026-05-03T10:33:27.978Z</time></trkpt><trkpt lat="42.2349669" lon="13.8173465"><ele>321.0</ele><time>2026-05-03T10:33:28.977Z</time></trkpt><trkpt lat="42.2348726" lon="13.8175064"><ele>321.0</ele><time>2026-05-03T10:33:29.978Z</time></trkpt><trkpt lat="42.2347698" lon="13.8176652"><ele>321.0</ele><time>2026-05-03T10:33:30.977Z</time></trkpt><trkpt lat="42.2346578" lon="13.8178195"><ele>322.6666666666667</ele><time>2026-05-03T10:33:31.978Z</time></trkpt><trkpt lat="42.234535" lon="13.817968"><ele>324.33333333333337</ele><time>2026-05-03T10:33:32.977Z</time></trkpt><trkpt lat="42.2344036" lon="13.8181063"><ele>326.0</ele><time>2026-05-03T10:33:33.978Z</time></trkpt><trkpt lat="42.2342621" lon="13.8182285"><ele>326.0</ele><time>2026-05-03T10:33:34.978Z</time></trkpt><trkpt lat="42.2341056" lon="13.8183436"><ele>326.0</ele><time>2026-05-03T10:33:35.978Z</time></trkpt><trkpt lat="42.2339433" lon="13.8184548"><ele>326.0</ele><time>2026-05-03T10:33:36.978Z</time></trkpt><trkpt lat="42.2337709" lon="13.8185557"><ele>327.6666666666667</ele><time>2026-05-03T10:33:37.978Z</time></trkpt><trkpt lat="42.2336003" lon="13.8186597"><ele>329.3333333333333</ele><time>2026-05-03T10:33:38.977Z</time></trkpt><trkpt lat="42.2334277" lon="13.8187567"><ele>331.0</ele><time>2026-05-03T10:33:39.977Z</time></trkpt><trkpt lat="42.2332495" lon="13.8188435"><ele>327.66666666666663</ele><time>2026-05-03T10:33:40.977Z</time></trkpt><trkpt lat="42.2330772" lon="13.8189226"><ele>324.3333333333333</ele><time>2026-05-03T10:33:41.978Z</time></trkpt><trkpt lat="42.2329025" lon="13.8189814"><ele>321.0</ele><time>2026-05-03T10:33:42.978Z</time></trkpt><trkpt lat="42.2327236" lon="13.8190125"><ele>321.0</ele><time>2026-05-03T10:33:43.977Z</time></trkpt><trkpt lat="42.2325411" lon="13.8190244"><ele>321.0</ele><time>2026-05-03T10:33:44.978Z</time></trkpt><trkpt lat="42.2323528" lon="13.819038"><ele>321.0</ele><time>2026-05-03T10:33:45.978Z</time></trkpt><trkpt lat="42.2321661" lon="13.81905"><ele>320.6666666666667</ele><time>2026-05-03T10:33:46.977Z</time></trkpt><trkpt lat="42.2319934" lon="13.8190683"><ele>320.33333333333337</ele><time>2026-05-03T10:33:47.978Z</time></trkpt><trkpt lat="42.2318302" lon="13.8190988"><ele>320.0</ele><time>2026-05-03T10:33:48.977Z</time></trkpt><trkpt lat="42.2316706" lon="13.8191531"><ele>320.0</ele><time>2026-05-03T10:33:49.978Z</time></trkpt><trkpt lat="42.2315218" lon="13.819231"><ele>320.0</ele><time>2026-05-03T10:33:50.978Z</time></trkpt><trkpt lat="42.231383" lon="13.8193194"><ele>320.0</ele><time>2026-05-03T10:33:51.978Z</time></trkpt><trkpt lat="42.231248" lon="13.8194048"><ele>321.25</ele><time>2026-05-03T10:33:52.977Z</time></trkpt><trkpt lat="42.2311114" lon="13.8194813"><ele>322.5</ele><time>2026-05-03T10:33:53.978Z</time></trkpt><trkpt lat="42.2309686" lon="13.8195366"><ele>323.75</ele><time>2026-05-03T10:33:54.978Z</time></trkpt><trkpt lat="42.2308184" lon="13.8195674"><ele>325.0</ele><time>2026-05-03T10:33:55.978Z</time></trkpt><trkpt lat="42.2306621" lon="13.8195874"><ele>322.66666666666663</ele><time>2026-05-03T10:33:56.978Z</time></trkpt><trkpt lat="42.2305011" lon="13.8196099"><ele>320.3333333333333</ele><time>2026-05-03T10:33:57.978Z</time></trkpt><trkpt lat="42.2303365" lon="13.819638"><ele>318.0</ele><time>2026-05-03T10:33:58.977Z</time></trkpt><trkpt lat="42.2301686" lon="13.819663"><ele>318.0</ele><time>2026-05-03T10:33:59.977Z</time></trkpt><trkpt lat="42.2299992" lon="13.8196746"><ele>318.0</ele><time>2026-05-03T10:34:00.977Z</time></trkpt><trkpt lat="42.2298306" lon="13.8196753"><ele>318.0</ele><time>2026-05-03T10:34:01.977Z</time></trkpt><trkpt lat="42.229665" lon="13.8196781"><ele>318.0</ele><time>2026-05-03T10:34:02.977Z</time></trkpt><trkpt lat="42.2295017" lon="13.8196889"><ele>318.0</ele><time>2026-05-03T10:34:03.978Z</time></trkpt><trkpt lat="42.2293408" lon="13.8197059"><ele>318.0</ele><time>2026-05-03T10:34:04.978Z</time></trkpt><trkpt lat="42.2291815" lon="13.8197236"><ele>318.0</ele><time>2026-05-03T10:34:05.977Z</time></trkpt><trkpt lat="42.2290245" lon="13.8197331"><ele>318.0</ele><time>2026-05-03T10:34:06.978Z</time></trkpt><trkpt lat="42.2288687" lon="13.8197409"><ele>318.0</ele><time>2026-05-03T10:34:07.977Z</time></trkpt><trkpt lat="42.2287139" lon="13.8197444"><ele>320.3333333333333</ele><time>2026-05-03T10:34:08.978Z</time></trkpt><trkpt lat="42.2285547" lon="13.8197407"><ele>322.66666666666663</ele><time>2026-05-03T10:34:09.977Z</time></trkpt><trkpt lat="42.2283972" lon="13.8197093"><ele>325.0</ele><time>2026-05-03T10:34:10.978Z</time></trkpt><trkpt lat="42.2282407" lon="13.8196601"><ele>325.0</ele><time>2026-05-03T10:34:11.977Z</time></trkpt><trkpt lat="42.2280823" lon="13.8196107"><ele>325.0</ele><time>2026-05-03T10:34:12.978Z</time></trkpt><trkpt lat="42.2279224" lon="13.8195712"><ele>325.0</ele><time>2026-05-03T10:34:13.978Z</time></trkpt><trkpt lat="42.2277604" lon="13.8195544"><ele>325.0</ele><time>2026-05-03T10:34:14.977Z</time></trkpt><trkpt lat="42.2275978" lon="13.8195575"><ele>325.0</ele><time>2026-05-03T10:34:15.977Z</time></trkpt><trkpt lat="42.2274357" lon="13.8195698"><ele>325.0</ele><time>2026-05-03T10:34:16.977Z</time></trkpt><trkpt lat="42.2272758" lon="13.8195909"><ele>324.5</ele><time>2026-05-03T10:34:17.978Z</time></trkpt><trkpt lat="42.2271235" lon="13.8196221"><ele>324.0</ele><time>2026-05-03T10:34:18.977Z</time></trkpt><trkpt lat="42.22698" lon="13.8196595"><ele>323.5</ele><time>2026-05-03T10:34:19.977Z</time></trkpt><trkpt lat="42.2268481" lon="13.8197111"><ele>323.0</ele><time>2026-05-03T10:34:20.978Z</time></trkpt><trkpt lat="42.2267284" lon="13.8197763"><ele>323.0</ele><time>2026-05-03T10:34:21.978Z</time></trkpt><trkpt lat="42.2266175" lon="13.8198617"><ele>323.0</ele><time>2026-05-03T10:34:22.977Z</time></trkpt><trkpt lat="42.2265089" lon="13.8199722"><ele>323.0</ele><time>2026-05-03T10:34:23.977Z</time></trkpt><trkpt lat="42.2264053" lon="13.8201027"><ele>323.0</ele><time>2026-05-03T10:34:24.978Z</time></trkpt><trkpt lat="42.2263037" lon="13.8202531"><ele>321.33333333333337</ele><time>2026-05-03T10:34:25.978Z</time></trkpt><trkpt lat="42.2262047" lon="13.8204213"><ele>319.6666666666667</ele><time>2026-05-03T10:34:26.977Z</time></trkpt><trkpt lat="42.2261066" lon="13.8206059"><ele>318.0</ele><time>2026-05-03T10:34:27.978Z</time></trkpt><trkpt lat="42.226015" lon="13.8207908"><ele>318.0</ele><time>2026-05-03T10:34:28.978Z</time></trkpt><trkpt lat="42.2259232" lon="13.8209641"><ele>318.0</ele><time>2026-05-03T10:34:29.978Z</time></trkpt><trkpt lat="42.2258256" lon="13.8211232"><ele>318.0</ele><time>2026-05-03T10:34:30.977Z</time></trkpt><trkpt lat="42.2257233" lon="13.8212632"><ele>318.25</ele><time>2026-05-03T10:34:31.977Z</time></trkpt><trkpt lat="42.2256083" lon="13.8213797"><ele>318.5</ele><time>2026-05-03T10:34:32.977Z</time></trkpt><trkpt lat="42.2254781" lon="13.821479"><ele>318.75</ele><time>2026-05-03T10:34:33.978Z</time></trkpt><trkpt lat="42.2253354" lon="13.821556"><ele>319.0</ele><time>2026-05-03T10:34:34.978Z</time></trkpt><trkpt lat="42.2251934" lon="13.8216186"><ele>319.0</ele><time>2026-05-03T10:34:35.978Z</time></trkpt><trkpt lat="42.2250481" lon="13.8216652"><ele>319.0</ele><time>2026-05-03T10:34:36.977Z</time></trkpt><trkpt lat="42.2249086" lon="13.8217018"><ele>319.0</ele><time>2026-05-03T10:34:37.978Z</time></trkpt><trkpt lat="42.2247781" lon="13.8217355"><ele>319.0</ele><time>2026-05-03T10:34:38.978Z</time></trkpt><trkpt lat="42.2246633" lon="13.8217777"><ele>320.0</ele><time>2026-05-03T10:34:39.977Z</time></trkpt><trkpt lat="42.2245633" lon="13.8218241"><ele>321.0</ele><time>2026-05-03T10:34:40.977Z</time></trkpt><trkpt lat="42.2244701" lon="13.8218738"><ele>322.0</ele><time>2026-05-03T10:34:41.977Z</time></trkpt><trkpt lat="42.2243701" lon="13.8219432"><ele>323.0</ele><time>2026-05-03T10:34:42.978Z</time></trkpt><trkpt lat="42.2242445" lon="13.8220305"><ele>323.0</ele><time>2026-05-03T10:34:43.978Z</time></trkpt><trkpt lat="42.2241078" lon="13.8221276"><ele>323.0</ele><time>2026-05-03T10:34:44.977Z</time></trkpt><trkpt lat="42.223979" lon="13.8222486"><ele>323.0</ele><time>2026-05-03T10:34:45.978Z</time></trkpt><trkpt lat="42.223844" lon="13.8223753"><ele>322.0</ele><time>2026-05-03T10:34:46.978Z</time></trkpt><trkpt lat="42.2236943" lon="13.8224883"><ele>321.0</ele><time>2026-05-03T10:34:47.978Z</time></trkpt><trkpt lat="42.2235531" lon="13.82258"><ele>320.0</ele><time>2026-05-03T10:34:48.978Z</time></trkpt><trkpt lat="42.223415" lon="13.8226576"><ele>322.6666666666667</ele><time>2026-05-03T10:34:49.977Z</time></trkpt><trkpt lat="42.2232801" lon="13.82271"><ele>325.3333333333333</ele><time>2026-05-03T10:34:50.978Z</time></trkpt><trkpt lat="42.2231327" lon="13.8227272"><ele>328.0</ele><time>2026-05-03T10:34:51.977Z</time></trkpt><trkpt lat="42.2229713" lon="13.8227113"><ele>328.0</ele><time>2026-05-03T10:34:52.978Z</time></trkpt><trkpt lat="42.2228011" lon="13.822674"><ele>328.0</ele><time>2026-05-03T10:34:53.977Z</time></trkpt><trkpt lat="42.2226314" lon="13.8226359"><ele>328.0</ele><time>2026-05-03T10:34:54.978Z</time></trkpt><trkpt lat="42.2224547" lon="13.822592"><ele>327.3333333333333</ele><time>2026-05-03T10:34:55.978Z</time></trkpt><trkpt lat="42.222276" lon="13.8225431"><ele>326.6666666666667</ele><time>2026-05-03T10:34:56.978Z</time></trkpt><trkpt lat="42.2221059" lon="13.822493"><ele>326.0</ele><time>2026-05-03T10:34:57.978Z</time></trkpt><trkpt lat="42.2219469" lon="13.8224359"><ele>326.0</ele><time>2026-05-03T10:34:58.978Z</time></trkpt><trkpt lat="42.2218032" lon="13.8223799"><ele>326.0</ele><time>2026-05-03T10:34:59.978Z</time></trkpt><trkpt lat="42.2216709" lon="13.8223287"><ele>326.0</ele><time>2026-05-03T10:35:00.978Z</time></trkpt><trkpt lat="42.2215404" lon="13.8222877"><ele>326.0</ele><time>2026-05-03T10:35:01.977Z</time></trkpt><trkpt lat="42.2214083" lon="13.8222565"><ele>326.75</ele><time>2026-05-03T10:35:02.978Z</time></trkpt><trkpt lat="42.2212721" lon="13.822235"><ele>327.5</ele><time>2026-05-03T10:35:03.978Z</time></trkpt><trkpt lat="42.2211417" lon="13.8222246"><ele>328.25</ele><time>2026-05-03T10:35:04.977Z</time></trkpt><trkpt lat="42.2210125" lon="13.822228"><ele>329.0</ele><time>2026-05-03T10:35:05.978Z</time></trkpt><trkpt lat="42.2208977" lon="13.8222469"><ele>329.0</ele><time>2026-05-03T10:35:06.977Z</time></trkpt><trkpt lat="42.2208044" lon="13.8222892"><ele>329.0</ele><time>2026-05-03T10:35:07.978Z</time></trkpt><trkpt lat="42.2207167" lon="13.8223625"><ele>329.0</ele><time>2026-05-03T10:35:08.978Z</time></trkpt><trkpt lat="42.2206262" lon="13.822462"><ele>329.0</ele><time>2026-05-03T10:35:09.978Z</time></trkpt><trkpt lat="42.220529" lon="13.822579"><ele>329.0</ele><time>2026-05-03T10:35:10.978Z</time></trkpt><trkpt lat="42.2204276" lon="13.8227116"><ele>327.75</ele><time>2026-05-03T10:35:11.978Z</time></trkpt><trkpt lat="42.2203225" lon="13.822848"><ele>326.5</ele><time>2026-05-03T10:35:12.978Z</time></trkpt><trkpt lat="42.2202107" lon="13.8229801"><ele>325.25</ele><time>2026-05-03T10:35:13.977Z</time></trkpt><trkpt lat="42.2200956" lon="13.8231053"><ele>324.0</ele><time>2026-05-03T10:35:14.978Z</time></trkpt><trkpt lat="42.2199838" lon="13.8232248"><ele>324.0</ele><time>2026-05-03T10:35:15.978Z</time></trkpt><trkpt lat="42.2198792" lon="13.8233464"><ele>324.0</ele><time>2026-05-03T10:35:16.978Z</time></trkpt><trkpt lat="42.2197765" lon="13.8234679"><ele>324.0</ele><time>2026-05-03T10:35:17.978Z</time></trkpt><trkpt lat="42.2196718" lon="13.8235806"><ele>324.0</ele><time>2026-05-03T10:35:18.977Z</time></trkpt><trkpt lat="42.219558" lon="13.823678"><ele>323.25</ele><time>2026-05-03T10:35:19.977Z</time></trkpt><trkpt lat="42.2194407" lon="13.8237595"><ele>322.5</ele><time>2026-05-03T10:35:20.978Z</time></trkpt><trkpt lat="42.2193214" lon="13.8238288"><ele>321.75</ele><time>2026-05-03T10:35:21.977Z</time></trkpt><trkpt lat="42.2192041" lon="13.8238878"><ele>321.0</ele><time>2026-05-03T10:35:22.978Z</time></trkpt><trkpt lat="42.219091" lon="13.8239413"><ele>321.25</ele><time>2026-05-03T10:35:23.978Z</time></trkpt><trkpt lat="42.2189833" lon="13.8239963"><ele>321.5</ele><time>2026-05-03T10:35:24.978Z</time></trkpt><trkpt lat="42.2188793" lon="13.8240545"><ele>321.75</ele><time>2026-05-03T10:35:25.978Z</time></trkpt><trkpt lat="42.2187657" lon="13.8241124"><ele>322.0</ele><time>2026-05-03T10:35:26.978Z</time></trkpt><trkpt lat="42.2186404" lon="13.8241721"><ele>322.0</ele><time>2026-05-03T10:35:27.977Z</time></trkpt><trkpt lat="42.218511" lon="13.8242291"><ele>322.0</ele><time>2026-05-03T10:35:28.977Z</time></trkpt><trkpt lat="42.2183862" lon="13.8242853"><ele>322.0</ele><time>2026-05-03T10:35:29.978Z</time></trkpt><trkpt lat="42.2182645" lon="13.8243355"><ele>322.0</ele><time>2026-05-03T10:35:30.978Z</time></trkpt><trkpt lat="42.2181456" lon="13.8243728"><ele>322.5</ele><time>2026-05-03T10:35:31.977Z</time></trkpt><trkpt lat="42.2180294" lon="13.8244094"><ele>323.0</ele><time>2026-05-03T10:35:32.978Z</time></trkpt><trkpt lat="42.2179084" lon="13.824458"><ele>323.5</ele><time>2026-05-03T10:35:33.977Z</time></trkpt><trkpt lat="42.2177814" lon="13.824522"><ele>324.0</ele><time>2026-05-03T10:35:34.978Z</time></trkpt><trkpt lat="42.2176568" lon="13.8245902"><ele>324.0</ele><time>2026-05-03T10:35:35.978Z</time></trkpt><trkpt lat="42.2175366" lon="13.8246578"><ele>324.0</ele><time>2026-05-03T10:35:36.978Z</time></trkpt><trkpt lat="42.2174203" lon="13.8247288"><ele>324.0</ele><time>2026-05-03T10:35:37.978Z</time></trkpt><trkpt lat="42.2173105" lon="13.8248021"><ele>324.0</ele><time>2026-05-03T10:35:38.977Z</time></trkpt><trkpt lat="42.2172076" lon="13.8248573"><ele>323.6666666666667</ele><time>2026-05-03T10:35:39.978Z</time></trkpt><trkpt lat="42.2171252" lon="13.824872"><ele>323.3333333333333</ele><time>2026-05-03T10:35:40.978Z</time></trkpt><trkpt lat="42.2170548" lon="13.8248542"><ele>323.0</ele><time>2026-05-03T10:35:41.978Z</time></trkpt><trkpt lat="42.2169964" lon="13.8248012"><ele>322.66666666666663</ele><time>2026-05-03T10:35:42.978Z</time></trkpt><trkpt lat="42.2169485" lon="13.8247092"><ele>322.3333333333333</ele><time>2026-05-03T10:35:43.978Z</time></trkpt><trkpt lat="42.2168946" lon="13.8245652"><ele>322.0</ele><time>2026-05-03T10:35:44.978Z</time></trkpt><trkpt lat="42.2168252" lon="13.8243994"><ele>321.25</ele><time>2026-05-03T10:35:45.978Z</time></trkpt><trkpt lat="42.2167492" lon="13.8242253"><ele>320.5</ele><time>2026-05-03T10:35:46.977Z</time></trkpt><trkpt lat="42.2166769" lon="13.8240578"><ele>319.75</ele><time>2026-05-03T10:35:47.977Z</time></trkpt><trkpt lat="42.2166067" lon="13.8238965"><ele>319.0</ele><time>2026-05-03T10:35:48.977Z</time></trkpt><trkpt lat="42.2165421" lon="13.8237396"><ele>317.75</ele><time>2026-05-03T10:35:49.978Z</time></trkpt><trkpt lat="42.2164788" lon="13.8235882"><ele>316.5</ele><time>2026-05-03T10:35:50.977Z</time></trkpt><trkpt lat="42.2164134" lon="13.8234395"><ele>315.25</ele><time>2026-05-03T10:35:51.977Z</time></trkpt><trkpt lat="42.216348" lon="13.8232881"><ele>314.0</ele><time>2026-05-03T10:35:52.978Z</time></trkpt><trkpt lat="42.2162887" lon="13.8231358"><ele>313.75</ele><time>2026-05-03T10:35:53.977Z</time></trkpt><trkpt lat="42.2162325" lon="13.8229879"><ele>313.5</ele><time>2026-05-03T10:35:54.978Z</time></trkpt><trkpt lat="42.2161742" lon="13.822844"><ele>313.25</ele><time>2026-05-03T10:35:55.977Z</time></trkpt><trkpt lat="42.2161132" lon="13.8227076"><ele>313.0</ele><time>2026-05-03T10:35:56.977Z</time></trkpt><trkpt lat="42.2160509" lon="13.8225741"><ele>313.4</ele><time>2026-05-03T10:35:57.978Z</time></trkpt><trkpt lat="42.2159799" lon="13.8224573"><ele>313.8</ele><time>2026-05-03T10:35:58.977Z</time></trkpt><trkpt lat="42.2158952" lon="13.8223729"><ele>314.2</ele><time>2026-05-03T10:35:59.977Z</time></trkpt><trkpt lat="42.2157993" lon="13.8223208"><ele>314.6</ele><time>2026-05-03T10:36:00.977Z</time></trkpt><trkpt lat="42.2156915" lon="13.8222995"><ele>315.0</ele><time>2026-05-03T10:36:01.978Z</time></trkpt><trkpt lat="42.2155818" lon="13.8222985"><ele>315.5</ele><time>2026-05-03T10:36:02.977Z</time></trkpt><trkpt lat="42.2154686" lon="13.8223262"><ele>316.0</ele><time>2026-05-03T10:36:03.977Z</time></trkpt><trkpt lat="42.2153548" lon="13.8223823"><ele>316.5</ele><time>2026-05-03T10:36:04.977Z</time></trkpt><trkpt lat="42.2152373" lon="13.8224468"><ele>317.0</ele><time>2026-05-03T10:36:05.977Z</time></trkpt><trkpt lat="42.2151166" lon="13.8225137"><ele>317.0</ele><time>2026-05-03T10:36:06.978Z</time></trkpt><trkpt lat="42.2149954" lon="13.8225807"><ele>317.0</ele><time>2026-05-03T10:36:07.977Z</time></trkpt><trkpt lat="42.21488" lon="13.8226449"><ele>317.0</ele><time>2026-05-03T10:36:08.977Z</time></trkpt><trkpt lat="42.2147712" lon="13.8227074"><ele>317.0</ele><time>2026-05-03T10:36:09.977Z</time></trkpt><trkpt lat="42.2146624" lon="13.8227599"><ele>317.0</ele><time>2026-05-03T10:36:10.978Z</time></trkpt><trkpt lat="42.2145611" lon="13.82278"><ele>317.0</ele><time>2026-05-03T10:36:11.977Z</time></trkpt><trkpt lat="42.2144716" lon="13.8227584"><ele>317.0</ele><time>2026-05-03T10:36:12.978Z</time></trkpt><trkpt lat="42.2143845" lon="13.8227036"><ele>317.0</ele><time>2026-05-03T10:36:13.978Z</time></trkpt><trkpt lat="42.2143271" lon="13.8226506"><ele>317.0</ele><time>2026-05-03T10:36:14.977Z</time></trkpt><trkpt lat="42.2142689" lon="13.8225832"><ele>317.0</ele><time>2026-05-03T10:36:16.978Z</time></trkpt><trkpt lat="42.2142174" lon="13.8225281"><ele>317.0</ele><time>2026-05-03T10:36:22.978Z</time></trkpt><trkpt lat="42.214162" lon="13.8224222"><ele>317.0</ele><time>2026-05-03T10:36:24.978Z</time></trkpt><trkpt lat="42.2141252" lon="13.8223524"><ele>317.0</ele><time>2026-05-03T10:36:25.978Z</time></trkpt><trkpt lat="42.2140873" lon="13.8222811"><ele>317.0</ele><time>2026-05-03T10:36:26.977Z</time></trkpt><trkpt lat="42.2140427" lon="13.8221445"><ele>317.0</ele><time>2026-05-03T10:36:28.977Z</time></trkpt><trkpt lat="42.2140675" lon="13.8220338"><ele>317.0</ele><time>2026-05-03T10:36:31.978Z</time></trkpt><trkpt lat="42.2141683" lon="13.82194"><ele>317.0</ele><time>2026-05-03T10:36:33.978Z</time></trkpt><trkpt lat="42.2142376" lon="13.8218683"><ele>317.0</ele><time>2026-05-03T10:36:34.977Z</time></trkpt><trkpt lat="42.2143139" lon="13.8217801"><ele>317.0</ele><time>2026-05-03T10:36:35.978Z</time></trkpt><trkpt lat="42.2143837" lon="13.8216902"><ele>317.0</ele><time>2026-05-03T10:36:36.978Z</time></trkpt><trkpt lat="42.2144478" lon="13.8216093"><ele>317.0</ele><time>2026-05-03T10:36:37.978Z</time></trkpt><trkpt lat="42.2145039" lon="13.8215313"><ele>317.33333333333337</ele><time>2026-05-03T10:36:38.978Z</time></trkpt><trkpt lat="42.214558" lon="13.8214601"><ele>317.6666666666667</ele><time>2026-05-03T10:36:39.978Z</time></trkpt><trkpt lat="42.2146064" lon="13.8213898"><ele>318.0</ele><time>2026-05-03T10:36:40.977Z</time></trkpt><trkpt lat="42.2146543" lon="13.8213195"><ele>318.3333333333333</ele><time>2026-05-03T10:36:41.978Z</time></trkpt><trkpt lat="42.2147021" lon="13.8212434"><ele>318.66666666666663</ele><time>2026-05-03T10:36:42.977Z</time></trkpt><trkpt lat="42.214745" lon="13.8211727"><ele>319.0</ele><time>2026-05-03T10:36:43.978Z</time></trkpt><trkpt lat="42.2148132" lon="13.8210432"><ele>319.0</ele><time>2026-05-03T10:36:45.978Z</time></trkpt><trkpt lat="42.2148863" lon="13.8209383"><ele>319.0</ele><time>2026-05-03T10:36:47.977Z</time></trkpt><trkpt lat="42.2149814" lon="13.8208296"><ele>319.0</ele><time>2026-05-03T10:36:49.978Z</time></trkpt><trkpt lat="42.2150257" lon="13.8207639"><ele>319.0</ele><time>2026-05-03T10:36:50.978Z</time></trkpt><trkpt lat="42.2150729" lon="13.8206926"><ele>319.0</ele><time>2026-05-03T10:36:51.978Z</time></trkpt><trkpt lat="42.2151204" lon="13.8206256"><ele>319.0</ele><time>2026-05-03T10:36:52.978Z</time></trkpt><trkpt lat="42.2151673" lon="13.8205612"><ele>319.0</ele><time>2026-05-03T10:36:53.978Z</time></trkpt><trkpt lat="42.2152092" lon="13.8204972"><ele>319.0</ele><time>2026-05-03T10:36:54.978Z</time></trkpt><trkpt lat="42.2152639" lon="13.8203858"><ele>319.0</ele><time>2026-05-03T10:36:56.977Z</time></trkpt><trkpt lat="42.2152303" lon="13.820291"><ele>319.0</ele><time>2026-05-03T10:36:58.978Z</time></trkpt><trkpt lat="42.2151515" lon="13.8202545"><ele>319.0</ele><time>2026-05-03T10:37:00.977Z</time></trkpt><trkpt lat="42.2150763" lon="13.8202565"><ele>319.0</ele><time>2026-05-03T10:37:02.978Z</time></trkpt><trkpt lat="42.2150088" lon="13.8202747"><ele>319.0</ele><time>2026-05-03T10:37:05.978Z</time></trkpt></trkseg><trkseg><trkpt lat="42.2149193" lon="13.820321"><ele>319.0</ele><time>2026-05-03T10:47:13.978Z</time></trkpt><trkpt lat="42.2149" lon="13.8204214"><ele>319.0</ele><time>2026-05-03T10:47:16.978Z</time></trkpt><trkpt lat="42.2149399" lon="13.8206329"><ele>319.0</ele><time>2026-05-03T10:47:19.977Z</time></trkpt><trkpt lat="42.2149406" lon="13.8207191"><ele>319.0</ele><time>2026-05-03T10:47:21.978Z</time></trkpt><trkpt lat="42.2149045" lon="13.8208571"><ele>319.0</ele><time>2026-05-03T10:47:24.978Z</time></trkpt><trkpt lat="42.2148561" lon="13.8209338"><ele>319.0</ele><time>2026-05-03T10:47:25.978Z</time></trkpt><trkpt lat="42.2147972" lon="13.8210106"><ele>319.0</ele><time>2026-05-03T10:47:26.977Z</time></trkpt><trkpt lat="42.2147418" lon="13.8210943"><ele>319.0</ele><time>2026-05-03T10:47:27.978Z</time></trkpt><trkpt lat="42.214691" lon="13.8211659"><ele>319.0</ele><time>2026-05-03T10:47:28.978Z</time></trkpt><trkpt lat="42.2146439" lon="13.821233"><ele>319.0</ele><time>2026-05-03T10:47:29.978Z</time></trkpt><trkpt lat="42.2145944" lon="13.8213071"><ele>319.0</ele><time>2026-05-03T10:47:30.978Z</time></trkpt><trkpt lat="42.2145384" lon="13.8213891"><ele>319.0</ele><time>2026-05-03T10:47:31.977Z</time></trkpt><trkpt lat="42.2144751" lon="13.821484"><ele>319.0</ele><time>2026-05-03T10:47:32.978Z</time></trkpt><trkpt lat="42.2144055" lon="13.8215872"><ele>319.0</ele><time>2026-05-03T10:47:33.978Z</time></trkpt><trkpt lat="42.2142416" lon="13.8217902"><ele>319.0</ele><time>2026-05-03T10:47:36.318Z</time></trkpt><trkpt lat="42.2141261" lon="13.8218885"><ele>318.66666666666663</ele><time>2026-05-03T10:47:37.968Z</time></trkpt><trkpt lat="42.2140521" lon="13.8219389"><ele>318.3333333333333</ele><time>2026-05-03T10:47:38.969Z</time></trkpt><trkpt lat="42.2139826" lon="13.8219796"><ele>318.0</ele><time>2026-05-03T10:47:39.969Z</time></trkpt><trkpt lat="42.2139206" lon="13.8220132"><ele>317.6666666666667</ele><time>2026-05-03T10:47:40.968Z</time></trkpt><trkpt lat="42.2138362" lon="13.8220475"><ele>317.33333333333337</ele><time>2026-05-03T10:47:42.969Z</time></trkpt><trkpt lat="42.2137662" lon="13.8220441"><ele>317.0</ele><time>2026-05-03T10:47:46.968Z</time></trkpt><trkpt lat="42.2136744" lon="13.8220957"><ele>317.0</ele><time>2026-05-03T10:47:49.969Z</time></trkpt><trkpt lat="42.2135543" lon="13.8221456"><ele>317.0</ele><time>2026-05-03T10:47:51.968Z</time></trkpt><trkpt lat="42.2134802" lon="13.8221722"><ele>317.0</ele><time>2026-05-03T10:47:52.968Z</time></trkpt><trkpt lat="42.2134071" lon="13.8222063"><ele>317.0</ele><time>2026-05-03T10:47:53.968Z</time></trkpt><trkpt lat="42.2133346" lon="13.822235"><ele>317.0</ele><time>2026-05-03T10:47:54.968Z</time></trkpt><trkpt lat="42.2132654" lon="13.8222538"><ele>317.0</ele><time>2026-05-03T10:47:55.969Z</time></trkpt><trkpt lat="42.2131642" lon="13.8222192"><ele>317.1666666666667</ele><time>2026-05-03T10:47:57.969Z</time></trkpt><trkpt lat="42.2131297" lon="13.8221019"><ele>317.33333333333337</ele><time>2026-05-03T10:47:59.968Z</time></trkpt><trkpt lat="42.2131292" lon="13.8220143"><ele>317.5</ele><time>2026-05-03T10:48:00.968Z</time></trkpt><trkpt lat="42.2131377" lon="13.8219082"><ele>317.6666666666667</ele><time>2026-05-03T10:48:01.968Z</time></trkpt><trkpt lat="42.2131476" lon="13.8217902"><ele>317.8333333333333</ele><time>2026-05-03T10:48:02.969Z</time></trkpt><trkpt lat="42.2131617" lon="13.8216616"><ele>318.0</ele><time>2026-05-03T10:48:03.969Z</time></trkpt><trkpt lat="42.213177" lon="13.8215209"><ele>318.0</ele><time>2026-05-03T10:48:04.969Z</time></trkpt><trkpt lat="42.2131922" lon="13.8213936"><ele>318.0</ele><time>2026-05-03T10:48:05.968Z</time></trkpt><trkpt lat="42.2132061" lon="13.8212732"><ele>318.0</ele><time>2026-05-03T10:48:06.968Z</time></trkpt><trkpt lat="42.2132169" lon="13.8211421"><ele>318.0</ele><time>2026-05-03T10:48:07.968Z</time></trkpt><trkpt lat="42.2132223" lon="13.8209997"><ele>318.0</ele><time>2026-05-03T10:48:08.968Z</time></trkpt><trkpt lat="42.2132201" lon="13.8208461"><ele>317.4</ele><time>2026-05-03T10:48:09.968Z</time></trkpt><trkpt lat="42.2132083" lon="13.8206817"><ele>316.8</ele><time>2026-05-03T10:48:10.968Z</time></trkpt><trkpt lat="42.2131953" lon="13.8205357"><ele>316.2</ele><time>2026-05-03T10:48:11.969Z</time></trkpt><trkpt lat="42.2131856" lon="13.8203942"><ele>315.6</ele><time>2026-05-03T10:48:12.969Z</time></trkpt><trkpt lat="42.2131886" lon="13.8202632"><ele>315.0</ele><time>2026-05-03T10:48:13.969Z</time></trkpt><trkpt lat="42.2132196" lon="13.8201534"><ele>315.0</ele><time>2026-05-03T10:48:14.968Z</time></trkpt><trkpt lat="42.2132733" lon="13.8200755"><ele>315.0</ele><time>2026-05-03T10:48:15.969Z</time></trkpt><trkpt lat="42.2133444" lon="13.8200349"><ele>315.0</ele><time>2026-05-03T10:48:16.969Z</time></trkpt><trkpt lat="42.2134283" lon="13.8200304"><ele>315.0</ele><time>2026-05-03T10:48:17.968Z</time></trkpt><trkpt lat="42.2135014" lon="13.8200694"><ele>315.0</ele><time>2026-05-03T10:48:18.968Z</time></trkpt><trkpt lat="42.2135532" lon="13.8201341"><ele>315.0</ele><time>2026-05-03T10:48:19.969Z</time></trkpt><trkpt lat="42.213589" lon="13.8202181"><ele>315.0</ele><time>2026-05-03T10:48:20.969Z</time></trkpt><trkpt lat="42.21358" lon="13.8203666"><ele>315.0</ele><time>2026-05-03T10:48:22.969Z</time></trkpt><trkpt lat="42.2134895" lon="13.8204964"><ele>315.0</ele><time>2026-05-03T10:48:24.969Z</time></trkpt><trkpt lat="42.2133931" lon="13.8205649"><ele>315.0</ele><time>2026-05-03T10:48:25.969Z</time></trkpt><trkpt lat="42.2132781" lon="13.8206437"><ele>315.0</ele><time>2026-05-03T10:48:26.969Z</time></trkpt><trkpt lat="42.2131565" lon="13.8207264"><ele>315.0</ele><time>2026-05-03T10:48:27.968Z</time></trkpt><trkpt lat="42.2130213" lon="13.8208168"><ele>315.0</ele><time>2026-05-03T10:48:28.968Z</time></trkpt><trkpt lat="42.2128783" lon="13.8209167"><ele>315.0</ele><time>2026-05-03T10:48:29.968Z</time></trkpt><trkpt lat="42.2127283" lon="13.8210179"><ele>315.0</ele><time>2026-05-03T10:48:30.968Z</time></trkpt><trkpt lat="42.2125603" lon="13.8211289"><ele>315.0</ele><time>2026-05-03T10:48:31.968Z</time></trkpt><trkpt lat="42.2123785" lon="13.8212451"><ele>315.0</ele><time>2026-05-03T10:48:32.968Z</time></trkpt><trkpt lat="42.2121898" lon="13.8213675"><ele>315.3333333333333</ele><time>2026-05-03T10:48:33.968Z</time></trkpt><trkpt lat="42.2119956" lon="13.8214943"><ele>315.66666666666663</ele><time>2026-05-03T10:48:34.969Z</time></trkpt><trkpt lat="42.2117986" lon="13.8216255"><ele>316.0</ele><time>2026-05-03T10:48:35.969Z</time></trkpt><trkpt lat="42.2115978" lon="13.8217569"><ele>314.0</ele><time>2026-05-03T10:48:36.969Z</time></trkpt><trkpt lat="42.211395" lon="13.8218898"><ele>312.0</ele><time>2026-05-03T10:48:37.969Z</time></trkpt><trkpt lat="42.2111897" lon="13.8220233"><ele>312.0</ele><time>2026-05-03T10:48:38.969Z</time></trkpt><trkpt lat="42.2109826" lon="13.8221566"><ele>312.0</ele><time>2026-05-03T10:48:39.969Z</time></trkpt><trkpt lat="42.2107767" lon="13.8222896"><ele>311.6666666666667</ele><time>2026-05-03T10:48:40.969Z</time></trkpt><trkpt lat="42.2105727" lon="13.8224222"><ele>311.33333333333337</ele><time>2026-05-03T10:48:41.968Z</time></trkpt><trkpt lat="42.2103781" lon="13.8225504"><ele>311.0</ele><time>2026-05-03T10:48:42.969Z</time></trkpt><trkpt lat="42.2101874" lon="13.8226766"><ele>311.0</ele><time>2026-05-03T10:48:43.969Z</time></trkpt><trkpt lat="42.2100042" lon="13.8227934"><ele>311.0</ele><time>2026-05-03T10:48:44.969Z</time></trkpt><trkpt lat="42.2098269" lon="13.8229066"><ele>311.0</ele><time>2026-05-03T10:48:45.968Z</time></trkpt><trkpt lat="42.209656" lon="13.823017"><ele>313.0</ele><time>2026-05-03T10:48:46.968Z</time></trkpt><trkpt lat="42.209488" lon="13.8231262"><ele>315.0</ele><time>2026-05-03T10:48:47.969Z</time></trkpt><trkpt lat="42.2093252" lon="13.8232367"><ele>317.0</ele><time>2026-05-03T10:48:48.969Z</time></trkpt><trkpt lat="42.2091675" lon="13.8233517"><ele>317.0</ele><time>2026-05-03T10:48:49.969Z</time></trkpt><trkpt lat="42.2090149" lon="13.8234717"><ele>317.0</ele><time>2026-05-03T10:48:50.968Z</time></trkpt><trkpt lat="42.2088666" lon="13.8235931"><ele>317.0</ele><time>2026-05-03T10:48:51.969Z</time></trkpt><trkpt lat="42.2087197" lon="13.823719"><ele>317.6666666666667</ele><time>2026-05-03T10:48:52.969Z</time></trkpt><trkpt lat="42.2085756" lon="13.8238493"><ele>318.3333333333333</ele><time>2026-05-03T10:48:53.968Z</time></trkpt><trkpt lat="42.2084348" lon="13.8239874"><ele>319.0</ele><time>2026-05-03T10:48:54.968Z</time></trkpt><trkpt lat="42.208298" lon="13.8241323"><ele>319.0</ele><time>2026-05-03T10:48:55.969Z</time></trkpt><trkpt lat="42.2081636" lon="13.8242834"><ele>319.0</ele><time>2026-05-03T10:48:56.968Z</time></trkpt><trkpt lat="42.2080356" lon="13.8244428"><ele>319.0</ele><time>2026-05-03T10:48:57.969Z</time></trkpt><trkpt lat="42.2079152" lon="13.8246127"><ele>317.0</ele><time>2026-05-03T10:48:58.968Z</time></trkpt><trkpt lat="42.2078011" lon="13.8247917"><ele>315.0</ele><time>2026-05-03T10:48:59.969Z</time></trkpt><trkpt lat="42.2076919" lon="13.8249785"><ele>313.0</ele><time>2026-05-03T10:49:00.968Z</time></trkpt><trkpt lat="42.207589" lon="13.8251734"><ele>313.0</ele><time>2026-05-03T10:49:01.969Z</time></trkpt><trkpt lat="42.2074902" lon="13.8253747"><ele>313.0</ele><time>2026-05-03T10:49:02.969Z</time></trkpt><trkpt lat="42.2073915" lon="13.8255781"><ele>313.0</ele><time>2026-05-03T10:49:03.968Z</time></trkpt><trkpt lat="42.2072871" lon="13.8257772"><ele>313.0</ele><time>2026-05-03T10:49:04.969Z</time></trkpt><trkpt lat="42.2071781" lon="13.8259703"><ele>313.0</ele><time>2026-05-03T10:49:05.969Z</time></trkpt><trkpt lat="42.2070641" lon="13.8261596"><ele>313.0</ele><time>2026-05-03T10:49:06.969Z</time></trkpt><trkpt lat="42.2069428" lon="13.8263404"><ele>313.0</ele><time>2026-05-03T10:49:07.968Z</time></trkpt><trkpt lat="42.206815" lon="13.8265145"><ele>313.0</ele><time>2026-05-03T10:49:08.969Z</time></trkpt><trkpt lat="42.2066814" lon="13.8266815"><ele>313.0</ele><time>2026-05-03T10:49:09.969Z</time></trkpt><trkpt lat="42.2065469" lon="13.8268477"><ele>316.66666666666663</ele><time>2026-05-03T10:49:10.969Z</time></trkpt><trkpt lat="42.2064172" lon="13.827023"><ele>320.3333333333333</ele><time>2026-05-03T10:49:11.968Z</time></trkpt><trkpt lat="42.2062949" lon="13.8272094"><ele>324.0</ele><time>2026-05-03T10:49:12.969Z</time></trkpt><trkpt lat="42.2061803" lon="13.8274058"><ele>324.0</ele><time>2026-05-03T10:49:13.968Z</time></trkpt><trkpt lat="42.2060768" lon="13.8276118"><ele>324.0</ele><time>2026-05-03T10:49:14.968Z</time></trkpt><trkpt lat="42.2059888" lon="13.827831"><ele>324.0</ele><time>2026-05-03T10:49:15.969Z</time></trkpt><trkpt lat="42.2059152" lon="13.8280605"><ele>317.6666666666667</ele><time>2026-05-03T10:49:16.969Z</time></trkpt><trkpt lat="42.205856" lon="13.8282998"><ele>311.33333333333337</ele><time>2026-05-03T10:49:17.968Z</time></trkpt><trkpt lat="42.205806" lon="13.828546"><ele>305.0</ele><time>2026-05-03T10:49:18.969Z</time></trkpt><trkpt lat="42.2057611" lon="13.8287977"><ele>308.0</ele><time>2026-05-03T10:49:19.969Z</time></trkpt><trkpt lat="42.205712" lon="13.8290541"><ele>311.0</ele><time>2026-05-03T10:49:20.969Z</time></trkpt><trkpt lat="42.2056642" lon="13.8293142"><ele>314.0</ele><time>2026-05-03T10:49:21.969Z</time></trkpt><trkpt lat="42.2056196" lon="13.8295796"><ele>314.0</ele><time>2026-05-03T10:49:22.968Z</time></trkpt><trkpt lat="42.2055803" lon="13.8298494"><ele>314.0</ele><time>2026-05-03T10:49:23.969Z</time></trkpt><trkpt lat="42.2055392" lon="13.8301171"><ele>314.0</ele><time>2026-05-03T10:49:24.969Z</time></trkpt><trkpt lat="42.2054969" lon="13.8303725"><ele>310.6666666666667</ele><time>2026-05-03T10:49:25.969Z</time></trkpt><trkpt lat="42.2054538" lon="13.8306224"><ele>307.3333333333333</ele><time>2026-05-03T10:49:26.968Z</time></trkpt><trkpt lat="42.2054093" lon="13.8308774"><ele>304.0</ele><time>2026-05-03T10:49:27.969Z</time></trkpt><trkpt lat="42.2053607" lon="13.8311338"><ele>301.3333333333333</ele><time>2026-05-03T10:49:28.968Z</time></trkpt><trkpt lat="42.2053086" lon="13.831395"><ele>298.6666666666667</ele><time>2026-05-03T10:49:29.969Z</time></trkpt><trkpt lat="42.2052497" lon="13.831655"><ele>296.0</ele><time>2026-05-03T10:49:30.968Z</time></trkpt><trkpt lat="42.2051785" lon="13.8319123"><ele>291.33333333333337</ele><time>2026-05-03T10:49:31.969Z</time></trkpt><trkpt lat="42.2050998" lon="13.8321698"><ele>286.6666666666667</ele><time>2026-05-03T10:49:32.969Z</time></trkpt><trkpt lat="42.2050106" lon="13.8324257"><ele>282.0</ele><time>2026-05-03T10:49:33.969Z</time></trkpt><trkpt lat="42.2049127" lon="13.8326812"><ele>287.6666666666667</ele><time>2026-05-03T10:49:34.969Z</time></trkpt><trkpt lat="42.2048095" lon="13.8329386"><ele>293.33333333333337</ele><time>2026-05-03T10:49:35.968Z</time></trkpt><trkpt lat="42.2047047" lon="13.8331998"><ele>299.0</ele><time>2026-05-03T10:49:36.968Z</time></trkpt><trkpt lat="42.2046029" lon="13.8334638"><ele>293.33333333333337</ele><time>2026-05-03T10:49:37.969Z</time></trkpt><trkpt lat="42.2044987" lon="13.8337301"><ele>287.6666666666667</ele><time>2026-05-03T10:49:38.968Z</time></trkpt><trkpt lat="42.2043993" lon="13.8339899"><ele>282.0</ele><time>2026-05-03T10:49:39.968Z</time></trkpt><trkpt lat="42.2042939" lon="13.8342378"><ele>277.0</ele><time>2026-05-03T10:49:40.969Z</time></trkpt><trkpt lat="42.2041986" lon="13.8344767"><ele>272.0</ele><time>2026-05-03T10:49:41.968Z</time></trkpt><trkpt lat="42.2041048" lon="13.8347055"><ele>267.0</ele><time>2026-05-03T10:49:42.969Z</time></trkpt><trkpt lat="42.2040127" lon="13.8349344"><ele>269.6666666666667</ele><time>2026-05-03T10:49:43.968Z</time></trkpt><trkpt lat="42.2039251" lon="13.8351604"><ele>272.33333333333337</ele><time>2026-05-03T10:49:44.968Z</time></trkpt><trkpt lat="42.2038326" lon="13.8353901"><ele>275.0</ele><time>2026-05-03T10:49:45.969Z</time></trkpt><trkpt lat="42.2037301" lon="13.835609"><ele>275.0</ele><time>2026-05-03T10:49:46.968Z</time></trkpt><trkpt lat="42.2036166" lon="13.8358166"><ele>275.0</ele><time>2026-05-03T10:49:47.968Z</time></trkpt><trkpt lat="42.2034948" lon="13.8360156"><ele>275.0</ele><time>2026-05-03T10:49:48.968Z</time></trkpt><trkpt lat="42.2033625" lon="13.8362048"><ele>271.33333333333337</ele><time>2026-05-03T10:49:49.969Z</time></trkpt><trkpt lat="42.203214" lon="13.8363816"><ele>267.6666666666667</ele><time>2026-05-03T10:49:50.968Z</time></trkpt><trkpt lat="42.2030534" lon="13.8365438"><ele>264.0</ele><time>2026-05-03T10:49:51.968Z</time></trkpt><trkpt lat="42.2028855" lon="13.836695"><ele>260.6666666666667</ele><time>2026-05-03T10:49:52.969Z</time></trkpt><trkpt lat="42.2027064" lon="13.8368264"><ele>257.33333333333337</ele><time>2026-05-03T10:49:53.969Z</time></trkpt><trkpt lat="42.2025197" lon="13.8369406"><ele>254.0</ele><time>2026-05-03T10:49:54.969Z</time></trkpt><trkpt lat="42.2023254" lon="13.8370405"><ele>254.0</ele><time>2026-05-03T10:49:55.969Z</time></trkpt><trkpt lat="42.202127" lon="13.837126"><ele>254.0</ele><time>2026-05-03T10:49:56.968Z</time></trkpt><trkpt lat="42.2019237" lon="13.8371898"><ele>254.0</ele><time>2026-05-03T10:49:57.969Z</time></trkpt><trkpt lat="42.201717" lon="13.8372315"><ele>254.0</ele><time>2026-05-03T10:49:58.969Z</time></trkpt><trkpt lat="42.2015092" lon="13.83726"><ele>254.0</ele><time>2026-05-03T10:49:59.968Z</time></trkpt><trkpt lat="42.2013011" lon="13.8372892"><ele>254.0</ele><time>2026-05-03T10:50:00.969Z</time></trkpt><trkpt lat="42.2010934" lon="13.8373173"><ele>255.0</ele><time>2026-05-03T10:50:01.968Z</time></trkpt><trkpt lat="42.2008869" lon="13.8373465"><ele>256.0</ele><time>2026-05-03T10:50:02.969Z</time></trkpt><trkpt lat="42.2006813" lon="13.8373771"><ele>257.0</ele><time>2026-05-03T10:50:03.969Z</time></trkpt><trkpt lat="42.2004705" lon="13.8374076"><ele>259.0</ele><time>2026-05-03T10:50:04.968Z</time></trkpt><trkpt lat="42.2002516" lon="13.8374394"><ele>261.0</ele><time>2026-05-03T10:50:05.969Z</time></trkpt><trkpt lat="42.2000351" lon="13.8374758"><ele>263.0</ele><time>2026-05-03T10:50:06.969Z</time></trkpt><trkpt lat="42.1998223" lon="13.8375155"><ele>265.0</ele><time>2026-05-03T10:50:07.968Z</time></trkpt><trkpt lat="42.199611" lon="13.8375497"><ele>267.0</ele><time>2026-05-03T10:50:08.968Z</time></trkpt><trkpt lat="42.1994054" lon="13.8375765"><ele>269.0</ele><time>2026-05-03T10:50:09.969Z</time></trkpt><trkpt lat="42.1992069" lon="13.8375861"><ele>269.0</ele><time>2026-05-03T10:50:10.969Z</time></trkpt><trkpt lat="42.199009" lon="13.8375741"><ele>269.0</ele><time>2026-05-03T10:50:11.968Z</time></trkpt><trkpt lat="42.1988174" lon="13.8375373"><ele>269.0</ele><time>2026-05-03T10:50:12.969Z</time></trkpt><trkpt lat="42.1986242" lon="13.8374882"><ele>268.0</ele><time>2026-05-03T10:50:13.969Z</time></trkpt><trkpt lat="42.1984264" lon="13.8374456"><ele>267.0</ele><time>2026-05-03T10:50:14.969Z</time></trkpt><trkpt lat="42.1982271" lon="13.8374218"><ele>266.0</ele><time>2026-05-03T10:50:15.968Z</time></trkpt><trkpt lat="42.198028" lon="13.8374227"><ele>265.33333333333337</ele><time>2026-05-03T10:50:16.969Z</time></trkpt><trkpt lat="42.1978298" lon="13.8374498"><ele>264.6666666666667</ele><time>2026-05-03T10:50:17.968Z</time></trkpt><trkpt lat="42.1976328" lon="13.837503"><ele>264.0</ele><time>2026-05-03T10:50:18.968Z</time></trkpt><trkpt lat="42.1974418" lon="13.8375845"><ele>265.6666666666667</ele><time>2026-05-03T10:50:19.969Z</time></trkpt><trkpt lat="42.1972551" lon="13.8376852"><ele>267.33333333333337</ele><time>2026-05-03T10:50:20.968Z</time></trkpt><trkpt lat="42.1970757" lon="13.8378083"><ele>269.0</ele><time>2026-05-03T10:50:21.969Z</time></trkpt><trkpt lat="42.196903" lon="13.8379536"><ele>269.0</ele><time>2026-05-03T10:50:22.968Z</time></trkpt><trkpt lat="42.196742" lon="13.8381208"><ele>269.0</ele><time>2026-05-03T10:50:23.969Z</time></trkpt><trkpt lat="42.1965922" lon="13.838309"><ele>269.0</ele><time>2026-05-03T10:50:24.968Z</time></trkpt><trkpt lat="42.1964567" lon="13.8385153"><ele>278.33333333333337</ele><time>2026-05-03T10:50:25.969Z</time></trkpt><trkpt lat="42.1963365" lon="13.8387384"><ele>287.6666666666667</ele><time>2026-05-03T10:50:26.969Z</time></trkpt><trkpt lat="42.1962351" lon="13.8389775"><ele>297.0</ele><time>2026-05-03T10:50:27.969Z</time></trkpt><trkpt lat="42.1961521" lon="13.8392301"><ele>291.6666666666667</ele><time>2026-05-03T10:50:28.969Z</time></trkpt><trkpt lat="42.1960861" lon="13.8394921"><ele>286.33333333333337</ele><time>2026-05-03T10:50:29.968Z</time></trkpt><trkpt lat="42.1960412" lon="13.8397642"><ele>281.0</ele><time>2026-05-03T10:50:30.968Z</time></trkpt><trkpt lat="42.196018" lon="13.8400534"><ele>278.0</ele><time>2026-05-03T10:50:31.969Z</time></trkpt><trkpt lat="42.1960091" lon="13.840362"><ele>275.0</ele><time>2026-05-03T10:50:32.969Z</time></trkpt><trkpt lat="42.1959978" lon="13.8406855"><ele>271.0</ele><time>2026-05-03T10:50:33.969Z</time></trkpt><trkpt lat="42.1959654" lon="13.8410023"><ele>267.0</ele><time>2026-05-03T10:50:34.968Z</time></trkpt><trkpt lat="42.1959232" lon="13.8413066"><ele>267.0</ele><time>2026-05-03T10:50:35.969Z</time></trkpt><trkpt lat="42.1958654" lon="13.8415939"><ele>267.0</ele><time>2026-05-03T10:50:36.969Z</time></trkpt><trkpt lat="42.1957895" lon="13.8418685"><ele>267.0</ele><time>2026-05-03T10:50:37.968Z</time></trkpt><trkpt lat="42.1956962" lon="13.8421325"><ele>283.6666666666667</ele><time>2026-05-03T10:50:38.969Z</time></trkpt><trkpt lat="42.1955809" lon="13.8423784"><ele>300.33333333333337</ele><time>2026-05-03T10:50:39.969Z</time></trkpt><trkpt lat="42.1954466" lon="13.8426074"><ele>317.0</ele><time>2026-05-03T10:50:40.969Z</time></trkpt><trkpt lat="42.1953033" lon="13.8428094"><ele>321.33333333333337</ele><time>2026-05-03T10:50:41.968Z</time></trkpt><trkpt lat="42.1951597" lon="13.8430235"><ele>325.6666666666667</ele><time>2026-05-03T10:50:42.968Z</time></trkpt><trkpt lat="42.1950132" lon="13.8432328"><ele>330.0</ele><time>2026-05-03T10:50:43.969Z</time></trkpt><trkpt lat="42.1917811" lon="13.8463787"><ele>302.6666666666667</ele><time>2026-05-03T10:50:56.969Z</time></trkpt><trkpt lat="42.1916649" lon="13.8465323"><ele>275.33333333333337</ele><time>2026-05-03T10:50:57.969Z</time></trkpt><trkpt lat="42.1914765" lon="13.8467029"><ele>248.0</ele><time>2026-05-03T10:50:58.969Z</time></trkpt><trkpt lat="42.1913192" lon="13.8468651"><ele>246.66666666666669</ele><time>2026-05-03T10:50:59.969Z</time></trkpt><trkpt lat="42.1911688" lon="13.8470163"><ele>245.33333333333331</ele><time>2026-05-03T10:51:00.969Z</time></trkpt><trkpt lat="42.1910165" lon="13.8471642"><ele>244.0</ele><time>2026-05-03T10:51:01.969Z</time></trkpt><trkpt lat="42.1908721" lon="13.8473102"><ele>244.0</ele><time>2026-05-03T10:51:02.969Z</time></trkpt><trkpt lat="42.1907212" lon="13.8474216"><ele>244.0</ele><time>2026-05-03T10:51:03.969Z</time></trkpt><trkpt lat="42.1905911" lon="13.8474889"><ele>244.0</ele><time>2026-05-03T10:51:04.969Z</time></trkpt><trkpt lat="42.1904682" lon="13.8475322"><ele>244.0</ele><time>2026-05-03T10:51:05.969Z</time></trkpt><trkpt lat="42.1903589" lon="13.8475819"><ele>245.49999999999997</ele><time>2026-05-03T10:51:06.969Z</time></trkpt><trkpt lat="42.1902714" lon="13.8476466"><ele>247.0</ele><time>2026-05-03T10:51:07.969Z</time></trkpt><trkpt lat="42.1902057" lon="13.8477288"><ele>248.5</ele><time>2026-05-03T10:51:08.969Z</time></trkpt><trkpt lat="42.1901706" lon="13.8478296"><ele>250.0</ele><time>2026-05-03T10:51:09.968Z</time></trkpt><trkpt lat="42.1901679" lon="13.8479343"><ele>251.49999999999997</ele><time>2026-05-03T10:51:10.968Z</time></trkpt><trkpt lat="42.1901999" lon="13.8480362"><ele>253.0</ele><time>2026-05-03T10:51:11.969Z</time></trkpt><trkpt lat="42.1902698" lon="13.8481231"><ele>253.0</ele><time>2026-05-03T10:51:12.969Z</time></trkpt><trkpt lat="42.1903702" lon="13.8482004"><ele>253.0</ele><time>2026-05-03T10:51:13.968Z</time></trkpt><trkpt lat="42.1904849" lon="13.8482909"><ele>253.0</ele><time>2026-05-03T10:51:14.969Z</time></trkpt><trkpt lat="42.1905957" lon="13.8484299"><ele>253.0</ele><time>2026-05-03T10:51:15.969Z</time></trkpt><trkpt lat="42.1907053" lon="13.8486141"><ele>251.0</ele><time>2026-05-03T10:51:16.968Z</time></trkpt><trkpt lat="42.1908216" lon="13.848836"><ele>249.0</ele><time>2026-05-03T10:51:17.968Z</time></trkpt><trkpt lat="42.1909399" lon="13.8490615"><ele>247.0</ele><time>2026-05-03T10:51:18.969Z</time></trkpt><trkpt lat="42.1910687" lon="13.8492998"><ele>254.66666666666666</ele><time>2026-05-03T10:51:19.969Z</time></trkpt><trkpt lat="42.1911958" lon="13.8495347"><ele>262.3333333333333</ele><time>2026-05-03T10:51:20.969Z</time></trkpt><trkpt lat="42.1913296" lon="13.8497665"><ele>270.0</ele><time>2026-05-03T10:51:21.969Z</time></trkpt><trkpt lat="42.1914643" lon="13.849996"><ele>267.3333333333333</ele><time>2026-05-03T10:51:22.969Z</time></trkpt><trkpt lat="42.1916075" lon="13.8502188"><ele>264.66666666666663</ele><time>2026-05-03T10:51:23.969Z</time></trkpt><trkpt lat="42.191772" lon="13.8504273"><ele>262.0</ele><time>2026-05-03T10:51:24.968Z</time></trkpt><trkpt lat="42.1919604" lon="13.8506317"><ele>262.0</ele><time>2026-05-03T10:51:25.968Z</time></trkpt><trkpt lat="42.1921735" lon="13.8508479"><ele>262.0</ele><time>2026-05-03T10:51:26.969Z</time></trkpt><trkpt lat="42.1923684" lon="13.8510522"><ele>262.3333333333333</ele><time>2026-05-03T10:51:27.968Z</time></trkpt><trkpt lat="42.1925528" lon="13.8512434"><ele>262.6666666666667</ele><time>2026-05-03T10:51:28.968Z</time></trkpt><trkpt lat="42.1927209" lon="13.8514284"><ele>263.0</ele><time>2026-05-03T10:51:29.968Z</time></trkpt><trkpt lat="42.1928783" lon="13.8516033"><ele>263.0</ele><time>2026-05-03T10:51:30.968Z</time></trkpt><trkpt lat="42.1930392" lon="13.8517517"><ele>263.0</ele><time>2026-05-03T10:51:31.969Z</time></trkpt><trkpt lat="42.1932035" lon="13.8518673"><ele>263.0</ele><time>2026-05-03T10:51:32.969Z</time></trkpt><trkpt lat="42.1933813" lon="13.8519429"><ele>261.6666666666667</ele><time>2026-05-03T10:51:33.969Z</time></trkpt><trkpt lat="42.1935796" lon="13.8519824"><ele>260.3333333333333</ele><time>2026-05-03T10:51:34.969Z</time></trkpt><trkpt lat="42.1938061" lon="13.8520201"><ele>259.0</ele><time>2026-05-03T10:51:35.968Z</time></trkpt><trkpt lat="42.1940346" lon="13.8520604"><ele>259.0</ele><time>2026-05-03T10:51:36.969Z</time></trkpt><trkpt lat="42.1942457" lon="13.8520945"><ele>259.0</ele><time>2026-05-03T10:51:37.968Z</time></trkpt><trkpt lat="42.1944435" lon="13.8521415"><ele>259.0</ele><time>2026-05-03T10:51:38.969Z</time></trkpt><trkpt lat="42.1946156" lon="13.8522159"><ele>259.0</ele><time>2026-05-03T10:51:39.969Z</time></trkpt><trkpt lat="42.1947725" lon="13.852311"><ele>259.0</ele><time>2026-05-03T10:51:40.968Z</time></trkpt><trkpt lat="42.194918" lon="13.8524253"><ele>259.0</ele><time>2026-05-03T10:51:41.968Z</time></trkpt><trkpt lat="42.1950395" lon="13.8525665"><ele>261.0</ele><time>2026-05-03T10:51:42.969Z</time></trkpt><trkpt lat="42.1951491" lon="13.8527351"><ele>263.0</ele><time>2026-05-03T10:51:43.969Z</time></trkpt><trkpt lat="42.19525" lon="13.8529226"><ele>265.0</ele><time>2026-05-03T10:51:44.968Z</time></trkpt><trkpt lat="42.1953433" lon="13.853132"><ele>265.0</ele><time>2026-05-03T10:51:45.969Z</time></trkpt><trkpt lat="42.1954288" lon="13.8533868"><ele>265.0</ele><time>2026-05-03T10:51:46.969Z</time></trkpt><trkpt lat="42.1955095" lon="13.8536696"><ele>265.0</ele><time>2026-05-03T10:51:47.968Z</time></trkpt><trkpt lat="42.1955904" lon="13.8539587"><ele>259.66666666666663</ele><time>2026-05-03T10:51:48.969Z</time></trkpt><trkpt lat="42.1956788" lon="13.8542361"><ele>254.33333333333331</ele><time>2026-05-03T10:51:49.969Z</time></trkpt><trkpt lat="42.1957625" lon="13.8545029"><ele>249.0</ele><time>2026-05-03T10:51:50.968Z</time></trkpt><trkpt lat="42.1958232" lon="13.8547621"><ele>249.0</ele><time>2026-05-03T10:51:51.968Z</time></trkpt><trkpt lat="42.1958655" lon="13.8550249"><ele>249.0</ele><time>2026-05-03T10:51:52.968Z</time></trkpt><trkpt lat="42.1958795" lon="13.8553241"><ele>249.0</ele><time>2026-05-03T10:51:53.969Z</time></trkpt><trkpt lat="42.1958743" lon="13.8556591"><ele>248.0</ele><time>2026-05-03T10:51:54.969Z</time></trkpt><trkpt lat="42.195867" lon="13.8560222"><ele>247.0</ele><time>2026-05-03T10:51:55.968Z</time></trkpt><trkpt lat="42.1958555" lon="13.8564019"><ele>247.0</ele><time>2026-05-03T10:51:56.969Z</time></trkpt><trkpt lat="42.1958298" lon="13.8567703"><ele>247.0</ele><time>2026-05-03T10:51:57.968Z</time></trkpt><trkpt lat="42.1958063" lon="13.8571431"><ele>247.5</ele><time>2026-05-03T10:51:58.969Z</time></trkpt><trkpt lat="42.1957824" lon="13.857485"><ele>248.0</ele><time>2026-05-03T10:51:59.968Z</time></trkpt><trkpt lat="42.1957564" lon="13.8578089"><ele>247.0</ele><time>2026-05-03T10:52:00.968Z</time></trkpt><trkpt lat="42.1957293" lon="13.8581142"><ele>246.0</ele><time>2026-05-03T10:52:01.969Z</time></trkpt><trkpt lat="42.1956955" lon="13.8584023"><ele>245.0</ele><time>2026-05-03T10:52:02.969Z</time></trkpt><trkpt lat="42.1956602" lon="13.8586717"><ele>255.33333333333334</ele><time>2026-05-03T10:52:03.969Z</time></trkpt><trkpt lat="42.1956217" lon="13.8589265"><ele>265.6666666666667</ele><time>2026-05-03T10:52:04.969Z</time></trkpt><trkpt lat="42.1955839" lon="13.8591951"><ele>276.0</ele><time>2026-05-03T10:52:05.968Z</time></trkpt><trkpt lat="42.1955532" lon="13.8594794"><ele>276.0</ele><time>2026-05-03T10:52:06.968Z</time></trkpt><trkpt lat="42.1955371" lon="13.8597641"><ele>276.0</ele><time>2026-05-03T10:52:07.969Z</time></trkpt><trkpt lat="42.1955253" lon="13.8600455"><ele>276.0</ele><time>2026-05-03T10:52:08.968Z</time></trkpt><trkpt lat="42.1955138" lon="13.8603292"><ele>275.3333333333333</ele><time>2026-05-03T10:52:09.969Z</time></trkpt><trkpt lat="42.1955052" lon="13.860608"><ele>274.66666666666663</ele><time>2026-05-03T10:52:10.969Z</time></trkpt><trkpt lat="42.1955015" lon="13.8608457"><ele>274.0</ele><time>2026-05-03T10:52:11.969Z</time></trkpt><trkpt lat="42.1954989" lon="13.8610683"><ele>273.8</ele><time>2026-05-03T10:52:12.968Z</time></trkpt><trkpt lat="42.1955018" lon="13.8612655"><ele>273.59999999999997</ele><time>2026-05-03T10:52:13.969Z</time></trkpt><trkpt lat="42.1955222" lon="13.8614214"><ele>273.4</ele><time>2026-05-03T10:52:14.969Z</time></trkpt><trkpt lat="42.1955395" lon="13.8615548"><ele>273.2</ele><time>2026-05-03T10:52:15.969Z</time></trkpt><trkpt lat="42.1955516" lon="13.8616623"><ele>273.0</ele><time>2026-05-03T10:52:16.969Z</time></trkpt><trkpt lat="42.1955501" lon="13.861755"><ele>274.75</ele><time>2026-05-03T10:52:17.968Z</time></trkpt><trkpt lat="42.1955348" lon="13.8619125"><ele>276.5</ele><time>2026-05-03T10:52:19.968Z</time></trkpt><trkpt lat="42.1955501" lon="13.8620812"><ele>278.25</ele><time>2026-05-03T10:52:21.968Z</time></trkpt><trkpt lat="42.1955784" lon="13.8622067"><ele>280.0</ele><time>2026-05-03T10:52:22.968Z</time></trkpt><trkpt lat="42.1956143" lon="13.8623839"><ele>286.66666666666663</ele><time>2026-05-03T10:52:23.969Z</time></trkpt><trkpt lat="42.1956656" lon="13.8626186"><ele>293.3333333333333</ele><time>2026-05-03T10:52:24.968Z</time></trkpt><trkpt lat="42.1957522" lon="13.8629007"><ele>300.0</ele><time>2026-05-03T10:52:25.968Z</time></trkpt><trkpt lat="42.195859" lon="13.8631977"><ele>281.0</ele><time>2026-05-03T10:52:26.969Z</time></trkpt><trkpt lat="42.1959761" lon="13.8635094"><ele>262.0</ele><time>2026-05-03T10:52:27.968Z</time></trkpt><trkpt lat="42.1960914" lon="13.8638082"><ele>262.0</ele><time>2026-05-03T10:52:28.969Z</time></trkpt><trkpt lat="42.1962047" lon="13.8640975"><ele>262.0</ele><time>2026-05-03T10:52:29.968Z</time></trkpt><trkpt lat="42.1963161" lon="13.8643924"><ele>269.5</ele><time>2026-05-03T10:52:30.969Z</time></trkpt><trkpt lat="42.1964279" lon="13.8646916"><ele>277.0</ele><time>2026-05-03T10:52:31.969Z</time></trkpt><trkpt lat="42.1965298" lon="13.8649814"><ele>266.3333333333333</ele><time>2026-05-03T10:52:32.969Z</time></trkpt><trkpt lat="42.1966159" lon="13.8652597"><ele>255.66666666666669</ele><time>2026-05-03T10:52:33.969Z</time></trkpt><trkpt lat="42.1966963" lon="13.8655269"><ele>245.0</ele><time>2026-05-03T10:52:34.968Z</time></trkpt><trkpt lat="42.1967728" lon="13.8657811"><ele>248.33333333333334</ele><time>2026-05-03T10:52:35.969Z</time></trkpt><trkpt lat="42.1968438" lon="13.8660345"><ele>251.66666666666669</ele><time>2026-05-03T10:52:36.969Z</time></trkpt><trkpt lat="42.1969059" lon="13.8663082"><ele>255.0</ele><time>2026-05-03T10:52:37.969Z</time></trkpt><trkpt lat="42.1969633" lon="13.8666125"><ele>259.0</ele><time>2026-05-03T10:52:38.968Z</time></trkpt><trkpt lat="42.1970326" lon="13.8669356"><ele>263.0</ele><time>2026-05-03T10:52:39.968Z</time></trkpt><trkpt lat="42.1971095" lon="13.8672668"><ele>263.0</ele><time>2026-05-03T10:52:40.969Z</time></trkpt><trkpt lat="42.1971823" lon="13.8675793"><ele>263.0</ele><time>2026-05-03T10:52:41.969Z</time></trkpt><trkpt lat="42.197254" lon="13.8678754"><ele>264.5</ele><time>2026-05-03T10:52:42.969Z</time></trkpt><trkpt lat="42.1973156" lon="13.8681741"><ele>266.0</ele><time>2026-05-03T10:52:43.968Z</time></trkpt><trkpt lat="42.1973673" lon="13.8685062"><ele>252.5</ele><time>2026-05-03T10:52:44.968Z</time></trkpt><trkpt lat="42.1974078" lon="13.8688426"><ele>239.0</ele><time>2026-05-03T10:52:45.968Z</time></trkpt><trkpt lat="42.1974496" lon="13.8691981"><ele>238.0</ele><time>2026-05-03T10:52:46.968Z</time></trkpt><trkpt lat="42.1974918" lon="13.8695652"><ele>237.0</ele><time>2026-05-03T10:52:47.968Z</time></trkpt><trkpt lat="42.1975371" lon="13.8699309"><ele>237.0</ele><time>2026-05-03T10:52:48.968Z</time></trkpt><trkpt lat="42.1975862" lon="13.870308"><ele>237.0</ele><time>2026-05-03T10:52:49.969Z</time></trkpt><trkpt lat="42.1976284" lon="13.8706937"><ele>238.5</ele><time>2026-05-03T10:52:50.968Z</time></trkpt><trkpt lat="42.1976735" lon="13.871073"><ele>240.0</ele><time>2026-05-03T10:52:51.968Z</time></trkpt><trkpt lat="42.1977168" lon="13.871456"><ele>245.0</ele><time>2026-05-03T10:52:52.969Z</time></trkpt><trkpt lat="42.1977661" lon="13.8718471"><ele>250.0</ele><time>2026-05-03T10:52:53.969Z</time></trkpt><trkpt lat="42.1978216" lon="13.8722413"><ele>248.0</ele><time>2026-05-03T10:52:54.969Z</time></trkpt><trkpt lat="42.1978793" lon="13.8726308"><ele>246.0</ele><time>2026-05-03T10:52:55.968Z</time></trkpt><trkpt lat="42.1979419" lon="13.8730168"><ele>246.0</ele><time>2026-05-03T10:52:56.968Z</time></trkpt><trkpt lat="42.1980039" lon="13.8734032"><ele>246.0</ele><time>2026-05-03T10:52:57.969Z</time></trkpt><trkpt lat="42.198066" lon="13.8737787"><ele>253.0</ele><time>2026-05-03T10:52:58.969Z</time></trkpt><trkpt lat="42.1981294" lon="13.8741161"><ele>260.0</ele><time>2026-05-03T10:52:59.969Z</time></trkpt><trkpt lat="42.1981816" lon="13.8744514"><ele>246.0</ele><time>2026-05-03T10:53:00.969Z</time></trkpt><trkpt lat="42.1982313" lon="13.8747659"><ele>232.0</ele><time>2026-05-03T10:53:01.969Z</time></trkpt><trkpt lat="42.1982656" lon="13.8750543"><ele>229.33333333333331</ele><time>2026-05-03T10:53:02.969Z</time></trkpt><trkpt lat="42.198277" lon="13.8753185"><ele>226.66666666666669</ele><time>2026-05-03T10:53:03.969Z</time></trkpt><trkpt lat="42.1982584" lon="13.8755731"><ele>224.0</ele><time>2026-05-03T10:53:04.969Z</time></trkpt><trkpt lat="42.1982165" lon="13.8758293"><ele>237.66666666666669</ele><time>2026-05-03T10:53:05.968Z</time></trkpt><trkpt lat="42.1981636" lon="13.8760925"><ele>251.33333333333331</ele><time>2026-05-03T10:53:06.969Z</time></trkpt><trkpt lat="42.1981084" lon="13.8763579"><ele>265.0</ele><time>2026-05-03T10:53:07.968Z</time></trkpt><trkpt lat="42.1980497" lon="13.8766195"><ele>264.3333333333333</ele><time>2026-05-03T10:53:08.969Z</time></trkpt><trkpt lat="42.1980043" lon="13.8768649"><ele>263.6666666666667</ele><time>2026-05-03T10:53:09.969Z</time></trkpt><trkpt lat="42.1979651" lon="13.8770984"><ele>263.0</ele><time>2026-05-03T10:53:10.968Z</time></trkpt><trkpt lat="42.1979536" lon="13.8773079"><ele>263.0</ele><time>2026-05-03T10:53:11.969Z</time></trkpt><trkpt lat="42.1979685" lon="13.8775271"><ele>263.0</ele><time>2026-05-03T10:53:12.968Z</time></trkpt><trkpt lat="42.1980118" lon="13.8777564"><ele>263.0</ele><time>2026-05-03T10:53:13.969Z</time></trkpt><trkpt lat="42.1980811" lon="13.8779962"><ele>255.0</ele><time>2026-05-03T10:53:14.968Z</time></trkpt><trkpt lat="42.1981695" lon="13.8782288"><ele>247.0</ele><time>2026-05-03T10:53:15.969Z</time></trkpt><trkpt lat="42.1982668" lon="13.8784423"><ele>239.0</ele><time>2026-05-03T10:53:16.969Z</time></trkpt><trkpt lat="42.1983798" lon="13.8786484"><ele>239.0</ele><time>2026-05-03T10:53:17.969Z</time></trkpt><trkpt lat="42.1985244" lon="13.8788513"><ele>239.0</ele><time>2026-05-03T10:53:18.968Z</time></trkpt><trkpt lat="42.1986864" lon="13.8790239"><ele>239.0</ele><time>2026-05-03T10:53:19.969Z</time></trkpt><trkpt lat="42.1988433" lon="13.8791754"><ele>236.0</ele><time>2026-05-03T10:53:20.969Z</time></trkpt><trkpt lat="42.1989902" lon="13.8793389"><ele>233.0</ele><time>2026-05-03T10:53:21.968Z</time></trkpt><trkpt lat="42.19912" lon="13.8795258"><ele>230.0</ele><time>2026-05-03T10:53:22.969Z</time></trkpt><trkpt lat="42.1992097" lon="13.879711"><ele>230.0</ele><time>2026-05-03T10:53:23.969Z</time></trkpt><trkpt lat="42.1992621" lon="13.8798854"><ele>230.0</ele><time>2026-05-03T10:53:24.968Z</time></trkpt><trkpt lat="42.1992926" lon="13.8800759"><ele>230.0</ele><time>2026-05-03T10:53:25.968Z</time></trkpt><trkpt lat="42.1993035" lon="13.8802811"><ele>230.0</ele><time>2026-05-03T10:53:26.969Z</time></trkpt><trkpt lat="42.1992986" lon="13.8805086"><ele>229.0</ele><time>2026-05-03T10:53:27.969Z</time></trkpt><trkpt lat="42.1992711" lon="13.8807432"><ele>228.0</ele><time>2026-05-03T10:53:28.969Z</time></trkpt><trkpt lat="42.1992519" lon="13.8809784"><ele>227.0</ele><time>2026-05-03T10:53:29.969Z</time></trkpt><trkpt lat="42.1992347" lon="13.8811999"><ele>227.0</ele><time>2026-05-03T10:53:30.969Z</time></trkpt><trkpt lat="42.199225" lon="13.8814158"><ele>227.0</ele><time>2026-05-03T10:53:31.969Z</time></trkpt><trkpt lat="42.1992606" lon="13.8816184"><ele>227.0</ele><time>2026-05-03T10:53:32.969Z</time></trkpt><trkpt lat="42.199311" lon="13.8818169"><ele>229.0</ele><time>2026-05-03T10:53:33.968Z</time></trkpt><trkpt lat="42.1993869" lon="13.8820176"><ele>231.0</ele><time>2026-05-03T10:53:34.968Z</time></trkpt><trkpt lat="42.1994715" lon="13.8822418"><ele>233.0</ele><time>2026-05-03T10:53:35.969Z</time></trkpt><trkpt lat="42.19954" lon="13.8824907"><ele>227.33333333333334</ele><time>2026-05-03T10:53:36.969Z</time></trkpt><trkpt lat="42.199611" lon="13.882727"><ele>221.66666666666669</ele><time>2026-05-03T10:53:37.969Z</time></trkpt><trkpt lat="42.1997097" lon="13.8829388"><ele>216.0</ele><time>2026-05-03T10:53:38.968Z</time></trkpt><trkpt lat="42.1998419" lon="13.8831491"><ele>216.0</ele><time>2026-05-03T10:53:39.969Z</time></trkpt><trkpt lat="42.1999882" lon="13.8833594"><ele>216.0</ele><time>2026-05-03T10:53:40.969Z</time></trkpt><trkpt lat="42.2001306" lon="13.8835499"><ele>216.0</ele><time>2026-05-03T10:53:41.969Z</time></trkpt><trkpt lat="42.2002686" lon="13.8837324"><ele>223.66666666666669</ele><time>2026-05-03T10:53:42.969Z</time></trkpt><trkpt lat="42.2003877" lon="13.8839217"><ele>231.33333333333334</ele><time>2026-05-03T10:53:43.968Z</time></trkpt><trkpt lat="42.2004795" lon="13.8841233"><ele>239.0</ele><time>2026-05-03T10:53:44.968Z</time></trkpt><trkpt lat="42.2005514" lon="13.8843456"><ele>243.66666666666669</ele><time>2026-05-03T10:53:45.968Z</time></trkpt><trkpt lat="42.2006188" lon="13.8845837"><ele>248.33333333333331</ele><time>2026-05-03T10:53:46.968Z</time></trkpt><trkpt lat="42.2006889" lon="13.8848267"><ele>253.0</ele><time>2026-05-03T10:53:47.969Z</time></trkpt><trkpt lat="42.2007736" lon="13.8850624"><ele>247.0</ele><time>2026-05-03T10:53:48.968Z</time></trkpt><trkpt lat="42.2008859" lon="13.8852829"><ele>241.0</ele><time>2026-05-03T10:53:49.969Z</time></trkpt><trkpt lat="42.2010218" lon="13.8854868"><ele>235.0</ele><time>2026-05-03T10:53:50.969Z</time></trkpt><trkpt lat="42.2011833" lon="13.8856759"><ele>235.0</ele><time>2026-05-03T10:53:51.968Z</time></trkpt><trkpt lat="42.2013618" lon="13.885861"><ele>235.0</ele><time>2026-05-03T10:53:52.969Z</time></trkpt><trkpt lat="42.2015481" lon="13.886049"><ele>232.0</ele><time>2026-05-03T10:53:53.968Z</time></trkpt><trkpt lat="42.2017393" lon="13.8862479"><ele>229.0</ele><time>2026-05-03T10:53:54.969Z</time></trkpt><trkpt lat="42.2019381" lon="13.8864561"><ele>229.0</ele><time>2026-05-03T10:53:55.969Z</time></trkpt><trkpt lat="42.2021479" lon="13.8866788"><ele>229.0</ele><time>2026-05-03T10:53:56.968Z</time></trkpt><trkpt lat="42.2023645" lon="13.8869093"><ele>225.0</ele><time>2026-05-03T10:53:57.968Z</time></trkpt><trkpt lat="42.2025751" lon="13.8871265"><ele>221.0</ele><time>2026-05-03T10:53:58.968Z</time></trkpt><trkpt lat="42.202784" lon="13.8873384"><ele>221.0</ele><time>2026-05-03T10:53:59.969Z</time></trkpt><trkpt lat="42.2029932" lon="13.8875511"><ele>221.0</ele><time>2026-05-03T10:54:00.969Z</time></trkpt><trkpt lat="42.2031966" lon="13.8877555"><ele>226.0</ele><time>2026-05-03T10:54:01.969Z</time></trkpt><trkpt lat="42.2033827" lon="13.8879458"><ele>231.0</ele><time>2026-05-03T10:54:02.969Z</time></trkpt><trkpt lat="42.2035619" lon="13.8881294"><ele>231.0</ele><time>2026-05-03T10:54:03.968Z</time></trkpt><trkpt lat="42.2037334" lon="13.8883191"><ele>231.0</ele><time>2026-05-03T10:54:04.969Z</time></trkpt><trkpt lat="42.2038952" lon="13.8885339"><ele>231.0</ele><time>2026-05-03T10:54:05.969Z</time></trkpt><trkpt lat="42.2040459" lon="13.8887756"><ele>227.33333333333331</ele><time>2026-05-03T10:54:06.969Z</time></trkpt><trkpt lat="42.2041623" lon="13.8890022"><ele>223.66666666666666</ele><time>2026-05-03T10:54:07.969Z</time></trkpt><trkpt lat="42.2042516" lon="13.889204"><ele>220.0</ele><time>2026-05-03T10:54:08.968Z</time></trkpt><trkpt lat="42.2043304" lon="13.8893995"><ele>220.0</ele><time>2026-05-03T10:54:09.968Z</time></trkpt><trkpt lat="42.2043943" lon="13.889592"><ele>220.0</ele><time>2026-05-03T10:54:10.969Z</time></trkpt><trkpt lat="42.2044426" lon="13.8897344"><ele>220.0</ele><time>2026-05-03T10:54:11.969Z</time></trkpt><trkpt lat="42.2044649" lon="13.8898323"><ele>220.0</ele><time>2026-05-03T10:54:13.969Z</time></trkpt><trkpt lat="42.2045065" lon="13.8900095"><ele>221.6</ele><time>2026-05-03T10:54:33.968Z</time></trkpt><trkpt lat="42.2045423" lon="13.8901294"><ele>223.2</ele><time>2026-05-03T10:54:34.969Z</time></trkpt><trkpt lat="42.2045833" lon="13.8902696"><ele>224.8</ele><time>2026-05-03T10:54:35.969Z</time></trkpt><trkpt lat="42.2046179" lon="13.8903861"><ele>226.4</ele><time>2026-05-03T10:54:36.968Z</time></trkpt><trkpt lat="42.2046519" lon="13.8904927"><ele>228.0</ele><time>2026-05-03T10:54:37.968Z</time></trkpt><trkpt lat="42.2046872" lon="13.8905919"><ele>228.0</ele><time>2026-05-03T10:54:38.969Z</time></trkpt><trkpt lat="42.2047315" lon="13.8906945"><ele>228.0</ele><time>2026-05-03T10:54:39.968Z</time></trkpt><trkpt lat="42.2047865" lon="13.8907924"><ele>228.0</ele><time>2026-05-03T10:54:40.968Z</time></trkpt><trkpt lat="42.2048518" lon="13.8908887"><ele>228.0</ele><time>2026-05-03T10:54:41.969Z</time></trkpt><trkpt lat="42.2049216" lon="13.8909831"><ele>228.0</ele><time>2026-05-03T10:54:42.969Z</time></trkpt><trkpt lat="42.2049961" lon="13.8910789"><ele>227.5</ele><time>2026-05-03T10:54:43.969Z</time></trkpt><trkpt lat="42.205078" lon="13.8911803"><ele>227.0</ele><time>2026-05-03T10:54:44.969Z</time></trkpt><trkpt lat="42.2051637" lon="13.8912907"><ele>226.5</ele><time>2026-05-03T10:54:45.969Z</time></trkpt><trkpt lat="42.2052551" lon="13.8914073"><ele>226.0</ele><time>2026-05-03T10:54:46.968Z</time></trkpt><trkpt lat="42.2053519" lon="13.891524"><ele>226.0</ele><time>2026-05-03T10:54:47.968Z</time></trkpt><trkpt lat="42.2054517" lon="13.8916453"><ele>226.0</ele><time>2026-05-03T10:54:48.969Z</time></trkpt><trkpt lat="42.2055513" lon="13.8917725"><ele>226.0</ele><time>2026-05-03T10:54:49.969Z</time></trkpt><trkpt lat="42.20565" lon="13.8919039"><ele>226.0</ele><time>2026-05-03T10:54:50.969Z</time></trkpt><trkpt lat="42.2057471" lon="13.8920302"><ele>226.0</ele><time>2026-05-03T10:54:51.969Z</time></trkpt><trkpt lat="42.2058331" lon="13.8921464"><ele>226.0</ele><time>2026-05-03T10:54:52.968Z</time></trkpt><trkpt lat="42.2059205" lon="13.8922754"><ele>226.0</ele><time>2026-05-03T10:54:53.968Z</time></trkpt><trkpt lat="42.2060132" lon="13.8924077"><ele>226.0</ele><time>2026-05-03T10:54:54.969Z</time></trkpt><trkpt lat="42.2061177" lon="13.8925369"><ele>231.66666666666666</ele><time>2026-05-03T10:54:55.969Z</time></trkpt><trkpt lat="42.2062331" lon="13.8926699"><ele>237.33333333333331</ele><time>2026-05-03T10:54:56.969Z</time></trkpt><trkpt lat="42.2063582" lon="13.8928103"><ele>243.0</ele><time>2026-05-03T10:54:57.969Z</time></trkpt><trkpt lat="42.2064873" lon="13.8929487"><ele>238.33333333333331</ele><time>2026-05-03T10:54:58.968Z</time></trkpt><trkpt lat="42.2066255" lon="13.8930915"><ele>233.66666666666666</ele><time>2026-05-03T10:54:59.969Z</time></trkpt><trkpt lat="42.2067661" lon="13.893231"><ele>229.0</ele><time>2026-05-03T10:55:00.968Z</time></trkpt><trkpt lat="42.2069117" lon="13.8933702"><ele>231.33333333333331</ele><time>2026-05-03T10:55:01.968Z</time></trkpt><trkpt lat="42.2070585" lon="13.893517"><ele>233.66666666666669</ele><time>2026-05-03T10:55:02.968Z</time></trkpt><trkpt lat="42.2072087" lon="13.8936659"><ele>236.0</ele><time>2026-05-03T10:55:03.968Z</time></trkpt><trkpt lat="42.2073607" lon="13.8938202"><ele>232.33333333333334</ele><time>2026-05-03T10:55:04.969Z</time></trkpt><trkpt lat="42.2075146" lon="13.8939778"><ele>228.66666666666669</ele><time>2026-05-03T10:55:05.968Z</time></trkpt><trkpt lat="42.2076695" lon="13.8941356"><ele>225.0</ele><time>2026-05-03T10:55:06.969Z</time></trkpt><trkpt lat="42.2078217" lon="13.8942862"><ele>225.0</ele><time>2026-05-03T10:55:07.969Z</time></trkpt><trkpt lat="42.2079685" lon="13.8944234"><ele>225.0</ele><time>2026-05-03T10:55:08.969Z</time></trkpt><trkpt lat="42.2081081" lon="13.8945575"><ele>225.0</ele><time>2026-05-03T10:55:09.969Z</time></trkpt><trkpt lat="42.2082408" lon="13.8947006"><ele>224.66666666666669</ele><time>2026-05-03T10:55:10.969Z</time></trkpt><trkpt lat="42.2083654" lon="13.8948379"><ele>224.33333333333334</ele><time>2026-05-03T10:55:11.969Z</time></trkpt><trkpt lat="42.2084867" lon="13.8949658"><ele>224.0</ele><time>2026-05-03T10:55:12.969Z</time></trkpt><trkpt lat="42.2086106" lon="13.8950927"><ele>224.0</ele><time>2026-05-03T10:55:13.969Z</time></trkpt><trkpt lat="42.208737" lon="13.8952225"><ele>224.0</ele><time>2026-05-03T10:55:14.969Z</time></trkpt><trkpt lat="42.2088684" lon="13.8953553"><ele>224.0</ele><time>2026-05-03T10:55:15.968Z</time></trkpt><trkpt lat="42.2090058" lon="13.8954949"><ele>224.66666666666669</ele><time>2026-05-03T10:55:16.968Z</time></trkpt><trkpt lat="42.2091492" lon="13.8956405"><ele>225.33333333333331</ele><time>2026-05-03T10:55:17.969Z</time></trkpt><trkpt lat="42.209298" lon="13.8957927"><ele>226.0</ele><time>2026-05-03T10:55:18.969Z</time></trkpt><trkpt lat="42.2094497" lon="13.895946"><ele>226.0</ele><time>2026-05-03T10:55:19.969Z</time></trkpt><trkpt lat="42.2096062" lon="13.8961016"><ele>226.0</ele><time>2026-05-03T10:55:20.968Z</time></trkpt><trkpt lat="42.2097634" lon="13.8962585"><ele>226.0</ele><time>2026-05-03T10:55:21.968Z</time></trkpt><trkpt lat="42.2099148" lon="13.8964106"><ele>226.33333333333331</ele><time>2026-05-03T10:55:22.969Z</time></trkpt><trkpt lat="42.2100589" lon="13.8965498"><ele>226.66666666666669</ele><time>2026-05-03T10:55:23.969Z</time></trkpt><trkpt lat="42.2101893" lon="13.896687"><ele>227.0</ele><time>2026-05-03T10:55:24.969Z</time></trkpt><trkpt lat="42.210306" lon="13.8968335"><ele>227.0</ele><time>2026-05-03T10:55:25.968Z</time></trkpt><trkpt lat="42.2104062" lon="13.8969984"><ele>227.0</ele><time>2026-05-03T10:55:26.969Z</time></trkpt><trkpt lat="42.2104873" lon="13.8971869"><ele>227.0</ele><time>2026-05-03T10:55:27.968Z</time></trkpt><trkpt lat="42.2105619" lon="13.8974123"><ele>228.0</ele><time>2026-05-03T10:55:28.968Z</time></trkpt><trkpt lat="42.2106378" lon="13.8976586"><ele>229.0</ele><time>2026-05-03T10:55:29.968Z</time></trkpt><trkpt lat="42.2107231" lon="13.8979198"><ele>230.0</ele><time>2026-05-03T10:55:30.969Z</time></trkpt><trkpt lat="42.2108115" lon="13.8981843"><ele>227.33333333333334</ele><time>2026-05-03T10:55:31.969Z</time></trkpt><trkpt lat="42.2109009" lon="13.8984525"><ele>224.66666666666669</ele><time>2026-05-03T10:55:32.969Z</time></trkpt><trkpt lat="42.2109891" lon="13.89872"><ele>222.0</ele><time>2026-05-03T10:55:33.968Z</time></trkpt><trkpt lat="42.211074" lon="13.8989779"><ele>222.0</ele><time>2026-05-03T10:55:34.968Z</time></trkpt><trkpt lat="42.2111556" lon="13.8992271"><ele>222.0</ele><time>2026-05-03T10:55:35.969Z</time></trkpt><trkpt lat="42.2112349" lon="13.8994668"><ele>222.0</ele><time>2026-05-03T10:55:36.968Z</time></trkpt><trkpt lat="42.2113079" lon="13.8996919"><ele>222.25</ele><time>2026-05-03T10:55:37.968Z</time></trkpt><trkpt lat="42.2113761" lon="13.8999026"><ele>222.5</ele><time>2026-05-03T10:55:38.969Z</time></trkpt><trkpt lat="42.211435" lon="13.9000937"><ele>222.75</ele><time>2026-05-03T10:55:39.968Z</time></trkpt><trkpt lat="42.2114764" lon="13.9002424"><ele>223.0</ele><time>2026-05-03T10:55:40.969Z</time></trkpt><trkpt lat="42.2115087" lon="13.9003599"><ele>223.16666666666666</ele><time>2026-05-03T10:55:41.969Z</time></trkpt><trkpt lat="42.2115272" lon="13.9004455"><ele>223.33333333333331</ele><time>2026-05-03T10:55:42.969Z</time></trkpt><trkpt lat="42.2115575" lon="13.9005745"><ele>223.5</ele><time>2026-05-03T10:55:44.969Z</time></trkpt><trkpt lat="42.2116049" lon="13.900725"><ele>223.66666666666669</ele><time>2026-05-03T10:55:46.969Z</time></trkpt><trkpt lat="42.2116289" lon="13.9008184"><ele>223.83333333333334</ele><time>2026-05-03T10:55:47.968Z</time></trkpt><trkpt lat="42.2116493" lon="13.9009087"><ele>224.0</ele><time>2026-05-03T10:55:48.969Z</time></trkpt><trkpt lat="42.2116705" lon="13.9010258"><ele>224.00000000000003</ele><time>2026-05-03T10:55:50.968Z</time></trkpt><trkpt lat="42.2116018" lon="13.9010622"><ele>224.0</ele><time>2026-05-03T10:56:30.969Z</time></trkpt><trkpt lat="42.211533" lon="13.9011135"><ele>224.0</ele><time>2026-05-03T10:56:32.969Z</time></trkpt><trkpt lat="42.2114861" lon="13.9011922"><ele>224.0</ele><time>2026-05-03T10:56:34.969Z</time></trkpt><trkpt lat="42.2114628" lon="13.9012905"><ele>224.00000000000003</ele><time>2026-05-03T10:56:37.969Z</time></trkpt><trkpt lat="42.2114872" lon="13.9013767"><ele>224.0</ele><time>2026-05-03T10:56:39.969Z</time></trkpt><trkpt lat="42.211479" lon="13.9014895"><ele>227.33333333333334</ele><time>2026-05-03T10:56:42.969Z</time></trkpt><trkpt lat="42.2113907" lon="13.9014986"><ele>230.66666666666669</ele><time>2026-05-03T10:56:45.969Z</time></trkpt><trkpt lat="42.2113398" lon="13.9014355"><ele>234.0</ele><time>2026-05-03T10:56:47.968Z</time></trkpt><trkpt lat="42.211286" lon="13.9013595"><ele>237.33333333333331</ele><time>2026-05-03T10:56:49.878Z</time></trkpt><trkpt lat="42.2112026" lon="13.9012958"><ele>240.66666666666666</ele><time>2026-05-03T10:56:51.986Z</time></trkpt><trkpt lat="42.2110983" lon="13.9013042"><ele>244.0</ele><time>2026-05-03T10:56:53.968Z</time></trkpt><trkpt lat="42.2110204" lon="13.9012994"><ele>243.99999999999997</ele><time>2026-05-03T10:56:55.968Z</time></trkpt><trkpt lat="42.2109426" lon="13.9013098"><ele>244.0</ele><time>2026-05-03T10:58:07.968Z</time></trkpt><trkpt lat="42.2108871" lon="13.9013697"><ele>244.0</ele><time>2026-05-03T10:58:10.969Z</time></trkpt><trkpt lat="42.2108838" lon="13.9014697"><ele>244.0</ele><time>2026-05-03T10:58:14.829Z</time></trkpt><trkpt lat="42.2109424" lon="13.9015552"><ele>243.99999999999997</ele><time>2026-05-03T10:58:17.968Z</time></trkpt><trkpt lat="42.2110211" lon="13.9016356"><ele>244.0</ele><time>2026-05-03T10:58:20.969Z</time></trkpt><trkpt lat="42.2110789" lon="13.9017055"><ele>246.99999999999997</ele><time>2026-05-03T10:58:22.969Z</time></trkpt><trkpt lat="42.2111254" lon="13.9017643"><ele>250.0</ele><time>2026-05-03T10:58:24.969Z</time></trkpt><trkpt lat="42.2111543" lon="13.901847"><ele>252.99999999999997</ele><time>2026-05-03T10:58:33.968Z</time></trkpt><trkpt lat="42.2111152" lon="13.9019305"><ele>255.99999999999997</ele><time>2026-05-03T10:58:36.969Z</time></trkpt><trkpt lat="42.2110775" lon="13.9020035"><ele>259.0</ele><time>2026-05-03T10:58:41.917Z</time></trkpt><trkpt lat="42.211015" lon="13.90195"><ele>261.99999999999994</ele><time>2026-05-03T10:58:51.969Z</time></trkpt><trkpt lat="42.2109539" lon="13.9018852"><ele>265.0</ele><time>2026-05-03T10:58:53.969Z</time></trkpt><trkpt lat="42.2108832" lon="13.9018139"><ele>265.0</ele><time>2026-05-03T10:58:55.968Z</time></trkpt><trkpt lat="42.2108023" lon="13.9017717"><ele>265.0</ele><time>2026-05-03T10:58:58.968Z</time></trkpt><trkpt lat="42.2107298" lon="13.9017952"><ele>265.0</ele><time>2026-05-03T10:59:01.969Z</time></trkpt><trkpt lat="42.2107295" lon="13.9018955"><ele>265.0</ele><time>2026-05-03T10:59:05.873Z</time></trkpt><trkpt lat="42.2108245" lon="13.901983"><ele>265.0</ele><time>2026-05-03T10:59:08.969Z</time></trkpt><trkpt lat="42.2108687" lon="13.902047"><ele>265.0</ele><time>2026-05-03T10:59:10.969Z</time></trkpt><trkpt lat="42.2108985" lon="13.9021412"><ele>265.0</ele><time>2026-05-03T10:59:12.969Z</time></trkpt><trkpt lat="42.2108955" lon="13.9022379"><ele>265.0</ele><time>2026-05-03T10:59:14.89Z</time></trkpt><trkpt lat="42.2108942" lon="13.9023527"><ele>265.0</ele><time>2026-05-03T10:59:17.969Z</time></trkpt><trkpt lat="42.2108853" lon="13.9024417"><ele>265.0</ele><time>2026-05-03T10:59:20.968Z</time></trkpt><trkpt lat="42.2109039" lon="13.9025637"><ele>265.0</ele><time>2026-05-03T10:59:22.968Z</time></trkpt><trkpt lat="42.2109231" lon="13.9026453"><ele>265.0</ele><time>2026-05-03T10:59:23.969Z</time></trkpt><trkpt lat="42.2109428" lon="13.90277"><ele>268.2</ele><time>2026-05-03T10:59:25.969Z</time></trkpt><trkpt lat="42.2109318" lon="13.9028784"><ele>271.4</ele><time>2026-05-03T10:59:27.969Z</time></trkpt><trkpt lat="42.2109516" lon="13.9029971"><ele>274.6</ele><time>2026-05-03T10:59:29.969Z</time></trkpt><trkpt lat="42.2109814" lon="13.9031296"><ele>277.8</ele><time>2026-05-03T10:59:31.969Z</time></trkpt><trkpt lat="42.2110274" lon="13.9032571"><ele>281.0</ele><time>2026-05-03T10:59:33.968Z</time></trkpt><trkpt lat="42.2110815" lon="13.9033991"><ele>283.0</ele><time>2026-05-03T10:59:35.968Z</time></trkpt><trkpt lat="42.2111057" lon="13.9034996"><ele>285.0</ele><time>2026-05-03T10:59:36.968Z</time></trkpt><trkpt lat="42.2111318" lon="13.9036167"><ele>287.0</ele><time>2026-05-03T10:59:37.969Z</time></trkpt><trkpt lat="42.2111568" lon="13.9037349"><ele>289.0</ele><time>2026-05-03T10:59:38.969Z</time></trkpt><trkpt lat="42.2111788" lon="13.9038467"><ele>291.0</ele><time>2026-05-03T10:59:39.969Z</time></trkpt><trkpt lat="42.2112003" lon="13.9039511"><ele>293.0</ele><time>2026-05-03T10:59:40.968Z</time></trkpt><trkpt lat="42.2112212" lon="13.9040514"><ele>293.0</ele><time>2026-05-03T10:59:41.968Z</time></trkpt><trkpt lat="42.211242" lon="13.9041533"><ele>293.0</ele><time>2026-05-03T10:59:42.968Z</time></trkpt><trkpt lat="42.2112568" lon="13.9042539"><ele>293.0</ele><time>2026-05-03T10:59:43.968Z</time></trkpt><trkpt lat="42.2112705" lon="13.9043535"><ele>293.0</ele><time>2026-05-03T10:59:44.969Z</time></trkpt><trkpt lat="42.2112903" lon="13.9044499"><ele>293.0</ele><time>2026-05-03T10:59:45.969Z</time></trkpt><trkpt lat="42.2113121" lon="13.9045442"><ele>293.0</ele><time>2026-05-03T10:59:46.968Z</time></trkpt><trkpt lat="42.2113345" lon="13.9046452"><ele>294.71428571428567</ele><time>2026-05-03T10:59:47.969Z</time></trkpt><trkpt lat="42.2113548" lon="13.9047471"><ele>296.42857142857144</ele><time>2026-05-03T10:59:48.968Z</time></trkpt><trkpt lat="42.2113747" lon="13.9048427"><ele>298.1428571428571</ele><time>2026-05-03T10:59:49.969Z</time></trkpt><trkpt lat="42.2113968" lon="13.9049338"><ele>299.85714285714283</ele><time>2026-05-03T10:59:50.968Z</time></trkpt><trkpt lat="42.2114162" lon="13.9050229"><ele>301.57142857142856</ele><time>2026-05-03T10:59:51.968Z</time></trkpt><trkpt lat="42.2114315" lon="13.9051127"><ele>303.2857142857143</ele><time>2026-05-03T10:59:52.968Z</time></trkpt><trkpt lat="42.2114453" lon="13.9052048"><ele>305.0</ele><time>2026-05-03T10:59:53.969Z</time></trkpt><trkpt lat="42.2114598" lon="13.9052959"><ele>305.2857142857143</ele><time>2026-05-03T10:59:54.969Z</time></trkpt><trkpt lat="42.2114772" lon="13.9053888"><ele>305.57142857142856</ele><time>2026-05-03T10:59:55.969Z</time></trkpt><trkpt lat="42.2114949" lon="13.9054815"><ele>305.85714285714283</ele><time>2026-05-03T10:59:56.969Z</time></trkpt><trkpt lat="42.2115118" lon="13.9055737"><ele>306.1428571428571</ele><time>2026-05-03T10:59:57.969Z</time></trkpt><trkpt lat="42.2115309" lon="13.9056673"><ele>306.42857142857144</ele><time>2026-05-03T10:59:58.968Z</time></trkpt><trkpt lat="42.2115508" lon="13.9057598"><ele>306.71428571428567</ele><time>2026-05-03T10:59:59.969Z</time></trkpt><trkpt lat="42.21157" lon="13.9058506"><ele>307.0</ele><time>2026-05-03T11:00:00.968Z</time></trkpt><trkpt lat="42.2115882" lon="13.9059366"><ele>308.6</ele><time>2026-05-03T11:00:01.969Z</time></trkpt><trkpt lat="42.2116103" lon="13.9060184"><ele>310.2</ele><time>2026-05-03T11:00:02.968Z</time></trkpt><trkpt lat="42.2116355" lon="13.9060981"><ele>311.8</ele><time>2026-05-03T11:00:03.969Z</time></trkpt><trkpt lat="42.2116892" lon="13.9062399"><ele>313.4</ele><time>2026-05-03T11:00:05.969Z</time></trkpt><trkpt lat="42.2117365" lon="13.9063822"><ele>315.0</ele><time>2026-05-03T11:00:07.969Z</time></trkpt><trkpt lat="42.2117818" lon="13.9065434"><ele>315.0</ele><time>2026-05-03T11:00:09.969Z</time></trkpt><trkpt lat="42.2118026" lon="13.9066311"><ele>315.0</ele><time>2026-05-03T11:00:10.969Z</time></trkpt><trkpt lat="42.2118217" lon="13.9067177"><ele>315.0</ele><time>2026-05-03T11:00:11.968Z</time></trkpt><trkpt lat="42.2118374" lon="13.9068091"><ele>315.0</ele><time>2026-05-03T11:00:12.968Z</time></trkpt><trkpt lat="42.2118521" lon="13.9069076"><ele>315.0</ele><time>2026-05-03T11:00:13.968Z</time></trkpt><trkpt lat="42.2118714" lon="13.9070093"><ele>315.0</ele><time>2026-05-03T11:00:14.968Z</time></trkpt><trkpt lat="42.2118991" lon="13.907111"><ele>315.0</ele><time>2026-05-03T11:00:15.969Z</time></trkpt><trkpt lat="42.2119299" lon="13.9072104"><ele>316.57142857142856</ele><time>2026-05-03T11:00:16.969Z</time></trkpt><trkpt lat="42.2119615" lon="13.9073082"><ele>318.1428571428571</ele><time>2026-05-03T11:00:17.968Z</time></trkpt><trkpt lat="42.2119921" lon="13.9074042"><ele>319.7142857142857</ele><time>2026-05-03T11:00:18.968Z</time></trkpt><trkpt lat="42.2120183" lon="13.9074951"><ele>321.2857142857143</ele><time>2026-05-03T11:00:19.968Z</time></trkpt><trkpt lat="42.2120404" lon="13.9075819"><ele>322.85714285714283</ele><time>2026-05-03T11:00:20.968Z</time></trkpt><trkpt lat="42.2120571" lon="13.9076731"><ele>324.42857142857144</ele><time>2026-05-03T11:00:21.969Z</time></trkpt><trkpt lat="42.2120717" lon="13.9077823"><ele>326.0</ele><time>2026-05-03T11:00:22.969Z</time></trkpt><trkpt lat="42.2120896" lon="13.9079189"><ele>326.5</ele><time>2026-05-03T11:00:23.969Z</time></trkpt><trkpt lat="42.2121069" lon="13.9080637"><ele>327.0</ele><time>2026-05-03T11:00:24.969Z</time></trkpt><trkpt lat="42.212121" lon="13.9081878"><ele>327.5</ele><time>2026-05-03T11:00:25.968Z</time></trkpt><trkpt lat="42.2121263" lon="13.9082926"><ele>328.0</ele><time>2026-05-03T11:00:26.968Z</time></trkpt><trkpt lat="42.2121221" lon="13.9083913"><ele>328.5</ele><time>2026-05-03T11:00:27.968Z</time></trkpt><trkpt lat="42.212115" lon="13.9084769"><ele>329.0</ele><time>2026-05-03T11:00:28.968Z</time></trkpt><trkpt lat="42.2121101" lon="13.9085761"><ele>329.6</ele><time>2026-05-03T11:00:29.969Z</time></trkpt><trkpt lat="42.2121002" lon="13.9086978"><ele>330.2</ele><time>2026-05-03T11:00:30.968Z</time></trkpt><trkpt lat="42.2120779" lon="13.9088253"><ele>330.8</ele><time>2026-05-03T11:00:31.968Z</time></trkpt><trkpt lat="42.2120428" lon="13.9089455"><ele>331.40000000000003</ele><time>2026-05-03T11:00:32.969Z</time></trkpt><trkpt lat="42.2119941" lon="13.9090591"><ele>332.0</ele><time>2026-05-03T11:00:33.969Z</time></trkpt><trkpt lat="42.2119325" lon="13.9091706"><ele>332.8</ele><time>2026-05-03T11:00:34.968Z</time></trkpt><trkpt lat="42.2118674" lon="13.9092872"><ele>333.6</ele><time>2026-05-03T11:00:35.969Z</time></trkpt><trkpt lat="42.2118057" lon="13.9094019"><ele>334.40000000000003</ele><time>2026-05-03T11:00:36.969Z</time></trkpt><trkpt lat="42.2117587" lon="13.909502"><ele>335.20000000000005</ele><time>2026-05-03T11:00:37.969Z</time></trkpt><trkpt lat="42.211744" lon="13.9095941"><ele>336.0</ele><time>2026-05-03T11:00:38.969Z</time></trkpt><trkpt lat="42.2117478" lon="13.9097045"><ele>336.0</ele><time>2026-05-03T11:00:39.968Z</time></trkpt><trkpt lat="42.2117646" lon="13.9098276"><ele>336.0</ele><time>2026-05-03T11:00:40.968Z</time></trkpt><trkpt lat="42.2117815" lon="13.909944"><ele>336.0</ele><time>2026-05-03T11:00:41.969Z</time></trkpt><trkpt lat="42.2117924" lon="13.9100581"><ele>336.0</ele><time>2026-05-03T11:00:42.968Z</time></trkpt><trkpt lat="42.2118055" lon="13.9101803"><ele>336.0</ele><time>2026-05-03T11:00:43.969Z</time></trkpt><trkpt lat="42.2118147" lon="13.9103085"><ele>336.0</ele><time>2026-05-03T11:00:44.969Z</time></trkpt><trkpt lat="42.2118211" lon="13.910441"><ele>336.0</ele><time>2026-05-03T11:00:45.969Z</time></trkpt><trkpt lat="42.2118226" lon="13.9105745"><ele>336.0</ele><time>2026-05-03T11:00:46.968Z</time></trkpt><trkpt lat="42.2118133" lon="13.9107137"><ele>336.0</ele><time>2026-05-03T11:00:47.969Z</time></trkpt><trkpt lat="42.2118014" lon="13.9108504"><ele>336.0</ele><time>2026-05-03T11:00:48.968Z</time></trkpt><trkpt lat="42.2117888" lon="13.9109854"><ele>336.0</ele><time>2026-05-03T11:00:49.968Z</time></trkpt><trkpt lat="42.2117788" lon="13.911118"><ele>336.0</ele><time>2026-05-03T11:00:50.968Z</time></trkpt><trkpt lat="42.211767" lon="13.9112508"><ele>336.0</ele><time>2026-05-03T11:00:51.968Z</time></trkpt><trkpt lat="42.211755" lon="13.9113748"><ele>336.0</ele><time>2026-05-03T11:00:52.969Z</time></trkpt><trkpt lat="42.2117478" lon="13.9114662"><ele>336.0</ele><time>2026-05-03T11:00:53.968Z</time></trkpt><trkpt lat="42.2117485" lon="13.9116185"><ele>335.5</ele><time>2026-05-03T11:00:55.968Z</time></trkpt><trkpt lat="42.2117529" lon="13.9117621"><ele>335.0</ele><time>2026-05-03T11:00:57.968Z</time></trkpt><trkpt lat="42.2117759" lon="13.9118413"><ele>334.5</ele><time>2026-05-03T11:00:58.968Z</time></trkpt><trkpt lat="42.2118155" lon="13.9119165"><ele>334.0</ele><time>2026-05-03T11:00:59.969Z</time></trkpt><trkpt lat="42.2118945" lon="13.9120389"><ele>333.5</ele><time>2026-05-03T11:01:01.969Z</time></trkpt><trkpt lat="42.2119409" lon="13.9121161"><ele>333.0</ele><time>2026-05-03T11:01:02.969Z</time></trkpt><trkpt lat="42.2119851" lon="13.9121917"><ele>333.0</ele><time>2026-05-03T11:01:03.968Z</time></trkpt><trkpt lat="42.212034" lon="13.9122687"><ele>333.0</ele><time>2026-05-03T11:01:04.968Z</time></trkpt><trkpt lat="42.2120836" lon="13.91235"><ele>333.0</ele><time>2026-05-03T11:01:05.969Z</time></trkpt><trkpt lat="42.2121368" lon="13.9124281"><ele>333.0</ele><time>2026-05-03T11:01:06.968Z</time></trkpt><trkpt lat="42.2121909" lon="13.912509"><ele>333.0</ele><time>2026-05-03T11:01:07.969Z</time></trkpt><trkpt lat="42.2122506" lon="13.9125865"><ele>333.0</ele><time>2026-05-03T11:01:08.969Z</time></trkpt><trkpt lat="42.2123248" lon="13.9126506"><ele>333.79999999999995</ele><time>2026-05-03T11:01:09.969Z</time></trkpt><trkpt lat="42.2124111" lon="13.9127048"><ele>334.6</ele><time>2026-05-03T11:01:10.969Z</time></trkpt><trkpt lat="42.2125017" lon="13.9127615"><ele>335.4</ele><time>2026-05-03T11:01:11.968Z</time></trkpt><trkpt lat="42.2125902" lon="13.9128344"><ele>336.20000000000005</ele><time>2026-05-03T11:01:12.969Z</time></trkpt><trkpt lat="42.2126697" lon="13.912897"><ele>337.0</ele><time>2026-05-03T11:01:13.968Z</time></trkpt><trkpt lat="42.2127318" lon="13.9129587"><ele>337.0</ele><time>2026-05-03T11:01:14.969Z</time></trkpt><trkpt lat="42.2127936" lon="13.9130004"><ele>337.0</ele><time>2026-05-03T11:01:15.969Z</time></trkpt><trkpt lat="42.2128674" lon="13.9130479"><ele>337.0</ele><time>2026-05-03T11:01:16.969Z</time></trkpt><trkpt lat="42.212952" lon="13.9130956"><ele>337.0</ele><time>2026-05-03T11:01:17.969Z</time></trkpt><trkpt lat="42.2130461" lon="13.9131458"><ele>337.0</ele><time>2026-05-03T11:01:18.968Z</time></trkpt><trkpt lat="42.2131569" lon="13.913191"><ele>338.0</ele><time>2026-05-03T11:01:19.969Z</time></trkpt><trkpt lat="42.2132621" lon="13.9132285"><ele>339.0</ele><time>2026-05-03T11:01:20.969Z</time></trkpt><trkpt lat="42.2133748" lon="13.9132572"><ele>340.0</ele><time>2026-05-03T11:01:21.969Z</time></trkpt><trkpt lat="42.2134879" lon="13.9132839"><ele>341.0</ele><time>2026-05-03T11:01:22.969Z</time></trkpt><trkpt lat="42.2135983" lon="13.913314"><ele>341.0</ele><time>2026-05-03T11:01:23.969Z</time></trkpt><trkpt lat="42.2137002" lon="13.913336"><ele>341.0</ele><time>2026-05-03T11:01:24.968Z</time></trkpt><trkpt lat="42.2137963" lon="13.9133539"><ele>341.0</ele><time>2026-05-03T11:01:25.969Z</time></trkpt><trkpt lat="42.213886" lon="13.9133647"><ele>341.0</ele><time>2026-05-03T11:01:26.968Z</time></trkpt><trkpt lat="42.213967" lon="13.9133613"><ele>341.0</ele><time>2026-05-03T11:01:27.969Z</time></trkpt><trkpt lat="42.2140442" lon="13.9133528"><ele>341.0</ele><time>2026-05-03T11:01:28.969Z</time></trkpt><trkpt lat="42.2141165" lon="13.9133401"><ele>341.4</ele><time>2026-05-03T11:01:29.969Z</time></trkpt><trkpt lat="42.2141914" lon="13.9133297"><ele>341.8</ele><time>2026-05-03T11:01:30.969Z</time></trkpt><trkpt lat="42.2142809" lon="13.913305"><ele>342.2</ele><time>2026-05-03T11:01:31.969Z</time></trkpt><trkpt lat="42.214376" lon="13.9132665"><ele>342.59999999999997</ele><time>2026-05-03T11:01:32.969Z</time></trkpt><trkpt lat="42.2144668" lon="13.9132247"><ele>343.0</ele><time>2026-05-03T11:01:33.969Z</time></trkpt><trkpt lat="42.2145653" lon="13.91318"><ele>343.0</ele><time>2026-05-03T11:01:34.969Z</time></trkpt><trkpt lat="42.214661" lon="13.9131459"><ele>343.0</ele><time>2026-05-03T11:01:35.969Z</time></trkpt><trkpt lat="42.2147572" lon="13.913121"><ele>343.0</ele><time>2026-05-03T11:01:36.968Z</time></trkpt><trkpt lat="42.2148539" lon="13.9131237"><ele>343.0</ele><time>2026-05-03T11:01:37.968Z</time></trkpt><trkpt lat="42.2149443" lon="13.9131601"><ele>343.0</ele><time>2026-05-03T11:01:38.969Z</time></trkpt><trkpt lat="42.2150433" lon="13.9132216"><ele>342.0</ele><time>2026-05-03T11:01:39.968Z</time></trkpt><trkpt lat="42.2151531" lon="13.9132997"><ele>341.0</ele><time>2026-05-03T11:01:40.969Z</time></trkpt><trkpt lat="42.2152725" lon="13.913385"><ele>340.0</ele><time>2026-05-03T11:01:41.969Z</time></trkpt><trkpt lat="42.2154004" lon="13.9134745"><ele>339.0</ele><time>2026-05-03T11:01:42.968Z</time></trkpt><trkpt lat="42.2155353" lon="13.9135683"><ele>337.6666666666667</ele><time>2026-05-03T11:01:43.969Z</time></trkpt><trkpt lat="42.2156728" lon="13.9136657"><ele>336.33333333333337</ele><time>2026-05-03T11:01:44.969Z</time></trkpt><trkpt lat="42.2158108" lon="13.9137652"><ele>335.0</ele><time>2026-05-03T11:01:45.969Z</time></trkpt><trkpt lat="42.2159467" lon="13.9138561"><ele>335.0</ele><time>2026-05-03T11:01:46.968Z</time></trkpt><trkpt lat="42.2160708" lon="13.9139471"><ele>335.0</ele><time>2026-05-03T11:01:47.968Z</time></trkpt><trkpt lat="42.2161525" lon="13.9140066"><ele>335.0</ele><time>2026-05-03T11:01:48.969Z</time></trkpt><trkpt lat="42.2162159" lon="13.9140676"><ele>335.0</ele><time>2026-05-03T11:01:50.968Z</time></trkpt><trkpt lat="42.2161655" lon="13.9141739"><ele>335.0</ele><time>2026-05-03T11:01:54.969Z</time></trkpt><trkpt lat="42.2160923" lon="13.9143343"><ele>334.0</ele><time>2026-05-03T11:01:56.968Z</time></trkpt><trkpt lat="42.2160376" lon="13.9144067"><ele>333.0</ele><time>2026-05-03T11:01:57.968Z</time></trkpt><trkpt lat="42.2159587" lon="13.9144807"><ele>332.0</ele><time>2026-05-03T11:01:58.969Z</time></trkpt><trkpt lat="42.2158666" lon="13.9145514"><ele>331.0</ele><time>2026-05-03T11:01:59.969Z</time></trkpt><trkpt lat="42.2157757" lon="13.9146067"><ele>330.0</ele><time>2026-05-03T11:02:00.969Z</time></trkpt><trkpt lat="42.2156933" lon="13.9146554"><ele>330.3333333333333</ele><time>2026-05-03T11:02:01.969Z</time></trkpt><trkpt lat="42.2156167" lon="13.9147147"><ele>330.6666666666667</ele><time>2026-05-03T11:02:02.968Z</time></trkpt><trkpt lat="42.2155438" lon="13.9147764"><ele>331.0</ele><time>2026-05-03T11:02:03.969Z</time></trkpt><trkpt lat="42.2154668" lon="13.9148273"><ele>331.33333333333337</ele><time>2026-05-03T11:02:04.969Z</time></trkpt><trkpt lat="42.2153782" lon="13.9148666"><ele>331.6666666666667</ele><time>2026-05-03T11:02:05.968Z</time></trkpt><trkpt lat="42.2152931" lon="13.9148985"><ele>332.0</ele><time>2026-05-03T11:02:06.968Z</time></trkpt><trkpt lat="42.2152169" lon="13.9149301"><ele>332.0</ele><time>2026-05-03T11:02:07.968Z</time></trkpt><trkpt lat="42.2151569" lon="13.9149647"><ele>332.0</ele><time>2026-05-03T11:02:08.968Z</time></trkpt><trkpt lat="42.2150825" lon="13.9150315"><ele>332.0</ele><time>2026-05-03T11:02:10.969Z</time></trkpt><trkpt lat="42.214992" lon="13.9151487"><ele>332.0</ele><time>2026-05-03T11:02:12.969Z</time></trkpt><trkpt lat="42.2149222" lon="13.9152202"><ele>332.0</ele><time>2026-05-03T11:02:13.969Z</time></trkpt><trkpt lat="42.2148374" lon="13.9153028"><ele>330.25</ele><time>2026-05-03T11:02:14.969Z</time></trkpt><trkpt lat="42.2147401" lon="13.9153854"><ele>328.5</ele><time>2026-05-03T11:02:15.969Z</time></trkpt><trkpt lat="42.2146375" lon="13.9154511"><ele>326.75</ele><time>2026-05-03T11:02:16.969Z</time></trkpt><trkpt lat="42.2145421" lon="13.915517"><ele>325.0</ele><time>2026-05-03T11:02:17.968Z</time></trkpt><trkpt lat="42.2144443" lon="13.9156107"><ele>325.0</ele><time>2026-05-03T11:02:18.969Z</time></trkpt><trkpt lat="42.2143489" lon="13.9157158"><ele>325.0</ele><time>2026-05-03T11:02:19.969Z</time></trkpt><trkpt lat="42.2142531" lon="13.9158282"><ele>325.0</ele><time>2026-05-03T11:02:20.968Z</time></trkpt><trkpt lat="42.2141613" lon="13.9159351"><ele>325.0</ele><time>2026-05-03T11:02:21.969Z</time></trkpt><trkpt lat="42.2140681" lon="13.9160417"><ele>323.5</ele><time>2026-05-03T11:02:22.969Z</time></trkpt><trkpt lat="42.2139616" lon="13.9161408"><ele>322.0</ele><time>2026-05-03T11:02:23.968Z</time></trkpt><trkpt lat="42.2138505" lon="13.9162226"><ele>320.5</ele><time>2026-05-03T11:02:24.969Z</time></trkpt><trkpt lat="42.2137426" lon="13.9162988"><ele>319.0</ele><time>2026-05-03T11:02:25.968Z</time></trkpt><trkpt lat="42.2136409" lon="13.9163831"><ele>319.0</ele><time>2026-05-03T11:02:26.968Z</time></trkpt><trkpt lat="42.21356" lon="13.9164911"><ele>319.0</ele><time>2026-05-03T11:02:27.968Z</time></trkpt><trkpt lat="42.2135013" lon="13.9166163"><ele>319.0</ele><time>2026-05-03T11:02:28.969Z</time></trkpt><trkpt lat="42.2134711" lon="13.9167602"><ele>319.0</ele><time>2026-05-03T11:02:29.968Z</time></trkpt><trkpt lat="42.2134666" lon="13.9169269"><ele>319.5</ele><time>2026-05-03T11:02:30.968Z</time></trkpt><trkpt lat="42.2134781" lon="13.917102"><ele>320.0</ele><time>2026-05-03T11:02:31.969Z</time></trkpt><trkpt lat="42.2134874" lon="13.9172833"><ele>320.5</ele><time>2026-05-03T11:02:32.968Z</time></trkpt><trkpt lat="42.2134901" lon="13.9174677"><ele>321.0</ele><time>2026-05-03T11:02:33.969Z</time></trkpt><trkpt lat="42.2134839" lon="13.9176321"><ele>321.8</ele><time>2026-05-03T11:02:34.968Z</time></trkpt><trkpt lat="42.2134703" lon="13.9177768"><ele>322.6</ele><time>2026-05-03T11:02:35.969Z</time></trkpt><trkpt lat="42.2134554" lon="13.9179045"><ele>323.4</ele><time>2026-05-03T11:02:36.969Z</time></trkpt><trkpt lat="42.2134412" lon="13.9180078"><ele>324.2</ele><time>2026-05-03T11:02:37.968Z</time></trkpt><trkpt lat="42.2134638" lon="13.9181256"><ele>325.0</ele><time>2026-05-03T11:02:39.969Z</time></trkpt><trkpt lat="42.2135805" lon="13.9181719"><ele>325.0</ele><time>2026-05-03T11:02:41.969Z</time></trkpt><trkpt lat="42.2136633" lon="13.9182207"><ele>325.0</ele><time>2026-05-03T11:02:42.968Z</time></trkpt><trkpt lat="42.2137422" lon="13.9182941"><ele>325.0</ele><time>2026-05-03T11:02:43.969Z</time></trkpt><trkpt lat="42.2138179" lon="13.9183904"><ele>325.0</ele><time>2026-05-03T11:02:44.969Z</time></trkpt><trkpt lat="42.2138914" lon="13.9184996"><ele>325.0</ele><time>2026-05-03T11:02:45.969Z</time></trkpt><trkpt lat="42.2139655" lon="13.9186205"><ele>324.75</ele><time>2026-05-03T11:02:46.968Z</time></trkpt><trkpt lat="42.2140491" lon="13.9187364"><ele>324.5</ele><time>2026-05-03T11:02:47.969Z</time></trkpt><trkpt lat="42.2141443" lon="13.9188503"><ele>324.25</ele><time>2026-05-03T11:02:48.969Z</time></trkpt><trkpt lat="42.2142445" lon="13.9189583"><ele>324.0</ele><time>2026-05-03T11:02:49.968Z</time></trkpt><trkpt lat="42.2143383" lon="13.9190557"><ele>324.0</ele><time>2026-05-03T11:02:50.969Z</time></trkpt><trkpt lat="42.2144296" lon="13.9191482"><ele>324.0</ele><time>2026-05-03T11:02:51.969Z</time></trkpt><trkpt lat="42.2145318" lon="13.9192362"><ele>324.0</ele><time>2026-05-03T11:02:52.968Z</time></trkpt><trkpt lat="42.2146454" lon="13.9193293"><ele>324.0</ele><time>2026-05-03T11:02:53.969Z</time></trkpt><trkpt lat="42.2147649" lon="13.9194228"><ele>323.75</ele><time>2026-05-03T11:02:54.968Z</time></trkpt><trkpt lat="42.2148902" lon="13.9195193"><ele>323.5</ele><time>2026-05-03T11:02:55.969Z</time></trkpt><trkpt lat="42.2150177" lon="13.9196228"><ele>323.25</ele><time>2026-05-03T11:02:56.969Z</time></trkpt><trkpt lat="42.215144" lon="13.919736"><ele>323.0</ele><time>2026-05-03T11:02:57.969Z</time></trkpt><trkpt lat="42.215267" lon="13.9198555"><ele>323.0</ele><time>2026-05-03T11:02:58.969Z</time></trkpt><trkpt lat="42.2153898" lon="13.9199769"><ele>323.0</ele><time>2026-05-03T11:02:59.969Z</time></trkpt><trkpt lat="42.2155089" lon="13.9200929"><ele>323.0</ele><time>2026-05-03T11:03:00.969Z</time></trkpt><trkpt lat="42.215622" lon="13.9202108"><ele>323.0</ele><time>2026-05-03T11:03:01.969Z</time></trkpt><trkpt lat="42.2157319" lon="13.9203292"><ele>322.25</ele><time>2026-05-03T11:03:02.968Z</time></trkpt><trkpt lat="42.2158367" lon="13.9204454"><ele>321.5</ele><time>2026-05-03T11:03:03.969Z</time></trkpt><trkpt lat="42.2159338" lon="13.9205494"><ele>320.75</ele><time>2026-05-03T11:03:04.968Z</time></trkpt><trkpt lat="42.216029" lon="13.9206516"><ele>320.0</ele><time>2026-05-03T11:03:05.968Z</time></trkpt><trkpt lat="42.216123" lon="13.9207641"><ele>320.0</ele><time>2026-05-03T11:03:06.969Z</time></trkpt><trkpt lat="42.2162094" lon="13.9208853"><ele>320.0</ele><time>2026-05-03T11:03:07.969Z</time></trkpt><trkpt lat="42.2162942" lon="13.9210104"><ele>320.0</ele><time>2026-05-03T11:03:08.969Z</time></trkpt><trkpt lat="42.2163815" lon="13.9211403"><ele>320.0</ele><time>2026-05-03T11:03:09.968Z</time></trkpt><trkpt lat="42.2164693" lon="13.9212675"><ele>319.75</ele><time>2026-05-03T11:03:10.969Z</time></trkpt><trkpt lat="42.2165595" lon="13.9213913"><ele>319.5</ele><time>2026-05-03T11:03:11.969Z</time></trkpt><trkpt lat="42.216651" lon="13.9215093"><ele>319.25</ele><time>2026-05-03T11:03:12.969Z</time></trkpt><trkpt lat="42.2167434" lon="13.9216146"><ele>319.0</ele><time>2026-05-03T11:03:13.969Z</time></trkpt><trkpt lat="42.216834" lon="13.9217185"><ele>318.59999999999997</ele><time>2026-05-03T11:03:14.968Z</time></trkpt><trkpt lat="42.2169165" lon="13.9218321"><ele>318.2</ele><time>2026-05-03T11:03:15.969Z</time></trkpt><trkpt lat="42.2169902" lon="13.9219574"><ele>317.79999999999995</ele><time>2026-05-03T11:03:16.969Z</time></trkpt><trkpt lat="42.2170446" lon="13.9220756"><ele>317.4</ele><time>2026-05-03T11:03:17.969Z</time></trkpt><trkpt lat="42.2170924" lon="13.9222055"><ele>317.0</ele><time>2026-05-03T11:03:18.969Z</time></trkpt><trkpt lat="42.2171377" lon="13.9223511"><ele>317.0</ele><time>2026-05-03T11:03:19.968Z</time></trkpt><trkpt lat="42.217188" lon="13.9225048"><ele>317.0</ele><time>2026-05-03T11:03:20.968Z</time></trkpt><trkpt lat="42.2172344" lon="13.9226563"><ele>317.0</ele><time>2026-05-03T11:03:21.969Z</time></trkpt><trkpt lat="42.2172815" lon="13.9228042"><ele>317.0</ele><time>2026-05-03T11:03:22.969Z</time></trkpt><trkpt lat="42.2173316" lon="13.9229453"><ele>315.8</ele><time>2026-05-03T11:03:23.969Z</time></trkpt><trkpt lat="42.2173798" lon="13.9230676"><ele>314.6</ele><time>2026-05-03T11:03:24.968Z</time></trkpt><trkpt lat="42.2174268" lon="13.923159"><ele>313.40000000000003</ele><time>2026-05-03T11:03:25.969Z</time></trkpt><trkpt lat="42.2174853" lon="13.9232271"><ele>312.2</ele><time>2026-05-03T11:03:26.969Z</time></trkpt><trkpt lat="42.2175601" lon="13.9232966"><ele>311.0</ele><time>2026-05-03T11:03:27.968Z</time></trkpt><trkpt lat="42.2176462" lon="13.9233706"><ele>310.25</ele><time>2026-05-03T11:03:28.969Z</time></trkpt><trkpt lat="42.2177442" lon="13.9234466"><ele>309.5</ele><time>2026-05-03T11:03:29.968Z</time></trkpt><trkpt lat="42.2178543" lon="13.9235203"><ele>308.75</ele><time>2026-05-03T11:03:30.969Z</time></trkpt><trkpt lat="42.2179625" lon="13.9235902"><ele>308.0</ele><time>2026-05-03T11:03:31.968Z</time></trkpt><trkpt lat="42.2180626" lon="13.9236662"><ele>308.0</ele><time>2026-05-03T11:03:32.968Z</time></trkpt><trkpt lat="42.21816" lon="13.9237608"><ele>308.0</ele><time>2026-05-03T11:03:33.969Z</time></trkpt><trkpt lat="42.2182607" lon="13.9238594"><ele>308.0</ele><time>2026-05-03T11:03:34.968Z</time></trkpt><trkpt lat="42.2183701" lon="13.9239542"><ele>308.0</ele><time>2026-05-03T11:03:35.969Z</time></trkpt><trkpt lat="42.2184811" lon="13.9240416"><ele>308.0</ele><time>2026-05-03T11:03:36.969Z</time></trkpt><trkpt lat="42.2185845" lon="13.9241229"><ele>308.0</ele><time>2026-05-03T11:03:37.968Z</time></trkpt><trkpt lat="42.2186838" lon="13.9242001"><ele>308.0</ele><time>2026-05-03T11:03:38.969Z</time></trkpt><trkpt lat="42.2187686" lon="13.9242552"><ele>308.0</ele><time>2026-05-03T11:03:39.968Z</time></trkpt><trkpt lat="42.2188513" lon="13.9242918"><ele>308.0</ele><time>2026-05-03T11:03:40.968Z</time></trkpt><trkpt lat="42.2189318" lon="13.9243315"><ele>307.0</ele><time>2026-05-03T11:03:41.968Z</time></trkpt><trkpt lat="42.2190095" lon="13.9243713"><ele>306.0</ele><time>2026-05-03T11:03:42.969Z</time></trkpt><trkpt lat="42.2190843" lon="13.9244113"><ele>305.0</ele><time>2026-05-03T11:03:43.968Z</time></trkpt><trkpt lat="42.2191647" lon="13.9244567"><ele>304.0</ele><time>2026-05-03T11:03:44.969Z</time></trkpt><trkpt lat="42.2192466" lon="13.9245137"><ele>303.0</ele><time>2026-05-03T11:03:45.969Z</time></trkpt><trkpt lat="42.2193213" lon="13.9245907"><ele>302.0</ele><time>2026-05-03T11:03:46.969Z</time></trkpt><trkpt lat="42.2193917" lon="13.9246788"><ele>302.0</ele><time>2026-05-03T11:03:47.969Z</time></trkpt><trkpt lat="42.2194561" lon="13.9247689"><ele>302.0</ele><time>2026-05-03T11:03:48.969Z</time></trkpt><trkpt lat="42.2195162" lon="13.9248599"><ele>302.0</ele><time>2026-05-03T11:03:49.968Z</time></trkpt><trkpt lat="42.2195787" lon="13.9249471"><ele>302.0</ele><time>2026-05-03T11:03:50.968Z</time></trkpt><trkpt lat="42.2196417" lon="13.9250305"><ele>302.0</ele><time>2026-05-03T11:03:51.969Z</time></trkpt><trkpt lat="42.2197012" lon="13.925114"><ele>302.0</ele><time>2026-05-03T11:03:52.969Z</time></trkpt><trkpt lat="42.219757" lon="13.9252016"><ele>301.33333333333337</ele><time>2026-05-03T11:03:53.969Z</time></trkpt><trkpt lat="42.2198185" lon="13.925281"><ele>300.6666666666667</ele><time>2026-05-03T11:03:54.968Z</time></trkpt><trkpt lat="42.2198864" lon="13.9253563"><ele>300.0</ele><time>2026-05-03T11:03:55.969Z</time></trkpt><trkpt lat="42.2199555" lon="13.9254323"><ele>299.3333333333333</ele><time>2026-05-03T11:03:56.969Z</time></trkpt><trkpt lat="42.2200259" lon="13.9254995"><ele>298.66666666666663</ele><time>2026-05-03T11:03:57.968Z</time></trkpt><trkpt lat="42.2201026" lon="13.9255487"><ele>298.0</ele><time>2026-05-03T11:03:58.969Z</time></trkpt><trkpt lat="42.2201912" lon="13.9255805"><ele>298.0</ele><time>2026-05-03T11:03:59.968Z</time></trkpt><trkpt lat="42.2202858" lon="13.9255994"><ele>298.0</ele><time>2026-05-03T11:04:00.968Z</time></trkpt><trkpt lat="42.2203787" lon="13.9256124"><ele>298.0</ele><time>2026-05-03T11:04:01.968Z</time></trkpt><trkpt lat="42.220463" lon="13.9256242"><ele>298.0</ele><time>2026-05-03T11:04:02.968Z</time></trkpt><trkpt lat="42.2205714" lon="13.925631"><ele>298.0</ele><time>2026-05-03T11:04:04.969Z</time></trkpt><trkpt lat="42.2206913" lon="13.9255809"><ele>297.1428571428571</ele><time>2026-05-03T11:04:06.969Z</time></trkpt><trkpt lat="42.2207617" lon="13.9255548"><ele>296.2857142857143</ele><time>2026-05-03T11:04:07.969Z</time></trkpt><trkpt lat="42.2208316" lon="13.9255341"><ele>295.42857142857144</ele><time>2026-05-03T11:04:08.968Z</time></trkpt><trkpt lat="42.2209018" lon="13.925522"><ele>294.57142857142856</ele><time>2026-05-03T11:04:09.968Z</time></trkpt><trkpt lat="42.2209739" lon="13.9255206"><ele>293.7142857142857</ele><time>2026-05-03T11:04:10.968Z</time></trkpt><trkpt lat="42.2210477" lon="13.925526"><ele>292.85714285714283</ele><time>2026-05-03T11:04:11.968Z</time></trkpt><trkpt lat="42.2211223" lon="13.9255303"><ele>292.0</ele><time>2026-05-03T11:04:12.969Z</time></trkpt><trkpt lat="42.2211985" lon="13.9255347"><ele>292.0</ele><time>2026-05-03T11:04:13.968Z</time></trkpt><trkpt lat="42.2212764" lon="13.9255419"><ele>292.0</ele><time>2026-05-03T11:04:14.969Z</time></trkpt><trkpt lat="42.2213544" lon="13.9255401"><ele>292.0</ele><time>2026-05-03T11:04:15.969Z</time></trkpt><trkpt lat="42.2214333" lon="13.9255408"><ele>292.0</ele><time>2026-05-03T11:04:16.968Z</time></trkpt><trkpt lat="42.2215104" lon="13.9255476"><ele>292.0</ele><time>2026-05-03T11:04:17.969Z</time></trkpt><trkpt lat="42.2215862" lon="13.9255608"><ele>292.0</ele><time>2026-05-03T11:04:18.968Z</time></trkpt><trkpt lat="42.2216563" lon="13.9255708"><ele>290.57142857142856</ele><time>2026-05-03T11:04:19.968Z</time></trkpt><trkpt lat="42.2217304" lon="13.9255839"><ele>289.14285714285717</ele><time>2026-05-03T11:04:20.969Z</time></trkpt><trkpt lat="42.2218073" lon="13.9255961"><ele>287.7142857142857</ele><time>2026-05-03T11:04:21.968Z</time></trkpt><trkpt lat="42.2218799" lon="13.9256128"><ele>286.2857142857143</ele><time>2026-05-03T11:04:22.969Z</time></trkpt><trkpt lat="42.221945" lon="13.9256274"><ele>284.85714285714283</ele><time>2026-05-03T11:04:23.968Z</time></trkpt><trkpt lat="42.2220062" lon="13.9256508"><ele>283.42857142857144</ele><time>2026-05-03T11:04:24.969Z</time></trkpt><trkpt lat="42.2220717" lon="13.925677"><ele>282.0</ele><time>2026-05-03T11:04:25.969Z</time></trkpt><trkpt lat="42.2221457" lon="13.9257186"><ele>282.0</ele><time>2026-05-03T11:04:27.969Z</time></trkpt><trkpt lat="42.2222172" lon="13.9257975"><ele>282.0</ele><time>2026-05-03T11:04:30.969Z</time></trkpt><trkpt lat="42.222264" lon="13.9258792"><ele>282.0</ele><time>2026-05-03T11:04:32.969Z</time></trkpt><trkpt lat="42.2222945" lon="13.925955"><ele>282.0</ele><time>2026-05-03T11:04:34.968Z</time></trkpt><trkpt lat="42.2222826" lon="13.926067"><ele>282.0</ele><time>2026-05-03T11:04:37.968Z</time></trkpt><trkpt lat="42.2222374" lon="13.9261763"><ele>282.0</ele><time>2026-05-03T11:04:40.969Z</time></trkpt><trkpt lat="42.2221773" lon="13.9262516"><ele>279.6666666666667</ele><time>2026-05-03T11:04:43.969Z</time></trkpt><trkpt lat="42.2220913" lon="13.9263167"><ele>277.3333333333333</ele><time>2026-05-03T11:04:46.968Z</time></trkpt><trkpt lat="42.2220149" lon="13.9263698"><ele>275.0</ele><time>2026-05-03T11:04:48.969Z</time></trkpt><trkpt lat="42.2219329" lon="13.9264298"><ele>272.66666666666663</ele><time>2026-05-03T11:04:51.969Z</time></trkpt><trkpt lat="42.2218796" lon="13.9264873"><ele>270.3333333333333</ele><time>2026-05-03T11:04:53.969Z</time></trkpt><trkpt lat="42.2218174" lon="13.9265476"><ele>268.0</ele><time>2026-05-03T11:04:55.968Z</time></trkpt><trkpt lat="42.2217561" lon="13.9266247"><ele>266.3333333333333</ele><time>2026-05-03T11:04:57.969Z</time></trkpt><trkpt lat="42.2217292" lon="13.9267395"><ele>264.66666666666663</ele><time>2026-05-03T11:04:59.969Z</time></trkpt><trkpt lat="42.2217099" lon="13.9268443"><ele>263.0</ele><time>2026-05-03T11:05:01.969Z</time></trkpt><trkpt lat="42.2217297" lon="13.9269529"><ele>261.3333333333333</ele><time>2026-05-03T11:05:04.969Z</time></trkpt><trkpt lat="42.2217864" lon="13.927054"><ele>259.6666666666667</ele><time>2026-05-03T11:05:06.968Z</time></trkpt><trkpt lat="42.2218617" lon="13.9271009"><ele>258.0</ele><time>2026-05-03T11:05:10.968Z</time></trkpt><trkpt lat="42.2219221" lon="13.9270711"><ele>258.0</ele><time>2026-05-03T11:05:12.968Z</time></trkpt><trkpt lat="42.2219911" lon="13.9270544"><ele>258.0</ele><time>2026-05-03T11:05:14.969Z</time></trkpt><trkpt lat="42.2220584" lon="13.927043"><ele>258.0</ele><time>2026-05-03T11:05:17.968Z</time></trkpt><trkpt lat="42.2221168" lon="13.9270103"><ele>258.0</ele><time>2026-05-03T11:05:19.969Z</time></trkpt><trkpt lat="42.2222075" lon="13.9269406"><ele>258.0</ele><time>2026-05-03T11:05:21.968Z</time></trkpt><trkpt lat="42.2222999" lon="13.9268664"><ele>258.0</ele><time>2026-05-03T11:05:23.969Z</time></trkpt><trkpt lat="42.2223242" lon="13.9267562"><ele>257.8333333333333</ele><time>2026-05-03T11:05:27.969Z</time></trkpt><trkpt lat="42.2223772" lon="13.9266687"><ele>257.6666666666667</ele><time>2026-05-03T11:05:35.969Z</time></trkpt><trkpt lat="42.2224588" lon="13.9265871"><ele>257.5</ele><time>2026-05-03T11:05:37.969Z</time></trkpt><trkpt lat="42.2225479" lon="13.9265286"><ele>257.33333333333337</ele><time>2026-05-03T11:05:39.968Z</time></trkpt><trkpt lat="42.22262" lon="13.9264879"><ele>257.1666666666667</ele><time>2026-05-03T11:05:41.969Z</time></trkpt><trkpt lat="42.2226713" lon="13.926438"><ele>257.0</ele><time>2026-05-03T11:05:43.969Z</time></trkpt><trkpt lat="42.222721" lon="13.9263726"><ele>257.0</ele><time>2026-05-03T11:05:45.968Z</time></trkpt><trkpt lat="42.2227649" lon="13.9263008"><ele>257.0</ele><time>2026-05-03T11:05:47.968Z</time></trkpt><trkpt lat="42.2227946" lon="13.9262244"><ele>257.0</ele><time>2026-05-03T11:05:49.969Z</time></trkpt><trkpt lat="42.2228232" lon="13.9261048"><ele>257.0</ele><time>2026-05-03T11:05:52.969Z</time></trkpt><trkpt lat="42.2228141" lon="13.9260059"><ele>257.0</ele><time>2026-05-03T11:05:54.923Z</time></trkpt><trkpt lat="42.2227907" lon="13.9259115"><ele>257.0</ele><time>2026-05-03T11:05:56.968Z</time></trkpt><trkpt lat="42.222754" lon="13.9258191"><ele>257.0</ele><time>2026-05-03T11:06:00.957Z</time></trkpt><trkpt lat="42.2228482" lon="13.9258276"><ele>257.0</ele><time>2026-05-03T11:06:36.969Z</time></trkpt><trkpt lat="42.2229169" lon="13.9258584"><ele>257.0</ele><time>2026-05-03T11:06:38.969Z</time></trkpt><trkpt lat="42.2229619" lon="13.9259201"><ele>257.0</ele><time>2026-05-03T11:06:41.968Z</time></trkpt><trkpt lat="42.2229738" lon="13.926038"><ele>257.0</ele><time>2026-05-03T11:06:44.969Z</time></trkpt><trkpt lat="42.2229386" lon="13.926146"><ele>257.0</ele><time>2026-05-03T11:06:46.968Z</time></trkpt><trkpt lat="42.2228921" lon="13.9262842"><ele>257.0</ele><time>2026-05-03T11:06:48.968Z</time></trkpt><trkpt lat="42.222847" lon="13.9264341"><ele>257.0</ele><time>2026-05-03T11:06:50.969Z</time></trkpt><trkpt lat="42.2228194" lon="13.9265168"><ele>257.0</ele><time>2026-05-03T11:06:51.968Z</time></trkpt><trkpt lat="42.2227884" lon="13.9265997"><ele>257.0</ele><time>2026-05-03T11:06:52.968Z</time></trkpt><trkpt lat="42.2227405" lon="13.926762"><ele>257.0</ele><time>2026-05-03T11:06:54.969Z</time></trkpt><trkpt lat="42.2227158" lon="13.926852"><ele>255.0</ele><time>2026-05-03T11:06:55.969Z</time></trkpt><trkpt lat="42.2226886" lon="13.926945"><ele>253.0</ele><time>2026-05-03T11:06:56.969Z</time></trkpt><trkpt lat="42.2226356" lon="13.9270721"><ele>251.0</ele><time>2026-05-03T11:06:58.969Z</time></trkpt><trkpt lat="42.2225826" lon="13.9271903"><ele>249.0</ele><time>2026-05-03T11:07:00.969Z</time></trkpt><trkpt lat="42.2225309" lon="13.9273484"><ele>247.0</ele><time>2026-05-03T11:07:02.969Z</time></trkpt><trkpt lat="42.2224985" lon="13.9274333"><ele>246.99999999999997</ele><time>2026-05-03T11:07:03.969Z</time></trkpt><trkpt lat="42.2224658" lon="13.927524"><ele>247.0</ele><time>2026-05-03T11:07:04.969Z</time></trkpt><trkpt lat="42.2224328" lon="13.9276171"><ele>247.0</ele><time>2026-05-03T11:07:05.969Z</time></trkpt><trkpt lat="42.2224037" lon="13.9277084"><ele>247.0</ele><time>2026-05-03T11:07:06.969Z</time></trkpt><trkpt lat="42.2223786" lon="13.9278016"><ele>246.99999999999997</ele><time>2026-05-03T11:07:07.969Z</time></trkpt><trkpt lat="42.2223513" lon="13.9278939"><ele>247.0</ele><time>2026-05-03T11:07:08.969Z</time></trkpt><trkpt lat="42.2223164" lon="13.928001"><ele>246.99999999999997</ele><time>2026-05-03T11:07:09.969Z</time></trkpt><trkpt lat="42.2222821" lon="13.928107"><ele>247.0</ele><time>2026-05-03T11:07:10.968Z</time></trkpt><trkpt lat="42.2222454" lon="13.9282085"><ele>247.0</ele><time>2026-05-03T11:07:11.968Z</time></trkpt><trkpt lat="42.2222049" lon="13.9283182"><ele>247.0</ele><time>2026-05-03T11:07:12.968Z</time></trkpt><trkpt lat="42.222163" lon="13.9284271"><ele>246.99999999999997</ele><time>2026-05-03T11:07:13.969Z</time></trkpt><trkpt lat="42.2221184" lon="13.9285337"><ele>247.0</ele><time>2026-05-03T11:07:14.969Z</time></trkpt><trkpt lat="42.2220736" lon="13.9286397"><ele>247.0</ele><time>2026-05-03T11:07:15.969Z</time></trkpt><trkpt lat="42.2220214" lon="13.9287664"><ele>247.0</ele><time>2026-05-03T11:07:16.969Z</time></trkpt><trkpt lat="42.2219549" lon="13.9289226"><ele>247.0</ele><time>2026-05-03T11:07:17.969Z</time></trkpt><trkpt lat="42.2218737" lon="13.9290934"><ele>247.0</ele><time>2026-05-03T11:07:18.969Z</time></trkpt><trkpt lat="42.221788" lon="13.9292888"><ele>246.33333333333331</ele><time>2026-05-03T11:07:19.968Z</time></trkpt><trkpt lat="42.2216974" lon="13.9295148"><ele>245.66666666666669</ele><time>2026-05-03T11:07:20.969Z</time></trkpt><trkpt lat="42.2215992" lon="13.9297452"><ele>245.0</ele><time>2026-05-03T11:07:21.969Z</time></trkpt><trkpt lat="42.2215039" lon="13.9299636"><ele>250.66666666666669</ele><time>2026-05-03T11:07:22.969Z</time></trkpt><trkpt lat="42.2214103" lon="13.9301721"><ele>256.3333333333333</ele><time>2026-05-03T11:07:23.968Z</time></trkpt><trkpt lat="42.221304" lon="13.9303603"><ele>262.0</ele><time>2026-05-03T11:07:24.968Z</time></trkpt><trkpt lat="42.2211774" lon="13.9305327"><ele>262.0</ele><time>2026-05-03T11:07:25.968Z</time></trkpt><trkpt lat="42.2210483" lon="13.9306683"><ele>262.0</ele><time>2026-05-03T11:07:26.969Z</time></trkpt><trkpt lat="42.2209228" lon="13.930762"><ele>262.0</ele><time>2026-05-03T11:07:27.969Z</time></trkpt><trkpt lat="42.2208059" lon="13.9308233"><ele>262.0</ele><time>2026-05-03T11:07:28.969Z</time></trkpt><trkpt lat="42.2207209" lon="13.9308491"><ele>262.0</ele><time>2026-05-03T11:07:29.969Z</time></trkpt><trkpt lat="42.2206558" lon="13.9308611"><ele>262.0</ele><time>2026-05-03T11:07:30.969Z</time></trkpt><trkpt lat="42.2205453" lon="13.9309075"><ele>262.0</ele><time>2026-05-03T11:07:32.968Z</time></trkpt><trkpt lat="42.220448" lon="13.9309663"><ele>262.0</ele><time>2026-05-03T11:07:34.969Z</time></trkpt><trkpt lat="42.2203537" lon="13.9309972"><ele>262.0</ele><time>2026-05-03T11:07:36.968Z</time></trkpt><trkpt lat="42.2202672" lon="13.9309923"><ele>261.0</ele><time>2026-05-03T11:07:38.969Z</time></trkpt><trkpt lat="42.2201909" lon="13.9309835"><ele>260.0</ele><time>2026-05-03T11:07:40.969Z</time></trkpt><trkpt lat="42.220115" lon="13.9309782"><ele>259.0</ele><time>2026-05-03T11:07:42.968Z</time></trkpt><trkpt lat="42.2200182" lon="13.930944"><ele>258.0</ele><time>2026-05-03T11:07:44.968Z</time></trkpt><trkpt lat="42.2199454" lon="13.9309539"><ele>257.0</ele><time>2026-05-03T11:07:47.969Z</time></trkpt><trkpt lat="42.2200146" lon="13.9310313"><ele>256.0</ele><time>2026-05-03T11:07:50.969Z</time></trkpt><trkpt lat="42.2201557" lon="13.9310504"><ele>255.99999999999997</ele><time>2026-05-03T11:07:52.968Z</time></trkpt><trkpt lat="42.2202627" lon="13.9310582"><ele>256.0</ele><time>2026-05-03T11:07:53.969Z</time></trkpt><trkpt lat="42.220362" lon="13.9310539"><ele>256.0</ele><time>2026-05-03T11:07:54.968Z</time></trkpt><trkpt lat="42.2204494" lon="13.9310477"><ele>256.0</ele><time>2026-05-03T11:07:55.968Z</time></trkpt><trkpt lat="42.2205162" lon="13.9310685"><ele>255.99999999999997</ele><time>2026-05-03T11:07:56.969Z</time></trkpt><trkpt lat="42.220569" lon="13.9311195"><ele>256.0</ele><time>2026-05-03T11:07:57.968Z</time></trkpt><trkpt lat="42.2206042" lon="13.9311942"><ele>256.0</ele><time>2026-05-03T11:07:58.969Z</time></trkpt><trkpt lat="42.2206303" lon="13.9313069"><ele>256.0</ele><time>2026-05-03T11:07:59.968Z</time></trkpt><trkpt lat="42.2206596" lon="13.9314525"><ele>256.0</ele><time>2026-05-03T11:08:00.969Z</time></trkpt><trkpt lat="42.2206962" lon="13.9316016"><ele>256.0</ele><time>2026-05-03T11:08:01.969Z</time></trkpt><trkpt lat="42.2207269" lon="13.9317454"><ele>256.0</ele><time>2026-05-03T11:08:02.969Z</time></trkpt><trkpt lat="42.2207594" lon="13.9318837"><ele>254.60000000000002</ele><time>2026-05-03T11:08:03.969Z</time></trkpt><trkpt lat="42.2207922" lon="13.932026"><ele>253.20000000000002</ele><time>2026-05-03T11:08:04.969Z</time></trkpt><trkpt lat="42.2208303" lon="13.9321684"><ele>251.79999999999998</ele><time>2026-05-03T11:08:05.968Z</time></trkpt><trkpt lat="42.2208736" lon="13.9323002"><ele>250.39999999999998</ele><time>2026-05-03T11:08:06.969Z</time></trkpt><trkpt lat="42.2209252" lon="13.9324237"><ele>249.0</ele><time>2026-05-03T11:08:07.969Z</time></trkpt><trkpt lat="42.2209925" lon="13.9325356"><ele>246.75</ele><time>2026-05-03T11:08:08.969Z</time></trkpt><trkpt lat="42.221084" lon="13.932652"><ele>244.5</ele><time>2026-05-03T11:08:09.969Z</time></trkpt><trkpt lat="42.2211841" lon="13.9327758"><ele>242.25</ele><time>2026-05-03T11:08:10.969Z</time></trkpt><trkpt lat="42.2212851" lon="13.9329149"><ele>240.0</ele><time>2026-05-03T11:08:11.969Z</time></trkpt><trkpt lat="42.2213815" lon="13.9330573"><ele>240.0</ele><time>2026-05-03T11:08:12.969Z</time></trkpt><trkpt lat="42.2214722" lon="13.9332024"><ele>240.0</ele><time>2026-05-03T11:08:13.969Z</time></trkpt><trkpt lat="42.2215603" lon="13.933347"><ele>240.0</ele><time>2026-05-03T11:08:14.968Z</time></trkpt><trkpt lat="42.2216477" lon="13.9334892"><ele>240.0</ele><time>2026-05-03T11:08:15.968Z</time></trkpt><trkpt lat="42.2217372" lon="13.9336122"><ele>237.6</ele><time>2026-05-03T11:08:16.969Z</time></trkpt><trkpt lat="42.2218312" lon="13.9337003"><ele>235.2</ele><time>2026-05-03T11:08:17.969Z</time></trkpt><trkpt lat="42.2219373" lon="13.9337585"><ele>232.8</ele><time>2026-05-03T11:08:18.969Z</time></trkpt><trkpt lat="42.2220525" lon="13.9337829"><ele>230.4</ele><time>2026-05-03T11:08:19.968Z</time></trkpt><trkpt lat="42.2221505" lon="13.9338136"><ele>228.0</ele><time>2026-05-03T11:08:20.968Z</time></trkpt><trkpt lat="42.2222253" lon="13.933874"><ele>228.0</ele><time>2026-05-03T11:08:21.969Z</time></trkpt><trkpt lat="42.222276" lon="13.9339669"><ele>228.0</ele><time>2026-05-03T11:08:22.968Z</time></trkpt><trkpt lat="42.2223058" lon="13.934086"><ele>228.0</ele><time>2026-05-03T11:08:23.969Z</time></trkpt><trkpt lat="42.2223211" lon="13.9342303"><ele>228.0</ele><time>2026-05-03T11:08:24.968Z</time></trkpt><trkpt lat="42.2223355" lon="13.9343805"><ele>228.0</ele><time>2026-05-03T11:08:25.969Z</time></trkpt><trkpt lat="42.2223537" lon="13.9345321"><ele>225.2</ele><time>2026-05-03T11:08:26.968Z</time></trkpt><trkpt lat="42.2223693" lon="13.9346821"><ele>222.4</ele><time>2026-05-03T11:08:27.968Z</time></trkpt><trkpt lat="42.2223974" lon="13.9348005"><ele>219.59999999999997</ele><time>2026-05-03T11:08:28.969Z</time></trkpt><trkpt lat="42.2224517" lon="13.9348979"><ele>216.79999999999998</ele><time>2026-05-03T11:08:29.969Z</time></trkpt><trkpt lat="42.2225275" lon="13.9349674"><ele>214.0</ele><time>2026-05-03T11:08:30.969Z</time></trkpt><trkpt lat="42.2226253" lon="13.9350203"><ele>212.5</ele><time>2026-05-03T11:08:31.968Z</time></trkpt><trkpt lat="42.2227443" lon="13.9350688"><ele>211.0</ele><time>2026-05-03T11:08:32.969Z</time></trkpt><trkpt lat="42.2228627" lon="13.9351206"><ele>209.5</ele><time>2026-05-03T11:08:33.969Z</time></trkpt><trkpt lat="42.2229769" lon="13.9351905"><ele>208.0</ele><time>2026-05-03T11:08:34.969Z</time></trkpt><trkpt lat="42.223084" lon="13.9352842"><ele>207.0</ele><time>2026-05-03T11:08:35.968Z</time></trkpt><trkpt lat="42.22319" lon="13.9353984"><ele>206.0</ele><time>2026-05-03T11:08:36.969Z</time></trkpt><trkpt lat="42.2232886" lon="13.9355227"><ele>205.0</ele><time>2026-05-03T11:08:37.968Z</time></trkpt><trkpt lat="42.2233754" lon="13.9356526"><ele>204.0</ele><time>2026-05-03T11:08:38.969Z</time></trkpt><trkpt lat="42.2234467" lon="13.935786"><ele>203.6</ele><time>2026-05-03T11:08:39.969Z</time></trkpt><trkpt lat="42.2235027" lon="13.9359231"><ele>203.2</ele><time>2026-05-03T11:08:40.968Z</time></trkpt><trkpt lat="42.2235507" lon="13.9360581"><ele>202.79999999999998</ele><time>2026-05-03T11:08:41.968Z</time></trkpt><trkpt lat="42.2236037" lon="13.9361828"><ele>202.39999999999998</ele><time>2026-05-03T11:08:42.969Z</time></trkpt><trkpt lat="42.2236705" lon="13.9362818"><ele>202.0</ele><time>2026-05-03T11:08:43.968Z</time></trkpt><trkpt lat="42.2237514" lon="13.9363448"><ele>202.0</ele><time>2026-05-03T11:08:44.969Z</time></trkpt><trkpt lat="42.2238368" lon="13.9363688"><ele>202.0</ele><time>2026-05-03T11:08:45.969Z</time></trkpt><trkpt lat="42.2239258" lon="13.9363704"><ele>202.0</ele><time>2026-05-03T11:08:46.968Z</time></trkpt><trkpt lat="42.2240099" lon="13.9363841"><ele>202.0</ele><time>2026-05-03T11:08:47.969Z</time></trkpt><trkpt lat="42.2241044" lon="13.9364314"><ele>202.0</ele><time>2026-05-03T11:08:48.969Z</time></trkpt><trkpt lat="42.2242113" lon="13.936506"><ele>201.0</ele><time>2026-05-03T11:08:49.969Z</time></trkpt><trkpt lat="42.2243301" lon="13.9365706"><ele>200.0</ele><time>2026-05-03T11:08:50.969Z</time></trkpt><trkpt lat="42.2244534" lon="13.9366177"><ele>199.0</ele><time>2026-05-03T11:08:51.968Z</time></trkpt><trkpt lat="42.2245704" lon="13.9366545"><ele>198.0</ele><time>2026-05-03T11:08:52.968Z</time></trkpt><trkpt lat="42.2246922" lon="13.9366943"><ele>197.5</ele><time>2026-05-03T11:08:53.969Z</time></trkpt><trkpt lat="42.2248262" lon="13.936742"><ele>197.0</ele><time>2026-05-03T11:08:54.968Z</time></trkpt><trkpt lat="42.2249476" lon="13.9367833"><ele>196.5</ele><time>2026-05-03T11:08:55.969Z</time></trkpt><trkpt lat="42.2250625" lon="13.9368239"><ele>196.0</ele><time>2026-05-03T11:08:56.968Z</time></trkpt><trkpt lat="42.2251728" lon="13.9368611"><ele>196.0</ele><time>2026-05-03T11:08:57.968Z</time></trkpt><trkpt lat="42.2252777" lon="13.9368987"><ele>196.0</ele><time>2026-05-03T11:08:58.968Z</time></trkpt><trkpt lat="42.2253759" lon="13.9369388"><ele>196.0</ele><time>2026-05-03T11:08:59.968Z</time></trkpt><trkpt lat="42.2254692" lon="13.9369802"><ele>196.0</ele><time>2026-05-03T11:09:00.969Z</time></trkpt><trkpt lat="42.2255526" lon="13.9370406"><ele>196.0</ele><time>2026-05-03T11:09:01.968Z</time></trkpt><trkpt lat="42.2256191" lon="13.9371152"><ele>195.8</ele><time>2026-05-03T11:09:02.969Z</time></trkpt><trkpt lat="42.2256673" lon="13.937189"><ele>195.60000000000002</ele><time>2026-05-03T11:09:03.969Z</time></trkpt><trkpt lat="42.2257168" lon="13.9373004"><ele>195.4</ele><time>2026-05-03T11:09:05.969Z</time></trkpt><trkpt lat="42.2257481" lon="13.9374145"><ele>195.2</ele><time>2026-05-03T11:09:07.968Z</time></trkpt><trkpt lat="42.225759" lon="13.9375228"><ele>195.0</ele><time>2026-05-03T11:09:08.968Z</time></trkpt><trkpt lat="42.2257592" lon="13.9376862"><ele>195.0</ele><time>2026-05-03T11:09:09.969Z</time></trkpt><trkpt lat="42.225751" lon="13.9378699"><ele>195.0</ele><time>2026-05-03T11:09:10.968Z</time></trkpt><trkpt lat="42.2257414" lon="13.9380778"><ele>195.0</ele><time>2026-05-03T11:09:11.969Z</time></trkpt><trkpt lat="42.2257365" lon="13.9382978"><ele>195.33333333333331</ele><time>2026-05-03T11:09:12.968Z</time></trkpt><trkpt lat="42.2257355" lon="13.9385613"><ele>195.66666666666666</ele><time>2026-05-03T11:09:13.969Z</time></trkpt><trkpt lat="42.2257321" lon="13.9388445"><ele>196.0</ele><time>2026-05-03T11:09:14.968Z</time></trkpt><trkpt lat="42.2257212" lon="13.9391503"><ele>195.66666666666666</ele><time>2026-05-03T11:09:15.969Z</time></trkpt><trkpt lat="42.2257122" lon="13.9394453"><ele>195.33333333333331</ele><time>2026-05-03T11:09:16.969Z</time></trkpt><trkpt lat="42.2257068" lon="13.9397428"><ele>195.0</ele><time>2026-05-03T11:09:17.968Z</time></trkpt><trkpt lat="42.2256994" lon="13.9400394"><ele>194.5</ele><time>2026-05-03T11:09:18.969Z</time></trkpt><trkpt lat="42.2257021" lon="13.9403337"><ele>194.0</ele><time>2026-05-03T11:09:19.968Z</time></trkpt><trkpt lat="42.2257346" lon="13.9406502"><ele>195.0</ele><time>2026-05-03T11:09:20.968Z</time></trkpt><trkpt lat="42.2257961" lon="13.940979"><ele>196.0</ele><time>2026-05-03T11:09:21.969Z</time></trkpt><trkpt lat="42.2258785" lon="13.9413177"><ele>196.0</ele><time>2026-05-03T11:09:22.969Z</time></trkpt><trkpt lat="42.2259758" lon="13.9416725"><ele>196.0</ele><time>2026-05-03T11:09:23.969Z</time></trkpt><trkpt lat="42.2260781" lon="13.942042"><ele>194.5</ele><time>2026-05-03T11:09:24.968Z</time></trkpt><trkpt lat="42.2261786" lon="13.9424154"><ele>193.0</ele><time>2026-05-03T11:09:25.969Z</time></trkpt><trkpt lat="42.226281" lon="13.9427893"><ele>193.0</ele><time>2026-05-03T11:09:26.969Z</time></trkpt><trkpt lat="42.2263852" lon="13.9431582"><ele>193.0</ele><time>2026-05-03T11:09:27.968Z</time></trkpt><trkpt lat="42.2264947" lon="13.9435415"><ele>194.5</ele><time>2026-05-03T11:09:28.969Z</time></trkpt><trkpt lat="42.2266057" lon="13.9439244"><ele>196.0</ele><time>2026-05-03T11:09:29.968Z</time></trkpt><trkpt lat="42.2267167" lon="13.9443032"><ele>197.0</ele><time>2026-05-03T11:09:30.969Z</time></trkpt><trkpt lat="42.2268267" lon="13.94468"><ele>198.0</ele><time>2026-05-03T11:09:31.969Z</time></trkpt><trkpt lat="42.2269332" lon="13.9450515"><ele>198.0</ele><time>2026-05-03T11:09:32.969Z</time></trkpt><trkpt lat="42.2270389" lon="13.9454184"><ele>198.0</ele><time>2026-05-03T11:09:33.969Z</time></trkpt><trkpt lat="42.2271445" lon="13.9457791"><ele>199.0</ele><time>2026-05-03T11:09:34.968Z</time></trkpt><trkpt lat="42.2272489" lon="13.9461331"><ele>200.0</ele><time>2026-05-03T11:09:35.968Z</time></trkpt><trkpt lat="42.2273506" lon="13.946482"><ele>202.0</ele><time>2026-05-03T11:09:36.969Z</time></trkpt><trkpt lat="42.2274498" lon="13.9468258"><ele>204.0</ele><time>2026-05-03T11:09:37.969Z</time></trkpt><trkpt lat="42.2275476" lon="13.9471622"><ele>204.0</ele><time>2026-05-03T11:09:38.969Z</time></trkpt><trkpt lat="42.2276413" lon="13.9474918"><ele>204.0</ele><time>2026-05-03T11:09:39.968Z</time></trkpt><trkpt lat="42.2277318" lon="13.9477967"><ele>205.0</ele><time>2026-05-03T11:09:40.969Z</time></trkpt><trkpt lat="42.2278194" lon="13.9480257"><ele>206.0</ele><time>2026-05-03T11:09:41.969Z</time></trkpt><trkpt lat="42.2279225" lon="13.9482166"><ele>207.0</ele><time>2026-05-03T11:09:42.968Z</time></trkpt><trkpt lat="42.2280485" lon="13.9483813"><ele>208.0</ele><time>2026-05-03T11:09:43.968Z</time></trkpt><trkpt lat="42.2281969" lon="13.9485342"><ele>209.0</ele><time>2026-05-03T11:09:44.968Z</time></trkpt><trkpt lat="42.228356" lon="13.9486834"><ele>210.0</ele><time>2026-05-03T11:09:45.969Z</time></trkpt><trkpt lat="42.228522" lon="13.9488392"><ele>210.0</ele><time>2026-05-03T11:09:46.968Z</time></trkpt><trkpt lat="42.2286941" lon="13.9489961"><ele>210.0</ele><time>2026-05-03T11:09:47.969Z</time></trkpt><trkpt lat="42.2288714" lon="13.949158"><ele>210.0</ele><time>2026-05-03T11:09:48.969Z</time></trkpt><trkpt lat="42.2290485" lon="13.9493254"><ele>213.33333333333331</ele><time>2026-05-03T11:09:49.968Z</time></trkpt><trkpt lat="42.2292265" lon="13.9494975"><ele>216.66666666666666</ele><time>2026-05-03T11:09:50.969Z</time></trkpt><trkpt lat="42.2294014" lon="13.9496674"><ele>220.0</ele><time>2026-05-03T11:09:51.969Z</time></trkpt><trkpt lat="42.2295764" lon="13.9498258"><ele>220.0</ele><time>2026-05-03T11:09:52.968Z</time></trkpt><trkpt lat="42.2297619" lon="13.9499562"><ele>220.0</ele><time>2026-05-03T11:09:53.969Z</time></trkpt><trkpt lat="42.2299665" lon="13.9500464"><ele>220.0</ele><time>2026-05-03T11:09:54.969Z</time></trkpt><trkpt lat="42.2301862" lon="13.9501027"><ele>224.5</ele><time>2026-05-03T11:09:55.969Z</time></trkpt><trkpt lat="42.2304134" lon="13.9501476"><ele>229.0</ele><time>2026-05-03T11:09:56.969Z</time></trkpt><trkpt lat="42.2306425" lon="13.9501947"><ele>235.0</ele><time>2026-05-03T11:09:57.969Z</time></trkpt><trkpt lat="42.2308738" lon="13.9502382"><ele>241.0</ele><time>2026-05-03T11:09:58.968Z</time></trkpt><trkpt lat="42.2311141" lon="13.9502931"><ele>241.0</ele><time>2026-05-03T11:09:59.969Z</time></trkpt><trkpt lat="42.2313559" lon="13.9503649"><ele>241.0</ele><time>2026-05-03T11:10:00.969Z</time></trkpt><trkpt lat="42.2316025" lon="13.9504428"><ele>242.5</ele><time>2026-05-03T11:10:01.969Z</time></trkpt><trkpt lat="42.2318515" lon="13.950519"><ele>244.0</ele><time>2026-05-03T11:10:02.969Z</time></trkpt><trkpt lat="42.2321015" lon="13.9505941"><ele>244.5</ele><time>2026-05-03T11:10:03.969Z</time></trkpt><trkpt lat="42.2323463" lon="13.9506671"><ele>245.0</ele><time>2026-05-03T11:10:04.969Z</time></trkpt><trkpt lat="42.2325866" lon="13.9507393"><ele>245.0</ele><time>2026-05-03T11:10:05.968Z</time></trkpt><trkpt lat="42.2328153" lon="13.9508084"><ele>245.0</ele><time>2026-05-03T11:10:06.969Z</time></trkpt><trkpt lat="42.2330421" lon="13.9508776"><ele>243.5</ele><time>2026-05-03T11:10:07.969Z</time></trkpt><trkpt lat="42.2332699" lon="13.9509479"><ele>242.0</ele><time>2026-05-03T11:10:08.969Z</time></trkpt><trkpt lat="42.2334998" lon="13.951026"><ele>242.0</ele><time>2026-05-03T11:10:09.969Z</time></trkpt><trkpt lat="42.2337338" lon="13.9511053"><ele>242.0</ele><time>2026-05-03T11:10:10.969Z</time></trkpt><trkpt lat="42.2339698" lon="13.9511827"><ele>237.5</ele><time>2026-05-03T11:10:11.969Z</time></trkpt><trkpt lat="42.2342053" lon="13.9512589"><ele>233.0</ele><time>2026-05-03T11:10:12.969Z</time></trkpt><trkpt lat="42.2344392" lon="13.9513373"><ele>233.0</ele><time>2026-05-03T11:10:13.969Z</time></trkpt><trkpt lat="42.234668" lon="13.9514058"><ele>233.0</ele><time>2026-05-03T11:10:14.968Z</time></trkpt><trkpt lat="42.2348888" lon="13.9514663"><ele>231.0</ele><time>2026-05-03T11:10:15.969Z</time></trkpt><trkpt lat="42.2350991" lon="13.9515336"><ele>229.0</ele><time>2026-05-03T11:10:16.968Z</time></trkpt><trkpt lat="42.2352954" lon="13.9516137"><ele>227.0</ele><time>2026-05-03T11:10:17.968Z</time></trkpt><trkpt lat="42.2354757" lon="13.9517144"><ele>225.66666666666669</ele><time>2026-05-03T11:10:18.969Z</time></trkpt><trkpt lat="42.2356402" lon="13.9518427"><ele>224.33333333333331</ele><time>2026-05-03T11:10:19.969Z</time></trkpt><trkpt lat="42.2357976" lon="13.9520095"><ele>223.0</ele><time>2026-05-03T11:10:20.969Z</time></trkpt><trkpt lat="42.2359465" lon="13.9521983"><ele>223.0</ele><time>2026-05-03T11:10:21.969Z</time></trkpt><trkpt lat="42.2360864" lon="13.9523758"><ele>223.0</ele><time>2026-05-03T11:10:22.969Z</time></trkpt><trkpt lat="42.236227" lon="13.9525309"><ele>223.0</ele><time>2026-05-03T11:10:23.968Z</time></trkpt><trkpt lat="42.236377" lon="13.9526511"><ele>224.66666666666666</ele><time>2026-05-03T11:10:24.968Z</time></trkpt><trkpt lat="42.2365488" lon="13.9527435"><ele>226.33333333333331</ele><time>2026-05-03T11:10:25.968Z</time></trkpt><trkpt lat="42.2367426" lon="13.9528133"><ele>228.0</ele><time>2026-05-03T11:10:26.968Z</time></trkpt><trkpt lat="42.2369525" lon="13.9528802"><ele>228.0</ele><time>2026-05-03T11:10:27.969Z</time></trkpt><trkpt lat="42.2371698" lon="13.9529517"><ele>228.0</ele><time>2026-05-03T11:10:28.969Z</time></trkpt><trkpt lat="42.2373839" lon="13.9530191"><ele>228.0</ele><time>2026-05-03T11:10:29.969Z</time></trkpt><trkpt lat="42.2375935" lon="13.9530835"><ele>224.66666666666669</ele><time>2026-05-03T11:10:30.969Z</time></trkpt><trkpt lat="42.2377949" lon="13.9531447"><ele>221.33333333333334</ele><time>2026-05-03T11:10:31.969Z</time></trkpt><trkpt lat="42.2379923" lon="13.9532117"><ele>218.0</ele><time>2026-05-03T11:10:32.969Z</time></trkpt><trkpt lat="42.2381819" lon="13.9532758"><ele>218.0</ele><time>2026-05-03T11:10:33.969Z</time></trkpt><trkpt lat="42.238365" lon="13.953326"><ele>218.0</ele><time>2026-05-03T11:10:34.969Z</time></trkpt><trkpt lat="42.2385444" lon="13.9533458"><ele>218.0</ele><time>2026-05-03T11:10:35.968Z</time></trkpt><trkpt lat="42.2387182" lon="13.9533249"><ele>218.0</ele><time>2026-05-03T11:10:36.969Z</time></trkpt><trkpt lat="42.2388828" lon="13.9532625"><ele>218.0</ele><time>2026-05-03T11:10:37.969Z</time></trkpt><trkpt lat="42.2390319" lon="13.9531581"><ele>218.0</ele><time>2026-05-03T11:10:38.969Z</time></trkpt><trkpt lat="42.2391601" lon="13.9530168"><ele>217.0</ele><time>2026-05-03T11:10:39.969Z</time></trkpt><trkpt lat="42.239265" lon="13.9528413"><ele>216.0</ele><time>2026-05-03T11:10:40.969Z</time></trkpt><trkpt lat="42.239341" lon="13.9526403"><ele>215.0</ele><time>2026-05-03T11:10:41.968Z</time></trkpt><trkpt lat="42.2393923" lon="13.9524111"><ele>213.0</ele><time>2026-05-03T11:10:42.969Z</time></trkpt><trkpt lat="42.2394293" lon="13.9521756"><ele>211.0</ele><time>2026-05-03T11:10:43.968Z</time></trkpt><trkpt lat="42.2394612" lon="13.9519228"><ele>209.0</ele><time>2026-05-03T11:10:44.969Z</time></trkpt><trkpt lat="42.2394912" lon="13.951683"><ele>207.25</ele><time>2026-05-03T11:10:45.968Z</time></trkpt><trkpt lat="42.2395206" lon="13.951458"><ele>205.5</ele><time>2026-05-03T11:10:46.969Z</time></trkpt><trkpt lat="42.2395523" lon="13.9512868"><ele>203.75</ele><time>2026-05-03T11:10:47.968Z</time></trkpt><trkpt lat="42.2396015" lon="13.9511457"><ele>202.0</ele><time>2026-05-03T11:10:48.969Z</time></trkpt><trkpt lat="42.239679" lon="13.9510161"><ele>202.0</ele><time>2026-05-03T11:10:49.968Z</time></trkpt><trkpt lat="42.2397818" lon="13.9509131"><ele>202.0</ele><time>2026-05-03T11:10:50.969Z</time></trkpt><trkpt lat="42.2399127" lon="13.9508332"><ele>202.0</ele><time>2026-05-03T11:10:51.968Z</time></trkpt><trkpt lat="42.2400672" lon="13.950775"><ele>202.0</ele><time>2026-05-03T11:10:52.969Z</time></trkpt><trkpt lat="42.2402461" lon="13.950738"><ele>200.0</ele><time>2026-05-03T11:10:53.968Z</time></trkpt><trkpt lat="42.2404451" lon="13.9507338"><ele>198.0</ele><time>2026-05-03T11:10:54.969Z</time></trkpt><trkpt lat="42.2406588" lon="13.9507586"><ele>196.0</ele><time>2026-05-03T11:10:55.969Z</time></trkpt><trkpt lat="42.2408975" lon="13.9508358"><ele>198.5</ele><time>2026-05-03T11:10:56.968Z</time></trkpt><trkpt lat="42.2411391" lon="13.9509143"><ele>201.0</ele><time>2026-05-03T11:10:57.969Z</time></trkpt><trkpt lat="42.2413844" lon="13.9509947"><ele>196.5</ele><time>2026-05-03T11:10:58.968Z</time></trkpt><trkpt lat="42.2416286" lon="13.9510751"><ele>192.0</ele><time>2026-05-03T11:10:59.969Z</time></trkpt><trkpt lat="42.2418682" lon="13.9511479"><ele>192.0</ele><time>2026-05-03T11:11:00.969Z</time></trkpt><trkpt lat="42.2421019" lon="13.9512062"><ele>192.0</ele><time>2026-05-03T11:11:01.969Z</time></trkpt><trkpt lat="42.2423178" lon="13.9512324"><ele>189.66666666666666</ele><time>2026-05-03T11:11:02.969Z</time></trkpt><trkpt lat="42.2425296" lon="13.9512238"><ele>187.33333333333331</ele><time>2026-05-03T11:11:03.969Z</time></trkpt><trkpt lat="42.2427447" lon="13.9511725"><ele>185.0</ele><time>2026-05-03T11:11:04.969Z</time></trkpt><trkpt lat="42.2429521" lon="13.9510879"><ele>184.33333333333331</ele><time>2026-05-03T11:11:05.968Z</time></trkpt><trkpt lat="42.2431511" lon="13.9509973"><ele>183.66666666666666</ele><time>2026-05-03T11:11:06.968Z</time></trkpt><trkpt lat="42.2433461" lon="13.9509108"><ele>183.0</ele><time>2026-05-03T11:11:07.969Z</time></trkpt><trkpt lat="42.2435376" lon="13.950826"><ele>179.33333333333334</ele><time>2026-05-03T11:11:08.969Z</time></trkpt><trkpt lat="42.243724" lon="13.9507455"><ele>175.66666666666669</ele><time>2026-05-03T11:11:09.969Z</time></trkpt><trkpt lat="42.2439095" lon="13.9506795"><ele>172.0</ele><time>2026-05-03T11:11:10.969Z</time></trkpt><trkpt lat="42.2440956" lon="13.9506423"><ele>170.66666666666669</ele><time>2026-05-03T11:11:11.969Z</time></trkpt><trkpt lat="42.2442898" lon="13.9506279"><ele>169.33333333333334</ele><time>2026-05-03T11:11:12.968Z</time></trkpt><trkpt lat="42.2444896" lon="13.9506232"><ele>168.0</ele><time>2026-05-03T11:11:13.968Z</time></trkpt><trkpt lat="42.2446839" lon="13.9506178"><ele>165.66666666666666</ele><time>2026-05-03T11:11:14.968Z</time></trkpt><trkpt lat="42.2448746" lon="13.9506208"><ele>163.33333333333331</ele><time>2026-05-03T11:11:15.968Z</time></trkpt><trkpt lat="42.2450584" lon="13.9506575"><ele>161.0</ele><time>2026-05-03T11:11:16.969Z</time></trkpt><trkpt lat="42.2452363" lon="13.9507214"><ele>161.0</ele><time>2026-05-03T11:11:17.968Z</time></trkpt><trkpt lat="42.2454079" lon="13.9508019"><ele>161.0</ele><time>2026-05-03T11:11:18.969Z</time></trkpt><trkpt lat="42.2455759" lon="13.950887"><ele>161.0</ele><time>2026-05-03T11:11:19.969Z</time></trkpt><trkpt lat="42.2457379" lon="13.9509817"><ele>158.66666666666666</ele><time>2026-05-03T11:11:20.968Z</time></trkpt><trkpt lat="42.2458847" lon="13.9511037"><ele>156.33333333333334</ele><time>2026-05-03T11:11:21.969Z</time></trkpt><trkpt lat="42.2460134" lon="13.9512567"><ele>154.0</ele><time>2026-05-03T11:11:22.969Z</time></trkpt><trkpt lat="42.2461293" lon="13.9514237"><ele>154.0</ele><time>2026-05-03T11:11:23.969Z</time></trkpt><trkpt lat="42.2462439" lon="13.9515894"><ele>154.0</ele><time>2026-05-03T11:11:24.969Z</time></trkpt><trkpt lat="42.2463597" lon="13.9517529"><ele>154.0</ele><time>2026-05-03T11:11:25.968Z</time></trkpt><trkpt lat="42.2464727" lon="13.9518933"><ele>151.75</ele><time>2026-05-03T11:11:26.969Z</time></trkpt><trkpt lat="42.2465827" lon="13.9519926"><ele>149.5</ele><time>2026-05-03T11:11:27.968Z</time></trkpt><trkpt lat="42.246701" lon="13.9520618"><ele>147.25</ele><time>2026-05-03T11:11:28.969Z</time></trkpt><trkpt lat="42.2468331" lon="13.9520956"><ele>145.0</ele><time>2026-05-03T11:11:29.969Z</time></trkpt><trkpt lat="42.2469788" lon="13.9520986"><ele>145.0</ele><time>2026-05-03T11:11:30.969Z</time></trkpt><trkpt lat="42.247136" lon="13.952086"><ele>145.0</ele><time>2026-05-03T11:11:31.969Z</time></trkpt><trkpt lat="42.2473" lon="13.9520698"><ele>145.0</ele><time>2026-05-03T11:11:32.968Z</time></trkpt><trkpt lat="42.24747" lon="13.9520523"><ele>143.33333333333334</ele><time>2026-05-03T11:11:33.968Z</time></trkpt><trkpt lat="42.2476445" lon="13.9520352"><ele>141.66666666666666</ele><time>2026-05-03T11:11:34.968Z</time></trkpt><trkpt lat="42.2478231" lon="13.9520179"><ele>140.0</ele><time>2026-05-03T11:11:35.969Z</time></trkpt><trkpt lat="42.2480053" lon="13.9519985"><ele>139.33333333333331</ele><time>2026-05-03T11:11:36.968Z</time></trkpt><trkpt lat="42.2481895" lon="13.9519783"><ele>138.66666666666666</ele><time>2026-05-03T11:11:37.969Z</time></trkpt><trkpt lat="42.2483743" lon="13.9519563"><ele>138.0</ele><time>2026-05-03T11:11:38.968Z</time></trkpt><trkpt lat="42.2485588" lon="13.9519373"><ele>138.0</ele><time>2026-05-03T11:11:39.969Z</time></trkpt><trkpt lat="42.248743" lon="13.9519183"><ele>138.0</ele><time>2026-05-03T11:11:40.969Z</time></trkpt><trkpt lat="42.2489266" lon="13.951899"><ele>138.0</ele><time>2026-05-03T11:11:41.969Z</time></trkpt><trkpt lat="42.2491096" lon="13.9518811"><ele>139.0</ele><time>2026-05-03T11:11:42.969Z</time></trkpt><trkpt lat="42.2492932" lon="13.9518641"><ele>140.0</ele><time>2026-05-03T11:11:43.969Z</time></trkpt><trkpt lat="42.2494773" lon="13.9518457"><ele>141.0</ele><time>2026-05-03T11:11:44.968Z</time></trkpt><trkpt lat="42.2496628" lon="13.9518259"><ele>140.0</ele><time>2026-05-03T11:11:45.969Z</time></trkpt><trkpt lat="42.2498493" lon="13.9518042"><ele>139.0</ele><time>2026-05-03T11:11:46.969Z</time></trkpt><trkpt lat="42.250036" lon="13.9517826"><ele>138.0</ele><time>2026-05-03T11:11:47.969Z</time></trkpt><trkpt lat="42.2502229" lon="13.9517617"><ele>138.0</ele><time>2026-05-03T11:11:48.968Z</time></trkpt><trkpt lat="42.2504004" lon="13.9517428"><ele>138.0</ele><time>2026-05-03T11:11:49.968Z</time></trkpt><trkpt lat="42.2505701" lon="13.9517254"><ele>138.0</ele><time>2026-05-03T11:11:50.969Z</time></trkpt><trkpt lat="42.2507241" lon="13.9517122"><ele>137.75</ele><time>2026-05-03T11:11:51.969Z</time></trkpt><trkpt lat="42.2508621" lon="13.9517002"><ele>137.5</ele><time>2026-05-03T11:11:52.969Z</time></trkpt><trkpt lat="42.2509997" lon="13.9516859"><ele>137.25</ele><time>2026-05-03T11:11:53.969Z</time></trkpt><trkpt lat="42.2511366" lon="13.9516706"><ele>137.0</ele><time>2026-05-03T11:11:54.968Z</time></trkpt><trkpt lat="42.2512682" lon="13.9516692"><ele>137.0</ele><time>2026-05-03T11:11:55.969Z</time></trkpt><trkpt lat="42.2513949" lon="13.9516774"><ele>137.0</ele><time>2026-05-03T11:11:56.968Z</time></trkpt><trkpt lat="42.251528" lon="13.9516936"><ele>137.0</ele><time>2026-05-03T11:11:57.968Z</time></trkpt><trkpt lat="42.2516752" lon="13.951716"><ele>137.0</ele><time>2026-05-03T11:11:58.969Z</time></trkpt><trkpt lat="42.2518295" lon="13.9517453"><ele>135.75</ele><time>2026-05-03T11:11:59.968Z</time></trkpt><trkpt lat="42.2519757" lon="13.9517774"><ele>134.5</ele><time>2026-05-03T11:12:00.968Z</time></trkpt><trkpt lat="42.2521151" lon="13.9518036"><ele>133.25</ele><time>2026-05-03T11:12:01.968Z</time></trkpt><trkpt lat="42.2522312" lon="13.9518226"><ele>132.0</ele><time>2026-05-03T11:12:02.968Z</time></trkpt><trkpt lat="42.2523333" lon="13.9518393"><ele>131.25</ele><time>2026-05-03T11:12:03.969Z</time></trkpt><trkpt lat="42.2524378" lon="13.9518592"><ele>130.5</ele><time>2026-05-03T11:12:04.968Z</time></trkpt><trkpt lat="42.2525541" lon="13.9518825"><ele>129.75</ele><time>2026-05-03T11:12:05.969Z</time></trkpt><trkpt lat="42.2526805" lon="13.951908"><ele>129.0</ele><time>2026-05-03T11:12:06.968Z</time></trkpt><trkpt lat="42.2528093" lon="13.9519359"><ele>129.0</ele><time>2026-05-03T11:12:07.968Z</time></trkpt><trkpt lat="42.2529269" lon="13.9519639"><ele>129.0</ele><time>2026-05-03T11:12:08.969Z</time></trkpt><trkpt lat="42.2530381" lon="13.9519885"><ele>129.0</ele><time>2026-05-03T11:12:09.968Z</time></trkpt><trkpt lat="42.2531443" lon="13.9520117"><ele>129.0</ele><time>2026-05-03T11:12:10.969Z</time></trkpt><trkpt lat="42.2532466" lon="13.9520318"><ele>129.0</ele><time>2026-05-03T11:12:11.969Z</time></trkpt><trkpt lat="42.2533584" lon="13.9520428"><ele>129.66666666666666</ele><time>2026-05-03T11:12:12.968Z</time></trkpt><trkpt lat="42.2534886" lon="13.9520262"><ele>130.33333333333331</ele><time>2026-05-03T11:12:13.968Z</time></trkpt><trkpt lat="42.2536417" lon="13.9519811"><ele>131.0</ele><time>2026-05-03T11:12:14.969Z</time></trkpt><trkpt lat="42.2538139" lon="13.9519141"><ele>134.33333333333331</ele><time>2026-05-03T11:12:15.968Z</time></trkpt><trkpt lat="42.2539852" lon="13.9518484"><ele>137.66666666666666</ele><time>2026-05-03T11:12:16.969Z</time></trkpt><trkpt lat="42.2541729" lon="13.9517811"><ele>141.0</ele><time>2026-05-03T11:12:17.969Z</time></trkpt><trkpt lat="42.2543831" lon="13.9517194"><ele>141.0</ele><time>2026-05-03T11:12:18.968Z</time></trkpt><trkpt lat="42.2545909" lon="13.9516674"><ele>141.0</ele><time>2026-05-03T11:12:19.969Z</time></trkpt><trkpt lat="42.2547938" lon="13.9516127"><ele>141.0</ele><time>2026-05-03T11:12:20.969Z</time></trkpt><trkpt lat="42.2550122" lon="13.9515408"><ele>141.0</ele><time>2026-05-03T11:12:21.968Z</time></trkpt><trkpt lat="42.2552548" lon="13.9514717"><ele>141.0</ele><time>2026-05-03T11:12:22.968Z</time></trkpt><trkpt lat="42.2555002" lon="13.9514158"><ele>142.0</ele><time>2026-05-03T11:12:23.969Z</time></trkpt><trkpt lat="42.2557506" lon="13.9513451"><ele>143.0</ele><time>2026-05-03T11:12:24.968Z</time></trkpt><trkpt lat="42.2559903" lon="13.9512664"><ele>143.0</ele><time>2026-05-03T11:12:25.969Z</time></trkpt><trkpt lat="42.2562202" lon="13.9511943"><ele>143.0</ele><time>2026-05-03T11:12:26.969Z</time></trkpt><trkpt lat="42.2564487" lon="13.9511439"><ele>143.5</ele><time>2026-05-03T11:12:27.968Z</time></trkpt><trkpt lat="42.2566744" lon="13.9511215"><ele>144.0</ele><time>2026-05-03T11:12:28.969Z</time></trkpt><trkpt lat="42.2569099" lon="13.9511233"><ele>144.0</ele><time>2026-05-03T11:12:29.968Z</time></trkpt><trkpt lat="42.2571485" lon="13.9511362"><ele>144.0</ele><time>2026-05-03T11:12:30.969Z</time></trkpt><trkpt lat="42.2573827" lon="13.9511427"><ele>143.5</ele><time>2026-05-03T11:12:31.969Z</time></trkpt><trkpt lat="42.2576163" lon="13.951148"><ele>143.0</ele><time>2026-05-03T11:12:32.969Z</time></trkpt><trkpt lat="42.2578462" lon="13.9511671"><ele>143.0</ele><time>2026-05-03T11:12:33.969Z</time></trkpt><trkpt lat="42.2580746" lon="13.9512083"><ele>143.0</ele><time>2026-05-03T11:12:34.968Z</time></trkpt><trkpt lat="42.258304" lon="13.9512721"><ele>144.0</ele><time>2026-05-03T11:12:35.969Z</time></trkpt><trkpt lat="42.2585312" lon="13.9513544"><ele>145.0</ele><time>2026-05-03T11:12:36.968Z</time></trkpt><trkpt lat="42.2587531" lon="13.9514548"><ele>146.5</ele><time>2026-05-03T11:12:37.969Z</time></trkpt><trkpt lat="42.2589691" lon="13.9515724"><ele>148.0</ele><time>2026-05-03T11:12:38.969Z</time></trkpt><trkpt lat="42.2591775" lon="13.9517075"><ele>148.0</ele><time>2026-05-03T11:12:39.968Z</time></trkpt><trkpt lat="42.2593772" lon="13.9518607"><ele>148.0</ele><time>2026-05-03T11:12:40.969Z</time></trkpt><trkpt lat="42.259562" lon="13.9520389"><ele>148.0</ele><time>2026-05-03T11:12:41.969Z</time></trkpt><trkpt lat="42.2597369" lon="13.9522344"><ele>148.0</ele><time>2026-05-03T11:12:42.969Z</time></trkpt><trkpt lat="42.2599012" lon="13.9524429"><ele>147.66666666666669</ele><time>2026-05-03T11:12:43.969Z</time></trkpt><trkpt lat="42.2600497" lon="13.9526564"><ele>147.33333333333334</ele><time>2026-05-03T11:12:44.969Z</time></trkpt><trkpt lat="42.2601797" lon="13.9528671"><ele>147.0</ele><time>2026-05-03T11:12:45.968Z</time></trkpt><trkpt lat="42.2602968" lon="13.9530746"><ele>147.0</ele><time>2026-05-03T11:12:46.969Z</time></trkpt><trkpt lat="42.2604002" lon="13.9532847"><ele>147.0</ele><time>2026-05-03T11:12:47.968Z</time></trkpt><trkpt lat="42.2604935" lon="13.9534997"><ele>147.0</ele><time>2026-05-03T11:12:48.969Z</time></trkpt><trkpt lat="42.2605713" lon="13.9537182"><ele>144.0</ele><time>2026-05-03T11:12:49.969Z</time></trkpt><trkpt lat="42.2606356" lon="13.9539466"><ele>141.0</ele><time>2026-05-03T11:12:50.969Z</time></trkpt><trkpt lat="42.2606933" lon="13.9541775"><ele>138.0</ele><time>2026-05-03T11:12:51.969Z</time></trkpt><trkpt lat="42.260748" lon="13.9544132"><ele>138.0</ele><time>2026-05-03T11:12:52.969Z</time></trkpt><trkpt lat="42.2608013" lon="13.9546495"><ele>138.0</ele><time>2026-05-03T11:12:53.969Z</time></trkpt><trkpt lat="42.2608543" lon="13.9548868"><ele>138.0</ele><time>2026-05-03T11:12:54.969Z</time></trkpt><trkpt lat="42.2609076" lon="13.955127"><ele>138.0</ele><time>2026-05-03T11:12:55.969Z</time></trkpt><trkpt lat="42.2609601" lon="13.9553736"><ele>138.0</ele><time>2026-05-03T11:12:56.969Z</time></trkpt><trkpt lat="42.2610112" lon="13.9556265"><ele>138.0</ele><time>2026-05-03T11:12:57.969Z</time></trkpt><trkpt lat="42.2610622" lon="13.9558885"><ele>138.66666666666666</ele><time>2026-05-03T11:12:58.968Z</time></trkpt><trkpt lat="42.261117" lon="13.9561509"><ele>139.33333333333331</ele><time>2026-05-03T11:12:59.968Z</time></trkpt><trkpt lat="42.2611724" lon="13.9564004"><ele>140.0</ele><time>2026-05-03T11:13:00.969Z</time></trkpt><trkpt lat="42.2612183" lon="13.9565935"><ele>141.0</ele><time>2026-05-03T11:13:01.969Z</time></trkpt><trkpt lat="42.2612551" lon="13.9567396"><ele>142.0</ele><time>2026-05-03T11:13:02.969Z</time></trkpt><trkpt lat="42.2612762" lon="13.9568403"><ele>143.0</ele><time>2026-05-03T11:13:03.968Z</time></trkpt><trkpt lat="42.2612601" lon="13.9569509"><ele>144.0</ele><time>2026-05-03T11:13:05.968Z</time></trkpt><trkpt lat="42.2611838" lon="13.9570375"><ele>145.0</ele><time>2026-05-03T11:13:07.968Z</time></trkpt><trkpt lat="42.2611174" lon="13.9570834"><ele>146.0</ele><time>2026-05-03T11:13:08.969Z</time></trkpt><trkpt lat="42.2610196" lon="13.9571538"><ele>146.0</ele><time>2026-05-03T11:13:09.968Z</time></trkpt><trkpt lat="42.2609109" lon="13.9572312"><ele>146.0</ele><time>2026-05-03T11:13:10.969Z</time></trkpt><trkpt lat="42.2607812" lon="13.9573086"><ele>146.0</ele><time>2026-05-03T11:13:11.968Z</time></trkpt><trkpt lat="42.2606336" lon="13.9573865"><ele>146.0</ele><time>2026-05-03T11:13:12.968Z</time></trkpt><trkpt lat="42.2604815" lon="13.9574672"><ele>150.66666666666666</ele><time>2026-05-03T11:13:13.969Z</time></trkpt><trkpt lat="42.2603164" lon="13.9575663"><ele>155.33333333333334</ele><time>2026-05-03T11:13:14.969Z</time></trkpt><trkpt lat="42.2601408" lon="13.9576801"><ele>160.0</ele><time>2026-05-03T11:13:15.969Z</time></trkpt><trkpt lat="42.2599519" lon="13.957809"><ele>162.66666666666669</ele><time>2026-05-03T11:13:16.968Z</time></trkpt><trkpt lat="42.2597611" lon="13.9579473"><ele>165.33333333333334</ele><time>2026-05-03T11:13:17.968Z</time></trkpt><trkpt lat="42.259585" lon="13.9580762"><ele>168.0</ele><time>2026-05-03T11:13:18.969Z</time></trkpt><trkpt lat="42.2594298" lon="13.9581932"><ele>168.0</ele><time>2026-05-03T11:13:19.968Z</time></trkpt><trkpt lat="42.2592841" lon="13.9583068"><ele>168.0</ele><time>2026-05-03T11:13:20.969Z</time></trkpt><trkpt lat="42.2591455" lon="13.9584098"><ele>168.0</ele><time>2026-05-03T11:13:21.968Z</time></trkpt><trkpt lat="42.2589946" lon="13.9585072"><ele>173.0</ele><time>2026-05-03T11:13:22.969Z</time></trkpt><trkpt lat="42.25883" lon="13.9586047"><ele>178.0</ele><time>2026-05-03T11:13:23.969Z</time></trkpt><trkpt lat="42.258673" lon="13.9586974"><ele>183.0</ele><time>2026-05-03T11:13:24.968Z</time></trkpt><trkpt lat="42.2585193" lon="13.9587879"><ele>183.0</ele><time>2026-05-03T11:13:25.968Z</time></trkpt><trkpt lat="42.2583789" lon="13.9588706"><ele>183.0</ele><time>2026-05-03T11:13:26.969Z</time></trkpt><trkpt lat="42.2582452" lon="13.9589458"><ele>183.0</ele><time>2026-05-03T11:13:27.969Z</time></trkpt><trkpt lat="42.258102" lon="13.9590252"><ele>187.0</ele><time>2026-05-03T11:13:28.968Z</time></trkpt><trkpt lat="42.257956" lon="13.9591081"><ele>191.0</ele><time>2026-05-03T11:13:29.969Z</time></trkpt><trkpt lat="42.2578095" lon="13.9591913"><ele>195.0</ele><time>2026-05-03T11:13:30.968Z</time></trkpt><trkpt lat="42.2576738" lon="13.9592734"><ele>195.6</ele><time>2026-05-03T11:13:31.969Z</time></trkpt><trkpt lat="42.2575605" lon="13.9593459"><ele>196.2</ele><time>2026-05-03T11:13:32.969Z</time></trkpt><trkpt lat="42.2574621" lon="13.9594083"><ele>196.8</ele><time>2026-05-03T11:13:33.968Z</time></trkpt><trkpt lat="42.2573755" lon="13.9594584"><ele>197.4</ele><time>2026-05-03T11:13:34.969Z</time></trkpt><trkpt lat="42.2572902" lon="13.9595022"><ele>198.0</ele><time>2026-05-03T11:13:35.968Z</time></trkpt><trkpt lat="42.2572085" lon="13.9595443"><ele>198.0</ele><time>2026-05-03T11:13:36.969Z</time></trkpt><trkpt lat="42.2571288" lon="13.9595878"><ele>198.0</ele><time>2026-05-03T11:13:37.968Z</time></trkpt><trkpt lat="42.2570611" lon="13.9596301"><ele>198.0</ele><time>2026-05-03T11:13:38.968Z</time></trkpt><trkpt lat="42.2570065" lon="13.9596789"><ele>198.0</ele><time>2026-05-03T11:13:39.968Z</time></trkpt><trkpt lat="42.2569563" lon="13.9598116"><ele>198.0</ele><time>2026-05-03T11:13:41.968Z</time></trkpt><trkpt lat="42.2569802" lon="13.9599364"><ele>198.0</ele><time>2026-05-03T11:13:43.968Z</time></trkpt><trkpt lat="42.2570116" lon="13.9600236"><ele>197.60000000000002</ele><time>2026-05-03T11:13:44.969Z</time></trkpt><trkpt lat="42.2570579" lon="13.9601325"><ele>197.20000000000002</ele><time>2026-05-03T11:13:45.969Z</time></trkpt><trkpt lat="42.2571112" lon="13.960259"><ele>196.8</ele><time>2026-05-03T11:13:46.969Z</time></trkpt><trkpt lat="42.2571651" lon="13.9604007"><ele>196.4</ele><time>2026-05-03T11:13:47.969Z</time></trkpt><trkpt lat="42.2572219" lon="13.9605536"><ele>196.0</ele><time>2026-05-03T11:13:48.969Z</time></trkpt><trkpt lat="42.257284" lon="13.9607227"><ele>197.33333333333331</ele><time>2026-05-03T11:13:49.968Z</time></trkpt><trkpt lat="42.2573539" lon="13.9609117"><ele>198.66666666666669</ele><time>2026-05-03T11:13:50.969Z</time></trkpt><trkpt lat="42.2574249" lon="13.9611039"><ele>200.0</ele><time>2026-05-03T11:13:51.968Z</time></trkpt><trkpt lat="42.2574982" lon="13.9613036"><ele>200.0</ele><time>2026-05-03T11:13:52.968Z</time></trkpt><trkpt lat="42.2575692" lon="13.9614936"><ele>200.0</ele><time>2026-05-03T11:13:53.968Z</time></trkpt><trkpt lat="42.2576418" lon="13.9616805"><ele>200.0</ele><time>2026-05-03T11:13:54.968Z</time></trkpt><trkpt lat="42.257717" lon="13.9618633"><ele>199.66666666666669</ele><time>2026-05-03T11:13:55.968Z</time></trkpt><trkpt lat="42.2577915" lon="13.9620463"><ele>199.33333333333331</ele><time>2026-05-03T11:13:56.969Z</time></trkpt><trkpt lat="42.2578633" lon="13.9622304"><ele>199.0</ele><time>2026-05-03T11:13:57.969Z</time></trkpt><trkpt lat="42.2579329" lon="13.9624148"><ele>198.5</ele><time>2026-05-03T11:13:58.969Z</time></trkpt><trkpt lat="42.2580019" lon="13.9625959"><ele>198.0</ele><time>2026-05-03T11:13:59.968Z</time></trkpt><trkpt lat="42.2580701" lon="13.9627663"><ele>197.5</ele><time>2026-05-03T11:14:00.968Z</time></trkpt><trkpt lat="42.2581358" lon="13.962927"><ele>197.0</ele><time>2026-05-03T11:14:01.969Z</time></trkpt><trkpt lat="42.2581959" lon="13.963082"><ele>198.39999999999998</ele><time>2026-05-03T11:14:02.969Z</time></trkpt><trkpt lat="42.2582514" lon="13.9632295"><ele>199.79999999999998</ele><time>2026-05-03T11:14:03.968Z</time></trkpt><trkpt lat="42.2583026" lon="13.9633693"><ele>201.2</ele><time>2026-05-03T11:14:04.969Z</time></trkpt><trkpt lat="42.2583515" lon="13.9635012"><ele>202.6</ele><time>2026-05-03T11:14:05.968Z</time></trkpt><trkpt lat="42.2583911" lon="13.9636072"><ele>204.0</ele><time>2026-05-03T11:14:06.968Z</time></trkpt><trkpt lat="42.2584208" lon="13.9637"><ele>204.16666666666666</ele><time>2026-05-03T11:14:07.969Z</time></trkpt><trkpt lat="42.2584436" lon="13.9637989"><ele>204.33333333333331</ele><time>2026-05-03T11:14:08.968Z</time></trkpt><trkpt lat="42.2584545" lon="13.9638905"><ele>204.5</ele><time>2026-05-03T11:14:09.969Z</time></trkpt><trkpt lat="42.2584589" lon="13.963998"><ele>204.66666666666666</ele><time>2026-05-03T11:14:11.969Z</time></trkpt><trkpt lat="42.2584672" lon="13.9638461"><ele>204.83333333333331</ele><time>2026-05-03T11:14:24.969Z</time></trkpt><trkpt lat="42.2584837" lon="13.9637533"><ele>205.0</ele><time>2026-05-03T11:14:27.968Z</time></trkpt><trkpt lat="42.258544" lon="13.9637779"><ele>205.0</ele><time>2026-05-03T11:14:30.969Z</time></trkpt><trkpt lat="42.2586229" lon="13.963927"><ele>205.0</ele><time>2026-05-03T11:14:32.968Z</time></trkpt><trkpt lat="42.2586782" lon="13.9640494"><ele>205.0</ele><time>2026-05-03T11:14:33.969Z</time></trkpt><trkpt lat="42.2587493" lon="13.9642125"><ele>205.0</ele><time>2026-05-03T11:14:34.968Z</time></trkpt><trkpt lat="42.2588262" lon="13.9643873"><ele>205.33333333333331</ele><time>2026-05-03T11:14:35.968Z</time></trkpt><trkpt lat="42.2589138" lon="13.9645709"><ele>205.66666666666669</ele><time>2026-05-03T11:14:36.968Z</time></trkpt><trkpt lat="42.2589968" lon="13.9647341"><ele>206.0</ele><time>2026-05-03T11:14:37.969Z</time></trkpt><trkpt lat="42.2590782" lon="13.9648971"><ele>206.5</ele><time>2026-05-03T11:14:38.969Z</time></trkpt><trkpt lat="42.2591471" lon="13.9650453"><ele>207.0</ele><time>2026-05-03T11:14:39.969Z</time></trkpt><trkpt lat="42.2592129" lon="13.9651822"><ele>207.5</ele><time>2026-05-03T11:14:40.969Z</time></trkpt><trkpt lat="42.2592768" lon="13.9653119"><ele>208.0</ele><time>2026-05-03T11:14:41.968Z</time></trkpt><trkpt lat="42.259336" lon="13.9654406"><ele>208.0</ele><time>2026-05-03T11:14:42.969Z</time></trkpt><trkpt lat="42.2593894" lon="13.9655629"><ele>208.0</ele><time>2026-05-03T11:14:43.969Z</time></trkpt><trkpt lat="42.2594367" lon="13.9656803"><ele>208.0</ele><time>2026-05-03T11:14:44.969Z</time></trkpt><trkpt lat="42.2594835" lon="13.9657867"><ele>208.0</ele><time>2026-05-03T11:14:45.969Z</time></trkpt><trkpt lat="42.2595128" lon="13.9659028"><ele>208.0</ele><time>2026-05-03T11:14:47.969Z</time></trkpt><trkpt lat="42.2595303" lon="13.9659985"><ele>208.33333333333331</ele><time>2026-05-03T11:14:49.968Z</time></trkpt><trkpt lat="42.2595741" lon="13.9660738"><ele>208.66666666666666</ele><time>2026-05-03T11:16:10.969Z</time></trkpt><trkpt lat="42.2595633" lon="13.9661634"><ele>209.0</ele><time>2026-05-03T11:16:57.966Z</time></trkpt><trkpt lat="42.2595686" lon="13.9662537"><ele>209.33333333333331</ele><time>2026-05-03T11:17:00.966Z</time></trkpt><trkpt lat="42.2595819" lon="13.9663657"><ele>209.66666666666666</ele><time>2026-05-03T11:17:03.965Z</time></trkpt><trkpt lat="42.2595907" lon="13.9664951"><ele>210.0</ele><time>2026-05-03T11:17:06.965Z</time></trkpt><trkpt lat="42.2596012" lon="13.9665946"><ele>210.8</ele><time>2026-05-03T11:17:08.966Z</time></trkpt><trkpt lat="42.2595987" lon="13.9667122"><ele>211.6</ele><time>2026-05-03T11:17:10.966Z</time></trkpt><trkpt lat="42.2595693" lon="13.9668162"><ele>212.39999999999998</ele><time>2026-05-03T11:17:12.965Z</time></trkpt><trkpt lat="42.2595689" lon="13.9669457"><ele>213.2</ele><time>2026-05-03T11:17:15.965Z</time></trkpt><trkpt lat="42.2596221" lon="13.967039"><ele>214.0</ele><time>2026-05-03T11:17:32.966Z</time></trkpt><trkpt lat="42.2596789" lon="13.9671983"><ele>213.99999999999997</ele><time>2026-05-03T11:17:34.965Z</time></trkpt><trkpt lat="42.2597109" lon="13.9672888"><ele>214.0</ele><time>2026-05-03T11:17:35.966Z</time></trkpt><trkpt lat="42.2597419" lon="13.9673864"><ele>214.0</ele><time>2026-05-03T11:17:36.966Z</time></trkpt><trkpt lat="42.259775" lon="13.9674895"><ele>214.0</ele><time>2026-05-03T11:17:37.965Z</time></trkpt><trkpt lat="42.2598067" lon="13.9675945"><ele>213.99999999999997</ele><time>2026-05-03T11:17:38.966Z</time></trkpt><trkpt lat="42.2598329" lon="13.9676921"><ele>214.0</ele><time>2026-05-03T11:17:39.966Z</time></trkpt><trkpt lat="42.2598559" lon="13.967799"><ele>210.83333333333331</ele><time>2026-05-03T11:17:40.966Z</time></trkpt><trkpt lat="42.2598801" lon="13.9678829"><ele>207.66666666666666</ele><time>2026-05-03T11:17:41.966Z</time></trkpt><trkpt lat="42.259939" lon="13.9680048"><ele>204.5</ele><time>2026-05-03T11:17:43.966Z</time></trkpt><trkpt lat="42.2599897" lon="13.9680952"><ele>201.33333333333331</ele><time>2026-05-03T11:17:45.966Z</time></trkpt><trkpt lat="42.2600281" lon="13.9681786"><ele>198.16666666666666</ele><time>2026-05-03T11:17:48.966Z</time></trkpt><trkpt lat="42.2600798" lon="13.9683193"><ele>195.0</ele><time>2026-05-03T11:18:00.966Z</time></trkpt><trkpt lat="42.2601128" lon="13.9684016"><ele>194.83333333333334</ele><time>2026-05-03T11:18:01.966Z</time></trkpt><trkpt lat="42.2601438" lon="13.96848"><ele>194.66666666666669</ele><time>2026-05-03T11:18:02.965Z</time></trkpt><trkpt lat="42.2601759" lon="13.9685612"><ele>194.5</ele><time>2026-05-03T11:18:03.966Z</time></trkpt><trkpt lat="42.2602141" lon="13.9686543"><ele>194.33333333333334</ele><time>2026-05-03T11:18:04.965Z</time></trkpt><trkpt lat="42.2602525" lon="13.9687423"><ele>194.16666666666669</ele><time>2026-05-03T11:18:05.965Z</time></trkpt><trkpt lat="42.2602916" lon="13.9688368"><ele>194.0</ele><time>2026-05-03T11:18:06.966Z</time></trkpt><trkpt lat="42.2603305" lon="13.968938"><ele>194.00000000000003</ele><time>2026-05-03T11:18:07.966Z</time></trkpt><trkpt lat="42.2603668" lon="13.969035"><ele>194.0</ele><time>2026-05-03T11:18:08.966Z</time></trkpt><trkpt lat="42.2604053" lon="13.9691375"><ele>194.0</ele><time>2026-05-03T11:18:09.966Z</time></trkpt><trkpt lat="42.2604427" lon="13.9692486"><ele>194.0</ele><time>2026-05-03T11:18:10.965Z</time></trkpt><trkpt lat="42.2604803" lon="13.9693631"><ele>194.00000000000003</ele><time>2026-05-03T11:18:11.965Z</time></trkpt><trkpt lat="42.2605217" lon="13.9694769"><ele>194.0</ele><time>2026-05-03T11:18:12.966Z</time></trkpt><trkpt lat="42.2605629" lon="13.9695882"><ele>194.39999999999998</ele><time>2026-05-03T11:18:13.966Z</time></trkpt><trkpt lat="42.2606083" lon="13.9697035"><ele>194.8</ele><time>2026-05-03T11:18:14.966Z</time></trkpt><trkpt lat="42.2606542" lon="13.9698229"><ele>195.2</ele><time>2026-05-03T11:18:15.966Z</time></trkpt><trkpt lat="42.260701" lon="13.9699478"><ele>195.60000000000002</ele><time>2026-05-03T11:18:16.966Z</time></trkpt><trkpt lat="42.260748" lon="13.9700751"><ele>196.0</ele><time>2026-05-03T11:18:17.966Z</time></trkpt><trkpt lat="42.2607955" lon="13.9701987"><ele>196.0</ele><time>2026-05-03T11:18:18.965Z</time></trkpt><trkpt lat="42.2608412" lon="13.9703162"><ele>196.0</ele><time>2026-05-03T11:18:19.966Z</time></trkpt><trkpt lat="42.2608832" lon="13.9704259"><ele>196.0</ele><time>2026-05-03T11:18:20.965Z</time></trkpt><trkpt lat="42.2609228" lon="13.9705285"><ele>196.0</ele><time>2026-05-03T11:18:21.966Z</time></trkpt><trkpt lat="42.2609593" lon="13.9706342"><ele>196.0</ele><time>2026-05-03T11:18:22.965Z</time></trkpt><trkpt lat="42.260999" lon="13.9707468"><ele>196.83333333333331</ele><time>2026-05-03T11:18:23.965Z</time></trkpt><trkpt lat="42.2610454" lon="13.9708697"><ele>197.66666666666666</ele><time>2026-05-03T11:18:24.965Z</time></trkpt><trkpt lat="42.2610899" lon="13.9709875"><ele>198.5</ele><time>2026-05-03T11:18:25.965Z</time></trkpt><trkpt lat="42.2611298" lon="13.9710937"><ele>199.33333333333331</ele><time>2026-05-03T11:18:26.966Z</time></trkpt><trkpt lat="42.2611629" lon="13.971202"><ele>200.16666666666666</ele><time>2026-05-03T11:18:27.966Z</time></trkpt><trkpt lat="42.2611812" lon="13.9712964"><ele>201.0</ele><time>2026-05-03T11:18:28.966Z</time></trkpt><trkpt lat="42.2611978" lon="13.9713828"><ele>201.0</ele><time>2026-05-03T11:18:29.966Z</time></trkpt><trkpt lat="42.261265" lon="13.9715157"><ele>201.0</ele><time>2026-05-03T11:18:31.965Z</time></trkpt><trkpt lat="42.2613138" lon="13.9716022"><ele>201.0</ele><time>2026-05-03T11:18:32.965Z</time></trkpt><trkpt lat="42.2613614" lon="13.9717025"><ele>201.0</ele><time>2026-05-03T11:18:33.966Z</time></trkpt><trkpt lat="42.2614044" lon="13.9717955"><ele>201.0</ele><time>2026-05-03T11:18:34.966Z</time></trkpt><trkpt lat="42.26144" lon="13.971888"><ele>201.0</ele><time>2026-05-03T11:18:35.966Z</time></trkpt><trkpt lat="42.2614689" lon="13.9719859"><ele>199.83333333333334</ele><time>2026-05-03T11:18:36.965Z</time></trkpt><trkpt lat="42.2614972" lon="13.9720792"><ele>198.66666666666669</ele><time>2026-05-03T11:18:37.965Z</time></trkpt><trkpt lat="42.2615304" lon="13.9721763"><ele>197.5</ele><time>2026-05-03T11:18:38.966Z</time></trkpt><trkpt lat="42.2615636" lon="13.9722737"><ele>196.33333333333334</ele><time>2026-05-03T11:18:39.966Z</time></trkpt><trkpt lat="42.2616026" lon="13.9723777"><ele>195.16666666666669</ele><time>2026-05-03T11:18:40.965Z</time></trkpt><trkpt lat="42.2616452" lon="13.9724798"><ele>194.0</ele><time>2026-05-03T11:18:41.966Z</time></trkpt><trkpt lat="42.2616946" lon="13.9725843"><ele>193.83333333333334</ele><time>2026-05-03T11:18:42.965Z</time></trkpt><trkpt lat="42.2617449" lon="13.9726845"><ele>193.66666666666669</ele><time>2026-05-03T11:18:43.966Z</time></trkpt><trkpt lat="42.2617917" lon="13.9727843"><ele>193.5</ele><time>2026-05-03T11:18:44.966Z</time></trkpt><trkpt lat="42.2618263" lon="13.9728875"><ele>193.33333333333331</ele><time>2026-05-03T11:18:45.965Z</time></trkpt><trkpt lat="42.2618518" lon="13.9729889"><ele>193.16666666666666</ele><time>2026-05-03T11:18:46.965Z</time></trkpt><trkpt lat="42.2618821" lon="13.9730888"><ele>193.0</ele><time>2026-05-03T11:18:47.966Z</time></trkpt><trkpt lat="42.2619183" lon="13.9731879"><ele>193.00000000000003</ele><time>2026-05-03T11:18:48.966Z</time></trkpt><trkpt lat="42.2619551" lon="13.9732847"><ele>193.0</ele><time>2026-05-03T11:18:49.966Z</time></trkpt><trkpt lat="42.2619818" lon="13.9733819"><ele>193.0</ele><time>2026-05-03T11:18:50.966Z</time></trkpt><trkpt lat="42.2620032" lon="13.9734763"><ele>193.0</ele><time>2026-05-03T11:18:51.965Z</time></trkpt><trkpt lat="42.2620213" lon="13.9735677"><ele>193.0</ele><time>2026-05-03T11:18:52.965Z</time></trkpt><trkpt lat="42.2620511" lon="13.9736548"><ele>193.00000000000003</ele><time>2026-05-03T11:18:53.965Z</time></trkpt><trkpt lat="42.2620915" lon="13.9737434"><ele>193.0</ele><time>2026-05-03T11:18:54.966Z</time></trkpt><trkpt lat="42.262145" lon="13.9738775"><ele>192.66666666666666</ele><time>2026-05-03T11:18:56.966Z</time></trkpt><trkpt lat="42.2621786" lon="13.9739554"><ele>192.33333333333331</ele><time>2026-05-03T11:18:57.965Z</time></trkpt><trkpt lat="42.2622161" lon="13.9740454"><ele>192.0</ele><time>2026-05-03T11:18:58.966Z</time></trkpt><trkpt lat="42.2622543" lon="13.9741415"><ele>191.66666666666666</ele><time>2026-05-03T11:18:59.966Z</time></trkpt><trkpt lat="42.2622911" lon="13.9742407"><ele>191.33333333333331</ele><time>2026-05-03T11:19:00.966Z</time></trkpt><trkpt lat="42.2623292" lon="13.9743419"><ele>191.0</ele><time>2026-05-03T11:19:01.966Z</time></trkpt><trkpt lat="42.2623645" lon="13.9744497"><ele>191.0</ele><time>2026-05-03T11:19:02.965Z</time></trkpt><trkpt lat="42.2623913" lon="13.9745688"><ele>191.0</ele><time>2026-05-03T11:19:03.966Z</time></trkpt><trkpt lat="42.2624127" lon="13.9746981"><ele>191.0</ele><time>2026-05-03T11:19:04.966Z</time></trkpt><trkpt lat="42.2624356" lon="13.9748278"><ele>191.0</ele><time>2026-05-03T11:19:05.966Z</time></trkpt><trkpt lat="42.2624595" lon="13.9749623"><ele>191.0</ele><time>2026-05-03T11:19:06.965Z</time></trkpt><trkpt lat="42.2624832" lon="13.975096"><ele>193.0</ele><time>2026-05-03T11:19:07.966Z</time></trkpt><trkpt lat="42.2625083" lon="13.9752325"><ele>195.0</ele><time>2026-05-03T11:19:08.965Z</time></trkpt><trkpt lat="42.2625304" lon="13.9753706"><ele>197.0</ele><time>2026-05-03T11:19:09.965Z</time></trkpt><trkpt lat="42.2625503" lon="13.9755058"><ele>199.0</ele><time>2026-05-03T11:19:10.965Z</time></trkpt><trkpt lat="42.2625724" lon="13.9756296"><ele>201.0</ele><time>2026-05-03T11:19:11.965Z</time></trkpt><trkpt lat="42.2625948" lon="13.9757264"><ele>201.0</ele><time>2026-05-03T11:19:12.965Z</time></trkpt><trkpt lat="42.262602" lon="13.9758357"><ele>201.0</ele><time>2026-05-03T11:19:14.966Z</time></trkpt><trkpt lat="42.2625692" lon="13.9759275"><ele>201.0</ele><time>2026-05-03T11:19:17.966Z</time></trkpt><trkpt lat="42.26252" lon="13.9760191"><ele>201.0</ele><time>2026-05-03T11:19:19.965Z</time></trkpt><trkpt lat="42.2624702" lon="13.9761279"><ele>201.0</ele><time>2026-05-03T11:19:21.965Z</time></trkpt><trkpt lat="42.2624547" lon="13.9762226"><ele>201.0</ele><time>2026-05-03T11:19:23.966Z</time></trkpt><trkpt lat="42.2624638" lon="13.9763525"><ele>203.0</ele><time>2026-05-03T11:19:25.966Z</time></trkpt><trkpt lat="42.2624788" lon="13.9764601"><ele>205.0</ele><time>2026-05-03T11:19:26.965Z</time></trkpt><trkpt lat="42.2625077" lon="13.9765926"><ele>207.0</ele><time>2026-05-03T11:19:27.966Z</time></trkpt><trkpt lat="42.2625492" lon="13.976747"><ele>209.0</ele><time>2026-05-03T11:19:28.965Z</time></trkpt><trkpt lat="42.2626011" lon="13.9769403"><ele>211.33333333333334</ele><time>2026-05-03T11:19:29.965Z</time></trkpt><trkpt lat="42.2626518" lon="13.9771326"><ele>213.66666666666669</ele><time>2026-05-03T11:19:30.965Z</time></trkpt><trkpt lat="42.2627064" lon="13.97734"><ele>216.0</ele><time>2026-05-03T11:19:31.966Z</time></trkpt><trkpt lat="42.2627555" lon="13.9775451"><ele>218.66666666666669</ele><time>2026-05-03T11:19:32.966Z</time></trkpt><trkpt lat="42.2628032" lon="13.9777514"><ele>221.33333333333334</ele><time>2026-05-03T11:19:33.966Z</time></trkpt><trkpt lat="42.262847" lon="13.9779615"><ele>224.0</ele><time>2026-05-03T11:19:34.966Z</time></trkpt><trkpt lat="42.2628867" lon="13.9781749"><ele>226.0</ele><time>2026-05-03T11:19:35.965Z</time></trkpt><trkpt lat="42.2629225" lon="13.9784053"><ele>228.0</ele><time>2026-05-03T11:19:36.966Z</time></trkpt><trkpt lat="42.2629547" lon="13.9786354"><ele>230.0</ele><time>2026-05-03T11:19:37.965Z</time></trkpt><trkpt lat="42.2629783" lon="13.9788429"><ele>230.0</ele><time>2026-05-03T11:19:38.966Z</time></trkpt><trkpt lat="42.2629932" lon="13.9790336"><ele>230.0</ele><time>2026-05-03T11:19:39.966Z</time></trkpt><trkpt lat="42.2630028" lon="13.9791945"><ele>230.0</ele><time>2026-05-03T11:19:40.965Z</time></trkpt><trkpt lat="42.2630024" lon="13.9793172"><ele>230.0</ele><time>2026-05-03T11:19:41.966Z</time></trkpt><trkpt lat="42.2629977" lon="13.9794044"><ele>230.0</ele><time>2026-05-03T11:19:42.966Z</time></trkpt><trkpt lat="42.2630289" lon="13.9795344"><ele>227.2</ele><time>2026-05-03T11:19:44.965Z</time></trkpt><trkpt lat="42.2631314" lon="13.9796389"><ele>224.4</ele><time>2026-05-03T11:19:46.966Z</time></trkpt><trkpt lat="42.2631899" lon="13.9797014"><ele>221.60000000000002</ele><time>2026-05-03T11:19:47.966Z</time></trkpt><trkpt lat="42.2632443" lon="13.9797776"><ele>218.8</ele><time>2026-05-03T11:19:48.966Z</time></trkpt><trkpt lat="42.2632974" lon="13.9798658"><ele>216.0</ele><time>2026-05-03T11:19:49.965Z</time></trkpt><trkpt lat="42.2633433" lon="13.9799694"><ele>216.20000000000002</ele><time>2026-05-03T11:19:50.966Z</time></trkpt><trkpt lat="42.2633806" lon="13.9800866"><ele>216.40000000000003</ele><time>2026-05-03T11:19:51.966Z</time></trkpt><trkpt lat="42.2634063" lon="13.9802139"><ele>216.6</ele><time>2026-05-03T11:19:52.966Z</time></trkpt><trkpt lat="42.2634222" lon="13.9803476"><ele>216.8</ele><time>2026-05-03T11:19:53.966Z</time></trkpt><trkpt lat="42.2634271" lon="13.9804819"><ele>217.0</ele><time>2026-05-03T11:19:54.966Z</time></trkpt><trkpt lat="42.2634197" lon="13.9806127"><ele>216.99999999999997</ele><time>2026-05-03T11:19:55.966Z</time></trkpt><trkpt lat="42.2634013" lon="13.9807335"><ele>217.0</ele><time>2026-05-03T11:19:56.966Z</time></trkpt><trkpt lat="42.2633799" lon="13.980856"><ele>217.0</ele><time>2026-05-03T11:19:57.965Z</time></trkpt><trkpt lat="42.2633693" lon="13.9809697"><ele>217.0</ele><time>2026-05-03T11:19:58.966Z</time></trkpt><trkpt lat="42.2633799" lon="13.9810819"><ele>216.99999999999997</ele><time>2026-05-03T11:19:59.965Z</time></trkpt><trkpt lat="42.2634033" lon="13.9811689"><ele>217.0</ele><time>2026-05-03T11:20:00.966Z</time></trkpt><trkpt lat="42.2634484" lon="13.9812887"><ele>217.16666666666666</ele><time>2026-05-03T11:20:02.966Z</time></trkpt><trkpt lat="42.263524" lon="13.9813099"><ele>217.33333333333331</ele><time>2026-05-03T11:20:05.965Z</time></trkpt><trkpt lat="42.2636159" lon="13.9812491"><ele>217.5</ele><time>2026-05-03T11:20:07.966Z</time></trkpt><trkpt lat="42.263674" lon="13.9811927"><ele>217.66666666666669</ele><time>2026-05-03T11:20:08.966Z</time></trkpt><trkpt lat="42.2637363" lon="13.9811455"><ele>217.83333333333334</ele><time>2026-05-03T11:20:09.966Z</time></trkpt><trkpt lat="42.2637889" lon="13.9810944"><ele>218.0</ele><time>2026-05-03T11:20:10.965Z</time></trkpt><trkpt lat="42.2638924" lon="13.981005"><ele>215.83333333333334</ele><time>2026-05-03T11:20:12.966Z</time></trkpt><trkpt lat="42.2639961" lon="13.9810121"><ele>213.66666666666669</ele><time>2026-05-03T11:20:14.965Z</time></trkpt><trkpt lat="42.2640908" lon="13.9810849"><ele>211.5</ele><time>2026-05-03T11:20:16.966Z</time></trkpt><trkpt lat="42.2641183" lon="13.9811877"><ele>209.33333333333331</ele><time>2026-05-03T11:20:17.965Z</time></trkpt><trkpt lat="42.2641639" lon="13.9812695"><ele>207.16666666666666</ele><time>2026-05-03T11:20:18.966Z</time></trkpt><trkpt lat="42.2642111" lon="13.9813532"><ele>205.0</ele><time>2026-05-03T11:20:19.965Z</time></trkpt><trkpt lat="42.2642566" lon="13.9814317"><ele>205.0</ele><time>2026-05-03T11:20:20.965Z</time></trkpt><trkpt lat="42.2643071" lon="13.9814993"><ele>205.0</ele><time>2026-05-03T11:20:21.966Z</time></trkpt><trkpt lat="42.2643694" lon="13.9815533"><ele>205.0</ele><time>2026-05-03T11:20:22.966Z</time></trkpt><trkpt lat="42.2644355" lon="13.9815941"><ele>205.0</ele><time>2026-05-03T11:20:23.966Z</time></trkpt><trkpt lat="42.2645038" lon="13.981627"><ele>205.0</ele><time>2026-05-03T11:20:24.965Z</time></trkpt><trkpt lat="42.2645696" lon="13.9816705"><ele>205.0</ele><time>2026-05-03T11:20:25.965Z</time></trkpt><trkpt lat="42.2646155" lon="13.981745"><ele>205.0</ele><time>2026-05-03T11:20:26.966Z</time></trkpt><trkpt lat="42.2646622" lon="13.9818253"><ele>204.99999999999997</ele><time>2026-05-03T11:20:27.966Z</time></trkpt><trkpt lat="42.2646993" lon="13.9819201"><ele>205.0</ele><time>2026-05-03T11:20:28.966Z</time></trkpt><trkpt lat="42.2647314" lon="13.9820217"><ele>205.0</ele><time>2026-05-03T11:20:29.966Z</time></trkpt><trkpt lat="42.2647588" lon="13.9821276"><ele>205.0</ele><time>2026-05-03T11:20:30.965Z</time></trkpt><trkpt lat="42.2647714" lon="13.9822332"><ele>204.99999999999997</ele><time>2026-05-03T11:20:31.965Z</time></trkpt><trkpt lat="42.2647889" lon="13.98234"><ele>205.0</ele><time>2026-05-03T11:20:32.965Z</time></trkpt><trkpt lat="42.2648027" lon="13.9824549"><ele>202.33333333333331</ele><time>2026-05-03T11:20:33.966Z</time></trkpt><trkpt lat="42.2648162" lon="13.9825706"><ele>199.66666666666666</ele><time>2026-05-03T11:20:34.966Z</time></trkpt><trkpt lat="42.2648304" lon="13.9826841"><ele>197.0</ele><time>2026-05-03T11:20:35.965Z</time></trkpt><trkpt lat="42.2648502" lon="13.9828048"><ele>194.33333333333331</ele><time>2026-05-03T11:20:36.965Z</time></trkpt><trkpt lat="42.2648692" lon="13.9829103"><ele>191.66666666666666</ele><time>2026-05-03T11:20:37.966Z</time></trkpt><trkpt lat="42.2648908" lon="13.9830178"><ele>189.0</ele><time>2026-05-03T11:20:38.966Z</time></trkpt><trkpt lat="42.2649088" lon="13.9831239"><ele>189.0</ele><time>2026-05-03T11:20:39.966Z</time></trkpt><trkpt lat="42.2649009" lon="13.983221"><ele>189.0</ele><time>2026-05-03T11:20:40.965Z</time></trkpt><trkpt lat="42.2649097" lon="13.983341"><ele>189.0</ele><time>2026-05-03T11:20:41.965Z</time></trkpt><trkpt lat="42.2649201" lon="13.9834599"><ele>189.0</ele><time>2026-05-03T11:20:42.966Z</time></trkpt><trkpt lat="42.2649294" lon="13.983556"><ele>189.0</ele><time>2026-05-03T11:20:43.966Z</time></trkpt><trkpt lat="42.2649557" lon="13.983718"><ele>189.0</ele><time>2026-05-03T11:20:45.966Z</time></trkpt><trkpt lat="42.2649889" lon="13.9838517"><ele>188.33333333333334</ele><time>2026-05-03T11:20:47.966Z</time></trkpt><trkpt lat="42.2650573" lon="13.9839121"><ele>187.66666666666666</ele><time>2026-05-03T11:20:49.966Z</time></trkpt><trkpt lat="42.2651439" lon="13.9838805"><ele>187.0</ele><time>2026-05-03T11:20:51.966Z</time></trkpt><trkpt lat="42.2652183" lon="13.9837678"><ele>186.33333333333331</ele><time>2026-05-03T11:20:53.965Z</time></trkpt><trkpt lat="42.2652438" lon="13.9836873"><ele>185.66666666666666</ele><time>2026-05-03T11:20:54.966Z</time></trkpt><trkpt lat="42.2652575" lon="13.9835949"><ele>185.0</ele><time>2026-05-03T11:20:55.965Z</time></trkpt><trkpt lat="42.2652545" lon="13.9834875"><ele>185.0</ele><time>2026-05-03T11:20:56.966Z</time></trkpt><trkpt lat="42.2652391" lon="13.983362"><ele>185.0</ele><time>2026-05-03T11:20:57.966Z</time></trkpt><trkpt lat="42.2652228" lon="13.9832311"><ele>185.0</ele><time>2026-05-03T11:20:58.965Z</time></trkpt><trkpt lat="42.2652096" lon="13.9831017"><ele>185.0</ele><time>2026-05-03T11:20:59.966Z</time></trkpt><trkpt lat="42.2652054" lon="13.9829814"><ele>185.0</ele><time>2026-05-03T11:21:00.966Z</time></trkpt><trkpt lat="42.265216" lon="13.9828568"><ele>185.66666666666666</ele><time>2026-05-03T11:21:01.966Z</time></trkpt><trkpt lat="42.2652408" lon="13.9827376"><ele>186.33333333333331</ele><time>2026-05-03T11:21:02.965Z</time></trkpt><trkpt lat="42.265276" lon="13.9826208"><ele>187.0</ele><time>2026-05-03T11:21:03.966Z</time></trkpt><trkpt lat="42.2653149" lon="13.9825195"><ele>187.66666666666666</ele><time>2026-05-03T11:21:04.965Z</time></trkpt><trkpt lat="42.2653523" lon="13.9824275"><ele>188.33333333333334</ele><time>2026-05-03T11:21:05.966Z</time></trkpt><trkpt lat="42.2653811" lon="13.9823497"><ele>189.0</ele><time>2026-05-03T11:21:06.966Z</time></trkpt><trkpt lat="42.2654134" lon="13.9822728"><ele>189.0</ele><time>2026-05-03T11:21:07.965Z</time></trkpt><trkpt lat="42.2655064" lon="13.9821588"><ele>189.0</ele><time>2026-05-03T11:21:09.965Z</time></trkpt><trkpt lat="42.2656186" lon="13.9821458"><ele>189.0</ele><time>2026-05-03T11:21:11.966Z</time></trkpt><trkpt lat="42.2657259" lon="13.9822293"><ele>189.0</ele><time>2026-05-03T11:21:13.966Z</time></trkpt><trkpt lat="42.2657733" lon="13.982307"><ele>189.0</ele><time>2026-05-03T11:21:14.965Z</time></trkpt><trkpt lat="42.2658173" lon="13.9823876"><ele>185.6</ele><time>2026-05-03T11:21:15.966Z</time></trkpt><trkpt lat="42.2658804" lon="13.9824716"><ele>182.2</ele><time>2026-05-03T11:21:16.966Z</time></trkpt><trkpt lat="42.2659639" lon="13.9825716"><ele>178.79999999999998</ele><time>2026-05-03T11:21:17.966Z</time></trkpt><trkpt lat="42.2660524" lon="13.9826832"><ele>175.39999999999998</ele><time>2026-05-03T11:21:18.966Z</time></trkpt><trkpt lat="42.2661544" lon="13.9827757"><ele>172.0</ele><time>2026-05-03T11:21:19.965Z</time></trkpt><trkpt lat="42.2662725" lon="13.9828379"><ele>172.0</ele><time>2026-05-03T11:21:20.966Z</time></trkpt><trkpt lat="42.2663899" lon="13.9828712"><ele>172.0</ele><time>2026-05-03T11:21:21.966Z</time></trkpt><trkpt lat="42.2665075" lon="13.9828776"><ele>172.0</ele><time>2026-05-03T11:21:22.966Z</time></trkpt><trkpt lat="42.2666185" lon="13.9828765"><ele>172.0</ele><time>2026-05-03T11:21:23.966Z</time></trkpt><trkpt lat="42.2667087" lon="13.982898"><ele>172.0</ele><time>2026-05-03T11:21:24.966Z</time></trkpt><trkpt lat="42.2667853" lon="13.9829353"><ele>170.39999999999998</ele><time>2026-05-03T11:21:25.965Z</time></trkpt><trkpt lat="42.266838" lon="13.9829836"><ele>168.79999999999998</ele><time>2026-05-03T11:21:26.965Z</time></trkpt><trkpt lat="42.2668981" lon="13.9831308"><ele>167.2</ele><time>2026-05-03T11:21:28.965Z</time></trkpt><trkpt lat="42.2669127" lon="13.983267"><ele>165.6</ele><time>2026-05-03T11:21:29.966Z</time></trkpt><trkpt lat="42.2669212" lon="13.9834465"><ele>164.0</ele><time>2026-05-03T11:21:30.966Z</time></trkpt><trkpt lat="42.2669349" lon="13.9836542"><ele>164.0</ele><time>2026-05-03T11:21:31.965Z</time></trkpt><trkpt lat="42.266953" lon="13.9838913"><ele>164.0</ele><time>2026-05-03T11:21:32.966Z</time></trkpt><trkpt lat="42.2669735" lon="13.9841043"><ele>164.0</ele><time>2026-05-03T11:21:33.965Z</time></trkpt><trkpt lat="42.2669975" lon="13.9843172"><ele>162.33333333333331</ele><time>2026-05-03T11:21:34.966Z</time></trkpt><trkpt lat="42.2670243" lon="13.9845331"><ele>160.66666666666666</ele><time>2026-05-03T11:21:35.966Z</time></trkpt><trkpt lat="42.2670507" lon="13.9847434"><ele>159.0</ele><time>2026-05-03T11:21:36.965Z</time></trkpt><trkpt lat="42.2670755" lon="13.9849487"><ele>157.0</ele><time>2026-05-03T11:21:37.966Z</time></trkpt><trkpt lat="42.2670879" lon="13.98515"><ele>155.0</ele><time>2026-05-03T11:21:38.966Z</time></trkpt><trkpt lat="42.2670915" lon="13.985543"><ele>153.0</ele><time>2026-05-03T11:21:40.966Z</time></trkpt><trkpt lat="42.2670863" lon="13.9857372"><ele>151.33333333333334</ele><time>2026-05-03T11:21:41.966Z</time></trkpt><trkpt lat="42.2670666" lon="13.9859587"><ele>149.66666666666669</ele><time>2026-05-03T11:21:42.965Z</time></trkpt><trkpt lat="42.2670318" lon="13.9862064"><ele>148.0</ele><time>2026-05-03T11:21:43.966Z</time></trkpt><trkpt lat="42.2669854" lon="13.9864777"><ele>146.0</ele><time>2026-05-03T11:21:44.965Z</time></trkpt><trkpt lat="42.2669312" lon="13.9867613"><ele>144.0</ele><time>2026-05-03T11:21:45.966Z</time></trkpt><trkpt lat="42.2668715" lon="13.9870504"><ele>142.0</ele><time>2026-05-03T11:21:46.966Z</time></trkpt><trkpt lat="42.2668126" lon="13.9873245"><ele>140.33333333333334</ele><time>2026-05-03T11:21:47.965Z</time></trkpt><trkpt lat="42.2667507" lon="13.9875998"><ele>138.66666666666666</ele><time>2026-05-03T11:21:48.966Z</time></trkpt><trkpt lat="42.2666899" lon="13.9878669"><ele>137.0</ele><time>2026-05-03T11:21:49.966Z</time></trkpt><trkpt lat="42.2666386" lon="13.9881331"><ele>135.33333333333331</ele><time>2026-05-03T11:21:50.965Z</time></trkpt><trkpt lat="42.2666068" lon="13.9883915"><ele>133.66666666666666</ele><time>2026-05-03T11:21:51.966Z</time></trkpt><trkpt lat="42.2665966" lon="13.9886481"><ele>132.0</ele><time>2026-05-03T11:21:52.965Z</time></trkpt><trkpt lat="42.2666073" lon="13.9889248"><ele>132.0</ele><time>2026-05-03T11:21:53.966Z</time></trkpt><trkpt lat="42.2666404" lon="13.9892271"><ele>132.0</ele><time>2026-05-03T11:21:54.965Z</time></trkpt><trkpt lat="42.2666916" lon="13.9895396"><ele>132.0</ele><time>2026-05-03T11:21:55.966Z</time></trkpt><trkpt lat="42.2667481" lon="13.9898439"><ele>132.0</ele><time>2026-05-03T11:21:56.965Z</time></trkpt><trkpt lat="42.2667944" lon="13.9901383"><ele>131.66666666666666</ele><time>2026-05-03T11:21:57.966Z</time></trkpt><trkpt lat="42.266828" lon="13.990431"><ele>131.33333333333331</ele><time>2026-05-03T11:21:58.966Z</time></trkpt><trkpt lat="42.2668382" lon="13.9907141"><ele>131.0</ele><time>2026-05-03T11:21:59.966Z</time></trkpt><trkpt lat="42.2668261" lon="13.9910134"><ele>128.0</ele><time>2026-05-03T11:22:00.966Z</time></trkpt><trkpt lat="42.2667941" lon="13.9913279"><ele>125.0</ele><time>2026-05-03T11:22:01.966Z</time></trkpt><trkpt lat="42.2667474" lon="13.9916519"><ele>122.5</ele><time>2026-05-03T11:22:02.966Z</time></trkpt><trkpt lat="42.266698" lon="13.9919813"><ele>120.0</ele><time>2026-05-03T11:22:03.966Z</time></trkpt><trkpt lat="42.2666447" lon="13.9923083"><ele>119.0</ele><time>2026-05-03T11:22:04.965Z</time></trkpt><trkpt lat="42.2665902" lon="13.992631"><ele>118.0</ele><time>2026-05-03T11:22:05.966Z</time></trkpt><trkpt lat="42.2665384" lon="13.9929365"><ele>118.0</ele><time>2026-05-03T11:22:06.966Z</time></trkpt><trkpt lat="42.2664889" lon="13.9932269"><ele>118.0</ele><time>2026-05-03T11:22:07.965Z</time></trkpt><trkpt lat="42.2664423" lon="13.993502"><ele>118.0</ele><time>2026-05-03T11:22:08.966Z</time></trkpt><trkpt lat="42.2663968" lon="13.9937619"><ele>120.0</ele><time>2026-05-03T11:22:09.966Z</time></trkpt><trkpt lat="42.2663537" lon="13.9940073"><ele>122.0</ele><time>2026-05-03T11:22:10.966Z</time></trkpt><trkpt lat="42.2663148" lon="13.994241"><ele>124.0</ele><time>2026-05-03T11:22:11.965Z</time></trkpt><trkpt lat="42.2662771" lon="13.9944622"><ele>124.0</ele><time>2026-05-03T11:22:12.966Z</time></trkpt><trkpt lat="42.2662306" lon="13.9946702"><ele>124.0</ele><time>2026-05-03T11:22:13.966Z</time></trkpt><trkpt lat="42.2661719" lon="13.99485"><ele>124.0</ele><time>2026-05-03T11:22:14.966Z</time></trkpt><trkpt lat="42.2661003" lon="13.9949939"><ele>124.0</ele><time>2026-05-03T11:22:15.966Z</time></trkpt><trkpt lat="42.2660421" lon="13.9951081"><ele>123.6</ele><time>2026-05-03T11:22:16.966Z</time></trkpt><trkpt lat="42.2660123" lon="13.9952159"><ele>123.2</ele><time>2026-05-03T11:22:17.965Z</time></trkpt><trkpt lat="42.2660188" lon="13.995344"><ele>122.79999999999998</ele><time>2026-05-03T11:22:18.965Z</time></trkpt><trkpt lat="42.2660308" lon="13.9954922"><ele>122.39999999999999</ele><time>2026-05-03T11:22:19.966Z</time></trkpt><trkpt lat="42.2660335" lon="13.9956674"><ele>122.0</ele><time>2026-05-03T11:22:20.965Z</time></trkpt><trkpt lat="42.2660231" lon="13.9958528"><ele>121.6</ele><time>2026-05-03T11:22:21.966Z</time></trkpt><trkpt lat="42.2660083" lon="13.9960313"><ele>121.19999999999999</ele><time>2026-05-03T11:22:22.966Z</time></trkpt><trkpt lat="42.2659909" lon="13.9961957"><ele>120.8</ele><time>2026-05-03T11:22:23.966Z</time></trkpt><trkpt lat="42.2659723" lon="13.9963354"><ele>120.4</ele><time>2026-05-03T11:22:24.966Z</time></trkpt><trkpt lat="42.2659544" lon="13.9964481"><ele>120.0</ele><time>2026-05-03T11:22:25.965Z</time></trkpt><trkpt lat="42.2659278" lon="13.9965855"><ele>120.0</ele><time>2026-05-03T11:22:27.966Z</time></trkpt><trkpt lat="42.265911" lon="13.9966985"><ele>120.0</ele><time>2026-05-03T11:22:29.965Z</time></trkpt><trkpt lat="42.2658945" lon="13.9967843"><ele>120.0</ele><time>2026-05-03T11:22:31.966Z</time></trkpt><trkpt lat="42.2658647" lon="13.9968703"><ele>120.0</ele><time>2026-05-03T11:22:35.966Z</time></trkpt><trkpt lat="42.2658388" lon="13.996982"><ele>120.0</ele><time>2026-05-03T11:22:39.966Z</time></trkpt><trkpt lat="42.2658205" lon="13.997124"><ele>120.0</ele><time>2026-05-03T11:22:41.966Z</time></trkpt><trkpt lat="42.2657876" lon="13.9973013"><ele>120.0</ele><time>2026-05-03T11:22:43.966Z</time></trkpt><trkpt lat="42.2657663" lon="13.9974078"><ele>120.0</ele><time>2026-05-03T11:22:44.966Z</time></trkpt><trkpt lat="42.2657425" lon="13.9975274"><ele>120.0</ele><time>2026-05-03T11:22:45.965Z</time></trkpt><trkpt lat="42.2657152" lon="13.997656"><ele>120.0</ele><time>2026-05-03T11:22:46.965Z</time></trkpt><trkpt lat="42.2656811" lon="13.9977888"><ele>120.0</ele><time>2026-05-03T11:22:47.966Z</time></trkpt><trkpt lat="42.2656472" lon="13.9979244"><ele>119.25</ele><time>2026-05-03T11:22:48.965Z</time></trkpt><trkpt lat="42.2656042" lon="13.9980708"><ele>118.5</ele><time>2026-05-03T11:22:49.966Z</time></trkpt><trkpt lat="42.2655521" lon="13.9982241"><ele>117.75</ele><time>2026-05-03T11:22:50.966Z</time></trkpt><trkpt lat="42.2654874" lon="13.998374"><ele>117.0</ele><time>2026-05-03T11:22:51.966Z</time></trkpt><trkpt lat="42.2654038" lon="13.9985181"><ele>117.0</ele><time>2026-05-03T11:22:52.965Z</time></trkpt><trkpt lat="42.26531" lon="13.9986577"><ele>117.0</ele><time>2026-05-03T11:22:53.966Z</time></trkpt><trkpt lat="42.2652091" lon="13.998783"><ele>117.0</ele><time>2026-05-03T11:22:54.966Z</time></trkpt><trkpt lat="42.2651015" lon="13.9989099"><ele>117.0</ele><time>2026-05-03T11:22:55.965Z</time></trkpt><trkpt lat="42.2649869" lon="13.9990297"><ele>117.0</ele><time>2026-05-03T11:22:56.965Z</time></trkpt><trkpt lat="42.2648669" lon="13.9991499"><ele>117.0</ele><time>2026-05-03T11:22:57.966Z</time></trkpt><trkpt lat="42.2647417" lon="13.9992758"><ele>117.0</ele><time>2026-05-03T11:22:58.966Z</time></trkpt><trkpt lat="42.264613" lon="13.9994044"><ele>117.33333333333334</ele><time>2026-05-03T11:22:59.966Z</time></trkpt><trkpt lat="42.2644792" lon="13.999531"><ele>117.66666666666667</ele><time>2026-05-03T11:23:00.965Z</time></trkpt><trkpt lat="42.2643428" lon="13.9996596"><ele>118.0</ele><time>2026-05-03T11:23:01.965Z</time></trkpt><trkpt lat="42.2642109" lon="13.9997937"><ele>118.0</ele><time>2026-05-03T11:23:02.965Z</time></trkpt><trkpt lat="42.2640852" lon="13.999926"><ele>118.0</ele><time>2026-05-03T11:23:03.966Z</time></trkpt><trkpt lat="42.2639613" lon="14.0000523"><ele>118.0</ele><time>2026-05-03T11:23:04.965Z</time></trkpt><trkpt lat="42.2638393" lon="14.000175"><ele>119.25</ele><time>2026-05-03T11:23:05.965Z</time></trkpt><trkpt lat="42.2637199" lon="14.0002941"><ele>120.5</ele><time>2026-05-03T11:23:06.965Z</time></trkpt><trkpt lat="42.2636071" lon="14.000415"><ele>121.75</ele><time>2026-05-03T11:23:07.966Z</time></trkpt><trkpt lat="42.2635023" lon="14.0005462"><ele>123.0</ele><time>2026-05-03T11:23:08.965Z</time></trkpt><trkpt lat="42.2634133" lon="14.0006939"><ele>121.25</ele><time>2026-05-03T11:23:09.966Z</time></trkpt><trkpt lat="42.2633389" lon="14.0008597"><ele>119.5</ele><time>2026-05-03T11:23:10.966Z</time></trkpt><trkpt lat="42.2632837" lon="14.0010401"><ele>117.75</ele><time>2026-05-03T11:23:11.966Z</time></trkpt><trkpt lat="42.263247" lon="14.0012311"><ele>116.0</ele><time>2026-05-03T11:23:12.966Z</time></trkpt><trkpt lat="42.2632272" lon="14.0014266"><ele>116.0</ele><time>2026-05-03T11:23:13.965Z</time></trkpt><trkpt lat="42.2632261" lon="14.0016167"><ele>116.0</ele><time>2026-05-03T11:23:14.966Z</time></trkpt><trkpt lat="42.2632504" lon="14.0017986"><ele>116.0</ele><time>2026-05-03T11:23:15.966Z</time></trkpt><trkpt lat="42.2632978" lon="14.001977"><ele>116.0</ele><time>2026-05-03T11:23:16.965Z</time></trkpt><trkpt lat="42.2633608" lon="14.0021405"><ele>114.33333333333333</ele><time>2026-05-03T11:23:17.966Z</time></trkpt><trkpt lat="42.2634384" lon="14.0023144"><ele>112.66666666666666</ele><time>2026-05-03T11:23:18.966Z</time></trkpt><trkpt lat="42.2635211" lon="14.002501"><ele>111.0</ele><time>2026-05-03T11:23:19.966Z</time></trkpt><trkpt lat="42.2636011" lon="14.0026807"><ele>110.5</ele><time>2026-05-03T11:23:20.966Z</time></trkpt><trkpt lat="42.2636854" lon="14.0028526"><ele>110.0</ele><time>2026-05-03T11:23:21.966Z</time></trkpt><trkpt lat="42.2637681" lon="14.0030244"><ele>109.5</ele><time>2026-05-03T11:23:22.965Z</time></trkpt><trkpt lat="42.2638378" lon="14.0031794"><ele>109.0</ele><time>2026-05-03T11:23:23.965Z</time></trkpt><trkpt lat="42.263897" lon="14.0033224"><ele>109.00000000000001</ele><time>2026-05-03T11:23:24.966Z</time></trkpt><trkpt lat="42.2639432" lon="14.0034517"><ele>109.0</ele><time>2026-05-03T11:23:25.965Z</time></trkpt><trkpt lat="42.263975" lon="14.0035779"><ele>109.0</ele><time>2026-05-03T11:23:26.966Z</time></trkpt><trkpt lat="42.2639849" lon="14.0036888"><ele>109.0</ele><time>2026-05-03T11:23:27.966Z</time></trkpt><trkpt lat="42.2639692" lon="14.0037922"><ele>109.00000000000001</ele><time>2026-05-03T11:23:28.965Z</time></trkpt><trkpt lat="42.2639503" lon="14.0038903"><ele>109.0</ele><time>2026-05-03T11:23:29.965Z</time></trkpt><trkpt lat="42.2639874" lon="14.0040398"><ele>109.00000000000001</ele><time>2026-05-03T11:23:31.966Z</time></trkpt><trkpt lat="42.2640389" lon="14.0041001"><ele>109.0</ele><time>2026-05-03T11:23:32.966Z</time></trkpt><trkpt lat="42.264104" lon="14.0041457"><ele>109.0</ele><time>2026-05-03T11:23:33.965Z</time></trkpt><trkpt lat="42.264174" lon="14.0041981"><ele>109.0</ele><time>2026-05-03T11:23:34.966Z</time></trkpt><trkpt lat="42.2642425" lon="14.0042836"><ele>109.00000000000001</ele><time>2026-05-03T11:23:35.966Z</time></trkpt><trkpt lat="42.2643104" lon="14.004391"><ele>109.0</ele><time>2026-05-03T11:23:36.966Z</time></trkpt><trkpt lat="42.2643836" lon="14.0045146"><ele>109.25</ele><time>2026-05-03T11:23:37.966Z</time></trkpt><trkpt lat="42.2644582" lon="14.0046557"><ele>109.5</ele><time>2026-05-03T11:23:38.965Z</time></trkpt><trkpt lat="42.2645287" lon="14.0048016"><ele>109.75</ele><time>2026-05-03T11:23:39.965Z</time></trkpt><trkpt lat="42.2645924" lon="14.0049397"><ele>110.0</ele><time>2026-05-03T11:23:40.966Z</time></trkpt><trkpt lat="42.2646533" lon="14.0050741"><ele>109.0</ele><time>2026-05-03T11:23:41.966Z</time></trkpt><trkpt lat="42.2647115" lon="14.005205"><ele>108.0</ele><time>2026-05-03T11:23:42.965Z</time></trkpt><trkpt lat="42.2647686" lon="14.0053358"><ele>107.0</ele><time>2026-05-03T11:23:43.965Z</time></trkpt><trkpt lat="42.2648257" lon="14.0054614"><ele>106.0</ele><time>2026-05-03T11:23:44.965Z</time></trkpt><trkpt lat="42.264882" lon="14.0055835"><ele>105.0</ele><time>2026-05-03T11:23:45.966Z</time></trkpt><trkpt lat="42.2649377" lon="14.0057084"><ele>104.4</ele><time>2026-05-03T11:23:46.965Z</time></trkpt><trkpt lat="42.2649979" lon="14.0058436"><ele>103.8</ele><time>2026-05-03T11:23:47.965Z</time></trkpt><trkpt lat="42.2650572" lon="14.0059771"><ele>103.19999999999999</ele><time>2026-05-03T11:23:48.966Z</time></trkpt><trkpt lat="42.2651128" lon="14.0061018"><ele>102.6</ele><time>2026-05-03T11:23:49.966Z</time></trkpt><trkpt lat="42.2651658" lon="14.0062238"><ele>102.0</ele><time>2026-05-03T11:23:50.966Z</time></trkpt><trkpt lat="42.2652198" lon="14.0063521"><ele>102.0</ele><time>2026-05-03T11:23:51.966Z</time></trkpt><trkpt lat="42.2652755" lon="14.0064855"><ele>102.0</ele><time>2026-05-03T11:23:52.966Z</time></trkpt><trkpt lat="42.2653314" lon="14.0066239"><ele>102.0</ele><time>2026-05-03T11:23:53.966Z</time></trkpt><trkpt lat="42.2653898" lon="14.006772"><ele>102.0</ele><time>2026-05-03T11:23:54.966Z</time></trkpt><trkpt lat="42.2654535" lon="14.0069262"><ele>102.0</ele><time>2026-05-03T11:23:55.966Z</time></trkpt><trkpt lat="42.2655235" lon="14.0070874"><ele>102.0</ele><time>2026-05-03T11:23:56.966Z</time></trkpt><trkpt lat="42.2655985" lon="14.0072519"><ele>102.0</ele><time>2026-05-03T11:23:57.966Z</time></trkpt><trkpt lat="42.2656784" lon="14.0074062"><ele>102.0</ele><time>2026-05-03T11:23:58.965Z</time></trkpt><trkpt lat="42.2657679" lon="14.0075516"><ele>101.75</ele><time>2026-05-03T11:23:59.966Z</time></trkpt><trkpt lat="42.2658659" lon="14.0076896"><ele>101.5</ele><time>2026-05-03T11:24:00.965Z</time></trkpt><trkpt lat="42.2659716" lon="14.007821"><ele>101.25</ele><time>2026-05-03T11:24:01.965Z</time></trkpt><trkpt lat="42.2660797" lon="14.0079366"><ele>101.0</ele><time>2026-05-03T11:24:02.966Z</time></trkpt><trkpt lat="42.2661863" lon="14.0080431"><ele>101.0</ele><time>2026-05-03T11:24:03.965Z</time></trkpt><trkpt lat="42.2662936" lon="14.0081594"><ele>101.0</ele><time>2026-05-03T11:24:04.966Z</time></trkpt><trkpt lat="42.2663994" lon="14.0082841"><ele>101.0</ele><time>2026-05-03T11:24:05.965Z</time></trkpt><trkpt lat="42.2665002" lon="14.0084221"><ele>101.0</ele><time>2026-05-03T11:24:06.965Z</time></trkpt><trkpt lat="42.2665918" lon="14.0085761"><ele>100.5</ele><time>2026-05-03T11:24:07.965Z</time></trkpt><trkpt lat="42.2666727" lon="14.008738"><ele>100.0</ele><time>2026-05-03T11:24:08.966Z</time></trkpt><trkpt lat="42.2667474" lon="14.0088956"><ele>99.5</ele><time>2026-05-03T11:24:09.966Z</time></trkpt><trkpt lat="42.2668177" lon="14.009048"><ele>99.0</ele><time>2026-05-03T11:24:10.966Z</time></trkpt><trkpt lat="42.2668869" lon="14.0091952"><ele>98.5</ele><time>2026-05-03T11:24:11.965Z</time></trkpt><trkpt lat="42.2669519" lon="14.009338"><ele>98.0</ele><time>2026-05-03T11:24:12.965Z</time></trkpt><trkpt lat="42.2670163" lon="14.0094827"><ele>97.5</ele><time>2026-05-03T11:24:13.966Z</time></trkpt><trkpt lat="42.2670799" lon="14.0096297"><ele>97.0</ele><time>2026-05-03T11:24:14.966Z</time></trkpt><trkpt lat="42.2671353" lon="14.009773"><ele>97.00000000000001</ele><time>2026-05-03T11:24:15.965Z</time></trkpt><trkpt lat="42.2671844" lon="14.0099107"><ele>97.0</ele><time>2026-05-03T11:24:16.966Z</time></trkpt><trkpt lat="42.2672207" lon="14.010023"><ele>97.0</ele><time>2026-05-03T11:24:17.966Z</time></trkpt><trkpt lat="42.2672357" lon="14.0101215"><ele>97.0</ele><time>2026-05-03T11:24:18.965Z</time></trkpt><trkpt lat="42.2672357" lon="14.0102251"><ele>97.00000000000001</ele><time>2026-05-03T11:24:19.965Z</time></trkpt><trkpt lat="42.267216" lon="14.0103381"><ele>97.0</ele><time>2026-05-03T11:24:20.965Z</time></trkpt><trkpt lat="42.2671776" lon="14.0104508"><ele>97.39999999999999</ele><time>2026-05-03T11:24:21.966Z</time></trkpt><trkpt lat="42.2671163" lon="14.0105557"><ele>97.8</ele><time>2026-05-03T11:24:22.966Z</time></trkpt><trkpt lat="42.2670346" lon="14.0106481"><ele>98.2</ele><time>2026-05-03T11:24:23.965Z</time></trkpt><trkpt lat="42.2669395" lon="14.010733"><ele>98.6</ele><time>2026-05-03T11:24:24.966Z</time></trkpt><trkpt lat="42.266837" lon="14.0108173"><ele>99.0</ele><time>2026-05-03T11:24:25.966Z</time></trkpt><trkpt lat="42.2667302" lon="14.0109067"><ele>99.0</ele><time>2026-05-03T11:24:26.966Z</time></trkpt><trkpt lat="42.26662" lon="14.011"><ele>99.0</ele><time>2026-05-03T11:24:27.966Z</time></trkpt><trkpt lat="42.2665057" lon="14.0110953"><ele>99.0</ele><time>2026-05-03T11:24:28.965Z</time></trkpt><trkpt lat="42.2663901" lon="14.0111898"><ele>99.0</ele><time>2026-05-03T11:24:29.965Z</time></trkpt><trkpt lat="42.2662815" lon="14.0112787"><ele>99.75</ele><time>2026-05-03T11:24:30.965Z</time></trkpt><trkpt lat="42.2661706" lon="14.0113714"><ele>100.5</ele><time>2026-05-03T11:24:31.966Z</time></trkpt><trkpt lat="42.266067" lon="14.0114563"><ele>101.25</ele><time>2026-05-03T11:24:32.966Z</time></trkpt><trkpt lat="42.2659656" lon="14.0115307"><ele>102.0</ele><time>2026-05-03T11:24:33.965Z</time></trkpt><trkpt lat="42.2658774" lon="14.0115932"><ele>101.6</ele><time>2026-05-03T11:24:34.966Z</time></trkpt><trkpt lat="42.2657931" lon="14.0116587"><ele>101.19999999999999</ele><time>2026-05-03T11:24:35.966Z</time></trkpt><trkpt lat="42.2657072" lon="14.0117287"><ele>100.8</ele><time>2026-05-03T11:24:36.965Z</time></trkpt><trkpt lat="42.2656104" lon="14.0118129"><ele>100.4</ele><time>2026-05-03T11:24:37.965Z</time></trkpt><trkpt lat="42.2655099" lon="14.0119023"><ele>100.0</ele><time>2026-05-03T11:24:38.965Z</time></trkpt><trkpt lat="42.2654116" lon="14.0119888"><ele>101.75</ele><time>2026-05-03T11:24:39.965Z</time></trkpt><trkpt lat="42.2653162" lon="14.0120739"><ele>103.5</ele><time>2026-05-03T11:24:40.966Z</time></trkpt><trkpt lat="42.2652207" lon="14.0121603"><ele>105.25</ele><time>2026-05-03T11:24:41.965Z</time></trkpt><trkpt lat="42.2651271" lon="14.0122596"><ele>107.0</ele><time>2026-05-03T11:24:42.966Z</time></trkpt><trkpt lat="42.2650469" lon="14.0123806"><ele>104.0</ele><time>2026-05-03T11:24:43.966Z</time></trkpt><trkpt lat="42.2649836" lon="14.0125299"><ele>101.0</ele><time>2026-05-03T11:24:44.966Z</time></trkpt><trkpt lat="42.2649413" lon="14.0126909"><ele>98.0</ele><time>2026-05-03T11:24:45.966Z</time></trkpt><trkpt lat="42.2649284" lon="14.0128555"><ele>95.0</ele><time>2026-05-03T11:24:46.965Z</time></trkpt><trkpt lat="42.2649398" lon="14.0130346"><ele>95.0</ele><time>2026-05-03T11:24:47.966Z</time></trkpt><trkpt lat="42.2649783" lon="14.0132119"><ele>95.0</ele><time>2026-05-03T11:24:48.966Z</time></trkpt><trkpt lat="42.2650433" lon="14.0133829"><ele>95.0</ele><time>2026-05-03T11:24:49.965Z</time></trkpt><trkpt lat="42.2651297" lon="14.0135461"><ele>95.0</ele><time>2026-05-03T11:24:50.966Z</time></trkpt><trkpt lat="42.2652263" lon="14.0137059"><ele>94.0</ele><time>2026-05-03T11:24:51.965Z</time></trkpt><trkpt lat="42.265323" lon="14.0138697"><ele>93.0</ele><time>2026-05-03T11:24:52.966Z</time></trkpt><trkpt lat="42.2654151" lon="14.0140266"><ele>92.0</ele><time>2026-05-03T11:24:53.966Z</time></trkpt><trkpt lat="42.2655033" lon="14.0141742"><ele>91.0</ele><time>2026-05-03T11:24:54.966Z</time></trkpt><trkpt lat="42.265587" lon="14.0143152"><ele>90.25</ele><time>2026-05-03T11:24:55.965Z</time></trkpt><trkpt lat="42.2656666" lon="14.0144515"><ele>89.5</ele><time>2026-05-03T11:24:56.965Z</time></trkpt><trkpt lat="42.2657435" lon="14.0145812"><ele>88.75</ele><time>2026-05-03T11:24:57.965Z</time></trkpt><trkpt lat="42.2658184" lon="14.0147073"><ele>88.0</ele><time>2026-05-03T11:24:58.966Z</time></trkpt><trkpt lat="42.2658942" lon="14.0148392"><ele>88.0</ele><time>2026-05-03T11:24:59.966Z</time></trkpt><trkpt lat="42.2659697" lon="14.0149716"><ele>88.0</ele><time>2026-05-03T11:25:00.966Z</time></trkpt><trkpt lat="42.2660284" lon="14.0150725"><ele>88.0</ele><time>2026-05-03T11:25:01.966Z</time></trkpt><trkpt lat="42.2660761" lon="14.0151567"><ele>88.0</ele><time>2026-05-03T11:25:02.966Z</time></trkpt><trkpt lat="42.2661374" lon="14.0152588"><ele>88.0</ele><time>2026-05-03T11:25:04.966Z</time></trkpt><trkpt lat="42.2662086" lon="14.0152802"><ele>88.0</ele><time>2026-05-03T11:25:07.965Z</time></trkpt><trkpt lat="42.2662652" lon="14.0152305"><ele>88.0</ele><time>2026-05-03T11:25:09.966Z</time></trkpt><trkpt lat="42.2663257" lon="14.0151658"><ele>88.0</ele><time>2026-05-03T11:25:11.965Z</time></trkpt><trkpt lat="42.2663902" lon="14.0151046"><ele>88.0</ele><time>2026-05-03T11:25:13.966Z</time></trkpt><trkpt lat="42.2664595" lon="14.015036"><ele>88.0</ele><time>2026-05-03T11:25:16.965Z</time></trkpt><trkpt lat="42.2665177" lon="14.0149794"><ele>88.0</ele><time>2026-05-03T11:25:21.966Z</time></trkpt><trkpt lat="42.2665731" lon="14.0148998"><ele>88.0</ele><time>2026-05-03T11:25:24.966Z</time></trkpt></trkseg><trkseg><trkpt lat="42.2666702" lon="14.0148271"><ele>88.0</ele><time>2026-05-03T11:35:57.963Z</time></trkpt><trkpt lat="42.2667287" lon="14.0147759"><ele>88.0</ele><time>2026-05-03T11:35:59.963Z</time></trkpt><trkpt lat="42.2667807" lon="14.0147238"><ele>88.0</ele><time>2026-05-03T11:36:01.963Z</time></trkpt><trkpt lat="42.2667606" lon="14.0146411"><ele>88.0</ele><time>2026-05-03T11:36:05.963Z</time></trkpt><trkpt lat="42.2667271" lon="14.0147268"><ele>88.0</ele><time>2026-05-03T11:36:10.963Z</time></trkpt><trkpt lat="42.2666789" lon="14.0148068"><ele>88.0</ele><time>2026-05-03T11:36:12.962Z</time></trkpt><trkpt lat="42.2665964" lon="14.0148627"><ele>88.0</ele><time>2026-05-03T11:36:14.962Z</time></trkpt><trkpt lat="42.2665198" lon="14.0149648"><ele>88.16666666666666</ele><time>2026-05-03T11:36:16.962Z</time></trkpt><trkpt lat="42.2664195" lon="14.0150649"><ele>88.33333333333333</ele><time>2026-05-03T11:36:18.963Z</time></trkpt><trkpt lat="42.2663642" lon="14.0151123"><ele>88.5</ele><time>2026-05-03T11:36:19.963Z</time></trkpt><trkpt lat="42.2663116" lon="14.0151629"><ele>88.66666666666667</ele><time>2026-05-03T11:36:20.963Z</time></trkpt><trkpt lat="42.2662324" lon="14.0152491"><ele>88.83333333333334</ele><time>2026-05-03T11:36:22.962Z</time></trkpt><trkpt lat="42.2661877" lon="14.0153259"><ele>89.0</ele><time>2026-05-03T11:36:25.963Z</time></trkpt><trkpt lat="42.2662116" lon="14.0154187"><ele>89.0</ele><time>2026-05-03T11:36:27.963Z</time></trkpt><trkpt lat="42.2662587" lon="14.0155014"><ele>89.0</ele><time>2026-05-03T11:36:28.962Z</time></trkpt><trkpt lat="42.2663236" lon="14.015591"><ele>89.0</ele><time>2026-05-03T11:36:29.962Z</time></trkpt><trkpt lat="42.2664012" lon="14.0157092"><ele>89.0</ele><time>2026-05-03T11:36:30.962Z</time></trkpt><trkpt lat="42.2664877" lon="14.0158541"><ele>89.0</ele><time>2026-05-03T11:36:31.963Z</time></trkpt><trkpt lat="42.2665792" lon="14.016009"><ele>88.66666666666667</ele><time>2026-05-03T11:36:32.963Z</time></trkpt><trkpt lat="42.2666809" lon="14.0161829"><ele>88.33333333333333</ele><time>2026-05-03T11:36:33.962Z</time></trkpt><trkpt lat="42.2667846" lon="14.0163655"><ele>88.0</ele><time>2026-05-03T11:36:34.963Z</time></trkpt><trkpt lat="42.2668846" lon="14.016543"><ele>88.66666666666666</ele><time>2026-05-03T11:36:35.963Z</time></trkpt><trkpt lat="42.2669895" lon="14.0167197"><ele>89.33333333333333</ele><time>2026-05-03T11:36:36.963Z</time></trkpt><trkpt lat="42.2670894" lon="14.0168881"><ele>90.0</ele><time>2026-05-03T11:36:37.963Z</time></trkpt><trkpt lat="42.2671829" lon="14.0170504"><ele>90.0</ele><time>2026-05-03T11:36:38.963Z</time></trkpt><trkpt lat="42.2672702" lon="14.0171992"><ele>90.0</ele><time>2026-05-03T11:36:39.963Z</time></trkpt><trkpt lat="42.2673513" lon="14.0173359"><ele>90.0</ele><time>2026-05-03T11:36:40.963Z</time></trkpt><trkpt lat="42.267425" lon="14.0174638"><ele>90.0</ele><time>2026-05-03T11:36:41.964Z</time></trkpt><trkpt lat="42.2674972" lon="14.0175947"><ele>89.75</ele><time>2026-05-03T11:36:42.963Z</time></trkpt><trkpt lat="42.2675758" lon="14.0177253"><ele>89.5</ele><time>2026-05-03T11:36:43.963Z</time></trkpt><trkpt lat="42.2676584" lon="14.0178447"><ele>89.25</ele><time>2026-05-03T11:36:44.963Z</time></trkpt><trkpt lat="42.2677448" lon="14.017947"><ele>89.0</ele><time>2026-05-03T11:36:45.964Z</time></trkpt><trkpt lat="42.2678418" lon="14.0180301"><ele>89.0</ele><time>2026-05-03T11:36:46.962Z</time></trkpt><trkpt lat="42.267956" lon="14.0180923"><ele>89.0</ele><time>2026-05-03T11:36:47.962Z</time></trkpt><trkpt lat="42.2680901" lon="14.0181397"><ele>89.0</ele><time>2026-05-03T11:36:48.962Z</time></trkpt><trkpt lat="42.2682341" lon="14.0181812"><ele>89.0</ele><time>2026-05-03T11:36:49.963Z</time></trkpt><trkpt lat="42.2683861" lon="14.0182178"><ele>89.33333333333334</ele><time>2026-05-03T11:36:50.962Z</time></trkpt><trkpt lat="42.2685354" lon="14.0182521"><ele>89.66666666666667</ele><time>2026-05-03T11:36:51.963Z</time></trkpt><trkpt lat="42.2686789" lon="14.0182859"><ele>90.0</ele><time>2026-05-03T11:36:52.963Z</time></trkpt><trkpt lat="42.2688677" lon="14.0183349"><ele>90.5</ele><time>2026-05-03T11:36:54.418Z</time></trkpt><trkpt lat="42.2690489" lon="14.0183905"><ele>91.0</ele><time>2026-05-03T11:36:55.961Z</time></trkpt><trkpt lat="42.2691588" lon="14.0184217"><ele>91.5</ele><time>2026-05-03T11:36:56.961Z</time></trkpt><trkpt lat="42.2692749" lon="14.0184534"><ele>92.0</ele><time>2026-05-03T11:36:57.96Z</time></trkpt><trkpt lat="42.2693903" lon="14.018483"><ele>92.0</ele><time>2026-05-03T11:36:58.961Z</time></trkpt><trkpt lat="42.2695124" lon="14.018523"><ele>92.0</ele><time>2026-05-03T11:36:59.961Z</time></trkpt><trkpt lat="42.2696404" lon="14.0185805"><ele>92.0</ele><time>2026-05-03T11:37:00.961Z</time></trkpt><trkpt lat="42.2697726" lon="14.0186586"><ele>92.0</ele><time>2026-05-03T11:37:01.961Z</time></trkpt><trkpt lat="42.2699098" lon="14.0187477"><ele>92.0</ele><time>2026-05-03T11:37:02.961Z</time></trkpt><trkpt lat="42.2700501" lon="14.0188388"><ele>92.0</ele><time>2026-05-03T11:37:03.961Z</time></trkpt><trkpt lat="42.2701906" lon="14.0189315"><ele>92.0</ele><time>2026-05-03T11:37:04.96Z</time></trkpt><trkpt lat="42.2703274" lon="14.0190204"><ele>92.0</ele><time>2026-05-03T11:37:05.961Z</time></trkpt><trkpt lat="42.2704555" lon="14.019103"><ele>92.0</ele><time>2026-05-03T11:37:06.961Z</time></trkpt><trkpt lat="42.2705727" lon="14.0191788"><ele>92.0</ele><time>2026-05-03T11:37:07.96Z</time></trkpt><trkpt lat="42.2706777" lon="14.019247"><ele>92.0</ele><time>2026-05-03T11:37:08.96Z</time></trkpt><trkpt lat="42.270773" lon="14.0193076"><ele>93.16666666666667</ele><time>2026-05-03T11:37:09.96Z</time></trkpt><trkpt lat="42.2708522" lon="14.0193612"><ele>94.33333333333334</ele><time>2026-05-03T11:37:10.961Z</time></trkpt><trkpt lat="42.2709179" lon="14.0194584"><ele>95.5</ele><time>2026-05-03T11:37:12.96Z</time></trkpt><trkpt lat="42.2708903" lon="14.0195728"><ele>96.66666666666667</ele><time>2026-05-03T11:37:14.961Z</time></trkpt><trkpt lat="42.2708517" lon="14.0196499"><ele>97.83333333333333</ele><time>2026-05-03T11:37:15.961Z</time></trkpt><trkpt lat="42.2708115" lon="14.0197383"><ele>99.0</ele><time>2026-05-03T11:37:16.961Z</time></trkpt><trkpt lat="42.270786" lon="14.0198648"><ele>100.33333333333333</ele><time>2026-05-03T11:37:18.961Z</time></trkpt><trkpt lat="42.2708294" lon="14.0199868"><ele>101.66666666666666</ele><time>2026-05-03T11:37:20.961Z</time></trkpt><trkpt lat="42.2708628" lon="14.0200636"><ele>103.0</ele><time>2026-05-03T11:37:21.96Z</time></trkpt><trkpt lat="42.2708986" lon="14.0201368"><ele>104.33333333333333</ele><time>2026-05-03T11:37:22.96Z</time></trkpt><trkpt lat="42.2709558" lon="14.0202341"><ele>105.66666666666666</ele><time>2026-05-03T11:37:24.961Z</time></trkpt><trkpt lat="42.27102" lon="14.0203523"><ele>107.0</ele><time>2026-05-03T11:37:26.961Z</time></trkpt><trkpt lat="42.2710633" lon="14.0204188"><ele>107.0</ele><time>2026-05-03T11:37:29.96Z</time></trkpt><trkpt lat="42.2710528" lon="14.0203027"><ele>106.99999999999999</ele><time>2026-05-03T11:37:41.961Z</time></trkpt><trkpt lat="42.2709518" lon="14.0202089"><ele>106.99999999999999</ele><time>2026-05-03T11:37:43.96Z</time></trkpt><trkpt lat="42.2708975" lon="14.0201069"><ele>107.0</ele><time>2026-05-03T11:37:45.961Z</time></trkpt><trkpt lat="42.2708507" lon="14.0200253"><ele>107.0</ele><time>2026-05-03T11:37:47.961Z</time></trkpt><trkpt lat="42.2708248" lon="14.0199299"><ele>106.16666666666666</ele><time>2026-05-03T11:37:49.961Z</time></trkpt><trkpt lat="42.2707884" lon="14.0198379"><ele>105.33333333333333</ele><time>2026-05-03T11:38:11.961Z</time></trkpt><trkpt lat="42.2706984" lon="14.0198125"><ele>104.5</ele><time>2026-05-03T11:38:13.96Z</time></trkpt><trkpt lat="42.2706232" lon="14.0197904"><ele>103.66666666666666</ele><time>2026-05-03T11:38:14.961Z</time></trkpt><trkpt lat="42.2705458" lon="14.0197773"><ele>102.83333333333333</ele><time>2026-05-03T11:38:15.961Z</time></trkpt><trkpt lat="42.2704597" lon="14.0197565"><ele>102.0</ele><time>2026-05-03T11:38:16.961Z</time></trkpt><trkpt lat="42.2703531" lon="14.019723"><ele>102.0</ele><time>2026-05-03T11:38:17.961Z</time></trkpt><trkpt lat="42.270241" lon="14.0196777"><ele>102.0</ele><time>2026-05-03T11:38:18.961Z</time></trkpt><trkpt lat="42.2701371" lon="14.0196305"><ele>102.0</ele><time>2026-05-03T11:38:19.961Z</time></trkpt><trkpt lat="42.2700366" lon="14.0195811"><ele>102.0</ele><time>2026-05-03T11:38:20.961Z</time></trkpt><trkpt lat="42.2699417" lon="14.0195352"><ele>102.0</ele><time>2026-05-03T11:38:21.961Z</time></trkpt><trkpt lat="42.2698526" lon="14.0194929"><ele>102.66666666666667</ele><time>2026-05-03T11:38:22.961Z</time></trkpt><trkpt lat="42.2697735" lon="14.0194603"><ele>103.33333333333334</ele><time>2026-05-03T11:38:23.961Z</time></trkpt><trkpt lat="42.2697031" lon="14.0194391"><ele>104.0</ele><time>2026-05-03T11:38:24.961Z</time></trkpt><trkpt lat="42.2696303" lon="14.0194283"><ele>104.66666666666667</ele><time>2026-05-03T11:38:25.96Z</time></trkpt><trkpt lat="42.2695597" lon="14.0194223"><ele>105.33333333333334</ele><time>2026-05-03T11:38:26.961Z</time></trkpt><trkpt lat="42.269493" lon="14.0194203"><ele>106.0</ele><time>2026-05-03T11:38:27.96Z</time></trkpt><trkpt lat="42.2693583" lon="14.0194453"><ele>106.0</ele><time>2026-05-03T11:38:29.96Z</time></trkpt><trkpt lat="42.26928" lon="14.0194667"><ele>106.0</ele><time>2026-05-03T11:38:30.961Z</time></trkpt><trkpt lat="42.269196" lon="14.0194921"><ele>106.0</ele><time>2026-05-03T11:38:31.961Z</time></trkpt><trkpt lat="42.2691239" lon="14.0195306"><ele>106.0</ele><time>2026-05-03T11:38:32.961Z</time></trkpt><trkpt lat="42.2690714" lon="14.0195871"><ele>106.0</ele><time>2026-05-03T11:38:33.961Z</time></trkpt><trkpt lat="42.269032" lon="14.0196632"><ele>106.0</ele><time>2026-05-03T11:38:34.961Z</time></trkpt><trkpt lat="42.269013" lon="14.0197524"><ele>106.0</ele><time>2026-05-03T11:38:35.961Z</time></trkpt><trkpt lat="42.2690279" lon="14.0198887"><ele>106.00000000000001</ele><time>2026-05-03T11:38:37.961Z</time></trkpt><trkpt lat="42.2690606" lon="14.0199668"><ele>106.0</ele><time>2026-05-03T11:38:39.96Z</time></trkpt><trkpt lat="42.2690954" lon="14.0200582"><ele>106.0</ele><time>2026-05-03T11:38:42.961Z</time></trkpt><trkpt lat="42.269162" lon="14.0201687"><ele>106.0</ele><time>2026-05-03T11:38:44.961Z</time></trkpt><trkpt lat="42.2692079" lon="14.0202407"><ele>106.00000000000001</ele><time>2026-05-03T11:38:45.961Z</time></trkpt><trkpt lat="42.2692556" lon="14.020311"><ele>106.0</ele><time>2026-05-03T11:38:46.961Z</time></trkpt><trkpt lat="42.2693023" lon="14.0203698"><ele>108.16666666666667</ele><time>2026-05-03T11:38:47.961Z</time></trkpt><trkpt lat="42.2693908" lon="14.0204525"><ele>110.33333333333334</ele><time>2026-05-03T11:38:49.961Z</time></trkpt><trkpt lat="42.2694575" lon="14.0205268"><ele>112.5</ele><time>2026-05-03T11:38:51.96Z</time></trkpt><trkpt lat="42.2695215" lon="14.0205486"><ele>114.66666666666666</ele><time>2026-05-03T11:38:54.961Z</time></trkpt><trkpt lat="42.269445" lon="14.0204913"><ele>116.83333333333333</ele><time>2026-05-03T11:39:02.961Z</time></trkpt><trkpt lat="42.2693599" lon="14.0204186"><ele>119.0</ele><time>2026-05-03T11:39:04.961Z</time></trkpt><trkpt lat="42.269277" lon="14.0203258"><ele>119.0</ele><time>2026-05-03T11:39:06.96Z</time></trkpt><trkpt lat="42.269205" lon="14.0202198"><ele>119.0</ele><time>2026-05-03T11:39:08.961Z</time></trkpt><trkpt lat="42.269138" lon="14.0201052"><ele>119.0</ele><time>2026-05-03T11:39:10.961Z</time></trkpt><trkpt lat="42.269074" lon="14.0199782"><ele>119.0</ele><time>2026-05-03T11:39:12.961Z</time></trkpt><trkpt lat="42.2690342" lon="14.019856"><ele>119.0</ele><time>2026-05-03T11:39:14.961Z</time></trkpt><trkpt lat="42.2690416" lon="14.0197093"><ele>115.75</ele><time>2026-05-03T11:39:16.96Z</time></trkpt><trkpt lat="42.2691103" lon="14.0195791"><ele>112.5</ele><time>2026-05-03T11:39:18.96Z</time></trkpt><trkpt lat="42.2692213" lon="14.0195121"><ele>109.25</ele><time>2026-05-03T11:39:20.961Z</time></trkpt><trkpt lat="42.2693378" lon="14.0194842"><ele>106.0</ele><time>2026-05-03T11:39:22.961Z</time></trkpt><trkpt lat="42.2694397" lon="14.0194626"><ele>106.0</ele><time>2026-05-03T11:39:24.961Z</time></trkpt><trkpt lat="42.2695433" lon="14.0194561"><ele>106.0</ele><time>2026-05-03T11:39:26.961Z</time></trkpt><trkpt lat="42.2696562" lon="14.019474"><ele>106.0</ele><time>2026-05-03T11:39:28.96Z</time></trkpt><trkpt lat="42.2697784" lon="14.0194987"><ele>106.0</ele><time>2026-05-03T11:39:30.961Z</time></trkpt><trkpt lat="42.2698437" lon="14.0195216"><ele>106.0</ele><time>2026-05-03T11:39:31.961Z</time></trkpt><trkpt lat="42.2699156" lon="14.0195554"><ele>105.33333333333334</ele><time>2026-05-03T11:39:32.961Z</time></trkpt><trkpt lat="42.2699897" lon="14.019591"><ele>104.66666666666667</ele><time>2026-05-03T11:39:33.96Z</time></trkpt><trkpt lat="42.2700619" lon="14.0196234"><ele>104.0</ele><time>2026-05-03T11:39:34.96Z</time></trkpt><trkpt lat="42.2701291" lon="14.019654"><ele>103.33333333333334</ele><time>2026-05-03T11:39:35.961Z</time></trkpt><trkpt lat="42.2701918" lon="14.0196831"><ele>102.66666666666667</ele><time>2026-05-03T11:39:36.961Z</time></trkpt><trkpt lat="42.2702974" lon="14.0197381"><ele>102.0</ele><time>2026-05-03T11:39:38.961Z</time></trkpt><trkpt lat="42.2703859" lon="14.0197804"><ele>102.0</ele><time>2026-05-03T11:39:49.961Z</time></trkpt><trkpt lat="42.2704507" lon="14.0197933"><ele>102.0</ele><time>2026-05-03T11:39:50.96Z</time></trkpt><trkpt lat="42.2705216" lon="14.0198146"><ele>102.0</ele><time>2026-05-03T11:39:51.961Z</time></trkpt><trkpt lat="42.2705932" lon="14.0198371"><ele>102.0</ele><time>2026-05-03T11:39:52.96Z</time></trkpt><trkpt lat="42.2706609" lon="14.0198595"><ele>102.0</ele><time>2026-05-03T11:39:53.961Z</time></trkpt><trkpt lat="42.2707455" lon="14.0198772"><ele>102.0</ele><time>2026-05-03T11:39:55.961Z</time></trkpt><trkpt lat="42.2708059" lon="14.0198338"><ele>102.0</ele><time>2026-05-03T11:39:57.961Z</time></trkpt><trkpt lat="42.2708525" lon="14.0197219"><ele>101.39999999999999</ele><time>2026-05-03T11:39:59.96Z</time></trkpt><trkpt lat="42.2709014" lon="14.0195858"><ele>100.8</ele><time>2026-05-03T11:40:01.96Z</time></trkpt><trkpt lat="42.2709372" lon="14.0195008"><ele>100.2</ele><time>2026-05-03T11:40:03.961Z</time></trkpt><trkpt lat="42.2710227" lon="14.0194669"><ele>99.6</ele><time>2026-05-03T11:40:06.96Z</time></trkpt><trkpt lat="42.2711442" lon="14.0195463"><ele>99.0</ele><time>2026-05-03T11:40:08.961Z</time></trkpt><trkpt lat="42.2712218" lon="14.0196099"><ele>99.0</ele><time>2026-05-03T11:40:09.961Z</time></trkpt><trkpt lat="42.271315" lon="14.0196757"><ele>99.0</ele><time>2026-05-03T11:40:10.961Z</time></trkpt><trkpt lat="42.2714152" lon="14.0197375"><ele>99.0</ele><time>2026-05-03T11:40:11.961Z</time></trkpt><trkpt lat="42.2715136" lon="14.0198011"><ele>99.0</ele><time>2026-05-03T11:40:12.96Z</time></trkpt><trkpt lat="42.271625" lon="14.0198666"><ele>99.0</ele><time>2026-05-03T11:40:13.96Z</time></trkpt><trkpt lat="42.2717454" lon="14.0199407"><ele>100.0</ele><time>2026-05-03T11:40:14.96Z</time></trkpt><trkpt lat="42.2718682" lon="14.0200179"><ele>101.0</ele><time>2026-05-03T11:40:15.961Z</time></trkpt><trkpt lat="42.2719848" lon="14.020096"><ele>102.0</ele><time>2026-05-03T11:40:16.961Z</time></trkpt><trkpt lat="42.2720975" lon="14.0201781"><ele>103.0</ele><time>2026-05-03T11:40:17.96Z</time></trkpt><trkpt lat="42.272206" lon="14.0202566"><ele>100.0</ele><time>2026-05-03T11:40:18.961Z</time></trkpt><trkpt lat="42.2723101" lon="14.0203327"><ele>97.0</ele><time>2026-05-03T11:40:19.961Z</time></trkpt><trkpt lat="42.2724117" lon="14.0204067"><ele>94.0</ele><time>2026-05-03T11:40:20.961Z</time></trkpt><trkpt lat="42.2725133" lon="14.0204739"><ele>91.0</ele><time>2026-05-03T11:40:21.96Z</time></trkpt><trkpt lat="42.2726148" lon="14.0205398"><ele>91.0</ele><time>2026-05-03T11:40:22.96Z</time></trkpt><trkpt lat="42.2726961" lon="14.0205909"><ele>91.0</ele><time>2026-05-03T11:40:23.96Z</time></trkpt><trkpt lat="42.272761" lon="14.0206193"><ele>91.0</ele><time>2026-05-03T11:40:24.96Z</time></trkpt><trkpt lat="42.2728607" lon="14.020606"><ele>91.0</ele><time>2026-05-03T11:40:26.96Z</time></trkpt><trkpt lat="42.2728882" lon="14.0205098"><ele>91.0</ele><time>2026-05-03T11:40:29.961Z</time></trkpt><trkpt lat="42.2728214" lon="14.0203942"><ele>91.0</ele><time>2026-05-03T11:40:31.961Z</time></trkpt><trkpt lat="42.2727467" lon="14.0203378"><ele>91.0</ele><time>2026-05-03T11:40:32.961Z</time></trkpt><trkpt lat="42.2726542" lon="14.0202862"><ele>91.0</ele><time>2026-05-03T11:40:33.96Z</time></trkpt><trkpt lat="42.2725476" lon="14.0202205"><ele>91.0</ele><time>2026-05-03T11:40:34.96Z</time></trkpt><trkpt lat="42.272435" lon="14.0201398"><ele>91.0</ele><time>2026-05-03T11:40:35.961Z</time></trkpt><trkpt lat="42.2723146" lon="14.020042"><ele>91.33333333333333</ele><time>2026-05-03T11:40:36.961Z</time></trkpt><trkpt lat="42.2721847" lon="14.0199301"><ele>91.66666666666667</ele><time>2026-05-03T11:40:37.961Z</time></trkpt><trkpt lat="42.2720505" lon="14.019808"><ele>92.0</ele><time>2026-05-03T11:40:38.961Z</time></trkpt><trkpt lat="42.2719182" lon="14.0196748"><ele>92.0</ele><time>2026-05-03T11:40:39.96Z</time></trkpt><trkpt lat="42.2717858" lon="14.0195295"><ele>92.0</ele><time>2026-05-03T11:40:40.961Z</time></trkpt><trkpt lat="42.2716509" lon="14.0193737"><ele>92.0</ele><time>2026-05-03T11:40:41.96Z</time></trkpt><trkpt lat="42.2715181" lon="14.0192087"><ele>91.33333333333334</ele><time>2026-05-03T11:40:42.961Z</time></trkpt><trkpt lat="42.2713911" lon="14.0190286"><ele>90.66666666666667</ele><time>2026-05-03T11:40:43.961Z</time></trkpt><trkpt lat="42.2712702" lon="14.0188366"><ele>90.0</ele><time>2026-05-03T11:40:44.961Z</time></trkpt><trkpt lat="42.2711552" lon="14.0186343"><ele>90.0</ele><time>2026-05-03T11:40:45.961Z</time></trkpt><trkpt lat="42.2710429" lon="14.018423"><ele>90.0</ele><time>2026-05-03T11:40:46.961Z</time></trkpt><trkpt lat="42.2709365" lon="14.0182035"><ele>90.0</ele><time>2026-05-03T11:40:47.961Z</time></trkpt><trkpt lat="42.2708331" lon="14.0179763"><ele>88.66666666666667</ele><time>2026-05-03T11:40:48.961Z</time></trkpt><trkpt lat="42.2707296" lon="14.0177481"><ele>87.33333333333334</ele><time>2026-05-03T11:40:49.96Z</time></trkpt><trkpt lat="42.270625" lon="14.0175212"><ele>86.0</ele><time>2026-05-03T11:40:50.961Z</time></trkpt><trkpt lat="42.2705213" lon="14.0172915"><ele>86.0</ele><time>2026-05-03T11:40:51.96Z</time></trkpt><trkpt lat="42.2704174" lon="14.0170602"><ele>86.0</ele><time>2026-05-03T11:40:52.96Z</time></trkpt><trkpt lat="42.2703164" lon="14.0168332"><ele>86.0</ele><time>2026-05-03T11:40:53.96Z</time></trkpt><trkpt lat="42.2702205" lon="14.0166131"><ele>86.0</ele><time>2026-05-03T11:40:54.96Z</time></trkpt><trkpt lat="42.2701306" lon="14.0164029"><ele>86.0</ele><time>2026-05-03T11:40:55.961Z</time></trkpt><trkpt lat="42.2700447" lon="14.0162012"><ele>86.0</ele><time>2026-05-03T11:40:56.961Z</time></trkpt><trkpt lat="42.269963" lon="14.0160082"><ele>86.0</ele><time>2026-05-03T11:40:57.961Z</time></trkpt><trkpt lat="42.2698841" lon="14.0158231"><ele>86.0</ele><time>2026-05-03T11:40:58.96Z</time></trkpt><trkpt lat="42.2698052" lon="14.0156461"><ele>86.0</ele><time>2026-05-03T11:40:59.96Z</time></trkpt><trkpt lat="42.2697328" lon="14.0154729"><ele>86.0</ele><time>2026-05-03T11:41:00.961Z</time></trkpt><trkpt lat="42.2696838" lon="14.015295"><ele>86.0</ele><time>2026-05-03T11:41:01.961Z</time></trkpt><trkpt lat="42.2696575" lon="14.0151148"><ele>86.0</ele><time>2026-05-03T11:41:02.961Z</time></trkpt><trkpt lat="42.2696554" lon="14.0149392"><ele>86.0</ele><time>2026-05-03T11:41:03.961Z</time></trkpt><trkpt lat="42.2696715" lon="14.0147703"><ele>86.0</ele><time>2026-05-03T11:41:04.961Z</time></trkpt><trkpt lat="42.2697115" lon="14.0146113"><ele>86.0</ele><time>2026-05-03T11:41:05.96Z</time></trkpt><trkpt lat="42.2697735" lon="14.0144593"><ele>86.0</ele><time>2026-05-03T11:41:06.961Z</time></trkpt><trkpt lat="42.2698559" lon="14.0143124"><ele>86.0</ele><time>2026-05-03T11:41:07.961Z</time></trkpt><trkpt lat="42.2699593" lon="14.0141634"><ele>85.66666666666667</ele><time>2026-05-03T11:41:08.961Z</time></trkpt><trkpt lat="42.2700719" lon="14.0140053"><ele>85.33333333333333</ele><time>2026-05-03T11:41:09.961Z</time></trkpt><trkpt lat="42.2701949" lon="14.0138392"><ele>85.0</ele><time>2026-05-03T11:41:10.96Z</time></trkpt><trkpt lat="42.2703246" lon="14.0136667"><ele>85.0</ele><time>2026-05-03T11:41:11.96Z</time></trkpt><trkpt lat="42.27046" lon="14.0134892"><ele>85.0</ele><time>2026-05-03T11:41:12.961Z</time></trkpt><trkpt lat="42.2705963" lon="14.0133109"><ele>85.0</ele><time>2026-05-03T11:41:13.961Z</time></trkpt><trkpt lat="42.2707289" lon="14.0131326"><ele>86.0</ele><time>2026-05-03T11:41:14.961Z</time></trkpt><trkpt lat="42.2708517" lon="14.0129629"><ele>87.0</ele><time>2026-05-03T11:41:15.961Z</time></trkpt><trkpt lat="42.2709674" lon="14.0128055"><ele>88.0</ele><time>2026-05-03T11:41:16.961Z</time></trkpt><trkpt lat="42.2710772" lon="14.0126585"><ele>88.0</ele><time>2026-05-03T11:41:17.961Z</time></trkpt><trkpt lat="42.2711811" lon="14.012519"><ele>88.0</ele><time>2026-05-03T11:41:18.961Z</time></trkpt><trkpt lat="42.27128" lon="14.0123848"><ele>88.0</ele><time>2026-05-03T11:41:19.96Z</time></trkpt><trkpt lat="42.2713764" lon="14.0122585"><ele>88.0</ele><time>2026-05-03T11:41:20.961Z</time></trkpt><trkpt lat="42.2714652" lon="14.0121465"><ele>89.16666666666666</ele><time>2026-05-03T11:41:21.961Z</time></trkpt><trkpt lat="42.2715454" lon="14.0120467"><ele>90.33333333333333</ele><time>2026-05-03T11:41:22.961Z</time></trkpt><trkpt lat="42.2716159" lon="14.0119555"><ele>91.5</ele><time>2026-05-03T11:41:23.961Z</time></trkpt><trkpt lat="42.2716763" lon="14.0118786"><ele>92.66666666666667</ele><time>2026-05-03T11:41:24.96Z</time></trkpt><trkpt lat="42.2717279" lon="14.0118152"><ele>93.83333333333334</ele><time>2026-05-03T11:41:25.961Z</time></trkpt><trkpt lat="42.2717826" lon="14.0117481"><ele>95.0</ele><time>2026-05-03T11:41:26.96Z</time></trkpt><trkpt lat="42.2718432" lon="14.0116709"><ele>95.2</ele><time>2026-05-03T11:41:27.96Z</time></trkpt><trkpt lat="42.271907" lon="14.0115816"><ele>95.4</ele><time>2026-05-03T11:41:28.96Z</time></trkpt><trkpt lat="42.271979" lon="14.0114828"><ele>95.6</ele><time>2026-05-03T11:41:29.961Z</time></trkpt><trkpt lat="42.2720583" lon="14.0113795"><ele>95.8</ele><time>2026-05-03T11:41:30.96Z</time></trkpt><trkpt lat="42.2721432" lon="14.0112706"><ele>96.0</ele><time>2026-05-03T11:41:31.96Z</time></trkpt><trkpt lat="42.2722244" lon="14.0111599"><ele>96.0</ele><time>2026-05-03T11:41:32.961Z</time></trkpt><trkpt lat="42.2723026" lon="14.0110581"><ele>96.0</ele><time>2026-05-03T11:41:33.96Z</time></trkpt><trkpt lat="42.2723785" lon="14.0109758"><ele>96.0</ele><time>2026-05-03T11:41:34.961Z</time></trkpt><trkpt lat="42.272429" lon="14.0109209"><ele>96.0</ele><time>2026-05-03T11:41:35.96Z</time></trkpt><trkpt lat="42.2724869" lon="14.0108586"><ele>96.0</ele><time>2026-05-03T11:41:37.96Z</time></trkpt><trkpt lat="42.272563" lon="14.0107502"><ele>96.8</ele><time>2026-05-03T11:43:14.962Z</time></trkpt><trkpt lat="42.2726142" lon="14.0106884"><ele>97.6</ele><time>2026-05-03T11:43:15.962Z</time></trkpt><trkpt lat="42.2726632" lon="14.0106321"><ele>98.4</ele><time>2026-05-03T11:43:16.961Z</time></trkpt><trkpt lat="42.2727557" lon="14.0105355"><ele>99.2</ele><time>2026-05-03T11:43:18.962Z</time></trkpt><trkpt lat="42.2728575" lon="14.0104073"><ele>100.0</ele><time>2026-05-03T11:43:20.961Z</time></trkpt><trkpt lat="42.2729386" lon="14.010342"><ele>100.0</ele><time>2026-05-03T11:43:21.962Z</time></trkpt><trkpt lat="42.2730226" lon="14.0102796"><ele>100.0</ele><time>2026-05-03T11:43:22.962Z</time></trkpt><trkpt lat="42.2731198" lon="14.0102123"><ele>100.0</ele><time>2026-05-03T11:43:23.962Z</time></trkpt><trkpt lat="42.2732336" lon="14.0102139"><ele>100.0</ele><time>2026-05-03T11:43:24.962Z</time></trkpt><trkpt lat="42.2733515" lon="14.010215"><ele>100.0</ele><time>2026-05-03T11:43:25.962Z</time></trkpt><trkpt lat="42.2734634" lon="14.0102267"><ele>99.75</ele><time>2026-05-03T11:43:26.962Z</time></trkpt><trkpt lat="42.2735757" lon="14.0102668"><ele>99.5</ele><time>2026-05-03T11:43:27.962Z</time></trkpt><trkpt lat="42.2736959" lon="14.0103252"><ele>99.25</ele><time>2026-05-03T11:43:28.961Z</time></trkpt><trkpt lat="42.2738098" lon="14.01041"><ele>99.0</ele><time>2026-05-03T11:43:29.962Z</time></trkpt><trkpt lat="42.2739142" lon="14.0105147"><ele>99.0</ele><time>2026-05-03T11:43:30.962Z</time></trkpt><trkpt lat="42.2740016" lon="14.0106227"><ele>99.0</ele><time>2026-05-03T11:43:31.961Z</time></trkpt><trkpt lat="42.2740733" lon="14.0107391"><ele>99.0</ele><time>2026-05-03T11:43:32.961Z</time></trkpt><trkpt lat="42.2741266" lon="14.0108623"><ele>99.0</ele><time>2026-05-03T11:43:33.961Z</time></trkpt><trkpt lat="42.2741541" lon="14.0109713"><ele>99.0</ele><time>2026-05-03T11:43:34.962Z</time></trkpt><trkpt lat="42.2741572" lon="14.0110761"><ele>98.66666666666667</ele><time>2026-05-03T11:43:35.961Z</time></trkpt><trkpt lat="42.2741431" lon="14.0111883"><ele>98.33333333333334</ele><time>2026-05-03T11:43:36.961Z</time></trkpt><trkpt lat="42.2741356" lon="14.0112987"><ele>98.0</ele><time>2026-05-03T11:43:37.961Z</time></trkpt><trkpt lat="42.2741476" lon="14.0114038"><ele>97.66666666666667</ele><time>2026-05-03T11:43:38.962Z</time></trkpt><trkpt lat="42.274181" lon="14.0114954"><ele>97.33333333333334</ele><time>2026-05-03T11:43:39.962Z</time></trkpt><trkpt lat="42.2742361" lon="14.0115716"><ele>97.0</ele><time>2026-05-03T11:43:40.962Z</time></trkpt><trkpt lat="42.2743048" lon="14.0116347"><ele>96.75</ele><time>2026-05-03T11:43:41.961Z</time></trkpt><trkpt lat="42.2743831" lon="14.0117064"><ele>96.5</ele><time>2026-05-03T11:43:42.962Z</time></trkpt><trkpt lat="42.2744657" lon="14.0118066"><ele>96.25</ele><time>2026-05-03T11:43:43.962Z</time></trkpt><trkpt lat="42.274543" lon="14.0119357"><ele>96.0</ele><time>2026-05-03T11:43:44.961Z</time></trkpt><trkpt lat="42.2746198" lon="14.0120877"><ele>96.0</ele><time>2026-05-03T11:43:45.961Z</time></trkpt><trkpt lat="42.2747102" lon="14.0122477"><ele>96.0</ele><time>2026-05-03T11:43:46.961Z</time></trkpt><trkpt lat="42.2748173" lon="14.0124029"><ele>96.0</ele><time>2026-05-03T11:43:47.962Z</time></trkpt><trkpt lat="42.2749376" lon="14.0125444"><ele>96.0</ele><time>2026-05-03T11:43:48.962Z</time></trkpt><trkpt lat="42.275068" lon="14.0126636"><ele>96.0</ele><time>2026-05-03T11:43:49.962Z</time></trkpt><trkpt lat="42.2752157" lon="14.0127715"><ele>96.0</ele><time>2026-05-03T11:43:50.961Z</time></trkpt><trkpt lat="42.2753692" lon="14.0128542"><ele>96.0</ele><time>2026-05-03T11:43:51.962Z</time></trkpt><trkpt lat="42.2755329" lon="14.0129153"><ele>96.0</ele><time>2026-05-03T11:43:52.962Z</time></trkpt><trkpt lat="42.2756999" lon="14.0129447"><ele>96.0</ele><time>2026-05-03T11:43:53.961Z</time></trkpt><trkpt lat="42.27587" lon="14.0129449"><ele>95.66666666666667</ele><time>2026-05-03T11:43:54.962Z</time></trkpt><trkpt lat="42.2760458" lon="14.0129147"><ele>95.33333333333334</ele><time>2026-05-03T11:43:55.961Z</time></trkpt><trkpt lat="42.2762194" lon="14.0128608"><ele>95.0</ele><time>2026-05-03T11:43:56.962Z</time></trkpt><trkpt lat="42.276384" lon="14.0127927"><ele>95.33333333333334</ele><time>2026-05-03T11:43:57.962Z</time></trkpt><trkpt lat="42.2765383" lon="14.0127257"><ele>95.66666666666667</ele><time>2026-05-03T11:43:58.962Z</time></trkpt><trkpt lat="42.276685" lon="14.0126579"><ele>96.0</ele><time>2026-05-03T11:43:59.962Z</time></trkpt><trkpt lat="42.2768239" lon="14.012584"><ele>96.0</ele><time>2026-05-03T11:44:00.962Z</time></trkpt><trkpt lat="42.2769586" lon="14.01251"><ele>96.0</ele><time>2026-05-03T11:44:01.961Z</time></trkpt><trkpt lat="42.2770922" lon="14.0124467"><ele>96.0</ele><time>2026-05-03T11:44:02.962Z</time></trkpt><trkpt lat="42.2772264" lon="14.0124049"><ele>96.0</ele><time>2026-05-03T11:44:03.962Z</time></trkpt><trkpt lat="42.2773503" lon="14.0123892"><ele>96.0</ele><time>2026-05-03T11:44:04.962Z</time></trkpt><trkpt lat="42.2774541" lon="14.0123974"><ele>96.0</ele><time>2026-05-03T11:44:05.962Z</time></trkpt><trkpt lat="42.2775394" lon="14.0124225"><ele>96.0</ele><time>2026-05-03T11:44:06.961Z</time></trkpt><trkpt lat="42.2776276" lon="14.0124726"><ele>96.0</ele><time>2026-05-03T11:44:07.962Z</time></trkpt><trkpt lat="42.2777255" lon="14.0125459"><ele>96.0</ele><time>2026-05-03T11:44:08.962Z</time></trkpt><trkpt lat="42.2778357" lon="14.0126299"><ele>96.0</ele><time>2026-05-03T11:44:09.962Z</time></trkpt><trkpt lat="42.277953" lon="14.0127278"><ele>96.0</ele><time>2026-05-03T11:44:10.961Z</time></trkpt><trkpt lat="42.2780774" lon="14.012838"><ele>96.0</ele><time>2026-05-03T11:44:11.962Z</time></trkpt><trkpt lat="42.2782059" lon="14.0129577"><ele>96.0</ele><time>2026-05-03T11:44:12.962Z</time></trkpt><trkpt lat="42.2783409" lon="14.0130826"><ele>96.66666666666666</ele><time>2026-05-03T11:44:13.962Z</time></trkpt><trkpt lat="42.2784807" lon="14.0132114"><ele>97.33333333333333</ele><time>2026-05-03T11:44:14.961Z</time></trkpt><trkpt lat="42.2786243" lon="14.013344"><ele>98.0</ele><time>2026-05-03T11:44:15.962Z</time></trkpt><trkpt lat="42.2787686" lon="14.0134789"><ele>96.66666666666666</ele><time>2026-05-03T11:44:16.962Z</time></trkpt><trkpt lat="42.27891" lon="14.0136118"><ele>95.33333333333333</ele><time>2026-05-03T11:44:17.961Z</time></trkpt><trkpt lat="42.2790538" lon="14.0137474"><ele>94.0</ele><time>2026-05-03T11:44:18.962Z</time></trkpt><trkpt lat="42.2791985" lon="14.0138854"><ele>94.0</ele><time>2026-05-03T11:44:19.962Z</time></trkpt><trkpt lat="42.2793425" lon="14.0140234"><ele>94.0</ele><time>2026-05-03T11:44:20.962Z</time></trkpt><trkpt lat="42.2794873" lon="14.0141615"><ele>94.0</ele><time>2026-05-03T11:44:21.961Z</time></trkpt><trkpt lat="42.2796328" lon="14.0142993"><ele>93.33333333333333</ele><time>2026-05-03T11:44:22.961Z</time></trkpt><trkpt lat="42.279777" lon="14.0144378"><ele>92.66666666666667</ele><time>2026-05-03T11:44:23.961Z</time></trkpt><trkpt lat="42.2799195" lon="14.014573"><ele>92.0</ele><time>2026-05-03T11:44:24.962Z</time></trkpt><trkpt lat="42.2800571" lon="14.0147011"><ele>92.0</ele><time>2026-05-03T11:44:25.962Z</time></trkpt><trkpt lat="42.2801885" lon="14.014822"><ele>92.0</ele><time>2026-05-03T11:44:26.961Z</time></trkpt><trkpt lat="42.2803144" lon="14.014939"><ele>92.0</ele><time>2026-05-03T11:44:27.961Z</time></trkpt><trkpt lat="42.280435" lon="14.0150507"><ele>92.0</ele><time>2026-05-03T11:44:28.962Z</time></trkpt><trkpt lat="42.2805485" lon="14.0151382"><ele>92.0</ele><time>2026-05-03T11:44:29.962Z</time></trkpt><trkpt lat="42.2806531" lon="14.0151979"><ele>92.0</ele><time>2026-05-03T11:44:30.962Z</time></trkpt><trkpt lat="42.2807514" lon="14.0152238"><ele>92.0</ele><time>2026-05-03T11:44:31.962Z</time></trkpt><trkpt lat="42.2808494" lon="14.0152163"><ele>92.0</ele><time>2026-05-03T11:44:32.962Z</time></trkpt><trkpt lat="42.280953" lon="14.0151811"><ele>92.0</ele><time>2026-05-03T11:44:33.961Z</time></trkpt><trkpt lat="42.2810656" lon="14.0151203"><ele>92.0</ele><time>2026-05-03T11:44:34.962Z</time></trkpt><trkpt lat="42.2811918" lon="14.0150353"><ele>92.0</ele><time>2026-05-03T11:44:35.961Z</time></trkpt><trkpt lat="42.2813257" lon="14.014938"><ele>92.0</ele><time>2026-05-03T11:44:36.962Z</time></trkpt><trkpt lat="42.2814675" lon="14.0148335"><ele>92.0</ele><time>2026-05-03T11:44:37.962Z</time></trkpt><trkpt lat="42.2816119" lon="14.0147295"><ele>92.0</ele><time>2026-05-03T11:44:38.962Z</time></trkpt><trkpt lat="42.281763" lon="14.014623"><ele>92.0</ele><time>2026-05-03T11:44:39.962Z</time></trkpt><trkpt lat="42.2819188" lon="14.014512"><ele>92.0</ele><time>2026-05-03T11:44:40.962Z</time></trkpt><trkpt lat="42.2820776" lon="14.0143994"><ele>92.0</ele><time>2026-05-03T11:44:41.962Z</time></trkpt><trkpt lat="42.2822305" lon="14.0142896"><ele>92.0</ele><time>2026-05-03T11:44:42.961Z</time></trkpt><trkpt lat="42.2823826" lon="14.0141808"><ele>91.66666666666667</ele><time>2026-05-03T11:44:43.962Z</time></trkpt><trkpt lat="42.2825331" lon="14.0140728"><ele>91.33333333333333</ele><time>2026-05-03T11:44:44.962Z</time></trkpt><trkpt lat="42.2826812" lon="14.0139681"><ele>91.0</ele><time>2026-05-03T11:44:45.962Z</time></trkpt><trkpt lat="42.2828284" lon="14.0138644"><ele>91.0</ele><time>2026-05-03T11:44:46.962Z</time></trkpt><trkpt lat="42.282973" lon="14.0137637"><ele>91.0</ele><time>2026-05-03T11:44:47.961Z</time></trkpt><trkpt lat="42.2831111" lon="14.013667"><ele>91.0</ele><time>2026-05-03T11:44:48.962Z</time></trkpt><trkpt lat="42.2832486" lon="14.0135647"><ele>91.33333333333333</ele><time>2026-05-03T11:44:49.962Z</time></trkpt><trkpt lat="42.2833867" lon="14.0134578"><ele>91.66666666666667</ele><time>2026-05-03T11:44:50.961Z</time></trkpt><trkpt lat="42.2835257" lon="14.0133537"><ele>92.0</ele><time>2026-05-03T11:44:51.961Z</time></trkpt><trkpt lat="42.2836698" lon="14.0132566"><ele>92.0</ele><time>2026-05-03T11:44:52.961Z</time></trkpt><trkpt lat="42.2838108" lon="14.0131582"><ele>92.0</ele><time>2026-05-03T11:44:53.961Z</time></trkpt><trkpt lat="42.2839426" lon="14.0130672"><ele>92.0</ele><time>2026-05-03T11:44:54.961Z</time></trkpt><trkpt lat="42.2840658" lon="14.0129765"><ele>92.0</ele><time>2026-05-03T11:44:55.962Z</time></trkpt><trkpt lat="42.2841787" lon="14.0128821"><ele>92.0</ele><time>2026-05-03T11:44:56.962Z</time></trkpt><trkpt lat="42.284281" lon="14.0127793"><ele>92.0</ele><time>2026-05-03T11:44:57.962Z</time></trkpt><trkpt lat="42.284366" lon="14.0126802"><ele>92.0</ele><time>2026-05-03T11:44:58.962Z</time></trkpt><trkpt lat="42.2844377" lon="14.0126149"><ele>92.0</ele><time>2026-05-03T11:44:59.962Z</time></trkpt><trkpt lat="42.2845053" lon="14.0125808"><ele>92.0</ele><time>2026-05-03T11:45:00.962Z</time></trkpt><trkpt lat="42.2845726" lon="14.0125775"><ele>92.0</ele><time>2026-05-03T11:45:01.962Z</time></trkpt><trkpt lat="42.284645" lon="14.0126083"><ele>92.0</ele><time>2026-05-03T11:45:02.961Z</time></trkpt><trkpt lat="42.2847208" lon="14.0126732"><ele>92.0</ele><time>2026-05-03T11:45:03.962Z</time></trkpt><trkpt lat="42.2848173" lon="14.0127699"><ele>92.0</ele><time>2026-05-03T11:45:04.962Z</time></trkpt><trkpt lat="42.2849303" lon="14.0128795"><ele>92.0</ele><time>2026-05-03T11:45:05.962Z</time></trkpt><trkpt lat="42.2850433" lon="14.0129719"><ele>91.25</ele><time>2026-05-03T11:45:06.962Z</time></trkpt><trkpt lat="42.2851475" lon="14.0130648"><ele>90.5</ele><time>2026-05-03T11:45:07.962Z</time></trkpt><trkpt lat="42.2852332" lon="14.0131739"><ele>89.75</ele><time>2026-05-03T11:45:08.962Z</time></trkpt><trkpt lat="42.2852952" lon="14.0133019"><ele>89.0</ele><time>2026-05-03T11:45:09.962Z</time></trkpt><trkpt lat="42.2853365" lon="14.0134438"><ele>89.0</ele><time>2026-05-03T11:45:10.962Z</time></trkpt><trkpt lat="42.2853524" lon="14.0136002"><ele>89.0</ele><time>2026-05-03T11:45:11.961Z</time></trkpt><trkpt lat="42.2853511" lon="14.0137896"><ele>89.0</ele><time>2026-05-03T11:45:12.961Z</time></trkpt><trkpt lat="42.2853474" lon="14.0139945"><ele>89.0</ele><time>2026-05-03T11:45:13.962Z</time></trkpt><trkpt lat="42.2853551" lon="14.0142046"><ele>88.33333333333334</ele><time>2026-05-03T11:45:14.962Z</time></trkpt><trkpt lat="42.2853743" lon="14.0144284"><ele>87.66666666666667</ele><time>2026-05-03T11:45:15.962Z</time></trkpt><trkpt lat="42.2854" lon="14.0146507"><ele>87.0</ele><time>2026-05-03T11:45:16.961Z</time></trkpt><trkpt lat="42.2854298" lon="14.0148601"><ele>86.33333333333333</ele><time>2026-05-03T11:45:17.962Z</time></trkpt><trkpt lat="42.2854594" lon="14.015061"><ele>85.66666666666666</ele><time>2026-05-03T11:45:18.961Z</time></trkpt><trkpt lat="42.2854889" lon="14.0152652"><ele>85.0</ele><time>2026-05-03T11:45:19.962Z</time></trkpt><trkpt lat="42.2855162" lon="14.0154658"><ele>85.0</ele><time>2026-05-03T11:45:20.961Z</time></trkpt><trkpt lat="42.2855456" lon="14.0156621"><ele>85.0</ele><time>2026-05-03T11:45:21.962Z</time></trkpt><trkpt lat="42.285577" lon="14.0158473"><ele>85.0</ele><time>2026-05-03T11:45:22.962Z</time></trkpt><trkpt lat="42.2856071" lon="14.0160251"><ele>85.0</ele><time>2026-05-03T11:45:23.961Z</time></trkpt><trkpt lat="42.2856386" lon="14.0161956"><ele>84.5</ele><time>2026-05-03T11:45:24.961Z</time></trkpt><trkpt lat="42.2856782" lon="14.0163639"><ele>84.0</ele><time>2026-05-03T11:45:25.961Z</time></trkpt><trkpt lat="42.2857281" lon="14.0165363"><ele>83.5</ele><time>2026-05-03T11:45:26.961Z</time></trkpt><trkpt lat="42.2857836" lon="14.0167104"><ele>83.0</ele><time>2026-05-03T11:45:27.962Z</time></trkpt><trkpt lat="42.2858421" lon="14.0168843"><ele>83.0</ele><time>2026-05-03T11:45:28.962Z</time></trkpt><trkpt lat="42.2859047" lon="14.0170553"><ele>83.0</ele><time>2026-05-03T11:45:29.962Z</time></trkpt><trkpt lat="42.2859671" lon="14.0172275"><ele>83.0</ele><time>2026-05-03T11:45:30.962Z</time></trkpt><trkpt lat="42.2860308" lon="14.0173981"><ele>83.0</ele><time>2026-05-03T11:45:31.962Z</time></trkpt><trkpt lat="42.2860935" lon="14.0175728"><ele>82.75</ele><time>2026-05-03T11:45:32.962Z</time></trkpt><trkpt lat="42.2861586" lon="14.0177484"><ele>82.5</ele><time>2026-05-03T11:45:33.962Z</time></trkpt><trkpt lat="42.2862194" lon="14.0179206"><ele>82.25</ele><time>2026-05-03T11:45:34.962Z</time></trkpt><trkpt lat="42.2862752" lon="14.0180865"><ele>82.0</ele><time>2026-05-03T11:45:35.962Z</time></trkpt><trkpt lat="42.2863322" lon="14.0182469"><ele>81.75</ele><time>2026-05-03T11:45:36.961Z</time></trkpt><trkpt lat="42.2863849" lon="14.0184021"><ele>81.5</ele><time>2026-05-03T11:45:37.962Z</time></trkpt><trkpt lat="42.2864298" lon="14.0185528"><ele>81.25</ele><time>2026-05-03T11:45:38.962Z</time></trkpt><trkpt lat="42.2864757" lon="14.0186971"><ele>81.0</ele><time>2026-05-03T11:45:39.962Z</time></trkpt><trkpt lat="42.2865286" lon="14.0188275"><ele>80.8</ele><time>2026-05-03T11:45:40.962Z</time></trkpt><trkpt lat="42.2865887" lon="14.0189242"><ele>80.6</ele><time>2026-05-03T11:45:41.962Z</time></trkpt><trkpt lat="42.2866599" lon="14.0189925"><ele>80.4</ele><time>2026-05-03T11:45:42.962Z</time></trkpt><trkpt lat="42.2867459" lon="14.0190306"><ele>80.2</ele><time>2026-05-03T11:45:43.961Z</time></trkpt><trkpt lat="42.2868457" lon="14.0190535"><ele>80.0</ele><time>2026-05-03T11:45:44.961Z</time></trkpt><trkpt lat="42.2869507" lon="14.0190863"><ele>80.0</ele><time>2026-05-03T11:45:45.962Z</time></trkpt><trkpt lat="42.2870582" lon="14.0191444"><ele>80.0</ele><time>2026-05-03T11:45:46.961Z</time></trkpt><trkpt lat="42.2871729" lon="14.0192232"><ele>80.0</ele><time>2026-05-03T11:45:47.961Z</time></trkpt><trkpt lat="42.2873002" lon="14.0193125"><ele>80.0</ele><time>2026-05-03T11:45:48.962Z</time></trkpt><trkpt lat="42.2874372" lon="14.0193986"><ele>80.0</ele><time>2026-05-03T11:45:49.962Z</time></trkpt><trkpt lat="42.2875889" lon="14.0194699"><ele>80.0</ele><time>2026-05-03T11:45:50.962Z</time></trkpt><trkpt lat="42.287752" lon="14.0195257"><ele>80.0</ele><time>2026-05-03T11:45:51.962Z</time></trkpt><trkpt lat="42.2879214" lon="14.0195705"><ele>80.0</ele><time>2026-05-03T11:45:52.962Z</time></trkpt><trkpt lat="42.2880924" lon="14.0196201"><ele>80.0</ele><time>2026-05-03T11:45:53.961Z</time></trkpt><trkpt lat="42.2882574" lon="14.0196996"><ele>80.0</ele><time>2026-05-03T11:45:54.961Z</time></trkpt><trkpt lat="42.288433" lon="14.0198048"><ele>80.33333333333334</ele><time>2026-05-03T11:45:55.962Z</time></trkpt><trkpt lat="42.2886126" lon="14.0199293"><ele>80.66666666666667</ele><time>2026-05-03T11:45:56.962Z</time></trkpt><trkpt lat="42.288788" lon="14.0200628"><ele>81.0</ele><time>2026-05-03T11:45:57.962Z</time></trkpt><trkpt lat="42.2889677" lon="14.0202149"><ele>80.33333333333333</ele><time>2026-05-03T11:45:58.962Z</time></trkpt><trkpt lat="42.2891439" lon="14.020389"><ele>79.66666666666666</ele><time>2026-05-03T11:45:59.961Z</time></trkpt><trkpt lat="42.2893105" lon="14.020583"><ele>79.0</ele><time>2026-05-03T11:46:00.962Z</time></trkpt><trkpt lat="42.2894681" lon="14.020776"><ele>79.0</ele><time>2026-05-03T11:46:01.961Z</time></trkpt><trkpt lat="42.2896204" lon="14.0209533"><ele>79.0</ele><time>2026-05-03T11:46:02.962Z</time></trkpt><trkpt lat="42.2897743" lon="14.0211268"><ele>79.0</ele><time>2026-05-03T11:46:03.962Z</time></trkpt><trkpt lat="42.2899356" lon="14.0212902"><ele>79.0</ele><time>2026-05-03T11:46:04.961Z</time></trkpt><trkpt lat="42.2901095" lon="14.0214433"><ele>79.0</ele><time>2026-05-03T11:46:05.962Z</time></trkpt><trkpt lat="42.2903008" lon="14.0215919"><ele>79.0</ele><time>2026-05-03T11:46:06.962Z</time></trkpt><trkpt lat="42.2905031" lon="14.0217428"><ele>77.5</ele><time>2026-05-03T11:46:07.962Z</time></trkpt><trkpt lat="42.2907079" lon="14.0218945"><ele>76.0</ele><time>2026-05-03T11:46:08.961Z</time></trkpt><trkpt lat="42.2909181" lon="14.0220494"><ele>76.0</ele><time>2026-05-03T11:46:09.961Z</time></trkpt><trkpt lat="42.2911308" lon="14.0222063"><ele>76.0</ele><time>2026-05-03T11:46:10.962Z</time></trkpt><trkpt lat="42.2913455" lon="14.0223673"><ele>76.0</ele><time>2026-05-03T11:46:11.962Z</time></trkpt><trkpt lat="42.2915602" lon="14.0225292"><ele>76.0</ele><time>2026-05-03T11:46:12.961Z</time></trkpt><trkpt lat="42.2917757" lon="14.0226898"><ele>76.0</ele><time>2026-05-03T11:46:13.961Z</time></trkpt><trkpt lat="42.2919931" lon="14.0228531"><ele>76.0</ele><time>2026-05-03T11:46:14.961Z</time></trkpt><trkpt lat="42.2922029" lon="14.023013"><ele>77.0</ele><time>2026-05-03T11:46:15.961Z</time></trkpt><trkpt lat="42.2924089" lon="14.023169"><ele>78.0</ele><time>2026-05-03T11:46:16.962Z</time></trkpt><trkpt lat="42.2926098" lon="14.0233203"><ele>77.0</ele><time>2026-05-03T11:46:17.961Z</time></trkpt><trkpt lat="42.2928053" lon="14.0234644"><ele>76.0</ele><time>2026-05-03T11:46:18.962Z</time></trkpt><trkpt lat="42.2929907" lon="14.0236043"><ele>75.0</ele><time>2026-05-03T11:46:19.961Z</time></trkpt><trkpt lat="42.2931804" lon="14.0237421"><ele>75.0</ele><time>2026-05-03T11:46:20.962Z</time></trkpt><trkpt lat="42.2933744" lon="14.0238795"><ele>75.0</ele><time>2026-05-03T11:46:21.962Z</time></trkpt><trkpt lat="42.2935715" lon="14.0240224"><ele>75.0</ele><time>2026-05-03T11:46:22.962Z</time></trkpt><trkpt lat="42.29377" lon="14.024169"><ele>75.0</ele><time>2026-05-03T11:46:23.961Z</time></trkpt><trkpt lat="42.2939677" lon="14.0243183"><ele>75.0</ele><time>2026-05-03T11:46:24.962Z</time></trkpt><trkpt lat="42.2941677" lon="14.0244689"><ele>75.0</ele><time>2026-05-03T11:46:25.962Z</time></trkpt><trkpt lat="42.2943679" lon="14.0246176"><ele>75.0</ele><time>2026-05-03T11:46:26.962Z</time></trkpt><trkpt lat="42.2945684" lon="14.0247662"><ele>75.0</ele><time>2026-05-03T11:46:27.961Z</time></trkpt><trkpt lat="42.2947744" lon="14.0249181"><ele>75.0</ele><time>2026-05-03T11:46:28.962Z</time></trkpt><trkpt lat="42.2949938" lon="14.0250797"><ele>74.0</ele><time>2026-05-03T11:46:29.961Z</time></trkpt><trkpt lat="42.2952286" lon="14.0252465"><ele>73.0</ele><time>2026-05-03T11:46:30.962Z</time></trkpt><trkpt lat="42.2954739" lon="14.0254232"><ele>73.0</ele><time>2026-05-03T11:46:31.962Z</time></trkpt><trkpt lat="42.2957249" lon="14.0256077"><ele>73.0</ele><time>2026-05-03T11:46:32.962Z</time></trkpt><trkpt lat="42.2959834" lon="14.025799"><ele>73.5</ele><time>2026-05-03T11:46:33.961Z</time></trkpt><trkpt lat="42.2962471" lon="14.0259941"><ele>74.0</ele><time>2026-05-03T11:46:34.962Z</time></trkpt><trkpt lat="42.2965093" lon="14.0261872"><ele>74.0</ele><time>2026-05-03T11:46:35.961Z</time></trkpt><trkpt lat="42.2967673" lon="14.0263843"><ele>74.0</ele><time>2026-05-03T11:46:36.962Z</time></trkpt><trkpt lat="42.2970223" lon="14.0265783"><ele>74.0</ele><time>2026-05-03T11:46:37.962Z</time></trkpt><trkpt lat="42.2972741" lon="14.0267727"><ele>74.0</ele><time>2026-05-03T11:46:38.962Z</time></trkpt><trkpt lat="42.2975252" lon="14.0269672"><ele>74.0</ele><time>2026-05-03T11:46:39.962Z</time></trkpt><trkpt lat="42.2977761" lon="14.0271583"><ele>74.0</ele><time>2026-05-03T11:46:40.962Z</time></trkpt><trkpt lat="42.2980248" lon="14.0273443"><ele>74.0</ele><time>2026-05-03T11:46:41.961Z</time></trkpt><trkpt lat="42.2982736" lon="14.0275269"><ele>74.0</ele><time>2026-05-03T11:46:42.962Z</time></trkpt><trkpt lat="42.2985228" lon="14.0277102"><ele>74.0</ele><time>2026-05-03T11:46:43.962Z</time></trkpt><trkpt lat="42.2987699" lon="14.0278922"><ele>74.0</ele><time>2026-05-03T11:46:44.962Z</time></trkpt><trkpt lat="42.2990142" lon="14.0280698"><ele>74.0</ele><time>2026-05-03T11:46:45.962Z</time></trkpt><trkpt lat="42.2992548" lon="14.0282454"><ele>74.0</ele><time>2026-05-03T11:46:46.961Z</time></trkpt><trkpt lat="42.2994931" lon="14.0284195"><ele>73.5</ele><time>2026-05-03T11:46:47.962Z</time></trkpt><trkpt lat="42.2997293" lon="14.0285922"><ele>73.0</ele><time>2026-05-03T11:46:48.962Z</time></trkpt><trkpt lat="42.2999638" lon="14.0287655"><ele>74.5</ele><time>2026-05-03T11:46:49.962Z</time></trkpt><trkpt lat="42.3001951" lon="14.0289378"><ele>76.0</ele><time>2026-05-03T11:46:50.961Z</time></trkpt><trkpt lat="42.3004256" lon="14.02911"><ele>73.5</ele><time>2026-05-03T11:46:51.962Z</time></trkpt><trkpt lat="42.3006516" lon="14.0292787"><ele>71.0</ele><time>2026-05-03T11:46:52.961Z</time></trkpt><trkpt lat="42.3008602" lon="14.0294391"><ele>71.0</ele><time>2026-05-03T11:46:53.961Z</time></trkpt><trkpt lat="42.3010558" lon="14.0295928"><ele>71.0</ele><time>2026-05-03T11:46:54.961Z</time></trkpt><trkpt lat="42.301248" lon="14.02974"><ele>71.0</ele><time>2026-05-03T11:46:55.962Z</time></trkpt><trkpt lat="42.3014356" lon="14.0298805"><ele>73.0</ele><time>2026-05-03T11:46:56.961Z</time></trkpt><trkpt lat="42.3016129" lon="14.0300099"><ele>75.0</ele><time>2026-05-03T11:46:57.962Z</time></trkpt><trkpt lat="42.3017813" lon="14.0301348"><ele>77.0</ele><time>2026-05-03T11:46:58.962Z</time></trkpt><trkpt lat="42.3019343" lon="14.0302676"><ele>77.0</ele><time>2026-05-03T11:46:59.962Z</time></trkpt><trkpt lat="42.3020763" lon="14.0304228"><ele>77.0</ele><time>2026-05-03T11:47:00.962Z</time></trkpt><trkpt lat="42.3022143" lon="14.030598"><ele>77.0</ele><time>2026-05-03T11:47:01.961Z</time></trkpt><trkpt lat="42.3023645" lon="14.0307817"><ele>78.0</ele><time>2026-05-03T11:47:02.962Z</time></trkpt><trkpt lat="42.3025265" lon="14.0309652"><ele>79.0</ele><time>2026-05-03T11:47:03.961Z</time></trkpt><trkpt lat="42.3026949" lon="14.0311431"><ele>80.0</ele><time>2026-05-03T11:47:04.962Z</time></trkpt><trkpt lat="42.3028652" lon="14.0313107"><ele>80.0</ele><time>2026-05-03T11:47:05.962Z</time></trkpt><trkpt lat="42.3030366" lon="14.0314726"><ele>80.0</ele><time>2026-05-03T11:47:06.961Z</time></trkpt><trkpt lat="42.3032068" lon="14.0316348"><ele>80.0</ele><time>2026-05-03T11:47:07.962Z</time></trkpt><trkpt lat="42.303376" lon="14.0317984"><ele>79.66666666666667</ele><time>2026-05-03T11:47:08.962Z</time></trkpt><trkpt lat="42.3035462" lon="14.0319618"><ele>79.33333333333333</ele><time>2026-05-03T11:47:09.962Z</time></trkpt><trkpt lat="42.3037141" lon="14.032127"><ele>79.0</ele><time>2026-05-03T11:47:10.962Z</time></trkpt><trkpt lat="42.3038848" lon="14.0322889"><ele>78.66666666666666</ele><time>2026-05-03T11:47:11.962Z</time></trkpt><trkpt lat="42.3040596" lon="14.0324395"><ele>78.33333333333333</ele><time>2026-05-03T11:47:12.962Z</time></trkpt><trkpt lat="42.3042424" lon="14.0325727"><ele>78.0</ele><time>2026-05-03T11:47:13.962Z</time></trkpt><trkpt lat="42.3044345" lon="14.032684"><ele>78.0</ele><time>2026-05-03T11:47:14.962Z</time></trkpt><trkpt lat="42.3046314" lon="14.0327769"><ele>78.0</ele><time>2026-05-03T11:47:15.962Z</time></trkpt><trkpt lat="42.304831" lon="14.0328522"><ele>78.0</ele><time>2026-05-03T11:47:16.961Z</time></trkpt><trkpt lat="42.3050219" lon="14.0329161"><ele>78.66666666666667</ele><time>2026-05-03T11:47:17.962Z</time></trkpt><trkpt lat="42.3052055" lon="14.0329781"><ele>79.33333333333334</ele><time>2026-05-03T11:47:18.962Z</time></trkpt><trkpt lat="42.3053786" lon="14.0330409"><ele>80.0</ele><time>2026-05-03T11:47:19.962Z</time></trkpt><trkpt lat="42.3055394" lon="14.033113"><ele>79.75</ele><time>2026-05-03T11:47:20.961Z</time></trkpt><trkpt lat="42.3056598" lon="14.0331761"><ele>79.5</ele><time>2026-05-03T11:47:21.962Z</time></trkpt><trkpt lat="42.3057533" lon="14.0332386"><ele>79.25</ele><time>2026-05-03T11:47:22.962Z</time></trkpt><trkpt lat="42.3058436" lon="14.0333329"><ele>79.0</ele><time>2026-05-03T11:47:23.962Z</time></trkpt><trkpt lat="42.3059366" lon="14.033452"><ele>79.0</ele><time>2026-05-03T11:47:24.961Z</time></trkpt><trkpt lat="42.306043" lon="14.0335797"><ele>79.0</ele><time>2026-05-03T11:47:25.962Z</time></trkpt><trkpt lat="42.3061601" lon="14.0337196"><ele>79.0</ele><time>2026-05-03T11:47:26.962Z</time></trkpt><trkpt lat="42.3062826" lon="14.0338748"><ele>79.0</ele><time>2026-05-03T11:47:27.961Z</time></trkpt><trkpt lat="42.3064113" lon="14.0340343"><ele>79.0</ele><time>2026-05-03T11:47:28.961Z</time></trkpt><trkpt lat="42.3065457" lon="14.0341948"><ele>79.0</ele><time>2026-05-03T11:47:29.961Z</time></trkpt><trkpt lat="42.306682" lon="14.0343621"><ele>79.0</ele><time>2026-05-03T11:47:30.962Z</time></trkpt><trkpt lat="42.3068201" lon="14.0345359"><ele>79.0</ele><time>2026-05-03T11:47:31.962Z</time></trkpt><trkpt lat="42.3069559" lon="14.0347155"><ele>79.0</ele><time>2026-05-03T11:47:32.962Z</time></trkpt><trkpt lat="42.3070872" lon="14.0349032"><ele>78.33333333333333</ele><time>2026-05-03T11:47:33.962Z</time></trkpt><trkpt lat="42.3072078" lon="14.0351063"><ele>77.66666666666667</ele><time>2026-05-03T11:47:34.962Z</time></trkpt><trkpt lat="42.3073115" lon="14.0353278"><ele>77.0</ele><time>2026-05-03T11:47:35.962Z</time></trkpt><trkpt lat="42.3073982" lon="14.035565"><ele>78.66666666666667</ele><time>2026-05-03T11:47:36.962Z</time></trkpt><trkpt lat="42.307474" lon="14.0358084"><ele>80.33333333333333</ele><time>2026-05-03T11:47:37.962Z</time></trkpt><trkpt lat="42.3075393" lon="14.0360599"><ele>82.0</ele><time>2026-05-03T11:47:38.961Z</time></trkpt><trkpt lat="42.3075994" lon="14.0363132"><ele>82.0</ele><time>2026-05-03T11:47:39.961Z</time></trkpt><trkpt lat="42.3076637" lon="14.0365656"><ele>82.0</ele><time>2026-05-03T11:47:40.962Z</time></trkpt><trkpt lat="42.3077288" lon="14.0368131"><ele>82.0</ele><time>2026-05-03T11:47:41.961Z</time></trkpt><trkpt lat="42.3077949" lon="14.0370462"><ele>80.66666666666666</ele><time>2026-05-03T11:47:42.961Z</time></trkpt><trkpt lat="42.3078719" lon="14.037264"><ele>79.33333333333333</ele><time>2026-05-03T11:47:43.961Z</time></trkpt><trkpt lat="42.3079686" lon="14.0374774"><ele>78.0</ele><time>2026-05-03T11:47:44.962Z</time></trkpt><trkpt lat="42.3080879" lon="14.0376848"><ele>78.0</ele><time>2026-05-03T11:47:45.962Z</time></trkpt><trkpt lat="42.3082245" lon="14.0378863"><ele>78.0</ele><time>2026-05-03T11:47:46.962Z</time></trkpt><trkpt lat="42.3083657" lon="14.0380963"><ele>78.0</ele><time>2026-05-03T11:47:47.962Z</time></trkpt><trkpt lat="42.3084953" lon="14.0383306"><ele>75.0</ele><time>2026-05-03T11:47:48.962Z</time></trkpt><trkpt lat="42.3086241" lon="14.0385764"><ele>72.0</ele><time>2026-05-03T11:47:49.962Z</time></trkpt><trkpt lat="42.3087568" lon="14.0388289"><ele>72.0</ele><time>2026-05-03T11:47:50.961Z</time></trkpt><trkpt lat="42.3088864" lon="14.0390865"><ele>72.0</ele><time>2026-05-03T11:47:51.961Z</time></trkpt><trkpt lat="42.3090095" lon="14.0393409"><ele>72.33333333333333</ele><time>2026-05-03T11:47:52.961Z</time></trkpt><trkpt lat="42.3091306" lon="14.0395969"><ele>72.66666666666666</ele><time>2026-05-03T11:47:53.961Z</time></trkpt><trkpt lat="42.3092492" lon="14.0398493"><ele>73.0</ele><time>2026-05-03T11:47:54.961Z</time></trkpt><trkpt lat="42.3093728" lon="14.0400913"><ele>72.33333333333333</ele><time>2026-05-03T11:47:55.962Z</time></trkpt><trkpt lat="42.309511" lon="14.0403217"><ele>71.66666666666667</ele><time>2026-05-03T11:47:56.962Z</time></trkpt><trkpt lat="42.3096588" lon="14.0405354"><ele>71.0</ele><time>2026-05-03T11:47:57.962Z</time></trkpt><trkpt lat="42.3098132" lon="14.0407407"><ele>69.0</ele><time>2026-05-03T11:47:58.961Z</time></trkpt><trkpt lat="42.3099731" lon="14.0409432"><ele>67.0</ele><time>2026-05-03T11:47:59.962Z</time></trkpt><trkpt lat="42.3101335" lon="14.0411461"><ele>65.0</ele><time>2026-05-03T11:48:00.961Z</time></trkpt><trkpt lat="42.3102943" lon="14.0413472"><ele>65.0</ele><time>2026-05-03T11:48:01.962Z</time></trkpt><trkpt lat="42.310455" lon="14.0415474"><ele>65.0</ele><time>2026-05-03T11:48:02.962Z</time></trkpt><trkpt lat="42.3106103" lon="14.0417346"><ele>65.0</ele><time>2026-05-03T11:48:03.961Z</time></trkpt><trkpt lat="42.3107588" lon="14.0419222"><ele>64.66666666666667</ele><time>2026-05-03T11:48:04.961Z</time></trkpt><trkpt lat="42.3108987" lon="14.0421256"><ele>64.33333333333333</ele><time>2026-05-03T11:48:05.962Z</time></trkpt><trkpt lat="42.3110232" lon="14.0423503"><ele>64.0</ele><time>2026-05-03T11:48:06.961Z</time></trkpt><trkpt lat="42.3111358" lon="14.0425896"><ele>64.0</ele><time>2026-05-03T11:48:07.962Z</time></trkpt><trkpt lat="42.3112438" lon="14.0428376"><ele>64.0</ele><time>2026-05-03T11:48:08.962Z</time></trkpt><trkpt lat="42.3113505" lon="14.0430882"><ele>64.0</ele><time>2026-05-03T11:48:09.961Z</time></trkpt><trkpt lat="42.3114565" lon="14.0433378"><ele>65.66666666666666</ele><time>2026-05-03T11:48:10.961Z</time></trkpt><trkpt lat="42.3115598" lon="14.0435888"><ele>67.33333333333333</ele><time>2026-05-03T11:48:11.961Z</time></trkpt><trkpt lat="42.3116627" lon="14.0438338"><ele>69.0</ele><time>2026-05-03T11:48:12.962Z</time></trkpt><trkpt lat="42.3117743" lon="14.0440777"><ele>67.66666666666667</ele><time>2026-05-03T11:48:13.962Z</time></trkpt><trkpt lat="42.3118951" lon="14.0443126"><ele>66.33333333333334</ele><time>2026-05-03T11:48:14.961Z</time></trkpt><trkpt lat="42.3120189" lon="14.0445302"><ele>65.0</ele><time>2026-05-03T11:48:15.961Z</time></trkpt><trkpt lat="42.3121376" lon="14.0447345"><ele>65.66666666666667</ele><time>2026-05-03T11:48:16.962Z</time></trkpt><trkpt lat="42.3122482" lon="14.0449306"><ele>66.33333333333333</ele><time>2026-05-03T11:48:17.962Z</time></trkpt><trkpt lat="42.3123592" lon="14.0451114"><ele>67.0</ele><time>2026-05-03T11:48:18.961Z</time></trkpt><trkpt lat="42.3124732" lon="14.0452764"><ele>67.0</ele><time>2026-05-03T11:48:19.962Z</time></trkpt><trkpt lat="42.3125992" lon="14.0454103"><ele>67.0</ele><time>2026-05-03T11:48:20.962Z</time></trkpt><trkpt lat="42.312746" lon="14.045515"><ele>67.0</ele><time>2026-05-03T11:48:21.962Z</time></trkpt><trkpt lat="42.3129096" lon="14.045588"><ele>65.66666666666666</ele><time>2026-05-03T11:48:22.962Z</time></trkpt><trkpt lat="42.3130801" lon="14.0456431"><ele>64.33333333333333</ele><time>2026-05-03T11:48:23.961Z</time></trkpt><trkpt lat="42.3132445" lon="14.0457082"><ele>63.0</ele><time>2026-05-03T11:48:24.962Z</time></trkpt><trkpt lat="42.3133895" lon="14.045806"><ele>63.0</ele><time>2026-05-03T11:48:25.961Z</time></trkpt><trkpt lat="42.3135116" lon="14.0459364"><ele>63.0</ele><time>2026-05-03T11:48:26.962Z</time></trkpt><trkpt lat="42.3136106" lon="14.0460852"><ele>63.0</ele><time>2026-05-03T11:48:27.962Z</time></trkpt><trkpt lat="42.3136977" lon="14.0462514"><ele>63.0</ele><time>2026-05-03T11:48:28.961Z</time></trkpt><trkpt lat="42.3137747" lon="14.0464255"><ele>63.0</ele><time>2026-05-03T11:48:29.961Z</time></trkpt><trkpt lat="42.3138457" lon="14.0465918"><ele>63.0</ele><time>2026-05-03T11:48:30.961Z</time></trkpt><trkpt lat="42.3139167" lon="14.0467577"><ele>63.0</ele><time>2026-05-03T11:48:31.961Z</time></trkpt><trkpt lat="42.3139892" lon="14.0469216"><ele>63.25</ele><time>2026-05-03T11:48:32.962Z</time></trkpt><trkpt lat="42.3140641" lon="14.0470877"><ele>63.5</ele><time>2026-05-03T11:48:33.961Z</time></trkpt><trkpt lat="42.3141409" lon="14.0472574"><ele>63.75</ele><time>2026-05-03T11:48:34.961Z</time></trkpt><trkpt lat="42.3142198" lon="14.0474353"><ele>64.0</ele><time>2026-05-03T11:48:35.962Z</time></trkpt><trkpt lat="42.3143016" lon="14.047625"><ele>63.0</ele><time>2026-05-03T11:48:36.962Z</time></trkpt><trkpt lat="42.3143889" lon="14.0478253"><ele>62.0</ele><time>2026-05-03T11:48:37.962Z</time></trkpt><trkpt lat="42.3144872" lon="14.04804"><ele>61.0</ele><time>2026-05-03T11:48:38.961Z</time></trkpt><trkpt lat="42.3145893" lon="14.0482664"><ele>60.33333333333333</ele><time>2026-05-03T11:48:39.962Z</time></trkpt><trkpt lat="42.3146951" lon="14.0485028"><ele>59.66666666666667</ele><time>2026-05-03T11:48:40.962Z</time></trkpt><trkpt lat="42.3148028" lon="14.0487449"><ele>59.0</ele><time>2026-05-03T11:48:41.961Z</time></trkpt><trkpt lat="42.3149145" lon="14.0489924"><ele>59.0</ele><time>2026-05-03T11:48:42.962Z</time></trkpt><trkpt lat="42.3150271" lon="14.049245"><ele>59.0</ele><time>2026-05-03T11:48:43.962Z</time></trkpt><trkpt lat="42.3151396" lon="14.0495022"><ele>59.0</ele><time>2026-05-03T11:48:44.962Z</time></trkpt><trkpt lat="42.315253" lon="14.0497611"><ele>59.0</ele><time>2026-05-03T11:48:45.961Z</time></trkpt><trkpt lat="42.3153677" lon="14.0500216"><ele>59.0</ele><time>2026-05-03T11:48:46.962Z</time></trkpt><trkpt lat="42.3154836" lon="14.0502837"><ele>59.0</ele><time>2026-05-03T11:48:47.962Z</time></trkpt><trkpt lat="42.3155995" lon="14.0505461"><ele>59.0</ele><time>2026-05-03T11:48:48.962Z</time></trkpt><trkpt lat="42.315716" lon="14.0508107"><ele>59.0</ele><time>2026-05-03T11:48:49.961Z</time></trkpt><trkpt lat="42.3158316" lon="14.0510754"><ele>59.0</ele><time>2026-05-03T11:48:50.962Z</time></trkpt><trkpt lat="42.3159504" lon="14.0513385"><ele>59.0</ele><time>2026-05-03T11:48:51.962Z</time></trkpt><trkpt lat="42.3160845" lon="14.051587"><ele>59.0</ele><time>2026-05-03T11:48:52.961Z</time></trkpt><trkpt lat="42.3162362" lon="14.0518162"><ele>58.0</ele><time>2026-05-03T11:48:53.962Z</time></trkpt><trkpt lat="42.3164016" lon="14.0520283"><ele>57.0</ele><time>2026-05-03T11:48:54.962Z</time></trkpt><trkpt lat="42.3165763" lon="14.0522327"><ele>57.5</ele><time>2026-05-03T11:48:55.961Z</time></trkpt><trkpt lat="42.3167538" lon="14.0524346"><ele>58.0</ele><time>2026-05-03T11:48:56.961Z</time></trkpt><trkpt lat="42.3169337" lon="14.0526362"><ele>58.0</ele><time>2026-05-03T11:48:57.962Z</time></trkpt><trkpt lat="42.3171142" lon="14.0528369"><ele>58.0</ele><time>2026-05-03T11:48:58.962Z</time></trkpt><trkpt lat="42.3172939" lon="14.0530404"><ele>58.5</ele><time>2026-05-03T11:48:59.961Z</time></trkpt><trkpt lat="42.3174737" lon="14.0532429"><ele>59.0</ele><time>2026-05-03T11:49:00.961Z</time></trkpt><trkpt lat="42.3176539" lon="14.0534469"><ele>59.0</ele><time>2026-05-03T11:49:01.961Z</time></trkpt><trkpt lat="42.3178365" lon="14.0536502"><ele>59.0</ele><time>2026-05-03T11:49:02.962Z</time></trkpt><trkpt lat="42.3182144" lon="14.0540718"><ele>57.0</ele><time>2026-05-03T11:49:05.027Z</time></trkpt><trkpt lat="42.318568" lon="14.0544577"><ele>57.0</ele><time>2026-05-03T11:49:06.964Z</time></trkpt><trkpt lat="42.3187479" lon="14.0546582"><ele>57.0</ele><time>2026-05-03T11:49:07.963Z</time></trkpt><trkpt lat="42.3189262" lon="14.0548582"><ele>57.0</ele><time>2026-05-03T11:49:08.964Z</time></trkpt><trkpt lat="42.319104" lon="14.0550541"><ele>57.0</ele><time>2026-05-03T11:49:09.964Z</time></trkpt><trkpt lat="42.3192785" lon="14.0552479"><ele>57.0</ele><time>2026-05-03T11:49:10.964Z</time></trkpt><trkpt lat="42.3194457" lon="14.0554387"><ele>57.0</ele><time>2026-05-03T11:49:11.963Z</time></trkpt><trkpt lat="42.3195996" lon="14.0556255"><ele>57.0</ele><time>2026-05-03T11:49:12.964Z</time></trkpt><trkpt lat="42.3197384" lon="14.0558154"><ele>57.66666666666667</ele><time>2026-05-03T11:49:13.963Z</time></trkpt><trkpt lat="42.319867" lon="14.05602"><ele>58.333333333333336</ele><time>2026-05-03T11:49:14.964Z</time></trkpt><trkpt lat="42.3199865" lon="14.0562394"><ele>59.0</ele><time>2026-05-03T11:49:15.963Z</time></trkpt><trkpt lat="42.3200991" lon="14.0564788"><ele>58.333333333333336</ele><time>2026-05-03T11:49:16.963Z</time></trkpt><trkpt lat="42.3202045" lon="14.0567339"><ele>57.66666666666667</ele><time>2026-05-03T11:49:17.963Z</time></trkpt><trkpt lat="42.3203089" lon="14.0569984"><ele>57.0</ele><time>2026-05-03T11:49:18.964Z</time></trkpt><trkpt lat="42.3204165" lon="14.0572702"><ele>56.0</ele><time>2026-05-03T11:49:19.964Z</time></trkpt><trkpt lat="42.3205274" lon="14.0575395"><ele>55.0</ele><time>2026-05-03T11:49:20.963Z</time></trkpt><trkpt lat="42.3206393" lon="14.057808"><ele>56.5</ele><time>2026-05-03T11:49:21.963Z</time></trkpt><trkpt lat="42.320749" lon="14.0580804"><ele>58.0</ele><time>2026-05-03T11:49:22.963Z</time></trkpt><trkpt lat="42.3208563" lon="14.058357"><ele>58.0</ele><time>2026-05-03T11:49:23.964Z</time></trkpt><trkpt lat="42.3209649" lon="14.0586321"><ele>58.0</ele><time>2026-05-03T11:49:24.964Z</time></trkpt><trkpt lat="42.3210701" lon="14.0588937"><ele>57.33333333333333</ele><time>2026-05-03T11:49:25.964Z</time></trkpt><trkpt lat="42.3211719" lon="14.0591388"><ele>56.66666666666667</ele><time>2026-05-03T11:49:26.964Z</time></trkpt><trkpt lat="42.3212776" lon="14.05937"><ele>56.0</ele><time>2026-05-03T11:49:27.963Z</time></trkpt><trkpt lat="42.3214066" lon="14.0595913"><ele>57.0</ele><time>2026-05-03T11:49:28.963Z</time></trkpt><trkpt lat="42.3215612" lon="14.0597905"><ele>58.0</ele><time>2026-05-03T11:49:29.964Z</time></trkpt><trkpt lat="42.3217412" lon="14.0599783"><ele>59.0</ele><time>2026-05-03T11:49:30.964Z</time></trkpt><trkpt lat="42.3219362" lon="14.0601613"><ele>59.0</ele><time>2026-05-03T11:49:31.963Z</time></trkpt><trkpt lat="42.3221402" lon="14.0603399"><ele>59.0</ele><time>2026-05-03T11:49:32.964Z</time></trkpt><trkpt lat="42.3223486" lon="14.0605121"><ele>57.5</ele><time>2026-05-03T11:49:33.964Z</time></trkpt><trkpt lat="42.3225574" lon="14.0606816"><ele>56.0</ele><time>2026-05-03T11:49:34.963Z</time></trkpt><trkpt lat="42.3227659" lon="14.0608523"><ele>56.0</ele><time>2026-05-03T11:49:35.964Z</time></trkpt><trkpt lat="42.3229727" lon="14.0610228"><ele>56.0</ele><time>2026-05-03T11:49:36.964Z</time></trkpt><trkpt lat="42.3231725" lon="14.0611823"><ele>55.66666666666667</ele><time>2026-05-03T11:49:37.964Z</time></trkpt><trkpt lat="42.3233592" lon="14.0613354"><ele>55.33333333333333</ele><time>2026-05-03T11:49:38.964Z</time></trkpt><trkpt lat="42.3235318" lon="14.0614875"><ele>55.0</ele><time>2026-05-03T11:49:39.963Z</time></trkpt><trkpt lat="42.3236904" lon="14.0616382"><ele>55.0</ele><time>2026-05-03T11:49:40.964Z</time></trkpt><trkpt lat="42.3238352" lon="14.0617973"><ele>55.0</ele><time>2026-05-03T11:49:41.964Z</time></trkpt><trkpt lat="42.3239789" lon="14.0619742"><ele>55.0</ele><time>2026-05-03T11:49:42.964Z</time></trkpt><trkpt lat="42.3241056" lon="14.0621941"><ele>55.0</ele><time>2026-05-03T11:49:43.964Z</time></trkpt><trkpt lat="42.3242274" lon="14.0624436"><ele>55.0</ele><time>2026-05-03T11:49:44.964Z</time></trkpt><trkpt lat="42.3243624" lon="14.0626887"><ele>55.0</ele><time>2026-05-03T11:49:45.963Z</time></trkpt><trkpt lat="42.3244992" lon="14.0629448"><ele>55.0</ele><time>2026-05-03T11:49:46.964Z</time></trkpt><trkpt lat="42.3246405" lon="14.0632087"><ele>55.0</ele><time>2026-05-03T11:49:47.964Z</time></trkpt><trkpt lat="42.3247826" lon="14.0634788"><ele>55.0</ele><time>2026-05-03T11:49:48.963Z</time></trkpt><trkpt lat="42.3249277" lon="14.0637512"><ele>55.0</ele><time>2026-05-03T11:49:49.964Z</time></trkpt><trkpt lat="42.3250737" lon="14.0640236"><ele>55.0</ele><time>2026-05-03T11:49:50.964Z</time></trkpt><trkpt lat="42.3252225" lon="14.0642944"><ele>55.0</ele><time>2026-05-03T11:49:51.964Z</time></trkpt><trkpt lat="42.3253769" lon="14.0645553"><ele>55.0</ele><time>2026-05-03T11:49:52.964Z</time></trkpt><trkpt lat="42.3255398" lon="14.0648083"><ele>55.0</ele><time>2026-05-03T11:49:53.964Z</time></trkpt><trkpt lat="42.3257064" lon="14.0650545"><ele>57.0</ele><time>2026-05-03T11:49:54.963Z</time></trkpt><trkpt lat="42.3258751" lon="14.065299"><ele>59.0</ele><time>2026-05-03T11:49:55.964Z</time></trkpt><trkpt lat="42.3260434" lon="14.065543"><ele>55.0</ele><time>2026-05-03T11:49:56.963Z</time></trkpt><trkpt lat="42.326209" lon="14.0657899"><ele>51.0</ele><time>2026-05-03T11:49:57.963Z</time></trkpt><trkpt lat="42.3263754" lon="14.0660376"><ele>53.5</ele><time>2026-05-03T11:49:58.963Z</time></trkpt><trkpt lat="42.3265421" lon="14.066284"><ele>56.0</ele><time>2026-05-03T11:49:59.964Z</time></trkpt><trkpt lat="42.3267105" lon="14.066532"><ele>54.0</ele><time>2026-05-03T11:50:00.964Z</time></trkpt><trkpt lat="42.3268798" lon="14.0667768"><ele>52.0</ele><time>2026-05-03T11:50:01.964Z</time></trkpt><trkpt lat="42.3270491" lon="14.0670203"><ele>52.0</ele><time>2026-05-03T11:50:02.964Z</time></trkpt><trkpt lat="42.3272196" lon="14.067263"><ele>52.0</ele><time>2026-05-03T11:50:03.964Z</time></trkpt><trkpt lat="42.3273899" lon="14.0675034"><ele>51.0</ele><time>2026-05-03T11:50:04.963Z</time></trkpt><trkpt lat="42.3275619" lon="14.0677445"><ele>50.0</ele><time>2026-05-03T11:50:05.963Z</time></trkpt><trkpt lat="42.3277329" lon="14.0679886"><ele>50.0</ele><time>2026-05-03T11:50:06.964Z</time></trkpt><trkpt lat="42.327904" lon="14.0682375"><ele>50.0</ele><time>2026-05-03T11:50:07.963Z</time></trkpt><trkpt lat="42.328076" lon="14.0684864"><ele>50.5</ele><time>2026-05-03T11:50:08.964Z</time></trkpt><trkpt lat="42.3282494" lon="14.0687353"><ele>51.0</ele><time>2026-05-03T11:50:09.963Z</time></trkpt><trkpt lat="42.3284252" lon="14.0689866"><ele>50.0</ele><time>2026-05-03T11:50:10.964Z</time></trkpt><trkpt lat="42.3286019" lon="14.0692407"><ele>49.0</ele><time>2026-05-03T11:50:11.964Z</time></trkpt><trkpt lat="42.328781" lon="14.0695005"><ele>49.5</ele><time>2026-05-03T11:50:12.963Z</time></trkpt><trkpt lat="42.3289648" lon="14.0697667"><ele>50.0</ele><time>2026-05-03T11:50:13.964Z</time></trkpt><trkpt lat="42.3291532" lon="14.0700397"><ele>48.5</ele><time>2026-05-03T11:50:14.964Z</time></trkpt><trkpt lat="42.3293437" lon="14.0703164"><ele>47.0</ele><time>2026-05-03T11:50:15.964Z</time></trkpt><trkpt lat="42.3295388" lon="14.070596"><ele>51.0</ele><time>2026-05-03T11:50:16.964Z</time></trkpt><trkpt lat="42.3297423" lon="14.0708906"><ele>55.0</ele><time>2026-05-03T11:50:17.963Z</time></trkpt><trkpt lat="42.3299493" lon="14.0711924"><ele>55.0</ele><time>2026-05-03T11:50:18.963Z</time></trkpt><trkpt lat="42.3301593" lon="14.0714953"><ele>55.0</ele><time>2026-05-03T11:50:19.963Z</time></trkpt><trkpt lat="42.3303664" lon="14.0717937"><ele>57.5</ele><time>2026-05-03T11:50:20.963Z</time></trkpt><trkpt lat="42.3305696" lon="14.0720874"><ele>60.0</ele><time>2026-05-03T11:50:21.964Z</time></trkpt><trkpt lat="42.3307691" lon="14.0723789"><ele>55.5</ele><time>2026-05-03T11:50:22.964Z</time></trkpt><trkpt lat="42.3309656" lon="14.0726675"><ele>51.0</ele><time>2026-05-03T11:50:23.964Z</time></trkpt><trkpt lat="42.3311613" lon="14.072953"><ele>51.0</ele><time>2026-05-03T11:50:24.964Z</time></trkpt><trkpt lat="42.3313566" lon="14.0732385"><ele>51.0</ele><time>2026-05-03T11:50:25.963Z</time></trkpt><trkpt lat="42.3315518" lon="14.0735228"><ele>50.0</ele><time>2026-05-03T11:50:26.964Z</time></trkpt><trkpt lat="42.3317456" lon="14.073807"><ele>49.0</ele><time>2026-05-03T11:50:27.964Z</time></trkpt><trkpt lat="42.3319403" lon="14.0740875"><ele>49.0</ele><time>2026-05-03T11:50:28.963Z</time></trkpt><trkpt lat="42.3321323" lon="14.0743653"><ele>49.0</ele><time>2026-05-03T11:50:29.964Z</time></trkpt><trkpt lat="42.3323255" lon="14.0746453"><ele>49.0</ele><time>2026-05-03T11:50:30.964Z</time></trkpt><trkpt lat="42.3325185" lon="14.074925"><ele>49.0</ele><time>2026-05-03T11:50:31.964Z</time></trkpt><trkpt lat="42.3327086" lon="14.0752034"><ele>49.0</ele><time>2026-05-03T11:50:32.963Z</time></trkpt><trkpt lat="42.3328955" lon="14.0754776"><ele>49.0</ele><time>2026-05-03T11:50:33.964Z</time></trkpt><trkpt lat="42.3330767" lon="14.0757455"><ele>48.5</ele><time>2026-05-03T11:50:34.963Z</time></trkpt><trkpt lat="42.3332451" lon="14.0759945"><ele>48.0</ele><time>2026-05-03T11:50:35.963Z</time></trkpt><trkpt lat="42.3334024" lon="14.0762311"><ele>48.0</ele><time>2026-05-03T11:50:36.964Z</time></trkpt><trkpt lat="42.3335499" lon="14.076456"><ele>48.0</ele><time>2026-05-03T11:50:37.964Z</time></trkpt><trkpt lat="42.3336884" lon="14.0766672"><ele>48.0</ele><time>2026-05-03T11:50:38.964Z</time></trkpt><trkpt lat="42.3338218" lon="14.0768644"><ele>48.0</ele><time>2026-05-03T11:50:39.963Z</time></trkpt><trkpt lat="42.3339387" lon="14.0770605"><ele>48.0</ele><time>2026-05-03T11:50:40.963Z</time></trkpt><trkpt lat="42.3340359" lon="14.0772622"><ele>48.0</ele><time>2026-05-03T11:50:41.963Z</time></trkpt><trkpt lat="42.334117" lon="14.0774692"><ele>48.0</ele><time>2026-05-03T11:50:42.963Z</time></trkpt><trkpt lat="42.3341826" lon="14.0776866"><ele>48.0</ele><time>2026-05-03T11:50:43.964Z</time></trkpt><trkpt lat="42.3342311" lon="14.0779214"><ele>48.0</ele><time>2026-05-03T11:50:44.964Z</time></trkpt><trkpt lat="42.3342704" lon="14.0781733"><ele>47.333333333333336</ele><time>2026-05-03T11:50:45.963Z</time></trkpt><trkpt lat="42.3343028" lon="14.078443"><ele>46.66666666666667</ele><time>2026-05-03T11:50:46.964Z</time></trkpt><trkpt lat="42.33433" lon="14.0787285"><ele>46.0</ele><time>2026-05-03T11:50:47.964Z</time></trkpt><trkpt lat="42.3343527" lon="14.0790172"><ele>46.0</ele><time>2026-05-03T11:50:48.963Z</time></trkpt><trkpt lat="42.3343774" lon="14.0793072"><ele>46.0</ele><time>2026-05-03T11:50:49.964Z</time></trkpt><trkpt lat="42.3344005" lon="14.0795999"><ele>46.0</ele><time>2026-05-03T11:50:50.963Z</time></trkpt><trkpt lat="42.3344187" lon="14.0798925"><ele>46.0</ele><time>2026-05-03T11:50:51.963Z</time></trkpt><trkpt lat="42.3344339" lon="14.0801846"><ele>46.0</ele><time>2026-05-03T11:50:52.964Z</time></trkpt><trkpt lat="42.3344353" lon="14.0804748"><ele>46.0</ele><time>2026-05-03T11:50:53.964Z</time></trkpt><trkpt lat="42.3344218" lon="14.0807683"><ele>46.0</ele><time>2026-05-03T11:50:54.964Z</time></trkpt><trkpt lat="42.3344004" lon="14.0810587"><ele>46.0</ele><time>2026-05-03T11:50:55.964Z</time></trkpt><trkpt lat="42.3343821" lon="14.0813394"><ele>46.0</ele><time>2026-05-03T11:50:56.964Z</time></trkpt><trkpt lat="42.3343645" lon="14.0816012"><ele>47.0</ele><time>2026-05-03T11:50:57.963Z</time></trkpt><trkpt lat="42.3343523" lon="14.0818474"><ele>48.0</ele><time>2026-05-03T11:50:58.963Z</time></trkpt><trkpt lat="42.3343531" lon="14.0820793"><ele>49.0</ele><time>2026-05-03T11:50:59.964Z</time></trkpt><trkpt lat="42.3343748" lon="14.0823088"><ele>49.666666666666664</ele><time>2026-05-03T11:51:00.964Z</time></trkpt><trkpt lat="42.3344202" lon="14.0825382"><ele>50.33333333333333</ele><time>2026-05-03T11:51:01.963Z</time></trkpt><trkpt lat="42.3344901" lon="14.082764"><ele>51.0</ele><time>2026-05-03T11:51:02.963Z</time></trkpt><trkpt lat="42.3345817" lon="14.0829859"><ele>51.0</ele><time>2026-05-03T11:51:03.964Z</time></trkpt><trkpt lat="42.3346875" lon="14.0831999"><ele>51.0</ele><time>2026-05-03T11:51:04.963Z</time></trkpt><trkpt lat="42.3347965" lon="14.0834101"><ele>51.0</ele><time>2026-05-03T11:51:05.963Z</time></trkpt><trkpt lat="42.3349057" lon="14.083621"><ele>51.0</ele><time>2026-05-03T11:51:06.964Z</time></trkpt><trkpt lat="42.3350185" lon="14.0838336"><ele>51.0</ele><time>2026-05-03T11:51:07.964Z</time></trkpt><trkpt lat="42.3351337" lon="14.0840507"><ele>51.0</ele><time>2026-05-03T11:51:08.964Z</time></trkpt><trkpt lat="42.3352482" lon="14.0842761"><ele>51.0</ele><time>2026-05-03T11:51:09.964Z</time></trkpt><trkpt lat="42.335361" lon="14.0845102"><ele>51.0</ele><time>2026-05-03T11:51:10.963Z</time></trkpt><trkpt lat="42.3354691" lon="14.0847556"><ele>51.0</ele><time>2026-05-03T11:51:11.964Z</time></trkpt><trkpt lat="42.3355645" lon="14.0850185"><ele>52.5</ele><time>2026-05-03T11:51:12.964Z</time></trkpt><trkpt lat="42.335652" lon="14.0852958"><ele>54.0</ele><time>2026-05-03T11:51:13.964Z</time></trkpt><trkpt lat="42.3357383" lon="14.0855835"><ele>53.5</ele><time>2026-05-03T11:51:14.963Z</time></trkpt><trkpt lat="42.3358276" lon="14.0858781"><ele>53.0</ele><time>2026-05-03T11:51:15.964Z</time></trkpt><trkpt lat="42.3359165" lon="14.0861772"><ele>53.0</ele><time>2026-05-03T11:51:16.964Z</time></trkpt><trkpt lat="42.3360044" lon="14.0864824"><ele>53.0</ele><time>2026-05-03T11:51:17.964Z</time></trkpt><trkpt lat="42.3360956" lon="14.0867924"><ele>50.5</ele><time>2026-05-03T11:51:18.963Z</time></trkpt><trkpt lat="42.3361879" lon="14.0871068"><ele>48.0</ele><time>2026-05-03T11:51:19.963Z</time></trkpt><trkpt lat="42.336281" lon="14.0874258"><ele>46.0</ele><time>2026-05-03T11:51:20.964Z</time></trkpt><trkpt lat="42.3363739" lon="14.0877457"><ele>44.0</ele><time>2026-05-03T11:51:21.964Z</time></trkpt><trkpt lat="42.3364665" lon="14.0880652"><ele>47.0</ele><time>2026-05-03T11:51:22.963Z</time></trkpt><trkpt lat="42.3365581" lon="14.0883849"><ele>50.0</ele><time>2026-05-03T11:51:23.963Z</time></trkpt><trkpt lat="42.3366523" lon="14.088704"><ele>50.0</ele><time>2026-05-03T11:51:24.963Z</time></trkpt><trkpt lat="42.3367458" lon="14.0890215"><ele>50.0</ele><time>2026-05-03T11:51:25.964Z</time></trkpt><trkpt lat="42.3368374" lon="14.0893328"><ele>49.5</ele><time>2026-05-03T11:51:26.964Z</time></trkpt><trkpt lat="42.3369286" lon="14.089642"><ele>49.0</ele><time>2026-05-03T11:51:27.963Z</time></trkpt><trkpt lat="42.3370169" lon="14.0899516"><ele>50.0</ele><time>2026-05-03T11:51:28.964Z</time></trkpt><trkpt lat="42.337103" lon="14.0902604"><ele>51.0</ele><time>2026-05-03T11:51:29.964Z</time></trkpt><trkpt lat="42.3371828" lon="14.0905692"><ele>50.5</ele><time>2026-05-03T11:51:30.964Z</time></trkpt><trkpt lat="42.3372558" lon="14.0908799"><ele>50.0</ele><time>2026-05-03T11:51:31.964Z</time></trkpt><trkpt lat="42.3373254" lon="14.0911926"><ele>50.0</ele><time>2026-05-03T11:51:32.963Z</time></trkpt><trkpt lat="42.3373942" lon="14.0915048"><ele>50.0</ele><time>2026-05-03T11:51:33.964Z</time></trkpt><trkpt lat="42.337464" lon="14.0918144"><ele>50.5</ele><time>2026-05-03T11:51:34.963Z</time></trkpt><trkpt lat="42.3375343" lon="14.0921235"><ele>51.0</ele><time>2026-05-03T11:51:35.964Z</time></trkpt><trkpt lat="42.3376025" lon="14.0924314"><ele>52.5</ele><time>2026-05-03T11:51:36.964Z</time></trkpt><trkpt lat="42.3376722" lon="14.092739"><ele>54.0</ele><time>2026-05-03T11:51:37.964Z</time></trkpt><trkpt lat="42.3377401" lon="14.0930439"><ele>54.5</ele><time>2026-05-03T11:51:38.963Z</time></trkpt><trkpt lat="42.3378061" lon="14.0933452"><ele>55.0</ele><time>2026-05-03T11:51:39.964Z</time></trkpt><trkpt lat="42.3378691" lon="14.0936441"><ele>55.0</ele><time>2026-05-03T11:51:40.964Z</time></trkpt><trkpt lat="42.3379309" lon="14.0939402"><ele>55.0</ele><time>2026-05-03T11:51:41.964Z</time></trkpt><trkpt lat="42.3379931" lon="14.0942304"><ele>54.33333333333333</ele><time>2026-05-03T11:51:42.964Z</time></trkpt><trkpt lat="42.3380561" lon="14.0945179"><ele>53.66666666666667</ele><time>2026-05-03T11:51:43.964Z</time></trkpt><trkpt lat="42.3381201" lon="14.0948007"><ele>53.0</ele><time>2026-05-03T11:51:44.963Z</time></trkpt><trkpt lat="42.3381784" lon="14.0950698"><ele>53.0</ele><time>2026-05-03T11:51:45.964Z</time></trkpt><trkpt lat="42.338234" lon="14.0953248"><ele>53.0</ele><time>2026-05-03T11:51:46.963Z</time></trkpt><trkpt lat="42.3382866" lon="14.0955663"><ele>53.0</ele><time>2026-05-03T11:51:47.964Z</time></trkpt><trkpt lat="42.3383355" lon="14.0957961"><ele>53.25</ele><time>2026-05-03T11:51:48.964Z</time></trkpt><trkpt lat="42.3383785" lon="14.0960141"><ele>53.5</ele><time>2026-05-03T11:51:49.963Z</time></trkpt><trkpt lat="42.3384076" lon="14.0961769"><ele>53.75</ele><time>2026-05-03T11:51:50.963Z</time></trkpt><trkpt lat="42.3384339" lon="14.0963483"><ele>54.0</ele><time>2026-05-03T11:51:51.964Z</time></trkpt><trkpt lat="42.3384556" lon="14.0965237"><ele>54.0</ele><time>2026-05-03T11:51:52.963Z</time></trkpt><trkpt lat="42.3384796" lon="14.0967126"><ele>54.0</ele><time>2026-05-03T11:51:53.963Z</time></trkpt><trkpt lat="42.3385046" lon="14.0969126"><ele>54.0</ele><time>2026-05-03T11:51:54.964Z</time></trkpt><trkpt lat="42.3385285" lon="14.0971242"><ele>54.0</ele><time>2026-05-03T11:51:55.964Z</time></trkpt><trkpt lat="42.3385557" lon="14.0973468"><ele>54.0</ele><time>2026-05-03T11:51:56.964Z</time></trkpt><trkpt lat="42.3385847" lon="14.0975758"><ele>54.0</ele><time>2026-05-03T11:51:57.963Z</time></trkpt><trkpt lat="42.338615" lon="14.0978279"><ele>54.0</ele><time>2026-05-03T11:51:58.964Z</time></trkpt><trkpt lat="42.3386465" lon="14.0980985"><ele>54.0</ele><time>2026-05-03T11:51:59.964Z</time></trkpt><trkpt lat="42.3386785" lon="14.0983762"><ele>54.0</ele><time>2026-05-03T11:52:00.963Z</time></trkpt><trkpt lat="42.3387103" lon="14.0986534"><ele>53.66666666666667</ele><time>2026-05-03T11:52:01.964Z</time></trkpt><trkpt lat="42.338742" lon="14.0989332"><ele>53.333333333333336</ele><time>2026-05-03T11:52:02.963Z</time></trkpt><trkpt lat="42.3387721" lon="14.0992157"><ele>53.0</ele><time>2026-05-03T11:52:03.964Z</time></trkpt><trkpt lat="42.3388024" lon="14.0994961"><ele>53.0</ele><time>2026-05-03T11:52:04.963Z</time></trkpt><trkpt lat="42.3388386" lon="14.0997775"><ele>53.0</ele><time>2026-05-03T11:52:05.964Z</time></trkpt><trkpt lat="42.3388835" lon="14.1000546"><ele>53.0</ele><time>2026-05-03T11:52:06.964Z</time></trkpt><trkpt lat="42.3389353" lon="14.1003274"><ele>53.0</ele><time>2026-05-03T11:52:07.964Z</time></trkpt><trkpt lat="42.3389956" lon="14.1005967"><ele>53.0</ele><time>2026-05-03T11:52:08.964Z</time></trkpt><trkpt lat="42.3390581" lon="14.1008604"><ele>53.0</ele><time>2026-05-03T11:52:09.964Z</time></trkpt><trkpt lat="42.3391245" lon="14.1011199"><ele>52.333333333333336</ele><time>2026-05-03T11:52:10.964Z</time></trkpt><trkpt lat="42.3391935" lon="14.1013773"><ele>51.66666666666667</ele><time>2026-05-03T11:52:11.963Z</time></trkpt><trkpt lat="42.339263" lon="14.1016332"><ele>51.0</ele><time>2026-05-03T11:52:12.964Z</time></trkpt><trkpt lat="42.3393301" lon="14.1018886"><ele>50.66666666666667</ele><time>2026-05-03T11:52:13.964Z</time></trkpt><trkpt lat="42.3393991" lon="14.102139"><ele>50.333333333333336</ele><time>2026-05-03T11:52:14.964Z</time></trkpt><trkpt lat="42.3394747" lon="14.1023848"><ele>50.0</ele><time>2026-05-03T11:52:15.964Z</time></trkpt><trkpt lat="42.3395559" lon="14.1026344"><ele>49.66666666666667</ele><time>2026-05-03T11:52:16.963Z</time></trkpt><trkpt lat="42.3396397" lon="14.1028897"><ele>49.33333333333333</ele><time>2026-05-03T11:52:17.963Z</time></trkpt><trkpt lat="42.3397268" lon="14.1031526"><ele>49.0</ele><time>2026-05-03T11:52:18.964Z</time></trkpt><trkpt lat="42.3398183" lon="14.1034233"><ele>50.5</ele><time>2026-05-03T11:52:19.963Z</time></trkpt><trkpt lat="42.3399103" lon="14.1037032"><ele>52.0</ele><time>2026-05-03T11:52:20.964Z</time></trkpt><trkpt lat="42.3400019" lon="14.1039931"><ele>51.0</ele><time>2026-05-03T11:52:21.964Z</time></trkpt><trkpt lat="42.3400948" lon="14.1042818"><ele>50.0</ele><time>2026-05-03T11:52:22.964Z</time></trkpt><trkpt lat="42.3401861" lon="14.1045622"><ele>50.0</ele><time>2026-05-03T11:52:23.964Z</time></trkpt><trkpt lat="42.3402723" lon="14.104831"><ele>50.0</ele><time>2026-05-03T11:52:24.963Z</time></trkpt><trkpt lat="42.3403538" lon="14.105085"><ele>50.0</ele><time>2026-05-03T11:52:25.963Z</time></trkpt><trkpt lat="42.3404333" lon="14.1053227"><ele>49.66666666666667</ele><time>2026-05-03T11:52:26.964Z</time></trkpt><trkpt lat="42.3405098" lon="14.1055476"><ele>49.33333333333333</ele><time>2026-05-03T11:52:27.963Z</time></trkpt><trkpt lat="42.3405793" lon="14.1057618"><ele>49.0</ele><time>2026-05-03T11:52:28.963Z</time></trkpt><trkpt lat="42.340647" lon="14.1059669"><ele>48.666666666666664</ele><time>2026-05-03T11:52:29.963Z</time></trkpt><trkpt lat="42.3407146" lon="14.1061676"><ele>48.33333333333333</ele><time>2026-05-03T11:52:30.964Z</time></trkpt><trkpt lat="42.3407874" lon="14.1063733"><ele>48.0</ele><time>2026-05-03T11:52:31.964Z</time></trkpt><trkpt lat="42.3408659" lon="14.1065777"><ele>48.33333333333333</ele><time>2026-05-03T11:52:32.964Z</time></trkpt><trkpt lat="42.3409507" lon="14.1067752"><ele>48.666666666666664</ele><time>2026-05-03T11:52:33.963Z</time></trkpt><trkpt lat="42.341045" lon="14.1069749"><ele>49.0</ele><time>2026-05-03T11:52:34.963Z</time></trkpt><trkpt lat="42.3411434" lon="14.1071777"><ele>49.0</ele><time>2026-05-03T11:52:35.964Z</time></trkpt><trkpt lat="42.3412417" lon="14.1073821"><ele>49.0</ele><time>2026-05-03T11:52:36.963Z</time></trkpt><trkpt lat="42.3413379" lon="14.1075843"><ele>49.0</ele><time>2026-05-03T11:52:37.963Z</time></trkpt><trkpt lat="42.3414344" lon="14.1077842"><ele>49.0</ele><time>2026-05-03T11:52:38.963Z</time></trkpt><trkpt lat="42.3415294" lon="14.1079835"><ele>49.0</ele><time>2026-05-03T11:52:39.963Z</time></trkpt><trkpt lat="42.341628" lon="14.1081829"><ele>49.0</ele><time>2026-05-03T11:52:40.964Z</time></trkpt><trkpt lat="42.3417288" lon="14.1083839"><ele>48.666666666666664</ele><time>2026-05-03T11:52:41.963Z</time></trkpt><trkpt lat="42.3418309" lon="14.1085865"><ele>48.33333333333333</ele><time>2026-05-03T11:52:42.964Z</time></trkpt><trkpt lat="42.3419342" lon="14.1087901"><ele>48.0</ele><time>2026-05-03T11:52:43.963Z</time></trkpt><trkpt lat="42.3420366" lon="14.1089972"><ele>48.33333333333333</ele><time>2026-05-03T11:52:44.963Z</time></trkpt><trkpt lat="42.3421389" lon="14.109205"><ele>48.666666666666664</ele><time>2026-05-03T11:52:45.963Z</time></trkpt><trkpt lat="42.3422406" lon="14.1094114"><ele>49.0</ele><time>2026-05-03T11:52:46.964Z</time></trkpt><trkpt lat="42.3423419" lon="14.1096163"><ele>49.0</ele><time>2026-05-03T11:52:47.964Z</time></trkpt><trkpt lat="42.3424436" lon="14.1098147"><ele>49.0</ele><time>2026-05-03T11:52:48.963Z</time></trkpt><trkpt lat="42.3425371" lon="14.1100061"><ele>49.0</ele><time>2026-05-03T11:52:49.963Z</time></trkpt><trkpt lat="42.3426268" lon="14.1101921"><ele>49.0</ele><time>2026-05-03T11:52:50.963Z</time></trkpt><trkpt lat="42.3427111" lon="14.1103715"><ele>49.0</ele><time>2026-05-03T11:52:51.963Z</time></trkpt><trkpt lat="42.3427937" lon="14.1105444"><ele>49.0</ele><time>2026-05-03T11:52:52.963Z</time></trkpt><trkpt lat="42.3428743" lon="14.110707"><ele>49.0</ele><time>2026-05-03T11:52:53.964Z</time></trkpt><trkpt lat="42.3429625" lon="14.1108512"><ele>49.0</ele><time>2026-05-03T11:52:54.964Z</time></trkpt><trkpt lat="42.3430621" lon="14.110974"><ele>49.0</ele><time>2026-05-03T11:52:55.964Z</time></trkpt><trkpt lat="42.3431693" lon="14.1110675"><ele>49.0</ele><time>2026-05-03T11:52:56.964Z</time></trkpt><trkpt lat="42.3432742" lon="14.1111359"><ele>48.99999999999999</ele><time>2026-05-03T11:52:57.964Z</time></trkpt><trkpt lat="42.3433563" lon="14.111191"><ele>49.0</ele><time>2026-05-03T11:52:58.963Z</time></trkpt><trkpt lat="42.3434214" lon="14.1112424"><ele>49.0</ele><time>2026-05-03T11:52:59.964Z</time></trkpt><trkpt lat="42.3434817" lon="14.111299"><ele>49.0</ele><time>2026-05-03T11:53:00.963Z</time></trkpt><trkpt lat="42.3435457" lon="14.1113525"><ele>48.99999999999999</ele><time>2026-05-03T11:53:01.963Z</time></trkpt><trkpt lat="42.3436227" lon="14.1114036"><ele>49.0</ele><time>2026-05-03T11:53:02.964Z</time></trkpt><trkpt lat="42.3437125" lon="14.1114541"><ele>49.0</ele><time>2026-05-03T11:53:03.964Z</time></trkpt><trkpt lat="42.343826" lon="14.1115181"><ele>49.0</ele><time>2026-05-03T11:53:04.964Z</time></trkpt><trkpt lat="42.3439554" lon="14.1115942"><ele>49.0</ele><time>2026-05-03T11:53:05.964Z</time></trkpt><trkpt lat="42.3441" lon="14.1116832"><ele>49.0</ele><time>2026-05-03T11:53:06.964Z</time></trkpt><trkpt lat="42.3442426" lon="14.1117783"><ele>48.666666666666664</ele><time>2026-05-03T11:53:07.963Z</time></trkpt><trkpt lat="42.3443929" lon="14.1118816"><ele>48.33333333333333</ele><time>2026-05-03T11:53:08.964Z</time></trkpt><trkpt lat="42.3445347" lon="14.1119773"><ele>48.0</ele><time>2026-05-03T11:53:09.963Z</time></trkpt><trkpt lat="42.3446696" lon="14.1120649"><ele>47.25</ele><time>2026-05-03T11:53:10.964Z</time></trkpt><trkpt lat="42.3447974" lon="14.1121485"><ele>46.5</ele><time>2026-05-03T11:53:11.964Z</time></trkpt><trkpt lat="42.3449154" lon="14.1122251"><ele>45.75</ele><time>2026-05-03T11:53:12.964Z</time></trkpt><trkpt lat="42.3450197" lon="14.1122945"><ele>45.0</ele><time>2026-05-03T11:53:13.964Z</time></trkpt><trkpt lat="42.3451188" lon="14.1123491"><ele>45.0</ele><time>2026-05-03T11:53:14.964Z</time></trkpt><trkpt lat="42.3452218" lon="14.1123922"><ele>45.0</ele><time>2026-05-03T11:53:15.964Z</time></trkpt><trkpt lat="42.3453364" lon="14.1124347"><ele>45.0</ele><time>2026-05-03T11:53:16.963Z</time></trkpt><trkpt lat="42.3454645" lon="14.1124732"><ele>45.0</ele><time>2026-05-03T11:53:17.963Z</time></trkpt><trkpt lat="42.3456045" lon="14.1125109"><ele>45.333333333333336</ele><time>2026-05-03T11:53:18.963Z</time></trkpt><trkpt lat="42.3457538" lon="14.1125512"><ele>45.66666666666667</ele><time>2026-05-03T11:53:19.963Z</time></trkpt><trkpt lat="42.3459101" lon="14.1125995"><ele>46.0</ele><time>2026-05-03T11:53:20.963Z</time></trkpt><trkpt lat="42.3460722" lon="14.1126557"><ele>46.0</ele><time>2026-05-03T11:53:21.964Z</time></trkpt><trkpt lat="42.3462369" lon="14.1127236"><ele>46.0</ele><time>2026-05-03T11:53:22.964Z</time></trkpt><trkpt lat="42.3464063" lon="14.1127978"><ele>46.0</ele><time>2026-05-03T11:53:23.964Z</time></trkpt><trkpt lat="42.3465779" lon="14.1128769"><ele>45.333333333333336</ele><time>2026-05-03T11:53:24.964Z</time></trkpt><trkpt lat="42.3467472" lon="14.1129583"><ele>44.666666666666664</ele><time>2026-05-03T11:53:25.964Z</time></trkpt><trkpt lat="42.3469106" lon="14.1130379"><ele>44.0</ele><time>2026-05-03T11:53:26.964Z</time></trkpt><trkpt lat="42.3470745" lon="14.1131181"><ele>44.33333333333333</ele><time>2026-05-03T11:53:27.964Z</time></trkpt><trkpt lat="42.3472355" lon="14.1131959"><ele>44.666666666666664</ele><time>2026-05-03T11:53:28.964Z</time></trkpt><trkpt lat="42.347394" lon="14.1132739"><ele>45.0</ele><time>2026-05-03T11:53:29.964Z</time></trkpt><trkpt lat="42.3475491" lon="14.1133512"><ele>45.0</ele><time>2026-05-03T11:53:30.964Z</time></trkpt><trkpt lat="42.3476991" lon="14.1134265"><ele>45.0</ele><time>2026-05-03T11:53:31.964Z</time></trkpt><trkpt lat="42.3478432" lon="14.1134969"><ele>45.0</ele><time>2026-05-03T11:53:32.964Z</time></trkpt><trkpt lat="42.3479817" lon="14.1135632"><ele>45.0</ele><time>2026-05-03T11:53:33.964Z</time></trkpt><trkpt lat="42.3481164" lon="14.1136206"><ele>45.0</ele><time>2026-05-03T11:53:34.964Z</time></trkpt><trkpt lat="42.3482486" lon="14.1136523"><ele>45.0</ele><time>2026-05-03T11:53:35.964Z</time></trkpt><trkpt lat="42.3483753" lon="14.1136493"><ele>45.0</ele><time>2026-05-03T11:53:36.963Z</time></trkpt><trkpt lat="42.3485018" lon="14.1136131"><ele>45.0</ele><time>2026-05-03T11:53:37.963Z</time></trkpt><trkpt lat="42.3486326" lon="14.1135467"><ele>45.0</ele><time>2026-05-03T11:53:38.964Z</time></trkpt><trkpt lat="42.3487681" lon="14.1134611"><ele>45.0</ele><time>2026-05-03T11:53:39.964Z</time></trkpt><trkpt lat="42.3489079" lon="14.1133737"><ele>45.0</ele><time>2026-05-03T11:53:40.964Z</time></trkpt><trkpt lat="42.3490539" lon="14.1132841"><ele>44.0</ele><time>2026-05-03T11:53:41.963Z</time></trkpt><trkpt lat="42.349196" lon="14.1131912"><ele>43.0</ele><time>2026-05-03T11:53:42.964Z</time></trkpt><trkpt lat="42.3493281" lon="14.1131034"><ele>42.0</ele><time>2026-05-03T11:53:43.964Z</time></trkpt><trkpt lat="42.349454" lon="14.1130189"><ele>41.0</ele><time>2026-05-03T11:53:44.964Z</time></trkpt><trkpt lat="42.3495744" lon="14.1129371"><ele>41.0</ele><time>2026-05-03T11:53:45.963Z</time></trkpt><trkpt lat="42.3496895" lon="14.1128564"><ele>41.0</ele><time>2026-05-03T11:53:46.964Z</time></trkpt><trkpt lat="42.3498008" lon="14.1127785"><ele>41.0</ele><time>2026-05-03T11:53:47.963Z</time></trkpt><trkpt lat="42.3499175" lon="14.1127033"><ele>41.0</ele><time>2026-05-03T11:53:48.963Z</time></trkpt><trkpt lat="42.3500456" lon="14.1126383"><ele>41.75</ele><time>2026-05-03T11:53:49.963Z</time></trkpt><trkpt lat="42.3501823" lon="14.1125866"><ele>42.5</ele><time>2026-05-03T11:53:50.964Z</time></trkpt><trkpt lat="42.350327" lon="14.112546"><ele>43.25</ele><time>2026-05-03T11:53:51.964Z</time></trkpt><trkpt lat="42.3504789" lon="14.1125161"><ele>44.0</ele><time>2026-05-03T11:53:52.964Z</time></trkpt><trkpt lat="42.3506379" lon="14.1125113"><ele>44.0</ele><time>2026-05-03T11:53:53.963Z</time></trkpt><trkpt lat="42.3508039" lon="14.1125339"><ele>44.0</ele><time>2026-05-03T11:53:54.963Z</time></trkpt><trkpt lat="42.3509753" lon="14.1125733"><ele>44.0</ele><time>2026-05-03T11:53:55.963Z</time></trkpt><trkpt lat="42.3511513" lon="14.1126245"><ele>44.0</ele><time>2026-05-03T11:53:56.964Z</time></trkpt><trkpt lat="42.3513309" lon="14.1126908"><ele>44.0</ele><time>2026-05-03T11:53:57.964Z</time></trkpt><trkpt lat="42.3515199" lon="14.1127711"><ele>44.0</ele><time>2026-05-03T11:53:58.964Z</time></trkpt><trkpt lat="42.3517231" lon="14.1128625"><ele>42.666666666666664</ele><time>2026-05-03T11:53:59.964Z</time></trkpt><trkpt lat="42.3519341" lon="14.112952"><ele>41.333333333333336</ele><time>2026-05-03T11:54:00.963Z</time></trkpt><trkpt lat="42.3521505" lon="14.1130393"><ele>40.0</ele><time>2026-05-03T11:54:01.964Z</time></trkpt><trkpt lat="42.3523747" lon="14.1131283"><ele>38.0</ele><time>2026-05-03T11:54:02.964Z</time></trkpt><trkpt lat="42.3526008" lon="14.1132187"><ele>36.0</ele><time>2026-05-03T11:54:03.964Z</time></trkpt><trkpt lat="42.3528289" lon="14.1133103"><ele>35.5</ele><time>2026-05-03T11:54:04.963Z</time></trkpt><trkpt lat="42.3530573" lon="14.1134026"><ele>35.0</ele><time>2026-05-03T11:54:05.964Z</time></trkpt><trkpt lat="42.3532825" lon="14.1134942"><ele>35.0</ele><time>2026-05-03T11:54:06.963Z</time></trkpt><trkpt lat="42.353505" lon="14.113584"><ele>35.0</ele><time>2026-05-03T11:54:07.964Z</time></trkpt><trkpt lat="42.353727" lon="14.1136736"><ele>35.33333333333333</ele><time>2026-05-03T11:54:08.964Z</time></trkpt><trkpt lat="42.3539403" lon="14.11376"><ele>35.666666666666664</ele><time>2026-05-03T11:54:09.963Z</time></trkpt><trkpt lat="42.3541527" lon="14.1138444"><ele>36.0</ele><time>2026-05-03T11:54:10.963Z</time></trkpt><trkpt lat="42.3543655" lon="14.1139283"><ele>36.0</ele><time>2026-05-03T11:54:11.963Z</time></trkpt><trkpt lat="42.3545758" lon="14.1140111"><ele>36.0</ele><time>2026-05-03T11:54:12.964Z</time></trkpt><trkpt lat="42.3547854" lon="14.1140946"><ele>36.0</ele><time>2026-05-03T11:54:13.964Z</time></trkpt><trkpt lat="42.3549964" lon="14.1141776"><ele>36.333333333333336</ele><time>2026-05-03T11:54:14.964Z</time></trkpt><trkpt lat="42.3552071" lon="14.1142616"><ele>36.66666666666667</ele><time>2026-05-03T11:54:15.963Z</time></trkpt><trkpt lat="42.3554171" lon="14.1143487"><ele>37.0</ele><time>2026-05-03T11:54:16.963Z</time></trkpt><trkpt lat="42.3556273" lon="14.1144354"><ele>40.333333333333336</ele><time>2026-05-03T11:54:17.963Z</time></trkpt><trkpt lat="42.3558389" lon="14.1145225"><ele>43.666666666666664</ele><time>2026-05-03T11:54:18.964Z</time></trkpt><trkpt lat="42.3560535" lon="14.1146089"><ele>47.0</ele><time>2026-05-03T11:54:19.964Z</time></trkpt><trkpt lat="42.3562711" lon="14.1146933"><ele>48.0</ele><time>2026-05-03T11:54:20.964Z</time></trkpt><trkpt lat="42.3564913" lon="14.1147765"><ele>49.0</ele><time>2026-05-03T11:54:21.964Z</time></trkpt><trkpt lat="42.3567134" lon="14.1148612"><ele>44.0</ele><time>2026-05-03T11:54:22.964Z</time></trkpt><trkpt lat="42.3569366" lon="14.1149507"><ele>39.0</ele><time>2026-05-03T11:54:23.964Z</time></trkpt><trkpt lat="42.3571598" lon="14.1150409"><ele>40.0</ele><time>2026-05-03T11:54:24.963Z</time></trkpt><trkpt lat="42.357381" lon="14.1151301"><ele>41.0</ele><time>2026-05-03T11:54:25.963Z</time></trkpt><trkpt lat="42.3576006" lon="14.1152211"><ele>41.0</ele><time>2026-05-03T11:54:26.963Z</time></trkpt><trkpt lat="42.3578188" lon="14.1153114"><ele>41.0</ele><time>2026-05-03T11:54:27.964Z</time></trkpt><trkpt lat="42.3580297" lon="14.1153973"><ele>41.0</ele><time>2026-05-03T11:54:28.963Z</time></trkpt><trkpt lat="42.3582312" lon="14.1154769"><ele>41.0</ele><time>2026-05-03T11:54:29.963Z</time></trkpt><trkpt lat="42.3584253" lon="14.1155539"><ele>41.0</ele><time>2026-05-03T11:54:30.964Z</time></trkpt><trkpt lat="42.3586198" lon="14.1156339"><ele>41.0</ele><time>2026-05-03T11:54:31.964Z</time></trkpt><trkpt lat="42.358815" lon="14.1157151"><ele>39.33333333333333</ele><time>2026-05-03T11:54:32.963Z</time></trkpt><trkpt lat="42.359013" lon="14.1157927"><ele>37.666666666666664</ele><time>2026-05-03T11:54:33.964Z</time></trkpt><trkpt lat="42.3592017" lon="14.1158667"><ele>36.0</ele><time>2026-05-03T11:54:34.964Z</time></trkpt><trkpt lat="42.3593908" lon="14.1159372"><ele>36.0</ele><time>2026-05-03T11:54:35.963Z</time></trkpt><trkpt lat="42.3595919" lon="14.1160085"><ele>36.0</ele><time>2026-05-03T11:54:36.964Z</time></trkpt><trkpt lat="42.3598032" lon="14.116096"><ele>36.0</ele><time>2026-05-03T11:54:37.964Z</time></trkpt><trkpt lat="42.3600183" lon="14.1162026"><ele>36.5</ele><time>2026-05-03T11:54:38.964Z</time></trkpt><trkpt lat="42.3602345" lon="14.116313"><ele>37.0</ele><time>2026-05-03T11:54:39.964Z</time></trkpt><trkpt lat="42.3604507" lon="14.1164217"><ele>39.5</ele><time>2026-05-03T11:54:40.964Z</time></trkpt><trkpt lat="42.3606683" lon="14.116525"><ele>42.0</ele><time>2026-05-03T11:54:41.963Z</time></trkpt><trkpt lat="42.3608831" lon="14.1166247"><ele>40.0</ele><time>2026-05-03T11:54:42.964Z</time></trkpt><trkpt lat="42.3610962" lon="14.1167224"><ele>38.0</ele><time>2026-05-03T11:54:43.964Z</time></trkpt><trkpt lat="42.3613072" lon="14.116816"><ele>36.0</ele><time>2026-05-03T11:54:44.964Z</time></trkpt><trkpt lat="42.3615175" lon="14.1169093"><ele>36.0</ele><time>2026-05-03T11:54:45.964Z</time></trkpt><trkpt lat="42.3617271" lon="14.1170046"><ele>36.0</ele><time>2026-05-03T11:54:46.964Z</time></trkpt><trkpt lat="42.3619365" lon="14.1170993"><ele>36.0</ele><time>2026-05-03T11:54:47.963Z</time></trkpt><trkpt lat="42.3621443" lon="14.117191"><ele>33.666666666666664</ele><time>2026-05-03T11:54:48.963Z</time></trkpt><trkpt lat="42.3623535" lon="14.1172786"><ele>31.333333333333332</ele><time>2026-05-03T11:54:49.963Z</time></trkpt><trkpt lat="42.362558" lon="14.1173533"><ele>29.0</ele><time>2026-05-03T11:54:50.963Z</time></trkpt><trkpt lat="42.3627525" lon="14.1174102"><ele>29.0</ele><time>2026-05-03T11:54:51.963Z</time></trkpt><trkpt lat="42.3629516" lon="14.1174474"><ele>29.0</ele><time>2026-05-03T11:54:52.964Z</time></trkpt><trkpt lat="42.3631563" lon="14.1174595"><ele>29.0</ele><time>2026-05-03T11:54:53.964Z</time></trkpt><trkpt lat="42.3633534" lon="14.1174581"><ele>29.666666666666664</ele><time>2026-05-03T11:54:54.963Z</time></trkpt><trkpt lat="42.3635398" lon="14.117458"><ele>30.333333333333336</ele><time>2026-05-03T11:54:55.964Z</time></trkpt><trkpt lat="42.3637272" lon="14.1174564"><ele>31.0</ele><time>2026-05-03T11:54:56.963Z</time></trkpt><trkpt lat="42.3639138" lon="14.1174651"><ele>31.666666666666668</ele><time>2026-05-03T11:54:57.963Z</time></trkpt><trkpt lat="42.3641009" lon="14.117493"><ele>32.333333333333336</ele><time>2026-05-03T11:54:58.964Z</time></trkpt><trkpt lat="42.3642912" lon="14.1175437"><ele>33.0</ele><time>2026-05-03T11:54:59.964Z</time></trkpt><trkpt lat="42.3644839" lon="14.1176263"><ele>33.0</ele><time>2026-05-03T11:55:00.963Z</time></trkpt><trkpt lat="42.3646805" lon="14.1177377"><ele>33.0</ele><time>2026-05-03T11:55:01.964Z</time></trkpt><trkpt lat="42.3648814" lon="14.1178634"><ele>33.0</ele><time>2026-05-03T11:55:02.964Z</time></trkpt><trkpt lat="42.3650884" lon="14.1179943"><ele>32.5</ele><time>2026-05-03T11:55:03.964Z</time></trkpt><trkpt lat="42.3653002" lon="14.1181316"><ele>32.0</ele><time>2026-05-03T11:55:04.964Z</time></trkpt><trkpt lat="42.3655142" lon="14.1182743"><ele>30.0</ele><time>2026-05-03T11:55:05.964Z</time></trkpt><trkpt lat="42.3657326" lon="14.1184222"><ele>28.0</ele><time>2026-05-03T11:55:06.964Z</time></trkpt><trkpt lat="42.3659572" lon="14.1185767"><ele>28.0</ele><time>2026-05-03T11:55:07.964Z</time></trkpt><trkpt lat="42.3661909" lon="14.1187379"><ele>28.0</ele><time>2026-05-03T11:55:08.963Z</time></trkpt><trkpt lat="42.3664262" lon="14.1189003"><ele>28.0</ele><time>2026-05-03T11:55:09.964Z</time></trkpt><trkpt lat="42.3666593" lon="14.1190601"><ele>28.0</ele><time>2026-05-03T11:55:10.963Z</time></trkpt><trkpt lat="42.366892" lon="14.1192183"><ele>28.0</ele><time>2026-05-03T11:55:11.963Z</time></trkpt><trkpt lat="42.3671214" lon="14.1193768"><ele>28.0</ele><time>2026-05-03T11:55:12.964Z</time></trkpt><trkpt lat="42.3673455" lon="14.1195386"><ele>28.0</ele><time>2026-05-03T11:55:13.964Z</time></trkpt><trkpt lat="42.3675643" lon="14.1196975"><ele>28.0</ele><time>2026-05-03T11:55:14.963Z</time></trkpt><trkpt lat="42.3677725" lon="14.1198417"><ele>28.0</ele><time>2026-05-03T11:55:15.964Z</time></trkpt><trkpt lat="42.3679713" lon="14.1199745"><ele>28.0</ele><time>2026-05-03T11:55:16.963Z</time></trkpt><trkpt lat="42.3681648" lon="14.1200929"><ele>28.0</ele><time>2026-05-03T11:55:17.964Z</time></trkpt><trkpt lat="42.3683646" lon="14.1201871"><ele>28.333333333333336</ele><time>2026-05-03T11:55:18.963Z</time></trkpt><trkpt lat="42.3685713" lon="14.1202527"><ele>28.666666666666664</ele><time>2026-05-03T11:55:19.964Z</time></trkpt><trkpt lat="42.368788" lon="14.1202979"><ele>29.0</ele><time>2026-05-03T11:55:20.963Z</time></trkpt><trkpt lat="42.3690133" lon="14.1203283"><ele>33.0</ele><time>2026-05-03T11:55:21.964Z</time></trkpt><trkpt lat="42.3692427" lon="14.1203568"><ele>37.0</ele><time>2026-05-03T11:55:22.964Z</time></trkpt><trkpt lat="42.3694733" lon="14.1203857"><ele>37.0</ele><time>2026-05-03T11:55:23.963Z</time></trkpt><trkpt lat="42.3696992" lon="14.1204133"><ele>37.0</ele><time>2026-05-03T11:55:24.96Z</time></trkpt><trkpt lat="42.3699212" lon="14.1204405"><ele>37.0</ele><time>2026-05-03T11:55:25.963Z</time></trkpt><trkpt lat="42.3701356" lon="14.1204661"><ele>37.0</ele><time>2026-05-03T11:55:26.964Z</time></trkpt><trkpt lat="42.3703392" lon="14.1204856"><ele>37.0</ele><time>2026-05-03T11:55:27.964Z</time></trkpt><trkpt lat="42.3705376" lon="14.1205139"><ele>37.333333333333336</ele><time>2026-05-03T11:55:28.963Z</time></trkpt><trkpt lat="42.3707304" lon="14.1205639"><ele>37.666666666666664</ele><time>2026-05-03T11:55:29.964Z</time></trkpt><trkpt lat="42.3709212" lon="14.1206119"><ele>38.0</ele><time>2026-05-03T11:55:30.964Z</time></trkpt><trkpt lat="42.3711014" lon="14.1206853"><ele>36.33333333333333</ele><time>2026-05-03T11:55:31.964Z</time></trkpt><trkpt lat="42.3712779" lon="14.1207644"><ele>34.666666666666664</ele><time>2026-05-03T11:55:32.963Z</time></trkpt><trkpt lat="42.3714536" lon="14.1208265"><ele>33.0</ele><time>2026-05-03T11:55:33.963Z</time></trkpt><trkpt lat="42.3716245" lon="14.1208964"><ele>33.0</ele><time>2026-05-03T11:55:34.964Z</time></trkpt><trkpt lat="42.3717906" lon="14.1209775"><ele>33.0</ele><time>2026-05-03T11:55:35.964Z</time></trkpt><trkpt lat="42.3719535" lon="14.1210629"><ele>33.0</ele><time>2026-05-03T11:55:36.963Z</time></trkpt><trkpt lat="42.3721149" lon="14.1211625"><ele>36.333333333333336</ele><time>2026-05-03T11:55:37.964Z</time></trkpt><trkpt lat="42.3722735" lon="14.1212827"><ele>39.66666666666667</ele><time>2026-05-03T11:55:38.964Z</time></trkpt><trkpt lat="42.3724332" lon="14.1214082"><ele>43.0</ele><time>2026-05-03T11:55:39.964Z</time></trkpt><trkpt lat="42.3725937" lon="14.1215322"><ele>42.333333333333336</ele><time>2026-05-03T11:55:40.964Z</time></trkpt><trkpt lat="42.3727427" lon="14.1216488"><ele>41.666666666666664</ele><time>2026-05-03T11:55:41.963Z</time></trkpt><trkpt lat="42.3728865" lon="14.1217602"><ele>41.0</ele><time>2026-05-03T11:55:42.963Z</time></trkpt><trkpt lat="42.373024" lon="14.1218654"><ele>41.0</ele><time>2026-05-03T11:55:43.964Z</time></trkpt><trkpt lat="42.3731553" lon="14.1219651"><ele>41.0</ele><time>2026-05-03T11:55:44.964Z</time></trkpt><trkpt lat="42.3732795" lon="14.1220639"><ele>41.0</ele><time>2026-05-03T11:55:45.963Z</time></trkpt><trkpt lat="42.3733992" lon="14.122159"><ele>41.0</ele><time>2026-05-03T11:55:46.964Z</time></trkpt><trkpt lat="42.3735138" lon="14.1222487"><ele>41.0</ele><time>2026-05-03T11:55:47.964Z</time></trkpt><trkpt lat="42.3736219" lon="14.1223345"><ele>41.0</ele><time>2026-05-03T11:55:48.963Z</time></trkpt><trkpt lat="42.3737236" lon="14.1224168"><ele>41.0</ele><time>2026-05-03T11:55:49.964Z</time></trkpt><trkpt lat="42.3738237" lon="14.1224913"><ele>41.0</ele><time>2026-05-03T11:55:50.964Z</time></trkpt><trkpt lat="42.3739201" lon="14.1225472"><ele>41.0</ele><time>2026-05-03T11:55:51.964Z</time></trkpt><trkpt lat="42.3740072" lon="14.122611"><ele>41.0</ele><time>2026-05-03T11:55:52.963Z</time></trkpt><trkpt lat="42.3740898" lon="14.122679"><ele>41.0</ele><time>2026-05-03T11:55:53.964Z</time></trkpt><trkpt lat="42.3741821" lon="14.122761"><ele>41.0</ele><time>2026-05-03T11:55:54.964Z</time></trkpt><trkpt lat="42.374298" lon="14.1228719"><ele>41.0</ele><time>2026-05-03T11:55:55.964Z</time></trkpt><trkpt lat="42.3744394" lon="14.1229996"><ele>41.0</ele><time>2026-05-03T11:55:56.963Z</time></trkpt><trkpt lat="42.3745932" lon="14.1231192"><ele>41.0</ele><time>2026-05-03T11:55:57.964Z</time></trkpt><trkpt lat="42.3747515" lon="14.1232432"><ele>41.0</ele><time>2026-05-03T11:55:58.963Z</time></trkpt><trkpt lat="42.3749073" lon="14.1233621"><ele>40.33333333333333</ele><time>2026-05-03T11:55:59.963Z</time></trkpt><trkpt lat="42.3750637" lon="14.1234809"><ele>39.666666666666664</ele><time>2026-05-03T11:56:00.963Z</time></trkpt><trkpt lat="42.375213" lon="14.1235917"><ele>39.0</ele><time>2026-05-03T11:56:01.964Z</time></trkpt><trkpt lat="42.3753559" lon="14.1237029"><ele>39.0</ele><time>2026-05-03T11:56:02.963Z</time></trkpt><trkpt lat="42.3754991" lon="14.1238157"><ele>39.0</ele><time>2026-05-03T11:56:03.964Z</time></trkpt><trkpt lat="42.3756355" lon="14.123907"><ele>39.0</ele><time>2026-05-03T11:56:04.964Z</time></trkpt><trkpt lat="42.3757696" lon="14.1239759"><ele>38.75</ele><time>2026-05-03T11:56:05.964Z</time></trkpt><trkpt lat="42.375901" lon="14.1240236"><ele>38.5</ele><time>2026-05-03T11:56:06.963Z</time></trkpt><trkpt lat="42.3760299" lon="14.1240519"><ele>38.25</ele><time>2026-05-03T11:56:07.964Z</time></trkpt><trkpt lat="42.37614" lon="14.1240884"><ele>38.0</ele><time>2026-05-03T11:56:08.964Z</time></trkpt><trkpt lat="42.3762286" lon="14.1241513"><ele>38.0</ele><time>2026-05-03T11:56:09.963Z</time></trkpt><trkpt lat="42.3762997" lon="14.1242401"><ele>38.0</ele><time>2026-05-03T11:56:10.963Z</time></trkpt><trkpt lat="42.3763528" lon="14.1243449"><ele>38.0</ele><time>2026-05-03T11:56:11.964Z</time></trkpt><trkpt lat="42.3764035" lon="14.1244396"><ele>38.0</ele><time>2026-05-03T11:56:12.963Z</time></trkpt><trkpt lat="42.376465" lon="14.1245045"><ele>38.0</ele><time>2026-05-03T11:56:13.963Z</time></trkpt><trkpt lat="42.376585" lon="14.1245187"><ele>37.75</ele><time>2026-05-03T11:56:15.963Z</time></trkpt><trkpt lat="42.3766643" lon="14.124414"><ele>37.5</ele><time>2026-05-03T11:56:17.963Z</time></trkpt><trkpt lat="42.3767147" lon="14.1242435"><ele>37.25</ele><time>2026-05-03T11:56:19.964Z</time></trkpt><trkpt lat="42.3767754" lon="14.1241384"><ele>37.0</ele><time>2026-05-03T11:56:20.964Z</time></trkpt><trkpt lat="42.3768587" lon="14.124013"><ele>38.75</ele><time>2026-05-03T11:56:21.964Z</time></trkpt><trkpt lat="42.3769568" lon="14.1238663"><ele>40.5</ele><time>2026-05-03T11:56:22.963Z</time></trkpt><trkpt lat="42.3770428" lon="14.1237279"><ele>42.25</ele><time>2026-05-03T11:56:23.963Z</time></trkpt><trkpt lat="42.3771255" lon="14.1236086"><ele>44.0</ele><time>2026-05-03T11:56:24.963Z</time></trkpt><trkpt lat="42.3772187" lon="14.1235113"><ele>44.5</ele><time>2026-05-03T11:56:25.963Z</time></trkpt><trkpt lat="42.377331" lon="14.1234441"><ele>45.0</ele><time>2026-05-03T11:56:26.964Z</time></trkpt><trkpt lat="42.3774636" lon="14.123416"><ele>45.5</ele><time>2026-05-03T11:56:27.963Z</time></trkpt><trkpt lat="42.3776187" lon="14.1234231"><ele>46.0</ele><time>2026-05-03T11:56:28.963Z</time></trkpt><trkpt lat="42.3777916" lon="14.1234568"><ele>46.0</ele><time>2026-05-03T11:56:29.964Z</time></trkpt><trkpt lat="42.3779662" lon="14.1234939"><ele>46.0</ele><time>2026-05-03T11:56:30.963Z</time></trkpt><trkpt lat="42.3781611" lon="14.1235232"><ele>46.0</ele><time>2026-05-03T11:56:31.964Z</time></trkpt><trkpt lat="42.3783631" lon="14.123551"><ele>49.0</ele><time>2026-05-03T11:56:32.964Z</time></trkpt><trkpt lat="42.3785595" lon="14.1235831"><ele>52.0</ele><time>2026-05-03T11:56:33.963Z</time></trkpt><trkpt lat="42.3787378" lon="14.1236099"><ele>55.0</ele><time>2026-05-03T11:56:34.964Z</time></trkpt><trkpt lat="42.3789063" lon="14.1236341"><ele>56.0</ele><time>2026-05-03T11:56:35.963Z</time></trkpt><trkpt lat="42.3790611" lon="14.1236596"><ele>57.0</ele><time>2026-05-03T11:56:36.963Z</time></trkpt><trkpt lat="42.379203" lon="14.1237008"><ele>58.0</ele><time>2026-05-03T11:56:37.964Z</time></trkpt><trkpt lat="42.3793305" lon="14.1237615"><ele>59.0</ele><time>2026-05-03T11:56:38.964Z</time></trkpt><trkpt lat="42.3794424" lon="14.1238414"><ele>59.0</ele><time>2026-05-03T11:56:39.964Z</time></trkpt><trkpt lat="42.3795406" lon="14.1239353"><ele>59.0</ele><time>2026-05-03T11:56:40.964Z</time></trkpt><trkpt lat="42.3796436" lon="14.1240388"><ele>59.0</ele><time>2026-05-03T11:56:41.964Z</time></trkpt><trkpt lat="42.3797616" lon="14.1241505"><ele>59.0</ele><time>2026-05-03T11:56:42.964Z</time></trkpt><trkpt lat="42.3798922" lon="14.1242699"><ele>56.66666666666667</ele><time>2026-05-03T11:56:43.963Z</time></trkpt><trkpt lat="42.3800369" lon="14.1243924"><ele>54.33333333333333</ele><time>2026-05-03T11:56:44.964Z</time></trkpt><trkpt lat="42.3801958" lon="14.1245122"><ele>52.0</ele><time>2026-05-03T11:56:45.964Z</time></trkpt><trkpt lat="42.3803529" lon="14.1246296"><ele>52.0</ele><time>2026-05-03T11:56:46.964Z</time></trkpt><trkpt lat="42.380513" lon="14.1247468"><ele>52.0</ele><time>2026-05-03T11:56:47.963Z</time></trkpt><trkpt lat="42.3806716" lon="14.124863"><ele>52.0</ele><time>2026-05-03T11:56:48.964Z</time></trkpt><trkpt lat="42.3808292" lon="14.1249824"><ele>50.666666666666664</ele><time>2026-05-03T11:56:49.963Z</time></trkpt><trkpt lat="42.3809894" lon="14.1251005"><ele>49.33333333333333</ele><time>2026-05-03T11:56:50.963Z</time></trkpt><trkpt lat="42.3811562" lon="14.1252179"><ele>48.0</ele><time>2026-05-03T11:56:51.963Z</time></trkpt><trkpt lat="42.3813261" lon="14.1253355"><ele>49.66666666666667</ele><time>2026-05-03T11:56:52.964Z</time></trkpt><trkpt lat="42.3814984" lon="14.125455"><ele>51.333333333333336</ele><time>2026-05-03T11:56:53.963Z</time></trkpt><trkpt lat="42.3816694" lon="14.1255795"><ele>53.0</ele><time>2026-05-03T11:56:54.964Z</time></trkpt><trkpt lat="42.3818357" lon="14.125713"><ele>53.0</ele><time>2026-05-03T11:56:55.963Z</time></trkpt><trkpt lat="42.3819978" lon="14.1258542"><ele>53.0</ele><time>2026-05-03T11:56:56.964Z</time></trkpt><trkpt lat="42.3821562" lon="14.1260006"><ele>53.0</ele><time>2026-05-03T11:56:57.963Z</time></trkpt><trkpt lat="42.3823113" lon="14.1261343"><ele>53.0</ele><time>2026-05-03T11:56:58.963Z</time></trkpt><trkpt lat="42.3824651" lon="14.1262405"><ele>53.0</ele><time>2026-05-03T11:56:59.964Z</time></trkpt><trkpt lat="42.3826191" lon="14.1263217"><ele>53.0</ele><time>2026-05-03T11:57:00.964Z</time></trkpt><trkpt lat="42.3827745" lon="14.1263746"><ele>53.0</ele><time>2026-05-03T11:57:01.964Z</time></trkpt><trkpt lat="42.3829312" lon="14.1264024"><ele>53.0</ele><time>2026-05-03T11:57:02.963Z</time></trkpt><trkpt lat="42.3830846" lon="14.126411"><ele>53.0</ele><time>2026-05-03T11:57:03.963Z</time></trkpt><trkpt lat="42.3832243" lon="14.1264155"><ele>53.0</ele><time>2026-05-03T11:57:04.963Z</time></trkpt><trkpt lat="42.3833444" lon="14.1264297"><ele>53.0</ele><time>2026-05-03T11:57:05.964Z</time></trkpt><trkpt lat="42.3834673" lon="14.1264746"><ele>53.0</ele><time>2026-05-03T11:57:06.964Z</time></trkpt><trkpt lat="42.3835915" lon="14.1265457"><ele>53.0</ele><time>2026-05-03T11:57:07.964Z</time></trkpt><trkpt lat="42.3837176" lon="14.1266183"><ele>50.25</ele><time>2026-05-03T11:57:08.964Z</time></trkpt><trkpt lat="42.383843" lon="14.1266875"><ele>47.5</ele><time>2026-05-03T11:57:09.964Z</time></trkpt><trkpt lat="42.3839691" lon="14.1267568"><ele>44.75</ele><time>2026-05-03T11:57:10.964Z</time></trkpt><trkpt lat="42.3840978" lon="14.1268263"><ele>42.0</ele><time>2026-05-03T11:57:11.964Z</time></trkpt><trkpt lat="42.384229" lon="14.1268859"><ele>42.0</ele><time>2026-05-03T11:57:12.963Z</time></trkpt><trkpt lat="42.3843613" lon="14.1269404"><ele>42.0</ele><time>2026-05-03T11:57:13.963Z</time></trkpt><trkpt lat="42.3844906" lon="14.1269939"><ele>42.0</ele><time>2026-05-03T11:57:14.963Z</time></trkpt><trkpt lat="42.3846182" lon="14.1270402"><ele>42.0</ele><time>2026-05-03T11:57:15.964Z</time></trkpt><trkpt lat="42.3847426" lon="14.1270849"><ele>42.75</ele><time>2026-05-03T11:57:16.964Z</time></trkpt><trkpt lat="42.3848598" lon="14.1271417"><ele>43.5</ele><time>2026-05-03T11:57:17.964Z</time></trkpt><trkpt lat="42.3849705" lon="14.1272108"><ele>44.25</ele><time>2026-05-03T11:57:18.964Z</time></trkpt><trkpt lat="42.3850749" lon="14.127293"><ele>45.0</ele><time>2026-05-03T11:57:19.963Z</time></trkpt><trkpt lat="42.3851749" lon="14.1273844"><ele>42.75</ele><time>2026-05-03T11:57:20.963Z</time></trkpt><trkpt lat="42.3852729" lon="14.1274861"><ele>40.5</ele><time>2026-05-03T11:57:21.963Z</time></trkpt><trkpt lat="42.3853703" lon="14.1275852"><ele>38.25</ele><time>2026-05-03T11:57:22.964Z</time></trkpt><trkpt lat="42.385467" lon="14.1276869"><ele>36.0</ele><time>2026-05-03T11:57:23.963Z</time></trkpt><trkpt lat="42.3855672" lon="14.12779"><ele>36.0</ele><time>2026-05-03T11:57:24.963Z</time></trkpt><trkpt lat="42.3856666" lon="14.1278954"><ele>36.0</ele><time>2026-05-03T11:57:25.963Z</time></trkpt><trkpt lat="42.3857691" lon="14.1279962"><ele>36.0</ele><time>2026-05-03T11:57:26.964Z</time></trkpt><trkpt lat="42.3858743" lon="14.1280937"><ele>36.0</ele><time>2026-05-03T11:57:27.964Z</time></trkpt><trkpt lat="42.3859811" lon="14.1281906"><ele>35.75</ele><time>2026-05-03T11:57:28.963Z</time></trkpt><trkpt lat="42.3860836" lon="14.1282898"><ele>35.5</ele><time>2026-05-03T11:57:29.964Z</time></trkpt><trkpt lat="42.3861818" lon="14.1283958"><ele>35.25</ele><time>2026-05-03T11:57:30.964Z</time></trkpt><trkpt lat="42.3862735" lon="14.1285093"><ele>35.0</ele><time>2026-05-03T11:57:31.964Z</time></trkpt><trkpt lat="42.386356" lon="14.1286329"><ele>35.5</ele><time>2026-05-03T11:57:32.964Z</time></trkpt><trkpt lat="42.3864329" lon="14.1287613"><ele>36.0</ele><time>2026-05-03T11:57:33.964Z</time></trkpt><trkpt lat="42.3865086" lon="14.1288884"><ele>36.5</ele><time>2026-05-03T11:57:34.964Z</time></trkpt><trkpt lat="42.3865853" lon="14.1290118"><ele>37.0</ele><time>2026-05-03T11:57:35.964Z</time></trkpt><trkpt lat="42.3866615" lon="14.1291324"><ele>36.0</ele><time>2026-05-03T11:57:36.964Z</time></trkpt><trkpt lat="42.3867376" lon="14.129252"><ele>35.0</ele><time>2026-05-03T11:57:37.963Z</time></trkpt><trkpt lat="42.3868172" lon="14.1293656"><ele>34.0</ele><time>2026-05-03T11:57:38.964Z</time></trkpt><trkpt lat="42.3869034" lon="14.1294697"><ele>33.0</ele><time>2026-05-03T11:57:39.963Z</time></trkpt><trkpt lat="42.3869918" lon="14.129567"><ele>33.0</ele><time>2026-05-03T11:57:40.964Z</time></trkpt><trkpt lat="42.3870805" lon="14.1296635"><ele>33.0</ele><time>2026-05-03T11:57:41.963Z</time></trkpt><trkpt lat="42.3871704" lon="14.1297591"><ele>33.0</ele><time>2026-05-03T11:57:42.963Z</time></trkpt><trkpt lat="42.3872629" lon="14.1298486"><ele>33.0</ele><time>2026-05-03T11:57:43.964Z</time></trkpt><trkpt lat="42.3873553" lon="14.1299344"><ele>32.8</ele><time>2026-05-03T11:57:44.964Z</time></trkpt><trkpt lat="42.3874476" lon="14.1300178"><ele>32.599999999999994</ele><time>2026-05-03T11:57:45.964Z</time></trkpt><trkpt lat="42.3875375" lon="14.1300963"><ele>32.400000000000006</ele><time>2026-05-03T11:57:46.964Z</time></trkpt><trkpt lat="42.3876222" lon="14.1301749"><ele>32.2</ele><time>2026-05-03T11:57:47.963Z</time></trkpt><trkpt lat="42.3877035" lon="14.1302531"><ele>32.0</ele><time>2026-05-03T11:57:48.964Z</time></trkpt><trkpt lat="42.3877815" lon="14.1303299"><ele>32.0</ele><time>2026-05-03T11:57:49.963Z</time></trkpt><trkpt lat="42.3878596" lon="14.1304001"><ele>32.0</ele><time>2026-05-03T11:57:50.963Z</time></trkpt><trkpt lat="42.3879391" lon="14.1304601"><ele>32.0</ele><time>2026-05-03T11:57:51.964Z</time></trkpt><trkpt lat="42.3880214" lon="14.1305077"><ele>32.0</ele><time>2026-05-03T11:57:52.963Z</time></trkpt><trkpt lat="42.3881043" lon="14.13055"><ele>32.0</ele><time>2026-05-03T11:57:53.963Z</time></trkpt><trkpt lat="42.3881933" lon="14.1305964"><ele>32.0</ele><time>2026-05-03T11:57:54.964Z</time></trkpt><trkpt lat="42.3882849" lon="14.1306437"><ele>32.0</ele><time>2026-05-03T11:57:55.963Z</time></trkpt><trkpt lat="42.3883858" lon="14.1306983"><ele>32.0</ele><time>2026-05-03T11:57:56.963Z</time></trkpt><trkpt lat="42.3884909" lon="14.1307578"><ele>32.0</ele><time>2026-05-03T11:57:57.964Z</time></trkpt><trkpt lat="42.3885985" lon="14.1308216"><ele>32.0</ele><time>2026-05-03T11:57:58.963Z</time></trkpt><trkpt lat="42.3887091" lon="14.1308886"><ele>32.0</ele><time>2026-05-03T11:57:59.963Z</time></trkpt><trkpt lat="42.3888209" lon="14.1309604"><ele>32.0</ele><time>2026-05-03T11:58:00.964Z</time></trkpt><trkpt lat="42.3889309" lon="14.1310339"><ele>32.0</ele><time>2026-05-03T11:58:01.963Z</time></trkpt><trkpt lat="42.3890332" lon="14.1311051"><ele>32.0</ele><time>2026-05-03T11:58:02.964Z</time></trkpt><trkpt lat="42.3891306" lon="14.1311765"><ele>32.2</ele><time>2026-05-03T11:58:03.964Z</time></trkpt><trkpt lat="42.3892256" lon="14.131251"><ele>32.400000000000006</ele><time>2026-05-03T11:58:04.964Z</time></trkpt><trkpt lat="42.3893191" lon="14.1313256"><ele>32.599999999999994</ele><time>2026-05-03T11:58:05.963Z</time></trkpt><trkpt lat="42.389412" lon="14.1313997"><ele>32.8</ele><time>2026-05-03T11:58:06.963Z</time></trkpt><trkpt lat="42.389506" lon="14.1314768"><ele>33.0</ele><time>2026-05-03T11:58:07.964Z</time></trkpt><trkpt lat="42.389602" lon="14.1315561"><ele>32.5</ele><time>2026-05-03T11:58:08.963Z</time></trkpt><trkpt lat="42.3896978" lon="14.1316399"><ele>32.0</ele><time>2026-05-03T11:58:09.963Z</time></trkpt><trkpt lat="42.3897948" lon="14.1317274"><ele>31.5</ele><time>2026-05-03T11:58:10.963Z</time></trkpt><trkpt lat="42.3898921" lon="14.1318146"><ele>31.0</ele><time>2026-05-03T11:58:11.964Z</time></trkpt><trkpt lat="42.3899983" lon="14.1319051"><ele>31.0</ele><time>2026-05-03T11:58:12.963Z</time></trkpt><trkpt lat="42.39012" lon="14.1320051"><ele>31.0</ele><time>2026-05-03T11:58:13.964Z</time></trkpt><trkpt lat="42.3902507" lon="14.1321159"><ele>31.0</ele><time>2026-05-03T11:58:14.964Z</time></trkpt><trkpt lat="42.3903835" lon="14.1322307"><ele>31.333333333333336</ele><time>2026-05-03T11:58:15.963Z</time></trkpt><trkpt lat="42.390519" lon="14.1323495"><ele>31.666666666666664</ele><time>2026-05-03T11:58:16.963Z</time></trkpt><trkpt lat="42.3906503" lon="14.1324685"><ele>32.0</ele><time>2026-05-03T11:58:17.963Z</time></trkpt><trkpt lat="42.3907718" lon="14.1325797"><ele>31.5</ele><time>2026-05-03T11:58:18.964Z</time></trkpt><trkpt lat="42.3908878" lon="14.1326867"><ele>31.0</ele><time>2026-05-03T11:58:19.964Z</time></trkpt><trkpt lat="42.3910013" lon="14.1327849"><ele>30.5</ele><time>2026-05-03T11:58:20.963Z</time></trkpt><trkpt lat="42.3911211" lon="14.1328833"><ele>30.0</ele><time>2026-05-03T11:58:21.964Z</time></trkpt><trkpt lat="42.3912605" lon="14.1330008"><ele>30.0</ele><time>2026-05-03T11:58:22.964Z</time></trkpt><trkpt lat="42.3914105" lon="14.133142"><ele>30.0</ele><time>2026-05-03T11:58:23.963Z</time></trkpt><trkpt lat="42.3915668" lon="14.133297"><ele>30.0</ele><time>2026-05-03T11:58:24.963Z</time></trkpt><trkpt lat="42.3917261" lon="14.1334442"><ele>30.0</ele><time>2026-05-03T11:58:25.963Z</time></trkpt><trkpt lat="42.3918955" lon="14.1336006"><ele>30.0</ele><time>2026-05-03T11:58:26.963Z</time></trkpt><trkpt lat="42.3920603" lon="14.1337512"><ele>30.0</ele><time>2026-05-03T11:58:27.964Z</time></trkpt><trkpt lat="42.3922433" lon="14.13391"><ele>29.5</ele><time>2026-05-03T11:58:28.964Z</time></trkpt><trkpt lat="42.3924252" lon="14.134076"><ele>29.0</ele><time>2026-05-03T11:58:29.964Z</time></trkpt><trkpt lat="42.3926308" lon="14.1342331"><ele>29.0</ele><time>2026-05-03T11:58:30.964Z</time></trkpt><trkpt lat="42.3928092" lon="14.1344259"><ele>29.0</ele><time>2026-05-03T11:58:31.963Z</time></trkpt><trkpt lat="42.3930331" lon="14.1345773"><ele>29.5</ele><time>2026-05-03T11:58:32.964Z</time></trkpt><trkpt lat="42.39324" lon="14.1347665"><ele>30.0</ele><time>2026-05-03T11:58:33.963Z</time></trkpt><trkpt lat="42.3934392" lon="14.1349478"><ele>28.5</ele><time>2026-05-03T11:58:34.964Z</time></trkpt><trkpt lat="42.393638" lon="14.1351267"><ele>27.0</ele><time>2026-05-03T11:58:35.964Z</time></trkpt><trkpt lat="42.3938349" lon="14.1353021"><ele>28.5</ele><time>2026-05-03T11:58:36.964Z</time></trkpt><trkpt lat="42.39403" lon="14.1354799"><ele>30.0</ele><time>2026-05-03T11:58:37.963Z</time></trkpt><trkpt lat="42.3942239" lon="14.1356551"><ele>28.0</ele><time>2026-05-03T11:58:38.963Z</time></trkpt><trkpt lat="42.3944136" lon="14.1358305"><ele>26.0</ele><time>2026-05-03T11:58:39.964Z</time></trkpt><trkpt lat="42.3945998" lon="14.1360012"><ele>27.0</ele><time>2026-05-03T11:58:40.964Z</time></trkpt><trkpt lat="42.3947744" lon="14.1361595"><ele>28.0</ele><time>2026-05-03T11:58:41.964Z</time></trkpt><trkpt lat="42.3949399" lon="14.1363113"><ele>29.0</ele><time>2026-05-03T11:58:42.964Z</time></trkpt><trkpt lat="42.3950971" lon="14.1364534"><ele>28.0</ele><time>2026-05-03T11:58:43.964Z</time></trkpt><trkpt lat="42.3952479" lon="14.1365897"><ele>27.0</ele><time>2026-05-03T11:58:44.964Z</time></trkpt><trkpt lat="42.3953916" lon="14.1367167"><ele>26.0</ele><time>2026-05-03T11:58:45.964Z</time></trkpt><trkpt lat="42.3955302" lon="14.1368391"><ele>26.0</ele><time>2026-05-03T11:58:46.964Z</time></trkpt><trkpt lat="42.3956583" lon="14.1369551"><ele>26.0</ele><time>2026-05-03T11:58:47.963Z</time></trkpt><trkpt lat="42.3957722" lon="14.1370598"><ele>26.0</ele><time>2026-05-03T11:58:48.963Z</time></trkpt><trkpt lat="42.3958734" lon="14.1371567"><ele>26.0</ele><time>2026-05-03T11:58:49.964Z</time></trkpt><trkpt lat="42.3959756" lon="14.1372493"><ele>26.0</ele><time>2026-05-03T11:58:50.964Z</time></trkpt><trkpt lat="42.3960749" lon="14.1373333"><ele>26.0</ele><time>2026-05-03T11:58:51.964Z</time></trkpt><trkpt lat="42.3961781" lon="14.1374211"><ele>26.0</ele><time>2026-05-03T11:58:52.963Z</time></trkpt><trkpt lat="42.3962829" lon="14.1375115"><ele>26.0</ele><time>2026-05-03T11:58:53.964Z</time></trkpt><trkpt lat="42.3963959" lon="14.1376152"><ele>26.333333333333332</ele><time>2026-05-03T11:58:54.963Z</time></trkpt><trkpt lat="42.3965162" lon="14.1377236"><ele>26.666666666666664</ele><time>2026-05-03T11:58:55.964Z</time></trkpt><trkpt lat="42.3966426" lon="14.1378395"><ele>27.0</ele><time>2026-05-03T11:58:56.963Z</time></trkpt><trkpt lat="42.3967735" lon="14.1379605"><ele>27.0</ele><time>2026-05-03T11:58:57.964Z</time></trkpt><trkpt lat="42.3969119" lon="14.1380802"><ele>27.0</ele><time>2026-05-03T11:58:58.963Z</time></trkpt><trkpt lat="42.3970552" lon="14.1381994"><ele>27.0</ele><time>2026-05-03T11:58:59.964Z</time></trkpt><trkpt lat="42.3971992" lon="14.1383236"><ele>26.666666666666664</ele><time>2026-05-03T11:59:00.964Z</time></trkpt><trkpt lat="42.3973422" lon="14.138449"><ele>26.333333333333332</ele><time>2026-05-03T11:59:01.963Z</time></trkpt><trkpt lat="42.3974871" lon="14.1385772"><ele>26.0</ele><time>2026-05-03T11:59:02.964Z</time></trkpt><trkpt lat="42.3976312" lon="14.138708"><ele>26.0</ele><time>2026-05-03T11:59:03.964Z</time></trkpt><trkpt lat="42.3977755" lon="14.1388405"><ele>26.0</ele><time>2026-05-03T11:59:04.964Z</time></trkpt><trkpt lat="42.3979196" lon="14.1389733"><ele>26.0</ele><time>2026-05-03T11:59:05.963Z</time></trkpt><trkpt lat="42.3980653" lon="14.139103"><ele>26.0</ele><time>2026-05-03T11:59:06.964Z</time></trkpt><trkpt lat="42.3982118" lon="14.139233"><ele>26.0</ele><time>2026-05-03T11:59:07.964Z</time></trkpt><trkpt lat="42.3983572" lon="14.1393605"><ele>26.0</ele><time>2026-05-03T11:59:08.964Z</time></trkpt><trkpt lat="42.3985007" lon="14.1394907"><ele>26.0</ele><time>2026-05-03T11:59:09.964Z</time></trkpt><trkpt lat="42.3986429" lon="14.1396217"><ele>26.0</ele><time>2026-05-03T11:59:10.964Z</time></trkpt><trkpt lat="42.3987855" lon="14.1397523"><ele>26.0</ele><time>2026-05-03T11:59:11.964Z</time></trkpt><trkpt lat="42.3989284" lon="14.1398819"><ele>25.666666666666664</ele><time>2026-05-03T11:59:12.964Z</time></trkpt><trkpt lat="42.3990713" lon="14.1400108"><ele>25.333333333333336</ele><time>2026-05-03T11:59:13.964Z</time></trkpt><trkpt lat="42.399215" lon="14.1401386"><ele>25.0</ele><time>2026-05-03T11:59:14.964Z</time></trkpt><trkpt lat="42.3993572" lon="14.1402656"><ele>25.0</ele><time>2026-05-03T11:59:15.964Z</time></trkpt><trkpt lat="42.3995006" lon="14.1403944"><ele>25.0</ele><time>2026-05-03T11:59:16.964Z</time></trkpt><trkpt lat="42.3996466" lon="14.1405246"><ele>25.0</ele><time>2026-05-03T11:59:17.963Z</time></trkpt><trkpt lat="42.3997914" lon="14.1406568"><ele>25.333333333333336</ele><time>2026-05-03T11:59:18.964Z</time></trkpt><trkpt lat="42.3999385" lon="14.1407885"><ele>25.666666666666664</ele><time>2026-05-03T11:59:19.964Z</time></trkpt><trkpt lat="42.4000898" lon="14.1409174"><ele>26.0</ele><time>2026-05-03T11:59:20.964Z</time></trkpt><trkpt lat="42.4002421" lon="14.1410485"><ele>26.0</ele><time>2026-05-03T11:59:21.964Z</time></trkpt><trkpt lat="42.400393" lon="14.1411844"><ele>26.0</ele><time>2026-05-03T11:59:22.964Z</time></trkpt><trkpt lat="42.4005444" lon="14.1413221"><ele>26.0</ele><time>2026-05-03T11:59:23.964Z</time></trkpt><trkpt lat="42.400696" lon="14.1414591"><ele>25.666666666666664</ele><time>2026-05-03T11:59:24.964Z</time></trkpt><trkpt lat="42.4008483" lon="14.1415953"><ele>25.333333333333336</ele><time>2026-05-03T11:59:25.963Z</time></trkpt><trkpt lat="42.400999" lon="14.141732"><ele>25.0</ele><time>2026-05-03T11:59:26.963Z</time></trkpt><trkpt lat="42.4011501" lon="14.1418669"><ele>25.0</ele><time>2026-05-03T11:59:27.964Z</time></trkpt><trkpt lat="42.4013004" lon="14.1420009"><ele>25.0</ele><time>2026-05-03T11:59:28.963Z</time></trkpt><trkpt lat="42.4014514" lon="14.1421356"><ele>25.0</ele><time>2026-05-03T11:59:29.964Z</time></trkpt><trkpt lat="42.4016039" lon="14.1422721"><ele>24.333333333333336</ele><time>2026-05-03T11:59:30.963Z</time></trkpt><trkpt lat="42.4017569" lon="14.1424106"><ele>23.666666666666668</ele><time>2026-05-03T11:59:31.963Z</time></trkpt><trkpt lat="42.4019107" lon="14.1425497"><ele>23.0</ele><time>2026-05-03T11:59:32.964Z</time></trkpt><trkpt lat="42.4020654" lon="14.1426867"><ele>23.333333333333336</ele><time>2026-05-03T11:59:33.963Z</time></trkpt><trkpt lat="42.4022214" lon="14.142823"><ele>23.666666666666668</ele><time>2026-05-03T11:59:34.964Z</time></trkpt><trkpt lat="42.4023771" lon="14.1429614"><ele>24.0</ele><time>2026-05-03T11:59:35.964Z</time></trkpt><trkpt lat="42.4025345" lon="14.143098"><ele>24.0</ele><time>2026-05-03T11:59:36.964Z</time></trkpt><trkpt lat="42.4026922" lon="14.1432346"><ele>24.0</ele><time>2026-05-03T11:59:37.964Z</time></trkpt><trkpt lat="42.4028507" lon="14.1433702"><ele>24.0</ele><time>2026-05-03T11:59:38.963Z</time></trkpt><trkpt lat="42.4030094" lon="14.1435075"><ele>24.0</ele><time>2026-05-03T11:59:39.964Z</time></trkpt><trkpt lat="42.4031671" lon="14.1436487"><ele>24.0</ele><time>2026-05-03T11:59:40.964Z</time></trkpt><trkpt lat="42.4033251" lon="14.1437888"><ele>24.0</ele><time>2026-05-03T11:59:41.964Z</time></trkpt><trkpt lat="42.4034844" lon="14.1439302"><ele>24.333333333333336</ele><time>2026-05-03T11:59:42.963Z</time></trkpt><trkpt lat="42.4036427" lon="14.144073"><ele>24.666666666666668</ele><time>2026-05-03T11:59:43.963Z</time></trkpt><trkpt lat="42.4038" lon="14.1442168"><ele>25.0</ele><time>2026-05-03T11:59:44.964Z</time></trkpt><trkpt lat="42.4039569" lon="14.14436"><ele>25.0</ele><time>2026-05-03T11:59:45.964Z</time></trkpt><trkpt lat="42.4041138" lon="14.144503"><ele>25.0</ele><time>2026-05-03T11:59:46.964Z</time></trkpt><trkpt lat="42.4042711" lon="14.1446466"><ele>25.0</ele><time>2026-05-03T11:59:47.963Z</time></trkpt><trkpt lat="42.4044291" lon="14.1447898"><ele>25.333333333333336</ele><time>2026-05-03T11:59:48.963Z</time></trkpt><trkpt lat="42.4045877" lon="14.1449321"><ele>25.666666666666664</ele><time>2026-05-03T11:59:49.964Z</time></trkpt><trkpt lat="42.4047445" lon="14.1450707"><ele>26.0</ele><time>2026-05-03T11:59:50.963Z</time></trkpt><trkpt lat="42.4048935" lon="14.1452023"><ele>25.0</ele><time>2026-05-03T11:59:51.963Z</time></trkpt><trkpt lat="42.4050355" lon="14.1453299"><ele>24.0</ele><time>2026-05-03T11:59:52.964Z</time></trkpt><trkpt lat="42.405166" lon="14.1454483"><ele>23.0</ele><time>2026-05-03T11:59:53.963Z</time></trkpt><trkpt lat="42.4052762" lon="14.1455498"><ele>23.0</ele><time>2026-05-03T11:59:54.964Z</time></trkpt><trkpt lat="42.4053653" lon="14.1456339"><ele>23.0</ele><time>2026-05-03T11:59:55.963Z</time></trkpt><trkpt lat="42.4054265" lon="14.1456978"><ele>23.0</ele><time>2026-05-03T11:59:56.964Z</time></trkpt><trkpt lat="42.4054667" lon="14.145788"><ele>23.0</ele><time>2026-05-03T11:59:58.964Z</time></trkpt><trkpt lat="42.4054587" lon="14.1458889"><ele>23.0</ele><time>2026-05-03T12:00:00.964Z</time></trkpt><trkpt lat="42.4054492" lon="14.1460044"><ele>23.0</ele><time>2026-05-03T12:00:02.963Z</time></trkpt><trkpt lat="42.4054941" lon="14.1460972"><ele>22.799999999999997</ele><time>2026-05-03T12:00:04.964Z</time></trkpt><trkpt lat="42.4055891" lon="14.1461123"><ele>22.6</ele><time>2026-05-03T12:00:06.964Z</time></trkpt><trkpt lat="42.4056977" lon="14.1460574"><ele>22.4</ele><time>2026-05-03T12:00:08.963Z</time></trkpt><trkpt lat="42.4058194" lon="14.146064"><ele>22.200000000000003</ele><time>2026-05-03T12:00:10.964Z</time></trkpt><trkpt lat="42.4058918" lon="14.1461145"><ele>22.0</ele><time>2026-05-03T12:00:11.964Z</time></trkpt><trkpt lat="42.4059858" lon="14.1462015"><ele>22.0</ele><time>2026-05-03T12:00:12.964Z</time></trkpt><trkpt lat="42.406105" lon="14.1463101"><ele>22.0</ele><time>2026-05-03T12:00:13.964Z</time></trkpt><trkpt lat="42.4062517" lon="14.1464407"><ele>22.0</ele><time>2026-05-03T12:00:14.963Z</time></trkpt><trkpt lat="42.4064013" lon="14.1465693"><ele>22.0</ele><time>2026-05-03T12:00:15.964Z</time></trkpt><trkpt lat="42.4065603" lon="14.1466969"><ele>22.0</ele><time>2026-05-03T12:00:16.964Z</time></trkpt><trkpt lat="42.4067279" lon="14.1468101"><ele>22.0</ele><time>2026-05-03T12:00:17.963Z</time></trkpt><trkpt lat="42.4069064" lon="14.1469059"><ele>22.0</ele><time>2026-05-03T12:00:18.963Z</time></trkpt><trkpt lat="42.4070688" lon="14.1469748"><ele>22.0</ele><time>2026-05-03T12:00:19.964Z</time></trkpt><trkpt lat="42.4072238" lon="14.1470355"><ele>22.0</ele><time>2026-05-03T12:00:20.964Z</time></trkpt><trkpt lat="42.407371" lon="14.1470815"><ele>21.0</ele><time>2026-05-03T12:00:21.964Z</time></trkpt><trkpt lat="42.4075114" lon="14.1471114"><ele>20.0</ele><time>2026-05-03T12:00:22.963Z</time></trkpt><trkpt lat="42.4076454" lon="14.1471344"><ele>19.0</ele><time>2026-05-03T12:00:23.963Z</time></trkpt><trkpt lat="42.4077726" lon="14.1471596"><ele>18.0</ele><time>2026-05-03T12:00:24.964Z</time></trkpt><trkpt lat="42.4078933" lon="14.1471869"><ele>17.75</ele><time>2026-05-03T12:00:25.963Z</time></trkpt><trkpt lat="42.4080139" lon="14.1472157"><ele>17.5</ele><time>2026-05-03T12:00:26.964Z</time></trkpt><trkpt lat="42.4081395" lon="14.1472503"><ele>17.25</ele><time>2026-05-03T12:00:27.963Z</time></trkpt><trkpt lat="42.4082673" lon="14.1472908"><ele>17.0</ele><time>2026-05-03T12:00:28.964Z</time></trkpt><trkpt lat="42.4083985" lon="14.1473419"><ele>17.0</ele><time>2026-05-03T12:00:29.964Z</time></trkpt><trkpt lat="42.4085317" lon="14.1474045"><ele>17.0</ele><time>2026-05-03T12:00:30.963Z</time></trkpt><trkpt lat="42.4086643" lon="14.1474801"><ele>17.0</ele><time>2026-05-03T12:00:31.963Z</time></trkpt><trkpt lat="42.4087966" lon="14.1475711"><ele>17.0</ele><time>2026-05-03T12:00:32.963Z</time></trkpt><trkpt lat="42.4089291" lon="14.1476705"><ele>17.0</ele><time>2026-05-03T12:00:33.964Z</time></trkpt><trkpt lat="42.4090623" lon="14.1477764"><ele>17.0</ele><time>2026-05-03T12:00:34.964Z</time></trkpt><trkpt lat="42.4091979" lon="14.147884"><ele>17.0</ele><time>2026-05-03T12:00:35.964Z</time></trkpt><trkpt lat="42.4093377" lon="14.1479913"><ele>17.0</ele><time>2026-05-03T12:00:36.963Z</time></trkpt><trkpt lat="42.4094824" lon="14.1480991"><ele>17.0</ele><time>2026-05-03T12:00:37.964Z</time></trkpt><trkpt lat="42.4096374" lon="14.1482157"><ele>17.0</ele><time>2026-05-03T12:00:38.964Z</time></trkpt><trkpt lat="42.4098016" lon="14.1483438"><ele>17.666666666666668</ele><time>2026-05-03T12:00:39.963Z</time></trkpt><trkpt lat="42.4099783" lon="14.1484824"><ele>18.333333333333332</ele><time>2026-05-03T12:00:40.964Z</time></trkpt><trkpt lat="42.4101681" lon="14.1486315"><ele>19.0</ele><time>2026-05-03T12:00:41.964Z</time></trkpt><trkpt lat="42.4103535" lon="14.1487781"><ele>19.0</ele><time>2026-05-03T12:00:42.964Z</time></trkpt><trkpt lat="42.4105454" lon="14.1489303"><ele>19.0</ele><time>2026-05-03T12:00:43.964Z</time></trkpt><trkpt lat="42.4107408" lon="14.1490829"><ele>19.0</ele><time>2026-05-03T12:00:44.964Z</time></trkpt><trkpt lat="42.4109367" lon="14.1492337"><ele>20.0</ele><time>2026-05-03T12:00:45.963Z</time></trkpt><trkpt lat="42.4111343" lon="14.1493872"><ele>21.0</ele><time>2026-05-03T12:00:46.964Z</time></trkpt><trkpt lat="42.411335" lon="14.1495436"><ele>21.0</ele><time>2026-05-03T12:00:47.964Z</time></trkpt><trkpt lat="42.4115352" lon="14.1497037"><ele>21.0</ele><time>2026-05-03T12:00:48.964Z</time></trkpt><trkpt lat="42.4117378" lon="14.149864"><ele>19.5</ele><time>2026-05-03T12:00:49.964Z</time></trkpt><trkpt lat="42.4119413" lon="14.1500252"><ele>18.0</ele><time>2026-05-03T12:00:50.964Z</time></trkpt><trkpt lat="42.412144" lon="14.1501857"><ele>16.5</ele><time>2026-05-03T12:00:51.964Z</time></trkpt><trkpt lat="42.4123454" lon="14.150345"><ele>15.0</ele><time>2026-05-03T12:00:52.964Z</time></trkpt><trkpt lat="42.4125423" lon="14.1505014"><ele>15.0</ele><time>2026-05-03T12:00:53.964Z</time></trkpt><trkpt lat="42.4127301" lon="14.1506565"><ele>15.0</ele><time>2026-05-03T12:00:54.963Z</time></trkpt><trkpt lat="42.4129113" lon="14.150819"><ele>15.0</ele><time>2026-05-03T12:00:55.963Z</time></trkpt><trkpt lat="42.4130808" lon="14.1509944"><ele>15.0</ele><time>2026-05-03T12:00:56.964Z</time></trkpt><trkpt lat="42.4132393" lon="14.1511657"><ele>15.0</ele><time>2026-05-03T12:00:57.964Z</time></trkpt><trkpt lat="42.4133977" lon="14.1513267"><ele>15.0</ele><time>2026-05-03T12:00:58.964Z</time></trkpt><trkpt lat="42.4135599" lon="14.1514771"><ele>15.333333333333332</ele><time>2026-05-03T12:00:59.964Z</time></trkpt><trkpt lat="42.4137256" lon="14.1516113"><ele>15.666666666666666</ele><time>2026-05-03T12:01:00.964Z</time></trkpt><trkpt lat="42.4138973" lon="14.1517269"><ele>16.0</ele><time>2026-05-03T12:01:01.964Z</time></trkpt><trkpt lat="42.4140743" lon="14.1518266"><ele>16.0</ele><time>2026-05-03T12:01:02.964Z</time></trkpt><trkpt lat="42.4142512" lon="14.151909"><ele>16.0</ele><time>2026-05-03T12:01:03.964Z</time></trkpt><trkpt lat="42.4144293" lon="14.1519711"><ele>16.0</ele><time>2026-05-03T12:01:04.964Z</time></trkpt><trkpt lat="42.4146083" lon="14.1520132"><ele>15.666666666666666</ele><time>2026-05-03T12:01:05.964Z</time></trkpt><trkpt lat="42.4147823" lon="14.1520408"><ele>15.333333333333332</ele><time>2026-05-03T12:01:06.964Z</time></trkpt><trkpt lat="42.4149498" lon="14.1520638"><ele>15.0</ele><time>2026-05-03T12:01:07.964Z</time></trkpt><trkpt lat="42.4151211" lon="14.1520797"><ele>15.0</ele><time>2026-05-03T12:01:08.964Z</time></trkpt><trkpt lat="42.4152918" lon="14.1520886"><ele>15.0</ele><time>2026-05-03T12:01:09.963Z</time></trkpt><trkpt lat="42.4154629" lon="14.1520977"><ele>15.0</ele><time>2026-05-03T12:01:10.963Z</time></trkpt><trkpt lat="42.4156302" lon="14.1521121"><ele>15.333333333333332</ele><time>2026-05-03T12:01:11.963Z</time></trkpt><trkpt lat="42.4157969" lon="14.1521436"><ele>15.666666666666666</ele><time>2026-05-03T12:01:12.963Z</time></trkpt><trkpt lat="42.4159579" lon="14.1521927"><ele>16.0</ele><time>2026-05-03T12:01:13.964Z</time></trkpt><trkpt lat="42.4161077" lon="14.1522635"><ele>16.0</ele><time>2026-05-03T12:01:14.964Z</time></trkpt><trkpt lat="42.4162444" lon="14.1523601"><ele>16.0</ele><time>2026-05-03T12:01:15.964Z</time></trkpt><trkpt lat="42.4163692" lon="14.1524917"><ele>16.0</ele><time>2026-05-03T12:01:16.964Z</time></trkpt><trkpt lat="42.4164859" lon="14.1526475"><ele>17.333333333333332</ele><time>2026-05-03T12:01:17.964Z</time></trkpt><trkpt lat="42.4166053" lon="14.1528103"><ele>18.666666666666668</ele><time>2026-05-03T12:01:18.964Z</time></trkpt><trkpt lat="42.4167295" lon="14.1529744"><ele>20.0</ele><time>2026-05-03T12:01:19.964Z</time></trkpt><trkpt lat="42.4168559" lon="14.153144"><ele>19.666666666666668</ele><time>2026-05-03T12:01:20.963Z</time></trkpt><trkpt lat="42.4169848" lon="14.15332"><ele>19.333333333333332</ele><time>2026-05-03T12:01:21.964Z</time></trkpt><trkpt lat="42.4171187" lon="14.1534955"><ele>19.0</ele><time>2026-05-03T12:01:22.964Z</time></trkpt><trkpt lat="42.4172533" lon="14.1536733"><ele>19.0</ele><time>2026-05-03T12:01:23.964Z</time></trkpt><trkpt lat="42.4173884" lon="14.1538557"><ele>19.0</ele><time>2026-05-03T12:01:24.964Z</time></trkpt><trkpt lat="42.4175256" lon="14.1540425"><ele>19.0</ele><time>2026-05-03T12:01:25.964Z</time></trkpt><trkpt lat="42.4176733" lon="14.1542421"><ele>19.0</ele><time>2026-05-03T12:01:26.964Z</time></trkpt><trkpt lat="42.4178309" lon="14.1544513"><ele>19.0</ele><time>2026-05-03T12:01:27.964Z</time></trkpt><trkpt lat="42.4179988" lon="14.1546624"><ele>18.0</ele><time>2026-05-03T12:01:28.964Z</time></trkpt><trkpt lat="42.4181813" lon="14.1548902"><ele>17.0</ele><time>2026-05-03T12:01:29.964Z</time></trkpt><trkpt lat="42.4183618" lon="14.1551406"><ele>17.0</ele><time>2026-05-03T12:01:30.964Z</time></trkpt><trkpt lat="42.4185252" lon="14.1553856"><ele>17.0</ele><time>2026-05-03T12:01:31.964Z</time></trkpt><trkpt lat="42.4186826" lon="14.1556179"><ele>19.0</ele><time>2026-05-03T12:01:32.963Z</time></trkpt><trkpt lat="42.4188318" lon="14.155839"><ele>21.0</ele><time>2026-05-03T12:01:33.963Z</time></trkpt><trkpt lat="42.4189772" lon="14.1560418"><ele>23.0</ele><time>2026-05-03T12:01:34.963Z</time></trkpt><trkpt lat="42.4191108" lon="14.1562026"><ele>23.0</ele><time>2026-05-03T12:01:35.963Z</time></trkpt><trkpt lat="42.4192488" lon="14.1563281"><ele>23.0</ele><time>2026-05-03T12:01:36.964Z</time></trkpt><trkpt lat="42.4194017" lon="14.1564259"><ele>23.0</ele><time>2026-05-03T12:01:37.964Z</time></trkpt><trkpt lat="42.4195759" lon="14.1565038"><ele>22.0</ele><time>2026-05-03T12:01:38.964Z</time></trkpt><trkpt lat="42.4197589" lon="14.1565779"><ele>21.0</ele><time>2026-05-03T12:01:39.964Z</time></trkpt><trkpt lat="42.4199402" lon="14.156648"><ele>20.0</ele><time>2026-05-03T12:01:40.963Z</time></trkpt><trkpt lat="42.4201369" lon="14.1567168"><ele>20.0</ele><time>2026-05-03T12:01:41.964Z</time></trkpt><trkpt lat="42.4203366" lon="14.1568006"><ele>20.0</ele><time>2026-05-03T12:01:42.963Z</time></trkpt><trkpt lat="42.4205348" lon="14.1568972"><ele>20.0</ele><time>2026-05-03T12:01:43.964Z</time></trkpt><trkpt lat="42.4207297" lon="14.1569879"><ele>20.333333333333336</ele><time>2026-05-03T12:01:44.964Z</time></trkpt><trkpt lat="42.4209133" lon="14.1570669"><ele>20.666666666666668</ele><time>2026-05-03T12:01:45.963Z</time></trkpt><trkpt lat="42.4210898" lon="14.1571411"><ele>21.0</ele><time>2026-05-03T12:01:46.963Z</time></trkpt><trkpt lat="42.421258" lon="14.1572101"><ele>21.666666666666668</ele><time>2026-05-03T12:01:47.964Z</time></trkpt><trkpt lat="42.4214203" lon="14.1572756"><ele>22.333333333333336</ele><time>2026-05-03T12:01:48.964Z</time></trkpt><trkpt lat="42.4215756" lon="14.157343"><ele>23.0</ele><time>2026-05-03T12:01:49.963Z</time></trkpt><trkpt lat="42.4217262" lon="14.157396"><ele>22.25</ele><time>2026-05-03T12:01:50.963Z</time></trkpt><trkpt lat="42.4218742" lon="14.1574202"><ele>21.5</ele><time>2026-05-03T12:01:51.964Z</time></trkpt><trkpt lat="42.4220029" lon="14.1574215"><ele>20.75</ele><time>2026-05-03T12:01:52.964Z</time></trkpt><trkpt lat="42.4221107" lon="14.1574223"><ele>20.0</ele><time>2026-05-03T12:01:53.964Z</time></trkpt><trkpt lat="42.4222148" lon="14.1574482"><ele>20.0</ele><time>2026-05-03T12:01:54.964Z</time></trkpt><trkpt lat="42.4223087" lon="14.1574895"><ele>20.0</ele><time>2026-05-03T12:01:55.964Z</time></trkpt><trkpt lat="42.4223927" lon="14.1575277"><ele>20.0</ele><time>2026-05-03T12:01:56.963Z</time></trkpt><trkpt lat="42.4224689" lon="14.1575546"><ele>20.0</ele><time>2026-05-03T12:01:57.964Z</time></trkpt><trkpt lat="42.4225401" lon="14.1575869"><ele>20.0</ele><time>2026-05-03T12:01:58.964Z</time></trkpt><trkpt lat="42.4226032" lon="14.1576333"><ele>20.0</ele><time>2026-05-03T12:01:59.964Z</time></trkpt><trkpt lat="42.4226687" lon="14.15769"><ele>20.0</ele><time>2026-05-03T12:02:00.963Z</time></trkpt><trkpt lat="42.4227301" lon="14.1577407"><ele>20.0</ele><time>2026-05-03T12:02:01.964Z</time></trkpt><trkpt lat="42.4227932" lon="14.1577835"><ele>20.0</ele><time>2026-05-03T12:02:02.963Z</time></trkpt><trkpt lat="42.4228635" lon="14.157822"><ele>20.0</ele><time>2026-05-03T12:02:03.964Z</time></trkpt><trkpt lat="42.4229424" lon="14.1578616"><ele>20.0</ele><time>2026-05-03T12:02:04.964Z</time></trkpt><trkpt lat="42.4230485" lon="14.1579024"><ele>20.0</ele><time>2026-05-03T12:02:05.964Z</time></trkpt><trkpt lat="42.4231809" lon="14.1579593"><ele>19.333333333333336</ele><time>2026-05-03T12:02:06.964Z</time></trkpt><trkpt lat="42.423319" lon="14.158028"><ele>18.666666666666668</ele><time>2026-05-03T12:02:07.964Z</time></trkpt><trkpt lat="42.4234599" lon="14.1580933"><ele>18.0</ele><time>2026-05-03T12:02:08.964Z</time></trkpt><trkpt lat="42.4236083" lon="14.158159"><ele>18.0</ele><time>2026-05-03T12:02:09.963Z</time></trkpt><trkpt lat="42.4237576" lon="14.1582229"><ele>18.0</ele><time>2026-05-03T12:02:10.964Z</time></trkpt><trkpt lat="42.4239098" lon="14.1582829"><ele>18.0</ele><time>2026-05-03T12:02:11.964Z</time></trkpt><trkpt lat="42.4240622" lon="14.1583465"><ele>17.666666666666668</ele><time>2026-05-03T12:02:12.963Z</time></trkpt><trkpt lat="42.4242157" lon="14.1584164"><ele>17.333333333333336</ele><time>2026-05-03T12:02:13.964Z</time></trkpt><trkpt lat="42.4243695" lon="14.1584872"><ele>17.0</ele><time>2026-05-03T12:02:14.964Z</time></trkpt><trkpt lat="42.4245139" lon="14.1585515"><ele>17.25</ele><time>2026-05-03T12:02:15.963Z</time></trkpt><trkpt lat="42.4246501" lon="14.1586126"><ele>17.5</ele><time>2026-05-03T12:02:16.964Z</time></trkpt><trkpt lat="42.4247801" lon="14.1586676"><ele>17.75</ele><time>2026-05-03T12:02:17.964Z</time></trkpt><trkpt lat="42.4249123" lon="14.1587211"><ele>18.0</ele><time>2026-05-03T12:02:18.964Z</time></trkpt><trkpt lat="42.4250501" lon="14.1587742"><ele>18.0</ele><time>2026-05-03T12:02:19.963Z</time></trkpt><trkpt lat="42.4251888" lon="14.1588298"><ele>18.0</ele><time>2026-05-03T12:02:20.964Z</time></trkpt><trkpt lat="42.4253213" lon="14.1588855"><ele>18.0</ele><time>2026-05-03T12:02:21.964Z</time></trkpt><trkpt lat="42.4254468" lon="14.1589413"><ele>18.0</ele><time>2026-05-03T12:02:22.964Z</time></trkpt><trkpt lat="42.4255631" lon="14.1589959"><ele>18.25</ele><time>2026-05-03T12:02:23.963Z</time></trkpt><trkpt lat="42.4256666" lon="14.1590453"><ele>18.5</ele><time>2026-05-03T12:02:24.963Z</time></trkpt><trkpt lat="42.4257726" lon="14.1590951"><ele>18.75</ele><time>2026-05-03T12:02:25.964Z</time></trkpt><trkpt lat="42.4258895" lon="14.1591628"><ele>19.0</ele><time>2026-05-03T12:02:26.964Z</time></trkpt><trkpt lat="42.4260208" lon="14.1592528"><ele>19.0</ele><time>2026-05-03T12:02:27.964Z</time></trkpt><trkpt lat="42.4261704" lon="14.1593595"><ele>19.0</ele><time>2026-05-03T12:02:28.963Z</time></trkpt><trkpt lat="42.4263288" lon="14.1594654"><ele>19.0</ele><time>2026-05-03T12:02:29.964Z</time></trkpt><trkpt lat="42.4264913" lon="14.159571"><ele>19.0</ele><time>2026-05-03T12:02:30.964Z</time></trkpt><trkpt lat="42.426659" lon="14.1596891"><ele>19.0</ele><time>2026-05-03T12:02:31.963Z</time></trkpt><trkpt lat="42.4268279" lon="14.1598173"><ele>19.0</ele><time>2026-05-03T12:02:32.964Z</time></trkpt><trkpt lat="42.4270055" lon="14.1599579"><ele>18.666666666666664</ele><time>2026-05-03T12:02:33.963Z</time></trkpt><trkpt lat="42.4271856" lon="14.1601066"><ele>18.333333333333332</ele><time>2026-05-03T12:02:34.963Z</time></trkpt><trkpt lat="42.4273669" lon="14.1602632"><ele>18.0</ele><time>2026-05-03T12:02:35.964Z</time></trkpt><trkpt lat="42.4275462" lon="14.1604198"><ele>18.0</ele><time>2026-05-03T12:02:36.964Z</time></trkpt><trkpt lat="42.4277244" lon="14.1605834"><ele>18.0</ele><time>2026-05-03T12:02:37.963Z</time></trkpt><trkpt lat="42.427897" lon="14.1607484"><ele>18.0</ele><time>2026-05-03T12:02:38.964Z</time></trkpt><trkpt lat="42.4280633" lon="14.1609142"><ele>17.666666666666668</ele><time>2026-05-03T12:02:39.964Z</time></trkpt><trkpt lat="42.4282269" lon="14.1610755"><ele>17.333333333333336</ele><time>2026-05-03T12:02:40.964Z</time></trkpt><trkpt lat="42.4283879" lon="14.1612318"><ele>17.0</ele><time>2026-05-03T12:02:41.964Z</time></trkpt><trkpt lat="42.4285455" lon="14.1613828"><ele>17.0</ele><time>2026-05-03T12:02:42.964Z</time></trkpt><trkpt lat="42.4286919" lon="14.1615269"><ele>17.0</ele><time>2026-05-03T12:02:43.963Z</time></trkpt><trkpt lat="42.4288292" lon="14.1616654"><ele>17.0</ele><time>2026-05-03T12:02:44.963Z</time></trkpt><trkpt lat="42.42896" lon="14.1617988"><ele>20.333333333333336</ele><time>2026-05-03T12:02:45.963Z</time></trkpt><trkpt lat="42.4290858" lon="14.161926"><ele>23.666666666666668</ele><time>2026-05-03T12:02:46.964Z</time></trkpt><trkpt lat="42.4292066" lon="14.1620467"><ele>27.0</ele><time>2026-05-03T12:02:47.964Z</time></trkpt><trkpt lat="42.429331" lon="14.1621643"><ele>27.0</ele><time>2026-05-03T12:02:48.964Z</time></trkpt><trkpt lat="42.4294526" lon="14.1622775"><ele>27.0</ele><time>2026-05-03T12:02:49.964Z</time></trkpt><trkpt lat="42.4295671" lon="14.1623861"><ele>27.0</ele><time>2026-05-03T12:02:50.964Z</time></trkpt><trkpt lat="42.4296743" lon="14.1624834"><ele>27.0</ele><time>2026-05-03T12:02:51.964Z</time></trkpt><trkpt lat="42.4297751" lon="14.1625644"><ele>25.8</ele><time>2026-05-03T12:02:52.964Z</time></trkpt><trkpt lat="42.4298721" lon="14.1626294"><ele>24.6</ele><time>2026-05-03T12:02:53.963Z</time></trkpt><trkpt lat="42.4299734" lon="14.1626844"><ele>23.400000000000002</ele><time>2026-05-03T12:02:54.964Z</time></trkpt><trkpt lat="42.4300747" lon="14.1627247"><ele>22.200000000000003</ele><time>2026-05-03T12:02:55.963Z</time></trkpt><trkpt lat="42.4301787" lon="14.1627514"><ele>21.0</ele><time>2026-05-03T12:02:56.963Z</time></trkpt><trkpt lat="42.4302908" lon="14.1627758"><ele>21.0</ele><time>2026-05-03T12:02:57.964Z</time></trkpt><trkpt lat="42.4304068" lon="14.162794"><ele>21.0</ele><time>2026-05-03T12:02:58.964Z</time></trkpt><trkpt lat="42.4305214" lon="14.162808"><ele>21.0</ele><time>2026-05-03T12:02:59.964Z</time></trkpt><trkpt lat="42.43062" lon="14.1628198"><ele>21.0</ele><time>2026-05-03T12:03:00.964Z</time></trkpt><trkpt lat="42.4307087" lon="14.1628323"><ele>21.0</ele><time>2026-05-03T12:03:01.964Z</time></trkpt><trkpt lat="42.4307936" lon="14.1628447"><ele>21.166666666666668</ele><time>2026-05-03T12:03:02.964Z</time></trkpt><trkpt lat="42.4308751" lon="14.1628564"><ele>21.333333333333332</ele><time>2026-05-03T12:03:03.964Z</time></trkpt><trkpt lat="42.4309462" lon="14.1628635"><ele>21.5</ele><time>2026-05-03T12:03:04.964Z</time></trkpt><trkpt lat="42.4310464" lon="14.1628753"><ele>21.666666666666664</ele><time>2026-05-03T12:03:06.963Z</time></trkpt><trkpt lat="42.4311335" lon="14.1628907"><ele>21.833333333333332</ele><time>2026-05-03T12:03:09.964Z</time></trkpt><trkpt lat="42.4312331" lon="14.1629085"><ele>22.0</ele><time>2026-05-03T12:03:11.963Z</time></trkpt><trkpt lat="42.4313125" lon="14.162916"><ele>20.75</ele><time>2026-05-03T12:03:12.963Z</time></trkpt><trkpt lat="42.4314013" lon="14.162928"><ele>19.5</ele><time>2026-05-03T12:03:13.963Z</time></trkpt><trkpt lat="42.4315065" lon="14.1629497"><ele>18.25</ele><time>2026-05-03T12:03:14.963Z</time></trkpt><trkpt lat="42.4316293" lon="14.162978"><ele>17.0</ele><time>2026-05-03T12:03:15.963Z</time></trkpt><trkpt lat="42.431766" lon="14.1630189"><ele>17.0</ele><time>2026-05-03T12:03:16.964Z</time></trkpt><trkpt lat="42.4318843" lon="14.1630598"><ele>17.0</ele><time>2026-05-03T12:03:17.963Z</time></trkpt><trkpt lat="42.4320008" lon="14.1631041"><ele>17.0</ele><time>2026-05-03T12:03:18.963Z</time></trkpt><trkpt lat="42.4321082" lon="14.1631512"><ele>17.0</ele><time>2026-05-03T12:03:19.963Z</time></trkpt><trkpt lat="42.4321963" lon="14.1631963"><ele>16.999999999999996</ele><time>2026-05-03T12:03:20.963Z</time></trkpt><trkpt lat="42.4322573" lon="14.1632307"><ele>17.0</ele><time>2026-05-03T12:03:21.964Z</time></trkpt><trkpt lat="42.4323218" lon="14.1632655"><ele>17.0</ele><time>2026-05-03T12:03:23.964Z</time></trkpt><trkpt lat="42.4323899" lon="14.163279"><ele>17.0</ele><time>2026-05-03T12:03:26.964Z</time></trkpt><trkpt lat="42.4323612" lon="14.1631797"><ele>17.0</ele><time>2026-05-03T12:03:30.964Z</time></trkpt><trkpt lat="42.4322918" lon="14.1631501"><ele>16.999999999999996</ele><time>2026-05-03T12:03:31.964Z</time></trkpt><trkpt lat="42.4322039" lon="14.1631139"><ele>17.0</ele><time>2026-05-03T12:03:32.964Z</time></trkpt><trkpt lat="42.4321061" lon="14.1630726"><ele>17.0</ele><time>2026-05-03T12:03:33.964Z</time></trkpt><trkpt lat="42.4319977" lon="14.1630318"><ele>17.0</ele><time>2026-05-03T12:03:34.964Z</time></trkpt><trkpt lat="42.4318847" lon="14.1629941"><ele>17.0</ele><time>2026-05-03T12:03:35.964Z</time></trkpt><trkpt lat="42.4317766" lon="14.1629653"><ele>17.0</ele><time>2026-05-03T12:03:36.964Z</time></trkpt><trkpt lat="42.4316809" lon="14.1629425"><ele>17.0</ele><time>2026-05-03T12:03:37.964Z</time></trkpt><trkpt lat="42.431585" lon="14.1629203"><ele>17.0</ele><time>2026-05-03T12:03:38.964Z</time></trkpt><trkpt lat="42.4314945" lon="14.1628985"><ele>17.0</ele><time>2026-05-03T12:03:39.964Z</time></trkpt><trkpt lat="42.4314152" lon="14.1628592"><ele>17.0</ele><time>2026-05-03T12:03:40.964Z</time></trkpt><trkpt lat="42.4313479" lon="14.1627916"><ele>17.0</ele><time>2026-05-03T12:03:41.964Z</time></trkpt><trkpt lat="42.4312873" lon="14.1626946"><ele>17.0</ele><time>2026-05-03T12:03:42.964Z</time></trkpt><trkpt lat="42.4312362" lon="14.1625644"><ele>18.25</ele><time>2026-05-03T12:03:43.964Z</time></trkpt><trkpt lat="42.4311899" lon="14.1624039"><ele>19.5</ele><time>2026-05-03T12:03:44.964Z</time></trkpt><trkpt lat="42.4311433" lon="14.1622374"><ele>20.75</ele><time>2026-05-03T12:03:45.963Z</time></trkpt><trkpt lat="42.4310903" lon="14.1620635"><ele>22.0</ele><time>2026-05-03T12:03:46.963Z</time></trkpt><trkpt lat="42.4310388" lon="14.1618884"><ele>22.25</ele><time>2026-05-03T12:03:47.963Z</time></trkpt><trkpt lat="42.4309931" lon="14.1617163"><ele>22.5</ele><time>2026-05-03T12:03:48.964Z</time></trkpt><trkpt lat="42.4309596" lon="14.1615592"><ele>22.75</ele><time>2026-05-03T12:03:49.964Z</time></trkpt><trkpt lat="42.4309335" lon="14.1613995"><ele>23.0</ele><time>2026-05-03T12:03:50.964Z</time></trkpt><trkpt lat="42.4309207" lon="14.1612373"><ele>24.0</ele><time>2026-05-03T12:03:51.964Z</time></trkpt><trkpt lat="42.4309255" lon="14.1610769"><ele>25.0</ele><time>2026-05-03T12:03:52.964Z</time></trkpt><trkpt lat="42.4309562" lon="14.1609136"><ele>26.0</ele><time>2026-05-03T12:03:53.963Z</time></trkpt><trkpt lat="42.4310154" lon="14.1607369"><ele>27.0</ele><time>2026-05-03T12:03:54.963Z</time></trkpt><trkpt lat="42.4310914" lon="14.1605493"><ele>27.0</ele><time>2026-05-03T12:03:55.964Z</time></trkpt><trkpt lat="42.4311655" lon="14.160366"><ele>27.0</ele><time>2026-05-03T12:03:56.963Z</time></trkpt><trkpt lat="42.4312438" lon="14.1601736"><ele>27.0</ele><time>2026-05-03T12:03:57.964Z</time></trkpt><trkpt lat="42.4313245" lon="14.159979"><ele>28.666666666666664</ele><time>2026-05-03T12:03:58.963Z</time></trkpt><trkpt lat="42.431408" lon="14.159782"><ele>30.333333333333332</ele><time>2026-05-03T12:03:59.964Z</time></trkpt><trkpt lat="42.4314913" lon="14.1595801"><ele>32.0</ele><time>2026-05-03T12:04:00.964Z</time></trkpt><trkpt lat="42.431576" lon="14.1593731"><ele>32.0</ele><time>2026-05-03T12:04:01.964Z</time></trkpt><trkpt lat="42.4316614" lon="14.1591666"><ele>32.0</ele><time>2026-05-03T12:04:02.964Z</time></trkpt><trkpt lat="42.4317454" lon="14.1589602"><ele>32.0</ele><time>2026-05-03T12:04:03.963Z</time></trkpt><trkpt lat="42.4318226" lon="14.1587687"><ele>32.25</ele><time>2026-05-03T12:04:04.963Z</time></trkpt><trkpt lat="42.4318955" lon="14.1585943"><ele>32.5</ele><time>2026-05-03T12:04:05.963Z</time></trkpt><trkpt lat="42.4319635" lon="14.1584339"><ele>32.75</ele><time>2026-05-03T12:04:06.964Z</time></trkpt><trkpt lat="42.4320241" lon="14.1582868"><ele>33.0</ele><time>2026-05-03T12:04:07.963Z</time></trkpt><trkpt lat="42.4320831" lon="14.1581465"><ele>35.0</ele><time>2026-05-03T12:04:08.964Z</time></trkpt><trkpt lat="42.432146" lon="14.1580014"><ele>37.0</ele><time>2026-05-03T12:04:09.963Z</time></trkpt><trkpt lat="42.4322114" lon="14.157852"><ele>39.0</ele><time>2026-05-03T12:04:10.964Z</time></trkpt><trkpt lat="42.4322731" lon="14.1577023"><ele>41.0</ele><time>2026-05-03T12:04:11.964Z</time></trkpt><trkpt lat="42.4323442" lon="14.1575534"><ele>41.0</ele><time>2026-05-03T12:04:12.963Z</time></trkpt><trkpt lat="42.4324314" lon="14.1574119"><ele>41.0</ele><time>2026-05-03T12:04:13.963Z</time></trkpt><trkpt lat="42.4325354" lon="14.157281"><ele>41.0</ele><time>2026-05-03T12:04:14.964Z</time></trkpt><trkpt lat="42.4326511" lon="14.1571588"><ele>41.0</ele><time>2026-05-03T12:04:15.963Z</time></trkpt><trkpt lat="42.4327762" lon="14.1570401"><ele>42.33333333333333</ele><time>2026-05-03T12:04:16.963Z</time></trkpt><trkpt lat="42.4329064" lon="14.156926"><ele>43.666666666666664</ele><time>2026-05-03T12:04:17.964Z</time></trkpt><trkpt lat="42.4330419" lon="14.1568115"><ele>45.0</ele><time>2026-05-03T12:04:18.963Z</time></trkpt><trkpt lat="42.4331815" lon="14.1566936"><ele>46.66666666666667</ele><time>2026-05-03T12:04:19.964Z</time></trkpt><trkpt lat="42.4333259" lon="14.1565724"><ele>48.333333333333336</ele><time>2026-05-03T12:04:20.963Z</time></trkpt><trkpt lat="42.4334764" lon="14.1564511"><ele>50.0</ele><time>2026-05-03T12:04:21.964Z</time></trkpt><trkpt lat="42.4336328" lon="14.1563324"><ele>50.66666666666667</ele><time>2026-05-03T12:04:22.964Z</time></trkpt><trkpt lat="42.4337948" lon="14.1562135"><ele>51.33333333333333</ele><time>2026-05-03T12:04:23.964Z</time></trkpt><trkpt lat="42.4339571" lon="14.1560932"><ele>52.0</ele><time>2026-05-03T12:04:24.963Z</time></trkpt><trkpt lat="42.4341202" lon="14.155972"><ele>52.666666666666664</ele><time>2026-05-03T12:04:25.964Z</time></trkpt><trkpt lat="42.4342895" lon="14.1558474"><ele>53.33333333333333</ele><time>2026-05-03T12:04:26.963Z</time></trkpt><trkpt lat="42.4344612" lon="14.1557193"><ele>54.0</ele><time>2026-05-03T12:04:27.963Z</time></trkpt><trkpt lat="42.4346336" lon="14.1555878"><ele>55.66666666666667</ele><time>2026-05-03T12:04:28.963Z</time></trkpt><trkpt lat="42.4348082" lon="14.1554541"><ele>57.333333333333336</ele><time>2026-05-03T12:04:29.964Z</time></trkpt><trkpt lat="42.4349852" lon="14.1553201"><ele>59.0</ele><time>2026-05-03T12:04:30.964Z</time></trkpt><trkpt lat="42.435164" lon="14.1551856"><ele>59.0</ele><time>2026-05-03T12:04:31.964Z</time></trkpt><trkpt lat="42.4353452" lon="14.1550477"><ele>59.0</ele><time>2026-05-03T12:04:32.963Z</time></trkpt><trkpt lat="42.435527" lon="14.1549078"><ele>59.0</ele><time>2026-05-03T12:04:33.963Z</time></trkpt><trkpt lat="42.4357105" lon="14.1547665"><ele>60.333333333333336</ele><time>2026-05-03T12:04:34.963Z</time></trkpt><trkpt lat="42.4358953" lon="14.1546227"><ele>61.66666666666667</ele><time>2026-05-03T12:04:35.963Z</time></trkpt><trkpt lat="42.4360822" lon="14.1544765"><ele>63.0</ele><time>2026-05-03T12:04:36.964Z</time></trkpt><trkpt lat="42.4362672" lon="14.1543255"><ele>63.33333333333333</ele><time>2026-05-03T12:04:37.964Z</time></trkpt><trkpt lat="42.4364515" lon="14.1541696"><ele>63.666666666666664</ele><time>2026-05-03T12:04:38.963Z</time></trkpt><trkpt lat="42.4366338" lon="14.1540108"><ele>64.0</ele><time>2026-05-03T12:04:39.964Z</time></trkpt><trkpt lat="42.4368122" lon="14.1538525"><ele>65.66666666666666</ele><time>2026-05-03T12:04:40.964Z</time></trkpt><trkpt lat="42.4369872" lon="14.1537004"><ele>67.33333333333333</ele><time>2026-05-03T12:04:41.963Z</time></trkpt><trkpt lat="42.4371551" lon="14.1535622"><ele>69.0</ele><time>2026-05-03T12:04:42.964Z</time></trkpt><trkpt lat="42.4373149" lon="14.1534449"><ele>69.0</ele><time>2026-05-03T12:04:43.964Z</time></trkpt><trkpt lat="42.4374697" lon="14.1533507"><ele>69.0</ele><time>2026-05-03T12:04:44.964Z</time></trkpt><trkpt lat="42.4376284" lon="14.1532861"><ele>69.0</ele><time>2026-05-03T12:04:45.963Z</time></trkpt><trkpt lat="42.4377951" lon="14.1532409"><ele>68.33333333333333</ele><time>2026-05-03T12:04:46.964Z</time></trkpt><trkpt lat="42.4379619" lon="14.1531939"><ele>67.66666666666666</ele><time>2026-05-03T12:04:47.963Z</time></trkpt><trkpt lat="42.4381246" lon="14.1531333"><ele>67.0</ele><time>2026-05-03T12:04:48.963Z</time></trkpt><trkpt lat="42.4382819" lon="14.1530461"><ele>65.66666666666666</ele><time>2026-05-03T12:04:49.963Z</time></trkpt><trkpt lat="42.4384358" lon="14.1529329"><ele>64.33333333333333</ele><time>2026-05-03T12:04:50.963Z</time></trkpt><trkpt lat="42.4385836" lon="14.1527962"><ele>63.0</ele><time>2026-05-03T12:04:51.963Z</time></trkpt><trkpt lat="42.4387234" lon="14.152642"><ele>65.0</ele><time>2026-05-03T12:04:52.964Z</time></trkpt><trkpt lat="42.4388539" lon="14.1524766"><ele>67.0</ele><time>2026-05-03T12:04:53.964Z</time></trkpt><trkpt lat="42.4389722" lon="14.1523157"><ele>69.0</ele><time>2026-05-03T12:04:54.963Z</time></trkpt><trkpt lat="42.4390822" lon="14.1521601"><ele>70.0</ele><time>2026-05-03T12:04:55.964Z</time></trkpt><trkpt lat="42.4391895" lon="14.1520088"><ele>71.0</ele><time>2026-05-03T12:04:56.963Z</time></trkpt><trkpt lat="42.4392978" lon="14.1518717"><ele>72.0</ele><time>2026-05-03T12:04:57.963Z</time></trkpt><trkpt lat="42.4394134" lon="14.1517532"><ele>73.0</ele><time>2026-05-03T12:04:58.964Z</time></trkpt><trkpt lat="42.4395353" lon="14.1516512"><ele>73.75</ele><time>2026-05-03T12:04:59.964Z</time></trkpt><trkpt lat="42.4396625" lon="14.1515671"><ele>74.5</ele><time>2026-05-03T12:05:00.963Z</time></trkpt><trkpt lat="42.4397942" lon="14.1514977"><ele>75.25</ele><time>2026-05-03T12:05:01.963Z</time></trkpt><trkpt lat="42.4399251" lon="14.1514314"><ele>76.0</ele><time>2026-05-03T12:05:02.963Z</time></trkpt><trkpt lat="42.4400527" lon="14.1513611"><ele>76.0</ele><time>2026-05-03T12:05:03.963Z</time></trkpt><trkpt lat="42.4401835" lon="14.1512822"><ele>76.0</ele><time>2026-05-03T12:05:04.964Z</time></trkpt><trkpt lat="42.4403166" lon="14.1511931"><ele>76.0</ele><time>2026-05-03T12:05:05.964Z</time></trkpt><trkpt lat="42.4404498" lon="14.1510958"><ele>76.0</ele><time>2026-05-03T12:05:06.964Z</time></trkpt><trkpt lat="42.440589" lon="14.151"><ele>79.0</ele><time>2026-05-03T12:05:07.963Z</time></trkpt><trkpt lat="42.4407283" lon="14.1509194"><ele>82.0</ele><time>2026-05-03T12:05:08.963Z</time></trkpt><trkpt lat="42.4408628" lon="14.1508661"><ele>85.0</ele><time>2026-05-03T12:05:09.964Z</time></trkpt><trkpt lat="42.4409945" lon="14.1508346"><ele>88.0</ele><time>2026-05-03T12:05:10.964Z</time></trkpt><trkpt lat="42.4411229" lon="14.1508259"><ele>88.0</ele><time>2026-05-03T12:05:11.964Z</time></trkpt><trkpt lat="42.441255" lon="14.1508523"><ele>88.0</ele><time>2026-05-03T12:05:12.963Z</time></trkpt><trkpt lat="42.4413872" lon="14.1508952"><ele>88.0</ele><time>2026-05-03T12:05:13.964Z</time></trkpt><trkpt lat="42.4415202" lon="14.1509432"><ele>88.0</ele><time>2026-05-03T12:05:14.964Z</time></trkpt><trkpt lat="42.4416576" lon="14.1509667"><ele>88.75</ele><time>2026-05-03T12:05:15.964Z</time></trkpt><trkpt lat="42.4417995" lon="14.1509647"><ele>89.5</ele><time>2026-05-03T12:05:16.964Z</time></trkpt><trkpt lat="42.44194" lon="14.1509362"><ele>90.25</ele><time>2026-05-03T12:05:17.964Z</time></trkpt><trkpt lat="42.4420703" lon="14.1508837"><ele>91.0</ele><time>2026-05-03T12:05:18.964Z</time></trkpt><trkpt lat="42.4421805" lon="14.1508097"><ele>91.6</ele><time>2026-05-03T12:05:19.963Z</time></trkpt><trkpt lat="42.4422678" lon="14.150721"><ele>92.19999999999999</ele><time>2026-05-03T12:05:20.963Z</time></trkpt><trkpt lat="42.4423322" lon="14.1506116"><ele>92.80000000000001</ele><time>2026-05-03T12:05:21.964Z</time></trkpt><trkpt lat="42.4423763" lon="14.1504784"><ele>93.4</ele><time>2026-05-03T12:05:22.963Z</time></trkpt><trkpt lat="42.4424082" lon="14.1503244"><ele>94.0</ele><time>2026-05-03T12:05:23.964Z</time></trkpt><trkpt lat="42.4424396" lon="14.1501496"><ele>94.0</ele><time>2026-05-03T12:05:24.963Z</time></trkpt><trkpt lat="42.4424822" lon="14.1499633"><ele>94.0</ele><time>2026-05-03T12:05:25.964Z</time></trkpt><trkpt lat="42.4425261" lon="14.1497621"><ele>94.0</ele><time>2026-05-03T12:05:26.964Z</time></trkpt><trkpt lat="42.4425786" lon="14.1495594"><ele>95.33333333333333</ele><time>2026-05-03T12:05:27.964Z</time></trkpt><trkpt lat="42.4426408" lon="14.1493571"><ele>96.66666666666666</ele><time>2026-05-03T12:05:28.963Z</time></trkpt><trkpt lat="42.4427039" lon="14.1491541"><ele>98.0</ele><time>2026-05-03T12:05:29.964Z</time></trkpt><trkpt lat="42.4427797" lon="14.1489591"><ele>100.0</ele><time>2026-05-03T12:05:30.964Z</time></trkpt><trkpt lat="42.44287" lon="14.1487758"><ele>102.0</ele><time>2026-05-03T12:05:31.963Z</time></trkpt><trkpt lat="42.4429716" lon="14.1486012"><ele>104.0</ele><time>2026-05-03T12:05:32.963Z</time></trkpt><trkpt lat="42.4430835" lon="14.1484365"><ele>104.0</ele><time>2026-05-03T12:05:33.964Z</time></trkpt><trkpt lat="42.4431972" lon="14.1482719"><ele>104.0</ele><time>2026-05-03T12:05:34.964Z</time></trkpt><trkpt lat="42.4433143" lon="14.1481073"><ele>104.0</ele><time>2026-05-03T12:05:35.963Z</time></trkpt><trkpt lat="42.4434253" lon="14.1479417"><ele>106.5</ele><time>2026-05-03T12:05:36.963Z</time></trkpt><trkpt lat="42.4435315" lon="14.1478002"><ele>109.0</ele><time>2026-05-03T12:05:37.964Z</time></trkpt><trkpt lat="42.4436425" lon="14.1476829"><ele>111.5</ele><time>2026-05-03T12:05:38.964Z</time></trkpt><trkpt lat="42.443766" lon="14.1475873"><ele>114.0</ele><time>2026-05-03T12:05:39.964Z</time></trkpt><trkpt lat="42.4438984" lon="14.1475194"><ele>114.0</ele><time>2026-05-03T12:05:40.964Z</time></trkpt><trkpt lat="42.4440387" lon="14.1474761"><ele>114.0</ele><time>2026-05-03T12:05:41.964Z</time></trkpt><trkpt lat="42.4441746" lon="14.1474405"><ele>114.0</ele><time>2026-05-03T12:05:42.964Z</time></trkpt><trkpt lat="42.4442944" lon="14.1473903"><ele>114.0</ele><time>2026-05-03T12:05:43.964Z</time></trkpt><trkpt lat="42.4443916" lon="14.1473158"><ele>115.16666666666667</ele><time>2026-05-03T12:05:44.963Z</time></trkpt><trkpt lat="42.4444641" lon="14.1472248"><ele>116.33333333333334</ele><time>2026-05-03T12:05:45.963Z</time></trkpt><trkpt lat="42.444515" lon="14.1471229"><ele>117.5</ele><time>2026-05-03T12:05:46.963Z</time></trkpt><trkpt lat="42.4445507" lon="14.1470279"><ele>118.66666666666667</ele><time>2026-05-03T12:05:47.963Z</time></trkpt><trkpt lat="42.4445863" lon="14.1469463"><ele>119.83333333333334</ele><time>2026-05-03T12:05:48.963Z</time></trkpt><trkpt lat="42.4446297" lon="14.1468752"><ele>121.0</ele><time>2026-05-03T12:05:49.964Z</time></trkpt><trkpt lat="42.4446892" lon="14.1467933"><ele>121.0</ele><time>2026-05-03T12:05:50.963Z</time></trkpt><trkpt lat="42.4447583" lon="14.1466925"><ele>121.0</ele><time>2026-05-03T12:05:51.963Z</time></trkpt><trkpt lat="42.4448332" lon="14.1465666"><ele>121.0</ele><time>2026-05-03T12:05:52.963Z</time></trkpt><trkpt lat="42.4449176" lon="14.1464197"><ele>121.0</ele><time>2026-05-03T12:05:53.964Z</time></trkpt><trkpt lat="42.4450034" lon="14.146262"><ele>122.25</ele><time>2026-05-03T12:05:54.963Z</time></trkpt><trkpt lat="42.4450915" lon="14.1460979"><ele>123.5</ele><time>2026-05-03T12:05:55.964Z</time></trkpt><trkpt lat="42.4451808" lon="14.1459401"><ele>124.75</ele><time>2026-05-03T12:05:56.964Z</time></trkpt><trkpt lat="42.445276" lon="14.1457785"><ele>126.0</ele><time>2026-05-03T12:05:57.964Z</time></trkpt><trkpt lat="42.4453711" lon="14.1456104"><ele>124.0</ele><time>2026-05-03T12:05:58.964Z</time></trkpt><trkpt lat="42.4454751" lon="14.1454554"><ele>122.0</ele><time>2026-05-03T12:05:59.964Z</time></trkpt><trkpt lat="42.4455831" lon="14.1453206"><ele>120.0</ele><time>2026-05-03T12:06:00.963Z</time></trkpt><trkpt lat="42.4457035" lon="14.1451961"><ele>120.0</ele><time>2026-05-03T12:06:01.963Z</time></trkpt><trkpt lat="42.4458375" lon="14.1450889"><ele>120.0</ele><time>2026-05-03T12:06:02.963Z</time></trkpt><trkpt lat="42.4459748" lon="14.1449882"><ele>120.0</ele><time>2026-05-03T12:06:03.963Z</time></trkpt><trkpt lat="42.4461119" lon="14.1448905"><ele>120.33333333333334</ele><time>2026-05-03T12:06:04.964Z</time></trkpt><trkpt lat="42.4462513" lon="14.144802"><ele>120.66666666666667</ele><time>2026-05-03T12:06:05.964Z</time></trkpt><trkpt lat="42.4463994" lon="14.1447365"><ele>121.0</ele><time>2026-05-03T12:06:06.963Z</time></trkpt><trkpt lat="42.4465607" lon="14.1446905"><ele>121.0</ele><time>2026-05-03T12:06:07.963Z</time></trkpt><trkpt lat="42.4467252" lon="14.144647"><ele>121.0</ele><time>2026-05-03T12:06:08.964Z</time></trkpt><trkpt lat="42.4468852" lon="14.1445943"><ele>121.0</ele><time>2026-05-03T12:06:09.964Z</time></trkpt><trkpt lat="42.4470359" lon="14.1445512"><ele>122.25</ele><time>2026-05-03T12:06:10.963Z</time></trkpt><trkpt lat="42.4471746" lon="14.144522"><ele>123.5</ele><time>2026-05-03T12:06:11.963Z</time></trkpt><trkpt lat="42.4473017" lon="14.1445317"><ele>124.75</ele><time>2026-05-03T12:06:12.963Z</time></trkpt><trkpt lat="42.4474067" lon="14.1445852"><ele>126.0</ele><time>2026-05-03T12:06:13.964Z</time></trkpt><trkpt lat="42.4474832" lon="14.1446664"><ele>126.0</ele><time>2026-05-03T12:06:14.963Z</time></trkpt><trkpt lat="42.4475293" lon="14.1447731"><ele>126.0</ele><time>2026-05-03T12:06:15.964Z</time></trkpt><trkpt lat="42.4475541" lon="14.1449098"><ele>126.0</ele><time>2026-05-03T12:06:16.964Z</time></trkpt><trkpt lat="42.4475629" lon="14.1450726"><ele>126.0</ele><time>2026-05-03T12:06:17.964Z</time></trkpt><trkpt lat="42.4475731" lon="14.1452543"><ele>126.25</ele><time>2026-05-03T12:06:18.964Z</time></trkpt><trkpt lat="42.4475856" lon="14.1454237"><ele>126.5</ele><time>2026-05-03T12:06:19.963Z</time></trkpt><trkpt lat="42.4475997" lon="14.1455751"><ele>126.75</ele><time>2026-05-03T12:06:20.963Z</time></trkpt><trkpt lat="42.4476339" lon="14.1457108"><ele>127.0</ele><time>2026-05-03T12:06:21.963Z</time></trkpt><trkpt lat="42.4476864" lon="14.1458379"><ele>127.5</ele><time>2026-05-03T12:06:22.963Z</time></trkpt><trkpt lat="42.4477574" lon="14.1459591"><ele>128.0</ele><time>2026-05-03T12:06:23.964Z</time></trkpt><trkpt lat="42.447848" lon="14.1460685"><ele>128.5</ele><time>2026-05-03T12:06:24.964Z</time></trkpt><trkpt lat="42.4479554" lon="14.1461727"><ele>129.0</ele><time>2026-05-03T12:06:25.963Z</time></trkpt><trkpt lat="42.4480764" lon="14.1462592"><ele>132.25</ele><time>2026-05-03T12:06:26.964Z</time></trkpt><trkpt lat="42.44821" lon="14.1463292"><ele>135.5</ele><time>2026-05-03T12:06:27.963Z</time></trkpt><trkpt lat="42.4483432" lon="14.1463865"><ele>138.75</ele><time>2026-05-03T12:06:28.964Z</time></trkpt><trkpt lat="42.4484775" lon="14.1464271"><ele>142.0</ele><time>2026-05-03T12:06:29.963Z</time></trkpt><trkpt lat="42.4486105" lon="14.146442"><ele>142.0</ele><time>2026-05-03T12:06:30.964Z</time></trkpt><trkpt lat="42.4487384" lon="14.1464295"><ele>142.0</ele><time>2026-05-03T12:06:31.964Z</time></trkpt><trkpt lat="42.4488574" lon="14.1463912"><ele>142.0</ele><time>2026-05-03T12:06:32.963Z</time></trkpt><trkpt lat="42.4489673" lon="14.1463295"><ele>142.0</ele><time>2026-05-03T12:06:33.963Z</time></trkpt><trkpt lat="42.4490675" lon="14.146244"><ele>142.5</ele><time>2026-05-03T12:06:34.964Z</time></trkpt><trkpt lat="42.4491585" lon="14.1461306"><ele>143.0</ele><time>2026-05-03T12:06:35.963Z</time></trkpt><trkpt lat="42.4492478" lon="14.1459885"><ele>143.5</ele><time>2026-05-03T12:06:36.964Z</time></trkpt><trkpt lat="42.449334" lon="14.1458246"><ele>144.0</ele><time>2026-05-03T12:06:37.964Z</time></trkpt><trkpt lat="42.4494272" lon="14.1456587"><ele>141.33333333333334</ele><time>2026-05-03T12:06:38.963Z</time></trkpt><trkpt lat="42.4495193" lon="14.1454916"><ele>138.66666666666669</ele><time>2026-05-03T12:06:39.963Z</time></trkpt><trkpt lat="42.4496038" lon="14.1453186"><ele>136.0</ele><time>2026-05-03T12:06:40.964Z</time></trkpt><trkpt lat="42.449681" lon="14.1451398"><ele>136.0</ele><time>2026-05-03T12:06:41.964Z</time></trkpt><trkpt lat="42.4497514" lon="14.1449622"><ele>136.0</ele><time>2026-05-03T12:06:42.964Z</time></trkpt><trkpt lat="42.4498162" lon="14.1447803"><ele>136.0</ele><time>2026-05-03T12:06:43.963Z</time></trkpt><trkpt lat="42.4498711" lon="14.144593"><ele>136.0</ele><time>2026-05-03T12:06:44.964Z</time></trkpt><trkpt lat="42.44991" lon="14.1444094"><ele>136.5</ele><time>2026-05-03T12:06:45.964Z</time></trkpt><trkpt lat="42.4499365" lon="14.1442307"><ele>137.0</ele><time>2026-05-03T12:06:46.963Z</time></trkpt><trkpt lat="42.4499439" lon="14.14404"><ele>137.5</ele><time>2026-05-03T12:06:47.964Z</time></trkpt><trkpt lat="42.4499358" lon="14.1438404"><ele>138.0</ele><time>2026-05-03T12:06:48.963Z</time></trkpt><trkpt lat="42.4499241" lon="14.1436406"><ele>138.0</ele><time>2026-05-03T12:06:49.964Z</time></trkpt><trkpt lat="42.4499088" lon="14.143442"><ele>138.0</ele><time>2026-05-03T12:06:50.964Z</time></trkpt><trkpt lat="42.4498926" lon="14.1432549"><ele>138.0</ele><time>2026-05-03T12:06:51.964Z</time></trkpt><trkpt lat="42.4498651" lon="14.1430741"><ele>138.0</ele><time>2026-05-03T12:06:52.963Z</time></trkpt><trkpt lat="42.4498233" lon="14.1428938"><ele>137.75</ele><time>2026-05-03T12:06:53.964Z</time></trkpt><trkpt lat="42.4497713" lon="14.142725"><ele>137.5</ele><time>2026-05-03T12:06:54.964Z</time></trkpt><trkpt lat="42.4497161" lon="14.1425647"><ele>137.25</ele><time>2026-05-03T12:06:55.963Z</time></trkpt><trkpt lat="42.4496601" lon="14.1424116"><ele>137.0</ele><time>2026-05-03T12:06:56.963Z</time></trkpt><trkpt lat="42.4496069" lon="14.1422666"><ele>137.6</ele><time>2026-05-03T12:06:57.964Z</time></trkpt><trkpt lat="42.449565" lon="14.1421239"><ele>138.2</ele><time>2026-05-03T12:06:58.964Z</time></trkpt><trkpt lat="42.4495574" lon="14.1419816"><ele>138.8</ele><time>2026-05-03T12:06:59.964Z</time></trkpt><trkpt lat="42.4495828" lon="14.14186"><ele>139.4</ele><time>2026-05-03T12:07:00.964Z</time></trkpt><trkpt lat="42.4496357" lon="14.141768"><ele>140.0</ele><time>2026-05-03T12:07:01.964Z</time></trkpt><trkpt lat="42.4497158" lon="14.1416904"><ele>140.0</ele><time>2026-05-03T12:07:02.964Z</time></trkpt><trkpt lat="42.4498112" lon="14.141614"><ele>140.0</ele><time>2026-05-03T12:07:03.964Z</time></trkpt><trkpt lat="42.4499139" lon="14.141534"><ele>140.0</ele><time>2026-05-03T12:07:04.963Z</time></trkpt><trkpt lat="42.4500304" lon="14.1414638"><ele>140.0</ele><time>2026-05-03T12:07:05.964Z</time></trkpt><trkpt lat="42.4501557" lon="14.1414076"><ele>141.25</ele><time>2026-05-03T12:07:06.964Z</time></trkpt><trkpt lat="42.4502838" lon="14.141355"><ele>142.5</ele><time>2026-05-03T12:07:07.964Z</time></trkpt><trkpt lat="42.4504087" lon="14.1413043"><ele>143.75</ele><time>2026-05-03T12:07:08.963Z</time></trkpt><trkpt lat="42.4505332" lon="14.1412567"><ele>145.0</ele><time>2026-05-03T12:07:09.964Z</time></trkpt><trkpt lat="42.4506501" lon="14.1412156"><ele>146.25</ele><time>2026-05-03T12:07:10.964Z</time></trkpt><trkpt lat="42.4507716" lon="14.141172"><ele>147.5</ele><time>2026-05-03T12:07:11.963Z</time></trkpt><trkpt lat="42.450896" lon="14.1411275"><ele>148.75</ele><time>2026-05-03T12:07:12.963Z</time></trkpt><trkpt lat="42.4510248" lon="14.1410816"><ele>150.0</ele><time>2026-05-03T12:07:13.963Z</time></trkpt><trkpt lat="42.451151" lon="14.141042"><ele>150.0</ele><time>2026-05-03T12:07:14.963Z</time></trkpt><trkpt lat="42.4512814" lon="14.1410041"><ele>150.0</ele><time>2026-05-03T12:07:15.964Z</time></trkpt><trkpt lat="42.4514099" lon="14.1409637"><ele>150.0</ele><time>2026-05-03T12:07:16.963Z</time></trkpt><trkpt lat="42.4515333" lon="14.1409263"><ele>150.0</ele><time>2026-05-03T12:07:17.963Z</time></trkpt><trkpt lat="42.4516595" lon="14.1408996"><ele>150.25</ele><time>2026-05-03T12:07:18.964Z</time></trkpt><trkpt lat="42.4517871" lon="14.140879"><ele>150.5</ele><time>2026-05-03T12:07:19.964Z</time></trkpt><trkpt lat="42.4519141" lon="14.1408541"><ele>150.75</ele><time>2026-05-03T12:07:20.964Z</time></trkpt><trkpt lat="42.4520443" lon="14.1408302"><ele>151.0</ele><time>2026-05-03T12:07:21.964Z</time></trkpt><trkpt lat="42.4521761" lon="14.1408083"><ele>151.0</ele><time>2026-05-03T12:07:22.964Z</time></trkpt><trkpt lat="42.452308" lon="14.140782"><ele>151.0</ele><time>2026-05-03T12:07:23.963Z</time></trkpt><trkpt lat="42.4524401" lon="14.1407523"><ele>151.0</ele><time>2026-05-03T12:07:24.963Z</time></trkpt><trkpt lat="42.4525753" lon="14.1407209"><ele>151.0</ele><time>2026-05-03T12:07:25.964Z</time></trkpt><trkpt lat="42.4527109" lon="14.1406898"><ele>151.16666666666669</ele><time>2026-05-03T12:07:26.963Z</time></trkpt><trkpt lat="42.4528337" lon="14.1406586"><ele>151.33333333333334</ele><time>2026-05-03T12:07:27.964Z</time></trkpt><trkpt lat="42.4529235" lon="14.1406336"><ele>151.5</ele><time>2026-05-03T12:07:28.963Z</time></trkpt><trkpt lat="42.4529917" lon="14.1406174"><ele>151.66666666666666</ele><time>2026-05-03T12:07:29.963Z</time></trkpt><trkpt lat="42.4530618" lon="14.1405955"><ele>151.83333333333331</ele><time>2026-05-03T12:07:30.964Z</time></trkpt><trkpt lat="42.4531395" lon="14.1405587"><ele>152.0</ele><time>2026-05-03T12:07:31.964Z</time></trkpt><trkpt lat="42.4532301" lon="14.1405028"><ele>156.25</ele><time>2026-05-03T12:07:32.964Z</time></trkpt><trkpt lat="42.4533261" lon="14.1404358"><ele>160.5</ele><time>2026-05-03T12:07:33.964Z</time></trkpt><trkpt lat="42.4534299" lon="14.1403723"><ele>164.75</ele><time>2026-05-03T12:07:34.964Z</time></trkpt><trkpt lat="42.453543" lon="14.1403104"><ele>169.0</ele><time>2026-05-03T12:07:35.963Z</time></trkpt><trkpt lat="42.4536553" lon="14.140244"><ele>169.0</ele><time>2026-05-03T12:07:36.964Z</time></trkpt><trkpt lat="42.4537597" lon="14.1401645"><ele>169.0</ele><time>2026-05-03T12:07:37.964Z</time></trkpt><trkpt lat="42.453857" lon="14.1400581"><ele>169.0</ele><time>2026-05-03T12:07:38.963Z</time></trkpt><trkpt lat="42.4539478" lon="14.1399211"><ele>169.0</ele><time>2026-05-03T12:07:39.964Z</time></trkpt><trkpt lat="42.4540314" lon="14.1397655"><ele>170.25</ele><time>2026-05-03T12:07:40.963Z</time></trkpt><trkpt lat="42.4541106" lon="14.1395998"><ele>171.5</ele><time>2026-05-03T12:07:41.964Z</time></trkpt><trkpt lat="42.4541947" lon="14.1394334"><ele>172.75</ele><time>2026-05-03T12:07:42.963Z</time></trkpt><trkpt lat="42.4542802" lon="14.1392661"><ele>174.0</ele><time>2026-05-03T12:07:43.963Z</time></trkpt><trkpt lat="42.4543677" lon="14.1390996"><ele>173.75</ele><time>2026-05-03T12:07:44.963Z</time></trkpt><trkpt lat="42.4544545" lon="14.1389374"><ele>173.5</ele><time>2026-05-03T12:07:45.963Z</time></trkpt><trkpt lat="42.4545382" lon="14.1387832"><ele>173.25</ele><time>2026-05-03T12:07:46.964Z</time></trkpt><trkpt lat="42.4546209" lon="14.1386423"><ele>173.0</ele><time>2026-05-03T12:07:47.964Z</time></trkpt><trkpt lat="42.4547043" lon="14.1385104"><ele>173.0</ele><time>2026-05-03T12:07:48.963Z</time></trkpt><trkpt lat="42.4547877" lon="14.1383789"><ele>173.0</ele><time>2026-05-03T12:07:49.963Z</time></trkpt><trkpt lat="42.4548741" lon="14.1382384"><ele>173.0</ele><time>2026-05-03T12:07:50.963Z</time></trkpt><trkpt lat="42.4549509" lon="14.1380844"><ele>173.0</ele><time>2026-05-03T12:07:51.963Z</time></trkpt><trkpt lat="42.4550088" lon="14.1379135"><ele>173.0</ele><time>2026-05-03T12:07:52.964Z</time></trkpt><trkpt lat="42.4550383" lon="14.1377261"><ele>173.0</ele><time>2026-05-03T12:07:53.963Z</time></trkpt><trkpt lat="42.455041" lon="14.137534"><ele>173.0</ele><time>2026-05-03T12:07:54.963Z</time></trkpt><trkpt lat="42.4550366" lon="14.1373457"><ele>173.0</ele><time>2026-05-03T12:07:55.963Z</time></trkpt><trkpt lat="42.4550341" lon="14.1371649"><ele>173.0</ele><time>2026-05-03T12:07:56.963Z</time></trkpt><trkpt lat="42.4550307" lon="14.1369954"><ele>173.0</ele><time>2026-05-03T12:07:57.964Z</time></trkpt><trkpt lat="42.455026" lon="14.1368385"><ele>173.0</ele><time>2026-05-03T12:07:58.964Z</time></trkpt><trkpt lat="42.4550261" lon="14.1366935"><ele>173.0</ele><time>2026-05-03T12:07:59.964Z</time></trkpt><trkpt lat="42.455037" lon="14.1365627"><ele>173.0</ele><time>2026-05-03T12:08:00.963Z</time></trkpt><trkpt lat="42.4550802" lon="14.1364766"><ele>174.4</ele><time>2026-05-03T12:08:01.963Z</time></trkpt><trkpt lat="42.455198" lon="14.1364038"><ele>175.8</ele><time>2026-05-03T12:08:03.964Z</time></trkpt><trkpt lat="42.455278" lon="14.1363756"><ele>177.2</ele><time>2026-05-03T12:08:04.963Z</time></trkpt><trkpt lat="42.4553632" lon="14.1363331"><ele>178.6</ele><time>2026-05-03T12:08:05.964Z</time></trkpt><trkpt lat="42.455447" lon="14.136287"><ele>180.0</ele><time>2026-05-03T12:08:06.964Z</time></trkpt><trkpt lat="42.4555281" lon="14.1362365"><ele>180.0</ele><time>2026-05-03T12:08:07.964Z</time></trkpt><trkpt lat="42.4556097" lon="14.1361866"><ele>180.0</ele><time>2026-05-03T12:08:08.963Z</time></trkpt><trkpt lat="42.455693" lon="14.1361356"><ele>180.0</ele><time>2026-05-03T12:08:09.963Z</time></trkpt><trkpt lat="42.455783" lon="14.1360749"><ele>180.0</ele><time>2026-05-03T12:08:10.964Z</time></trkpt><trkpt lat="42.4558753" lon="14.1359969"><ele>180.0</ele><time>2026-05-03T12:08:11.964Z</time></trkpt><trkpt lat="42.4559593" lon="14.1359047"><ele>180.0</ele><time>2026-05-03T12:08:12.964Z</time></trkpt><trkpt lat="42.4560355" lon="14.1357905"><ele>180.0</ele><time>2026-05-03T12:08:13.963Z</time></trkpt><trkpt lat="42.4561006" lon="14.1356638"><ele>180.0</ele><time>2026-05-03T12:08:14.963Z</time></trkpt><trkpt lat="42.4561564" lon="14.1355166"><ele>180.0</ele><time>2026-05-03T12:08:15.963Z</time></trkpt><trkpt lat="42.4562198" lon="14.1353333"><ele>176.0</ele><time>2026-05-03T12:08:16.964Z</time></trkpt><trkpt lat="42.456287" lon="14.1351244"><ele>172.0</ele><time>2026-05-03T12:08:17.963Z</time></trkpt><trkpt lat="42.4563498" lon="14.1349287"><ele>168.0</ele><time>2026-05-03T12:08:18.964Z</time></trkpt><trkpt lat="42.4564104" lon="14.1347399"><ele>168.0</ele><time>2026-05-03T12:08:19.964Z</time></trkpt><trkpt lat="42.4564692" lon="14.1345582"><ele>168.0</ele><time>2026-05-03T12:08:20.963Z</time></trkpt><trkpt lat="42.4565273" lon="14.1343801"><ele>168.0</ele><time>2026-05-03T12:08:21.964Z</time></trkpt><trkpt lat="42.4565838" lon="14.1342081"><ele>168.0</ele><time>2026-05-03T12:08:22.963Z</time></trkpt><trkpt lat="42.4566375" lon="14.1340391"><ele>168.0</ele><time>2026-05-03T12:08:23.964Z</time></trkpt><trkpt lat="42.4566795" lon="14.133868"><ele>168.0</ele><time>2026-05-03T12:08:24.963Z</time></trkpt><trkpt lat="42.4567111" lon="14.1336958"><ele>168.0</ele><time>2026-05-03T12:08:25.964Z</time></trkpt><trkpt lat="42.4567391" lon="14.1335255"><ele>168.0</ele><time>2026-05-03T12:08:26.964Z</time></trkpt><trkpt lat="42.456767" lon="14.1333589"><ele>167.5</ele><time>2026-05-03T12:08:27.963Z</time></trkpt><trkpt lat="42.4567918" lon="14.133194"><ele>167.0</ele><time>2026-05-03T12:08:28.964Z</time></trkpt><trkpt lat="42.4568143" lon="14.1330305"><ele>166.5</ele><time>2026-05-03T12:08:29.964Z</time></trkpt><trkpt lat="42.4568367" lon="14.1328682"><ele>166.0</ele><time>2026-05-03T12:08:30.963Z</time></trkpt><trkpt lat="42.4568661" lon="14.1327017"><ele>166.0</ele><time>2026-05-03T12:08:31.964Z</time></trkpt><trkpt lat="42.4569066" lon="14.1325426"><ele>166.0</ele><time>2026-05-03T12:08:32.963Z</time></trkpt><trkpt lat="42.4569524" lon="14.1323902"><ele>166.0</ele><time>2026-05-03T12:08:33.963Z</time></trkpt><trkpt lat="42.4570041" lon="14.13224"><ele>166.0</ele><time>2026-05-03T12:08:34.964Z</time></trkpt><trkpt lat="42.4570639" lon="14.1320944"><ele>164.5</ele><time>2026-05-03T12:08:35.963Z</time></trkpt><trkpt lat="42.4571293" lon="14.1319425"><ele>163.0</ele><time>2026-05-03T12:08:36.964Z</time></trkpt><trkpt lat="42.4571942" lon="14.1317812"><ele>161.5</ele><time>2026-05-03T12:08:37.964Z</time></trkpt><trkpt lat="42.4572626" lon="14.1316105"><ele>160.0</ele><time>2026-05-03T12:08:38.964Z</time></trkpt><trkpt lat="42.4573362" lon="14.1314299"><ele>160.0</ele><time>2026-05-03T12:08:39.964Z</time></trkpt><trkpt lat="42.4574122" lon="14.1312466"><ele>160.0</ele><time>2026-05-03T12:08:40.963Z</time></trkpt><trkpt lat="42.4574943" lon="14.131065"><ele>160.0</ele><time>2026-05-03T12:08:41.964Z</time></trkpt><trkpt lat="42.4575824" lon="14.1308933"><ele>160.0</ele><time>2026-05-03T12:08:42.964Z</time></trkpt><trkpt lat="42.4576785" lon="14.1307327"><ele>160.0</ele><time>2026-05-03T12:08:43.963Z</time></trkpt><trkpt lat="42.4577855" lon="14.1305819"><ele>160.0</ele><time>2026-05-03T12:08:44.964Z</time></trkpt><trkpt lat="42.4579066" lon="14.1304421"><ele>159.33333333333334</ele><time>2026-05-03T12:08:45.964Z</time></trkpt><trkpt lat="42.4580371" lon="14.1303086"><ele>158.66666666666666</ele><time>2026-05-03T12:08:46.964Z</time></trkpt><trkpt lat="42.4581654" lon="14.1301663"><ele>158.0</ele><time>2026-05-03T12:08:47.964Z</time></trkpt><trkpt lat="42.4582872" lon="14.1300116"><ele>158.66666666666666</ele><time>2026-05-03T12:08:48.964Z</time></trkpt><trkpt lat="42.4583989" lon="14.1298413"><ele>159.33333333333334</ele><time>2026-05-03T12:08:49.963Z</time></trkpt><trkpt lat="42.4584922" lon="14.1296685"><ele>160.0</ele><time>2026-05-03T12:08:50.963Z</time></trkpt><trkpt lat="42.4585689" lon="14.1294919"><ele>160.0</ele><time>2026-05-03T12:08:51.963Z</time></trkpt><trkpt lat="42.4586325" lon="14.1293101"><ele>160.0</ele><time>2026-05-03T12:08:52.963Z</time></trkpt><trkpt lat="42.4586804" lon="14.1291226"><ele>160.0</ele><time>2026-05-03T12:08:53.964Z</time></trkpt><trkpt lat="42.4587072" lon="14.128928"><ele>160.0</ele><time>2026-05-03T12:08:54.964Z</time></trkpt><trkpt lat="42.4587089" lon="14.1287265"><ele>161.0</ele><time>2026-05-03T12:08:55.963Z</time></trkpt><trkpt lat="42.4586872" lon="14.1285191"><ele>162.0</ele><time>2026-05-03T12:08:56.963Z</time></trkpt><trkpt lat="42.4586437" lon="14.1283112"><ele>163.0</ele><time>2026-05-03T12:08:57.964Z</time></trkpt><trkpt lat="42.4585783" lon="14.1281014"><ele>163.0</ele><time>2026-05-03T12:08:58.964Z</time></trkpt><trkpt lat="42.4585019" lon="14.1278911"><ele>163.0</ele><time>2026-05-03T12:08:59.963Z</time></trkpt><trkpt lat="42.4584274" lon="14.1276861"><ele>163.0</ele><time>2026-05-03T12:09:00.964Z</time></trkpt><trkpt lat="42.4583505" lon="14.1274981"><ele>165.66666666666669</ele><time>2026-05-03T12:09:01.963Z</time></trkpt><trkpt lat="42.4582552" lon="14.1273321"><ele>168.33333333333334</ele><time>2026-05-03T12:09:02.964Z</time></trkpt><trkpt lat="42.4581378" lon="14.1271867"><ele>171.0</ele><time>2026-05-03T12:09:03.964Z</time></trkpt><trkpt lat="42.4580145" lon="14.1270533"><ele>169.66666666666666</ele><time>2026-05-03T12:09:04.964Z</time></trkpt><trkpt lat="42.4579044" lon="14.1268948"><ele>168.33333333333331</ele><time>2026-05-03T12:09:05.964Z</time></trkpt><trkpt lat="42.4577996" lon="14.1267214"><ele>167.0</ele><time>2026-05-03T12:09:06.963Z</time></trkpt><trkpt lat="42.4577004" lon="14.1265328"><ele>167.0</ele><time>2026-05-03T12:09:07.963Z</time></trkpt><trkpt lat="42.4576022" lon="14.126343"><ele>167.0</ele><time>2026-05-03T12:09:08.964Z</time></trkpt><trkpt lat="42.4575052" lon="14.1261492"><ele>167.0</ele><time>2026-05-03T12:09:09.964Z</time></trkpt><trkpt lat="42.4574233" lon="14.125954"><ele>167.0</ele><time>2026-05-03T12:09:10.964Z</time></trkpt><trkpt lat="42.4573576" lon="14.1257632"><ele>167.0</ele><time>2026-05-03T12:09:11.964Z</time></trkpt><trkpt lat="42.4573068" lon="14.1255698"><ele>167.0</ele><time>2026-05-03T12:09:12.963Z</time></trkpt><trkpt lat="42.4572678" lon="14.1253785"><ele>168.0</ele><time>2026-05-03T12:09:13.964Z</time></trkpt><trkpt lat="42.4572437" lon="14.1251838"><ele>169.0</ele><time>2026-05-03T12:09:14.964Z</time></trkpt><trkpt lat="42.4572364" lon="14.1249817"><ele>170.0</ele><time>2026-05-03T12:09:15.963Z</time></trkpt><trkpt lat="42.457245" lon="14.124776"><ele>171.0</ele><time>2026-05-03T12:09:16.963Z</time></trkpt><trkpt lat="42.4572667" lon="14.1245666"><ele>171.0</ele><time>2026-05-03T12:09:17.964Z</time></trkpt><trkpt lat="42.4572999" lon="14.1243559"><ele>171.0</ele><time>2026-05-03T12:09:18.964Z</time></trkpt><trkpt lat="42.4573442" lon="14.1241425"><ele>171.0</ele><time>2026-05-03T12:09:19.963Z</time></trkpt><trkpt lat="42.4573983" lon="14.1239287"><ele>168.66666666666666</ele><time>2026-05-03T12:09:20.963Z</time></trkpt><trkpt lat="42.4574576" lon="14.1237116"><ele>166.33333333333331</ele><time>2026-05-03T12:09:21.964Z</time></trkpt><trkpt lat="42.457523" lon="14.1234902"><ele>164.0</ele><time>2026-05-03T12:09:22.963Z</time></trkpt><trkpt lat="42.4575901" lon="14.1232652"><ele>163.33333333333331</ele><time>2026-05-03T12:09:23.964Z</time></trkpt><trkpt lat="42.4576521" lon="14.1230501"><ele>162.66666666666666</ele><time>2026-05-03T12:09:24.964Z</time></trkpt><trkpt lat="42.4577134" lon="14.1228417"><ele>162.0</ele><time>2026-05-03T12:09:25.964Z</time></trkpt><trkpt lat="42.4577762" lon="14.122643"><ele>162.0</ele><time>2026-05-03T12:09:26.963Z</time></trkpt><trkpt lat="42.4578453" lon="14.1224555"><ele>162.0</ele><time>2026-05-03T12:09:27.964Z</time></trkpt><trkpt lat="42.4579214" lon="14.1222799"><ele>162.0</ele><time>2026-05-03T12:09:28.963Z</time></trkpt><trkpt lat="42.4580058" lon="14.1221178"><ele>161.5</ele><time>2026-05-03T12:09:29.964Z</time></trkpt><trkpt lat="42.4580965" lon="14.1219693"><ele>161.0</ele><time>2026-05-03T12:09:30.964Z</time></trkpt><trkpt lat="42.4581966" lon="14.1218279"><ele>160.5</ele><time>2026-05-03T12:09:31.964Z</time></trkpt><trkpt lat="42.4583044" lon="14.1216981"><ele>160.0</ele><time>2026-05-03T12:09:32.963Z</time></trkpt><trkpt lat="42.4584186" lon="14.1215761"><ele>160.0</ele><time>2026-05-03T12:09:33.963Z</time></trkpt><trkpt lat="42.4585351" lon="14.1214558"><ele>160.0</ele><time>2026-05-03T12:09:34.963Z</time></trkpt><trkpt lat="42.4586512" lon="14.1213346"><ele>160.0</ele><time>2026-05-03T12:09:35.964Z</time></trkpt><trkpt lat="42.4587649" lon="14.1212147"><ele>160.0</ele><time>2026-05-03T12:09:36.964Z</time></trkpt><trkpt lat="42.458874" lon="14.121096"><ele>160.0</ele><time>2026-05-03T12:09:37.963Z</time></trkpt><trkpt lat="42.4589824" lon="14.1209815"><ele>160.0</ele><time>2026-05-03T12:09:38.963Z</time></trkpt><trkpt lat="42.4590867" lon="14.1208706"><ele>160.0</ele><time>2026-05-03T12:09:39.963Z</time></trkpt><trkpt lat="42.4591896" lon="14.1207621"><ele>160.0</ele><time>2026-05-03T12:09:40.964Z</time></trkpt><trkpt lat="42.4592892" lon="14.1206553"><ele>160.0</ele><time>2026-05-03T12:09:41.964Z</time></trkpt><trkpt lat="42.4593854" lon="14.1205519"><ele>160.0</ele><time>2026-05-03T12:09:42.963Z</time></trkpt><trkpt lat="42.45948" lon="14.1204534"><ele>160.0</ele><time>2026-05-03T12:09:43.964Z</time></trkpt><trkpt lat="42.4595737" lon="14.1203596"><ele>160.0</ele><time>2026-05-03T12:09:44.964Z</time></trkpt><trkpt lat="42.4596625" lon="14.1202659"><ele>160.0</ele><time>2026-05-03T12:09:45.963Z</time></trkpt><trkpt lat="42.4597477" lon="14.1201852"><ele>160.0</ele><time>2026-05-03T12:09:46.963Z</time></trkpt><trkpt lat="42.4598162" lon="14.1201335"><ele>160.0</ele><time>2026-05-03T12:09:47.964Z</time></trkpt><trkpt lat="42.4598781" lon="14.120105"><ele>160.0</ele><time>2026-05-03T12:09:48.963Z</time></trkpt><trkpt lat="42.4599479" lon="14.1200827"><ele>160.0</ele><time>2026-05-03T12:09:49.964Z</time></trkpt><trkpt lat="42.4600268" lon="14.1200585"><ele>160.0</ele><time>2026-05-03T12:09:50.964Z</time></trkpt><trkpt lat="42.4601133" lon="14.1200315"><ele>160.0</ele><time>2026-05-03T12:09:51.964Z</time></trkpt><trkpt lat="42.4602026" lon="14.1200137"><ele>160.0</ele><time>2026-05-03T12:09:52.964Z</time></trkpt><trkpt lat="42.4602921" lon="14.1200227"><ele>160.0</ele><time>2026-05-03T12:09:53.964Z</time></trkpt><trkpt lat="42.4604084" lon="14.1200629"><ele>160.0</ele><time>2026-05-03T12:09:54.963Z</time></trkpt><trkpt lat="42.4605452" lon="14.1201263"><ele>160.0</ele><time>2026-05-03T12:09:55.963Z</time></trkpt><trkpt lat="42.4606858" lon="14.1201813"><ele>160.66666666666669</ele><time>2026-05-03T12:09:56.964Z</time></trkpt><trkpt lat="42.4608347" lon="14.1202232"><ele>161.33333333333334</ele><time>2026-05-03T12:09:57.964Z</time></trkpt><trkpt lat="42.4609809" lon="14.1202627"><ele>162.0</ele><time>2026-05-03T12:09:58.964Z</time></trkpt><trkpt lat="42.461132" lon="14.1203085"><ele>162.0</ele><time>2026-05-03T12:09:59.964Z</time></trkpt><trkpt lat="42.4612807" lon="14.1203764"><ele>162.0</ele><time>2026-05-03T12:10:00.963Z</time></trkpt><trkpt lat="42.4614332" lon="14.1204681"><ele>162.0</ele><time>2026-05-03T12:10:01.964Z</time></trkpt><trkpt lat="42.4615767" lon="14.1205594"><ele>164.33333333333334</ele><time>2026-05-03T12:10:02.964Z</time></trkpt><trkpt lat="42.4617135" lon="14.1206556"><ele>166.66666666666669</ele><time>2026-05-03T12:10:03.964Z</time></trkpt><trkpt lat="42.4618461" lon="14.1207549"><ele>169.0</ele><time>2026-05-03T12:10:04.963Z</time></trkpt><trkpt lat="42.4619767" lon="14.1208617"><ele>168.0</ele><time>2026-05-03T12:10:05.963Z</time></trkpt><trkpt lat="42.4621087" lon="14.1209637"><ele>167.0</ele><time>2026-05-03T12:10:06.963Z</time></trkpt><trkpt lat="42.4622456" lon="14.1210659"><ele>166.0</ele><time>2026-05-03T12:10:07.964Z</time></trkpt><trkpt lat="42.4623846" lon="14.1211677"><ele>166.0</ele><time>2026-05-03T12:10:08.964Z</time></trkpt><trkpt lat="42.4625259" lon="14.1212693"><ele>166.0</ele><time>2026-05-03T12:10:09.964Z</time></trkpt><trkpt lat="42.4626688" lon="14.1213725"><ele>166.0</ele><time>2026-05-03T12:10:10.963Z</time></trkpt><trkpt lat="42.4628093" lon="14.1214778"><ele>162.33333333333334</ele><time>2026-05-03T12:10:11.964Z</time></trkpt><trkpt lat="42.4629459" lon="14.1215793"><ele>158.66666666666666</ele><time>2026-05-03T12:10:12.964Z</time></trkpt><trkpt lat="42.4630828" lon="14.1216756"><ele>155.0</ele><time>2026-05-03T12:10:13.964Z</time></trkpt><trkpt lat="42.4632153" lon="14.1217706"><ele>155.0</ele><time>2026-05-03T12:10:14.964Z</time></trkpt><trkpt lat="42.4633437" lon="14.1218665"><ele>155.0</ele><time>2026-05-03T12:10:15.963Z</time></trkpt><trkpt lat="42.4634687" lon="14.1219621"><ele>155.0</ele><time>2026-05-03T12:10:16.964Z</time></trkpt><trkpt lat="42.4635906" lon="14.1220565"><ele>155.0</ele><time>2026-05-03T12:10:17.963Z</time></trkpt><trkpt lat="42.4637088" lon="14.1221574"><ele>154.0</ele><time>2026-05-03T12:10:18.963Z</time></trkpt><trkpt lat="42.4638217" lon="14.1222754"><ele>153.0</ele><time>2026-05-03T12:10:19.963Z</time></trkpt><trkpt lat="42.46392" lon="14.1224184"><ele>152.0</ele><time>2026-05-03T12:10:20.963Z</time></trkpt><trkpt lat="42.4640087" lon="14.1225779"><ele>151.0</ele><time>2026-05-03T12:10:21.964Z</time></trkpt><trkpt lat="42.4640891" lon="14.1227427"><ele>150.5</ele><time>2026-05-03T12:10:22.964Z</time></trkpt><trkpt lat="42.4641635" lon="14.1229101"><ele>150.0</ele><time>2026-05-03T12:10:23.964Z</time></trkpt><trkpt lat="42.4642267" lon="14.1230785"><ele>149.5</ele><time>2026-05-03T12:10:24.963Z</time></trkpt><trkpt lat="42.4642814" lon="14.1232479"><ele>149.0</ele><time>2026-05-03T12:10:25.963Z</time></trkpt><trkpt lat="42.4643256" lon="14.1234208"><ele>149.0</ele><time>2026-05-03T12:10:26.964Z</time></trkpt><trkpt lat="42.4643699" lon="14.1235919"><ele>149.0</ele><time>2026-05-03T12:10:27.963Z</time></trkpt><trkpt lat="42.4644164" lon="14.1237596"><ele>149.0</ele><time>2026-05-03T12:10:28.964Z</time></trkpt><trkpt lat="42.4644724" lon="14.1239272"><ele>149.0</ele><time>2026-05-03T12:10:29.964Z</time></trkpt><trkpt lat="42.4645456" lon="14.1240869"><ele>147.0</ele><time>2026-05-03T12:10:30.964Z</time></trkpt><trkpt lat="42.464638" lon="14.1242337"><ele>145.0</ele><time>2026-05-03T12:10:31.963Z</time></trkpt><trkpt lat="42.4647458" lon="14.1243683"><ele>143.0</ele><time>2026-05-03T12:10:32.964Z</time></trkpt><trkpt lat="42.4648541" lon="14.124503"><ele>141.0</ele><time>2026-05-03T12:10:33.964Z</time></trkpt><trkpt lat="42.4649536" lon="14.1246434"><ele>141.0</ele><time>2026-05-03T12:10:34.964Z</time></trkpt><trkpt lat="42.4650479" lon="14.1247906"><ele>141.0</ele><time>2026-05-03T12:10:35.964Z</time></trkpt><trkpt lat="42.4651332" lon="14.1249452"><ele>141.0</ele><time>2026-05-03T12:10:36.964Z</time></trkpt><trkpt lat="42.4652163" lon="14.1251063"><ele>141.0</ele><time>2026-05-03T12:10:37.964Z</time></trkpt><trkpt lat="42.4653078" lon="14.1252663"><ele>139.33333333333334</ele><time>2026-05-03T12:10:38.964Z</time></trkpt><trkpt lat="42.465406" lon="14.1254179"><ele>137.66666666666669</ele><time>2026-05-03T12:10:39.964Z</time></trkpt><trkpt lat="42.4655114" lon="14.1255684"><ele>136.0</ele><time>2026-05-03T12:10:40.964Z</time></trkpt><trkpt lat="42.4656224" lon="14.1257143"><ele>138.33333333333334</ele><time>2026-05-03T12:10:41.963Z</time></trkpt><trkpt lat="42.4657393" lon="14.1258465"><ele>140.66666666666666</ele><time>2026-05-03T12:10:42.963Z</time></trkpt><trkpt lat="42.4658635" lon="14.1259625"><ele>143.0</ele><time>2026-05-03T12:10:43.964Z</time></trkpt><trkpt lat="42.4659966" lon="14.126047"><ele>143.0</ele><time>2026-05-03T12:10:44.963Z</time></trkpt><trkpt lat="42.466138" lon="14.1261005"><ele>143.0</ele><time>2026-05-03T12:10:45.964Z</time></trkpt><trkpt lat="42.4662824" lon="14.1261282"><ele>143.0</ele><time>2026-05-03T12:10:46.963Z</time></trkpt><trkpt lat="42.4664216" lon="14.1261423"><ele>143.0</ele><time>2026-05-03T12:10:47.964Z</time></trkpt><trkpt lat="42.4665525" lon="14.1261716"><ele>142.0</ele><time>2026-05-03T12:10:48.964Z</time></trkpt><trkpt lat="42.4666709" lon="14.1262405"><ele>141.0</ele><time>2026-05-03T12:10:49.963Z</time></trkpt><trkpt lat="42.4667709" lon="14.1263491"><ele>140.0</ele><time>2026-05-03T12:10:50.964Z</time></trkpt><trkpt lat="42.4668527" lon="14.1264885"><ele>139.0</ele><time>2026-05-03T12:10:51.963Z</time></trkpt><trkpt lat="42.4669263" lon="14.1266496"><ele>139.0</ele><time>2026-05-03T12:10:52.964Z</time></trkpt><trkpt lat="42.4670044" lon="14.1268162"><ele>139.0</ele><time>2026-05-03T12:10:53.963Z</time></trkpt><trkpt lat="42.4670878" lon="14.1269869"><ele>139.0</ele><time>2026-05-03T12:10:54.964Z</time></trkpt><trkpt lat="42.4671737" lon="14.1271641"><ele>137.66666666666669</ele><time>2026-05-03T12:10:55.963Z</time></trkpt><trkpt lat="42.4672607" lon="14.1273476"><ele>136.33333333333334</ele><time>2026-05-03T12:10:56.964Z</time></trkpt><trkpt lat="42.4673425" lon="14.1275395"><ele>135.0</ele><time>2026-05-03T12:10:57.963Z</time></trkpt><trkpt lat="42.4674177" lon="14.1277355"><ele>138.33333333333334</ele><time>2026-05-03T12:10:58.964Z</time></trkpt><trkpt lat="42.4674884" lon="14.1279289"><ele>141.66666666666669</ele><time>2026-05-03T12:10:59.964Z</time></trkpt><trkpt lat="42.4675537" lon="14.1281223"><ele>145.0</ele><time>2026-05-03T12:11:00.963Z</time></trkpt><trkpt lat="42.4676151" lon="14.1283102"><ele>145.5</ele><time>2026-05-03T12:11:01.964Z</time></trkpt><trkpt lat="42.4676811" lon="14.1284753"><ele>146.0</ele><time>2026-05-03T12:11:02.964Z</time></trkpt><trkpt lat="42.467763" lon="14.1286108"><ele>146.5</ele><time>2026-05-03T12:11:03.964Z</time></trkpt><trkpt lat="42.4678654" lon="14.1287198"><ele>147.0</ele><time>2026-05-03T12:11:04.964Z</time></trkpt><trkpt lat="42.467987" lon="14.1287967"><ele>149.5</ele><time>2026-05-03T12:11:05.964Z</time></trkpt><trkpt lat="42.4681194" lon="14.1288496"><ele>152.0</ele><time>2026-05-03T12:11:06.964Z</time></trkpt><trkpt lat="42.4682562" lon="14.1288934"><ele>154.5</ele><time>2026-05-03T12:11:07.964Z</time></trkpt><trkpt lat="42.4683962" lon="14.1289357"><ele>157.0</ele><time>2026-05-03T12:11:08.963Z</time></trkpt><trkpt lat="42.4685392" lon="14.1289835"><ele>157.0</ele><time>2026-05-03T12:11:09.963Z</time></trkpt><trkpt lat="42.4686826" lon="14.1290341"><ele>157.0</ele><time>2026-05-03T12:11:10.964Z</time></trkpt><trkpt lat="42.4688184" lon="14.129079"><ele>157.0</ele><time>2026-05-03T12:11:11.964Z</time></trkpt><trkpt lat="42.4689469" lon="14.1291186"><ele>157.0</ele><time>2026-05-03T12:11:12.963Z</time></trkpt><trkpt lat="42.4690717" lon="14.1291658"><ele>155.25</ele><time>2026-05-03T12:11:13.964Z</time></trkpt><trkpt lat="42.4691974" lon="14.129229"><ele>153.5</ele><time>2026-05-03T12:11:14.964Z</time></trkpt><trkpt lat="42.4693191" lon="14.129321"><ele>151.75</ele><time>2026-05-03T12:11:15.963Z</time></trkpt><trkpt lat="42.4694381" lon="14.1294263"><ele>150.0</ele><time>2026-05-03T12:11:16.964Z</time></trkpt><trkpt lat="42.4695559" lon="14.1295415"><ele>150.0</ele><time>2026-05-03T12:11:17.963Z</time></trkpt><trkpt lat="42.4696731" lon="14.1296658"><ele>150.0</ele><time>2026-05-03T12:11:18.963Z</time></trkpt><trkpt lat="42.4697892" lon="14.1297955"><ele>150.0</ele><time>2026-05-03T12:11:19.964Z</time></trkpt><trkpt lat="42.4699047" lon="14.129932"><ele>150.0</ele><time>2026-05-03T12:11:20.964Z</time></trkpt><trkpt lat="42.4700226" lon="14.1300739"><ele>150.0</ele><time>2026-05-03T12:11:21.964Z</time></trkpt><trkpt lat="42.4701429" lon="14.1302176"><ele>150.0</ele><time>2026-05-03T12:11:22.964Z</time></trkpt><trkpt lat="42.470263" lon="14.1303645"><ele>150.0</ele><time>2026-05-03T12:11:23.963Z</time></trkpt><trkpt lat="42.4703814" lon="14.1305108"><ele>150.0</ele><time>2026-05-03T12:11:24.964Z</time></trkpt><trkpt lat="42.4705023" lon="14.1306559"><ele>150.0</ele><time>2026-05-03T12:11:25.964Z</time></trkpt><trkpt lat="42.4706255" lon="14.1307989"><ele>148.0</ele><time>2026-05-03T12:11:26.964Z</time></trkpt><trkpt lat="42.4707419" lon="14.1309424"><ele>146.0</ele><time>2026-05-03T12:11:27.964Z</time></trkpt><trkpt lat="42.4708543" lon="14.1310834"><ele>144.0</ele><time>2026-05-03T12:11:28.963Z</time></trkpt><trkpt lat="42.4709613" lon="14.1312232"><ele>144.0</ele><time>2026-05-03T12:11:29.964Z</time></trkpt><trkpt lat="42.4710646" lon="14.1313538"><ele>144.0</ele><time>2026-05-03T12:11:30.964Z</time></trkpt><trkpt lat="42.471168" lon="14.1314794"><ele>144.0</ele><time>2026-05-03T12:11:31.963Z</time></trkpt><trkpt lat="42.4712691" lon="14.1316013"><ele>144.0</ele><time>2026-05-03T12:11:32.964Z</time></trkpt><trkpt lat="42.4713584" lon="14.1317252"><ele>143.5</ele><time>2026-05-03T12:11:33.964Z</time></trkpt><trkpt lat="42.4714312" lon="14.1318555"><ele>143.0</ele><time>2026-05-03T12:11:34.963Z</time></trkpt><trkpt lat="42.4714822" lon="14.1320036"><ele>142.5</ele><time>2026-05-03T12:11:35.964Z</time></trkpt><trkpt lat="42.4715107" lon="14.1321677"><ele>142.0</ele><time>2026-05-03T12:11:36.964Z</time></trkpt><trkpt lat="42.4715242" lon="14.1323413"><ele>143.5</ele><time>2026-05-03T12:11:37.964Z</time></trkpt><trkpt lat="42.4715352" lon="14.1325198"><ele>145.0</ele><time>2026-05-03T12:11:38.964Z</time></trkpt><trkpt lat="42.471557" lon="14.1326986"><ele>146.5</ele><time>2026-05-03T12:11:39.963Z</time></trkpt><trkpt lat="42.4715917" lon="14.1328713"><ele>148.0</ele><time>2026-05-03T12:11:40.963Z</time></trkpt><trkpt lat="42.4716438" lon="14.1330253"><ele>148.0</ele><time>2026-05-03T12:11:41.964Z</time></trkpt><trkpt lat="42.4717163" lon="14.1331624"><ele>148.0</ele><time>2026-05-03T12:11:42.963Z</time></trkpt><trkpt lat="42.4718044" lon="14.1332682"><ele>148.0</ele><time>2026-05-03T12:11:43.964Z</time></trkpt><trkpt lat="42.4719005" lon="14.1333342"><ele>148.0</ele><time>2026-05-03T12:11:44.963Z</time></trkpt><trkpt lat="42.4720047" lon="14.1333686"><ele>150.0</ele><time>2026-05-03T12:11:45.963Z</time></trkpt><trkpt lat="42.4721158" lon="14.1333736"><ele>152.0</ele><time>2026-05-03T12:11:46.964Z</time></trkpt><trkpt lat="42.4722279" lon="14.1333666"><ele>154.0</ele><time>2026-05-03T12:11:47.964Z</time></trkpt><trkpt lat="42.4723354" lon="14.1333758"><ele>156.0</ele><time>2026-05-03T12:11:48.964Z</time></trkpt><trkpt lat="42.4724364" lon="14.133412"><ele>158.0</ele><time>2026-05-03T12:11:49.963Z</time></trkpt><trkpt lat="42.4725341" lon="14.1334763"><ele>158.0</ele><time>2026-05-03T12:11:50.963Z</time></trkpt><trkpt lat="42.4726274" lon="14.133568"><ele>158.0</ele><time>2026-05-03T12:11:51.964Z</time></trkpt><trkpt lat="42.4727187" lon="14.1336764"><ele>158.0</ele><time>2026-05-03T12:11:52.963Z</time></trkpt><trkpt lat="42.4728202" lon="14.1337777"><ele>158.0</ele><time>2026-05-03T12:11:53.964Z</time></trkpt><trkpt lat="42.4729331" lon="14.1338665"><ele>160.0</ele><time>2026-05-03T12:11:54.963Z</time></trkpt><trkpt lat="42.4730523" lon="14.1339519"><ele>162.0</ele><time>2026-05-03T12:11:55.964Z</time></trkpt><trkpt lat="42.4731705" lon="14.1340475"><ele>164.0</ele><time>2026-05-03T12:11:56.964Z</time></trkpt><trkpt lat="42.4732834" lon="14.1341572"><ele>166.0</ele><time>2026-05-03T12:11:57.964Z</time></trkpt><trkpt lat="42.4733837" lon="14.1342796"><ele>166.0</ele><time>2026-05-03T12:11:58.964Z</time></trkpt><trkpt lat="42.473463" lon="14.1344087"><ele>166.0</ele><time>2026-05-03T12:11:59.964Z</time></trkpt><trkpt lat="42.4735241" lon="14.1345435"><ele>166.0</ele><time>2026-05-03T12:12:00.964Z</time></trkpt><trkpt lat="42.4735632" lon="14.1346868"><ele>166.0</ele><time>2026-05-03T12:12:01.964Z</time></trkpt><trkpt lat="42.4735923" lon="14.1348432"><ele>164.4</ele><time>2026-05-03T12:12:02.964Z</time></trkpt><trkpt lat="42.4736227" lon="14.134999"><ele>162.8</ele><time>2026-05-03T12:12:03.964Z</time></trkpt><trkpt lat="42.4736546" lon="14.1351496"><ele>161.20000000000002</ele><time>2026-05-03T12:12:04.963Z</time></trkpt><trkpt lat="42.4736941" lon="14.1352862"><ele>159.60000000000002</ele><time>2026-05-03T12:12:05.964Z</time></trkpt><trkpt lat="42.4737447" lon="14.1353911"><ele>158.0</ele><time>2026-05-03T12:12:06.963Z</time></trkpt><trkpt lat="42.4738114" lon="14.1354733"><ele>159.60000000000002</ele><time>2026-05-03T12:12:07.964Z</time></trkpt><trkpt lat="42.4738955" lon="14.1355336"><ele>161.20000000000002</ele><time>2026-05-03T12:12:08.963Z</time></trkpt><trkpt lat="42.4739899" lon="14.1355782"><ele>162.8</ele><time>2026-05-03T12:12:09.964Z</time></trkpt><trkpt lat="42.4740923" lon="14.1356229"><ele>164.4</ele><time>2026-05-03T12:12:10.963Z</time></trkpt><trkpt lat="42.4742023" lon="14.1356745"><ele>166.0</ele><time>2026-05-03T12:12:11.964Z</time></trkpt><trkpt lat="42.4743148" lon="14.1357477"><ele>166.0</ele><time>2026-05-03T12:12:12.963Z</time></trkpt><trkpt lat="42.4744325" lon="14.135847"><ele>166.0</ele><time>2026-05-03T12:12:13.963Z</time></trkpt><trkpt lat="42.4745423" lon="14.1359524"><ele>166.0</ele><time>2026-05-03T12:12:14.963Z</time></trkpt><trkpt lat="42.4746564" lon="14.1360412"><ele>166.0</ele><time>2026-05-03T12:12:15.963Z</time></trkpt><trkpt lat="42.474782" lon="14.1361073"><ele>170.25</ele><time>2026-05-03T12:12:16.964Z</time></trkpt><trkpt lat="42.4749113" lon="14.1361556"><ele>174.5</ele><time>2026-05-03T12:12:17.964Z</time></trkpt><trkpt lat="42.4750284" lon="14.1362038"><ele>178.75</ele><time>2026-05-03T12:12:18.964Z</time></trkpt><trkpt lat="42.475131" lon="14.1362723"><ele>183.0</ele><time>2026-05-03T12:12:19.964Z</time></trkpt><trkpt lat="42.4752157" lon="14.1363664"><ele>183.0</ele><time>2026-05-03T12:12:20.963Z</time></trkpt><trkpt lat="42.4752879" lon="14.1364861"><ele>183.0</ele><time>2026-05-03T12:12:21.964Z</time></trkpt><trkpt lat="42.4753719" lon="14.1366126"><ele>183.0</ele><time>2026-05-03T12:12:22.963Z</time></trkpt><trkpt lat="42.4754802" lon="14.1367297"><ele>183.0</ele><time>2026-05-03T12:12:23.964Z</time></trkpt><trkpt lat="42.4756152" lon="14.1368419"><ele>183.0</ele><time>2026-05-03T12:12:24.964Z</time></trkpt><trkpt lat="42.4757743" lon="14.1369501"><ele>183.0</ele><time>2026-05-03T12:12:25.964Z</time></trkpt><trkpt lat="42.4759475" lon="14.1370579"><ele>183.0</ele><time>2026-05-03T12:12:26.963Z</time></trkpt><trkpt lat="42.4761189" lon="14.1371631"><ele>181.66666666666666</ele><time>2026-05-03T12:12:27.963Z</time></trkpt><trkpt lat="42.4762878" lon="14.1372636"><ele>180.33333333333331</ele><time>2026-05-03T12:12:28.964Z</time></trkpt><trkpt lat="42.476453" lon="14.1373408"><ele>179.0</ele><time>2026-05-03T12:12:29.964Z</time></trkpt><trkpt lat="42.4766189" lon="14.1373991"><ele>179.0</ele><time>2026-05-03T12:12:30.964Z</time></trkpt><trkpt lat="42.4767824" lon="14.1374353"><ele>179.0</ele><time>2026-05-03T12:12:31.963Z</time></trkpt><trkpt lat="42.4769457" lon="14.1374561"><ele>179.0</ele><time>2026-05-03T12:12:32.964Z</time></trkpt><trkpt lat="42.4770997" lon="14.1374674"><ele>180.0</ele><time>2026-05-03T12:12:33.963Z</time></trkpt><trkpt lat="42.4772457" lon="14.1374619"><ele>181.0</ele><time>2026-05-03T12:12:34.963Z</time></trkpt><trkpt lat="42.4773975" lon="14.1374377"><ele>182.0</ele><time>2026-05-03T12:12:35.964Z</time></trkpt><trkpt lat="42.4775625" lon="14.1373898"><ele>179.33333333333331</ele><time>2026-05-03T12:12:36.963Z</time></trkpt><trkpt lat="42.477725" lon="14.1373252"><ele>176.66666666666666</ele><time>2026-05-03T12:12:37.964Z</time></trkpt><trkpt lat="42.4778804" lon="14.1372603"><ele>174.0</ele><time>2026-05-03T12:12:38.963Z</time></trkpt><trkpt lat="42.4780282" lon="14.1372124"><ele>172.5</ele><time>2026-05-03T12:12:39.964Z</time></trkpt><trkpt lat="42.4781545" lon="14.1371945"><ele>171.0</ele><time>2026-05-03T12:12:40.964Z</time></trkpt><trkpt lat="42.4782868" lon="14.1372102"><ele>169.5</ele><time>2026-05-03T12:12:41.964Z</time></trkpt><trkpt lat="42.4784152" lon="14.1372556"><ele>168.0</ele><time>2026-05-03T12:12:42.964Z</time></trkpt><trkpt lat="42.4785513" lon="14.1373047"><ele>168.0</ele><time>2026-05-03T12:12:43.964Z</time></trkpt><trkpt lat="42.4786885" lon="14.1373074"><ele>168.0</ele><time>2026-05-03T12:12:44.964Z</time></trkpt><trkpt lat="42.4788325" lon="14.137265"><ele>168.0</ele><time>2026-05-03T12:12:45.964Z</time></trkpt><trkpt lat="42.4789709" lon="14.1371973"><ele>168.0</ele><time>2026-05-03T12:12:46.963Z</time></trkpt><trkpt lat="42.4790992" lon="14.137121"><ele>167.75</ele><time>2026-05-03T12:12:47.964Z</time></trkpt><trkpt lat="42.4792128" lon="14.1370133"><ele>167.5</ele><time>2026-05-03T12:12:48.963Z</time></trkpt><trkpt lat="42.4793087" lon="14.1368672"><ele>167.25</ele><time>2026-05-03T12:12:49.963Z</time></trkpt><trkpt lat="42.4793897" lon="14.1367045"><ele>167.0</ele><time>2026-05-03T12:12:50.964Z</time></trkpt><trkpt lat="42.479484" lon="14.1365512"><ele>166.5</ele><time>2026-05-03T12:12:51.964Z</time></trkpt><trkpt lat="42.4795895" lon="14.1364182"><ele>166.0</ele><time>2026-05-03T12:12:52.964Z</time></trkpt><trkpt lat="42.47969" lon="14.1362768"><ele>165.5</ele><time>2026-05-03T12:12:53.963Z</time></trkpt><trkpt lat="42.479791" lon="14.136138"><ele>165.0</ele><time>2026-05-03T12:12:54.963Z</time></trkpt><trkpt lat="42.479873" lon="14.1359862"><ele>165.0</ele><time>2026-05-03T12:12:55.963Z</time></trkpt><trkpt lat="42.4799321" lon="14.1358176"><ele>165.0</ele><time>2026-05-03T12:12:56.964Z</time></trkpt><trkpt lat="42.4799714" lon="14.1356351"><ele>165.0</ele><time>2026-05-03T12:12:57.964Z</time></trkpt><trkpt lat="42.4800138" lon="14.1354667"><ele>165.0</ele><time>2026-05-03T12:12:58.964Z</time></trkpt><trkpt lat="42.4800758" lon="14.1353113"><ele>163.0</ele><time>2026-05-03T12:12:59.963Z</time></trkpt><trkpt lat="42.4801539" lon="14.1351771"><ele>161.0</ele><time>2026-05-03T12:13:00.964Z</time></trkpt><trkpt lat="42.4802501" lon="14.1350612"><ele>159.0</ele><time>2026-05-03T12:13:01.964Z</time></trkpt><trkpt lat="42.4803587" lon="14.1349554"><ele>157.0</ele><time>2026-05-03T12:13:02.964Z</time></trkpt><trkpt lat="42.4804665" lon="14.1348635"><ele>157.2</ele><time>2026-05-03T12:13:03.964Z</time></trkpt><trkpt lat="42.4805704" lon="14.1348062"><ele>157.39999999999998</ele><time>2026-05-03T12:13:04.964Z</time></trkpt><trkpt lat="42.4806705" lon="14.1347897"><ele>157.60000000000002</ele><time>2026-05-03T12:13:05.964Z</time></trkpt><trkpt lat="42.4807681" lon="14.1348135"><ele>157.8</ele><time>2026-05-03T12:13:06.964Z</time></trkpt><trkpt lat="42.4808637" lon="14.1348709"><ele>158.0</ele><time>2026-05-03T12:13:07.963Z</time></trkpt><trkpt lat="42.4809551" lon="14.1349567"><ele>158.0</ele><time>2026-05-03T12:13:08.963Z</time></trkpt><trkpt lat="42.4810342" lon="14.135067"><ele>158.0</ele><time>2026-05-03T12:13:09.964Z</time></trkpt><trkpt lat="42.4810976" lon="14.1352025"><ele>158.0</ele><time>2026-05-03T12:13:10.963Z</time></trkpt><trkpt lat="42.4811525" lon="14.135357"><ele>158.0</ele><time>2026-05-03T12:13:11.964Z</time></trkpt><trkpt lat="42.4812089" lon="14.1355192"><ele>158.0</ele><time>2026-05-03T12:13:12.964Z</time></trkpt><trkpt lat="42.4812651" lon="14.135683"><ele>158.0</ele><time>2026-05-03T12:13:13.964Z</time></trkpt><trkpt lat="42.4813171" lon="14.1358451"><ele>158.0</ele><time>2026-05-03T12:13:14.964Z</time></trkpt><trkpt lat="42.4813714" lon="14.1360052"><ele>158.0</ele><time>2026-05-03T12:13:15.964Z</time></trkpt><trkpt lat="42.4814271" lon="14.1361617"><ele>155.8</ele><time>2026-05-03T12:13:16.963Z</time></trkpt><trkpt lat="42.4814864" lon="14.1363131"><ele>153.60000000000002</ele><time>2026-05-03T12:13:17.964Z</time></trkpt><trkpt lat="42.4815489" lon="14.1364319"><ele>151.39999999999998</ele><time>2026-05-03T12:13:18.963Z</time></trkpt><trkpt lat="42.4816234" lon="14.136509"><ele>149.2</ele><time>2026-05-03T12:13:19.964Z</time></trkpt><trkpt lat="42.4817154" lon="14.1365486"><ele>147.0</ele><time>2026-05-03T12:13:20.963Z</time></trkpt><trkpt lat="42.481809" lon="14.1365507"><ele>147.0</ele><time>2026-05-03T12:13:21.963Z</time></trkpt><trkpt lat="42.4819006" lon="14.1365202"><ele>147.0</ele><time>2026-05-03T12:13:22.963Z</time></trkpt><trkpt lat="42.4819829" lon="14.1364591"><ele>147.0</ele><time>2026-05-03T12:13:23.963Z</time></trkpt><trkpt lat="42.4820533" lon="14.1363599"><ele>147.0</ele><time>2026-05-03T12:13:24.964Z</time></trkpt><trkpt lat="42.4821084" lon="14.1362265"><ele>147.0</ele><time>2026-05-03T12:13:25.963Z</time></trkpt><trkpt lat="42.4821547" lon="14.1360546"><ele>145.33333333333334</ele><time>2026-05-03T12:13:26.964Z</time></trkpt><trkpt lat="42.4822003" lon="14.1358501"><ele>143.66666666666669</ele><time>2026-05-03T12:13:27.964Z</time></trkpt><trkpt lat="42.4822483" lon="14.1356171"><ele>142.0</ele><time>2026-05-03T12:13:28.964Z</time></trkpt><trkpt lat="42.4823039" lon="14.1353547"><ele>141.0</ele><time>2026-05-03T12:13:29.964Z</time></trkpt><trkpt lat="42.4823657" lon="14.135069"><ele>140.0</ele><time>2026-05-03T12:13:30.963Z</time></trkpt><trkpt lat="42.4824209" lon="14.1348017"><ele>139.0</ele><time>2026-05-03T12:13:31.963Z</time></trkpt><trkpt lat="42.4824732" lon="14.1345422"><ele>138.33333333333334</ele><time>2026-05-03T12:13:32.964Z</time></trkpt><trkpt lat="42.4825249" lon="14.1342922"><ele>137.66666666666666</ele><time>2026-05-03T12:13:33.964Z</time></trkpt><trkpt lat="42.4825766" lon="14.1340518"><ele>137.0</ele><time>2026-05-03T12:13:34.963Z</time></trkpt><trkpt lat="42.4826249" lon="14.1338443"><ele>136.0</ele><time>2026-05-03T12:13:35.964Z</time></trkpt><trkpt lat="42.4826696" lon="14.1336636"><ele>135.0</ele><time>2026-05-03T12:13:36.963Z</time></trkpt><trkpt lat="42.4827273" lon="14.1335112"><ele>134.0</ele><time>2026-05-03T12:13:37.963Z</time></trkpt><trkpt lat="42.4828028" lon="14.1333841"><ele>133.0</ele><time>2026-05-03T12:13:38.963Z</time></trkpt><trkpt lat="42.4828871" lon="14.133296"><ele>132.0</ele><time>2026-05-03T12:13:39.964Z</time></trkpt><trkpt lat="42.4829968" lon="14.1332206"><ele>131.0</ele><time>2026-05-03T12:13:40.964Z</time></trkpt><trkpt lat="42.4831337" lon="14.1331469"><ele>130.0</ele><time>2026-05-03T12:13:41.963Z</time></trkpt><trkpt lat="42.4832859" lon="14.1330677"><ele>129.0</ele><time>2026-05-03T12:13:42.963Z</time></trkpt><trkpt lat="42.4834429" lon="14.1329893"><ele>129.0</ele><time>2026-05-03T12:13:43.964Z</time></trkpt><trkpt lat="42.4835947" lon="14.1329138"><ele>129.0</ele><time>2026-05-03T12:13:44.964Z</time></trkpt><trkpt lat="42.4837428" lon="14.1328412"><ele>129.0</ele><time>2026-05-03T12:13:45.964Z</time></trkpt><trkpt lat="42.4838924" lon="14.1327684"><ele>127.66666666666666</ele><time>2026-05-03T12:13:46.963Z</time></trkpt><trkpt lat="42.4840362" lon="14.1327034"><ele>126.33333333333333</ele><time>2026-05-03T12:13:47.964Z</time></trkpt><trkpt lat="42.484177" lon="14.1326412"><ele>125.0</ele><time>2026-05-03T12:13:48.963Z</time></trkpt><trkpt lat="42.4843199" lon="14.1325745"><ele>125.0</ele><time>2026-05-03T12:13:49.964Z</time></trkpt><trkpt lat="42.4844575" lon="14.1325078"><ele>125.0</ele><time>2026-05-03T12:13:50.964Z</time></trkpt><trkpt lat="42.4845882" lon="14.1324407"><ele>125.0</ele><time>2026-05-03T12:13:51.964Z</time></trkpt><trkpt lat="42.4847159" lon="14.1323795"><ele>125.0</ele><time>2026-05-03T12:13:52.963Z</time></trkpt><trkpt lat="42.484843" lon="14.1323355"><ele>123.75</ele><time>2026-05-03T12:13:53.964Z</time></trkpt><trkpt lat="42.4849701" lon="14.1323169"><ele>122.5</ele><time>2026-05-03T12:13:54.963Z</time></trkpt><trkpt lat="42.4850951" lon="14.1323287"><ele>121.25</ele><time>2026-05-03T12:13:55.963Z</time></trkpt><trkpt lat="42.485215" lon="14.1323706"><ele>120.0</ele><time>2026-05-03T12:13:56.964Z</time></trkpt><trkpt lat="42.4853286" lon="14.1324432"><ele>119.5</ele><time>2026-05-03T12:13:57.963Z</time></trkpt><trkpt lat="42.4854323" lon="14.1325397"><ele>119.0</ele><time>2026-05-03T12:13:58.963Z</time></trkpt><trkpt lat="42.4855308" lon="14.1326522"><ele>118.5</ele><time>2026-05-03T12:13:59.964Z</time></trkpt><trkpt lat="42.4856266" lon="14.1327724"><ele>118.0</ele><time>2026-05-03T12:14:00.963Z</time></trkpt><trkpt lat="42.4857246" lon="14.1328936"><ele>118.0</ele><time>2026-05-03T12:14:01.964Z</time></trkpt><trkpt lat="42.4858252" lon="14.1330131"><ele>118.0</ele><time>2026-05-03T12:14:02.963Z</time></trkpt><trkpt lat="42.4859275" lon="14.1331313"><ele>118.0</ele><time>2026-05-03T12:14:03.963Z</time></trkpt><trkpt lat="42.4860269" lon="14.1332475"><ele>118.0</ele><time>2026-05-03T12:14:04.963Z</time></trkpt><trkpt lat="42.4861234" lon="14.133363"><ele>117.75</ele><time>2026-05-03T12:14:05.964Z</time></trkpt><trkpt lat="42.4862168" lon="14.1334761"><ele>117.5</ele><time>2026-05-03T12:14:06.964Z</time></trkpt><trkpt lat="42.4863081" lon="14.1335875"><ele>117.25</ele><time>2026-05-03T12:14:07.964Z</time></trkpt><trkpt lat="42.4863994" lon="14.1336938"><ele>117.0</ele><time>2026-05-03T12:14:08.964Z</time></trkpt><trkpt lat="42.4864837" lon="14.1338037"><ele>117.0</ele><time>2026-05-03T12:14:09.964Z</time></trkpt><trkpt lat="42.4865589" lon="14.133913"><ele>117.0</ele><time>2026-05-03T12:14:10.964Z</time></trkpt><trkpt lat="42.4866162" lon="14.134034"><ele>117.0</ele><time>2026-05-03T12:14:11.964Z</time></trkpt><trkpt lat="42.4866523" lon="14.1341852"><ele>117.0</ele><time>2026-05-03T12:14:12.963Z</time></trkpt><trkpt lat="42.4866826" lon="14.1343535"><ele>117.0</ele><time>2026-05-03T12:14:13.963Z</time></trkpt><trkpt lat="42.4867164" lon="14.1345344"><ele>117.0</ele><time>2026-05-03T12:14:14.964Z</time></trkpt><trkpt lat="42.4867532" lon="14.1347249"><ele>117.0</ele><time>2026-05-03T12:14:15.964Z</time></trkpt><trkpt lat="42.4867909" lon="14.1349233"><ele>117.0</ele><time>2026-05-03T12:14:16.964Z</time></trkpt><trkpt lat="42.4868274" lon="14.1351263"><ele>117.0</ele><time>2026-05-03T12:14:17.964Z</time></trkpt><trkpt lat="42.4868631" lon="14.135329"><ele>117.0</ele><time>2026-05-03T12:14:18.964Z</time></trkpt><trkpt lat="42.4869008" lon="14.1355309"><ele>117.0</ele><time>2026-05-03T12:14:19.963Z</time></trkpt><trkpt lat="42.4869456" lon="14.135727"><ele>116.75</ele><time>2026-05-03T12:14:20.964Z</time></trkpt><trkpt lat="42.4870001" lon="14.1359165"><ele>116.5</ele><time>2026-05-03T12:14:21.964Z</time></trkpt><trkpt lat="42.4870668" lon="14.1360977"><ele>116.25</ele><time>2026-05-03T12:14:22.964Z</time></trkpt><trkpt lat="42.4871391" lon="14.1362761"><ele>116.0</ele><time>2026-05-03T12:14:23.963Z</time></trkpt><trkpt lat="42.4872098" lon="14.1364508"><ele>118.0</ele><time>2026-05-03T12:14:24.964Z</time></trkpt><trkpt lat="42.4872747" lon="14.1366245"><ele>120.0</ele><time>2026-05-03T12:14:25.964Z</time></trkpt><trkpt lat="42.4873344" lon="14.1367925"><ele>122.0</ele><time>2026-05-03T12:14:26.963Z</time></trkpt><trkpt lat="42.4873891" lon="14.136953"><ele>124.0</ele><time>2026-05-03T12:14:27.964Z</time></trkpt><trkpt lat="42.4874417" lon="14.1371046"><ele>124.0</ele><time>2026-05-03T12:14:28.963Z</time></trkpt><trkpt lat="42.4874929" lon="14.1372481"><ele>124.0</ele><time>2026-05-03T12:14:29.964Z</time></trkpt><trkpt lat="42.4875355" lon="14.1373854"><ele>124.0</ele><time>2026-05-03T12:14:30.964Z</time></trkpt><trkpt lat="42.4875739" lon="14.1375255"><ele>124.0</ele><time>2026-05-03T12:14:31.964Z</time></trkpt><trkpt lat="42.4876082" lon="14.1376819"><ele>124.0</ele><time>2026-05-03T12:14:32.963Z</time></trkpt><trkpt lat="42.4876268" lon="14.1378592"><ele>124.0</ele><time>2026-05-03T12:14:33.964Z</time></trkpt><trkpt lat="42.4876278" lon="14.1380504"><ele>124.0</ele><time>2026-05-03T12:14:34.964Z</time></trkpt><trkpt lat="42.4876218" lon="14.1382303"><ele>124.0</ele><time>2026-05-03T12:14:35.964Z</time></trkpt><trkpt lat="42.4876221" lon="14.1383948"><ele>124.25</ele><time>2026-05-03T12:14:36.964Z</time></trkpt><trkpt lat="42.4876388" lon="14.1385561"><ele>124.5</ele><time>2026-05-03T12:14:37.963Z</time></trkpt><trkpt lat="42.4876751" lon="14.1387251"><ele>124.75</ele><time>2026-05-03T12:14:38.964Z</time></trkpt><trkpt lat="42.4877306" lon="14.1388847"><ele>125.0</ele><time>2026-05-03T12:14:39.964Z</time></trkpt><trkpt lat="42.4878064" lon="14.1390206"><ele>125.25</ele><time>2026-05-03T12:14:40.964Z</time></trkpt><trkpt lat="42.4879009" lon="14.1391383"><ele>125.5</ele><time>2026-05-03T12:14:41.964Z</time></trkpt><trkpt lat="42.4880098" lon="14.1392304"><ele>125.75</ele><time>2026-05-03T12:14:42.963Z</time></trkpt><trkpt lat="42.4881304" lon="14.1392944"><ele>126.0</ele><time>2026-05-03T12:14:43.963Z</time></trkpt><trkpt lat="42.4882577" lon="14.1393314"><ele>128.0</ele><time>2026-05-03T12:14:44.964Z</time></trkpt><trkpt lat="42.4883861" lon="14.1393531"><ele>130.0</ele><time>2026-05-03T12:14:45.964Z</time></trkpt><trkpt lat="42.4885137" lon="14.1393604"><ele>132.0</ele><time>2026-05-03T12:14:46.964Z</time></trkpt><trkpt lat="42.4886274" lon="14.1393623"><ele>134.0</ele><time>2026-05-03T12:14:47.963Z</time></trkpt><trkpt lat="42.488732" lon="14.1393688"><ele>134.5</ele><time>2026-05-03T12:14:48.964Z</time></trkpt><trkpt lat="42.4888284" lon="14.1393781"><ele>135.0</ele><time>2026-05-03T12:14:49.963Z</time></trkpt><trkpt lat="42.4889142" lon="14.1393997"><ele>135.5</ele><time>2026-05-03T12:14:50.964Z</time></trkpt><trkpt lat="42.4889917" lon="14.1394434"><ele>136.0</ele><time>2026-05-03T12:14:51.964Z</time></trkpt><trkpt lat="42.4890606" lon="14.1394993"><ele>136.5</ele><time>2026-05-03T12:14:52.964Z</time></trkpt><trkpt lat="42.4891215" lon="14.1395562"><ele>137.0</ele><time>2026-05-03T12:14:53.964Z</time></trkpt><trkpt lat="42.4891843" lon="14.1396028"><ele>137.0</ele><time>2026-05-03T12:14:54.964Z</time></trkpt><trkpt lat="42.4892507" lon="14.1396198"><ele>137.0</ele><time>2026-05-03T12:14:55.963Z</time></trkpt><trkpt lat="42.4893186" lon="14.1396044"><ele>137.0</ele><time>2026-05-03T12:14:56.964Z</time></trkpt><trkpt lat="42.4893828" lon="14.1395556"><ele>137.0</ele><time>2026-05-03T12:14:57.964Z</time></trkpt><trkpt lat="42.4894576" lon="14.1395021"><ele>137.0</ele><time>2026-05-03T12:14:58.963Z</time></trkpt><trkpt lat="42.4895558" lon="14.1394666"><ele>137.0</ele><time>2026-05-03T12:14:59.964Z</time></trkpt><trkpt lat="42.489676" lon="14.1394557"><ele>138.0</ele><time>2026-05-03T12:15:00.964Z</time></trkpt><trkpt lat="42.4898129" lon="14.1394594"><ele>139.0</ele><time>2026-05-03T12:15:01.964Z</time></trkpt><trkpt lat="42.4899492" lon="14.1394632"><ele>140.0</ele><time>2026-05-03T12:15:02.964Z</time></trkpt><trkpt lat="42.4901072" lon="14.1394716"><ele>141.0</ele><time>2026-05-03T12:15:03.964Z</time></trkpt><trkpt lat="42.4902564" lon="14.139478"><ele>141.0</ele><time>2026-05-03T12:15:04.964Z</time></trkpt><trkpt lat="42.4903948" lon="14.1394874"><ele>141.0</ele><time>2026-05-03T12:15:05.964Z</time></trkpt><trkpt lat="42.4905264" lon="14.1394874"><ele>141.0</ele><time>2026-05-03T12:15:06.964Z</time></trkpt><trkpt lat="42.4906452" lon="14.1395033"><ele>141.0</ele><time>2026-05-03T12:15:07.964Z</time></trkpt><trkpt lat="42.4907314" lon="14.1395441"><ele>142.66666666666666</ele><time>2026-05-03T12:15:08.963Z</time></trkpt><trkpt lat="42.4907957" lon="14.1395951"><ele>144.33333333333334</ele><time>2026-05-03T12:15:09.963Z</time></trkpt><trkpt lat="42.4908393" lon="14.1396633"><ele>146.0</ele><time>2026-05-03T12:15:10.963Z</time></trkpt><trkpt lat="42.4908604" lon="14.1397503"><ele>147.66666666666669</ele><time>2026-05-03T12:15:11.964Z</time></trkpt><trkpt lat="42.490867" lon="14.139863"><ele>149.33333333333334</ele><time>2026-05-03T12:15:12.963Z</time></trkpt><trkpt lat="42.4908647" lon="14.1399994"><ele>151.0</ele><time>2026-05-03T12:15:13.964Z</time></trkpt><trkpt lat="42.4908613" lon="14.1401557"><ele>151.8</ele><time>2026-05-03T12:15:14.963Z</time></trkpt><trkpt lat="42.4908605" lon="14.1403184"><ele>152.6</ele><time>2026-05-03T12:15:15.963Z</time></trkpt><trkpt lat="42.4908628" lon="14.1404693"><ele>153.4</ele><time>2026-05-03T12:15:16.964Z</time></trkpt><trkpt lat="42.4908638" lon="14.1406039"><ele>154.2</ele><time>2026-05-03T12:15:17.963Z</time></trkpt><trkpt lat="42.4908758" lon="14.1407221"><ele>155.0</ele><time>2026-05-03T12:15:18.964Z</time></trkpt><trkpt lat="42.4909119" lon="14.1408117"><ele>155.0</ele><time>2026-05-03T12:15:19.963Z</time></trkpt><trkpt lat="42.4910102" lon="14.1408906"><ele>155.0</ele><time>2026-05-03T12:15:21.964Z</time></trkpt><trkpt lat="42.4911186" lon="14.1408216"><ele>155.0</ele><time>2026-05-03T12:15:23.964Z</time></trkpt><trkpt lat="42.4911682" lon="14.1407437"><ele>155.0</ele><time>2026-05-03T12:15:24.964Z</time></trkpt><trkpt lat="42.491222" lon="14.1406544"><ele>155.0</ele><time>2026-05-03T12:15:25.964Z</time></trkpt><trkpt lat="42.4912732" lon="14.1405662"><ele>156.0</ele><time>2026-05-03T12:15:26.963Z</time></trkpt><trkpt lat="42.4913162" lon="14.140491"><ele>157.0</ele><time>2026-05-03T12:15:27.963Z</time></trkpt><trkpt lat="42.4913525" lon="14.1404149"><ele>158.0</ele><time>2026-05-03T12:15:28.963Z</time></trkpt><trkpt lat="42.4913966" lon="14.1403531"><ele>159.0</ele><time>2026-05-03T12:15:29.964Z</time></trkpt><trkpt lat="42.4915022" lon="14.1403477"><ele>160.0</ele><time>2026-05-03T12:15:31.964Z</time></trkpt><trkpt lat="42.4915841" lon="14.1404903"><ele>161.0</ele><time>2026-05-03T12:15:33.964Z</time></trkpt><trkpt lat="42.4916135" lon="14.1406042"><ele>161.0</ele><time>2026-05-03T12:15:34.964Z</time></trkpt><trkpt lat="42.4916495" lon="14.1407372"><ele>161.0</ele><time>2026-05-03T12:15:35.963Z</time></trkpt><trkpt lat="42.4916909" lon="14.1408817"><ele>161.0</ele><time>2026-05-03T12:15:36.964Z</time></trkpt><trkpt lat="42.4917275" lon="14.1410259"><ele>161.0</ele><time>2026-05-03T12:15:37.964Z</time></trkpt><trkpt lat="42.4917568" lon="14.1411707"><ele>161.0</ele><time>2026-05-03T12:15:38.963Z</time></trkpt><trkpt lat="42.4917706" lon="14.1413223"><ele>161.0</ele><time>2026-05-03T12:15:39.964Z</time></trkpt><trkpt lat="42.4917674" lon="14.141477"><ele>161.0</ele><time>2026-05-03T12:15:40.964Z</time></trkpt><trkpt lat="42.4917458" lon="14.1416286"><ele>161.0</ele><time>2026-05-03T12:15:41.964Z</time></trkpt><trkpt lat="42.4916971" lon="14.1417704"><ele>161.0</ele><time>2026-05-03T12:15:42.964Z</time></trkpt><trkpt lat="42.4916443" lon="14.141905"><ele>161.0</ele><time>2026-05-03T12:15:43.963Z</time></trkpt><trkpt lat="42.4916042" lon="14.1420466"><ele>161.0</ele><time>2026-05-03T12:15:44.964Z</time></trkpt><trkpt lat="42.4915874" lon="14.1421836"><ele>161.0</ele><time>2026-05-03T12:15:45.964Z</time></trkpt><trkpt lat="42.4915973" lon="14.1423055"><ele>161.0</ele><time>2026-05-03T12:15:46.964Z</time></trkpt><trkpt lat="42.491629" lon="14.1424225"><ele>161.0</ele><time>2026-05-03T12:15:47.964Z</time></trkpt><trkpt lat="42.4917001" lon="14.142535"><ele>160.20000000000002</ele><time>2026-05-03T12:15:48.964Z</time></trkpt><trkpt lat="42.491754" lon="14.1426569"><ele>159.4</ele><time>2026-05-03T12:15:49.964Z</time></trkpt><trkpt lat="42.4917724" lon="14.1427882"><ele>158.6</ele><time>2026-05-03T12:15:50.964Z</time></trkpt><trkpt lat="42.4917677" lon="14.1429065"><ele>157.8</ele><time>2026-05-03T12:15:51.963Z</time></trkpt><trkpt lat="42.4917271" lon="14.1430199"><ele>157.0</ele><time>2026-05-03T12:15:52.963Z</time></trkpt><trkpt lat="42.4916674" lon="14.1431117"><ele>157.0</ele><time>2026-05-03T12:15:53.963Z</time></trkpt><trkpt lat="42.4915997" lon="14.1431989"><ele>157.0</ele><time>2026-05-03T12:15:54.964Z</time></trkpt><trkpt lat="42.4915515" lon="14.1433079"><ele>157.0</ele><time>2026-05-03T12:15:55.963Z</time></trkpt><trkpt lat="42.4915243" lon="14.1434306"><ele>157.0</ele><time>2026-05-03T12:15:56.964Z</time></trkpt><trkpt lat="42.4915417" lon="14.1435718"><ele>157.0</ele><time>2026-05-03T12:15:57.963Z</time></trkpt><trkpt lat="42.491591" lon="14.1437229"><ele>157.0</ele><time>2026-05-03T12:15:58.964Z</time></trkpt><trkpt lat="42.4916523" lon="14.1438586"><ele>157.0</ele><time>2026-05-03T12:15:59.963Z</time></trkpt><trkpt lat="42.4917245" lon="14.1439855"><ele>157.0</ele><time>2026-05-03T12:16:00.963Z</time></trkpt><trkpt lat="42.4918156" lon="14.1441014"><ele>157.0</ele><time>2026-05-03T12:16:01.964Z</time></trkpt><trkpt lat="42.4919064" lon="14.1442048"><ele>148.66666666666669</ele><time>2026-05-03T12:16:02.963Z</time></trkpt><trkpt lat="42.4920912" lon="14.1442498"><ele>140.33333333333334</ele><time>2026-05-03T12:16:03.963Z</time></trkpt><trkpt lat="42.4922396" lon="14.1443298"><ele>132.0</ele><time>2026-05-03T12:16:04.964Z</time></trkpt><trkpt lat="42.492387" lon="14.1444008"><ele>132.0</ele><time>2026-05-03T12:16:05.963Z</time></trkpt><trkpt lat="42.4925267" lon="14.144474"><ele>132.0</ele><time>2026-05-03T12:16:06.963Z</time></trkpt><trkpt lat="42.4926668" lon="14.144548"><ele>132.0</ele><time>2026-05-03T12:16:07.964Z</time></trkpt><trkpt lat="42.4927818" lon="14.1446257"><ele>132.0</ele><time>2026-05-03T12:16:08.963Z</time></trkpt><trkpt lat="42.492887" lon="14.1447098"><ele>133.25</ele><time>2026-05-03T12:16:09.963Z</time></trkpt><trkpt lat="42.492983" lon="14.1448164"><ele>134.5</ele><time>2026-05-03T12:16:10.964Z</time></trkpt><trkpt lat="42.4930816" lon="14.1449338"><ele>135.75</ele><time>2026-05-03T12:16:11.964Z</time></trkpt><trkpt lat="42.4931905" lon="14.1450701"><ele>137.0</ele><time>2026-05-03T12:16:12.964Z</time></trkpt><trkpt lat="42.4933067" lon="14.1451747"><ele>137.0</ele><time>2026-05-03T12:16:13.964Z</time></trkpt><trkpt lat="42.4934044" lon="14.1452486"><ele>137.0</ele><time>2026-05-03T12:16:14.963Z</time></trkpt><trkpt lat="42.4934972" lon="14.1452831"><ele>137.0</ele><time>2026-05-03T12:16:15.963Z</time></trkpt><trkpt lat="42.4936018" lon="14.1452774"><ele>137.0</ele><time>2026-05-03T12:16:16.963Z</time></trkpt><trkpt lat="42.4936974" lon="14.1452365"><ele>137.0</ele><time>2026-05-03T12:16:17.964Z</time></trkpt><trkpt lat="42.4937791" lon="14.1451718"><ele>135.5</ele><time>2026-05-03T12:16:18.963Z</time></trkpt><trkpt lat="42.493853" lon="14.1450628"><ele>134.0</ele><time>2026-05-03T12:16:19.964Z</time></trkpt><trkpt lat="42.4938965" lon="14.1449293"><ele>132.5</ele><time>2026-05-03T12:16:20.964Z</time></trkpt><trkpt lat="42.4939349" lon="14.1447727"><ele>131.0</ele><time>2026-05-03T12:16:21.964Z</time></trkpt><trkpt lat="42.4939683" lon="14.144615"><ele>127.75</ele><time>2026-05-03T12:16:22.964Z</time></trkpt><trkpt lat="42.4940072" lon="14.1444583"><ele>124.5</ele><time>2026-05-03T12:16:23.964Z</time></trkpt><trkpt lat="42.494052" lon="14.1443075"><ele>121.25</ele><time>2026-05-03T12:16:24.963Z</time></trkpt><trkpt lat="42.4941134" lon="14.144173"><ele>118.0</ele><time>2026-05-03T12:16:25.964Z</time></trkpt><trkpt lat="42.4941933" lon="14.144062"><ele>114.5</ele><time>2026-05-03T12:16:26.964Z</time></trkpt><trkpt lat="42.4942876" lon="14.1439776"><ele>111.0</ele><time>2026-05-03T12:16:27.964Z</time></trkpt><trkpt lat="42.4943896" lon="14.1439083"><ele>107.5</ele><time>2026-05-03T12:16:28.963Z</time></trkpt><trkpt lat="42.4944965" lon="14.1438585"><ele>104.0</ele><time>2026-05-03T12:16:29.963Z</time></trkpt><trkpt lat="42.4946057" lon="14.1438326"><ele>104.0</ele><time>2026-05-03T12:16:30.964Z</time></trkpt><trkpt lat="42.4947213" lon="14.1438205"><ele>104.0</ele><time>2026-05-03T12:16:31.963Z</time></trkpt><trkpt lat="42.4948572" lon="14.1438198"><ele>104.0</ele><time>2026-05-03T12:16:32.964Z</time></trkpt><trkpt lat="42.4949962" lon="14.1438237"><ele>104.0</ele><time>2026-05-03T12:16:33.964Z</time></trkpt><trkpt lat="42.4951262" lon="14.1437946"><ele>104.0</ele><time>2026-05-03T12:16:34.964Z</time></trkpt><trkpt lat="42.4952524" lon="14.1437566"><ele>104.0</ele><time>2026-05-03T12:16:35.963Z</time></trkpt><trkpt lat="42.4953739" lon="14.1437175"><ele>104.0</ele><time>2026-05-03T12:16:36.963Z</time></trkpt><trkpt lat="42.495493" lon="14.1436775"><ele>104.0</ele><time>2026-05-03T12:16:37.963Z</time></trkpt><trkpt lat="42.4956155" lon="14.1436208"><ele>103.5</ele><time>2026-05-03T12:16:38.963Z</time></trkpt><trkpt lat="42.4957355" lon="14.1435342"><ele>103.0</ele><time>2026-05-03T12:16:39.964Z</time></trkpt><trkpt lat="42.4958606" lon="14.143429"><ele>102.5</ele><time>2026-05-03T12:16:40.964Z</time></trkpt><trkpt lat="42.4959842" lon="14.1433155"><ele>102.0</ele><time>2026-05-03T12:16:41.963Z</time></trkpt><trkpt lat="42.4961032" lon="14.143207"><ele>102.0</ele><time>2026-05-03T12:16:42.963Z</time></trkpt><trkpt lat="42.4962223" lon="14.1431026"><ele>102.0</ele><time>2026-05-03T12:16:43.964Z</time></trkpt><trkpt lat="42.4963397" lon="14.1430027"><ele>102.0</ele><time>2026-05-03T12:16:44.964Z</time></trkpt><trkpt lat="42.49646" lon="14.1429076"><ele>102.0</ele><time>2026-05-03T12:16:45.963Z</time></trkpt><trkpt lat="42.4965788" lon="14.1428081"><ele>101.5</ele><time>2026-05-03T12:16:46.964Z</time></trkpt><trkpt lat="42.4966954" lon="14.1427049"><ele>101.0</ele><time>2026-05-03T12:16:47.963Z</time></trkpt><trkpt lat="42.4968076" lon="14.1425947"><ele>100.5</ele><time>2026-05-03T12:16:48.963Z</time></trkpt><trkpt lat="42.4969174" lon="14.1424812"><ele>100.0</ele><time>2026-05-03T12:16:49.963Z</time></trkpt><trkpt lat="42.4970275" lon="14.1423665"><ele>96.25</ele><time>2026-05-03T12:16:50.964Z</time></trkpt><trkpt lat="42.4971369" lon="14.1422526"><ele>92.5</ele><time>2026-05-03T12:16:51.963Z</time></trkpt><trkpt lat="42.4972452" lon="14.1421385"><ele>88.75</ele><time>2026-05-03T12:16:52.964Z</time></trkpt><trkpt lat="42.4973331" lon="14.1420512"><ele>85.0</ele><time>2026-05-03T12:16:53.964Z</time></trkpt><trkpt lat="42.4974083" lon="14.1419929"><ele>85.0</ele><time>2026-05-03T12:16:54.964Z</time></trkpt><trkpt lat="42.4974767" lon="14.1419789"><ele>85.0</ele><time>2026-05-03T12:16:55.964Z</time></trkpt><trkpt lat="42.4975377" lon="14.1420101"><ele>85.0</ele><time>2026-05-03T12:16:56.963Z</time></trkpt><trkpt lat="42.4975775" lon="14.1420784"><ele>85.0</ele><time>2026-05-03T12:16:57.964Z</time></trkpt><trkpt lat="42.4975899" lon="14.1421664"><ele>85.0</ele><time>2026-05-03T12:16:58.964Z</time></trkpt><trkpt lat="42.4975694" lon="14.1422605"><ele>85.0</ele><time>2026-05-03T12:16:59.963Z</time></trkpt><trkpt lat="42.4975219" lon="14.1423716"><ele>85.0</ele><time>2026-05-03T12:17:00.963Z</time></trkpt><trkpt lat="42.4974493" lon="14.1425124"><ele>85.33333333333333</ele><time>2026-05-03T12:17:01.964Z</time></trkpt><trkpt lat="42.4973611" lon="14.1426666"><ele>85.66666666666667</ele><time>2026-05-03T12:17:02.963Z</time></trkpt><trkpt lat="42.4972607" lon="14.1428321"><ele>86.0</ele><time>2026-05-03T12:17:03.964Z</time></trkpt><trkpt lat="42.4971628" lon="14.1429992"><ele>88.5</ele><time>2026-05-03T12:17:04.964Z</time></trkpt><trkpt lat="42.497071" lon="14.1431594"><ele>91.0</ele><time>2026-05-03T12:17:05.964Z</time></trkpt><trkpt lat="42.4969852" lon="14.1433118"><ele>93.5</ele><time>2026-05-03T12:17:06.963Z</time></trkpt><trkpt lat="42.4969005" lon="14.1434571"><ele>96.0</ele><time>2026-05-03T12:17:07.964Z</time></trkpt><trkpt lat="42.4968175" lon="14.1435905"><ele>96.0</ele><time>2026-05-03T12:17:08.964Z</time></trkpt><trkpt lat="42.496734" lon="14.1437136"><ele>96.0</ele><time>2026-05-03T12:17:09.963Z</time></trkpt><trkpt lat="42.4966543" lon="14.1438358"><ele>96.0</ele><time>2026-05-03T12:17:10.963Z</time></trkpt><trkpt lat="42.4965741" lon="14.1439514"><ele>96.0</ele><time>2026-05-03T12:17:11.964Z</time></trkpt><trkpt lat="42.4964981" lon="14.144059"><ele>92.5</ele><time>2026-05-03T12:17:12.964Z</time></trkpt><trkpt lat="42.4964412" lon="14.1441869"><ele>89.0</ele><time>2026-05-03T12:17:13.964Z</time></trkpt><trkpt lat="42.496408" lon="14.144331"><ele>85.5</ele><time>2026-05-03T12:17:14.964Z</time></trkpt><trkpt lat="42.4964008" lon="14.1444932"><ele>82.0</ele><time>2026-05-03T12:17:15.964Z</time></trkpt><trkpt lat="42.4964069" lon="14.1446549"><ele>82.0</ele><time>2026-05-03T12:17:16.964Z</time></trkpt><trkpt lat="42.4964065" lon="14.1448155"><ele>82.0</ele><time>2026-05-03T12:17:17.964Z</time></trkpt><trkpt lat="42.4963884" lon="14.1449742"><ele>82.0</ele><time>2026-05-03T12:17:18.964Z</time></trkpt><trkpt lat="42.4963634" lon="14.1451178"><ele>82.0</ele><time>2026-05-03T12:17:19.963Z</time></trkpt><trkpt lat="42.4962991" lon="14.1452509"><ele>82.0</ele><time>2026-05-03T12:17:20.964Z</time></trkpt><trkpt lat="42.4962337" lon="14.1453733"><ele>82.0</ele><time>2026-05-03T12:17:21.964Z</time></trkpt><trkpt lat="42.4961856" lon="14.1454987"><ele>82.0</ele><time>2026-05-03T12:17:22.964Z</time></trkpt><trkpt lat="42.4961639" lon="14.1456246"><ele>82.0</ele><time>2026-05-03T12:17:23.964Z</time></trkpt><trkpt lat="42.4961727" lon="14.1457518"><ele>82.0</ele><time>2026-05-03T12:17:24.963Z</time></trkpt><trkpt lat="42.496212" lon="14.1458625"><ele>80.0</ele><time>2026-05-03T12:17:25.964Z</time></trkpt><trkpt lat="42.4962781" lon="14.1459442"><ele>78.0</ele><time>2026-05-03T12:17:26.964Z</time></trkpt><trkpt lat="42.4963633" lon="14.1459942"><ele>76.0</ele><time>2026-05-03T12:17:27.964Z</time></trkpt><trkpt lat="42.4964587" lon="14.1460161"><ele>74.0</ele><time>2026-05-03T12:17:28.964Z</time></trkpt><trkpt lat="42.4965506" lon="14.1459624"><ele>72.0</ele><time>2026-05-03T12:17:29.964Z</time></trkpt><trkpt lat="42.496626" lon="14.145883"><ele>72.0</ele><time>2026-05-03T12:17:30.963Z</time></trkpt><trkpt lat="42.4966764" lon="14.1457608"><ele>72.0</ele><time>2026-05-03T12:17:31.964Z</time></trkpt><trkpt lat="42.4967059" lon="14.1456106"><ele>72.0</ele><time>2026-05-03T12:17:32.963Z</time></trkpt><trkpt lat="42.496716" lon="14.1454588"><ele>72.0</ele><time>2026-05-03T12:17:33.964Z</time></trkpt><trkpt lat="42.4967292" lon="14.1453085"><ele>72.0</ele><time>2026-05-03T12:17:34.963Z</time></trkpt><trkpt lat="42.4967625" lon="14.145165"><ele>71.5</ele><time>2026-05-03T12:17:35.964Z</time></trkpt><trkpt lat="42.4968145" lon="14.1450159"><ele>71.0</ele><time>2026-05-03T12:17:36.964Z</time></trkpt><trkpt lat="42.4968821" lon="14.1448787"><ele>70.5</ele><time>2026-05-03T12:17:37.963Z</time></trkpt><trkpt lat="42.4969613" lon="14.144762"><ele>70.0</ele><time>2026-05-03T12:17:38.963Z</time></trkpt><trkpt lat="42.4970567" lon="14.1446551"><ele>67.5</ele><time>2026-05-03T12:17:39.964Z</time></trkpt><trkpt lat="42.4971663" lon="14.1445619"><ele>65.0</ele><time>2026-05-03T12:17:40.963Z</time></trkpt><trkpt lat="42.4972789" lon="14.1444899"><ele>62.5</ele><time>2026-05-03T12:17:41.963Z</time></trkpt><trkpt lat="42.4973919" lon="14.1444139"><ele>60.0</ele><time>2026-05-03T12:17:42.963Z</time></trkpt><trkpt lat="42.4975048" lon="14.144317"><ele>60.0</ele><time>2026-05-03T12:17:43.964Z</time></trkpt><trkpt lat="42.4976126" lon="14.144197"><ele>60.0</ele><time>2026-05-03T12:17:44.964Z</time></trkpt><trkpt lat="42.4977152" lon="14.1440616"><ele>60.0</ele><time>2026-05-03T12:17:45.964Z</time></trkpt><trkpt lat="42.4978147" lon="14.1439214"><ele>60.0</ele><time>2026-05-03T12:17:46.963Z</time></trkpt><trkpt lat="42.4979107" lon="14.1437837"><ele>61.0</ele><time>2026-05-03T12:17:47.963Z</time></trkpt><trkpt lat="42.4980034" lon="14.1436443"><ele>62.0</ele><time>2026-05-03T12:17:48.963Z</time></trkpt><trkpt lat="42.4980919" lon="14.1435007"><ele>63.0</ele><time>2026-05-03T12:17:49.964Z</time></trkpt><trkpt lat="42.4981763" lon="14.1433573"><ele>64.0</ele><time>2026-05-03T12:17:50.964Z</time></trkpt><trkpt lat="42.4982567" lon="14.1432121"><ele>64.0</ele><time>2026-05-03T12:17:51.963Z</time></trkpt><trkpt lat="42.4983354" lon="14.1430682"><ele>64.0</ele><time>2026-05-03T12:17:52.964Z</time></trkpt><trkpt lat="42.4984117" lon="14.1429245"><ele>64.0</ele><time>2026-05-03T12:17:53.964Z</time></trkpt><trkpt lat="42.4984802" lon="14.1428108"><ele>64.0</ele><time>2026-05-03T12:17:54.964Z</time></trkpt><trkpt lat="42.4985348" lon="14.1427348"><ele>64.0</ele><time>2026-05-03T12:17:55.964Z</time></trkpt><trkpt lat="42.4985863" lon="14.1426755"><ele>64.0</ele><time>2026-05-03T12:17:56.963Z</time></trkpt><trkpt lat="42.4986548" lon="14.1426307"><ele>64.0</ele><time>2026-05-03T12:17:58.963Z</time></trkpt><trkpt lat="42.4987029" lon="14.1425564"><ele>64.0</ele><time>2026-05-03T12:18:15.964Z</time></trkpt><trkpt lat="42.4987413" lon="14.1423853"><ele>64.0</ele><time>2026-05-03T12:18:17.963Z</time></trkpt><trkpt lat="42.4987702" lon="14.1422793"><ele>64.0</ele><time>2026-05-03T12:18:18.964Z</time></trkpt><trkpt lat="42.4988137" lon="14.1421479"><ele>57.0</ele><time>2026-05-03T12:18:19.964Z</time></trkpt><trkpt lat="42.4989133" lon="14.1419476"><ele>50.0</ele><time>2026-05-03T12:18:20.964Z</time></trkpt><trkpt lat="42.4990161" lon="14.1417617"><ele>43.0</ele><time>2026-05-03T12:18:21.964Z</time></trkpt><trkpt lat="42.4991201" lon="14.1415925"><ele>45.25</ele><time>2026-05-03T12:18:22.964Z</time></trkpt><trkpt lat="42.4992236" lon="14.1414349"><ele>47.5</ele><time>2026-05-03T12:18:23.964Z</time></trkpt><trkpt lat="42.4993289" lon="14.1412902"><ele>49.75</ele><time>2026-05-03T12:18:24.963Z</time></trkpt><trkpt lat="42.4994337" lon="14.1411633"><ele>52.0</ele><time>2026-05-03T12:18:25.964Z</time></trkpt><trkpt lat="42.4995412" lon="14.141058"><ele>48.75</ele><time>2026-05-03T12:18:26.963Z</time></trkpt><trkpt lat="42.4996456" lon="14.1409608"><ele>45.5</ele><time>2026-05-03T12:18:27.964Z</time></trkpt><trkpt lat="42.4997414" lon="14.1408578"><ele>42.25</ele><time>2026-05-03T12:18:28.964Z</time></trkpt><trkpt lat="42.4998324" lon="14.140753"><ele>39.0</ele><time>2026-05-03T12:18:29.963Z</time></trkpt><trkpt lat="42.4999143" lon="14.1406429"><ele>39.0</ele><time>2026-05-03T12:18:30.964Z</time></trkpt><trkpt lat="42.4999928" lon="14.1405313"><ele>39.0</ele><time>2026-05-03T12:18:31.964Z</time></trkpt><trkpt lat="42.5000692" lon="14.140418"><ele>39.0</ele><time>2026-05-03T12:18:32.964Z</time></trkpt><trkpt lat="42.5001391" lon="14.1403127"><ele>39.0</ele><time>2026-05-03T12:18:33.963Z</time></trkpt><trkpt lat="42.5002077" lon="14.1402071"><ele>39.0</ele><time>2026-05-03T12:18:34.964Z</time></trkpt><trkpt lat="42.5002761" lon="14.140102"><ele>39.0</ele><time>2026-05-03T12:18:35.964Z</time></trkpt><trkpt lat="42.5003439" lon="14.139994"><ele>39.0</ele><time>2026-05-03T12:18:36.963Z</time></trkpt><trkpt lat="42.5004114" lon="14.1398873"><ele>39.0</ele><time>2026-05-03T12:18:37.964Z</time></trkpt><trkpt lat="42.5004761" lon="14.1397816"><ele>39.0</ele><time>2026-05-03T12:18:38.963Z</time></trkpt><trkpt lat="42.5005413" lon="14.1396764"><ele>39.0</ele><time>2026-05-03T12:18:39.963Z</time></trkpt><trkpt lat="42.5006046" lon="14.1395694"><ele>36.4</ele><time>2026-05-03T12:18:40.964Z</time></trkpt><trkpt lat="42.5006644" lon="14.139458"><ele>33.8</ele><time>2026-05-03T12:18:41.964Z</time></trkpt><trkpt lat="42.5007243" lon="14.1393483"><ele>31.200000000000003</ele><time>2026-05-03T12:18:42.964Z</time></trkpt><trkpt lat="42.5007835" lon="14.1392372"><ele>28.6</ele><time>2026-05-03T12:18:43.963Z</time></trkpt><trkpt lat="42.5008403" lon="14.1391251"><ele>26.0</ele><time>2026-05-03T12:18:44.964Z</time></trkpt><trkpt lat="42.5008964" lon="14.1390084"><ele>25.0</ele><time>2026-05-03T12:18:45.963Z</time></trkpt><trkpt lat="42.5009506" lon="14.1388918"><ele>24.0</ele><time>2026-05-03T12:18:46.964Z</time></trkpt><trkpt lat="42.5010029" lon="14.138777"><ele>23.0</ele><time>2026-05-03T12:18:47.963Z</time></trkpt><trkpt lat="42.5010576" lon="14.1386649"><ele>22.0</ele><time>2026-05-03T12:18:48.964Z</time></trkpt><trkpt lat="42.5011124" lon="14.138554"><ele>21.0</ele><time>2026-05-03T12:18:49.963Z</time></trkpt><trkpt lat="42.5011586" lon="14.1384587"><ele>21.0</ele><time>2026-05-03T12:18:50.964Z</time></trkpt><trkpt lat="42.5011941" lon="14.1383792"><ele>21.0</ele><time>2026-05-03T12:18:51.964Z</time></trkpt><trkpt lat="42.5012229" lon="14.138284"><ele>21.0</ele><time>2026-05-03T12:18:52.964Z</time></trkpt><trkpt lat="42.5012491" lon="14.1381585"><ele>21.0</ele><time>2026-05-03T12:18:53.964Z</time></trkpt><trkpt lat="42.5012801" lon="14.1380025"><ele>21.0</ele><time>2026-05-03T12:18:54.964Z</time></trkpt><trkpt lat="42.5013228" lon="14.1378225"><ele>19.75</ele><time>2026-05-03T12:18:55.963Z</time></trkpt><trkpt lat="42.5013677" lon="14.1376354"><ele>18.5</ele><time>2026-05-03T12:18:56.964Z</time></trkpt><trkpt lat="42.5014147" lon="14.1374431"><ele>17.25</ele><time>2026-05-03T12:18:57.963Z</time></trkpt><trkpt lat="42.5014641" lon="14.1372531"><ele>16.0</ele><time>2026-05-03T12:18:58.963Z</time></trkpt><trkpt lat="42.5015129" lon="14.1370676"><ele>15.5</ele><time>2026-05-03T12:18:59.963Z</time></trkpt><trkpt lat="42.5015608" lon="14.1368845"><ele>15.0</ele><time>2026-05-03T12:19:00.963Z</time></trkpt><trkpt lat="42.5016081" lon="14.136702"><ele>14.5</ele><time>2026-05-03T12:19:01.964Z</time></trkpt><trkpt lat="42.5016539" lon="14.1365224"><ele>14.0</ele><time>2026-05-03T12:19:02.964Z</time></trkpt><trkpt lat="42.5016984" lon="14.1363464"><ele>14.0</ele><time>2026-05-03T12:19:03.963Z</time></trkpt><trkpt lat="42.5017413" lon="14.1361863"><ele>14.0</ele><time>2026-05-03T12:19:04.964Z</time></trkpt><trkpt lat="42.5017837" lon="14.1360347"><ele>14.0</ele><time>2026-05-03T12:19:05.963Z</time></trkpt><trkpt lat="42.5018209" lon="14.1358893"><ele>14.0</ele><time>2026-05-03T12:19:06.963Z</time></trkpt><trkpt lat="42.5018586" lon="14.1357401"><ele>14.2</ele><time>2026-05-03T12:19:07.963Z</time></trkpt><trkpt lat="42.5018972" lon="14.1355964"><ele>14.399999999999999</ele><time>2026-05-03T12:19:08.963Z</time></trkpt><trkpt lat="42.5019353" lon="14.1354599"><ele>14.6</ele><time>2026-05-03T12:19:09.964Z</time></trkpt><trkpt lat="42.501971" lon="14.1353281"><ele>14.8</ele><time>2026-05-03T12:19:10.963Z</time></trkpt><trkpt lat="42.5020047" lon="14.1352014"><ele>15.0</ele><time>2026-05-03T12:19:11.964Z</time></trkpt><trkpt lat="42.5020378" lon="14.1350821"><ele>15.0</ele><time>2026-05-03T12:19:12.963Z</time></trkpt><trkpt lat="42.5020738" lon="14.1349769"><ele>15.0</ele><time>2026-05-03T12:19:13.964Z</time></trkpt><trkpt lat="42.5021273" lon="14.1348808"><ele>15.0</ele><time>2026-05-03T12:19:15.964Z</time></trkpt><trkpt lat="42.5021987" lon="14.1348197"><ele>15.0</ele><time>2026-05-03T12:19:17.963Z</time></trkpt><trkpt lat="42.5023334" lon="14.1347652"><ele>15.0</ele><time>2026-05-03T12:19:19.964Z</time></trkpt><trkpt lat="42.5024161" lon="14.1347621"><ele>14.833333333333334</ele><time>2026-05-03T12:19:20.963Z</time></trkpt><trkpt lat="42.5024954" lon="14.1347862"><ele>14.666666666666668</ele><time>2026-05-03T12:19:21.964Z</time></trkpt><trkpt lat="42.5025665" lon="14.1348355"><ele>14.5</ele><time>2026-05-03T12:19:22.964Z</time></trkpt><trkpt lat="42.5026299" lon="14.1349018"><ele>14.333333333333334</ele><time>2026-05-03T12:19:23.963Z</time></trkpt><trkpt lat="42.5026939" lon="14.1349703"><ele>14.166666666666668</ele><time>2026-05-03T12:19:24.964Z</time></trkpt><trkpt lat="42.5027582" lon="14.1350422"><ele>14.0</ele><time>2026-05-03T12:19:25.964Z</time></trkpt><trkpt lat="42.5028226" lon="14.1351145"><ele>14.000000000000002</ele><time>2026-05-03T12:19:26.964Z</time></trkpt><trkpt lat="42.5028854" lon="14.1351807"><ele>14.0</ele><time>2026-05-03T12:19:27.964Z</time></trkpt><trkpt lat="42.5029453" lon="14.1352446"><ele>14.0</ele><time>2026-05-03T12:19:28.963Z</time></trkpt><trkpt lat="42.5030038" lon="14.1352924"><ele>14.0</ele><time>2026-05-03T12:19:29.963Z</time></trkpt><trkpt lat="42.5031087" lon="14.1352912"><ele>14.000000000000002</ele><time>2026-05-03T12:19:31.963Z</time></trkpt><trkpt lat="42.5031716" lon="14.1351663"><ele>14.0</ele><time>2026-05-03T12:19:33.963Z</time></trkpt><trkpt lat="42.5031985" lon="14.1350536"><ele>13.75</ele><time>2026-05-03T12:19:34.963Z</time></trkpt><trkpt lat="42.5032314" lon="14.1349045"><ele>13.5</ele><time>2026-05-03T12:19:35.964Z</time></trkpt><trkpt lat="42.5032681" lon="14.134743"><ele>13.25</ele><time>2026-05-03T12:19:36.964Z</time></trkpt><trkpt lat="42.5033041" lon="14.1345771"><ele>13.0</ele><time>2026-05-03T12:19:37.964Z</time></trkpt><trkpt lat="42.5033389" lon="14.1343984"><ele>13.0</ele><time>2026-05-03T12:19:38.964Z</time></trkpt><trkpt lat="42.5033743" lon="14.1342299"><ele>13.0</ele><time>2026-05-03T12:19:39.964Z</time></trkpt><trkpt lat="42.5034161" lon="14.1340756"><ele>13.0</ele><time>2026-05-03T12:19:40.964Z</time></trkpt><trkpt lat="42.503466" lon="14.1339334"><ele>13.0</ele><time>2026-05-03T12:19:41.964Z</time></trkpt><trkpt lat="42.5035147" lon="14.1338007"><ele>13.0</ele><time>2026-05-03T12:19:42.964Z</time></trkpt><trkpt lat="42.5035845" lon="14.1336908"><ele>13.0</ele><time>2026-05-03T12:19:43.964Z</time></trkpt><trkpt lat="42.5036805" lon="14.1335863"><ele>13.0</ele><time>2026-05-03T12:19:44.964Z</time></trkpt><trkpt lat="42.5037828" lon="14.1334869"><ele>13.0</ele><time>2026-05-03T12:19:45.964Z</time></trkpt><trkpt lat="42.503881" lon="14.1333925"><ele>13.0</ele><time>2026-05-03T12:19:46.964Z</time></trkpt><trkpt lat="42.5039757" lon="14.1333002"><ele>13.0</ele><time>2026-05-03T12:19:47.964Z</time></trkpt><trkpt lat="42.504064" lon="14.1332124"><ele>13.0</ele><time>2026-05-03T12:19:48.964Z</time></trkpt><trkpt lat="42.5041603" lon="14.1331249"><ele>13.0</ele><time>2026-05-03T12:19:49.963Z</time></trkpt><trkpt lat="42.5042681" lon="14.13304"><ele>13.0</ele><time>2026-05-03T12:19:50.963Z</time></trkpt><trkpt lat="42.504378" lon="14.1329451"><ele>13.0</ele><time>2026-05-03T12:19:51.964Z</time></trkpt><trkpt lat="42.5044862" lon="14.1328464"><ele>13.0</ele><time>2026-05-03T12:19:52.964Z</time></trkpt><trkpt lat="42.5045927" lon="14.1327454"><ele>13.0</ele><time>2026-05-03T12:19:53.964Z</time></trkpt><trkpt lat="42.5047021" lon="14.1326443"><ele>12.0</ele><time>2026-05-03T12:19:54.963Z</time></trkpt><trkpt lat="42.504814" lon="14.1325444"><ele>11.0</ele><time>2026-05-03T12:19:55.964Z</time></trkpt><trkpt lat="42.5049247" lon="14.1324425"><ele>10.0</ele><time>2026-05-03T12:19:56.964Z</time></trkpt><trkpt lat="42.5050363" lon="14.132337"><ele>9.0</ele><time>2026-05-03T12:19:57.963Z</time></trkpt><trkpt lat="42.5051471" lon="14.1322278"><ele>9.0</ele><time>2026-05-03T12:19:58.964Z</time></trkpt><trkpt lat="42.5052569" lon="14.1321219"><ele>9.0</ele><time>2026-05-03T12:19:59.963Z</time></trkpt><trkpt lat="42.5053687" lon="14.1320222"><ele>9.0</ele><time>2026-05-03T12:20:00.964Z</time></trkpt><trkpt lat="42.5054796" lon="14.1319185"><ele>9.0</ele><time>2026-05-03T12:20:01.964Z</time></trkpt><trkpt lat="42.5055889" lon="14.1318146"><ele>9.0</ele><time>2026-05-03T12:20:02.964Z</time></trkpt><trkpt lat="42.5056985" lon="14.1317143"><ele>9.0</ele><time>2026-05-03T12:20:03.964Z</time></trkpt><trkpt lat="42.5058081" lon="14.131619"><ele>9.0</ele><time>2026-05-03T12:20:04.964Z</time></trkpt><trkpt lat="42.5059177" lon="14.1315272"><ele>9.0</ele><time>2026-05-03T12:20:05.963Z</time></trkpt><trkpt lat="42.5060255" lon="14.1314379"><ele>9.0</ele><time>2026-05-03T12:20:06.964Z</time></trkpt><trkpt lat="42.5061246" lon="14.1313401"><ele>9.0</ele><time>2026-05-03T12:20:07.964Z</time></trkpt><trkpt lat="42.5062185" lon="14.1312481"><ele>9.0</ele><time>2026-05-03T12:20:08.964Z</time></trkpt><trkpt lat="42.5063137" lon="14.1311701"><ele>9.0</ele><time>2026-05-03T12:20:09.964Z</time></trkpt><trkpt lat="42.5064185" lon="14.1311041"><ele>9.0</ele><time>2026-05-03T12:20:10.963Z</time></trkpt><trkpt lat="42.5065298" lon="14.1310425"><ele>9.0</ele><time>2026-05-03T12:20:11.964Z</time></trkpt><trkpt lat="42.5066457" lon="14.1309794"><ele>9.0</ele><time>2026-05-03T12:20:12.963Z</time></trkpt><trkpt lat="42.506764" lon="14.1309152"><ele>9.0</ele><time>2026-05-03T12:20:13.964Z</time></trkpt><trkpt lat="42.506889" lon="14.1308552"><ele>9.0</ele><time>2026-05-03T12:20:14.963Z</time></trkpt><trkpt lat="42.5070203" lon="14.1308032"><ele>9.0</ele><time>2026-05-03T12:20:15.963Z</time></trkpt><trkpt lat="42.5071574" lon="14.1307561"><ele>9.0</ele><time>2026-05-03T12:20:16.964Z</time></trkpt><trkpt lat="42.5072947" lon="14.1307087"><ele>9.0</ele><time>2026-05-03T12:20:17.964Z</time></trkpt><trkpt lat="42.5074247" lon="14.1306658"><ele>9.75</ele><time>2026-05-03T12:20:18.963Z</time></trkpt><trkpt lat="42.5075499" lon="14.1306229"><ele>10.5</ele><time>2026-05-03T12:20:19.964Z</time></trkpt><trkpt lat="42.5076676" lon="14.1305749"><ele>11.25</ele><time>2026-05-03T12:20:20.964Z</time></trkpt><trkpt lat="42.5077778" lon="14.1305162"><ele>12.0</ele><time>2026-05-03T12:20:21.963Z</time></trkpt><trkpt lat="42.5078838" lon="14.1304405"><ele>12.0</ele><time>2026-05-03T12:20:22.963Z</time></trkpt><trkpt lat="42.5079944" lon="14.1303553"><ele>12.0</ele><time>2026-05-03T12:20:23.963Z</time></trkpt><trkpt lat="42.5081062" lon="14.1302624"><ele>12.0</ele><time>2026-05-03T12:20:24.963Z</time></trkpt><trkpt lat="42.5082118" lon="14.1301701"><ele>12.0</ele><time>2026-05-03T12:20:25.964Z</time></trkpt><trkpt lat="42.5083124" lon="14.1300811"><ele>12.0</ele><time>2026-05-03T12:20:26.963Z</time></trkpt><trkpt lat="42.5084089" lon="14.1299975"><ele>12.0</ele><time>2026-05-03T12:20:27.964Z</time></trkpt><trkpt lat="42.508501" lon="14.129917"><ele>12.0</ele><time>2026-05-03T12:20:28.964Z</time></trkpt><trkpt lat="42.5085904" lon="14.1298436"><ele>12.0</ele><time>2026-05-03T12:20:29.964Z</time></trkpt><trkpt lat="42.5086806" lon="14.1297915"><ele>12.0</ele><time>2026-05-03T12:20:30.964Z</time></trkpt><trkpt lat="42.5087729" lon="14.1297697"><ele>11.0</ele><time>2026-05-03T12:20:31.963Z</time></trkpt><trkpt lat="42.5088716" lon="14.1297752"><ele>10.0</ele><time>2026-05-03T12:20:32.964Z</time></trkpt><trkpt lat="42.5089688" lon="14.129813"><ele>9.0</ele><time>2026-05-03T12:20:33.964Z</time></trkpt><trkpt lat="42.5090644" lon="14.1298845"><ele>8.0</ele><time>2026-05-03T12:20:34.964Z</time></trkpt><trkpt lat="42.5091659" lon="14.1300034"><ele>7.0</ele><time>2026-05-03T12:20:35.963Z</time></trkpt><trkpt lat="42.5092758" lon="14.1301637"><ele>7.0</ele><time>2026-05-03T12:20:36.964Z</time></trkpt><trkpt lat="42.5093953" lon="14.1303321"><ele>7.0</ele><time>2026-05-03T12:20:37.963Z</time></trkpt><trkpt lat="42.5095191" lon="14.1304976"><ele>7.0</ele><time>2026-05-03T12:20:38.963Z</time></trkpt><trkpt lat="42.50965" lon="14.1306777"><ele>6.333333333333334</ele><time>2026-05-03T12:20:39.963Z</time></trkpt><trkpt lat="42.5097967" lon="14.1308873"><ele>5.666666666666667</ele><time>2026-05-03T12:20:40.963Z</time></trkpt><trkpt lat="42.5099561" lon="14.1311187"><ele>5.0</ele><time>2026-05-03T12:20:41.963Z</time></trkpt><trkpt lat="42.5101056" lon="14.1313713"><ele>5.5</ele><time>2026-05-03T12:20:42.964Z</time></trkpt><trkpt lat="42.5102412" lon="14.1316351"><ele>6.0</ele><time>2026-05-03T12:20:43.964Z</time></trkpt><trkpt lat="42.5103726" lon="14.1318838"><ele>6.0</ele><time>2026-05-03T12:20:44.964Z</time></trkpt><trkpt lat="42.5105015" lon="14.1321291"><ele>6.0</ele><time>2026-05-03T12:20:45.964Z</time></trkpt><trkpt lat="42.5106263" lon="14.1323664"><ele>6.0</ele><time>2026-05-03T12:20:46.964Z</time></trkpt><trkpt lat="42.5107483" lon="14.1325911"><ele>6.0</ele><time>2026-05-03T12:20:47.963Z</time></trkpt><trkpt lat="42.5108653" lon="14.1327975"><ele>6.0</ele><time>2026-05-03T12:20:48.963Z</time></trkpt><trkpt lat="42.5109815" lon="14.1329955"><ele>6.0</ele><time>2026-05-03T12:20:49.963Z</time></trkpt><trkpt lat="42.5110985" lon="14.133191"><ele>6.333333333333334</ele><time>2026-05-03T12:20:50.964Z</time></trkpt><trkpt lat="42.5112195" lon="14.1333836"><ele>6.666666666666667</ele><time>2026-05-03T12:20:51.964Z</time></trkpt><trkpt lat="42.5113276" lon="14.1335871"><ele>7.0</ele><time>2026-05-03T12:20:52.963Z</time></trkpt><trkpt lat="42.5114224" lon="14.1337989"><ele>6.333333333333334</ele><time>2026-05-03T12:20:53.963Z</time></trkpt><trkpt lat="42.5115181" lon="14.13399"><ele>5.666666666666667</ele><time>2026-05-03T12:20:54.963Z</time></trkpt><trkpt lat="42.5116177" lon="14.1341621"><ele>5.0</ele><time>2026-05-03T12:20:55.964Z</time></trkpt><trkpt lat="42.5117247" lon="14.1343161"><ele>5.0</ele><time>2026-05-03T12:20:56.964Z</time></trkpt><trkpt lat="42.5118492" lon="14.1344515"><ele>5.0</ele><time>2026-05-03T12:20:57.964Z</time></trkpt><trkpt lat="42.5119856" lon="14.1345687"><ele>5.0</ele><time>2026-05-03T12:20:58.963Z</time></trkpt><trkpt lat="42.5121282" lon="14.1346716"><ele>4.333333333333334</ele><time>2026-05-03T12:20:59.963Z</time></trkpt><trkpt lat="42.5122698" lon="14.1347665"><ele>3.666666666666667</ele><time>2026-05-03T12:21:00.964Z</time></trkpt><trkpt lat="42.512409" lon="14.1348623"><ele>3.0</ele><time>2026-05-03T12:21:01.964Z</time></trkpt><trkpt lat="42.5125401" lon="14.1349501"><ele>3.0</ele><time>2026-05-03T12:21:02.964Z</time></trkpt><trkpt lat="42.5126621" lon="14.1350411"><ele>3.0</ele><time>2026-05-03T12:21:03.964Z</time></trkpt><trkpt lat="42.5127834" lon="14.1351456"><ele>3.0</ele><time>2026-05-03T12:21:04.964Z</time></trkpt><trkpt lat="42.5128992" lon="14.1352683"><ele>3.0</ele><time>2026-05-03T12:21:05.964Z</time></trkpt><trkpt lat="42.513004" lon="14.1354123"><ele>3.0</ele><time>2026-05-03T12:21:06.963Z</time></trkpt><trkpt lat="42.5131002" lon="14.1355736"><ele>3.0</ele><time>2026-05-03T12:21:07.963Z</time></trkpt><trkpt lat="42.513182" lon="14.1357435"><ele>3.0</ele><time>2026-05-03T12:21:08.964Z</time></trkpt><trkpt lat="42.5132526" lon="14.135918"><ele>3.0</ele><time>2026-05-03T12:21:09.964Z</time></trkpt><trkpt lat="42.5133086" lon="14.1360911"><ele>3.0</ele><time>2026-05-03T12:21:10.963Z</time></trkpt><trkpt lat="42.5133515" lon="14.1362736"><ele>3.0</ele><time>2026-05-03T12:21:11.963Z</time></trkpt><trkpt lat="42.5133891" lon="14.1364573"><ele>3.0</ele><time>2026-05-03T12:21:12.963Z</time></trkpt><trkpt lat="42.5134285" lon="14.1366297"><ele>3.0</ele><time>2026-05-03T12:21:13.964Z</time></trkpt><trkpt lat="42.5134717" lon="14.1367935"><ele>3.2</ele><time>2026-05-03T12:21:14.962Z</time></trkpt><trkpt lat="42.5135195" lon="14.1369478"><ele>3.4</ele><time>2026-05-03T12:21:15.964Z</time></trkpt><trkpt lat="42.5135707" lon="14.1370888"><ele>3.6000000000000005</ele><time>2026-05-03T12:21:16.964Z</time></trkpt><trkpt lat="42.5136209" lon="14.1372094"><ele>3.8000000000000003</ele><time>2026-05-03T12:21:17.963Z</time></trkpt><trkpt lat="42.5136638" lon="14.1373071"><ele>4.0</ele><time>2026-05-03T12:21:18.963Z</time></trkpt><trkpt lat="42.5136966" lon="14.1373983"><ele>4.333333333333333</ele><time>2026-05-03T12:21:19.963Z</time></trkpt><trkpt lat="42.5137158" lon="14.1374886"><ele>4.666666666666666</ele><time>2026-05-03T12:21:20.964Z</time></trkpt><trkpt lat="42.5137272" lon="14.1375932"><ele>5.0</ele><time>2026-05-03T12:21:21.963Z</time></trkpt><trkpt lat="42.5137346" lon="14.1377059"><ele>5.333333333333333</ele><time>2026-05-03T12:21:22.964Z</time></trkpt><trkpt lat="42.5137267" lon="14.1378259"><ele>5.666666666666667</ele><time>2026-05-03T12:21:23.964Z</time></trkpt><trkpt lat="42.513692" lon="14.1379536"><ele>6.0</ele><time>2026-05-03T12:21:24.963Z</time></trkpt><trkpt lat="42.5136325" lon="14.1380967"><ele>5.75</ele><time>2026-05-03T12:21:25.963Z</time></trkpt><trkpt lat="42.5135609" lon="14.1382576"><ele>5.5</ele><time>2026-05-03T12:21:26.964Z</time></trkpt><trkpt lat="42.5134899" lon="14.1384283"><ele>5.25</ele><time>2026-05-03T12:21:27.964Z</time></trkpt><trkpt lat="42.5134253" lon="14.1385935"><ele>5.0</ele><time>2026-05-03T12:21:28.963Z</time></trkpt><trkpt lat="42.5133688" lon="14.1387458"><ele>5.0</ele><time>2026-05-03T12:21:29.964Z</time></trkpt><trkpt lat="42.5133179" lon="14.1388873"><ele>5.0</ele><time>2026-05-03T12:21:30.963Z</time></trkpt><trkpt lat="42.5132688" lon="14.1390187"><ele>5.0</ele><time>2026-05-03T12:21:31.964Z</time></trkpt><trkpt lat="42.5132213" lon="14.1391441"><ele>5.0</ele><time>2026-05-03T12:21:32.964Z</time></trkpt><trkpt lat="42.513174" lon="14.1392667"><ele>5.0</ele><time>2026-05-03T12:21:33.963Z</time></trkpt><trkpt lat="42.5131246" lon="14.1393867"><ele>5.2</ele><time>2026-05-03T12:21:34.964Z</time></trkpt><trkpt lat="42.5130765" lon="14.1395089"><ele>5.4</ele><time>2026-05-03T12:21:35.964Z</time></trkpt><trkpt lat="42.5130268" lon="14.1396406"><ele>5.6</ele><time>2026-05-03T12:21:36.964Z</time></trkpt><trkpt lat="42.5129774" lon="14.1397788"><ele>5.8</ele><time>2026-05-03T12:21:37.963Z</time></trkpt><trkpt lat="42.512925" lon="14.1399238"><ele>6.0</ele><time>2026-05-03T12:21:38.964Z</time></trkpt><trkpt lat="42.5128703" lon="14.1400718"><ele>6.0</ele><time>2026-05-03T12:21:39.964Z</time></trkpt><trkpt lat="42.512815" lon="14.1402179"><ele>6.0</ele><time>2026-05-03T12:21:40.964Z</time></trkpt><trkpt lat="42.5127618" lon="14.1403619"><ele>6.0</ele><time>2026-05-03T12:21:41.963Z</time></trkpt><trkpt lat="42.5127118" lon="14.1404958"><ele>6.0</ele><time>2026-05-03T12:21:42.964Z</time></trkpt><trkpt lat="42.5126645" lon="14.1406203"><ele>6.333333333333333</ele><time>2026-05-03T12:21:43.964Z</time></trkpt><trkpt lat="42.5126215" lon="14.1407358"><ele>6.666666666666666</ele><time>2026-05-03T12:21:44.963Z</time></trkpt><trkpt lat="42.5125808" lon="14.1408457"><ele>7.0</ele><time>2026-05-03T12:21:45.964Z</time></trkpt><trkpt lat="42.5125464" lon="14.1409444"><ele>7.333333333333333</ele><time>2026-05-03T12:21:46.964Z</time></trkpt><trkpt lat="42.5125138" lon="14.141039"><ele>7.666666666666666</ele><time>2026-05-03T12:21:47.963Z</time></trkpt><trkpt lat="42.5124817" lon="14.1411232"><ele>8.0</ele><time>2026-05-03T12:21:48.963Z</time></trkpt><trkpt lat="42.512432" lon="14.141267"><ele>8.0</ele><time>2026-05-03T12:21:50.964Z</time></trkpt><trkpt lat="42.5124483" lon="14.141403"><ele>8.0</ele><time>2026-05-03T12:21:52.964Z</time></trkpt><trkpt lat="42.5125404" lon="14.1414953"><ele>8.0</ele><time>2026-05-03T12:21:54.964Z</time></trkpt><trkpt lat="42.5126067" lon="14.141508"><ele>8.0</ele><time>2026-05-03T12:21:55.964Z</time></trkpt><trkpt lat="42.5126863" lon="14.1415019"><ele>8.0</ele><time>2026-05-03T12:21:56.964Z</time></trkpt><trkpt lat="42.5127751" lon="14.1414823"><ele>8.0</ele><time>2026-05-03T12:21:57.964Z</time></trkpt><trkpt lat="42.512875" lon="14.1414686"><ele>8.0</ele><time>2026-05-03T12:21:58.964Z</time></trkpt><trkpt lat="42.5129852" lon="14.1414596"><ele>8.0</ele><time>2026-05-03T12:21:59.963Z</time></trkpt><trkpt lat="42.5131057" lon="14.1414599"><ele>8.0</ele><time>2026-05-03T12:22:00.964Z</time></trkpt><trkpt lat="42.5132336" lon="14.1414757"><ele>7.5</ele><time>2026-05-03T12:22:01.963Z</time></trkpt><trkpt lat="42.5133631" lon="14.1415156"><ele>7.0</ele><time>2026-05-03T12:22:02.964Z</time></trkpt><trkpt lat="42.5134887" lon="14.1415683"><ele>6.5</ele><time>2026-05-03T12:22:03.963Z</time></trkpt><trkpt lat="42.5136032" lon="14.1416326"><ele>6.0</ele><time>2026-05-03T12:22:04.964Z</time></trkpt><trkpt lat="42.513706" lon="14.1417003"><ele>5.3999999999999995</ele><time>2026-05-03T12:22:05.964Z</time></trkpt><trkpt lat="42.5138041" lon="14.1417697"><ele>4.8</ele><time>2026-05-03T12:22:06.964Z</time></trkpt><trkpt lat="42.5138961" lon="14.1418373"><ele>4.199999999999999</ele><time>2026-05-03T12:22:07.963Z</time></trkpt><trkpt lat="42.5139846" lon="14.1418992"><ele>3.5999999999999996</ele><time>2026-05-03T12:22:08.964Z</time></trkpt><trkpt lat="42.5140682" lon="14.1419573"><ele>3.0</ele><time>2026-05-03T12:22:09.964Z</time></trkpt><trkpt lat="42.5141444" lon="14.1420178"><ele>2.9999999999999996</ele><time>2026-05-03T12:22:10.963Z</time></trkpt><trkpt lat="42.5142014" lon="14.1420967"><ele>3.0</ele><time>2026-05-03T12:22:11.964Z</time></trkpt><trkpt lat="42.5142385" lon="14.1421889"><ele>3.0</ele><time>2026-05-03T12:22:12.964Z</time></trkpt><trkpt lat="42.5142643" lon="14.1422831"><ele>3.0</ele><time>2026-05-03T12:22:13.964Z</time></trkpt><trkpt lat="42.5142949" lon="14.1423711"><ele>3.0</ele><time>2026-05-03T12:22:14.964Z</time></trkpt><trkpt lat="42.5143417" lon="14.1424429"><ele>2.9999999999999996</ele><time>2026-05-03T12:22:15.964Z</time></trkpt><trkpt lat="42.5143986" lon="14.1424857"><ele>3.0</ele><time>2026-05-03T12:22:16.963Z</time></trkpt><trkpt lat="42.5145196" lon="14.1424787"><ele>2.8333333333333335</ele><time>2026-05-03T12:22:18.964Z</time></trkpt><trkpt lat="42.5145851" lon="14.1424446"><ele>2.6666666666666665</ele><time>2026-05-03T12:22:19.964Z</time></trkpt><trkpt lat="42.5146539" lon="14.1424321"><ele>2.5</ele><time>2026-05-03T12:22:20.964Z</time></trkpt><trkpt lat="42.5147328" lon="14.1424571"><ele>2.333333333333333</ele><time>2026-05-03T12:22:21.963Z</time></trkpt><trkpt lat="42.5148231" lon="14.1425198"><ele>2.1666666666666665</ele><time>2026-05-03T12:22:22.964Z</time></trkpt><trkpt lat="42.514927" lon="14.1426043"><ele>2.0</ele><time>2026-05-03T12:22:23.963Z</time></trkpt><trkpt lat="42.5150371" lon="14.1426823"><ele>2.0</ele><time>2026-05-03T12:22:24.963Z</time></trkpt><trkpt lat="42.5151532" lon="14.1427588"><ele>2.0</ele><time>2026-05-03T12:22:25.964Z</time></trkpt><trkpt lat="42.5152731" lon="14.1428397"><ele>2.0</ele><time>2026-05-03T12:22:26.963Z</time></trkpt><trkpt lat="42.5153937" lon="14.1429257"><ele>2.0</ele><time>2026-05-03T12:22:27.964Z</time></trkpt><trkpt lat="42.5155161" lon="14.1430155"><ele>2.25</ele><time>2026-05-03T12:22:28.963Z</time></trkpt><trkpt lat="42.5156365" lon="14.1431041"><ele>2.5</ele><time>2026-05-03T12:22:29.962Z</time></trkpt><trkpt lat="42.5157615" lon="14.1431921"><ele>2.75</ele><time>2026-05-03T12:22:30.963Z</time></trkpt><trkpt lat="42.5158874" lon="14.1432811"><ele>3.0</ele><time>2026-05-03T12:22:31.963Z</time></trkpt><trkpt lat="42.5160129" lon="14.1433688"><ele>3.25</ele><time>2026-05-03T12:22:32.964Z</time></trkpt><trkpt lat="42.5161336" lon="14.1434583"><ele>3.5</ele><time>2026-05-03T12:22:33.964Z</time></trkpt><trkpt lat="42.5162581" lon="14.1435486"><ele>3.75</ele><time>2026-05-03T12:22:34.963Z</time></trkpt><trkpt lat="42.5163841" lon="14.1436409"><ele>4.0</ele><time>2026-05-03T12:22:35.964Z</time></trkpt><trkpt lat="42.5165108" lon="14.1437371"><ele>4.0</ele><time>2026-05-03T12:22:36.963Z</time></trkpt><trkpt lat="42.5166447" lon="14.1438372"><ele>4.0</ele><time>2026-05-03T12:22:37.963Z</time></trkpt><trkpt lat="42.5167932" lon="14.1439475"><ele>4.0</ele><time>2026-05-03T12:22:38.963Z</time></trkpt><trkpt lat="42.5169496" lon="14.1440657"><ele>3.6666666666666665</ele><time>2026-05-03T12:22:39.963Z</time></trkpt><trkpt lat="42.5171127" lon="14.1441854"><ele>3.333333333333333</ele><time>2026-05-03T12:22:40.963Z</time></trkpt><trkpt lat="42.5172795" lon="14.1443045"><ele>3.0</ele><time>2026-05-03T12:22:41.964Z</time></trkpt><trkpt lat="42.5174484" lon="14.1444223"><ele>3.0</ele><time>2026-05-03T12:22:42.964Z</time></trkpt><trkpt lat="42.5176191" lon="14.1445408"><ele>3.0</ele><time>2026-05-03T12:22:43.963Z</time></trkpt><trkpt lat="42.5177908" lon="14.1446615"><ele>3.0</ele><time>2026-05-03T12:22:44.964Z</time></trkpt><trkpt lat="42.5179636" lon="14.1447838"><ele>3.0</ele><time>2026-05-03T12:22:45.963Z</time></trkpt><trkpt lat="42.5181367" lon="14.1449077"><ele>3.0</ele><time>2026-05-03T12:22:46.964Z</time></trkpt><trkpt lat="42.5182984" lon="14.145025"><ele>3.0</ele><time>2026-05-03T12:22:47.963Z</time></trkpt><trkpt lat="42.5184502" lon="14.145135"><ele>3.0</ele><time>2026-05-03T12:22:48.963Z</time></trkpt><trkpt lat="42.5185915" lon="14.145237"><ele>3.0</ele><time>2026-05-03T12:22:49.963Z</time></trkpt><trkpt lat="42.5187237" lon="14.1453331"><ele>3.0</ele><time>2026-05-03T12:22:50.964Z</time></trkpt><trkpt lat="42.5188481" lon="14.1454214"><ele>3.0</ele><time>2026-05-03T12:22:51.963Z</time></trkpt><trkpt lat="42.5189656" lon="14.145504"><ele>3.0</ele><time>2026-05-03T12:22:52.964Z</time></trkpt><trkpt lat="42.519078" lon="14.1455841"><ele>3.0</ele><time>2026-05-03T12:22:53.963Z</time></trkpt><trkpt lat="42.5191857" lon="14.1456543"><ele>3.0</ele><time>2026-05-03T12:22:54.964Z</time></trkpt><trkpt lat="42.5192891" lon="14.1457206"><ele>3.4</ele><time>2026-05-03T12:22:55.964Z</time></trkpt><trkpt lat="42.5193829" lon="14.1457954"><ele>3.8</ele><time>2026-05-03T12:22:56.963Z</time></trkpt><trkpt lat="42.5194527" lon="14.1458718"><ele>4.2</ele><time>2026-05-03T12:22:57.963Z</time></trkpt><trkpt lat="42.5195288" lon="14.1459692"><ele>4.6</ele><time>2026-05-03T12:22:59.963Z</time></trkpt><trkpt lat="42.5195646" lon="14.1460546"><ele>5.0</ele><time>2026-05-03T12:23:03.964Z</time></trkpt><trkpt lat="42.5195436" lon="14.1461647"><ele>5.0</ele><time>2026-05-03T12:23:05.964Z</time></trkpt><trkpt lat="42.5194632" lon="14.1462883"><ele>5.0</ele><time>2026-05-03T12:23:07.964Z</time></trkpt><trkpt lat="42.519412" lon="14.1463548"><ele>5.0</ele><time>2026-05-03T12:23:08.962Z</time></trkpt><trkpt lat="42.5193553" lon="14.1464296"><ele>5.0</ele><time>2026-05-03T12:23:09.963Z</time></trkpt><trkpt lat="42.519292" lon="14.1465122"><ele>5.0</ele><time>2026-05-03T12:23:10.964Z</time></trkpt><trkpt lat="42.519228" lon="14.1465973"><ele>5.0</ele><time>2026-05-03T12:23:11.964Z</time></trkpt><trkpt lat="42.519166" lon="14.1466745"><ele>4.6</ele><time>2026-05-03T12:23:12.961Z</time></trkpt><trkpt lat="42.5191091" lon="14.1467468"><ele>4.2</ele><time>2026-05-03T12:23:13.963Z</time></trkpt><trkpt lat="42.5190471" lon="14.1468384"><ele>3.8</ele><time>2026-05-03T12:23:15.964Z</time></trkpt><trkpt lat="42.5190384" lon="14.1469439"><ele>3.4</ele><time>2026-05-03T12:23:17.964Z</time></trkpt><trkpt lat="42.5190627" lon="14.1470814"><ele>3.0</ele><time>2026-05-03T12:23:19.964Z</time></trkpt><trkpt lat="42.5191509" lon="14.1472036"><ele>3.0</ele><time>2026-05-03T12:23:21.963Z</time></trkpt><trkpt lat="42.5192159" lon="14.147241"><ele>3.0</ele><time>2026-05-03T12:23:22.963Z</time></trkpt><trkpt lat="42.5192936" lon="14.1472782"><ele>3.0</ele><time>2026-05-03T12:23:23.963Z</time></trkpt><trkpt lat="42.5193804" lon="14.1473394"><ele>3.0</ele><time>2026-05-03T12:23:24.963Z</time></trkpt><trkpt lat="42.5194591" lon="14.1474185"><ele>3.0</ele><time>2026-05-03T12:23:25.964Z</time></trkpt><trkpt lat="42.5195361" lon="14.1475098"><ele>2.25</ele><time>2026-05-03T12:23:26.964Z</time></trkpt><trkpt lat="42.5196081" lon="14.1476173"><ele>1.5</ele><time>2026-05-03T12:23:27.963Z</time></trkpt><trkpt lat="42.5196802" lon="14.1477334"><ele>0.75</ele><time>2026-05-03T12:23:28.964Z</time></trkpt><trkpt lat="42.519756" lon="14.1478591"><ele>0.0</ele><time>2026-05-03T12:23:29.964Z</time></trkpt><trkpt lat="42.5198344" lon="14.1479867"><ele>0.0</ele><time>2026-05-03T12:23:30.963Z</time></trkpt><trkpt lat="42.5199061" lon="14.148128"><ele>0.0</ele><time>2026-05-03T12:23:31.964Z</time></trkpt><trkpt lat="42.5199698" lon="14.148281"><ele>0.0</ele><time>2026-05-03T12:23:32.964Z</time></trkpt><trkpt lat="42.5200313" lon="14.148442"><ele>0.0</ele><time>2026-05-03T12:23:33.964Z</time></trkpt><trkpt lat="42.5200892" lon="14.1486113"><ele>0.5</ele><time>2026-05-03T12:23:34.962Z</time></trkpt><trkpt lat="42.5201469" lon="14.1487776"><ele>1.0</ele><time>2026-05-03T12:23:35.964Z</time></trkpt><trkpt lat="42.5202111" lon="14.1489493"><ele>1.5</ele><time>2026-05-03T12:23:36.964Z</time></trkpt><trkpt lat="42.5202724" lon="14.14912"><ele>2.0</ele><time>2026-05-03T12:23:37.964Z</time></trkpt><trkpt lat="42.5203303" lon="14.149285"><ele>2.0</ele><time>2026-05-03T12:23:38.963Z</time></trkpt><trkpt lat="42.5203852" lon="14.1494439"><ele>2.0</ele><time>2026-05-03T12:23:39.964Z</time></trkpt><trkpt lat="42.5204351" lon="14.1495973"><ele>2.0</ele><time>2026-05-03T12:23:40.964Z</time></trkpt><trkpt lat="42.520485" lon="14.1497449"><ele>2.0</ele><time>2026-05-03T12:23:41.964Z</time></trkpt><trkpt lat="42.5205379" lon="14.1498941"><ele>2.25</ele><time>2026-05-03T12:23:42.963Z</time></trkpt><trkpt lat="42.5205902" lon="14.1500399"><ele>2.5</ele><time>2026-05-03T12:23:43.963Z</time></trkpt><trkpt lat="42.52064" lon="14.1501877"><ele>2.75</ele><time>2026-05-03T12:23:44.964Z</time></trkpt><trkpt lat="42.520689" lon="14.1503295"><ele>3.0</ele><time>2026-05-03T12:23:45.963Z</time></trkpt><trkpt lat="42.5207364" lon="14.1504704"><ele>3.0</ele><time>2026-05-03T12:23:46.963Z</time></trkpt><trkpt lat="42.5207845" lon="14.150613"><ele>3.0</ele><time>2026-05-03T12:23:47.964Z</time></trkpt><trkpt lat="42.5208337" lon="14.1507606"><ele>3.0</ele><time>2026-05-03T12:23:48.963Z</time></trkpt><trkpt lat="42.5208854" lon="14.1509026"><ele>3.0</ele><time>2026-05-03T12:23:49.964Z</time></trkpt><trkpt lat="42.5209346" lon="14.1510408"><ele>2.8</ele><time>2026-05-03T12:23:50.964Z</time></trkpt><trkpt lat="42.5209803" lon="14.1511769"><ele>2.5999999999999996</ele><time>2026-05-03T12:23:51.963Z</time></trkpt><trkpt lat="42.521022" lon="14.1513062"><ele>2.4000000000000004</ele><time>2026-05-03T12:23:52.964Z</time></trkpt><trkpt lat="42.5210625" lon="14.1514303"><ele>2.2</ele><time>2026-05-03T12:23:53.964Z</time></trkpt><trkpt lat="42.5211028" lon="14.1515477"><ele>2.0</ele><time>2026-05-03T12:23:54.963Z</time></trkpt><trkpt lat="42.5211421" lon="14.1516606"><ele>1.9999999999999998</ele><time>2026-05-03T12:23:55.963Z</time></trkpt><trkpt lat="42.5211776" lon="14.1517674"><ele>2.0</ele><time>2026-05-03T12:23:56.962Z</time></trkpt><trkpt lat="42.5212133" lon="14.1518669"><ele>2.0</ele><time>2026-05-03T12:23:57.964Z</time></trkpt><trkpt lat="42.5212433" lon="14.1519535"><ele>2.0</ele><time>2026-05-03T12:23:58.964Z</time></trkpt><trkpt lat="42.5212928" lon="14.1520862"><ele>1.9999999999999998</ele><time>2026-05-03T12:24:00.963Z</time></trkpt><trkpt lat="42.5213624" lon="14.1521633"><ele>2.0</ele><time>2026-05-03T12:24:03.964Z</time></trkpt><trkpt lat="42.5214383" lon="14.1521432"><ele>1.6666666666666665</ele><time>2026-05-03T12:24:05.963Z</time></trkpt><trkpt lat="42.5215093" lon="14.152098"><ele>1.3333333333333333</ele><time>2026-05-03T12:24:07.964Z</time></trkpt><trkpt lat="42.5215859" lon="14.1520036"><ele>1.0</ele><time>2026-05-03T12:24:09.964Z</time></trkpt><trkpt lat="42.5216652" lon="14.1519681"><ele>0.6666666666666666</ele><time>2026-05-03T12:24:11.963Z</time></trkpt><trkpt lat="42.5217113" lon="14.152041"><ele>0.3333333333333333</ele><time>2026-05-03T12:24:14.964Z</time></trkpt><trkpt lat="42.5216619" lon="14.1521481"><ele>0.0</ele><time>2026-05-03T12:24:17.964Z</time></trkpt><trkpt lat="42.5216271" lon="14.1522402"><ele>0.0</ele><time>2026-05-03T12:24:19.963Z</time></trkpt><trkpt lat="42.5216557" lon="14.1523193"><ele>0.0</ele><time>2026-05-03T12:24:21.964Z</time></trkpt><trkpt lat="42.5217048" lon="14.152409"><ele>0.0</ele><time>2026-05-03T12:24:23.963Z</time></trkpt><trkpt lat="42.5217494" lon="14.1525217"><ele>0.0</ele><time>2026-05-03T12:24:25.964Z</time></trkpt><trkpt lat="42.5217959" lon="14.1526276"><ele>0.0</ele><time>2026-05-03T12:24:27.964Z</time></trkpt><trkpt lat="42.5218341" lon="14.1527092"><ele>0.0</ele><time>2026-05-03T12:24:29.963Z</time></trkpt><trkpt lat="42.521896" lon="14.1527622"><ele>-0.16666666666666666</ele><time>2026-05-03T12:24:35.964Z</time></trkpt><trkpt lat="42.5219578" lon="14.1527137"><ele>-0.3333333333333333</ele><time>2026-05-03T12:24:40.964Z</time></trkpt><trkpt lat="42.5220338" lon="14.1527415"><ele>-0.5</ele><time>2026-05-03T12:24:45.964Z</time></trkpt><trkpt lat="42.5220848" lon="14.152853"><ele>-0.6666666666666666</ele><time>2026-05-03T12:24:47.963Z</time></trkpt><trkpt lat="42.5221369" lon="14.1529699"><ele>-0.8333333333333333</ele><time>2026-05-03T12:24:49.964Z</time></trkpt><trkpt lat="42.5221747" lon="14.1530773"><ele>-1.0</ele><time>2026-05-03T12:24:51.962Z</time></trkpt><trkpt lat="42.5222122" lon="14.1531619"><ele>-0.49999999999999994</ele><time>2026-05-03T12:24:53.963Z</time></trkpt><trkpt lat="42.5222909" lon="14.1531685"><ele>0.0</ele><time>2026-05-03T12:24:56.963Z</time></trkpt><trkpt lat="42.522364" lon="14.153102"><ele>0.5</ele><time>2026-05-03T12:24:59.963Z</time></trkpt><trkpt lat="42.5224275" lon="14.153057"><ele>1.0</ele><time>2026-05-03T12:25:02.964Z</time></trkpt><trkpt lat="42.5223762" lon="14.1530036"><ele>1.4999999999999998</ele><time>2026-05-03T12:25:07.963Z</time></trkpt><trkpt lat="42.5223174" lon="14.1529067"><ele>2.0</ele><time>2026-05-03T12:25:14.964Z</time></trkpt><trkpt lat="42.5222872" lon="14.1528254"><ele>2.0</ele><time>2026-05-03T12:25:16.964Z</time></trkpt><trkpt lat="42.5222519" lon="14.1527155"><ele>2.0</ele><time>2026-05-03T12:25:19.963Z</time></trkpt><trkpt lat="42.5222664" lon="14.1526297"><ele>2.0</ele><time>2026-05-03T12:25:22.963Z</time></trkpt><trkpt lat="42.5223145" lon="14.1525571"><ele>2.0</ele><time>2026-05-03T12:25:42.964Z</time></trkpt></trkseg></trk></gpx>